<?xml version='1.0' encoding='UTF-8'?><gpx version="1.1" creator="JPX - https://github.com/jenetics/jpx" xmlns="http://www.topografix.com/GPX/1/1"><trk><trkseg><trkpt lat="45.5234146" lon="9.3247077"><ele>132.0</ele><time>2026-03-29T09:12:37.319Z</time></trkpt><trkpt lat="45.5233475" lon="9.3246878"><ele>132.0</ele><time>2026-03-29T09:13:04.339Z</time></trkpt><trkpt lat="45.5233773" lon="9.3244637"><ele>132.0</ele><time>2026-03-29T09:13:06.319Z</time></trkpt><trkpt lat="45.5233945" lon="9.3243117"><ele>132.0</ele><time>2026-03-29T09:13:07.34Z</time></trkpt><trkpt lat="45.5233626" lon="9.3241952"><ele>132.0</ele><time>2026-03-29T09:13:09.334Z</time></trkpt><trkpt lat="45.5232643" lon="9.3241895"><ele>132.0</ele><time>2026-03-29T09:13:11.321Z</time></trkpt><trkpt lat="45.5231969" lon="9.3242019"><ele>132.0</ele><time>2026-03-29T09:13:12.34Z</time></trkpt><trkpt lat="45.5231239" lon="9.3242136"><ele>132.0</ele><time>2026-03-29T09:13:13.332Z</time></trkpt><trkpt lat="45.5230443" lon="9.324224"><ele>132.0</ele><time>2026-03-29T09:13:14.32Z</time></trkpt><trkpt lat="45.5229529" lon="9.3242312"><ele>132.0</ele><time>2026-03-29T09:13:15.326Z</time></trkpt><trkpt lat="45.5228585" lon="9.3242285"><ele>132.0</ele><time>2026-03-29T09:13:16.362Z</time></trkpt><trkpt lat="45.5227776" lon="9.3242223"><ele>132.2</ele><time>2026-03-29T09:13:17.333Z</time></trkpt><trkpt lat="45.5227051" lon="9.3242227"><ele>132.39999999999998</ele><time>2026-03-29T09:13:18.337Z</time></trkpt><trkpt lat="45.5226144" lon="9.3242409"><ele>132.60000000000002</ele><time>2026-03-29T09:13:20.317Z</time></trkpt><trkpt lat="45.5225707" lon="9.3243157"><ele>132.8</ele><time>2026-03-29T09:13:28.332Z</time></trkpt><trkpt lat="45.5225659" lon="9.3244419"><ele>133.0</ele><time>2026-03-29T09:13:30.34Z</time></trkpt><trkpt lat="45.5226052" lon="9.3246472"><ele>133.20000000000002</ele><time>2026-03-29T09:13:32.322Z</time></trkpt><trkpt lat="45.5226476" lon="9.3247826"><ele>133.4</ele><time>2026-03-29T09:13:33.33Z</time></trkpt><trkpt lat="45.5226878" lon="9.324925"><ele>133.60000000000002</ele><time>2026-03-29T09:13:34.328Z</time></trkpt><trkpt lat="45.5227311" lon="9.325059"><ele>133.8</ele><time>2026-03-29T09:13:35.317Z</time></trkpt><trkpt lat="45.5227817" lon="9.3251978"><ele>134.0</ele><time>2026-03-29T09:13:36.34Z</time></trkpt><trkpt lat="45.5228313" lon="9.3253462"><ele>134.0</ele><time>2026-03-29T09:13:37.332Z</time></trkpt><trkpt lat="45.5228785" lon="9.3255019"><ele>134.0</ele><time>2026-03-29T09:13:38.346Z</time></trkpt><trkpt lat="45.5229191" lon="9.3256476"><ele>134.0</ele><time>2026-03-29T09:13:39.343Z</time></trkpt><trkpt lat="45.522954" lon="9.3257893"><ele>134.0</ele><time>2026-03-29T09:13:40.33Z</time></trkpt><trkpt lat="45.5229824" lon="9.3259153"><ele>134.0</ele><time>2026-03-29T09:13:41.344Z</time></trkpt><trkpt lat="45.5229983" lon="9.3260354"><ele>134.0</ele><time>2026-03-29T09:13:42.324Z</time></trkpt><trkpt lat="45.5230007" lon="9.326155"><ele>134.0</ele><time>2026-03-29T09:13:43.365Z</time></trkpt><trkpt lat="45.5229998" lon="9.3262539"><ele>134.0</ele><time>2026-03-29T09:13:44.331Z</time></trkpt><trkpt lat="45.52295" lon="9.3263824"><ele>134.0</ele><time>2026-03-29T09:13:46.347Z</time></trkpt><trkpt lat="45.5228755" lon="9.3265009"><ele>134.0</ele><time>2026-03-29T09:13:48.355Z</time></trkpt><trkpt lat="45.522881" lon="9.3266277"><ele>134.16666666666666</ele><time>2026-03-29T09:13:50.316Z</time></trkpt><trkpt lat="45.5229419" lon="9.3267728"><ele>134.33333333333331</ele><time>2026-03-29T09:13:52.317Z</time></trkpt><trkpt lat="45.5230495" lon="9.3268465"><ele>134.5</ele><time>2026-03-29T09:13:54.323Z</time></trkpt><trkpt lat="45.5231148" lon="9.3268612"><ele>134.66666666666666</ele><time>2026-03-29T09:13:55.315Z</time></trkpt><trkpt lat="45.5231778" lon="9.3268677"><ele>134.83333333333334</ele><time>2026-03-29T09:13:56.335Z</time></trkpt><trkpt lat="45.5232453" lon="9.32687"><ele>135.0</ele><time>2026-03-29T09:13:57.343Z</time></trkpt><trkpt lat="45.5233961" lon="9.3268586"><ele>135.0</ele><time>2026-03-29T09:13:59.655Z</time></trkpt><trkpt lat="45.523545" lon="9.3268405"><ele>135.0</ele><time>2026-03-29T09:14:01.383Z</time></trkpt><trkpt lat="45.5236401" lon="9.3268318"><ele>135.0</ele><time>2026-03-29T09:14:02.382Z</time></trkpt><trkpt lat="45.5237358" lon="9.3268224"><ele>135.0</ele><time>2026-03-29T09:14:03.384Z</time></trkpt><trkpt lat="45.5238384" lon="9.3268139"><ele>135.0</ele><time>2026-03-29T09:14:04.435Z</time></trkpt><trkpt lat="45.5239333" lon="9.3268086"><ele>135.0</ele><time>2026-03-29T09:14:05.39Z</time></trkpt><trkpt lat="45.5240357" lon="9.3268009"><ele>135.0</ele><time>2026-03-29T09:14:06.401Z</time></trkpt><trkpt lat="45.5241396" lon="9.3267904"><ele>135.0</ele><time>2026-03-29T09:14:07.383Z</time></trkpt><trkpt lat="45.5242469" lon="9.3267816"><ele>135.0</ele><time>2026-03-29T09:14:08.386Z</time></trkpt><trkpt lat="45.5243533" lon="9.3267745"><ele>135.0</ele><time>2026-03-29T09:14:09.38Z</time></trkpt><trkpt lat="45.5244615" lon="9.3267683"><ele>134.8</ele><time>2026-03-29T09:14:10.377Z</time></trkpt><trkpt lat="45.5245717" lon="9.3267595"><ele>134.6</ele><time>2026-03-29T09:14:11.382Z</time></trkpt><trkpt lat="45.5246829" lon="9.3267501"><ele>134.4</ele><time>2026-03-29T09:14:12.391Z</time></trkpt><trkpt lat="45.5247919" lon="9.3267407"><ele>134.2</ele><time>2026-03-29T09:14:13.398Z</time></trkpt><trkpt lat="45.5248975" lon="9.3267321"><ele>134.0</ele><time>2026-03-29T09:14:14.396Z</time></trkpt><trkpt lat="45.5249957" lon="9.326721"><ele>134.0</ele><time>2026-03-29T09:14:15.411Z</time></trkpt><trkpt lat="45.5250806" lon="9.3267138"><ele>134.0</ele><time>2026-03-29T09:14:16.377Z</time></trkpt><trkpt lat="45.5251575" lon="9.3267094"><ele>134.0</ele><time>2026-03-29T09:14:17.379Z</time></trkpt><trkpt lat="45.525223" lon="9.3267079"><ele>134.0</ele><time>2026-03-29T09:14:18.381Z</time></trkpt><trkpt lat="45.5253303" lon="9.3267071"><ele>134.0</ele><time>2026-03-29T09:14:20.37Z</time></trkpt><trkpt lat="45.5254445" lon="9.3267065"><ele>134.0</ele><time>2026-03-29T09:14:22.378Z</time></trkpt><trkpt lat="45.5255612" lon="9.326671"><ele>134.0</ele><time>2026-03-29T09:14:24.371Z</time></trkpt><trkpt lat="45.5256763" lon="9.326618"><ele>134.0</ele><time>2026-03-29T09:14:26.379Z</time></trkpt><trkpt lat="45.5257959" lon="9.3265508"><ele>134.0</ele><time>2026-03-29T09:14:28.388Z</time></trkpt><trkpt lat="45.5258593" lon="9.3265189"><ele>134.0</ele><time>2026-03-29T09:14:29.376Z</time></trkpt><trkpt lat="45.5259286" lon="9.3264851"><ele>134.0</ele><time>2026-03-29T09:14:30.386Z</time></trkpt><trkpt lat="45.5260001" lon="9.3264482"><ele>134.0</ele><time>2026-03-29T09:14:31.373Z</time></trkpt><trkpt lat="45.5260804" lon="9.3264127"><ele>134.0</ele><time>2026-03-29T09:14:32.398Z</time></trkpt><trkpt lat="45.5261628" lon="9.3263884"><ele>134.0</ele><time>2026-03-29T09:14:33.379Z</time></trkpt><trkpt lat="45.5262464" lon="9.3263721"><ele>134.0</ele><time>2026-03-29T09:14:34.388Z</time></trkpt><trkpt lat="45.5263266" lon="9.3263605"><ele>134.0</ele><time>2026-03-29T09:14:35.384Z</time></trkpt><trkpt lat="45.5264005" lon="9.3263504"><ele>134.0</ele><time>2026-03-29T09:14:36.378Z</time></trkpt><trkpt lat="45.5264714" lon="9.3263397"><ele>134.0</ele><time>2026-03-29T09:14:37.384Z</time></trkpt><trkpt lat="45.5265407" lon="9.3263304"><ele>134.0</ele><time>2026-03-29T09:14:38.387Z</time></trkpt><trkpt lat="45.5266094" lon="9.3263235"><ele>134.0</ele><time>2026-03-29T09:14:39.372Z</time></trkpt><trkpt lat="45.5266729" lon="9.3263178"><ele>134.0</ele><time>2026-03-29T09:14:40.396Z</time></trkpt><trkpt lat="45.526776" lon="9.3263116"><ele>134.0</ele><time>2026-03-29T09:14:42.395Z</time></trkpt><trkpt lat="45.5268528" lon="9.3263076"><ele>134.0</ele><time>2026-03-29T09:14:44.372Z</time></trkpt><trkpt lat="45.5269203" lon="9.3263042"><ele>134.0</ele><time>2026-03-29T09:14:47.385Z</time></trkpt><trkpt lat="45.5269834" lon="9.3263004"><ele>134.0</ele><time>2026-03-29T09:14:50.376Z</time></trkpt><trkpt lat="45.5270633" lon="9.3262835"><ele>134.0</ele><time>2026-03-29T09:14:54.374Z</time></trkpt><trkpt lat="45.527129" lon="9.3262773"><ele>134.0</ele><time>2026-03-29T09:14:59.39Z</time></trkpt><trkpt lat="45.5272089" lon="9.3263456"><ele>134.0</ele><time>2026-03-29T09:15:02.387Z</time></trkpt><trkpt lat="45.5272259" lon="9.326475"><ele>134.0</ele><time>2026-03-29T09:15:04.382Z</time></trkpt><trkpt lat="45.5272374" lon="9.3266258"><ele>134.2</ele><time>2026-03-29T09:15:06.389Z</time></trkpt><trkpt lat="45.5272495" lon="9.3267965"><ele>134.4</ele><time>2026-03-29T09:15:08.385Z</time></trkpt><trkpt lat="45.5272555" lon="9.3268951"><ele>134.6</ele><time>2026-03-29T09:15:09.387Z</time></trkpt><trkpt lat="45.5272684" lon="9.3270502"><ele>134.8</ele><time>2026-03-29T09:15:11.387Z</time></trkpt><trkpt lat="45.5272821" lon="9.3272126"><ele>135.0</ele><time>2026-03-29T09:15:13.378Z</time></trkpt><trkpt lat="45.5272948" lon="9.3273981"><ele>135.0</ele><time>2026-03-29T09:15:15.389Z</time></trkpt><trkpt lat="45.5273026" lon="9.3275059"><ele>135.0</ele><time>2026-03-29T09:15:16.402Z</time></trkpt><trkpt lat="45.5273106" lon="9.3276202"><ele>135.0</ele><time>2026-03-29T09:15:17.389Z</time></trkpt><trkpt lat="45.5273188" lon="9.3277462"><ele>135.0</ele><time>2026-03-29T09:15:18.38Z</time></trkpt><trkpt lat="45.5273284" lon="9.3278858"><ele>135.0</ele><time>2026-03-29T09:15:19.393Z</time></trkpt><trkpt lat="45.5273387" lon="9.3280352"><ele>135.0</ele><time>2026-03-29T09:15:20.385Z</time></trkpt><trkpt lat="45.5273474" lon="9.3281899"><ele>134.8</ele><time>2026-03-29T09:15:21.415Z</time></trkpt><trkpt lat="45.5273571" lon="9.3283354"><ele>134.6</ele><time>2026-03-29T09:15:22.386Z</time></trkpt><trkpt lat="45.5273676" lon="9.3284871"><ele>134.4</ele><time>2026-03-29T09:15:23.385Z</time></trkpt><trkpt lat="45.5273774" lon="9.3286389"><ele>134.2</ele><time>2026-03-29T09:15:24.39Z</time></trkpt><trkpt lat="45.5273878" lon="9.328787"><ele>134.0</ele><time>2026-03-29T09:15:25.379Z</time></trkpt><trkpt lat="45.5273984" lon="9.3289354"><ele>134.0</ele><time>2026-03-29T09:15:26.382Z</time></trkpt><trkpt lat="45.5274092" lon="9.329085"><ele>134.0</ele><time>2026-03-29T09:15:27.408Z</time></trkpt><trkpt lat="45.5274196" lon="9.3292266"><ele>134.0</ele><time>2026-03-29T09:15:28.39Z</time></trkpt><trkpt lat="45.5274294" lon="9.3293707"><ele>134.0</ele><time>2026-03-29T09:15:29.389Z</time></trkpt><trkpt lat="45.527439" lon="9.3295183"><ele>134.0</ele><time>2026-03-29T09:15:30.41Z</time></trkpt><trkpt lat="45.527449" lon="9.3296635"><ele>133.8</ele><time>2026-03-29T09:15:31.408Z</time></trkpt><trkpt lat="45.5274603" lon="9.3298087"><ele>133.60000000000002</ele><time>2026-03-29T09:15:32.4Z</time></trkpt><trkpt lat="45.5274714" lon="9.3299537"><ele>133.4</ele><time>2026-03-29T09:15:33.385Z</time></trkpt><trkpt lat="45.5274827" lon="9.3301"><ele>133.20000000000002</ele><time>2026-03-29T09:15:34.379Z</time></trkpt><trkpt lat="45.5274927" lon="9.3302487"><ele>133.0</ele><time>2026-03-29T09:15:35.387Z</time></trkpt><trkpt lat="45.5275023" lon="9.3303956"><ele>133.0</ele><time>2026-03-29T09:15:36.386Z</time></trkpt><trkpt lat="45.5275137" lon="9.3305313"><ele>133.0</ele><time>2026-03-29T09:15:37.384Z</time></trkpt><trkpt lat="45.5275241" lon="9.3306547"><ele>133.0</ele><time>2026-03-29T09:15:38.382Z</time></trkpt><trkpt lat="45.5275334" lon="9.3307685"><ele>133.0</ele><time>2026-03-29T09:15:39.391Z</time></trkpt><trkpt lat="45.5275402" lon="9.3308718"><ele>133.0</ele><time>2026-03-29T09:15:40.376Z</time></trkpt><trkpt lat="45.5275466" lon="9.3309775"><ele>133.0</ele><time>2026-03-29T09:15:41.378Z</time></trkpt><trkpt lat="45.5275553" lon="9.3310854"><ele>133.33333333333334</ele><time>2026-03-29T09:15:42.391Z</time></trkpt><trkpt lat="45.5275657" lon="9.3311936"><ele>133.66666666666669</ele><time>2026-03-29T09:15:43.383Z</time></trkpt><trkpt lat="45.5275749" lon="9.331297"><ele>134.0</ele><time>2026-03-29T09:15:44.37Z</time></trkpt><trkpt lat="45.5275821" lon="9.3313904"><ele>134.33333333333334</ele><time>2026-03-29T09:15:45.38Z</time></trkpt><trkpt lat="45.5275909" lon="9.3315221"><ele>134.66666666666666</ele><time>2026-03-29T09:15:47.381Z</time></trkpt><trkpt lat="45.5275988" lon="9.3316348"><ele>135.0</ele><time>2026-03-29T09:15:50.322Z</time></trkpt><trkpt lat="45.5276085" lon="9.3317487"><ele>135.0</ele><time>2026-03-29T09:15:53.322Z</time></trkpt><trkpt lat="45.5276181" lon="9.3318572"><ele>135.0</ele><time>2026-03-29T09:15:55.335Z</time></trkpt><trkpt lat="45.5276233" lon="9.3319645"><ele>135.0</ele><time>2026-03-29T09:15:57.335Z</time></trkpt><trkpt lat="45.5276236" lon="9.3320549"><ele>135.0</ele><time>2026-03-29T09:15:59.345Z</time></trkpt><trkpt lat="45.527607" lon="9.3321804"><ele>135.0</ele><time>2026-03-29T09:16:02.326Z</time></trkpt><trkpt lat="45.5275854" lon="9.3322738"><ele>135.0</ele><time>2026-03-29T09:16:04.325Z</time></trkpt><trkpt lat="45.5275952" lon="9.3323725"><ele>135.0</ele><time>2026-03-29T09:16:08.326Z</time></trkpt><trkpt lat="45.5276219" lon="9.3324755"><ele>134.8</ele><time>2026-03-29T09:16:14.33Z</time></trkpt><trkpt lat="45.5276436" lon="9.3326046"><ele>134.6</ele><time>2026-03-29T09:16:16.332Z</time></trkpt><trkpt lat="45.5276533" lon="9.3327657"><ele>134.4</ele><time>2026-03-29T09:16:18.32Z</time></trkpt><trkpt lat="45.5276635" lon="9.3329441"><ele>134.2</ele><time>2026-03-29T09:16:20.34Z</time></trkpt><trkpt lat="45.5276672" lon="9.3330386"><ele>134.0</ele><time>2026-03-29T09:16:21.334Z</time></trkpt><trkpt lat="45.5276753" lon="9.3331437"><ele>134.0</ele><time>2026-03-29T09:16:22.361Z</time></trkpt><trkpt lat="45.5276799" lon="9.3332466"><ele>134.0</ele><time>2026-03-29T09:16:23.348Z</time></trkpt><trkpt lat="45.5276881" lon="9.3333506"><ele>134.0</ele><time>2026-03-29T09:16:24.329Z</time></trkpt><trkpt lat="45.5276983" lon="9.3334599"><ele>134.0</ele><time>2026-03-29T09:16:25.327Z</time></trkpt><trkpt lat="45.5277021" lon="9.333561"><ele>134.0</ele><time>2026-03-29T09:16:26.333Z</time></trkpt><trkpt lat="45.5277162" lon="9.3336916"><ele>134.0</ele><time>2026-03-29T09:16:28.333Z</time></trkpt><trkpt lat="45.5277237" lon="9.3337884"><ele>134.0</ele><time>2026-03-29T09:16:30.333Z</time></trkpt><trkpt lat="45.5277293" lon="9.3339267"><ele>134.0</ele><time>2026-03-29T09:16:32.347Z</time></trkpt><trkpt lat="45.5277389" lon="9.3340892"><ele>134.0</ele><time>2026-03-29T09:16:34.347Z</time></trkpt><trkpt lat="45.5277468" lon="9.3341846"><ele>134.0</ele><time>2026-03-29T09:16:35.337Z</time></trkpt><trkpt lat="45.5277547" lon="9.3342937"><ele>134.0</ele><time>2026-03-29T09:16:36.354Z</time></trkpt><trkpt lat="45.5277632" lon="9.3344088"><ele>134.0</ele><time>2026-03-29T09:16:37.337Z</time></trkpt><trkpt lat="45.5277731" lon="9.3345372"><ele>134.0</ele><time>2026-03-29T09:16:38.318Z</time></trkpt><trkpt lat="45.5277817" lon="9.3346854"><ele>134.0</ele><time>2026-03-29T09:16:39.352Z</time></trkpt><trkpt lat="45.5277858" lon="9.3348403"><ele>134.0</ele><time>2026-03-29T09:16:40.334Z</time></trkpt><trkpt lat="45.5277909" lon="9.3350089"><ele>134.0</ele><time>2026-03-29T09:16:41.355Z</time></trkpt><trkpt lat="45.5278008" lon="9.3351739"><ele>134.0</ele><time>2026-03-29T09:16:42.326Z</time></trkpt><trkpt lat="45.5278084" lon="9.3353443"><ele>134.0</ele><time>2026-03-29T09:16:43.33Z</time></trkpt><trkpt lat="45.5278165" lon="9.3354984"><ele>134.0</ele><time>2026-03-29T09:16:44.316Z</time></trkpt><trkpt lat="45.5278254" lon="9.3356456"><ele>134.0</ele><time>2026-03-29T09:16:45.329Z</time></trkpt><trkpt lat="45.5278294" lon="9.3357794"><ele>134.0</ele><time>2026-03-29T09:16:46.319Z</time></trkpt><trkpt lat="45.5278349" lon="9.3359015"><ele>134.0</ele><time>2026-03-29T09:16:47.334Z</time></trkpt><trkpt lat="45.5278401" lon="9.3360135"><ele>134.0</ele><time>2026-03-29T09:16:48.328Z</time></trkpt><trkpt lat="45.5278431" lon="9.3361238"><ele>134.0</ele><time>2026-03-29T09:16:49.331Z</time></trkpt><trkpt lat="45.5278478" lon="9.3362255"><ele>134.0</ele><time>2026-03-29T09:16:50.32Z</time></trkpt><trkpt lat="45.5278484" lon="9.3363259"><ele>134.0</ele><time>2026-03-29T09:16:51.326Z</time></trkpt><trkpt lat="45.5278526" lon="9.3364239"><ele>134.0</ele><time>2026-03-29T09:16:52.318Z</time></trkpt><trkpt lat="45.5278592" lon="9.3365307"><ele>134.0</ele><time>2026-03-29T09:16:53.334Z</time></trkpt><trkpt lat="45.5278606" lon="9.336636"><ele>134.0</ele><time>2026-03-29T09:16:54.318Z</time></trkpt><trkpt lat="45.5278662" lon="9.3367421"><ele>134.0</ele><time>2026-03-29T09:16:55.319Z</time></trkpt><trkpt lat="45.5278713" lon="9.3368488"><ele>134.0</ele><time>2026-03-29T09:16:56.337Z</time></trkpt><trkpt lat="45.5278757" lon="9.3369499"><ele>134.0</ele><time>2026-03-29T09:16:57.33Z</time></trkpt><trkpt lat="45.5278717" lon="9.3371052"><ele>134.0</ele><time>2026-03-29T09:16:59.321Z</time></trkpt><trkpt lat="45.52785" lon="9.3372576"><ele>134.0</ele><time>2026-03-29T09:17:01.334Z</time></trkpt><trkpt lat="45.5278328" lon="9.3373471"><ele>134.0</ele><time>2026-03-29T09:17:02.319Z</time></trkpt><trkpt lat="45.5278229" lon="9.3374425"><ele>134.0</ele><time>2026-03-29T09:17:03.325Z</time></trkpt><trkpt lat="45.5278431" lon="9.3376188"><ele>134.0</ele><time>2026-03-29T09:17:05.336Z</time></trkpt><trkpt lat="45.527864" lon="9.3377146"><ele>134.0</ele><time>2026-03-29T09:17:06.331Z</time></trkpt><trkpt lat="45.5278795" lon="9.3378099"><ele>134.0</ele><time>2026-03-29T09:17:07.32Z</time></trkpt><trkpt lat="45.5278906" lon="9.3379196"><ele>134.0</ele><time>2026-03-29T09:17:08.337Z</time></trkpt><trkpt lat="45.5278956" lon="9.3380326"><ele>134.0</ele><time>2026-03-29T09:17:09.327Z</time></trkpt><trkpt lat="45.5279028" lon="9.338147"><ele>134.4</ele><time>2026-03-29T09:17:10.32Z</time></trkpt><trkpt lat="45.5279118" lon="9.3382771"><ele>134.8</ele><time>2026-03-29T09:17:11.323Z</time></trkpt><trkpt lat="45.5279195" lon="9.3384254"><ele>135.2</ele><time>2026-03-29T09:17:12.329Z</time></trkpt><trkpt lat="45.5279254" lon="9.3385864"><ele>135.6</ele><time>2026-03-29T09:17:13.333Z</time></trkpt><trkpt lat="45.5279344" lon="9.3387449"><ele>136.0</ele><time>2026-03-29T09:17:14.332Z</time></trkpt><trkpt lat="45.5279394" lon="9.3388996"><ele>136.0</ele><time>2026-03-29T09:17:15.32Z</time></trkpt><trkpt lat="45.5279478" lon="9.3390504"><ele>136.0</ele><time>2026-03-29T09:17:16.328Z</time></trkpt><trkpt lat="45.5279566" lon="9.3391971"><ele>136.0</ele><time>2026-03-29T09:17:17.328Z</time></trkpt><trkpt lat="45.5279654" lon="9.3393299"><ele>136.0</ele><time>2026-03-29T09:17:18.328Z</time></trkpt><trkpt lat="45.5279693" lon="9.339443"><ele>136.0</ele><time>2026-03-29T09:17:19.324Z</time></trkpt><trkpt lat="45.5279759" lon="9.3395394"><ele>136.0</ele><time>2026-03-29T09:17:20.325Z</time></trkpt><trkpt lat="45.5279865" lon="9.3396964"><ele>136.0</ele><time>2026-03-29T09:17:22.327Z</time></trkpt><trkpt lat="45.5279957" lon="9.3398145"><ele>136.0</ele><time>2026-03-29T09:17:34.327Z</time></trkpt><trkpt lat="45.5279976" lon="9.3399618"><ele>136.0</ele><time>2026-03-29T09:17:36.343Z</time></trkpt><trkpt lat="45.5279989" lon="9.3400593"><ele>136.0</ele><time>2026-03-29T09:17:37.328Z</time></trkpt><trkpt lat="45.527999" lon="9.3401764"><ele>136.0</ele><time>2026-03-29T09:17:38.318Z</time></trkpt><trkpt lat="45.527988" lon="9.3402973"><ele>136.0</ele><time>2026-03-29T09:17:39.327Z</time></trkpt><trkpt lat="45.5279866" lon="9.3404157"><ele>136.0</ele><time>2026-03-29T09:17:40.32Z</time></trkpt><trkpt lat="45.527999" lon="9.3405523"><ele>136.0</ele><time>2026-03-29T09:17:41.332Z</time></trkpt><trkpt lat="45.5280188" lon="9.3406944"><ele>136.0</ele><time>2026-03-29T09:17:42.332Z</time></trkpt><trkpt lat="45.528034" lon="9.3408491"><ele>136.0</ele><time>2026-03-29T09:17:43.331Z</time></trkpt><trkpt lat="45.5280411" lon="9.3410111"><ele>136.25</ele><time>2026-03-29T09:17:44.32Z</time></trkpt><trkpt lat="45.5280468" lon="9.341183"><ele>136.5</ele><time>2026-03-29T09:17:45.339Z</time></trkpt><trkpt lat="45.5280485" lon="9.3413549"><ele>136.75</ele><time>2026-03-29T09:17:46.322Z</time></trkpt><trkpt lat="45.5280514" lon="9.3415326"><ele>137.0</ele><time>2026-03-29T09:17:47.323Z</time></trkpt><trkpt lat="45.5280581" lon="9.3417127"><ele>136.5</ele><time>2026-03-29T09:17:48.331Z</time></trkpt><trkpt lat="45.528065" lon="9.3418895"><ele>136.0</ele><time>2026-03-29T09:17:49.315Z</time></trkpt><trkpt lat="45.52807" lon="9.3420677"><ele>135.5</ele><time>2026-03-29T09:17:50.347Z</time></trkpt><trkpt lat="45.5280749" lon="9.3422203"><ele>135.0</ele><time>2026-03-29T09:17:51.316Z</time></trkpt><trkpt lat="45.5280803" lon="9.3423722"><ele>135.0</ele><time>2026-03-29T09:17:52.335Z</time></trkpt><trkpt lat="45.5280872" lon="9.3425198"><ele>135.0</ele><time>2026-03-29T09:17:53.335Z</time></trkpt><trkpt lat="45.5280926" lon="9.3426715"><ele>135.0</ele><time>2026-03-29T09:17:54.337Z</time></trkpt><trkpt lat="45.5280983" lon="9.3428313"><ele>135.0</ele><time>2026-03-29T09:17:55.34Z</time></trkpt><trkpt lat="45.5281047" lon="9.342994"><ele>135.0</ele><time>2026-03-29T09:17:56.336Z</time></trkpt><trkpt lat="45.5281083" lon="9.3431593"><ele>134.75</ele><time>2026-03-29T09:17:57.321Z</time></trkpt><trkpt lat="45.5281101" lon="9.3433261"><ele>134.5</ele><time>2026-03-29T09:17:58.324Z</time></trkpt><trkpt lat="45.5281152" lon="9.3434987"><ele>134.25</ele><time>2026-03-29T09:17:59.328Z</time></trkpt><trkpt lat="45.5281217" lon="9.3436692"><ele>134.0</ele><time>2026-03-29T09:18:00.325Z</time></trkpt><trkpt lat="45.5281297" lon="9.3438376"><ele>134.0</ele><time>2026-03-29T09:18:01.331Z</time></trkpt><trkpt lat="45.528137" lon="9.3439921"><ele>134.0</ele><time>2026-03-29T09:18:02.337Z</time></trkpt><trkpt lat="45.5281402" lon="9.3441261"><ele>134.0</ele><time>2026-03-29T09:18:03.338Z</time></trkpt><trkpt lat="45.5281349" lon="9.344225"><ele>134.0</ele><time>2026-03-29T09:18:04.345Z</time></trkpt><trkpt lat="45.5280922" lon="9.3443298"><ele>134.0</ele><time>2026-03-29T09:18:13.338Z</time></trkpt><trkpt lat="45.5280107" lon="9.3443726"><ele>134.0</ele><time>2026-03-29T09:18:16.333Z</time></trkpt><trkpt lat="45.5278853" lon="9.3443786"><ele>134.0</ele><time>2026-03-29T09:18:18.321Z</time></trkpt><trkpt lat="45.5277919" lon="9.3443759"><ele>134.0</ele><time>2026-03-29T09:18:19.326Z</time></trkpt><trkpt lat="45.5276763" lon="9.3443772"><ele>134.0</ele><time>2026-03-29T09:18:20.348Z</time></trkpt><trkpt lat="45.5275567" lon="9.3443869"><ele>134.0</ele><time>2026-03-29T09:18:21.326Z</time></trkpt><trkpt lat="45.527425" lon="9.3444078"><ele>134.0</ele><time>2026-03-29T09:18:22.333Z</time></trkpt><trkpt lat="45.5272902" lon="9.3444344"><ele>134.0</ele><time>2026-03-29T09:18:23.33Z</time></trkpt><trkpt lat="45.5271489" lon="9.344472"><ele>134.0</ele><time>2026-03-29T09:18:24.327Z</time></trkpt><trkpt lat="45.5270058" lon="9.3445174"><ele>134.0</ele><time>2026-03-29T09:18:25.332Z</time></trkpt><trkpt lat="45.5268616" lon="9.3445626"><ele>134.0</ele><time>2026-03-29T09:18:26.329Z</time></trkpt><trkpt lat="45.5267213" lon="9.3446082"><ele>134.0</ele><time>2026-03-29T09:18:27.322Z</time></trkpt><trkpt lat="45.5265859" lon="9.3446465"><ele>134.0</ele><time>2026-03-29T09:18:28.32Z</time></trkpt><trkpt lat="45.5264566" lon="9.3446808"><ele>134.0</ele><time>2026-03-29T09:18:29.328Z</time></trkpt><trkpt lat="45.5263401" lon="9.344719"><ele>134.0</ele><time>2026-03-29T09:18:30.334Z</time></trkpt><trkpt lat="45.5262312" lon="9.3447519"><ele>134.0</ele><time>2026-03-29T09:18:31.322Z</time></trkpt><trkpt lat="45.5261226" lon="9.3447914"><ele>134.0</ele><time>2026-03-29T09:18:32.374Z</time></trkpt><trkpt lat="45.5260237" lon="9.3448201"><ele>134.0</ele><time>2026-03-29T09:18:33.333Z</time></trkpt><trkpt lat="45.5259149" lon="9.3448569"><ele>134.0</ele><time>2026-03-29T09:18:34.332Z</time></trkpt><trkpt lat="45.5258033" lon="9.3448921"><ele>134.0</ele><time>2026-03-29T09:18:35.325Z</time></trkpt><trkpt lat="45.5256818" lon="9.3449251"><ele>134.0</ele><time>2026-03-29T09:18:36.331Z</time></trkpt><trkpt lat="45.5255602" lon="9.344959"><ele>134.0</ele><time>2026-03-29T09:18:37.325Z</time></trkpt><trkpt lat="45.5254369" lon="9.3449925"><ele>134.0</ele><time>2026-03-29T09:18:38.322Z</time></trkpt><trkpt lat="45.5253138" lon="9.3450283"><ele>133.8</ele><time>2026-03-29T09:18:39.329Z</time></trkpt><trkpt lat="45.5251972" lon="9.3450639"><ele>133.60000000000002</ele><time>2026-03-29T09:18:40.33Z</time></trkpt><trkpt lat="45.5250922" lon="9.3450997"><ele>133.4</ele><time>2026-03-29T09:18:41.343Z</time></trkpt><trkpt lat="45.5249937" lon="9.3451274"><ele>133.20000000000002</ele><time>2026-03-29T09:18:42.332Z</time></trkpt><trkpt lat="45.5248983" lon="9.3451552"><ele>133.0</ele><time>2026-03-29T09:18:43.341Z</time></trkpt><trkpt lat="45.5248113" lon="9.345185"><ele>133.0</ele><time>2026-03-29T09:18:44.327Z</time></trkpt><trkpt lat="45.5247059" lon="9.3452152"><ele>133.0</ele><time>2026-03-29T09:18:45.341Z</time></trkpt><trkpt lat="45.5246115" lon="9.3452417"><ele>133.0</ele><time>2026-03-29T09:18:46.32Z</time></trkpt><trkpt lat="45.5245265" lon="9.3452629"><ele>133.0</ele><time>2026-03-29T09:18:47.324Z</time></trkpt><trkpt lat="45.5244631" lon="9.3452792"><ele>133.0</ele><time>2026-03-29T09:18:48.326Z</time></trkpt><trkpt lat="45.5243779" lon="9.3453002"><ele>133.0</ele><time>2026-03-29T09:18:50.341Z</time></trkpt><trkpt lat="45.524294" lon="9.345303"><ele>132.8</ele><time>2026-03-29T09:18:53.324Z</time></trkpt><trkpt lat="45.5242115" lon="9.345318"><ele>132.60000000000002</ele><time>2026-03-29T09:18:55.329Z</time></trkpt><trkpt lat="45.5241211" lon="9.3453446"><ele>132.39999999999998</ele><time>2026-03-29T09:18:57.334Z</time></trkpt><trkpt lat="45.5241154" lon="9.3454979"><ele>132.2</ele><time>2026-03-29T09:19:00.32Z</time></trkpt><trkpt lat="45.5241742" lon="9.3456534"><ele>132.0</ele><time>2026-03-29T09:19:02.33Z</time></trkpt><trkpt lat="45.5241944" lon="9.3457567"><ele>131.83333333333334</ele><time>2026-03-29T09:19:03.342Z</time></trkpt><trkpt lat="45.5242144" lon="9.3458641"><ele>131.66666666666666</ele><time>2026-03-29T09:19:04.318Z</time></trkpt><trkpt lat="45.5242383" lon="9.3459972"><ele>131.5</ele><time>2026-03-29T09:19:05.337Z</time></trkpt><trkpt lat="45.5242633" lon="9.3461247"><ele>131.33333333333331</ele><time>2026-03-29T09:19:06.328Z</time></trkpt><trkpt lat="45.5242893" lon="9.3462559"><ele>131.16666666666666</ele><time>2026-03-29T09:19:07.338Z</time></trkpt><trkpt lat="45.5243132" lon="9.3463739"><ele>131.0</ele><time>2026-03-29T09:19:08.321Z</time></trkpt><trkpt lat="45.5243358" lon="9.3464947"><ele>130.8</ele><time>2026-03-29T09:19:09.352Z</time></trkpt><trkpt lat="45.5243568" lon="9.3466147"><ele>130.6</ele><time>2026-03-29T09:19:10.33Z</time></trkpt><trkpt lat="45.5243779" lon="9.3467381"><ele>130.4</ele><time>2026-03-29T09:19:11.321Z</time></trkpt><trkpt lat="45.5244027" lon="9.346866"><ele>130.2</ele><time>2026-03-29T09:19:12.319Z</time></trkpt><trkpt lat="45.5244285" lon="9.3469947"><ele>130.0</ele><time>2026-03-29T09:19:13.33Z</time></trkpt><trkpt lat="45.5244541" lon="9.3471237"><ele>129.6</ele><time>2026-03-29T09:19:14.338Z</time></trkpt><trkpt lat="45.5244781" lon="9.3472553"><ele>129.2</ele><time>2026-03-29T09:19:15.318Z</time></trkpt><trkpt lat="45.5245025" lon="9.3474"><ele>128.8</ele><time>2026-03-29T09:19:16.335Z</time></trkpt><trkpt lat="45.5245297" lon="9.3475535"><ele>128.4</ele><time>2026-03-29T09:19:17.332Z</time></trkpt><trkpt lat="45.5245574" lon="9.3477262"><ele>128.0</ele><time>2026-03-29T09:19:18.328Z</time></trkpt><trkpt lat="45.5245848" lon="9.3479133"><ele>129.25</ele><time>2026-03-29T09:19:19.339Z</time></trkpt><trkpt lat="45.5246137" lon="9.3480998"><ele>130.5</ele><time>2026-03-29T09:19:20.343Z</time></trkpt><trkpt lat="45.5246417" lon="9.3482866"><ele>131.75</ele><time>2026-03-29T09:19:21.334Z</time></trkpt><trkpt lat="45.5246678" lon="9.348478"><ele>133.0</ele><time>2026-03-29T09:19:22.332Z</time></trkpt><trkpt lat="45.5246917" lon="9.3486573"><ele>133.0</ele><time>2026-03-29T09:19:23.344Z</time></trkpt><trkpt lat="45.524707" lon="9.3488115"><ele>133.0</ele><time>2026-03-29T09:19:24.325Z</time></trkpt><trkpt lat="45.5247199" lon="9.3489542"><ele>133.0</ele><time>2026-03-29T09:19:25.33Z</time></trkpt><trkpt lat="45.524732" lon="9.3490828"><ele>133.0</ele><time>2026-03-29T09:19:26.324Z</time></trkpt><trkpt lat="45.5247362" lon="9.3492026"><ele>133.0</ele><time>2026-03-29T09:19:27.331Z</time></trkpt><trkpt lat="45.5247399" lon="9.3493144"><ele>133.0</ele><time>2026-03-29T09:19:28.327Z</time></trkpt><trkpt lat="45.5247381" lon="9.3494088"><ele>133.0</ele><time>2026-03-29T09:19:29.334Z</time></trkpt><trkpt lat="45.5247287" lon="9.3495474"><ele>133.0</ele><time>2026-03-29T09:19:31.324Z</time></trkpt><trkpt lat="45.5247066" lon="9.3496344"><ele>133.0</ele><time>2026-03-29T09:19:32.323Z</time></trkpt><trkpt lat="45.5246823" lon="9.3497338"><ele>133.0</ele><time>2026-03-29T09:19:33.315Z</time></trkpt><trkpt lat="45.5246671" lon="9.3498431"><ele>133.0</ele><time>2026-03-29T09:19:34.332Z</time></trkpt><trkpt lat="45.5246712" lon="9.3499447"><ele>133.0</ele><time>2026-03-29T09:19:35.337Z</time></trkpt><trkpt lat="45.5247" lon="9.3500382"><ele>133.0</ele><time>2026-03-29T09:19:36.331Z</time></trkpt><trkpt lat="45.5247728" lon="9.3501636"><ele>133.0</ele><time>2026-03-29T09:19:37.323Z</time></trkpt><trkpt lat="45.5248768" lon="9.3502531"><ele>133.0</ele><time>2026-03-29T09:19:38.32Z</time></trkpt><trkpt lat="45.524991" lon="9.3503395"><ele>133.0</ele><time>2026-03-29T09:19:39.335Z</time></trkpt><trkpt lat="45.5251002" lon="9.3504435"><ele>133.0</ele><time>2026-03-29T09:19:40.33Z</time></trkpt><trkpt lat="45.525194" lon="9.3505695"><ele>133.0</ele><time>2026-03-29T09:19:41.334Z</time></trkpt><trkpt lat="45.5252488" lon="9.3506921"><ele>133.0</ele><time>2026-03-29T09:19:42.329Z</time></trkpt><trkpt lat="45.5253054" lon="9.3508385"><ele>133.0</ele><time>2026-03-29T09:19:43.322Z</time></trkpt><trkpt lat="45.525355" lon="9.3509923"><ele>133.0</ele><time>2026-03-29T09:19:44.328Z</time></trkpt><trkpt lat="45.525393" lon="9.3511461"><ele>133.0</ele><time>2026-03-29T09:19:45.339Z</time></trkpt><trkpt lat="45.5254357" lon="9.3513044"><ele>133.0</ele><time>2026-03-29T09:19:46.33Z</time></trkpt><trkpt lat="45.5254834" lon="9.3514722"><ele>133.0</ele><time>2026-03-29T09:19:47.321Z</time></trkpt><trkpt lat="45.5255323" lon="9.3516433"><ele>133.25</ele><time>2026-03-29T09:19:48.338Z</time></trkpt><trkpt lat="45.5255782" lon="9.3518148"><ele>133.5</ele><time>2026-03-29T09:19:49.332Z</time></trkpt><trkpt lat="45.5256255" lon="9.3519889"><ele>133.75</ele><time>2026-03-29T09:19:50.337Z</time></trkpt><trkpt lat="45.5256727" lon="9.3521643"><ele>134.0</ele><time>2026-03-29T09:19:51.337Z</time></trkpt><trkpt lat="45.5257213" lon="9.3523514"><ele>134.0</ele><time>2026-03-29T09:19:52.334Z</time></trkpt><trkpt lat="45.525773" lon="9.352543"><ele>134.0</ele><time>2026-03-29T09:19:53.347Z</time></trkpt><trkpt lat="45.5258236" lon="9.3527293"><ele>134.0</ele><time>2026-03-29T09:19:54.334Z</time></trkpt><trkpt lat="45.5258727" lon="9.3529189"><ele>134.0</ele><time>2026-03-29T09:19:55.325Z</time></trkpt><trkpt lat="45.5259274" lon="9.3531096"><ele>134.0</ele><time>2026-03-29T09:19:56.329Z</time></trkpt><trkpt lat="45.5259779" lon="9.3532938"><ele>134.0</ele><time>2026-03-29T09:19:57.327Z</time></trkpt><trkpt lat="45.5260269" lon="9.3534746"><ele>134.0</ele><time>2026-03-29T09:19:58.316Z</time></trkpt><trkpt lat="45.5260762" lon="9.3536605"><ele>134.0</ele><time>2026-03-29T09:19:59.338Z</time></trkpt><trkpt lat="45.526124" lon="9.353843"><ele>134.25</ele><time>2026-03-29T09:20:00.337Z</time></trkpt><trkpt lat="45.526173" lon="9.3540192"><ele>134.5</ele><time>2026-03-29T09:20:01.323Z</time></trkpt><trkpt lat="45.5262243" lon="9.354196"><ele>134.75</ele><time>2026-03-29T09:20:02.331Z</time></trkpt><trkpt lat="45.5262738" lon="9.354366"><ele>135.0</ele><time>2026-03-29T09:20:03.325Z</time></trkpt><trkpt lat="45.5263208" lon="9.3545348"><ele>135.0</ele><time>2026-03-29T09:20:04.336Z</time></trkpt><trkpt lat="45.5263648" lon="9.3546896"><ele>135.0</ele><time>2026-03-29T09:20:05.32Z</time></trkpt><trkpt lat="45.5264053" lon="9.3548361"><ele>135.0</ele><time>2026-03-29T09:20:06.33Z</time></trkpt><trkpt lat="45.526444" lon="9.3549781"><ele>135.0</ele><time>2026-03-29T09:20:07.328Z</time></trkpt><trkpt lat="45.5264819" lon="9.3551087"><ele>135.0</ele><time>2026-03-29T09:20:08.32Z</time></trkpt><trkpt lat="45.5265152" lon="9.3552272"><ele>135.2</ele><time>2026-03-29T09:20:09.318Z</time></trkpt><trkpt lat="45.5265438" lon="9.3553232"><ele>135.4</ele><time>2026-03-29T09:20:10.33Z</time></trkpt><trkpt lat="45.5265903" lon="9.3554576"><ele>135.6</ele><time>2026-03-29T09:20:12.341Z</time></trkpt><trkpt lat="45.5265987" lon="9.3555918"><ele>135.8</ele><time>2026-03-29T09:20:14.344Z</time></trkpt><trkpt lat="45.526584" lon="9.355719"><ele>136.0</ele><time>2026-03-29T09:20:16.337Z</time></trkpt><trkpt lat="45.5266179" lon="9.3558437"><ele>135.42857142857142</ele><time>2026-03-29T09:20:18.324Z</time></trkpt><trkpt lat="45.5266698" lon="9.3558965"><ele>134.85714285714286</ele><time>2026-03-29T09:20:19.318Z</time></trkpt><trkpt lat="45.5267298" lon="9.355961"><ele>134.28571428571428</ele><time>2026-03-29T09:20:20.342Z</time></trkpt><trkpt lat="45.5267711" lon="9.3560348"><ele>133.71428571428572</ele><time>2026-03-29T09:20:21.349Z</time></trkpt><trkpt lat="45.5268051" lon="9.3561129"><ele>133.14285714285714</ele><time>2026-03-29T09:20:22.316Z</time></trkpt><trkpt lat="45.5268389" lon="9.3562009"><ele>132.57142857142856</ele><time>2026-03-29T09:20:23.326Z</time></trkpt><trkpt lat="45.5268842" lon="9.356311"><ele>132.0</ele><time>2026-03-29T09:20:24.319Z</time></trkpt><trkpt lat="45.5269379" lon="9.3564592"><ele>132.0</ele><time>2026-03-29T09:20:25.327Z</time></trkpt><trkpt lat="45.5269815" lon="9.3566322"><ele>132.0</ele><time>2026-03-29T09:20:26.339Z</time></trkpt><trkpt lat="45.5270151" lon="9.3567888"><ele>132.0</ele><time>2026-03-29T09:20:27.324Z</time></trkpt><trkpt lat="45.5270455" lon="9.3569295"><ele>132.0</ele><time>2026-03-29T09:20:28.322Z</time></trkpt><trkpt lat="45.5270733" lon="9.3570529"><ele>132.0</ele><time>2026-03-29T09:20:29.32Z</time></trkpt><trkpt lat="45.5270801" lon="9.3571517"><ele>132.16666666666666</ele><time>2026-03-29T09:20:30.334Z</time></trkpt><trkpt lat="45.5270307" lon="9.357319"><ele>132.33333333333334</ele><time>2026-03-29T09:20:32.329Z</time></trkpt><trkpt lat="45.5269852" lon="9.3573904"><ele>132.5</ele><time>2026-03-29T09:20:33.363Z</time></trkpt><trkpt lat="45.5269242" lon="9.3574304"><ele>132.66666666666669</ele><time>2026-03-29T09:20:34.334Z</time></trkpt><trkpt lat="45.5268457" lon="9.3574754"><ele>132.83333333333334</ele><time>2026-03-29T09:20:35.328Z</time></trkpt><trkpt lat="45.5267637" lon="9.3575207"><ele>133.0</ele><time>2026-03-29T09:20:36.326Z</time></trkpt><trkpt lat="45.5266728" lon="9.3575739"><ele>133.0</ele><time>2026-03-29T09:20:37.341Z</time></trkpt><trkpt lat="45.5265796" lon="9.3576211"><ele>133.0</ele><time>2026-03-29T09:20:38.339Z</time></trkpt><trkpt lat="45.5264782" lon="9.3576732"><ele>133.0</ele><time>2026-03-29T09:20:39.327Z</time></trkpt><trkpt lat="45.5263744" lon="9.3577258"><ele>133.0</ele><time>2026-03-29T09:20:40.32Z</time></trkpt><trkpt lat="45.526272" lon="9.3577754"><ele>133.0</ele><time>2026-03-29T09:20:41.315Z</time></trkpt><trkpt lat="45.5261874" lon="9.35782"><ele>133.0</ele><time>2026-03-29T09:20:42.325Z</time></trkpt><trkpt lat="45.526107" lon="9.3578612"><ele>133.0</ele><time>2026-03-29T09:20:43.339Z</time></trkpt><trkpt lat="45.5260291" lon="9.3579033"><ele>133.0</ele><time>2026-03-29T09:20:44.313Z</time></trkpt><trkpt lat="45.5259375" lon="9.3579449"><ele>133.0</ele><time>2026-03-29T09:20:45.344Z</time></trkpt><trkpt lat="45.5258481" lon="9.3579906"><ele>133.0</ele><time>2026-03-29T09:20:46.343Z</time></trkpt><trkpt lat="45.5257612" lon="9.3580436"><ele>133.20000000000002</ele><time>2026-03-29T09:20:47.33Z</time></trkpt><trkpt lat="45.5256778" lon="9.3581136"><ele>133.4</ele><time>2026-03-29T09:20:48.331Z</time></trkpt><trkpt lat="45.525605" lon="9.3582045"><ele>133.60000000000002</ele><time>2026-03-29T09:20:49.319Z</time></trkpt><trkpt lat="45.5255395" lon="9.3583256"><ele>133.8</ele><time>2026-03-29T09:20:50.338Z</time></trkpt><trkpt lat="45.5254822" lon="9.3584651"><ele>134.0</ele><time>2026-03-29T09:20:51.326Z</time></trkpt><trkpt lat="45.5254242" lon="9.3586114"><ele>133.8</ele><time>2026-03-29T09:20:52.325Z</time></trkpt><trkpt lat="45.5253638" lon="9.3587587"><ele>133.60000000000002</ele><time>2026-03-29T09:20:53.333Z</time></trkpt><trkpt lat="45.5252987" lon="9.3588899"><ele>133.4</ele><time>2026-03-29T09:20:54.335Z</time></trkpt><trkpt lat="45.5252225" lon="9.3589991"><ele>133.20000000000002</ele><time>2026-03-29T09:20:55.329Z</time></trkpt><trkpt lat="45.525131" lon="9.359083"><ele>133.0</ele><time>2026-03-29T09:20:56.321Z</time></trkpt><trkpt lat="45.5250312" lon="9.3591367"><ele>132.75</ele><time>2026-03-29T09:20:57.326Z</time></trkpt><trkpt lat="45.524923" lon="9.3591702"><ele>132.5</ele><time>2026-03-29T09:20:58.33Z</time></trkpt><trkpt lat="45.5248106" lon="9.3591983"><ele>132.25</ele><time>2026-03-29T09:20:59.346Z</time></trkpt><trkpt lat="45.5246942" lon="9.3592255"><ele>132.0</ele><time>2026-03-29T09:21:00.32Z</time></trkpt><trkpt lat="45.5245678" lon="9.3592528"><ele>132.0</ele><time>2026-03-29T09:21:01.322Z</time></trkpt><trkpt lat="45.5244396" lon="9.3592783"><ele>132.0</ele><time>2026-03-29T09:21:02.328Z</time></trkpt><trkpt lat="45.5243099" lon="9.3593026"><ele>132.0</ele><time>2026-03-29T09:21:03.334Z</time></trkpt><trkpt lat="45.524179" lon="9.3593263"><ele>132.0</ele><time>2026-03-29T09:21:04.334Z</time></trkpt><trkpt lat="45.5240437" lon="9.3593517"><ele>132.0</ele><time>2026-03-29T09:21:05.354Z</time></trkpt><trkpt lat="45.5239114" lon="9.3593759"><ele>132.0</ele><time>2026-03-29T09:21:06.34Z</time></trkpt><trkpt lat="45.5237723" lon="9.3593966"><ele>132.0</ele><time>2026-03-29T09:21:07.332Z</time></trkpt><trkpt lat="45.523639" lon="9.3594199"><ele>132.0</ele><time>2026-03-29T09:21:08.342Z</time></trkpt><trkpt lat="45.5235207" lon="9.359439"><ele>132.0</ele><time>2026-03-29T09:21:09.333Z</time></trkpt><trkpt lat="45.5234171" lon="9.3594526"><ele>132.0</ele><time>2026-03-29T09:21:10.322Z</time></trkpt><trkpt lat="45.5233235" lon="9.3594598"><ele>132.0</ele><time>2026-03-29T09:21:11.326Z</time></trkpt><trkpt lat="45.5232449" lon="9.3594594"><ele>132.0</ele><time>2026-03-29T09:21:12.326Z</time></trkpt><trkpt lat="45.5231775" lon="9.3594577"><ele>132.0</ele><time>2026-03-29T09:21:13.328Z</time></trkpt><trkpt lat="45.5230928" lon="9.3595053"><ele>132.0</ele><time>2026-03-29T09:21:15.338Z</time></trkpt><trkpt lat="45.5230682" lon="9.3596914"><ele>132.2</ele><time>2026-03-29T09:21:17.329Z</time></trkpt><trkpt lat="45.5230697" lon="9.3598208"><ele>132.39999999999998</ele><time>2026-03-29T09:21:18.368Z</time></trkpt><trkpt lat="45.5230525" lon="9.3599462"><ele>132.60000000000002</ele><time>2026-03-29T09:21:19.321Z</time></trkpt><trkpt lat="45.5230513" lon="9.3600948"><ele>132.8</ele><time>2026-03-29T09:21:20.335Z</time></trkpt><trkpt lat="45.5230477" lon="9.3602506"><ele>133.0</ele><time>2026-03-29T09:21:21.362Z</time></trkpt><trkpt lat="45.5230436" lon="9.3604091"><ele>133.0</ele><time>2026-03-29T09:21:22.323Z</time></trkpt><trkpt lat="45.5230408" lon="9.3605824"><ele>133.0</ele><time>2026-03-29T09:21:23.342Z</time></trkpt><trkpt lat="45.5230384" lon="9.3607543"><ele>133.0</ele><time>2026-03-29T09:21:24.319Z</time></trkpt><trkpt lat="45.5230353" lon="9.3609311"><ele>133.0</ele><time>2026-03-29T09:21:25.329Z</time></trkpt><trkpt lat="45.523032" lon="9.3611081"><ele>133.0</ele><time>2026-03-29T09:21:26.315Z</time></trkpt><trkpt lat="45.5230313" lon="9.3612932"><ele>133.0</ele><time>2026-03-29T09:21:27.333Z</time></trkpt><trkpt lat="45.5230311" lon="9.3614761"><ele>133.0</ele><time>2026-03-29T09:21:28.342Z</time></trkpt><trkpt lat="45.5230229" lon="9.3616631"><ele>133.0</ele><time>2026-03-29T09:21:29.32Z</time></trkpt><trkpt lat="45.5230102" lon="9.3618709"><ele>132.75</ele><time>2026-03-29T09:21:30.358Z</time></trkpt><trkpt lat="45.5230004" lon="9.3620712"><ele>132.5</ele><time>2026-03-29T09:21:31.329Z</time></trkpt><trkpt lat="45.5229966" lon="9.3622737"><ele>132.25</ele><time>2026-03-29T09:21:32.331Z</time></trkpt><trkpt lat="45.5229969" lon="9.3624757"><ele>132.0</ele><time>2026-03-29T09:21:33.333Z</time></trkpt><trkpt lat="45.5230041" lon="9.3626769"><ele>132.0</ele><time>2026-03-29T09:21:34.323Z</time></trkpt><trkpt lat="45.5230155" lon="9.3628785"><ele>132.0</ele><time>2026-03-29T09:21:35.318Z</time></trkpt><trkpt lat="45.5230329" lon="9.3630849"><ele>132.0</ele><time>2026-03-29T09:21:36.322Z</time></trkpt><trkpt lat="45.5230506" lon="9.363294"><ele>132.0</ele><time>2026-03-29T09:21:37.336Z</time></trkpt><trkpt lat="45.5230689" lon="9.3634969"><ele>132.0</ele><time>2026-03-29T09:21:38.317Z</time></trkpt><trkpt lat="45.5230868" lon="9.3637038"><ele>132.0</ele><time>2026-03-29T09:21:39.34Z</time></trkpt><trkpt lat="45.5231056" lon="9.363899"><ele>132.0</ele><time>2026-03-29T09:21:40.323Z</time></trkpt><trkpt lat="45.5231238" lon="9.3640938"><ele>132.0</ele><time>2026-03-29T09:21:41.33Z</time></trkpt><trkpt lat="45.5231413" lon="9.364289"><ele>132.5</ele><time>2026-03-29T09:21:42.327Z</time></trkpt><trkpt lat="45.5231582" lon="9.3644883"><ele>133.0</ele><time>2026-03-29T09:21:43.339Z</time></trkpt><trkpt lat="45.5231745" lon="9.3646902"><ele>133.5</ele><time>2026-03-29T09:21:44.324Z</time></trkpt><trkpt lat="45.5231878" lon="9.3649006"><ele>134.0</ele><time>2026-03-29T09:21:45.342Z</time></trkpt><trkpt lat="45.523198" lon="9.3651118"><ele>134.0</ele><time>2026-03-29T09:21:46.334Z</time></trkpt><trkpt lat="45.5232104" lon="9.365319"><ele>134.0</ele><time>2026-03-29T09:21:47.321Z</time></trkpt><trkpt lat="45.5232295" lon="9.36552"><ele>134.0</ele><time>2026-03-29T09:21:48.327Z</time></trkpt><trkpt lat="45.5232451" lon="9.3656926"><ele>134.0</ele><time>2026-03-29T09:21:49.324Z</time></trkpt><trkpt lat="45.5232679" lon="9.3658359"><ele>133.8</ele><time>2026-03-29T09:21:50.325Z</time></trkpt><trkpt lat="45.5232917" lon="9.3659452"><ele>133.60000000000002</ele><time>2026-03-29T09:21:51.322Z</time></trkpt><trkpt lat="45.5233147" lon="9.366034"><ele>133.4</ele><time>2026-03-29T09:21:52.337Z</time></trkpt><trkpt lat="45.5233539" lon="9.3661977"><ele>133.20000000000002</ele><time>2026-03-29T09:21:54.331Z</time></trkpt><trkpt lat="45.523389" lon="9.3663507"><ele>133.0</ele><time>2026-03-29T09:21:56.339Z</time></trkpt><trkpt lat="45.5234251" lon="9.3665104"><ele>133.0</ele><time>2026-03-29T09:21:58.324Z</time></trkpt><trkpt lat="45.5234485" lon="9.3666015"><ele>133.0</ele><time>2026-03-29T09:21:59.338Z</time></trkpt><trkpt lat="45.5234723" lon="9.3666878"><ele>133.0</ele><time>2026-03-29T09:22:00.326Z</time></trkpt><trkpt lat="45.5234968" lon="9.3667838"><ele>133.0</ele><time>2026-03-29T09:22:01.334Z</time></trkpt><trkpt lat="45.5235232" lon="9.366887"><ele>133.0</ele><time>2026-03-29T09:22:02.328Z</time></trkpt><trkpt lat="45.5235509" lon="9.3670042"><ele>133.0</ele><time>2026-03-29T09:22:03.338Z</time></trkpt><trkpt lat="45.5235777" lon="9.3671259"><ele>133.20000000000002</ele><time>2026-03-29T09:22:04.336Z</time></trkpt><trkpt lat="45.5236032" lon="9.3672528"><ele>133.4</ele><time>2026-03-29T09:22:05.333Z</time></trkpt><trkpt lat="45.5236287" lon="9.3673874"><ele>133.60000000000002</ele><time>2026-03-29T09:22:06.329Z</time></trkpt><trkpt lat="45.52366" lon="9.3675247"><ele>133.8</ele><time>2026-03-29T09:22:07.342Z</time></trkpt><trkpt lat="45.5236908" lon="9.3676648"><ele>134.0</ele><time>2026-03-29T09:22:08.32Z</time></trkpt><trkpt lat="45.523723" lon="9.3678023"><ele>134.0</ele><time>2026-03-29T09:22:09.332Z</time></trkpt><trkpt lat="45.5237521" lon="9.3679319"><ele>134.0</ele><time>2026-03-29T09:22:10.33Z</time></trkpt><trkpt lat="45.5237779" lon="9.3680551"><ele>134.0</ele><time>2026-03-29T09:22:11.328Z</time></trkpt><trkpt lat="45.5238023" lon="9.3681661"><ele>134.0</ele><time>2026-03-29T09:22:12.32Z</time></trkpt><trkpt lat="45.5238204" lon="9.3682669"><ele>134.0</ele><time>2026-03-29T09:22:13.341Z</time></trkpt><trkpt lat="45.5238407" lon="9.3684089"><ele>134.0</ele><time>2026-03-29T09:22:15.329Z</time></trkpt><trkpt lat="45.5238351" lon="9.3685033"><ele>134.0</ele><time>2026-03-29T09:22:17.328Z</time></trkpt><trkpt lat="45.5237787" lon="9.3685628"><ele>134.0</ele><time>2026-03-29T09:22:19.339Z</time></trkpt><trkpt lat="45.523667" lon="9.3686038"><ele>134.0</ele><time>2026-03-29T09:22:21.348Z</time></trkpt><trkpt lat="45.5236002" lon="9.3686291"><ele>134.0</ele><time>2026-03-29T09:22:22.329Z</time></trkpt><trkpt lat="45.5235296" lon="9.3686594"><ele>134.0</ele><time>2026-03-29T09:22:23.352Z</time></trkpt><trkpt lat="45.5234582" lon="9.3686944"><ele>134.0</ele><time>2026-03-29T09:22:24.33Z</time></trkpt><trkpt lat="45.5233783" lon="9.3687227"><ele>134.0</ele><time>2026-03-29T09:22:25.334Z</time></trkpt><trkpt lat="45.523293" lon="9.36875"><ele>134.0</ele><time>2026-03-29T09:22:26.34Z</time></trkpt><trkpt lat="45.5231993" lon="9.3687867"><ele>134.0</ele><time>2026-03-29T09:22:27.357Z</time></trkpt><trkpt lat="45.5231005" lon="9.368824"><ele>134.0</ele><time>2026-03-29T09:22:28.332Z</time></trkpt><trkpt lat="45.5229904" lon="9.3688715"><ele>134.0</ele><time>2026-03-29T09:22:29.332Z</time></trkpt><trkpt lat="45.5228781" lon="9.368918"><ele>134.0</ele><time>2026-03-29T09:22:30.32Z</time></trkpt><trkpt lat="45.5227609" lon="9.3689644"><ele>134.0</ele><time>2026-03-29T09:22:31.341Z</time></trkpt><trkpt lat="45.5226466" lon="9.369008"><ele>134.0</ele><time>2026-03-29T09:22:32.329Z</time></trkpt><trkpt lat="45.5225272" lon="9.3690551"><ele>134.0</ele><time>2026-03-29T09:22:33.329Z</time></trkpt><trkpt lat="45.5224044" lon="9.3691091"><ele>134.0</ele><time>2026-03-29T09:22:34.325Z</time></trkpt><trkpt lat="45.5222834" lon="9.3691573"><ele>134.0</ele><time>2026-03-29T09:22:35.332Z</time></trkpt><trkpt lat="45.5221762" lon="9.3691983"><ele>134.0</ele><time>2026-03-29T09:22:36.331Z</time></trkpt><trkpt lat="45.5220928" lon="9.3692318"><ele>134.0</ele><time>2026-03-29T09:22:37.319Z</time></trkpt><trkpt lat="45.5220203" lon="9.3692645"><ele>134.0</ele><time>2026-03-29T09:22:38.324Z</time></trkpt><trkpt lat="45.5219279" lon="9.3693112"><ele>133.6</ele><time>2026-03-29T09:22:40.339Z</time></trkpt><trkpt lat="45.5218654" lon="9.3693477"><ele>133.2</ele><time>2026-03-29T09:22:42.333Z</time></trkpt><trkpt lat="45.5217664" lon="9.3693774"><ele>132.79999999999998</ele><time>2026-03-29T09:22:44.344Z</time></trkpt><trkpt lat="45.5216261" lon="9.3694087"><ele>132.4</ele><time>2026-03-29T09:22:46.327Z</time></trkpt><trkpt lat="45.521542" lon="9.3694298"><ele>132.0</ele><time>2026-03-29T09:22:47.329Z</time></trkpt><trkpt lat="45.5214642" lon="9.3694594"><ele>132.0</ele><time>2026-03-29T09:22:48.321Z</time></trkpt><trkpt lat="45.521389" lon="9.36948"><ele>132.0</ele><time>2026-03-29T09:22:49.338Z</time></trkpt><trkpt lat="45.5212986" lon="9.3694849"><ele>132.0</ele><time>2026-03-29T09:22:51.327Z</time></trkpt><trkpt lat="45.5212133" lon="9.369454"><ele>132.0</ele><time>2026-03-29T09:22:53.317Z</time></trkpt><trkpt lat="45.521173" lon="9.3695371"><ele>132.0</ele><time>2026-03-29T09:22:55.332Z</time></trkpt><trkpt lat="45.5211931" lon="9.369641"><ele>132.0</ele><time>2026-03-29T09:22:56.338Z</time></trkpt><trkpt lat="45.5212275" lon="9.3697567"><ele>132.25</ele><time>2026-03-29T09:22:57.325Z</time></trkpt><trkpt lat="45.5212687" lon="9.3698928"><ele>132.5</ele><time>2026-03-29T09:22:58.324Z</time></trkpt><trkpt lat="45.5213107" lon="9.3700512"><ele>132.75</ele><time>2026-03-29T09:22:59.33Z</time></trkpt><trkpt lat="45.5213523" lon="9.3702132"><ele>133.0</ele><time>2026-03-29T09:23:00.329Z</time></trkpt><trkpt lat="45.5214017" lon="9.3703943"><ele>132.5</ele><time>2026-03-29T09:23:01.334Z</time></trkpt><trkpt lat="45.5214465" lon="9.3705903"><ele>132.0</ele><time>2026-03-29T09:23:02.334Z</time></trkpt><trkpt lat="45.5214902" lon="9.3707935"><ele>131.5</ele><time>2026-03-29T09:23:03.324Z</time></trkpt><trkpt lat="45.5215328" lon="9.3710068"><ele>131.0</ele><time>2026-03-29T09:23:04.334Z</time></trkpt><trkpt lat="45.5215762" lon="9.3712217"><ele>130.33333333333331</ele><time>2026-03-29T09:23:05.323Z</time></trkpt><trkpt lat="45.5216197" lon="9.371453"><ele>129.66666666666666</ele><time>2026-03-29T09:23:06.334Z</time></trkpt><trkpt lat="45.5216597" lon="9.3716914"><ele>129.0</ele><time>2026-03-29T09:23:07.336Z</time></trkpt><trkpt lat="45.521698" lon="9.3719373"><ele>130.0</ele><time>2026-03-29T09:23:08.325Z</time></trkpt><trkpt lat="45.5217401" lon="9.3721944"><ele>131.0</ele><time>2026-03-29T09:23:09.345Z</time></trkpt><trkpt lat="45.5217772" lon="9.3724427"><ele>132.0</ele><time>2026-03-29T09:23:10.328Z</time></trkpt><trkpt lat="45.5218112" lon="9.3726993"><ele>132.0</ele><time>2026-03-29T09:23:11.339Z</time></trkpt><trkpt lat="45.5218406" lon="9.372957"><ele>132.0</ele><time>2026-03-29T09:23:12.331Z</time></trkpt><trkpt lat="45.5218707" lon="9.3732218"><ele>132.0</ele><time>2026-03-29T09:23:13.337Z</time></trkpt><trkpt lat="45.5219005" lon="9.373484"><ele>132.0</ele><time>2026-03-29T09:23:14.324Z</time></trkpt><trkpt lat="45.5219312" lon="9.3737525"><ele>132.0</ele><time>2026-03-29T09:23:15.325Z</time></trkpt><trkpt lat="45.5219636" lon="9.3740229"><ele>132.0</ele><time>2026-03-29T09:23:16.331Z</time></trkpt><trkpt lat="45.5219941" lon="9.3742906"><ele>132.0</ele><time>2026-03-29T09:23:17.32Z</time></trkpt><trkpt lat="45.5220263" lon="9.3745629"><ele>132.0</ele><time>2026-03-29T09:23:18.321Z</time></trkpt><trkpt lat="45.5220594" lon="9.3748475"><ele>132.0</ele><time>2026-03-29T09:23:19.351Z</time></trkpt><trkpt lat="45.5220923" lon="9.375118"><ele>132.0</ele><time>2026-03-29T09:23:20.328Z</time></trkpt><trkpt lat="45.522127" lon="9.3754026"><ele>132.0</ele><time>2026-03-29T09:23:21.353Z</time></trkpt><trkpt lat="45.5221603" lon="9.3756698"><ele>132.0</ele><time>2026-03-29T09:23:22.326Z</time></trkpt><trkpt lat="45.5221956" lon="9.3759484"><ele>132.0</ele><time>2026-03-29T09:23:23.337Z</time></trkpt><trkpt lat="45.5222295" lon="9.3762261"><ele>132.0</ele><time>2026-03-29T09:23:24.343Z</time></trkpt><trkpt lat="45.5222641" lon="9.3765001"><ele>132.0</ele><time>2026-03-29T09:23:25.339Z</time></trkpt><trkpt lat="45.5222973" lon="9.3767753"><ele>132.0</ele><time>2026-03-29T09:23:26.337Z</time></trkpt><trkpt lat="45.5223303" lon="9.3770506"><ele>132.0</ele><time>2026-03-29T09:23:27.34Z</time></trkpt><trkpt lat="45.5223623" lon="9.377323"><ele>132.0</ele><time>2026-03-29T09:23:28.319Z</time></trkpt><trkpt lat="45.5223955" lon="9.3776126"><ele>131.66666666666666</ele><time>2026-03-29T09:23:29.363Z</time></trkpt><trkpt lat="45.5224255" lon="9.3778803"><ele>131.33333333333331</ele><time>2026-03-29T09:23:30.33Z</time></trkpt><trkpt lat="45.5224586" lon="9.3781557"><ele>131.0</ele><time>2026-03-29T09:23:31.324Z</time></trkpt><trkpt lat="45.5224918" lon="9.3784339"><ele>131.0</ele><time>2026-03-29T09:23:32.335Z</time></trkpt><trkpt lat="45.5225236" lon="9.3787052"><ele>131.0</ele><time>2026-03-29T09:23:33.319Z</time></trkpt><trkpt lat="45.5225568" lon="9.3789855"><ele>131.0</ele><time>2026-03-29T09:23:34.327Z</time></trkpt><trkpt lat="45.5225892" lon="9.3792616"><ele>131.66666666666666</ele><time>2026-03-29T09:23:35.332Z</time></trkpt><trkpt lat="45.5226226" lon="9.3795327"><ele>132.33333333333334</ele><time>2026-03-29T09:23:36.319Z</time></trkpt><trkpt lat="45.5226584" lon="9.3798123"><ele>133.0</ele><time>2026-03-29T09:23:37.337Z</time></trkpt><trkpt lat="45.5226938" lon="9.3800894"><ele>133.33333333333334</ele><time>2026-03-29T09:23:38.347Z</time></trkpt><trkpt lat="45.5227255" lon="9.380364"><ele>133.66666666666666</ele><time>2026-03-29T09:23:39.337Z</time></trkpt><trkpt lat="45.5227623" lon="9.3806548"><ele>134.0</ele><time>2026-03-29T09:23:40.365Z</time></trkpt><trkpt lat="45.5227938" lon="9.3809314"><ele>134.33333333333331</ele><time>2026-03-29T09:23:41.341Z</time></trkpt><trkpt lat="45.522829" lon="9.381216"><ele>134.66666666666666</ele><time>2026-03-29T09:23:42.334Z</time></trkpt><trkpt lat="45.5228652" lon="9.3815039"><ele>135.0</ele><time>2026-03-29T09:23:43.34Z</time></trkpt><trkpt lat="45.5229026" lon="9.3817892"><ele>134.66666666666666</ele><time>2026-03-29T09:23:44.339Z</time></trkpt><trkpt lat="45.522936" lon="9.3820735"><ele>134.33333333333331</ele><time>2026-03-29T09:23:45.326Z</time></trkpt><trkpt lat="45.5229741" lon="9.3823644"><ele>134.0</ele><time>2026-03-29T09:23:46.336Z</time></trkpt><trkpt lat="45.5230118" lon="9.3826547"><ele>134.0</ele><time>2026-03-29T09:23:47.334Z</time></trkpt><trkpt lat="45.5230499" lon="9.3829398"><ele>134.0</ele><time>2026-03-29T09:23:48.33Z</time></trkpt><trkpt lat="45.5230937" lon="9.3832219"><ele>134.0</ele><time>2026-03-29T09:23:49.336Z</time></trkpt><trkpt lat="45.5231451" lon="9.3834985"><ele>134.0</ele><time>2026-03-29T09:23:50.334Z</time></trkpt><trkpt lat="45.5232067" lon="9.3837698"><ele>134.0</ele><time>2026-03-29T09:23:51.345Z</time></trkpt><trkpt lat="45.5232722" lon="9.3840268"><ele>134.0</ele><time>2026-03-29T09:23:52.335Z</time></trkpt><trkpt lat="45.5233455" lon="9.3842752"><ele>134.0</ele><time>2026-03-29T09:23:53.327Z</time></trkpt><trkpt lat="45.5234263" lon="9.3845263"><ele>134.0</ele><time>2026-03-29T09:23:54.339Z</time></trkpt><trkpt lat="45.5235023" lon="9.3847671"><ele>134.0</ele><time>2026-03-29T09:23:55.325Z</time></trkpt><trkpt lat="45.5235783" lon="9.3850146"><ele>134.0</ele><time>2026-03-29T09:23:56.332Z</time></trkpt><trkpt lat="45.5236534" lon="9.3852561"><ele>134.0</ele><time>2026-03-29T09:23:57.335Z</time></trkpt><trkpt lat="45.5237271" lon="9.3854856"><ele>134.0</ele><time>2026-03-29T09:23:58.335Z</time></trkpt><trkpt lat="45.5237955" lon="9.3857022"><ele>134.0</ele><time>2026-03-29T09:23:59.326Z</time></trkpt><trkpt lat="45.5238615" lon="9.385905"><ele>134.0</ele><time>2026-03-29T09:24:00.328Z</time></trkpt><trkpt lat="45.5239216" lon="9.3861026"><ele>134.0</ele><time>2026-03-29T09:24:01.332Z</time></trkpt><trkpt lat="45.523976" lon="9.3862885"><ele>134.0</ele><time>2026-03-29T09:24:02.322Z</time></trkpt><trkpt lat="45.5240322" lon="9.3864735"><ele>134.0</ele><time>2026-03-29T09:24:03.358Z</time></trkpt><trkpt lat="45.5240834" lon="9.3866429"><ele>134.0</ele><time>2026-03-29T09:24:04.345Z</time></trkpt><trkpt lat="45.5241302" lon="9.3868014"><ele>134.0</ele><time>2026-03-29T09:24:05.336Z</time></trkpt><trkpt lat="45.5241727" lon="9.3869476"><ele>134.0</ele><time>2026-03-29T09:24:06.324Z</time></trkpt><trkpt lat="45.5242134" lon="9.3870867"><ele>133.8</ele><time>2026-03-29T09:24:07.33Z</time></trkpt><trkpt lat="45.524253" lon="9.3872203"><ele>133.60000000000002</ele><time>2026-03-29T09:24:08.348Z</time></trkpt><trkpt lat="45.5242855" lon="9.3873388"><ele>133.4</ele><time>2026-03-29T09:24:09.333Z</time></trkpt><trkpt lat="45.5243204" lon="9.3874554"><ele>133.20000000000002</ele><time>2026-03-29T09:24:10.32Z</time></trkpt><trkpt lat="45.5243558" lon="9.3875836"><ele>133.0</ele><time>2026-03-29T09:24:11.35Z</time></trkpt><trkpt lat="45.5243931" lon="9.3877183"><ele>133.0</ele><time>2026-03-29T09:24:12.366Z</time></trkpt><trkpt lat="45.5244336" lon="9.3878558"><ele>133.0</ele><time>2026-03-29T09:24:13.341Z</time></trkpt><trkpt lat="45.5244833" lon="9.3880089"><ele>133.0</ele><time>2026-03-29T09:24:14.344Z</time></trkpt><trkpt lat="45.5245336" lon="9.3881797"><ele>133.0</ele><time>2026-03-29T09:24:15.345Z</time></trkpt><trkpt lat="45.5245827" lon="9.3883648"><ele>133.66666666666669</ele><time>2026-03-29T09:24:16.328Z</time></trkpt><trkpt lat="45.5246306" lon="9.3885674"><ele>134.33333333333334</ele><time>2026-03-29T09:24:17.33Z</time></trkpt><trkpt lat="45.5246774" lon="9.3887822"><ele>135.0</ele><time>2026-03-29T09:24:18.34Z</time></trkpt><trkpt lat="45.5247169" lon="9.3890033"><ele>135.0</ele><time>2026-03-29T09:24:19.35Z</time></trkpt><trkpt lat="45.5247465" lon="9.3892332"><ele>135.0</ele><time>2026-03-29T09:24:20.349Z</time></trkpt><trkpt lat="45.5247651" lon="9.3894628"><ele>135.0</ele><time>2026-03-29T09:24:21.345Z</time></trkpt><trkpt lat="45.5247767" lon="9.3896813"><ele>134.33333333333334</ele><time>2026-03-29T09:24:22.337Z</time></trkpt><trkpt lat="45.5247793" lon="9.3898984"><ele>133.66666666666669</ele><time>2026-03-29T09:24:23.332Z</time></trkpt><trkpt lat="45.5247767" lon="9.3901135"><ele>133.0</ele><time>2026-03-29T09:24:24.334Z</time></trkpt><trkpt lat="45.5247717" lon="9.3903334"><ele>133.0</ele><time>2026-03-29T09:24:25.339Z</time></trkpt><trkpt lat="45.5247602" lon="9.3905404"><ele>133.0</ele><time>2026-03-29T09:24:26.337Z</time></trkpt><trkpt lat="45.5247426" lon="9.3907339"><ele>133.0</ele><time>2026-03-29T09:24:27.322Z</time></trkpt><trkpt lat="45.5247178" lon="9.3909265"><ele>133.0</ele><time>2026-03-29T09:24:28.337Z</time></trkpt><trkpt lat="45.5246883" lon="9.391115"><ele>133.0</ele><time>2026-03-29T09:24:29.337Z</time></trkpt><trkpt lat="45.5246581" lon="9.3913119"><ele>133.0</ele><time>2026-03-29T09:24:30.33Z</time></trkpt><trkpt lat="45.5246234" lon="9.3915142"><ele>133.0</ele><time>2026-03-29T09:24:31.335Z</time></trkpt><trkpt lat="45.5245798" lon="9.3917301"><ele>133.0</ele><time>2026-03-29T09:24:32.361Z</time></trkpt><trkpt lat="45.5245326" lon="9.3919279"><ele>132.33333333333334</ele><time>2026-03-29T09:24:33.329Z</time></trkpt><trkpt lat="45.5244727" lon="9.3921384"><ele>131.66666666666666</ele><time>2026-03-29T09:24:34.331Z</time></trkpt><trkpt lat="45.5244002" lon="9.3923551"><ele>131.0</ele><time>2026-03-29T09:24:35.346Z</time></trkpt><trkpt lat="45.5243212" lon="9.3925606"><ele>130.66666666666666</ele><time>2026-03-29T09:24:36.331Z</time></trkpt><trkpt lat="45.5242321" lon="9.3927783"><ele>130.33333333333334</ele><time>2026-03-29T09:24:37.369Z</time></trkpt><trkpt lat="45.5241409" lon="9.3929754"><ele>130.0</ele><time>2026-03-29T09:24:38.327Z</time></trkpt><trkpt lat="45.5240385" lon="9.3931785"><ele>130.0</ele><time>2026-03-29T09:24:39.34Z</time></trkpt><trkpt lat="45.5239332" lon="9.3933759"><ele>130.0</ele><time>2026-03-29T09:24:40.335Z</time></trkpt><trkpt lat="45.5238221" lon="9.3935657"><ele>130.0</ele><time>2026-03-29T09:24:41.324Z</time></trkpt><trkpt lat="45.5237005" lon="9.3937549"><ele>130.33333333333334</ele><time>2026-03-29T09:24:42.332Z</time></trkpt><trkpt lat="45.5235653" lon="9.3939377"><ele>130.66666666666666</ele><time>2026-03-29T09:24:43.347Z</time></trkpt><trkpt lat="45.523434" lon="9.3941211"><ele>131.0</ele><time>2026-03-29T09:24:44.323Z</time></trkpt><trkpt lat="45.523289" lon="9.3943289"><ele>131.0</ele><time>2026-03-29T09:24:45.354Z</time></trkpt><trkpt lat="45.5231446" lon="9.3945364"><ele>131.0</ele><time>2026-03-29T09:24:46.336Z</time></trkpt><trkpt lat="45.5229915" lon="9.394751"><ele>131.0</ele><time>2026-03-29T09:24:47.345Z</time></trkpt><trkpt lat="45.5228472" lon="9.3949543"><ele>131.0</ele><time>2026-03-29T09:24:48.331Z</time></trkpt><trkpt lat="45.5227048" lon="9.3951439"><ele>131.0</ele><time>2026-03-29T09:24:49.327Z</time></trkpt><trkpt lat="45.5225628" lon="9.3953313"><ele>131.0</ele><time>2026-03-29T09:24:50.337Z</time></trkpt><trkpt lat="45.5224194" lon="9.395522"><ele>131.0</ele><time>2026-03-29T09:24:51.338Z</time></trkpt><trkpt lat="45.5222747" lon="9.395725"><ele>131.0</ele><time>2026-03-29T09:24:52.34Z</time></trkpt><trkpt lat="45.5221292" lon="9.3959365"><ele>131.0</ele><time>2026-03-29T09:24:53.324Z</time></trkpt><trkpt lat="45.5219776" lon="9.3961555"><ele>131.0</ele><time>2026-03-29T09:24:54.325Z</time></trkpt><trkpt lat="45.5218244" lon="9.3963732"><ele>131.0</ele><time>2026-03-29T09:24:55.327Z</time></trkpt><trkpt lat="45.5216678" lon="9.3965918"><ele>131.0</ele><time>2026-03-29T09:24:56.336Z</time></trkpt><trkpt lat="45.5215092" lon="9.3968103"><ele>131.0</ele><time>2026-03-29T09:24:57.353Z</time></trkpt><trkpt lat="45.5213618" lon="9.3970349"><ele>131.0</ele><time>2026-03-29T09:24:58.348Z</time></trkpt><trkpt lat="45.5212256" lon="9.3972726"><ele>131.0</ele><time>2026-03-29T09:24:59.328Z</time></trkpt><trkpt lat="45.5211008" lon="9.3975319"><ele>131.0</ele><time>2026-03-29T09:25:00.339Z</time></trkpt><trkpt lat="45.5209947" lon="9.3977974"><ele>131.0</ele><time>2026-03-29T09:25:01.339Z</time></trkpt><trkpt lat="45.5208966" lon="9.3980808"><ele>131.0</ele><time>2026-03-29T09:25:02.345Z</time></trkpt><trkpt lat="45.5208122" lon="9.3983667"><ele>131.0</ele><time>2026-03-29T09:25:03.34Z</time></trkpt><trkpt lat="45.5207434" lon="9.3986544"><ele>131.0</ele><time>2026-03-29T09:25:04.319Z</time></trkpt><trkpt lat="45.520686" lon="9.3989558"><ele>131.0</ele><time>2026-03-29T09:25:05.333Z</time></trkpt><trkpt lat="45.5206419" lon="9.3992646"><ele>130.66666666666666</ele><time>2026-03-29T09:25:06.342Z</time></trkpt><trkpt lat="45.5206135" lon="9.399574"><ele>130.33333333333334</ele><time>2026-03-29T09:25:07.336Z</time></trkpt><trkpt lat="45.5205927" lon="9.3998858"><ele>130.0</ele><time>2026-03-29T09:25:08.339Z</time></trkpt><trkpt lat="45.5205874" lon="9.4001895"><ele>129.66666666666669</ele><time>2026-03-29T09:25:09.319Z</time></trkpt><trkpt lat="45.5206044" lon="9.4004989"><ele>129.33333333333334</ele><time>2026-03-29T09:25:10.331Z</time></trkpt><trkpt lat="45.5206407" lon="9.4008007"><ele>129.0</ele><time>2026-03-29T09:25:11.329Z</time></trkpt><trkpt lat="45.5206849" lon="9.4011015"><ele>129.66666666666666</ele><time>2026-03-29T09:25:12.333Z</time></trkpt><trkpt lat="45.5207319" lon="9.4013844"><ele>130.33333333333331</ele><time>2026-03-29T09:25:13.333Z</time></trkpt><trkpt lat="45.5207822" lon="9.4016539"><ele>131.0</ele><time>2026-03-29T09:25:14.34Z</time></trkpt><trkpt lat="45.5208372" lon="9.4019095"><ele>131.0</ele><time>2026-03-29T09:25:15.347Z</time></trkpt><trkpt lat="45.520894" lon="9.4021445"><ele>131.0</ele><time>2026-03-29T09:25:16.331Z</time></trkpt><trkpt lat="45.5209559" lon="9.4023708"><ele>131.0</ele><time>2026-03-29T09:25:17.337Z</time></trkpt><trkpt lat="45.5210238" lon="9.4025786"><ele>131.0</ele><time>2026-03-29T09:25:18.339Z</time></trkpt><trkpt lat="45.5211029" lon="9.4027709"><ele>131.0</ele><time>2026-03-29T09:25:19.334Z</time></trkpt><trkpt lat="45.5211948" lon="9.4029563"><ele>131.0</ele><time>2026-03-29T09:25:20.346Z</time></trkpt><trkpt lat="45.5212911" lon="9.4031335"><ele>131.0</ele><time>2026-03-29T09:25:21.333Z</time></trkpt><trkpt lat="45.5213906" lon="9.4033134"><ele>131.0</ele><time>2026-03-29T09:25:22.339Z</time></trkpt><trkpt lat="45.5214902" lon="9.4034915"><ele>131.0</ele><time>2026-03-29T09:25:23.333Z</time></trkpt><trkpt lat="45.5215934" lon="9.4036742"><ele>131.66666666666666</ele><time>2026-03-29T09:25:24.335Z</time></trkpt><trkpt lat="45.5216996" lon="9.4038604"><ele>132.33333333333334</ele><time>2026-03-29T09:25:25.344Z</time></trkpt><trkpt lat="45.5218057" lon="9.4040486"><ele>133.0</ele><time>2026-03-29T09:25:26.343Z</time></trkpt><trkpt lat="45.5219123" lon="9.4042379"><ele>133.0</ele><time>2026-03-29T09:25:27.325Z</time></trkpt><trkpt lat="45.5220221" lon="9.4044373"><ele>133.0</ele><time>2026-03-29T09:25:28.329Z</time></trkpt><trkpt lat="45.5221337" lon="9.4046424"><ele>133.0</ele><time>2026-03-29T09:25:29.336Z</time></trkpt><trkpt lat="45.5222485" lon="9.4048512"><ele>132.0</ele><time>2026-03-29T09:25:30.346Z</time></trkpt><trkpt lat="45.5223667" lon="9.4050634"><ele>131.0</ele><time>2026-03-29T09:25:31.351Z</time></trkpt><trkpt lat="45.522484" lon="9.4052722"><ele>130.0</ele><time>2026-03-29T09:25:32.327Z</time></trkpt><trkpt lat="45.5226069" lon="9.4054923"><ele>130.66666666666669</ele><time>2026-03-29T09:25:33.336Z</time></trkpt><trkpt lat="45.5227274" lon="9.4057161"><ele>131.33333333333334</ele><time>2026-03-29T09:25:34.327Z</time></trkpt><trkpt lat="45.5228509" lon="9.4059436"><ele>132.0</ele><time>2026-03-29T09:25:35.329Z</time></trkpt><trkpt lat="45.5229775" lon="9.4061732"><ele>132.66666666666666</ele><time>2026-03-29T09:25:36.339Z</time></trkpt><trkpt lat="45.5231029" lon="9.4064018"><ele>133.33333333333331</ele><time>2026-03-29T09:25:37.344Z</time></trkpt><trkpt lat="45.5232234" lon="9.4066272"><ele>134.0</ele><time>2026-03-29T09:25:38.334Z</time></trkpt><trkpt lat="45.5233485" lon="9.4068579"><ele>134.0</ele><time>2026-03-29T09:25:39.356Z</time></trkpt><trkpt lat="45.5234678" lon="9.4070762"><ele>134.0</ele><time>2026-03-29T09:25:40.329Z</time></trkpt><trkpt lat="45.5235889" lon="9.4072972"><ele>134.0</ele><time>2026-03-29T09:25:41.331Z</time></trkpt><trkpt lat="45.5237115" lon="9.4075197"><ele>132.66666666666666</ele><time>2026-03-29T09:25:42.338Z</time></trkpt><trkpt lat="45.523833" lon="9.4077374"><ele>131.33333333333334</ele><time>2026-03-29T09:25:43.342Z</time></trkpt><trkpt lat="45.5239522" lon="9.4079509"><ele>130.0</ele><time>2026-03-29T09:25:44.339Z</time></trkpt><trkpt lat="45.5240728" lon="9.4081627"><ele>130.0</ele><time>2026-03-29T09:25:45.339Z</time></trkpt><trkpt lat="45.5241901" lon="9.40837"><ele>130.0</ele><time>2026-03-29T09:25:46.333Z</time></trkpt><trkpt lat="45.5243047" lon="9.4085729"><ele>130.0</ele><time>2026-03-29T09:25:47.334Z</time></trkpt><trkpt lat="45.5244138" lon="9.4087683"><ele>130.33333333333334</ele><time>2026-03-29T09:25:48.332Z</time></trkpt><trkpt lat="45.5245156" lon="9.4089547"><ele>130.66666666666666</ele><time>2026-03-29T09:25:49.323Z</time></trkpt><trkpt lat="45.5246131" lon="9.4091337"><ele>131.0</ele><time>2026-03-29T09:25:50.334Z</time></trkpt><trkpt lat="45.5247081" lon="9.4093035"><ele>131.0</ele><time>2026-03-29T09:25:51.325Z</time></trkpt><trkpt lat="45.5248006" lon="9.4094714"><ele>131.0</ele><time>2026-03-29T09:25:52.338Z</time></trkpt><trkpt lat="45.5248875" lon="9.4096335"><ele>131.0</ele><time>2026-03-29T09:25:53.332Z</time></trkpt><trkpt lat="45.5249683" lon="9.409793"><ele>131.0</ele><time>2026-03-29T09:25:54.338Z</time></trkpt><trkpt lat="45.5250434" lon="9.4099408"><ele>131.0</ele><time>2026-03-29T09:25:55.344Z</time></trkpt><trkpt lat="45.5251138" lon="9.4100737"><ele>131.0</ele><time>2026-03-29T09:25:56.321Z</time></trkpt><trkpt lat="45.525171" lon="9.4102013"><ele>131.0</ele><time>2026-03-29T09:25:57.34Z</time></trkpt><trkpt lat="45.5252204" lon="9.4103108"><ele>131.0</ele><time>2026-03-29T09:25:58.33Z</time></trkpt><trkpt lat="45.5252543" lon="9.4104178"><ele>131.0</ele><time>2026-03-29T09:25:59.333Z</time></trkpt><trkpt lat="45.5252701" lon="9.4105213"><ele>130.83333333333331</ele><time>2026-03-29T09:26:00.342Z</time></trkpt><trkpt lat="45.5252805" lon="9.4106285"><ele>130.66666666666666</ele><time>2026-03-29T09:26:01.348Z</time></trkpt><trkpt lat="45.5252706" lon="9.4107365"><ele>130.5</ele><time>2026-03-29T09:26:02.336Z</time></trkpt><trkpt lat="45.5252449" lon="9.410844"><ele>130.33333333333334</ele><time>2026-03-29T09:26:03.331Z</time></trkpt><trkpt lat="45.5252034" lon="9.410943"><ele>130.16666666666669</ele><time>2026-03-29T09:26:04.323Z</time></trkpt><trkpt lat="45.5251457" lon="9.4110352"><ele>130.0</ele><time>2026-03-29T09:26:05.33Z</time></trkpt><trkpt lat="45.5250716" lon="9.4111147"><ele>130.0</ele><time>2026-03-29T09:26:06.335Z</time></trkpt><trkpt lat="45.52499" lon="9.4111963"><ele>130.0</ele><time>2026-03-29T09:26:07.359Z</time></trkpt><trkpt lat="45.5249023" lon="9.4112819"><ele>130.0</ele><time>2026-03-29T09:26:08.336Z</time></trkpt><trkpt lat="45.5248081" lon="9.4113741"><ele>130.0</ele><time>2026-03-29T09:26:09.343Z</time></trkpt><trkpt lat="45.5247067" lon="9.4114639"><ele>130.0</ele><time>2026-03-29T09:26:10.335Z</time></trkpt><trkpt lat="45.5245991" lon="9.4115574"><ele>130.25</ele><time>2026-03-29T09:26:11.347Z</time></trkpt><trkpt lat="45.5244864" lon="9.4116543"><ele>130.5</ele><time>2026-03-29T09:26:12.348Z</time></trkpt><trkpt lat="45.5243736" lon="9.4117471"><ele>130.75</ele><time>2026-03-29T09:26:13.35Z</time></trkpt><trkpt lat="45.5242669" lon="9.4118357"><ele>131.0</ele><time>2026-03-29T09:26:14.339Z</time></trkpt><trkpt lat="45.524169" lon="9.4119211"><ele>131.0</ele><time>2026-03-29T09:26:15.352Z</time></trkpt><trkpt lat="45.5240772" lon="9.4120015"><ele>131.0</ele><time>2026-03-29T09:26:16.346Z</time></trkpt><trkpt lat="45.5239982" lon="9.412075"><ele>131.0</ele><time>2026-03-29T09:26:17.323Z</time></trkpt><trkpt lat="45.5239296" lon="9.4121548"><ele>131.0</ele><time>2026-03-29T09:26:18.331Z</time></trkpt><trkpt lat="45.5238725" lon="9.412223"><ele>131.0</ele><time>2026-03-29T09:26:19.337Z</time></trkpt><trkpt lat="45.5237805" lon="9.4122848"><ele>130.66666666666666</ele><time>2026-03-29T09:26:21.329Z</time></trkpt><trkpt lat="45.5236775" lon="9.4123182"><ele>130.33333333333331</ele><time>2026-03-29T09:26:23.335Z</time></trkpt><trkpt lat="45.5236199" lon="9.412362"><ele>130.0</ele><time>2026-03-29T09:26:24.362Z</time></trkpt><trkpt lat="45.5235593" lon="9.4124136"><ele>129.66666666666666</ele><time>2026-03-29T09:26:25.329Z</time></trkpt><trkpt lat="45.5234844" lon="9.4124857"><ele>129.33333333333334</ele><time>2026-03-29T09:26:26.344Z</time></trkpt><trkpt lat="45.5233965" lon="9.4125655"><ele>129.0</ele><time>2026-03-29T09:26:27.34Z</time></trkpt><trkpt lat="45.5232971" lon="9.4126572"><ele>129.0</ele><time>2026-03-29T09:26:28.348Z</time></trkpt><trkpt lat="45.5231895" lon="9.4127544"><ele>129.0</ele><time>2026-03-29T09:26:29.329Z</time></trkpt><trkpt lat="45.5230766" lon="9.412859"><ele>129.0</ele><time>2026-03-29T09:26:30.333Z</time></trkpt><trkpt lat="45.5229606" lon="9.4129689"><ele>129.0</ele><time>2026-03-29T09:26:31.35Z</time></trkpt><trkpt lat="45.5228423" lon="9.4130758"><ele>128.75</ele><time>2026-03-29T09:26:32.355Z</time></trkpt><trkpt lat="45.5227258" lon="9.4131825"><ele>128.5</ele><time>2026-03-29T09:26:33.325Z</time></trkpt><trkpt lat="45.5225998" lon="9.4132973"><ele>128.25</ele><time>2026-03-29T09:26:34.357Z</time></trkpt><trkpt lat="45.5224781" lon="9.4134084"><ele>128.0</ele><time>2026-03-29T09:26:35.339Z</time></trkpt><trkpt lat="45.5223508" lon="9.4135219"><ele>128.0</ele><time>2026-03-29T09:26:36.348Z</time></trkpt><trkpt lat="45.5222259" lon="9.4136361"><ele>128.0</ele><time>2026-03-29T09:26:37.333Z</time></trkpt><trkpt lat="45.5220943" lon="9.4137564"><ele>128.0</ele><time>2026-03-29T09:26:38.356Z</time></trkpt><trkpt lat="45.5219653" lon="9.4138733"><ele>128.33333333333331</ele><time>2026-03-29T09:26:39.346Z</time></trkpt><trkpt lat="45.5218334" lon="9.4139894"><ele>128.66666666666666</ele><time>2026-03-29T09:26:40.337Z</time></trkpt><trkpt lat="45.5217014" lon="9.4141107"><ele>129.0</ele><time>2026-03-29T09:26:41.346Z</time></trkpt><trkpt lat="45.5215686" lon="9.4142306"><ele>129.0</ele><time>2026-03-29T09:26:42.34Z</time></trkpt><trkpt lat="45.5214381" lon="9.4143503"><ele>129.0</ele><time>2026-03-29T09:26:43.323Z</time></trkpt><trkpt lat="45.5213016" lon="9.4144685"><ele>129.0</ele><time>2026-03-29T09:26:44.35Z</time></trkpt><trkpt lat="45.5211805" lon="9.4145742"><ele>129.0</ele><time>2026-03-29T09:26:45.344Z</time></trkpt><trkpt lat="45.5210705" lon="9.4146683"><ele>129.0</ele><time>2026-03-29T09:26:46.336Z</time></trkpt><trkpt lat="45.5209681" lon="9.4147509"><ele>129.0</ele><time>2026-03-29T09:26:47.347Z</time></trkpt><trkpt lat="45.5208782" lon="9.4148269"><ele>129.0</ele><time>2026-03-29T09:26:48.332Z</time></trkpt><trkpt lat="45.5207866" lon="9.4149019"><ele>129.0</ele><time>2026-03-29T09:26:49.348Z</time></trkpt><trkpt lat="45.5206947" lon="9.4149781"><ele>129.0</ele><time>2026-03-29T09:26:50.345Z</time></trkpt><trkpt lat="45.5205995" lon="9.4150626"><ele>129.0</ele><time>2026-03-29T09:26:51.335Z</time></trkpt><trkpt lat="45.5205032" lon="9.4151581"><ele>129.0</ele><time>2026-03-29T09:26:52.343Z</time></trkpt><trkpt lat="45.5204052" lon="9.4152643"><ele>128.25</ele><time>2026-03-29T09:26:53.335Z</time></trkpt><trkpt lat="45.5203017" lon="9.4153768"><ele>127.5</ele><time>2026-03-29T09:26:54.351Z</time></trkpt><trkpt lat="45.5201985" lon="9.415492"><ele>126.75</ele><time>2026-03-29T09:26:55.34Z</time></trkpt><trkpt lat="45.5200908" lon="9.4156194"><ele>126.0</ele><time>2026-03-29T09:26:56.361Z</time></trkpt><trkpt lat="45.519984" lon="9.4157494"><ele>125.75</ele><time>2026-03-29T09:26:57.357Z</time></trkpt><trkpt lat="45.5198757" lon="9.4158813"><ele>125.5</ele><time>2026-03-29T09:26:58.339Z</time></trkpt><trkpt lat="45.5197591" lon="9.4160217"><ele>125.25</ele><time>2026-03-29T09:26:59.348Z</time></trkpt><trkpt lat="45.5196429" lon="9.4161593"><ele>125.0</ele><time>2026-03-29T09:27:00.356Z</time></trkpt><trkpt lat="45.5195309" lon="9.41629"><ele>125.0</ele><time>2026-03-29T09:27:01.322Z</time></trkpt><trkpt lat="45.5194053" lon="9.4164241"><ele>125.0</ele><time>2026-03-29T09:27:02.344Z</time></trkpt><trkpt lat="45.5192794" lon="9.4165388"><ele>125.0</ele><time>2026-03-29T09:27:03.332Z</time></trkpt><trkpt lat="45.5191448" lon="9.4166474"><ele>125.0</ele><time>2026-03-29T09:27:04.334Z</time></trkpt><trkpt lat="45.5190052" lon="9.4167526"><ele>125.0</ele><time>2026-03-29T09:27:05.342Z</time></trkpt><trkpt lat="45.5188668" lon="9.4168579"><ele>125.0</ele><time>2026-03-29T09:27:06.339Z</time></trkpt><trkpt lat="45.518723" lon="9.4169677"><ele>124.66666666666666</ele><time>2026-03-29T09:27:07.349Z</time></trkpt><trkpt lat="45.5185825" lon="9.4170707"><ele>124.33333333333334</ele><time>2026-03-29T09:27:08.333Z</time></trkpt><trkpt lat="45.5184395" lon="9.4171781"><ele>124.0</ele><time>2026-03-29T09:27:09.336Z</time></trkpt><trkpt lat="45.518296" lon="9.4172846"><ele>124.0</ele><time>2026-03-29T09:27:10.34Z</time></trkpt><trkpt lat="45.5181534" lon="9.4173937"><ele>124.0</ele><time>2026-03-29T09:27:11.327Z</time></trkpt><trkpt lat="45.5180061" lon="9.4175093"><ele>124.0</ele><time>2026-03-29T09:27:12.347Z</time></trkpt><trkpt lat="45.5178633" lon="9.4176225"><ele>123.66666666666667</ele><time>2026-03-29T09:27:13.333Z</time></trkpt><trkpt lat="45.5177163" lon="9.4177368"><ele>123.33333333333334</ele><time>2026-03-29T09:27:14.342Z</time></trkpt><trkpt lat="45.517574" lon="9.4178564"><ele>123.0</ele><time>2026-03-29T09:27:15.341Z</time></trkpt><trkpt lat="45.5174377" lon="9.4179881"><ele>123.0</ele><time>2026-03-29T09:27:16.334Z</time></trkpt><trkpt lat="45.5173133" lon="9.418138"><ele>123.0</ele><time>2026-03-29T09:27:17.324Z</time></trkpt><trkpt lat="45.5171888" lon="9.4182979"><ele>123.0</ele><time>2026-03-29T09:27:18.324Z</time></trkpt><trkpt lat="45.5170585" lon="9.4184676"><ele>123.0</ele><time>2026-03-29T09:27:19.367Z</time></trkpt><trkpt lat="45.516941" lon="9.4186274"><ele>123.0</ele><time>2026-03-29T09:27:20.324Z</time></trkpt><trkpt lat="45.5168182" lon="9.4187949"><ele>123.0</ele><time>2026-03-29T09:27:21.324Z</time></trkpt><trkpt lat="45.516694" lon="9.4189559"><ele>123.66666666666666</ele><time>2026-03-29T09:27:22.323Z</time></trkpt><trkpt lat="45.5165667" lon="9.4191219"><ele>124.33333333333333</ele><time>2026-03-29T09:27:23.331Z</time></trkpt><trkpt lat="45.5164375" lon="9.4192851"><ele>125.0</ele><time>2026-03-29T09:27:24.334Z</time></trkpt><trkpt lat="45.5163061" lon="9.4194504"><ele>124.66666666666666</ele><time>2026-03-29T09:27:25.344Z</time></trkpt><trkpt lat="45.5161762" lon="9.4196112"><ele>124.33333333333334</ele><time>2026-03-29T09:27:26.346Z</time></trkpt><trkpt lat="45.5160478" lon="9.4197655"><ele>124.0</ele><time>2026-03-29T09:27:27.326Z</time></trkpt><trkpt lat="45.5159215" lon="9.4199202"><ele>124.0</ele><time>2026-03-29T09:27:28.355Z</time></trkpt><trkpt lat="45.5158092" lon="9.4200562"><ele>124.0</ele><time>2026-03-29T09:27:29.333Z</time></trkpt><trkpt lat="45.5157023" lon="9.4201953"><ele>124.0</ele><time>2026-03-29T09:27:30.336Z</time></trkpt><trkpt lat="45.5156023" lon="9.4203555"><ele>124.0</ele><time>2026-03-29T09:27:31.343Z</time></trkpt><trkpt lat="45.5155126" lon="9.420532"><ele>123.66666666666667</ele><time>2026-03-29T09:27:32.329Z</time></trkpt><trkpt lat="45.5154191" lon="9.4207325"><ele>123.33333333333334</ele><time>2026-03-29T09:27:33.349Z</time></trkpt><trkpt lat="45.5153275" lon="9.4209374"><ele>123.0</ele><time>2026-03-29T09:27:34.329Z</time></trkpt><trkpt lat="45.5152338" lon="9.4211474"><ele>122.66666666666666</ele><time>2026-03-29T09:27:35.335Z</time></trkpt><trkpt lat="45.5151381" lon="9.4213619"><ele>122.33333333333333</ele><time>2026-03-29T09:27:36.34Z</time></trkpt><trkpt lat="45.5150401" lon="9.4215737"><ele>122.0</ele><time>2026-03-29T09:27:37.336Z</time></trkpt><trkpt lat="45.514937" lon="9.4217964"><ele>122.0</ele><time>2026-03-29T09:27:38.357Z</time></trkpt><trkpt lat="45.5148354" lon="9.4220098"><ele>122.0</ele><time>2026-03-29T09:27:39.346Z</time></trkpt><trkpt lat="45.5147288" lon="9.4222245"><ele>122.0</ele><time>2026-03-29T09:27:40.34Z</time></trkpt><trkpt lat="45.5146221" lon="9.422439"><ele>121.66666666666666</ele><time>2026-03-29T09:27:41.332Z</time></trkpt><trkpt lat="45.5145148" lon="9.4226585"><ele>121.33333333333334</ele><time>2026-03-29T09:27:42.333Z</time></trkpt><trkpt lat="45.5144089" lon="9.4228769"><ele>121.0</ele><time>2026-03-29T09:27:43.329Z</time></trkpt><trkpt lat="45.5142995" lon="9.423097"><ele>121.0</ele><time>2026-03-29T09:27:44.344Z</time></trkpt><trkpt lat="45.5141957" lon="9.4233099"><ele>121.0</ele><time>2026-03-29T09:27:45.336Z</time></trkpt><trkpt lat="45.5140963" lon="9.423518"><ele>121.0</ele><time>2026-03-29T09:27:46.335Z</time></trkpt><trkpt lat="45.513995" lon="9.4237312"><ele>121.0</ele><time>2026-03-29T09:27:47.362Z</time></trkpt><trkpt lat="45.5138992" lon="9.423933"><ele>121.0</ele><time>2026-03-29T09:27:48.34Z</time></trkpt><trkpt lat="45.5137995" lon="9.4241285"><ele>121.0</ele><time>2026-03-29T09:27:49.328Z</time></trkpt><trkpt lat="45.5137013" lon="9.4243247"><ele>121.0</ele><time>2026-03-29T09:27:50.322Z</time></trkpt><trkpt lat="45.5136027" lon="9.4245278"><ele>121.0</ele><time>2026-03-29T09:27:51.338Z</time></trkpt><trkpt lat="45.5135047" lon="9.4247311"><ele>121.0</ele><time>2026-03-29T09:27:52.35Z</time></trkpt><trkpt lat="45.5134073" lon="9.4249345"><ele>121.0</ele><time>2026-03-29T09:27:53.344Z</time></trkpt><trkpt lat="45.5133105" lon="9.4251404"><ele>121.0</ele><time>2026-03-29T09:27:54.327Z</time></trkpt><trkpt lat="45.5132114" lon="9.4253507"><ele>121.0</ele><time>2026-03-29T09:27:55.325Z</time></trkpt><trkpt lat="45.5131118" lon="9.4255511"><ele>121.0</ele><time>2026-03-29T09:27:56.322Z</time></trkpt><trkpt lat="45.513009" lon="9.4257487"><ele>121.0</ele><time>2026-03-29T09:27:57.358Z</time></trkpt><trkpt lat="45.5129044" lon="9.4259183"><ele>121.0</ele><time>2026-03-29T09:27:58.338Z</time></trkpt><trkpt lat="45.5127832" lon="9.4260784"><ele>121.0</ele><time>2026-03-29T09:27:59.331Z</time></trkpt><trkpt lat="45.5126502" lon="9.4262353"><ele>121.0</ele><time>2026-03-29T09:28:00.348Z</time></trkpt><trkpt lat="45.5125058" lon="9.4263722"><ele>121.0</ele><time>2026-03-29T09:28:01.353Z</time></trkpt><trkpt lat="45.5123609" lon="9.42648"><ele>120.66666666666667</ele><time>2026-03-29T09:28:02.326Z</time></trkpt><trkpt lat="45.5122041" lon="9.4265603"><ele>120.33333333333334</ele><time>2026-03-29T09:28:03.346Z</time></trkpt><trkpt lat="45.5120554" lon="9.4265983"><ele>120.0</ele><time>2026-03-29T09:28:04.325Z</time></trkpt><trkpt lat="45.5118999" lon="9.42661"><ele>120.0</ele><time>2026-03-29T09:28:05.335Z</time></trkpt><trkpt lat="45.5117438" lon="9.426601"><ele>120.0</ele><time>2026-03-29T09:28:06.33Z</time></trkpt><trkpt lat="45.5115878" lon="9.426572"><ele>120.0</ele><time>2026-03-29T09:28:07.347Z</time></trkpt><trkpt lat="45.5114446" lon="9.4265243"><ele>120.0</ele><time>2026-03-29T09:28:08.334Z</time></trkpt><trkpt lat="45.5113116" lon="9.4264622"><ele>120.0</ele><time>2026-03-29T09:28:09.332Z</time></trkpt><trkpt lat="45.5111887" lon="9.4263976"><ele>120.0</ele><time>2026-03-29T09:28:10.333Z</time></trkpt><trkpt lat="45.511089" lon="9.4263374"><ele>120.0</ele><time>2026-03-29T09:28:11.331Z</time></trkpt><trkpt lat="45.5110005" lon="9.4262865"><ele>120.16666666666667</ele><time>2026-03-29T09:28:12.354Z</time></trkpt><trkpt lat="45.510928" lon="9.4262436"><ele>120.33333333333334</ele><time>2026-03-29T09:28:13.344Z</time></trkpt><trkpt lat="45.5108242" lon="9.426181"><ele>120.5</ele><time>2026-03-29T09:28:15.333Z</time></trkpt><trkpt lat="45.5107649" lon="9.4261404"><ele>120.66666666666667</ele><time>2026-03-29T09:28:17.322Z</time></trkpt><trkpt lat="45.5107019" lon="9.4261102"><ele>120.83333333333334</ele><time>2026-03-29T09:28:21.344Z</time></trkpt><trkpt lat="45.5106192" lon="9.4261417"><ele>121.0</ele><time>2026-03-29T09:28:31.334Z</time></trkpt><trkpt lat="45.5105976" lon="9.4263116"><ele>121.0</ele><time>2026-03-29T09:28:33.343Z</time></trkpt><trkpt lat="45.5106195" lon="9.4264473"><ele>121.0</ele><time>2026-03-29T09:28:34.339Z</time></trkpt><trkpt lat="45.5106438" lon="9.4265945"><ele>121.0</ele><time>2026-03-29T09:28:35.327Z</time></trkpt><trkpt lat="45.5106666" lon="9.4267715"><ele>121.0</ele><time>2026-03-29T09:28:36.344Z</time></trkpt><trkpt lat="45.5106873" lon="9.4269519"><ele>120.75</ele><time>2026-03-29T09:28:37.332Z</time></trkpt><trkpt lat="45.5107106" lon="9.4271511"><ele>120.5</ele><time>2026-03-29T09:28:38.343Z</time></trkpt><trkpt lat="45.5107343" lon="9.4273569"><ele>120.25</ele><time>2026-03-29T09:28:39.355Z</time></trkpt><trkpt lat="45.5107544" lon="9.4275652"><ele>120.0</ele><time>2026-03-29T09:28:40.345Z</time></trkpt><trkpt lat="45.5107736" lon="9.4277681"><ele>120.0</ele><time>2026-03-29T09:28:41.354Z</time></trkpt><trkpt lat="45.5107878" lon="9.4279516"><ele>120.0</ele><time>2026-03-29T09:28:42.35Z</time></trkpt><trkpt lat="45.5107983" lon="9.4281236"><ele>120.0</ele><time>2026-03-29T09:28:43.357Z</time></trkpt><trkpt lat="45.5107997" lon="9.4282656"><ele>120.0</ele><time>2026-03-29T09:28:44.329Z</time></trkpt><trkpt lat="45.5107976" lon="9.42839"><ele>120.0</ele><time>2026-03-29T09:28:45.33Z</time></trkpt><trkpt lat="45.5107888" lon="9.4284853"><ele>120.2</ele><time>2026-03-29T09:28:46.335Z</time></trkpt><trkpt lat="45.5107424" lon="9.4286325"><ele>120.4</ele><time>2026-03-29T09:28:48.347Z</time></trkpt><trkpt lat="45.5107067" lon="9.4287846"><ele>120.6</ele><time>2026-03-29T09:28:50.341Z</time></trkpt><trkpt lat="45.5107765" lon="9.4289443"><ele>120.8</ele><time>2026-03-29T09:28:52.327Z</time></trkpt><trkpt lat="45.510833" lon="9.4290407"><ele>121.0</ele><time>2026-03-29T09:28:53.346Z</time></trkpt><trkpt lat="45.5108736" lon="9.4291598"><ele>121.0</ele><time>2026-03-29T09:28:54.348Z</time></trkpt><trkpt lat="45.5108849" lon="9.4293049"><ele>121.0</ele><time>2026-03-29T09:28:55.329Z</time></trkpt><trkpt lat="45.5108982" lon="9.4294726"><ele>121.0</ele><time>2026-03-29T09:28:56.326Z</time></trkpt><trkpt lat="45.510911" lon="9.4296667"><ele>121.0</ele><time>2026-03-29T09:28:57.342Z</time></trkpt><trkpt lat="45.5109321" lon="9.4298638"><ele>120.66666666666667</ele><time>2026-03-29T09:28:58.347Z</time></trkpt><trkpt lat="45.510955" lon="9.4300718"><ele>120.33333333333334</ele><time>2026-03-29T09:28:59.355Z</time></trkpt><trkpt lat="45.5109764" lon="9.4302882"><ele>120.0</ele><time>2026-03-29T09:29:00.342Z</time></trkpt><trkpt lat="45.5109994" lon="9.4305198"><ele>120.0</ele><time>2026-03-29T09:29:01.359Z</time></trkpt><trkpt lat="45.5110219" lon="9.430751"><ele>120.0</ele><time>2026-03-29T09:29:02.342Z</time></trkpt><trkpt lat="45.5110458" lon="9.4309935"><ele>120.0</ele><time>2026-03-29T09:29:03.335Z</time></trkpt><trkpt lat="45.511069" lon="9.4312484"><ele>120.0</ele><time>2026-03-29T09:29:04.331Z</time></trkpt><trkpt lat="45.5110931" lon="9.4315042"><ele>120.0</ele><time>2026-03-29T09:29:05.338Z</time></trkpt><trkpt lat="45.5111194" lon="9.431762"><ele>120.0</ele><time>2026-03-29T09:29:06.352Z</time></trkpt><trkpt lat="45.5111426" lon="9.4320152"><ele>120.33333333333334</ele><time>2026-03-29T09:29:07.349Z</time></trkpt><trkpt lat="45.5111658" lon="9.4322747"><ele>120.66666666666667</ele><time>2026-03-29T09:29:08.347Z</time></trkpt><trkpt lat="45.5111915" lon="9.4325399"><ele>121.0</ele><time>2026-03-29T09:29:09.328Z</time></trkpt><trkpt lat="45.5112165" lon="9.4328139"><ele>121.0</ele><time>2026-03-29T09:29:10.342Z</time></trkpt><trkpt lat="45.5112424" lon="9.4330837"><ele>121.0</ele><time>2026-03-29T09:29:11.328Z</time></trkpt><trkpt lat="45.5112719" lon="9.4333652"><ele>121.0</ele><time>2026-03-29T09:29:12.345Z</time></trkpt><trkpt lat="45.5113031" lon="9.4336338"><ele>120.66666666666667</ele><time>2026-03-29T09:29:13.327Z</time></trkpt><trkpt lat="45.5113364" lon="9.4339178"><ele>120.33333333333334</ele><time>2026-03-29T09:29:14.351Z</time></trkpt><trkpt lat="45.5113673" lon="9.434192"><ele>120.0</ele><time>2026-03-29T09:29:15.341Z</time></trkpt><trkpt lat="45.5113986" lon="9.4344729"><ele>119.66666666666666</ele><time>2026-03-29T09:29:16.346Z</time></trkpt><trkpt lat="45.5114279" lon="9.4347505"><ele>119.33333333333333</ele><time>2026-03-29T09:29:17.341Z</time></trkpt><trkpt lat="45.5114573" lon="9.4350292"><ele>119.0</ele><time>2026-03-29T09:29:18.342Z</time></trkpt><trkpt lat="45.5114854" lon="9.4353063"><ele>119.0</ele><time>2026-03-29T09:29:19.334Z</time></trkpt><trkpt lat="45.5115117" lon="9.4355808"><ele>119.0</ele><time>2026-03-29T09:29:20.334Z</time></trkpt><trkpt lat="45.5115371" lon="9.4358473"><ele>119.0</ele><time>2026-03-29T09:29:21.323Z</time></trkpt><trkpt lat="45.511559" lon="9.4361081"><ele>119.0</ele><time>2026-03-29T09:29:22.339Z</time></trkpt><trkpt lat="45.5115785" lon="9.4363518"><ele>119.0</ele><time>2026-03-29T09:29:23.339Z</time></trkpt><trkpt lat="45.5115914" lon="9.4365843"><ele>119.0</ele><time>2026-03-29T09:29:24.34Z</time></trkpt><trkpt lat="45.5115953" lon="9.4367989"><ele>119.0</ele><time>2026-03-29T09:29:25.343Z</time></trkpt><trkpt lat="45.5115887" lon="9.4369865"><ele>119.0</ele><time>2026-03-29T09:29:26.328Z</time></trkpt><trkpt lat="45.5115756" lon="9.4371599"><ele>119.0</ele><time>2026-03-29T09:29:27.33Z</time></trkpt><trkpt lat="45.5115588" lon="9.437315"><ele>119.0</ele><time>2026-03-29T09:29:28.347Z</time></trkpt><trkpt lat="45.511545" lon="9.437456"><ele>118.83333333333333</ele><time>2026-03-29T09:29:29.343Z</time></trkpt><trkpt lat="45.5115289" lon="9.4375864"><ele>118.66666666666666</ele><time>2026-03-29T09:29:30.36Z</time></trkpt><trkpt lat="45.5115003" lon="9.4377032"><ele>118.5</ele><time>2026-03-29T09:29:31.343Z</time></trkpt><trkpt lat="45.5114744" lon="9.4378159"><ele>118.33333333333334</ele><time>2026-03-29T09:29:32.365Z</time></trkpt><trkpt lat="45.5114703" lon="9.4379231"><ele>118.16666666666667</ele><time>2026-03-29T09:29:33.33Z</time></trkpt><trkpt lat="45.511486" lon="9.4380449"><ele>118.0</ele><time>2026-03-29T09:29:34.33Z</time></trkpt><trkpt lat="45.511528" lon="9.4381801"><ele>118.0</ele><time>2026-03-29T09:29:35.341Z</time></trkpt><trkpt lat="45.5115656" lon="9.4383294"><ele>118.0</ele><time>2026-03-29T09:29:36.325Z</time></trkpt><trkpt lat="45.5115918" lon="9.4385031"><ele>118.0</ele><time>2026-03-29T09:29:37.357Z</time></trkpt><trkpt lat="45.5116141" lon="9.4386791"><ele>118.0</ele><time>2026-03-29T09:29:38.342Z</time></trkpt><trkpt lat="45.511653" lon="9.438858"><ele>118.0</ele><time>2026-03-29T09:29:39.334Z</time></trkpt><trkpt lat="45.5117143" lon="9.439051"><ele>118.0</ele><time>2026-03-29T09:29:40.347Z</time></trkpt><trkpt lat="45.5117823" lon="9.4392414"><ele>118.0</ele><time>2026-03-29T09:29:41.352Z</time></trkpt><trkpt lat="45.5118485" lon="9.4394339"><ele>118.0</ele><time>2026-03-29T09:29:42.351Z</time></trkpt><trkpt lat="45.5118998" lon="9.439634"><ele>118.33333333333334</ele><time>2026-03-29T09:29:43.353Z</time></trkpt><trkpt lat="45.5119344" lon="9.4398422"><ele>118.66666666666666</ele><time>2026-03-29T09:29:44.348Z</time></trkpt><trkpt lat="45.51196" lon="9.4400555"><ele>119.0</ele><time>2026-03-29T09:29:45.359Z</time></trkpt><trkpt lat="45.5119802" lon="9.4402727"><ele>119.0</ele><time>2026-03-29T09:29:46.359Z</time></trkpt><trkpt lat="45.5120024" lon="9.4404937"><ele>119.0</ele><time>2026-03-29T09:29:47.345Z</time></trkpt><trkpt lat="45.5120239" lon="9.4407268"><ele>119.0</ele><time>2026-03-29T09:29:48.335Z</time></trkpt><trkpt lat="45.5120478" lon="9.4409793"><ele>119.0</ele><time>2026-03-29T09:29:49.368Z</time></trkpt><trkpt lat="45.5120712" lon="9.441228"><ele>119.0</ele><time>2026-03-29T09:29:50.333Z</time></trkpt><trkpt lat="45.5120962" lon="9.4414879"><ele>119.0</ele><time>2026-03-29T09:29:51.351Z</time></trkpt><trkpt lat="45.5121186" lon="9.4417415"><ele>119.0</ele><time>2026-03-29T09:29:52.339Z</time></trkpt><trkpt lat="45.5121463" lon="9.4420049"><ele>119.0</ele><time>2026-03-29T09:29:53.343Z</time></trkpt><trkpt lat="45.5121696" lon="9.4422736"><ele>119.0</ele><time>2026-03-29T09:29:54.343Z</time></trkpt><trkpt lat="45.5121928" lon="9.4425434"><ele>118.66666666666666</ele><time>2026-03-29T09:29:55.337Z</time></trkpt><trkpt lat="45.512218" lon="9.4428165"><ele>118.33333333333334</ele><time>2026-03-29T09:29:56.331Z</time></trkpt><trkpt lat="45.512243" lon="9.4430954"><ele>118.0</ele><time>2026-03-29T09:29:57.344Z</time></trkpt><trkpt lat="45.5122678" lon="9.4433565"><ele>117.66666666666667</ele><time>2026-03-29T09:29:58.352Z</time></trkpt><trkpt lat="45.5122897" lon="9.4435984"><ele>117.33333333333334</ele><time>2026-03-29T09:29:59.339Z</time></trkpt><trkpt lat="45.5123123" lon="9.443828"><ele>117.0</ele><time>2026-03-29T09:30:00.358Z</time></trkpt><trkpt lat="45.5123317" lon="9.4440218"><ele>117.0</ele><time>2026-03-29T09:30:01.333Z</time></trkpt><trkpt lat="45.5123494" lon="9.444197"><ele>116.99999999999999</ele><time>2026-03-29T09:30:02.352Z</time></trkpt><trkpt lat="45.5123649" lon="9.4443473"><ele>116.99999999999999</ele><time>2026-03-29T09:30:03.333Z</time></trkpt><trkpt lat="45.51238" lon="9.4444921"><ele>117.0</ele><time>2026-03-29T09:30:04.377Z</time></trkpt><trkpt lat="45.512394" lon="9.444613"><ele>117.0</ele><time>2026-03-29T09:30:05.331Z</time></trkpt><trkpt lat="45.5124075" lon="9.4447333"><ele>117.0</ele><time>2026-03-29T09:30:06.329Z</time></trkpt><trkpt lat="45.5124195" lon="9.444845"><ele>117.0</ele><time>2026-03-29T09:30:07.336Z</time></trkpt><trkpt lat="45.5124301" lon="9.4449584"><ele>117.0</ele><time>2026-03-29T09:30:08.339Z</time></trkpt><trkpt lat="45.5124399" lon="9.44508"><ele>117.0</ele><time>2026-03-29T09:30:09.343Z</time></trkpt><trkpt lat="45.5124509" lon="9.4452128"><ele>117.0</ele><time>2026-03-29T09:30:10.343Z</time></trkpt><trkpt lat="45.512465" lon="9.4453569"><ele>117.0</ele><time>2026-03-29T09:30:11.347Z</time></trkpt><trkpt lat="45.5124822" lon="9.445505"><ele>117.0</ele><time>2026-03-29T09:30:12.348Z</time></trkpt><trkpt lat="45.5124978" lon="9.4456557"><ele>117.0</ele><time>2026-03-29T09:30:13.341Z</time></trkpt><trkpt lat="45.5125132" lon="9.445814"><ele>117.0</ele><time>2026-03-29T09:30:14.356Z</time></trkpt><trkpt lat="45.5125311" lon="9.4459719"><ele>117.0</ele><time>2026-03-29T09:30:15.345Z</time></trkpt><trkpt lat="45.5125549" lon="9.4461391"><ele>117.5</ele><time>2026-03-29T09:30:16.345Z</time></trkpt><trkpt lat="45.512581" lon="9.4463092"><ele>118.0</ele><time>2026-03-29T09:30:17.339Z</time></trkpt><trkpt lat="45.5126082" lon="9.4464827"><ele>118.5</ele><time>2026-03-29T09:30:18.334Z</time></trkpt><trkpt lat="45.512634" lon="9.4466586"><ele>119.0</ele><time>2026-03-29T09:30:19.357Z</time></trkpt><trkpt lat="45.5126541" lon="9.4468188"><ele>119.0</ele><time>2026-03-29T09:30:20.331Z</time></trkpt><trkpt lat="45.5126758" lon="9.4469746"><ele>119.0</ele><time>2026-03-29T09:30:21.331Z</time></trkpt><trkpt lat="45.5126974" lon="9.447114"><ele>119.0</ele><time>2026-03-29T09:30:22.333Z</time></trkpt><trkpt lat="45.512717" lon="9.4472341"><ele>119.0</ele><time>2026-03-29T09:30:23.346Z</time></trkpt><trkpt lat="45.5127359" lon="9.4473312"><ele>119.0</ele><time>2026-03-29T09:30:24.345Z</time></trkpt><trkpt lat="45.5127662" lon="9.4474932"><ele>119.2</ele><time>2026-03-29T09:30:26.343Z</time></trkpt><trkpt lat="45.5127906" lon="9.447652"><ele>119.4</ele><time>2026-03-29T09:30:28.338Z</time></trkpt><trkpt lat="45.5128569" lon="9.4477858"><ele>119.6</ele><time>2026-03-29T09:30:30.338Z</time></trkpt><trkpt lat="45.5129731" lon="9.4478305"><ele>119.8</ele><time>2026-03-29T09:30:32.34Z</time></trkpt><trkpt lat="45.5130528" lon="9.4478242"><ele>120.0</ele><time>2026-03-29T09:30:33.344Z</time></trkpt><trkpt lat="45.5131428" lon="9.4478031"><ele>120.0</ele><time>2026-03-29T09:30:34.337Z</time></trkpt><trkpt lat="45.5132401" lon="9.4477726"><ele>120.0</ele><time>2026-03-29T09:30:35.327Z</time></trkpt><trkpt lat="45.5133533" lon="9.4477428"><ele>120.0</ele><time>2026-03-29T09:30:36.338Z</time></trkpt><trkpt lat="45.513471" lon="9.4477221"><ele>120.0</ele><time>2026-03-29T09:30:37.361Z</time></trkpt><trkpt lat="45.5135846" lon="9.4477113"><ele>120.0</ele><time>2026-03-29T09:30:38.348Z</time></trkpt><trkpt lat="45.5137045" lon="9.4477095"><ele>120.2</ele><time>2026-03-29T09:30:39.368Z</time></trkpt><trkpt lat="45.5138104" lon="9.4477091"><ele>120.4</ele><time>2026-03-29T09:30:40.347Z</time></trkpt><trkpt lat="45.5139205" lon="9.4477074"><ele>120.6</ele><time>2026-03-29T09:30:41.342Z</time></trkpt><trkpt lat="45.5140238" lon="9.4477017"><ele>120.8</ele><time>2026-03-29T09:30:42.344Z</time></trkpt><trkpt lat="45.5141261" lon="9.4476986"><ele>121.0</ele><time>2026-03-29T09:30:43.351Z</time></trkpt><trkpt lat="45.5142154" lon="9.4476973"><ele>121.00000000000001</ele><time>2026-03-29T09:30:44.332Z</time></trkpt><trkpt lat="45.5143025" lon="9.4477008"><ele>121.0</ele><time>2026-03-29T09:30:45.358Z</time></trkpt><trkpt lat="45.5143768" lon="9.4477037"><ele>121.0</ele><time>2026-03-29T09:30:46.337Z</time></trkpt><trkpt lat="45.5144494" lon="9.4477057"><ele>121.0</ele><time>2026-03-29T09:30:47.353Z</time></trkpt><trkpt lat="45.5145169" lon="9.4477052"><ele>121.00000000000001</ele><time>2026-03-29T09:30:48.331Z</time></trkpt><trkpt lat="45.5145905" lon="9.4477035"><ele>121.0</ele><time>2026-03-29T09:30:49.351Z</time></trkpt><trkpt lat="45.5146685" lon="9.4477037"><ele>120.66666666666667</ele><time>2026-03-29T09:30:50.359Z</time></trkpt><trkpt lat="45.5147471" lon="9.4477016"><ele>120.33333333333334</ele><time>2026-03-29T09:30:51.331Z</time></trkpt><trkpt lat="45.5148281" lon="9.4477031"><ele>120.0</ele><time>2026-03-29T09:30:52.348Z</time></trkpt><trkpt lat="45.5149122" lon="9.4476989"><ele>119.66666666666666</ele><time>2026-03-29T09:30:53.343Z</time></trkpt><trkpt lat="45.514996" lon="9.4476992"><ele>119.33333333333333</ele><time>2026-03-29T09:30:54.341Z</time></trkpt><trkpt lat="45.5150849" lon="9.4477001"><ele>119.0</ele><time>2026-03-29T09:30:55.377Z</time></trkpt><trkpt lat="45.5151716" lon="9.4476968"><ele>119.0</ele><time>2026-03-29T09:30:56.327Z</time></trkpt><trkpt lat="45.5152634" lon="9.4476941"><ele>119.0</ele><time>2026-03-29T09:30:57.354Z</time></trkpt><trkpt lat="45.5153588" lon="9.447698"><ele>119.0</ele><time>2026-03-29T09:30:58.338Z</time></trkpt><trkpt lat="45.5154558" lon="9.4477167"><ele>119.0</ele><time>2026-03-29T09:30:59.342Z</time></trkpt><trkpt lat="45.5155489" lon="9.4477539"><ele>119.0</ele><time>2026-03-29T09:31:00.347Z</time></trkpt><trkpt lat="45.5156388" lon="9.4478086"><ele>119.0</ele><time>2026-03-29T09:31:01.338Z</time></trkpt><trkpt lat="45.5157125" lon="9.4478815"><ele>119.0</ele><time>2026-03-29T09:31:02.339Z</time></trkpt><trkpt lat="45.5157787" lon="9.4479698"><ele>119.0</ele><time>2026-03-29T09:31:03.339Z</time></trkpt><trkpt lat="45.5158433" lon="9.4480723"><ele>119.0</ele><time>2026-03-29T09:31:04.356Z</time></trkpt><trkpt lat="45.5159028" lon="9.4481938"><ele>119.0</ele><time>2026-03-29T09:31:05.348Z</time></trkpt><trkpt lat="45.5159517" lon="9.4483283"><ele>119.0</ele><time>2026-03-29T09:31:06.341Z</time></trkpt><trkpt lat="45.5159854" lon="9.4484778"><ele>119.0</ele><time>2026-03-29T09:31:07.35Z</time></trkpt><trkpt lat="45.5160193" lon="9.4486262"><ele>119.0</ele><time>2026-03-29T09:31:08.329Z</time></trkpt><trkpt lat="45.5160494" lon="9.4487888"><ele>119.0</ele><time>2026-03-29T09:31:09.348Z</time></trkpt><trkpt lat="45.5160679" lon="9.4489535"><ele>118.75</ele><time>2026-03-29T09:31:10.352Z</time></trkpt><trkpt lat="45.5160793" lon="9.4491178"><ele>118.5</ele><time>2026-03-29T09:31:11.351Z</time></trkpt><trkpt lat="45.5160868" lon="9.4492858"><ele>118.25</ele><time>2026-03-29T09:31:12.344Z</time></trkpt><trkpt lat="45.5160923" lon="9.4494536"><ele>118.0</ele><time>2026-03-29T09:31:13.354Z</time></trkpt><trkpt lat="45.5160963" lon="9.4496204"><ele>117.80000000000001</ele><time>2026-03-29T09:31:14.346Z</time></trkpt><trkpt lat="45.5161043" lon="9.4497877"><ele>117.60000000000001</ele><time>2026-03-29T09:31:15.365Z</time></trkpt><trkpt lat="45.5161103" lon="9.4499473"><ele>117.39999999999999</ele><time>2026-03-29T09:31:16.34Z</time></trkpt><trkpt lat="45.5161192" lon="9.4501053"><ele>117.19999999999999</ele><time>2026-03-29T09:31:17.347Z</time></trkpt><trkpt lat="45.5161247" lon="9.4502492"><ele>117.0</ele><time>2026-03-29T09:31:18.345Z</time></trkpt><trkpt lat="45.5161312" lon="9.4503829"><ele>117.16666666666667</ele><time>2026-03-29T09:31:19.34Z</time></trkpt><trkpt lat="45.5161393" lon="9.4505117"><ele>117.33333333333334</ele><time>2026-03-29T09:31:20.34Z</time></trkpt><trkpt lat="45.5161478" lon="9.4506301"><ele>117.5</ele><time>2026-03-29T09:31:21.329Z</time></trkpt><trkpt lat="45.5161515" lon="9.4507512"><ele>117.66666666666667</ele><time>2026-03-29T09:31:22.351Z</time></trkpt><trkpt lat="45.516157" lon="9.4508723"><ele>117.83333333333334</ele><time>2026-03-29T09:31:23.357Z</time></trkpt><trkpt lat="45.5161609" lon="9.4509885"><ele>118.0</ele><time>2026-03-29T09:31:24.341Z</time></trkpt><trkpt lat="45.516163" lon="9.4510931"><ele>118.0</ele><time>2026-03-29T09:31:25.344Z</time></trkpt><trkpt lat="45.5161675" lon="9.4512441"><ele>118.00000000000001</ele><time>2026-03-29T09:31:27.338Z</time></trkpt><trkpt lat="45.516166" lon="9.4513437"><ele>118.00000000000001</ele><time>2026-03-29T09:31:30.327Z</time></trkpt><trkpt lat="45.5161593" lon="9.4514655"><ele>118.0</ele><time>2026-03-29T09:31:37.356Z</time></trkpt><trkpt lat="45.5161544" lon="9.4516513"><ele>118.0</ele><time>2026-03-29T09:31:39.348Z</time></trkpt><trkpt lat="45.5161524" lon="9.4517706"><ele>118.00000000000001</ele><time>2026-03-29T09:31:40.343Z</time></trkpt><trkpt lat="45.5161481" lon="9.4518892"><ele>118.0</ele><time>2026-03-29T09:31:41.349Z</time></trkpt><trkpt lat="45.5161469" lon="9.4520097"><ele>118.0</ele><time>2026-03-29T09:31:42.351Z</time></trkpt><trkpt lat="45.5161457" lon="9.4521245"><ele>118.0</ele><time>2026-03-29T09:31:43.334Z</time></trkpt><trkpt lat="45.5161426" lon="9.4522495"><ele>118.00000000000001</ele><time>2026-03-29T09:31:44.355Z</time></trkpt><trkpt lat="45.5161403" lon="9.4523846"><ele>118.0</ele><time>2026-03-29T09:31:45.347Z</time></trkpt><trkpt lat="45.5161384" lon="9.4525257"><ele>118.2</ele><time>2026-03-29T09:31:46.347Z</time></trkpt><trkpt lat="45.5161373" lon="9.4526782"><ele>118.4</ele><time>2026-03-29T09:31:47.387Z</time></trkpt><trkpt lat="45.5161328" lon="9.4528254"><ele>118.60000000000001</ele><time>2026-03-29T09:31:48.357Z</time></trkpt><trkpt lat="45.5161309" lon="9.4529817"><ele>118.80000000000001</ele><time>2026-03-29T09:31:49.342Z</time></trkpt><trkpt lat="45.5161234" lon="9.4531492"><ele>119.0</ele><time>2026-03-29T09:31:50.36Z</time></trkpt><trkpt lat="45.5161149" lon="9.453306"><ele>119.2</ele><time>2026-03-29T09:31:51.34Z</time></trkpt><trkpt lat="45.5161033" lon="9.4534675"><ele>119.4</ele><time>2026-03-29T09:31:52.341Z</time></trkpt><trkpt lat="45.5160928" lon="9.4536261"><ele>119.6</ele><time>2026-03-29T09:31:53.34Z</time></trkpt><trkpt lat="45.5160823" lon="9.4537786"><ele>119.8</ele><time>2026-03-29T09:31:54.354Z</time></trkpt><trkpt lat="45.5160717" lon="9.4539149"><ele>120.0</ele><time>2026-03-29T09:31:55.353Z</time></trkpt><trkpt lat="45.5160607" lon="9.4540401"><ele>120.0</ele><time>2026-03-29T09:31:56.335Z</time></trkpt><trkpt lat="45.516051" lon="9.4541694"><ele>120.0</ele><time>2026-03-29T09:31:57.338Z</time></trkpt><trkpt lat="45.5160405" lon="9.4542966"><ele>120.0</ele><time>2026-03-29T09:31:58.349Z</time></trkpt><trkpt lat="45.5160316" lon="9.4544117"><ele>120.0</ele><time>2026-03-29T09:31:59.338Z</time></trkpt><trkpt lat="45.5160226" lon="9.4545211"><ele>120.0</ele><time>2026-03-29T09:32:00.348Z</time></trkpt><trkpt lat="45.5160139" lon="9.4546267"><ele>120.0</ele><time>2026-03-29T09:32:01.325Z</time></trkpt><trkpt lat="45.5160058" lon="9.4547412"><ele>120.0</ele><time>2026-03-29T09:32:02.331Z</time></trkpt><trkpt lat="45.5159988" lon="9.4548668"><ele>120.0</ele><time>2026-03-29T09:32:03.347Z</time></trkpt><trkpt lat="45.5159914" lon="9.4549854"><ele>120.0</ele><time>2026-03-29T09:32:04.346Z</time></trkpt><trkpt lat="45.5159817" lon="9.4551081"><ele>120.0</ele><time>2026-03-29T09:32:05.364Z</time></trkpt><trkpt lat="45.5159709" lon="9.4552369"><ele>120.0</ele><time>2026-03-29T09:32:06.341Z</time></trkpt><trkpt lat="45.5159596" lon="9.4553888"><ele>119.75</ele><time>2026-03-29T09:32:07.352Z</time></trkpt><trkpt lat="45.5159482" lon="9.4555537"><ele>119.5</ele><time>2026-03-29T09:32:08.338Z</time></trkpt><trkpt lat="45.5159361" lon="9.4557306"><ele>119.25</ele><time>2026-03-29T09:32:09.333Z</time></trkpt><trkpt lat="45.515928" lon="9.4559023"><ele>119.0</ele><time>2026-03-29T09:32:10.33Z</time></trkpt><trkpt lat="45.5159219" lon="9.4560812"><ele>119.0</ele><time>2026-03-29T09:32:11.343Z</time></trkpt><trkpt lat="45.5159208" lon="9.4562606"><ele>119.0</ele><time>2026-03-29T09:32:12.365Z</time></trkpt><trkpt lat="45.515915" lon="9.4564315"><ele>119.0</ele><time>2026-03-29T09:32:13.331Z</time></trkpt><trkpt lat="45.5159116" lon="9.4566043"><ele>119.0</ele><time>2026-03-29T09:32:14.326Z</time></trkpt><trkpt lat="45.5159064" lon="9.4567744"><ele>119.0</ele><time>2026-03-29T09:32:15.336Z</time></trkpt><trkpt lat="45.5159025" lon="9.4569457"><ele>119.0</ele><time>2026-03-29T09:32:16.36Z</time></trkpt><trkpt lat="45.5158977" lon="9.4571204"><ele>119.0</ele><time>2026-03-29T09:32:17.374Z</time></trkpt><trkpt lat="45.515895" lon="9.4572887"><ele>119.0</ele><time>2026-03-29T09:32:18.354Z</time></trkpt><trkpt lat="45.5158945" lon="9.4574605"><ele>119.0</ele><time>2026-03-29T09:32:19.365Z</time></trkpt><trkpt lat="45.5158931" lon="9.4576277"><ele>119.0</ele><time>2026-03-29T09:32:20.368Z</time></trkpt><trkpt lat="45.5158926" lon="9.4577944"><ele>119.0</ele><time>2026-03-29T09:32:21.354Z</time></trkpt><trkpt lat="45.5158923" lon="9.4579616"><ele>119.0</ele><time>2026-03-29T09:32:22.349Z</time></trkpt><trkpt lat="45.5158923" lon="9.458129"><ele>119.5</ele><time>2026-03-29T09:32:23.345Z</time></trkpt><trkpt lat="45.5158932" lon="9.458301"><ele>120.0</ele><time>2026-03-29T09:32:24.345Z</time></trkpt><trkpt lat="45.5158975" lon="9.4584771"><ele>120.5</ele><time>2026-03-29T09:32:25.35Z</time></trkpt><trkpt lat="45.5159025" lon="9.4586548"><ele>121.0</ele><time>2026-03-29T09:32:26.355Z</time></trkpt><trkpt lat="45.5159087" lon="9.4588299"><ele>121.0</ele><time>2026-03-29T09:32:27.339Z</time></trkpt><trkpt lat="45.5159153" lon="9.4590043"><ele>121.0</ele><time>2026-03-29T09:32:28.342Z</time></trkpt><trkpt lat="45.5159178" lon="9.4591628"><ele>121.0</ele><time>2026-03-29T09:32:29.35Z</time></trkpt><trkpt lat="45.5159151" lon="9.4593082"><ele>121.0</ele><time>2026-03-29T09:32:30.348Z</time></trkpt><trkpt lat="45.515897" lon="9.4594456"><ele>121.0</ele><time>2026-03-29T09:32:31.336Z</time></trkpt><trkpt lat="45.5158613" lon="9.4595607"><ele>120.6</ele><time>2026-03-29T09:32:32.332Z</time></trkpt><trkpt lat="45.5158026" lon="9.4596695"><ele>120.19999999999999</ele><time>2026-03-29T09:32:33.371Z</time></trkpt><trkpt lat="45.5157336" lon="9.4597607"><ele>119.80000000000001</ele><time>2026-03-29T09:32:34.346Z</time></trkpt><trkpt lat="45.5156522" lon="9.4598427"><ele>119.4</ele><time>2026-03-29T09:32:35.36Z</time></trkpt><trkpt lat="45.5155681" lon="9.4599196"><ele>119.0</ele><time>2026-03-29T09:32:36.342Z</time></trkpt><trkpt lat="45.5154856" lon="9.4599935"><ele>118.99999999999999</ele><time>2026-03-29T09:32:37.359Z</time></trkpt><trkpt lat="45.5154122" lon="9.4600617"><ele>119.0</ele><time>2026-03-29T09:32:38.335Z</time></trkpt><trkpt lat="45.5153413" lon="9.4601245"><ele>119.0</ele><time>2026-03-29T09:32:39.327Z</time></trkpt><trkpt lat="45.5152724" lon="9.460187"><ele>119.0</ele><time>2026-03-29T09:32:40.351Z</time></trkpt><trkpt lat="45.5152059" lon="9.4602412"><ele>118.99999999999999</ele><time>2026-03-29T09:32:41.342Z</time></trkpt><trkpt lat="45.5151392" lon="9.4602951"><ele>119.0</ele><time>2026-03-29T09:32:42.331Z</time></trkpt><trkpt lat="45.5150741" lon="9.4603537"><ele>119.0</ele><time>2026-03-29T09:32:43.331Z</time></trkpt><trkpt lat="45.5150064" lon="9.4604172"><ele>119.0</ele><time>2026-03-29T09:32:44.334Z</time></trkpt><trkpt lat="45.5149378" lon="9.4604816"><ele>119.0</ele><time>2026-03-29T09:32:45.336Z</time></trkpt><trkpt lat="45.5148557" lon="9.4605535"><ele>119.0</ele><time>2026-03-29T09:32:46.362Z</time></trkpt><trkpt lat="45.5147738" lon="9.4606275"><ele>119.0</ele><time>2026-03-29T09:32:47.359Z</time></trkpt><trkpt lat="45.5146927" lon="9.4607017"><ele>118.80000000000001</ele><time>2026-03-29T09:32:48.342Z</time></trkpt><trkpt lat="45.5146054" lon="9.4607768"><ele>118.60000000000001</ele><time>2026-03-29T09:32:49.346Z</time></trkpt><trkpt lat="45.5145131" lon="9.4608353"><ele>118.4</ele><time>2026-03-29T09:32:50.34Z</time></trkpt><trkpt lat="45.514412" lon="9.4608713"><ele>118.2</ele><time>2026-03-29T09:32:51.342Z</time></trkpt><trkpt lat="45.5143147" lon="9.4608878"><ele>118.0</ele><time>2026-03-29T09:32:52.334Z</time></trkpt><trkpt lat="45.5142241" lon="9.460897"><ele>118.60000000000001</ele><time>2026-03-29T09:32:53.349Z</time></trkpt><trkpt lat="45.5141589" lon="9.4609007"><ele>119.20000000000002</ele><time>2026-03-29T09:32:54.334Z</time></trkpt><trkpt lat="45.5140438" lon="9.4609098"><ele>119.8</ele><time>2026-03-29T09:32:56.339Z</time></trkpt><trkpt lat="45.5139476" lon="9.4608589"><ele>120.4</ele><time>2026-03-29T09:32:58.334Z</time></trkpt><trkpt lat="45.5138701" lon="9.4607034"><ele>121.0</ele><time>2026-03-29T09:33:00.347Z</time></trkpt><trkpt lat="45.5138271" lon="9.4606242"><ele>121.0</ele><time>2026-03-29T09:33:01.336Z</time></trkpt><trkpt lat="45.5137676" lon="9.4605596"><ele>120.99999999999999</ele><time>2026-03-29T09:33:02.357Z</time></trkpt><trkpt lat="45.5137048" lon="9.4605282"><ele>121.0</ele><time>2026-03-29T09:33:03.33Z</time></trkpt><trkpt lat="45.5136295" lon="9.4605079"><ele>121.0</ele><time>2026-03-29T09:33:04.33Z</time></trkpt><trkpt lat="45.5135551" lon="9.4605219"><ele>120.99999999999999</ele><time>2026-03-29T09:33:05.353Z</time></trkpt><trkpt lat="45.5134886" lon="9.4605619"><ele>121.0</ele><time>2026-03-29T09:33:06.34Z</time></trkpt><trkpt lat="45.5134283" lon="9.460624"><ele>121.0</ele><time>2026-03-29T09:33:07.347Z</time></trkpt><trkpt lat="45.5133775" lon="9.460707"><ele>120.83333333333334</ele><time>2026-03-29T09:33:08.355Z</time></trkpt><trkpt lat="45.5133449" lon="9.4608027"><ele>120.66666666666667</ele><time>2026-03-29T09:33:09.332Z</time></trkpt><trkpt lat="45.513326" lon="9.4609106"><ele>120.5</ele><time>2026-03-29T09:33:10.338Z</time></trkpt><trkpt lat="45.5133292" lon="9.4610207"><ele>120.33333333333334</ele><time>2026-03-29T09:33:11.356Z</time></trkpt><trkpt lat="45.5133531" lon="9.4611267"><ele>120.16666666666667</ele><time>2026-03-29T09:33:12.341Z</time></trkpt><trkpt lat="45.5133963" lon="9.4612297"><ele>120.0</ele><time>2026-03-29T09:33:13.352Z</time></trkpt><trkpt lat="45.513447" lon="9.4613216"><ele>120.0</ele><time>2026-03-29T09:33:14.328Z</time></trkpt><trkpt lat="45.5135032" lon="9.4614082"><ele>120.0</ele><time>2026-03-29T09:33:15.337Z</time></trkpt><trkpt lat="45.5135496" lon="9.4615137"><ele>120.0</ele><time>2026-03-29T09:33:16.337Z</time></trkpt><trkpt lat="45.5135675" lon="9.4616067"><ele>120.0</ele><time>2026-03-29T09:33:17.366Z</time></trkpt><trkpt lat="45.5135769" lon="9.4617326"><ele>120.0</ele><time>2026-03-29T09:33:18.349Z</time></trkpt><trkpt lat="45.5135823" lon="9.4618844"><ele>120.0</ele><time>2026-03-29T09:33:19.351Z</time></trkpt><trkpt lat="45.5135894" lon="9.4620609"><ele>119.5</ele><time>2026-03-29T09:33:20.365Z</time></trkpt><trkpt lat="45.5135965" lon="9.4622565"><ele>119.0</ele><time>2026-03-29T09:33:21.343Z</time></trkpt><trkpt lat="45.5135952" lon="9.4624645"><ele>118.5</ele><time>2026-03-29T09:33:22.358Z</time></trkpt><trkpt lat="45.5135884" lon="9.4626705"><ele>118.0</ele><time>2026-03-29T09:33:23.342Z</time></trkpt><trkpt lat="45.5135823" lon="9.4628767"><ele>118.25</ele><time>2026-03-29T09:33:24.341Z</time></trkpt><trkpt lat="45.5135785" lon="9.4630634"><ele>118.5</ele><time>2026-03-29T09:33:25.351Z</time></trkpt><trkpt lat="45.513578" lon="9.4632314"><ele>118.75</ele><time>2026-03-29T09:33:26.35Z</time></trkpt><trkpt lat="45.5135748" lon="9.4633853"><ele>119.0</ele><time>2026-03-29T09:33:27.349Z</time></trkpt><trkpt lat="45.5135751" lon="9.4635265"><ele>118.99999999999999</ele><time>2026-03-29T09:33:28.362Z</time></trkpt><trkpt lat="45.5135759" lon="9.4636521"><ele>119.0</ele><time>2026-03-29T09:33:29.353Z</time></trkpt><trkpt lat="45.5135738" lon="9.463769"><ele>119.0</ele><time>2026-03-29T09:33:30.331Z</time></trkpt><trkpt lat="45.5135693" lon="9.4638928"><ele>119.0</ele><time>2026-03-29T09:33:31.349Z</time></trkpt><trkpt lat="45.5135673" lon="9.4640167"><ele>118.99999999999999</ele><time>2026-03-29T09:33:32.349Z</time></trkpt><trkpt lat="45.5135614" lon="9.4641427"><ele>119.0</ele><time>2026-03-29T09:33:33.365Z</time></trkpt><trkpt lat="45.5135547" lon="9.4642635"><ele>119.0</ele><time>2026-03-29T09:33:34.353Z</time></trkpt><trkpt lat="45.5135525" lon="9.4643962"><ele>119.0</ele><time>2026-03-29T09:33:35.352Z</time></trkpt><trkpt lat="45.513555" lon="9.4645318"><ele>119.0</ele><time>2026-03-29T09:33:36.342Z</time></trkpt><trkpt lat="45.5135582" lon="9.4646856"><ele>119.0</ele><time>2026-03-29T09:33:37.36Z</time></trkpt><trkpt lat="45.5135593" lon="9.4648499"><ele>119.0</ele><time>2026-03-29T09:33:38.333Z</time></trkpt><trkpt lat="45.5135543" lon="9.4650364"><ele>119.0</ele><time>2026-03-29T09:33:39.35Z</time></trkpt><trkpt lat="45.5135426" lon="9.4652307"><ele>119.0</ele><time>2026-03-29T09:33:40.342Z</time></trkpt><trkpt lat="45.5135293" lon="9.465425"><ele>119.0</ele><time>2026-03-29T09:33:41.344Z</time></trkpt><trkpt lat="45.5135227" lon="9.4656219"><ele>119.0</ele><time>2026-03-29T09:33:42.345Z</time></trkpt><trkpt lat="45.5135188" lon="9.4658282"><ele>119.0</ele><time>2026-03-29T09:33:43.353Z</time></trkpt><trkpt lat="45.5135155" lon="9.4660433"><ele>119.0</ele><time>2026-03-29T09:33:44.373Z</time></trkpt><trkpt lat="45.5135128" lon="9.4662513"><ele>119.0</ele><time>2026-03-29T09:33:45.34Z</time></trkpt><trkpt lat="45.5135064" lon="9.4664683"><ele>119.0</ele><time>2026-03-29T09:33:46.345Z</time></trkpt><trkpt lat="45.5134975" lon="9.4666893"><ele>119.33333333333333</ele><time>2026-03-29T09:33:47.334Z</time></trkpt><trkpt lat="45.513491" lon="9.4669188"><ele>119.66666666666666</ele><time>2026-03-29T09:33:48.34Z</time></trkpt><trkpt lat="45.5134868" lon="9.4671557"><ele>120.0</ele><time>2026-03-29T09:33:49.347Z</time></trkpt><trkpt lat="45.5134855" lon="9.467391"><ele>120.0</ele><time>2026-03-29T09:33:50.343Z</time></trkpt><trkpt lat="45.5134835" lon="9.4676314"><ele>120.0</ele><time>2026-03-29T09:33:51.371Z</time></trkpt><trkpt lat="45.5134768" lon="9.4678609"><ele>120.0</ele><time>2026-03-29T09:33:52.349Z</time></trkpt><trkpt lat="45.5134688" lon="9.468095"><ele>120.0</ele><time>2026-03-29T09:33:53.344Z</time></trkpt><trkpt lat="45.5134628" lon="9.4683339"><ele>120.0</ele><time>2026-03-29T09:33:54.343Z</time></trkpt><trkpt lat="45.5134584" lon="9.4685726"><ele>120.0</ele><time>2026-03-29T09:33:55.332Z</time></trkpt><trkpt lat="45.5134518" lon="9.4688186"><ele>120.0</ele><time>2026-03-29T09:33:56.349Z</time></trkpt><trkpt lat="45.5134462" lon="9.469062"><ele>120.0</ele><time>2026-03-29T09:33:57.346Z</time></trkpt><trkpt lat="45.513441" lon="9.4693048"><ele>120.0</ele><time>2026-03-29T09:33:58.346Z</time></trkpt><trkpt lat="45.5134343" lon="9.4695474"><ele>120.0</ele><time>2026-03-29T09:33:59.345Z</time></trkpt><trkpt lat="45.51343" lon="9.4697954"><ele>120.0</ele><time>2026-03-29T09:34:00.361Z</time></trkpt><trkpt lat="45.5134265" lon="9.4700377"><ele>120.0</ele><time>2026-03-29T09:34:01.345Z</time></trkpt><trkpt lat="45.5134245" lon="9.4702842"><ele>120.0</ele><time>2026-03-29T09:34:02.349Z</time></trkpt><trkpt lat="45.5134257" lon="9.4705279"><ele>120.0</ele><time>2026-03-29T09:34:03.34Z</time></trkpt><trkpt lat="45.5134274" lon="9.4707749"><ele>120.0</ele><time>2026-03-29T09:34:04.342Z</time></trkpt><trkpt lat="45.5134283" lon="9.4710277"><ele>120.0</ele><time>2026-03-29T09:34:05.364Z</time></trkpt><trkpt lat="45.5134235" lon="9.471269"><ele>120.0</ele><time>2026-03-29T09:34:06.344Z</time></trkpt><trkpt lat="45.5134155" lon="9.4715165"><ele>120.0</ele><time>2026-03-29T09:34:07.356Z</time></trkpt><trkpt lat="45.5134067" lon="9.4717485"><ele>120.0</ele><time>2026-03-29T09:34:08.338Z</time></trkpt><trkpt lat="45.5134037" lon="9.4719706"><ele>120.0</ele><time>2026-03-29T09:34:09.33Z</time></trkpt><trkpt lat="45.5133999" lon="9.4721802"><ele>120.0</ele><time>2026-03-29T09:34:10.339Z</time></trkpt><trkpt lat="45.5133974" lon="9.4723841"><ele>120.0</ele><time>2026-03-29T09:34:11.329Z</time></trkpt><trkpt lat="45.5133882" lon="9.4725823"><ele>120.0</ele><time>2026-03-29T09:34:12.349Z</time></trkpt><trkpt lat="45.513379" lon="9.4727791"><ele>120.0</ele><time>2026-03-29T09:34:13.332Z</time></trkpt><trkpt lat="45.5133681" lon="9.4729793"><ele>120.0</ele><time>2026-03-29T09:34:14.353Z</time></trkpt><trkpt lat="45.5133594" lon="9.4731641"><ele>120.0</ele><time>2026-03-29T09:34:15.355Z</time></trkpt><trkpt lat="45.5133519" lon="9.4733217"><ele>119.83333333333333</ele><time>2026-03-29T09:34:16.333Z</time></trkpt><trkpt lat="45.5133419" lon="9.4734545"><ele>119.66666666666666</ele><time>2026-03-29T09:34:17.335Z</time></trkpt><trkpt lat="45.5133313" lon="9.4735644"><ele>119.5</ele><time>2026-03-29T09:34:18.336Z</time></trkpt><trkpt lat="45.5133027" lon="9.4736494"><ele>119.33333333333333</ele><time>2026-03-29T09:34:19.34Z</time></trkpt><trkpt lat="45.5132085" lon="9.4737699"><ele>119.16666666666666</ele><time>2026-03-29T09:34:21.335Z</time></trkpt><trkpt lat="45.5131319" lon="9.4738091"><ele>119.0</ele><time>2026-03-29T09:34:22.332Z</time></trkpt><trkpt lat="45.5130396" lon="9.4738252"><ele>119.5</ele><time>2026-03-29T09:34:23.364Z</time></trkpt><trkpt lat="45.5129372" lon="9.4738199"><ele>120.0</ele><time>2026-03-29T09:34:24.336Z</time></trkpt><trkpt lat="45.5128158" lon="9.4738125"><ele>120.5</ele><time>2026-03-29T09:34:25.342Z</time></trkpt><trkpt lat="45.5126811" lon="9.4738127"><ele>121.0</ele><time>2026-03-29T09:34:26.341Z</time></trkpt><trkpt lat="45.5125317" lon="9.4738264"><ele>121.33333333333334</ele><time>2026-03-29T09:34:27.347Z</time></trkpt><trkpt lat="45.5123779" lon="9.4738623"><ele>121.66666666666666</ele><time>2026-03-29T09:34:28.34Z</time></trkpt><trkpt lat="45.5122151" lon="9.4739128"><ele>122.0</ele><time>2026-03-29T09:34:29.348Z</time></trkpt><trkpt lat="45.5120516" lon="9.4739685"><ele>121.0</ele><time>2026-03-29T09:34:30.34Z</time></trkpt><trkpt lat="45.5118859" lon="9.4740306"><ele>120.0</ele><time>2026-03-29T09:34:31.346Z</time></trkpt><trkpt lat="45.5117194" lon="9.4740946"><ele>119.0</ele><time>2026-03-29T09:34:32.342Z</time></trkpt><trkpt lat="45.511558" lon="9.474154"><ele>119.0</ele><time>2026-03-29T09:34:33.342Z</time></trkpt><trkpt lat="45.5114094" lon="9.4742143"><ele>119.0</ele><time>2026-03-29T09:34:34.344Z</time></trkpt><trkpt lat="45.5112704" lon="9.4742674"><ele>119.0</ele><time>2026-03-29T09:34:35.341Z</time></trkpt><trkpt lat="45.5111366" lon="9.4743155"><ele>119.0</ele><time>2026-03-29T09:34:36.346Z</time></trkpt><trkpt lat="45.5110048" lon="9.4743628"><ele>119.25</ele><time>2026-03-29T09:34:37.334Z</time></trkpt><trkpt lat="45.5108757" lon="9.4744129"><ele>119.5</ele><time>2026-03-29T09:34:38.338Z</time></trkpt><trkpt lat="45.5107471" lon="9.4744666"><ele>119.75</ele><time>2026-03-29T09:34:39.353Z</time></trkpt><trkpt lat="45.5106233" lon="9.4745126"><ele>120.0</ele><time>2026-03-29T09:34:40.335Z</time></trkpt><trkpt lat="45.5104968" lon="9.4745576"><ele>119.8</ele><time>2026-03-29T09:34:41.34Z</time></trkpt><trkpt lat="45.510381" lon="9.4745987"><ele>119.6</ele><time>2026-03-29T09:34:42.359Z</time></trkpt><trkpt lat="45.5102817" lon="9.4746345"><ele>119.4</ele><time>2026-03-29T09:34:43.328Z</time></trkpt><trkpt lat="45.5101877" lon="9.474676"><ele>119.2</ele><time>2026-03-29T09:34:44.346Z</time></trkpt><trkpt lat="45.5101042" lon="9.4747294"><ele>119.0</ele><time>2026-03-29T09:34:45.335Z</time></trkpt><trkpt lat="45.5100293" lon="9.4748018"><ele>118.80000000000001</ele><time>2026-03-29T09:34:46.353Z</time></trkpt><trkpt lat="45.5099594" lon="9.4748956"><ele>118.60000000000001</ele><time>2026-03-29T09:34:47.334Z</time></trkpt><trkpt lat="45.509893" lon="9.4750164"><ele>118.4</ele><time>2026-03-29T09:34:48.347Z</time></trkpt><trkpt lat="45.5098354" lon="9.4751498"><ele>118.2</ele><time>2026-03-29T09:34:49.342Z</time></trkpt><trkpt lat="45.5097943" lon="9.4752955"><ele>118.0</ele><time>2026-03-29T09:34:50.342Z</time></trkpt><trkpt lat="45.5097686" lon="9.4754493"><ele>118.00000000000001</ele><time>2026-03-29T09:34:51.35Z</time></trkpt><trkpt lat="45.5097512" lon="9.4755968"><ele>118.0</ele><time>2026-03-29T09:34:52.329Z</time></trkpt><trkpt lat="45.5097347" lon="9.4757403"><ele>118.0</ele><time>2026-03-29T09:34:53.348Z</time></trkpt><trkpt lat="45.5097126" lon="9.4758603"><ele>118.0</ele><time>2026-03-29T09:34:54.344Z</time></trkpt><trkpt lat="45.5096748" lon="9.4759618"><ele>118.00000000000001</ele><time>2026-03-29T09:34:55.345Z</time></trkpt><trkpt lat="45.5096282" lon="9.4760359"><ele>118.0</ele><time>2026-03-29T09:34:56.356Z</time></trkpt><trkpt lat="45.5095803" lon="9.4761072"><ele>118.0</ele><time>2026-03-29T09:34:57.33Z</time></trkpt><trkpt lat="45.5095438" lon="9.4761834"><ele>118.00000000000001</ele><time>2026-03-29T09:34:58.34Z</time></trkpt><trkpt lat="45.509545" lon="9.4763767"><ele>118.00000000000001</ele><time>2026-03-29T09:35:00.339Z</time></trkpt><trkpt lat="45.509566" lon="9.4764863"><ele>118.0</ele><time>2026-03-29T09:35:01.348Z</time></trkpt><trkpt lat="45.5095847" lon="9.4766052"><ele>118.0</ele><time>2026-03-29T09:35:02.34Z</time></trkpt><trkpt lat="45.5095881" lon="9.4767374"><ele>118.0</ele><time>2026-03-29T09:35:03.343Z</time></trkpt><trkpt lat="45.5095732" lon="9.4768728"><ele>118.00000000000001</ele><time>2026-03-29T09:35:04.363Z</time></trkpt><trkpt lat="45.5095471" lon="9.4770142"><ele>118.00000000000001</ele><time>2026-03-29T09:35:05.347Z</time></trkpt><trkpt lat="45.5095233" lon="9.4771799"><ele>118.0</ele><time>2026-03-29T09:35:06.362Z</time></trkpt><trkpt lat="45.5095096" lon="9.4773595"><ele>118.0</ele><time>2026-03-29T09:35:07.357Z</time></trkpt><trkpt lat="45.5095093" lon="9.4775558"><ele>118.33333333333334</ele><time>2026-03-29T09:35:08.345Z</time></trkpt><trkpt lat="45.5095226" lon="9.4777641"><ele>118.66666666666666</ele><time>2026-03-29T09:35:09.344Z</time></trkpt><trkpt lat="45.5095455" lon="9.4779863"><ele>119.0</ele><time>2026-03-29T09:35:10.365Z</time></trkpt><trkpt lat="45.509568" lon="9.4782098"><ele>119.0</ele><time>2026-03-29T09:35:11.33Z</time></trkpt><trkpt lat="45.5095915" lon="9.4784543"><ele>119.0</ele><time>2026-03-29T09:35:12.347Z</time></trkpt><trkpt lat="45.5096156" lon="9.4787147"><ele>119.0</ele><time>2026-03-29T09:35:13.371Z</time></trkpt><trkpt lat="45.5096423" lon="9.4789713"><ele>119.0</ele><time>2026-03-29T09:35:14.353Z</time></trkpt><trkpt lat="45.5096705" lon="9.4792359"><ele>119.0</ele><time>2026-03-29T09:35:15.345Z</time></trkpt><trkpt lat="45.5096992" lon="9.4795109"><ele>119.0</ele><time>2026-03-29T09:35:16.345Z</time></trkpt><trkpt lat="45.5097246" lon="9.4797923"><ele>119.0</ele><time>2026-03-29T09:35:17.343Z</time></trkpt><trkpt lat="45.5097502" lon="9.4800815"><ele>119.0</ele><time>2026-03-29T09:35:18.345Z</time></trkpt><trkpt lat="45.5097751" lon="9.4803783"><ele>119.0</ele><time>2026-03-29T09:35:19.353Z</time></trkpt><trkpt lat="45.5098019" lon="9.4806788"><ele>118.66666666666666</ele><time>2026-03-29T09:35:20.353Z</time></trkpt><trkpt lat="45.5098317" lon="9.4809678"><ele>118.33333333333334</ele><time>2026-03-29T09:35:21.328Z</time></trkpt><trkpt lat="45.5098638" lon="9.4812767"><ele>118.0</ele><time>2026-03-29T09:35:22.343Z</time></trkpt><trkpt lat="45.5098924" lon="9.4815753"><ele>117.66666666666667</ele><time>2026-03-29T09:35:23.34Z</time></trkpt><trkpt lat="45.5099217" lon="9.4818754"><ele>117.33333333333334</ele><time>2026-03-29T09:35:24.347Z</time></trkpt><trkpt lat="45.5099504" lon="9.4821741"><ele>117.0</ele><time>2026-03-29T09:35:25.334Z</time></trkpt><trkpt lat="45.5099801" lon="9.482483"><ele>117.33333333333334</ele><time>2026-03-29T09:35:26.347Z</time></trkpt><trkpt lat="45.5100062" lon="9.4827816"><ele>117.66666666666667</ele><time>2026-03-29T09:35:27.369Z</time></trkpt><trkpt lat="45.5100351" lon="9.483072"><ele>118.0</ele><time>2026-03-29T09:35:28.332Z</time></trkpt><trkpt lat="45.5100668" lon="9.4833743"><ele>118.0</ele><time>2026-03-29T09:35:29.346Z</time></trkpt><trkpt lat="45.5100958" lon="9.4836516"><ele>118.0</ele><time>2026-03-29T09:35:30.335Z</time></trkpt><trkpt lat="45.5101245" lon="9.4839256"><ele>118.0</ele><time>2026-03-29T09:35:31.34Z</time></trkpt><trkpt lat="45.5101553" lon="9.484179"><ele>118.33333333333334</ele><time>2026-03-29T09:35:32.34Z</time></trkpt><trkpt lat="45.510189" lon="9.4844199"><ele>118.66666666666666</ele><time>2026-03-29T09:35:33.34Z</time></trkpt><trkpt lat="45.510231" lon="9.4846468"><ele>119.0</ele><time>2026-03-29T09:35:34.35Z</time></trkpt><trkpt lat="45.5102834" lon="9.4848522"><ele>119.25</ele><time>2026-03-29T09:35:35.337Z</time></trkpt><trkpt lat="45.5103394" lon="9.4850397"><ele>119.5</ele><time>2026-03-29T09:35:36.362Z</time></trkpt><trkpt lat="45.5103929" lon="9.4851959"><ele>119.75</ele><time>2026-03-29T09:35:37.338Z</time></trkpt><trkpt lat="45.5104383" lon="9.4853348"><ele>120.0</ele><time>2026-03-29T09:35:38.346Z</time></trkpt><trkpt lat="45.5104721" lon="9.4854509"><ele>120.2</ele><time>2026-03-29T09:35:39.339Z</time></trkpt><trkpt lat="45.5104982" lon="9.4855476"><ele>120.4</ele><time>2026-03-29T09:35:40.34Z</time></trkpt><trkpt lat="45.5105152" lon="9.4856343"><ele>120.6</ele><time>2026-03-29T09:35:41.348Z</time></trkpt><trkpt lat="45.510565" lon="9.485792"><ele>120.8</ele><time>2026-03-29T09:35:43.349Z</time></trkpt><trkpt lat="45.5106905" lon="9.4858596"><ele>121.0</ele><time>2026-03-29T09:35:45.361Z</time></trkpt><trkpt lat="45.5107857" lon="9.4858951"><ele>121.0</ele><time>2026-03-29T09:35:46.354Z</time></trkpt><trkpt lat="45.5108853" lon="9.4859589"><ele>121.0</ele><time>2026-03-29T09:35:47.347Z</time></trkpt><trkpt lat="45.5109894" lon="9.4860604"><ele>121.0</ele><time>2026-03-29T09:35:48.348Z</time></trkpt><trkpt lat="45.5110959" lon="9.4861895"><ele>121.0</ele><time>2026-03-29T09:35:49.346Z</time></trkpt><trkpt lat="45.5112064" lon="9.4863297"><ele>120.66666666666667</ele><time>2026-03-29T09:35:50.359Z</time></trkpt><trkpt lat="45.5113226" lon="9.4864711"><ele>120.33333333333334</ele><time>2026-03-29T09:35:51.353Z</time></trkpt><trkpt lat="45.5114448" lon="9.4866205"><ele>120.0</ele><time>2026-03-29T09:35:52.34Z</time></trkpt><trkpt lat="45.5115756" lon="9.4867758"><ele>120.0</ele><time>2026-03-29T09:35:53.347Z</time></trkpt><trkpt lat="45.5117094" lon="9.4869356"><ele>120.0</ele><time>2026-03-29T09:35:54.329Z</time></trkpt><trkpt lat="45.5118469" lon="9.4870997"><ele>120.0</ele><time>2026-03-29T09:35:55.342Z</time></trkpt><trkpt lat="45.5119834" lon="9.4872615"><ele>120.66666666666666</ele><time>2026-03-29T09:35:56.345Z</time></trkpt><trkpt lat="45.5121207" lon="9.4874222"><ele>121.33333333333333</ele><time>2026-03-29T09:35:57.341Z</time></trkpt><trkpt lat="45.5122577" lon="9.4875826"><ele>122.0</ele><time>2026-03-29T09:35:58.347Z</time></trkpt><trkpt lat="45.5123819" lon="9.4877313"><ele>122.0</ele><time>2026-03-29T09:35:59.347Z</time></trkpt><trkpt lat="45.5125025" lon="9.4878728"><ele>122.0</ele><time>2026-03-29T09:36:00.368Z</time></trkpt><trkpt lat="45.512602" lon="9.4880113"><ele>122.0</ele><time>2026-03-29T09:36:01.329Z</time></trkpt><trkpt lat="45.5126911" lon="9.4881724"><ele>122.0</ele><time>2026-03-29T09:36:02.335Z</time></trkpt><trkpt lat="45.5127539" lon="9.4883453"><ele>121.75</ele><time>2026-03-29T09:36:03.339Z</time></trkpt><trkpt lat="45.5127961" lon="9.4885396"><ele>121.5</ele><time>2026-03-29T09:36:04.349Z</time></trkpt><trkpt lat="45.5128156" lon="9.4887476"><ele>121.25</ele><time>2026-03-29T09:36:05.341Z</time></trkpt><trkpt lat="45.5128193" lon="9.4889613"><ele>121.0</ele><time>2026-03-29T09:36:06.327Z</time></trkpt><trkpt lat="45.5128053" lon="9.4891834"><ele>121.0</ele><time>2026-03-29T09:36:07.335Z</time></trkpt><trkpt lat="45.5127877" lon="9.4894093"><ele>121.0</ele><time>2026-03-29T09:36:08.337Z</time></trkpt><trkpt lat="45.5127678" lon="9.4896583"><ele>121.0</ele><time>2026-03-29T09:36:09.372Z</time></trkpt><trkpt lat="45.5127496" lon="9.4899029"><ele>121.33333333333334</ele><time>2026-03-29T09:36:10.339Z</time></trkpt><trkpt lat="45.5127309" lon="9.4901718"><ele>121.66666666666666</ele><time>2026-03-29T09:36:11.34Z</time></trkpt><trkpt lat="45.5127098" lon="9.4904481"><ele>122.0</ele><time>2026-03-29T09:36:12.356Z</time></trkpt><trkpt lat="45.5126934" lon="9.4907288"><ele>122.0</ele><time>2026-03-29T09:36:13.333Z</time></trkpt><trkpt lat="45.5126746" lon="9.491027"><ele>122.0</ele><time>2026-03-29T09:36:14.36Z</time></trkpt><trkpt lat="45.5126541" lon="9.4913145"><ele>122.0</ele><time>2026-03-29T09:36:15.334Z</time></trkpt><trkpt lat="45.5126335" lon="9.4916107"><ele>121.66666666666666</ele><time>2026-03-29T09:36:16.335Z</time></trkpt><trkpt lat="45.5126181" lon="9.4919163"><ele>121.33333333333334</ele><time>2026-03-29T09:36:17.352Z</time></trkpt><trkpt lat="45.512603" lon="9.4922191"><ele>121.0</ele><time>2026-03-29T09:36:18.34Z</time></trkpt><trkpt lat="45.5125855" lon="9.4925339"><ele>121.0</ele><time>2026-03-29T09:36:19.347Z</time></trkpt><trkpt lat="45.5125665" lon="9.4928442"><ele>121.0</ele><time>2026-03-29T09:36:20.343Z</time></trkpt><trkpt lat="45.5125485" lon="9.4931674"><ele>121.0</ele><time>2026-03-29T09:36:21.363Z</time></trkpt><trkpt lat="45.5125318" lon="9.4934725"><ele>121.33333333333334</ele><time>2026-03-29T09:36:22.33Z</time></trkpt><trkpt lat="45.5125121" lon="9.4937941"><ele>121.66666666666666</ele><time>2026-03-29T09:36:23.353Z</time></trkpt><trkpt lat="45.5124909" lon="9.4941096"><ele>122.0</ele><time>2026-03-29T09:36:24.349Z</time></trkpt><trkpt lat="45.5124701" lon="9.4944245"><ele>122.33333333333333</ele><time>2026-03-29T09:36:25.342Z</time></trkpt><trkpt lat="45.5124509" lon="9.4947439"><ele>122.66666666666666</ele><time>2026-03-29T09:36:26.35Z</time></trkpt><trkpt lat="45.5124336" lon="9.495052"><ele>123.0</ele><time>2026-03-29T09:36:27.347Z</time></trkpt><trkpt lat="45.512412" lon="9.4953468"><ele>122.66666666666666</ele><time>2026-03-29T09:36:28.336Z</time></trkpt><trkpt lat="45.5123922" lon="9.4956334"><ele>122.33333333333333</ele><time>2026-03-29T09:36:29.328Z</time></trkpt><trkpt lat="45.5123719" lon="9.4959351"><ele>122.0</ele><time>2026-03-29T09:36:30.369Z</time></trkpt><trkpt lat="45.5123552" lon="9.4962141"><ele>121.33333333333333</ele><time>2026-03-29T09:36:31.339Z</time></trkpt><trkpt lat="45.5123383" lon="9.4965014"><ele>120.66666666666666</ele><time>2026-03-29T09:36:32.335Z</time></trkpt><trkpt lat="45.5123197" lon="9.4967899"><ele>120.0</ele><time>2026-03-29T09:36:33.333Z</time></trkpt><trkpt lat="45.512301" lon="9.4970852"><ele>120.0</ele><time>2026-03-29T09:36:34.361Z</time></trkpt><trkpt lat="45.5122849" lon="9.4973652"><ele>120.0</ele><time>2026-03-29T09:36:35.342Z</time></trkpt><trkpt lat="45.5122675" lon="9.497651"><ele>120.0</ele><time>2026-03-29T09:36:36.354Z</time></trkpt><trkpt lat="45.51225" lon="9.4979291"><ele>120.33333333333334</ele><time>2026-03-29T09:36:37.34Z</time></trkpt><trkpt lat="45.5122344" lon="9.4982158"><ele>120.66666666666667</ele><time>2026-03-29T09:36:38.353Z</time></trkpt><trkpt lat="45.5122167" lon="9.4984954"><ele>121.0</ele><time>2026-03-29T09:36:39.343Z</time></trkpt><trkpt lat="45.5122025" lon="9.4987755"><ele>121.33333333333334</ele><time>2026-03-29T09:36:40.352Z</time></trkpt><trkpt lat="45.5121828" lon="9.4990559"><ele>121.66666666666666</ele><time>2026-03-29T09:36:41.36Z</time></trkpt><trkpt lat="45.5121624" lon="9.4993355"><ele>122.0</ele><time>2026-03-29T09:36:42.359Z</time></trkpt><trkpt lat="45.5121432" lon="9.4996131"><ele>121.33333333333333</ele><time>2026-03-29T09:36:43.349Z</time></trkpt><trkpt lat="45.5121236" lon="9.4998903"><ele>120.66666666666666</ele><time>2026-03-29T09:36:44.344Z</time></trkpt><trkpt lat="45.5121044" lon="9.5001649"><ele>120.0</ele><time>2026-03-29T09:36:45.343Z</time></trkpt><trkpt lat="45.5120867" lon="9.5004418"><ele>120.0</ele><time>2026-03-29T09:36:46.343Z</time></trkpt><trkpt lat="45.5120675" lon="9.5007209"><ele>120.0</ele><time>2026-03-29T09:36:47.356Z</time></trkpt><trkpt lat="45.5120459" lon="9.5009915"><ele>120.0</ele><time>2026-03-29T09:36:48.334Z</time></trkpt><trkpt lat="45.5120229" lon="9.5012688"><ele>120.0</ele><time>2026-03-29T09:36:49.353Z</time></trkpt><trkpt lat="45.5120121" lon="9.5015323"><ele>120.0</ele><time>2026-03-29T09:36:50.334Z</time></trkpt><trkpt lat="45.5120016" lon="9.5018063"><ele>120.0</ele><time>2026-03-29T09:36:51.335Z</time></trkpt><trkpt lat="45.5119897" lon="9.5020884"><ele>120.0</ele><time>2026-03-29T09:36:52.35Z</time></trkpt><trkpt lat="45.5119756" lon="9.5023668"><ele>120.0</ele><time>2026-03-29T09:36:53.35Z</time></trkpt><trkpt lat="45.5119597" lon="9.5026352"><ele>120.0</ele><time>2026-03-29T09:36:54.348Z</time></trkpt><trkpt lat="45.5119421" lon="9.5028916"><ele>121.33333333333334</ele><time>2026-03-29T09:36:55.349Z</time></trkpt><trkpt lat="45.5119266" lon="9.5031307"><ele>122.66666666666667</ele><time>2026-03-29T09:36:56.35Z</time></trkpt><trkpt lat="45.5119126" lon="9.5033512"><ele>124.0</ele><time>2026-03-29T09:36:57.358Z</time></trkpt><trkpt lat="45.5118998" lon="9.503566"><ele>124.66666666666667</ele><time>2026-03-29T09:36:58.345Z</time></trkpt><trkpt lat="45.5118851" lon="9.5037859"><ele>125.33333333333334</ele><time>2026-03-29T09:36:59.35Z</time></trkpt><trkpt lat="45.5118729" lon="9.5039999"><ele>126.0</ele><time>2026-03-29T09:37:00.335Z</time></trkpt><trkpt lat="45.5118599" lon="9.5042172"><ele>126.0</ele><time>2026-03-29T09:37:01.344Z</time></trkpt><trkpt lat="45.5118472" lon="9.5044207"><ele>126.0</ele><time>2026-03-29T09:37:02.344Z</time></trkpt><trkpt lat="45.51183" lon="9.5046126"><ele>126.0</ele><time>2026-03-29T09:37:03.354Z</time></trkpt><trkpt lat="45.5118144" lon="9.5047747"><ele>126.0</ele><time>2026-03-29T09:37:04.354Z</time></trkpt><trkpt lat="45.5118022" lon="9.50491"><ele>125.71428571428572</ele><time>2026-03-29T09:37:05.341Z</time></trkpt><trkpt lat="45.5117873" lon="9.5050196"><ele>125.42857142857143</ele><time>2026-03-29T09:37:06.34Z</time></trkpt><trkpt lat="45.5117645" lon="9.505121"><ele>125.14285714285714</ele><time>2026-03-29T09:37:07.339Z</time></trkpt><trkpt lat="45.5117269" lon="9.5052134"><ele>124.85714285714286</ele><time>2026-03-29T09:37:08.349Z</time></trkpt><trkpt lat="45.5116752" lon="9.5052849"><ele>124.57142857142858</ele><time>2026-03-29T09:37:09.337Z</time></trkpt><trkpt lat="45.5116257" lon="9.5053451"><ele>124.28571428571429</ele><time>2026-03-29T09:37:10.339Z</time></trkpt><trkpt lat="45.5115727" lon="9.5054375"><ele>124.0</ele><time>2026-03-29T09:37:12.341Z</time></trkpt><trkpt lat="45.5115676" lon="9.5055524"><ele>123.75</ele><time>2026-03-29T09:37:26.34Z</time></trkpt><trkpt lat="45.5116287" lon="9.5056931"><ele>123.5</ele><time>2026-03-29T09:37:28.343Z</time></trkpt><trkpt lat="45.5116953" lon="9.5057937"><ele>123.25</ele><time>2026-03-29T09:37:29.337Z</time></trkpt><trkpt lat="45.5117801" lon="9.5059104"><ele>123.0</ele><time>2026-03-29T09:37:30.342Z</time></trkpt><trkpt lat="45.5118706" lon="9.5060348"><ele>123.0</ele><time>2026-03-29T09:37:31.333Z</time></trkpt><trkpt lat="45.5119731" lon="9.5061761"><ele>123.0</ele><time>2026-03-29T09:37:32.35Z</time></trkpt><trkpt lat="45.5120795" lon="9.5063257"><ele>123.0</ele><time>2026-03-29T09:37:33.372Z</time></trkpt><trkpt lat="45.5121849" lon="9.5064716"><ele>123.0</ele><time>2026-03-29T09:37:34.344Z</time></trkpt><trkpt lat="45.5122964" lon="9.5066222"><ele>122.75</ele><time>2026-03-29T09:37:35.337Z</time></trkpt><trkpt lat="45.5124092" lon="9.5067753"><ele>122.5</ele><time>2026-03-29T09:37:36.342Z</time></trkpt><trkpt lat="45.5125127" lon="9.5069174"><ele>122.25</ele><time>2026-03-29T09:37:37.337Z</time></trkpt><trkpt lat="45.5126145" lon="9.5070508"><ele>122.0</ele><time>2026-03-29T09:37:38.337Z</time></trkpt><trkpt lat="45.5127097" lon="9.5071756"><ele>122.0</ele><time>2026-03-29T09:37:39.354Z</time></trkpt><trkpt lat="45.512795" lon="9.507288"><ele>121.99999999999999</ele><time>2026-03-29T09:37:40.338Z</time></trkpt><trkpt lat="45.512877" lon="9.5073969"><ele>121.99999999999999</ele><time>2026-03-29T09:37:41.354Z</time></trkpt><trkpt lat="45.5129501" lon="9.507492"><ele>122.0</ele><time>2026-03-29T09:37:42.33Z</time></trkpt><trkpt lat="45.5130209" lon="9.5075825"><ele>122.0</ele><time>2026-03-29T09:37:43.345Z</time></trkpt><trkpt lat="45.5130856" lon="9.5076677"><ele>121.99999999999999</ele><time>2026-03-29T09:37:44.336Z</time></trkpt><trkpt lat="45.5131449" lon="9.5077471"><ele>122.0</ele><time>2026-03-29T09:37:45.348Z</time></trkpt><trkpt lat="45.5131933" lon="9.5078137"><ele>122.0</ele><time>2026-03-29T09:37:46.336Z</time></trkpt><trkpt lat="45.5132377" lon="9.5078774"><ele>122.0</ele><time>2026-03-29T09:37:47.337Z</time></trkpt><trkpt lat="45.5133078" lon="9.5080175"><ele>121.99999999999999</ele><time>2026-03-29T09:37:49.342Z</time></trkpt><trkpt lat="45.5133397" lon="9.5081048"><ele>122.0</ele><time>2026-03-29T09:37:50.359Z</time></trkpt><trkpt lat="45.513375" lon="9.5081887"><ele>122.28571428571428</ele><time>2026-03-29T09:37:51.347Z</time></trkpt><trkpt lat="45.5134247" lon="9.5082572"><ele>122.57142857142857</ele><time>2026-03-29T09:37:52.338Z</time></trkpt><trkpt lat="45.5134856" lon="9.5083077"><ele>122.85714285714286</ele><time>2026-03-29T09:37:53.352Z</time></trkpt><trkpt lat="45.5135515" lon="9.5083386"><ele>123.14285714285714</ele><time>2026-03-29T09:37:54.354Z</time></trkpt><trkpt lat="45.5136204" lon="9.5083819"><ele>123.42857142857144</ele><time>2026-03-29T09:37:55.366Z</time></trkpt><trkpt lat="45.5136801" lon="9.5084464"><ele>123.71428571428572</ele><time>2026-03-29T09:37:56.343Z</time></trkpt><trkpt lat="45.5137484" lon="9.5085263"><ele>124.0</ele><time>2026-03-29T09:37:57.348Z</time></trkpt><trkpt lat="45.5138265" lon="9.5086054"><ele>124.0</ele><time>2026-03-29T09:37:58.345Z</time></trkpt><trkpt lat="45.5139148" lon="9.5086852"><ele>124.0</ele><time>2026-03-29T09:37:59.346Z</time></trkpt><trkpt lat="45.5140153" lon="9.5087613"><ele>124.0</ele><time>2026-03-29T09:38:00.342Z</time></trkpt><trkpt lat="45.5141336" lon="9.5088358"><ele>124.0</ele><time>2026-03-29T09:38:01.361Z</time></trkpt><trkpt lat="45.5142514" lon="9.5089032"><ele>124.0</ele><time>2026-03-29T09:38:02.351Z</time></trkpt><trkpt lat="45.5143707" lon="9.5089663"><ele>124.0</ele><time>2026-03-29T09:38:03.341Z</time></trkpt><trkpt lat="45.51449" lon="9.5090264"><ele>124.0</ele><time>2026-03-29T09:38:04.344Z</time></trkpt><trkpt lat="45.5146102" lon="9.5090799"><ele>124.0</ele><time>2026-03-29T09:38:05.344Z</time></trkpt><trkpt lat="45.5147298" lon="9.5091325"><ele>123.5</ele><time>2026-03-29T09:38:06.328Z</time></trkpt><trkpt lat="45.514858" lon="9.5091835"><ele>123.0</ele><time>2026-03-29T09:38:07.359Z</time></trkpt><trkpt lat="45.5149798" lon="9.509235"><ele>122.5</ele><time>2026-03-29T09:38:08.342Z</time></trkpt><trkpt lat="45.5151014" lon="9.5092815"><ele>122.0</ele><time>2026-03-29T09:38:09.346Z</time></trkpt><trkpt lat="45.5152234" lon="9.50933"><ele>122.0</ele><time>2026-03-29T09:38:10.35Z</time></trkpt><trkpt lat="45.5153415" lon="9.5093762"><ele>122.0</ele><time>2026-03-29T09:38:11.343Z</time></trkpt><trkpt lat="45.5154615" lon="9.5094265"><ele>122.0</ele><time>2026-03-29T09:38:12.339Z</time></trkpt><trkpt lat="45.5155764" lon="9.5094859"><ele>122.0</ele><time>2026-03-29T09:38:13.333Z</time></trkpt><trkpt lat="45.5156941" lon="9.5095495"><ele>122.5</ele><time>2026-03-29T09:38:14.344Z</time></trkpt><trkpt lat="45.515808" lon="9.5096116"><ele>123.0</ele><time>2026-03-29T09:38:15.347Z</time></trkpt><trkpt lat="45.5159212" lon="9.5096564"><ele>123.5</ele><time>2026-03-29T09:38:16.338Z</time></trkpt><trkpt lat="45.5160366" lon="9.5097038"><ele>124.0</ele><time>2026-03-29T09:38:17.346Z</time></trkpt><trkpt lat="45.5161491" lon="9.5097483"><ele>124.0</ele><time>2026-03-29T09:38:18.351Z</time></trkpt><trkpt lat="45.5162575" lon="9.5097912"><ele>124.0</ele><time>2026-03-29T09:38:19.354Z</time></trkpt><trkpt lat="45.5163559" lon="9.5098367"><ele>124.0</ele><time>2026-03-29T09:38:20.344Z</time></trkpt><trkpt lat="45.5164474" lon="9.5098796"><ele>124.0</ele><time>2026-03-29T09:38:21.344Z</time></trkpt><trkpt lat="45.5165295" lon="9.509924"><ele>124.0</ele><time>2026-03-29T09:38:22.344Z</time></trkpt><trkpt lat="45.5166062" lon="9.5099669"><ele>124.00000000000001</ele><time>2026-03-29T09:38:23.351Z</time></trkpt><trkpt lat="45.5166853" lon="9.5100085"><ele>124.0</ele><time>2026-03-29T09:38:24.345Z</time></trkpt><trkpt lat="45.5167507" lon="9.5100444"><ele>124.0</ele><time>2026-03-29T09:38:25.351Z</time></trkpt><trkpt lat="45.5168215" lon="9.5100868"><ele>124.0</ele><time>2026-03-29T09:38:27.344Z</time></trkpt><trkpt lat="45.5168814" lon="9.5101411"><ele>124.00000000000001</ele><time>2026-03-29T09:38:30.344Z</time></trkpt><trkpt lat="45.5169817" lon="9.5102521"><ele>124.0</ele><time>2026-03-29T09:38:32.348Z</time></trkpt><trkpt lat="45.5170495" lon="9.5103347"><ele>124.6</ele><time>2026-03-29T09:38:33.354Z</time></trkpt><trkpt lat="45.5171233" lon="9.5104267"><ele>125.2</ele><time>2026-03-29T09:38:34.345Z</time></trkpt><trkpt lat="45.5172105" lon="9.5105243"><ele>125.79999999999998</ele><time>2026-03-29T09:38:35.348Z</time></trkpt><trkpt lat="45.5172983" lon="9.5106247"><ele>126.39999999999999</ele><time>2026-03-29T09:38:36.352Z</time></trkpt><trkpt lat="45.5173948" lon="9.5107304"><ele>127.0</ele><time>2026-03-29T09:38:37.339Z</time></trkpt><trkpt lat="45.5174961" lon="9.5108443"><ele>127.0</ele><time>2026-03-29T09:38:38.355Z</time></trkpt><trkpt lat="45.5175967" lon="9.5109594"><ele>127.0</ele><time>2026-03-29T09:38:39.341Z</time></trkpt><trkpt lat="45.5176977" lon="9.5110783"><ele>127.0</ele><time>2026-03-29T09:38:40.371Z</time></trkpt><trkpt lat="45.517798" lon="9.5111909"><ele>127.0</ele><time>2026-03-29T09:38:41.353Z</time></trkpt><trkpt lat="45.5178954" lon="9.5113015"><ele>127.19999999999999</ele><time>2026-03-29T09:38:42.343Z</time></trkpt><trkpt lat="45.5179914" lon="9.5114059"><ele>127.39999999999999</ele><time>2026-03-29T09:38:43.356Z</time></trkpt><trkpt lat="45.5180772" lon="9.511505"><ele>127.60000000000001</ele><time>2026-03-29T09:38:44.341Z</time></trkpt><trkpt lat="45.5181609" lon="9.5116025"><ele>127.80000000000001</ele><time>2026-03-29T09:38:45.345Z</time></trkpt><trkpt lat="45.5182457" lon="9.5116928"><ele>128.0</ele><time>2026-03-29T09:38:46.35Z</time></trkpt><trkpt lat="45.5183299" lon="9.511772"><ele>128.0</ele><time>2026-03-29T09:38:47.351Z</time></trkpt><trkpt lat="45.5184279" lon="9.5118326"><ele>128.0</ele><time>2026-03-29T09:38:48.345Z</time></trkpt><trkpt lat="45.5185322" lon="9.5118843"><ele>128.0</ele><time>2026-03-29T09:38:49.351Z</time></trkpt><trkpt lat="45.5186461" lon="9.5119307"><ele>128.0</ele><time>2026-03-29T09:38:50.344Z</time></trkpt><trkpt lat="45.5187624" lon="9.5119777"><ele>127.75</ele><time>2026-03-29T09:38:51.362Z</time></trkpt><trkpt lat="45.5188802" lon="9.5120253"><ele>127.5</ele><time>2026-03-29T09:38:52.349Z</time></trkpt><trkpt lat="45.5190049" lon="9.5120697"><ele>127.25</ele><time>2026-03-29T09:38:53.343Z</time></trkpt><trkpt lat="45.5191315" lon="9.5121149"><ele>127.0</ele><time>2026-03-29T09:38:54.342Z</time></trkpt><trkpt lat="45.5192477" lon="9.5121607"><ele>127.5</ele><time>2026-03-29T09:38:55.333Z</time></trkpt><trkpt lat="45.519374" lon="9.5122092"><ele>128.0</ele><time>2026-03-29T09:38:56.341Z</time></trkpt><trkpt lat="45.5194945" lon="9.5122557"><ele>128.5</ele><time>2026-03-29T09:38:57.334Z</time></trkpt><trkpt lat="45.5196179" lon="9.5123127"><ele>129.0</ele><time>2026-03-29T09:38:58.33Z</time></trkpt><trkpt lat="45.5197432" lon="9.5123715"><ele>129.0</ele><time>2026-03-29T09:38:59.341Z</time></trkpt><trkpt lat="45.5198581" lon="9.5124324"><ele>129.0</ele><time>2026-03-29T09:39:00.334Z</time></trkpt><trkpt lat="45.519966" lon="9.5124921"><ele>129.0</ele><time>2026-03-29T09:39:01.352Z</time></trkpt><trkpt lat="45.5200656" lon="9.5125442"><ele>129.0</ele><time>2026-03-29T09:39:02.347Z</time></trkpt><trkpt lat="45.5201604" lon="9.5125924"><ele>129.0</ele><time>2026-03-29T09:39:03.342Z</time></trkpt><trkpt lat="45.5202541" lon="9.5126292"><ele>129.0</ele><time>2026-03-29T09:39:04.341Z</time></trkpt><trkpt lat="45.5203413" lon="9.5126676"><ele>129.0</ele><time>2026-03-29T09:39:05.339Z</time></trkpt><trkpt lat="45.5204261" lon="9.5127075"><ele>129.0</ele><time>2026-03-29T09:39:06.337Z</time></trkpt><trkpt lat="45.5205082" lon="9.5127519"><ele>129.0</ele><time>2026-03-29T09:39:07.36Z</time></trkpt><trkpt lat="45.5205825" lon="9.5128019"><ele>129.0</ele><time>2026-03-29T09:39:08.35Z</time></trkpt><trkpt lat="45.5206609" lon="9.512873"><ele>129.0</ele><time>2026-03-29T09:39:09.368Z</time></trkpt><trkpt lat="45.5207319" lon="9.5129469"><ele>129.2</ele><time>2026-03-29T09:39:10.352Z</time></trkpt><trkpt lat="45.5208065" lon="9.5130265"><ele>129.4</ele><time>2026-03-29T09:39:11.35Z</time></trkpt><trkpt lat="45.520883" lon="9.5131143"><ele>129.6</ele><time>2026-03-29T09:39:12.341Z</time></trkpt><trkpt lat="45.5209644" lon="9.5132121"><ele>129.8</ele><time>2026-03-29T09:39:13.342Z</time></trkpt><trkpt lat="45.5210525" lon="9.5133258"><ele>130.0</ele><time>2026-03-29T09:39:14.358Z</time></trkpt><trkpt lat="45.5211358" lon="9.5134516"><ele>130.0</ele><time>2026-03-29T09:39:15.352Z</time></trkpt><trkpt lat="45.5212207" lon="9.5135927"><ele>130.0</ele><time>2026-03-29T09:39:16.385Z</time></trkpt><trkpt lat="45.5213023" lon="9.5137213"><ele>130.0</ele><time>2026-03-29T09:39:17.347Z</time></trkpt><trkpt lat="45.5213872" lon="9.5138548"><ele>130.0</ele><time>2026-03-29T09:39:18.345Z</time></trkpt><trkpt lat="45.5214714" lon="9.5139747"><ele>130.2</ele><time>2026-03-29T09:39:19.346Z</time></trkpt><trkpt lat="45.5215568" lon="9.5140934"><ele>130.4</ele><time>2026-03-29T09:39:20.353Z</time></trkpt><trkpt lat="45.5216348" lon="9.5141977"><ele>130.6</ele><time>2026-03-29T09:39:21.358Z</time></trkpt><trkpt lat="45.5217076" lon="9.5142984"><ele>130.8</ele><time>2026-03-29T09:39:22.354Z</time></trkpt><trkpt lat="45.5217816" lon="9.5143933"><ele>131.0</ele><time>2026-03-29T09:39:23.332Z</time></trkpt><trkpt lat="45.5218631" lon="9.5144823"><ele>131.0</ele><time>2026-03-29T09:39:24.34Z</time></trkpt><trkpt lat="45.5219521" lon="9.514569"><ele>131.0</ele><time>2026-03-29T09:39:25.341Z</time></trkpt><trkpt lat="45.5220506" lon="9.5146591"><ele>131.0</ele><time>2026-03-29T09:39:26.345Z</time></trkpt><trkpt lat="45.5221507" lon="9.5147461"><ele>131.0</ele><time>2026-03-29T09:39:27.349Z</time></trkpt><trkpt lat="45.5222566" lon="9.5148261"><ele>131.5</ele><time>2026-03-29T09:39:28.362Z</time></trkpt><trkpt lat="45.5223649" lon="9.5148905"><ele>132.0</ele><time>2026-03-29T09:39:29.333Z</time></trkpt><trkpt lat="45.5224787" lon="9.5149576"><ele>132.5</ele><time>2026-03-29T09:39:30.35Z</time></trkpt><trkpt lat="45.5225868" lon="9.5150208"><ele>133.0</ele><time>2026-03-29T09:39:31.343Z</time></trkpt><trkpt lat="45.5226971" lon="9.5150805"><ele>133.0</ele><time>2026-03-29T09:39:32.343Z</time></trkpt><trkpt lat="45.5228139" lon="9.515134"><ele>133.0</ele><time>2026-03-29T09:39:33.351Z</time></trkpt><trkpt lat="45.5229319" lon="9.5151855"><ele>133.0</ele><time>2026-03-29T09:39:34.336Z</time></trkpt><trkpt lat="45.5230523" lon="9.5152393"><ele>133.0</ele><time>2026-03-29T09:39:35.344Z</time></trkpt><trkpt lat="45.5231723" lon="9.5152912"><ele>133.0</ele><time>2026-03-29T09:39:36.341Z</time></trkpt><trkpt lat="45.5232926" lon="9.5153428"><ele>133.0</ele><time>2026-03-29T09:39:37.357Z</time></trkpt><trkpt lat="45.5234079" lon="9.5153913"><ele>133.0</ele><time>2026-03-29T09:39:38.335Z</time></trkpt><trkpt lat="45.5235241" lon="9.5154436"><ele>133.0</ele><time>2026-03-29T09:39:39.342Z</time></trkpt><trkpt lat="45.5236364" lon="9.5154978"><ele>133.25</ele><time>2026-03-29T09:39:40.35Z</time></trkpt><trkpt lat="45.5237453" lon="9.5155493"><ele>133.5</ele><time>2026-03-29T09:39:41.355Z</time></trkpt><trkpt lat="45.5238566" lon="9.5156021"><ele>133.75</ele><time>2026-03-29T09:39:42.346Z</time></trkpt><trkpt lat="45.5239679" lon="9.5156533"><ele>134.0</ele><time>2026-03-29T09:39:43.35Z</time></trkpt><trkpt lat="45.5240777" lon="9.5157093"><ele>134.0</ele><time>2026-03-29T09:39:44.35Z</time></trkpt><trkpt lat="45.5241841" lon="9.515762"><ele>134.0</ele><time>2026-03-29T09:39:45.337Z</time></trkpt><trkpt lat="45.5242957" lon="9.5158129"><ele>134.0</ele><time>2026-03-29T09:39:46.338Z</time></trkpt><trkpt lat="45.5244098" lon="9.5158648"><ele>134.0</ele><time>2026-03-29T09:39:47.348Z</time></trkpt><trkpt lat="45.5245246" lon="9.5159211"><ele>134.0</ele><time>2026-03-29T09:39:48.348Z</time></trkpt><trkpt lat="45.5246408" lon="9.5159821"><ele>134.0</ele><time>2026-03-29T09:39:49.352Z</time></trkpt><trkpt lat="45.5247475" lon="9.5160346"><ele>134.0</ele><time>2026-03-29T09:39:50.34Z</time></trkpt><trkpt lat="45.5248487" lon="9.5160859"><ele>134.0</ele><time>2026-03-29T09:39:51.338Z</time></trkpt><trkpt lat="45.5249433" lon="9.5161308"><ele>134.0</ele><time>2026-03-29T09:39:52.341Z</time></trkpt><trkpt lat="45.5250331" lon="9.5161718"><ele>134.0</ele><time>2026-03-29T09:39:53.338Z</time></trkpt><trkpt lat="45.525113" lon="9.5162084"><ele>134.0</ele><time>2026-03-29T09:39:54.341Z</time></trkpt><trkpt lat="45.5251881" lon="9.5162417"><ele>134.0</ele><time>2026-03-29T09:39:55.367Z</time></trkpt><trkpt lat="45.5252514" lon="9.516276"><ele>134.0</ele><time>2026-03-29T09:39:56.338Z</time></trkpt><trkpt lat="45.5253116" lon="9.5163094"><ele>134.0</ele><time>2026-03-29T09:39:57.337Z</time></trkpt><trkpt lat="45.5254162" lon="9.5163695"><ele>134.0</ele><time>2026-03-29T09:39:59.356Z</time></trkpt><trkpt lat="45.5254892" lon="9.5164079"><ele>134.16666666666666</ele><time>2026-03-29T09:40:01.345Z</time></trkpt><trkpt lat="45.5255541" lon="9.5164416"><ele>134.33333333333331</ele><time>2026-03-29T09:40:03.357Z</time></trkpt><trkpt lat="45.5256342" lon="9.5164898"><ele>134.5</ele><time>2026-03-29T09:40:06.347Z</time></trkpt><trkpt lat="45.5257029" lon="9.5165327"><ele>134.66666666666666</ele><time>2026-03-29T09:40:09.346Z</time></trkpt><trkpt lat="45.5257795" lon="9.5165772"><ele>134.83333333333334</ele><time>2026-03-29T09:40:27.339Z</time></trkpt><trkpt lat="45.5258748" lon="9.5166463"><ele>135.0</ele><time>2026-03-29T09:40:29.333Z</time></trkpt><trkpt lat="45.5259695" lon="9.5166893"><ele>135.0</ele><time>2026-03-29T09:40:31.342Z</time></trkpt><trkpt lat="45.5260497" lon="9.5167621"><ele>135.0</ele><time>2026-03-29T09:40:33.344Z</time></trkpt><trkpt lat="45.5260744" lon="9.5168825"><ele>135.0</ele><time>2026-03-29T09:40:35.345Z</time></trkpt><trkpt lat="45.52608" lon="9.516981"><ele>135.0</ele><time>2026-03-29T09:40:36.368Z</time></trkpt><trkpt lat="45.5260737" lon="9.5170963"><ele>135.0</ele><time>2026-03-29T09:40:37.345Z</time></trkpt><trkpt lat="45.5260646" lon="9.5172231"><ele>135.0</ele><time>2026-03-29T09:40:38.348Z</time></trkpt><trkpt lat="45.5260475" lon="9.5173664"><ele>135.0</ele><time>2026-03-29T09:40:39.363Z</time></trkpt><trkpt lat="45.5260128" lon="9.517492"><ele>135.0</ele><time>2026-03-29T09:40:40.346Z</time></trkpt><trkpt lat="45.5259777" lon="9.5176321"><ele>135.0</ele><time>2026-03-29T09:40:41.344Z</time></trkpt><trkpt lat="45.5259384" lon="9.5177814"><ele>135.0</ele><time>2026-03-29T09:40:42.357Z</time></trkpt><trkpt lat="45.5258985" lon="9.5179307"><ele>135.0</ele><time>2026-03-29T09:40:43.342Z</time></trkpt><trkpt lat="45.525852" lon="9.5180912"><ele>135.0</ele><time>2026-03-29T09:40:44.368Z</time></trkpt><trkpt lat="45.5258062" lon="9.5182478"><ele>135.0</ele><time>2026-03-29T09:40:45.353Z</time></trkpt><trkpt lat="45.5257667" lon="9.518415"><ele>135.0</ele><time>2026-03-29T09:40:46.363Z</time></trkpt><trkpt lat="45.5257254" lon="9.5185783"><ele>135.0</ele><time>2026-03-29T09:40:47.36Z</time></trkpt><trkpt lat="45.5256876" lon="9.5187299"><ele>134.8</ele><time>2026-03-29T09:40:48.354Z</time></trkpt><trkpt lat="45.5256536" lon="9.5188799"><ele>134.6</ele><time>2026-03-29T09:40:49.36Z</time></trkpt><trkpt lat="45.5256243" lon="9.5190199"><ele>134.4</ele><time>2026-03-29T09:40:50.365Z</time></trkpt><trkpt lat="45.5256008" lon="9.519143"><ele>134.2</ele><time>2026-03-29T09:40:51.35Z</time></trkpt><trkpt lat="45.5255772" lon="9.5192588"><ele>134.0</ele><time>2026-03-29T09:40:52.374Z</time></trkpt><trkpt lat="45.525555" lon="9.5193629"><ele>134.0</ele><time>2026-03-29T09:40:53.343Z</time></trkpt><trkpt lat="45.5255311" lon="9.5194717"><ele>134.0</ele><time>2026-03-29T09:40:54.351Z</time></trkpt><trkpt lat="45.5255108" lon="9.5195842"><ele>134.0</ele><time>2026-03-29T09:40:55.347Z</time></trkpt><trkpt lat="45.5254911" lon="9.5196967"><ele>134.0</ele><time>2026-03-29T09:40:56.344Z</time></trkpt><trkpt lat="45.5254708" lon="9.5198074"><ele>134.0</ele><time>2026-03-29T09:40:57.349Z</time></trkpt><trkpt lat="45.5254513" lon="9.5199168"><ele>134.0</ele><time>2026-03-29T09:40:58.36Z</time></trkpt><trkpt lat="45.5254315" lon="9.5200199"><ele>134.16666666666666</ele><time>2026-03-29T09:40:59.337Z</time></trkpt><trkpt lat="45.5254102" lon="9.5201211"><ele>134.33333333333331</ele><time>2026-03-29T09:41:00.346Z</time></trkpt><trkpt lat="45.5253882" lon="9.5202233"><ele>134.5</ele><time>2026-03-29T09:41:01.344Z</time></trkpt><trkpt lat="45.5253642" lon="9.5203296"><ele>134.66666666666666</ele><time>2026-03-29T09:41:02.349Z</time></trkpt><trkpt lat="45.5253442" lon="9.5204383"><ele>134.83333333333334</ele><time>2026-03-29T09:41:03.354Z</time></trkpt><trkpt lat="45.5253284" lon="9.5205455"><ele>135.0</ele><time>2026-03-29T09:41:04.348Z</time></trkpt><trkpt lat="45.5253088" lon="9.5206516"><ele>135.0</ele><time>2026-03-29T09:41:05.356Z</time></trkpt><trkpt lat="45.525284" lon="9.5207594"><ele>135.0</ele><time>2026-03-29T09:41:06.342Z</time></trkpt><trkpt lat="45.5252646" lon="9.5208712"><ele>135.0</ele><time>2026-03-29T09:41:07.371Z</time></trkpt><trkpt lat="45.5252478" lon="9.5209683"><ele>135.0</ele><time>2026-03-29T09:41:08.349Z</time></trkpt><trkpt lat="45.5252311" lon="9.5210624"><ele>135.0</ele><time>2026-03-29T09:41:09.34Z</time></trkpt><trkpt lat="45.525209" lon="9.5211542"><ele>135.0</ele><time>2026-03-29T09:41:10.356Z</time></trkpt><trkpt lat="45.5251667" lon="9.5213161"><ele>135.0</ele><time>2026-03-29T09:41:12.355Z</time></trkpt><trkpt lat="45.5251303" lon="9.5214842"><ele>135.0</ele><time>2026-03-29T09:41:14.388Z</time></trkpt><trkpt lat="45.5250979" lon="9.5216548"><ele>135.0</ele><time>2026-03-29T09:41:16.357Z</time></trkpt><trkpt lat="45.5250624" lon="9.5218145"><ele>135.0</ele><time>2026-03-29T09:41:18.356Z</time></trkpt><trkpt lat="45.5250374" lon="9.5219641"><ele>134.0</ele><time>2026-03-29T09:41:20.342Z</time></trkpt><trkpt lat="45.5250003" lon="9.5221001"><ele>133.0</ele><time>2026-03-29T09:41:22.347Z</time></trkpt><trkpt lat="45.5249369" lon="9.5222521"><ele>132.0</ele><time>2026-03-29T09:41:24.352Z</time></trkpt><trkpt lat="45.5248904" lon="9.52233"><ele>131.0</ele><time>2026-03-29T09:41:25.358Z</time></trkpt><trkpt lat="45.5248346" lon="9.5224013"><ele>130.0</ele><time>2026-03-29T09:41:26.356Z</time></trkpt><trkpt lat="45.5247702" lon="9.5224664"><ele>130.0</ele><time>2026-03-29T09:41:27.362Z</time></trkpt><trkpt lat="45.5246972" lon="9.5225305"><ele>130.0</ele><time>2026-03-29T09:41:28.341Z</time></trkpt><trkpt lat="45.5246152" lon="9.5226023"><ele>130.0</ele><time>2026-03-29T09:41:29.338Z</time></trkpt><trkpt lat="45.5245281" lon="9.5226843"><ele>130.0</ele><time>2026-03-29T09:41:30.351Z</time></trkpt><trkpt lat="45.5244415" lon="9.5227747"><ele>130.0</ele><time>2026-03-29T09:41:31.368Z</time></trkpt><trkpt lat="45.5243522" lon="9.5228662"><ele>127.25</ele><time>2026-03-29T09:41:32.349Z</time></trkpt><trkpt lat="45.5242515" lon="9.5229619"><ele>124.5</ele><time>2026-03-29T09:41:33.347Z</time></trkpt><trkpt lat="45.5241508" lon="9.5230618"><ele>121.75</ele><time>2026-03-29T09:41:34.352Z</time></trkpt><trkpt lat="45.524057" lon="9.5231572"><ele>119.0</ele><time>2026-03-29T09:41:35.341Z</time></trkpt><trkpt lat="45.5239569" lon="9.5232527"><ele>119.0</ele><time>2026-03-29T09:41:36.349Z</time></trkpt><trkpt lat="45.5238475" lon="9.5233461"><ele>119.0</ele><time>2026-03-29T09:41:37.364Z</time></trkpt><trkpt lat="45.5237379" lon="9.5234396"><ele>119.0</ele><time>2026-03-29T09:41:38.34Z</time></trkpt><trkpt lat="45.5236156" lon="9.5235355"><ele>119.0</ele><time>2026-03-29T09:41:39.364Z</time></trkpt><trkpt lat="45.5234918" lon="9.5236305"><ele>119.0</ele><time>2026-03-29T09:41:40.347Z</time></trkpt><trkpt lat="45.5233596" lon="9.5237283"><ele>119.0</ele><time>2026-03-29T09:41:41.357Z</time></trkpt><trkpt lat="45.5232326" lon="9.52382"><ele>119.0</ele><time>2026-03-29T09:41:42.352Z</time></trkpt><trkpt lat="45.5231046" lon="9.5239223"><ele>119.0</ele><time>2026-03-29T09:41:43.35Z</time></trkpt><trkpt lat="45.522974" lon="9.5240266"><ele>118.5</ele><time>2026-03-29T09:41:44.39Z</time></trkpt><trkpt lat="45.5228642" lon="9.5241282"><ele>118.0</ele><time>2026-03-29T09:41:45.352Z</time></trkpt><trkpt lat="45.5227651" lon="9.5242437"><ele>117.5</ele><time>2026-03-29T09:41:46.345Z</time></trkpt><trkpt lat="45.5226793" lon="9.5243736"><ele>117.0</ele><time>2026-03-29T09:41:47.35Z</time></trkpt><trkpt lat="45.5226076" lon="9.524521"><ele>115.75</ele><time>2026-03-29T09:41:48.346Z</time></trkpt><trkpt lat="45.5225441" lon="9.5246704"><ele>114.5</ele><time>2026-03-29T09:41:49.354Z</time></trkpt><trkpt lat="45.5224821" lon="9.5248248"><ele>113.25</ele><time>2026-03-29T09:41:50.346Z</time></trkpt><trkpt lat="45.5224218" lon="9.524971"><ele>112.0</ele><time>2026-03-29T09:41:51.345Z</time></trkpt><trkpt lat="45.5223639" lon="9.5251088"><ele>112.0</ele><time>2026-03-29T09:41:52.353Z</time></trkpt><trkpt lat="45.5223117" lon="9.5252387"><ele>111.99999999999999</ele><time>2026-03-29T09:41:53.353Z</time></trkpt><trkpt lat="45.5222628" lon="9.5253582"><ele>111.99999999999999</ele><time>2026-03-29T09:41:54.36Z</time></trkpt><trkpt lat="45.5222229" lon="9.5254615"><ele>112.0</ele><time>2026-03-29T09:41:55.351Z</time></trkpt><trkpt lat="45.5221865" lon="9.5255463"><ele>112.0</ele><time>2026-03-29T09:41:56.343Z</time></trkpt><trkpt lat="45.5221206" lon="9.5256706"><ele>112.8</ele><time>2026-03-29T09:41:58.342Z</time></trkpt><trkpt lat="45.5220523" lon="9.5257541"><ele>113.6</ele><time>2026-03-29T09:42:00.34Z</time></trkpt><trkpt lat="45.5219386" lon="9.5258237"><ele>114.39999999999999</ele><time>2026-03-29T09:42:02.343Z</time></trkpt><trkpt lat="45.5218553" lon="9.5258556"><ele>115.19999999999999</ele><time>2026-03-29T09:42:03.349Z</time></trkpt><trkpt lat="45.521761" lon="9.5258796"><ele>116.0</ele><time>2026-03-29T09:42:04.349Z</time></trkpt><trkpt lat="45.5216617" lon="9.5258817"><ele>115.99999999999999</ele><time>2026-03-29T09:42:05.349Z</time></trkpt><trkpt lat="45.5215616" lon="9.5258706"><ele>116.0</ele><time>2026-03-29T09:42:06.336Z</time></trkpt><trkpt lat="45.5214737" lon="9.5258527"><ele>116.0</ele><time>2026-03-29T09:42:07.37Z</time></trkpt><trkpt lat="45.5214077" lon="9.5258372"><ele>116.0</ele><time>2026-03-29T09:42:08.351Z</time></trkpt><trkpt lat="45.5213267" lon="9.5258196"><ele>115.99999999999999</ele><time>2026-03-29T09:42:10.363Z</time></trkpt><trkpt lat="45.5212391" lon="9.5258608"><ele>116.0</ele><time>2026-03-29T09:42:15.336Z</time></trkpt><trkpt lat="45.5212023" lon="9.5260143"><ele>115.66666666666666</ele><time>2026-03-29T09:42:17.35Z</time></trkpt><trkpt lat="45.521178" lon="9.5260995"><ele>115.33333333333333</ele><time>2026-03-29T09:42:18.337Z</time></trkpt><trkpt lat="45.5211346" lon="9.5261757"><ele>115.0</ele><time>2026-03-29T09:42:19.351Z</time></trkpt><trkpt lat="45.52107" lon="9.5262393"><ele>114.66666666666666</ele><time>2026-03-29T09:42:20.352Z</time></trkpt><trkpt lat="45.5209843" lon="9.5262919"><ele>114.33333333333333</ele><time>2026-03-29T09:42:21.355Z</time></trkpt><trkpt lat="45.5208925" lon="9.5263448"><ele>114.0</ele><time>2026-03-29T09:42:22.341Z</time></trkpt><trkpt lat="45.520789" lon="9.5264041"><ele>114.0</ele><time>2026-03-29T09:42:23.346Z</time></trkpt><trkpt lat="45.5206722" lon="9.5264595"><ele>114.0</ele><time>2026-03-29T09:42:24.372Z</time></trkpt><trkpt lat="45.520555" lon="9.5265"><ele>114.0</ele><time>2026-03-29T09:42:25.345Z</time></trkpt><trkpt lat="45.5204253" lon="9.5265231"><ele>114.0</ele><time>2026-03-29T09:42:26.377Z</time></trkpt><trkpt lat="45.5202979" lon="9.5265178"><ele>114.0</ele><time>2026-03-29T09:42:27.354Z</time></trkpt><trkpt lat="45.5201661" lon="9.5264912"><ele>114.0</ele><time>2026-03-29T09:42:28.342Z</time></trkpt><trkpt lat="45.5200218" lon="9.5264511"><ele>114.0</ele><time>2026-03-29T09:42:29.347Z</time></trkpt><trkpt lat="45.5198725" lon="9.5264125"><ele>114.0</ele><time>2026-03-29T09:42:30.344Z</time></trkpt><trkpt lat="45.5197272" lon="9.5263727"><ele>114.0</ele><time>2026-03-29T09:42:31.344Z</time></trkpt><trkpt lat="45.5195854" lon="9.5263399"><ele>114.0</ele><time>2026-03-29T09:42:32.351Z</time></trkpt><trkpt lat="45.5194657" lon="9.5263078"><ele>114.0</ele><time>2026-03-29T09:42:33.34Z</time></trkpt><trkpt lat="45.5193696" lon="9.5262838"><ele>114.0</ele><time>2026-03-29T09:42:34.344Z</time></trkpt><trkpt lat="45.5192932" lon="9.5262858"><ele>114.0</ele><time>2026-03-29T09:42:35.343Z</time></trkpt><trkpt lat="45.5192025" lon="9.5263695"><ele>114.0</ele><time>2026-03-29T09:42:37.355Z</time></trkpt><trkpt lat="45.5191553" lon="9.526443"><ele>114.0</ele><time>2026-03-29T09:42:38.355Z</time></trkpt><trkpt lat="45.5191009" lon="9.5265203"><ele>114.0</ele><time>2026-03-29T09:42:39.367Z</time></trkpt><trkpt lat="45.5190354" lon="9.5265985"><ele>114.0</ele><time>2026-03-29T09:42:40.358Z</time></trkpt><trkpt lat="45.5189604" lon="9.5266674"><ele>114.0</ele><time>2026-03-29T09:42:41.357Z</time></trkpt><trkpt lat="45.5188818" lon="9.52672"><ele>114.0</ele><time>2026-03-29T09:42:42.338Z</time></trkpt><trkpt lat="45.5188041" lon="9.5267492"><ele>114.0</ele><time>2026-03-29T09:42:43.338Z</time></trkpt><trkpt lat="45.5187297" lon="9.5267478"><ele>114.0</ele><time>2026-03-29T09:42:44.348Z</time></trkpt><trkpt lat="45.5186608" lon="9.5267258"><ele>114.0</ele><time>2026-03-29T09:42:45.349Z</time></trkpt><trkpt lat="45.5185984" lon="9.5266943"><ele>114.0</ele><time>2026-03-29T09:42:46.346Z</time></trkpt><trkpt lat="45.5184844" lon="9.5266706"><ele>114.0</ele><time>2026-03-29T09:42:48.348Z</time></trkpt><trkpt lat="45.5184193" lon="9.5267893"><ele>114.0</ele><time>2026-03-29T09:42:50.363Z</time></trkpt><trkpt lat="45.5184032" lon="9.5268902"><ele>114.0</ele><time>2026-03-29T09:42:51.345Z</time></trkpt><trkpt lat="45.5183875" lon="9.527002"><ele>114.0</ele><time>2026-03-29T09:42:52.35Z</time></trkpt><trkpt lat="45.5183773" lon="9.5271265"><ele>114.0</ele><time>2026-03-29T09:42:53.353Z</time></trkpt><trkpt lat="45.5183632" lon="9.5272598"><ele>114.0</ele><time>2026-03-29T09:42:54.356Z</time></trkpt><trkpt lat="45.5183478" lon="9.5274123"><ele>114.0</ele><time>2026-03-29T09:42:55.354Z</time></trkpt><trkpt lat="45.5183269" lon="9.5275958"><ele>114.0</ele><time>2026-03-29T09:42:56.357Z</time></trkpt><trkpt lat="45.5182982" lon="9.5277918"><ele>114.0</ele><time>2026-03-29T09:42:57.356Z</time></trkpt><trkpt lat="45.518267" lon="9.5279968"><ele>114.0</ele><time>2026-03-29T09:42:58.363Z</time></trkpt><trkpt lat="45.5182417" lon="9.5281972"><ele>114.0</ele><time>2026-03-29T09:42:59.36Z</time></trkpt><trkpt lat="45.5182126" lon="9.5283736"><ele>114.0</ele><time>2026-03-29T09:43:00.372Z</time></trkpt><trkpt lat="45.5181849" lon="9.5285082"><ele>114.0</ele><time>2026-03-29T09:43:01.345Z</time></trkpt><trkpt lat="45.5181592" lon="9.5286226"><ele>114.0</ele><time>2026-03-29T09:43:02.345Z</time></trkpt><trkpt lat="45.5181353" lon="9.5287305"><ele>114.0</ele><time>2026-03-29T09:43:03.346Z</time></trkpt><trkpt lat="45.5180951" lon="9.528867"><ele>114.0</ele><time>2026-03-29T09:43:04.358Z</time></trkpt><trkpt lat="45.5180505" lon="9.528948"><ele>114.0</ele><time>2026-03-29T09:43:05.359Z</time></trkpt><trkpt lat="45.5179788" lon="9.5290238"><ele>113.75</ele><time>2026-03-29T09:43:06.355Z</time></trkpt><trkpt lat="45.5178871" lon="9.5290833"><ele>113.5</ele><time>2026-03-29T09:43:07.354Z</time></trkpt><trkpt lat="45.5177785" lon="9.5291477"><ele>113.25</ele><time>2026-03-29T09:43:08.374Z</time></trkpt><trkpt lat="45.5176643" lon="9.5292153"><ele>113.0</ele><time>2026-03-29T09:43:09.344Z</time></trkpt><trkpt lat="45.5175314" lon="9.5293004"><ele>113.0</ele><time>2026-03-29T09:43:10.378Z</time></trkpt><trkpt lat="45.5173998" lon="9.5293884"><ele>113.0</ele><time>2026-03-29T09:43:11.379Z</time></trkpt><trkpt lat="45.517264" lon="9.5294782"><ele>113.0</ele><time>2026-03-29T09:43:12.365Z</time></trkpt><trkpt lat="45.5171258" lon="9.5295734"><ele>113.0</ele><time>2026-03-29T09:43:13.362Z</time></trkpt><trkpt lat="45.5169832" lon="9.5296739"><ele>114.0</ele><time>2026-03-29T09:43:14.358Z</time></trkpt><trkpt lat="45.5168399" lon="9.5297822"><ele>115.0</ele><time>2026-03-29T09:43:15.35Z</time></trkpt><trkpt lat="45.5166876" lon="9.5298897"><ele>116.0</ele><time>2026-03-29T09:43:16.348Z</time></trkpt><trkpt lat="45.5165371" lon="9.5299886"><ele>116.0</ele><time>2026-03-29T09:43:17.347Z</time></trkpt><trkpt lat="45.5163843" lon="9.5300858"><ele>116.0</ele><time>2026-03-29T09:43:18.352Z</time></trkpt><trkpt lat="45.5162115" lon="9.5301584"><ele>116.0</ele><time>2026-03-29T09:43:19.342Z</time></trkpt><trkpt lat="45.5160318" lon="9.5302183"><ele>115.33333333333333</ele><time>2026-03-29T09:43:20.369Z</time></trkpt><trkpt lat="45.5158589" lon="9.5302699"><ele>114.66666666666666</ele><time>2026-03-29T09:43:21.344Z</time></trkpt><trkpt lat="45.5156826" lon="9.5303247"><ele>114.0</ele><time>2026-03-29T09:43:22.352Z</time></trkpt><trkpt lat="45.5155073" lon="9.5303819"><ele>113.66666666666666</ele><time>2026-03-29T09:43:23.353Z</time></trkpt><trkpt lat="45.5153306" lon="9.5304405"><ele>113.33333333333333</ele><time>2026-03-29T09:43:24.348Z</time></trkpt><trkpt lat="45.5151527" lon="9.5304968"><ele>113.0</ele><time>2026-03-29T09:43:25.345Z</time></trkpt><trkpt lat="45.5149754" lon="9.5305531"><ele>113.0</ele><time>2026-03-29T09:43:26.342Z</time></trkpt><trkpt lat="45.5147962" lon="9.5306095"><ele>113.0</ele><time>2026-03-29T09:43:27.356Z</time></trkpt><trkpt lat="45.5146244" lon="9.5306638"><ele>113.0</ele><time>2026-03-29T09:43:28.342Z</time></trkpt><trkpt lat="45.514454" lon="9.5307178"><ele>113.5</ele><time>2026-03-29T09:43:29.378Z</time></trkpt><trkpt lat="45.5143023" lon="9.5307657"><ele>114.0</ele><time>2026-03-29T09:43:30.348Z</time></trkpt><trkpt lat="45.5141574" lon="9.5308133"><ele>114.5</ele><time>2026-03-29T09:43:31.363Z</time></trkpt><trkpt lat="45.5140242" lon="9.5308593"><ele>115.0</ele><time>2026-03-29T09:43:32.362Z</time></trkpt><trkpt lat="45.5139021" lon="9.5309135"><ele>115.0</ele><time>2026-03-29T09:43:33.354Z</time></trkpt><trkpt lat="45.5137838" lon="9.5309947"><ele>115.0</ele><time>2026-03-29T09:43:34.351Z</time></trkpt><trkpt lat="45.5136616" lon="9.5310899"><ele>115.0</ele><time>2026-03-29T09:43:35.36Z</time></trkpt><trkpt lat="45.5135364" lon="9.5311954"><ele>115.0</ele><time>2026-03-29T09:43:36.352Z</time></trkpt><trkpt lat="45.5134026" lon="9.5312978"><ele>114.33333333333334</ele><time>2026-03-29T09:43:37.36Z</time></trkpt><trkpt lat="45.5132631" lon="9.5313874"><ele>113.66666666666666</ele><time>2026-03-29T09:43:38.338Z</time></trkpt><trkpt lat="45.5131097" lon="9.5314744"><ele>113.0</ele><time>2026-03-29T09:43:39.345Z</time></trkpt><trkpt lat="45.5129496" lon="9.5315684"><ele>113.33333333333333</ele><time>2026-03-29T09:43:40.353Z</time></trkpt><trkpt lat="45.5127857" lon="9.5316502"><ele>113.66666666666666</ele><time>2026-03-29T09:43:41.367Z</time></trkpt><trkpt lat="45.5126313" lon="9.5317113"><ele>114.0</ele><time>2026-03-29T09:43:42.353Z</time></trkpt><trkpt lat="45.5124752" lon="9.5317651"><ele>114.0</ele><time>2026-03-29T09:43:43.361Z</time></trkpt><trkpt lat="45.5123173" lon="9.5318145"><ele>114.0</ele><time>2026-03-29T09:43:44.363Z</time></trkpt><trkpt lat="45.5121633" lon="9.5318618"><ele>114.0</ele><time>2026-03-29T09:43:45.353Z</time></trkpt><trkpt lat="45.5120063" lon="9.531908"><ele>113.66666666666666</ele><time>2026-03-29T09:43:46.391Z</time></trkpt><trkpt lat="45.5118553" lon="9.5319517"><ele>113.33333333333333</ele><time>2026-03-29T09:43:47.345Z</time></trkpt><trkpt lat="45.5117025" lon="9.5319886"><ele>113.0</ele><time>2026-03-29T09:43:48.351Z</time></trkpt><trkpt lat="45.5115449" lon="9.5320303"><ele>113.0</ele><time>2026-03-29T09:43:49.35Z</time></trkpt><trkpt lat="45.5113819" lon="9.5320747"><ele>113.0</ele><time>2026-03-29T09:43:50.388Z</time></trkpt><trkpt lat="45.5112177" lon="9.5321156"><ele>113.0</ele><time>2026-03-29T09:43:51.34Z</time></trkpt><trkpt lat="45.5110763" lon="9.5321391"><ele>113.5</ele><time>2026-03-29T09:43:52.341Z</time></trkpt><trkpt lat="45.5109359" lon="9.532142"><ele>114.0</ele><time>2026-03-29T09:43:53.345Z</time></trkpt><trkpt lat="45.5108055" lon="9.5321471"><ele>114.5</ele><time>2026-03-29T09:43:54.341Z</time></trkpt><trkpt lat="45.5106741" lon="9.5321437"><ele>115.0</ele><time>2026-03-29T09:43:55.363Z</time></trkpt><trkpt lat="45.5105482" lon="9.5321395"><ele>115.0</ele><time>2026-03-29T09:43:56.368Z</time></trkpt><trkpt lat="45.5104263" lon="9.5321448"><ele>115.0</ele><time>2026-03-29T09:43:57.358Z</time></trkpt><trkpt lat="45.5102755" lon="9.5321429"><ele>115.0</ele><time>2026-03-29T09:43:58.673Z</time></trkpt><trkpt lat="45.5100881" lon="9.5321682"><ele>114.66666666666667</ele><time>2026-03-29T09:44:00.421Z</time></trkpt><trkpt lat="45.5099891" lon="9.532182"><ele>114.33333333333334</ele><time>2026-03-29T09:44:01.415Z</time></trkpt><trkpt lat="45.5099044" lon="9.5322143"><ele>114.0</ele><time>2026-03-29T09:44:02.411Z</time></trkpt><trkpt lat="45.5098365" lon="9.5322702"><ele>113.66666666666666</ele><time>2026-03-29T09:44:03.407Z</time></trkpt><trkpt lat="45.5097816" lon="9.5323511"><ele>113.33333333333333</ele><time>2026-03-29T09:44:04.409Z</time></trkpt><trkpt lat="45.5097361" lon="9.5324445"><ele>113.0</ele><time>2026-03-29T09:44:05.404Z</time></trkpt><trkpt lat="45.5096736" lon="9.5325185"><ele>113.0</ele><time>2026-03-29T09:44:06.407Z</time></trkpt><trkpt lat="45.5095948" lon="9.5325487"><ele>113.00000000000001</ele><time>2026-03-29T09:44:07.409Z</time></trkpt><trkpt lat="45.5095051" lon="9.5325566"><ele>113.00000000000001</ele><time>2026-03-29T09:44:08.429Z</time></trkpt><trkpt lat="45.5094154" lon="9.5325616"><ele>113.0</ele><time>2026-03-29T09:44:09.402Z</time></trkpt><trkpt lat="45.5093156" lon="9.532568"><ele>113.0</ele><time>2026-03-29T09:44:10.414Z</time></trkpt><trkpt lat="45.5092227" lon="9.5325742"><ele>113.0</ele><time>2026-03-29T09:44:11.351Z</time></trkpt><trkpt lat="45.5091168" lon="9.5325857"><ele>113.00000000000001</ele><time>2026-03-29T09:44:12.349Z</time></trkpt><trkpt lat="45.5090274" lon="9.5325945"><ele>113.00000000000001</ele><time>2026-03-29T09:44:13.345Z</time></trkpt><trkpt lat="45.5089482" lon="9.5325957"><ele>113.0</ele><time>2026-03-29T09:44:14.364Z</time></trkpt><trkpt lat="45.5088287" lon="9.5325548"><ele>113.0</ele><time>2026-03-29T09:44:16.352Z</time></trkpt><trkpt lat="45.5087655" lon="9.5325474"><ele>112.80000000000001</ele><time>2026-03-29T09:44:17.358Z</time></trkpt><trkpt lat="45.508694" lon="9.5325731"><ele>112.60000000000001</ele><time>2026-03-29T09:44:18.348Z</time></trkpt><trkpt lat="45.5086068" lon="9.5326117"><ele>112.39999999999999</ele><time>2026-03-29T09:44:19.351Z</time></trkpt><trkpt lat="45.5085105" lon="9.5326271"><ele>112.19999999999999</ele><time>2026-03-29T09:44:20.342Z</time></trkpt><trkpt lat="45.5084011" lon="9.5326323"><ele>112.0</ele><time>2026-03-29T09:44:21.343Z</time></trkpt><trkpt lat="45.5082774" lon="9.5326406"><ele>112.0</ele><time>2026-03-29T09:44:22.352Z</time></trkpt><trkpt lat="45.5081458" lon="9.5326558"><ele>112.0</ele><time>2026-03-29T09:44:23.361Z</time></trkpt><trkpt lat="45.5080195" lon="9.5326722"><ele>112.0</ele><time>2026-03-29T09:44:24.366Z</time></trkpt><trkpt lat="45.5079002" lon="9.5326849"><ele>112.0</ele><time>2026-03-29T09:44:25.344Z</time></trkpt><trkpt lat="45.5077751" lon="9.5326972"><ele>112.5</ele><time>2026-03-29T09:44:26.357Z</time></trkpt><trkpt lat="45.5076543" lon="9.5327087"><ele>113.0</ele><time>2026-03-29T09:44:27.363Z</time></trkpt><trkpt lat="45.5075375" lon="9.5327206"><ele>113.5</ele><time>2026-03-29T09:44:28.352Z</time></trkpt><trkpt lat="45.5074226" lon="9.5327299"><ele>114.0</ele><time>2026-03-29T09:44:29.358Z</time></trkpt><trkpt lat="45.5073079" lon="9.5327432"><ele>114.0</ele><time>2026-03-29T09:44:30.349Z</time></trkpt><trkpt lat="45.5071926" lon="9.5327548"><ele>114.0</ele><time>2026-03-29T09:44:31.342Z</time></trkpt><trkpt lat="45.5070792" lon="9.5327674"><ele>114.0</ele><time>2026-03-29T09:44:32.361Z</time></trkpt><trkpt lat="45.5069692" lon="9.5327735"><ele>114.0</ele><time>2026-03-29T09:44:33.355Z</time></trkpt><trkpt lat="45.5068557" lon="9.5327737"><ele>114.0</ele><time>2026-03-29T09:44:34.36Z</time></trkpt><trkpt lat="45.506743" lon="9.5327779"><ele>114.0</ele><time>2026-03-29T09:44:35.344Z</time></trkpt><trkpt lat="45.5066274" lon="9.5327874"><ele>114.0</ele><time>2026-03-29T09:44:36.347Z</time></trkpt><trkpt lat="45.5065059" lon="9.5327963"><ele>114.0</ele><time>2026-03-29T09:44:37.353Z</time></trkpt><trkpt lat="45.5063883" lon="9.5328075"><ele>114.0</ele><time>2026-03-29T09:44:38.345Z</time></trkpt><trkpt lat="45.5062689" lon="9.5328153"><ele>114.0</ele><time>2026-03-29T09:44:39.357Z</time></trkpt><trkpt lat="45.5061544" lon="9.5328254"><ele>114.0</ele><time>2026-03-29T09:44:40.347Z</time></trkpt><trkpt lat="45.5060365" lon="9.5328343"><ele>114.0</ele><time>2026-03-29T09:44:41.35Z</time></trkpt><trkpt lat="45.5059072" lon="9.532843"><ele>113.5</ele><time>2026-03-29T09:44:42.372Z</time></trkpt><trkpt lat="45.5057854" lon="9.532849"><ele>113.0</ele><time>2026-03-29T09:44:43.348Z</time></trkpt><trkpt lat="45.5056614" lon="9.5328586"><ele>112.5</ele><time>2026-03-29T09:44:44.365Z</time></trkpt><trkpt lat="45.5055396" lon="9.5328671"><ele>112.0</ele><time>2026-03-29T09:44:45.35Z</time></trkpt><trkpt lat="45.5054125" lon="9.5328764"><ele>112.39999999999999</ele><time>2026-03-29T09:44:46.355Z</time></trkpt><trkpt lat="45.5052903" lon="9.5328837"><ele>112.79999999999998</ele><time>2026-03-29T09:44:47.359Z</time></trkpt><trkpt lat="45.5051813" lon="9.5328943"><ele>113.2</ele><time>2026-03-29T09:44:48.347Z</time></trkpt><trkpt lat="45.5050816" lon="9.5328952"><ele>113.6</ele><time>2026-03-29T09:44:49.357Z</time></trkpt><trkpt lat="45.5049884" lon="9.5328987"><ele>114.0</ele><time>2026-03-29T09:44:50.346Z</time></trkpt><trkpt lat="45.5049024" lon="9.5329033"><ele>114.0</ele><time>2026-03-29T09:44:51.36Z</time></trkpt><trkpt lat="45.5047893" lon="9.5328985"><ele>114.0</ele><time>2026-03-29T09:44:52.684Z</time></trkpt><trkpt lat="45.504628" lon="9.532933"><ele>114.0</ele><time>2026-03-29T09:44:54.412Z</time></trkpt><trkpt lat="45.504533" lon="9.5329419"><ele>114.0</ele><time>2026-03-29T09:44:55.395Z</time></trkpt><trkpt lat="45.5044413" lon="9.5329487"><ele>114.0</ele><time>2026-03-29T09:44:56.399Z</time></trkpt><trkpt lat="45.5043631" lon="9.5329541"><ele>114.0</ele><time>2026-03-29T09:44:57.403Z</time></trkpt><trkpt lat="45.5042962" lon="9.5329577"><ele>114.0</ele><time>2026-03-29T09:44:58.406Z</time></trkpt><trkpt lat="45.504191" lon="9.5329409"><ele>114.0</ele><time>2026-03-29T09:45:00.446Z</time></trkpt><trkpt lat="45.5041276" lon="9.5329177"><ele>114.0</ele><time>2026-03-29T09:45:05.419Z</time></trkpt><trkpt lat="45.5040511" lon="9.5329902"><ele>114.0</ele><time>2026-03-29T09:45:08.355Z</time></trkpt><trkpt lat="45.5039921" lon="9.5331688"><ele>114.0</ele><time>2026-03-29T09:45:10.355Z</time></trkpt><trkpt lat="45.5039571" lon="9.5332947"><ele>114.0</ele><time>2026-03-29T09:45:11.348Z</time></trkpt><trkpt lat="45.503921" lon="9.5334221"><ele>114.0</ele><time>2026-03-29T09:45:12.339Z</time></trkpt><trkpt lat="45.50388" lon="9.5335624"><ele>114.0</ele><time>2026-03-29T09:45:13.348Z</time></trkpt><trkpt lat="45.5038395" lon="9.5337186"><ele>114.0</ele><time>2026-03-29T09:45:14.366Z</time></trkpt><trkpt lat="45.5037965" lon="9.5338668"><ele>113.75</ele><time>2026-03-29T09:45:15.347Z</time></trkpt><trkpt lat="45.5037468" lon="9.5340296"><ele>113.5</ele><time>2026-03-29T09:45:16.348Z</time></trkpt><trkpt lat="45.5036916" lon="9.5342002"><ele>113.25</ele><time>2026-03-29T09:45:17.376Z</time></trkpt><trkpt lat="45.503638" lon="9.5343669"><ele>113.0</ele><time>2026-03-29T09:45:18.355Z</time></trkpt><trkpt lat="45.5035841" lon="9.5345305"><ele>112.80000000000001</ele><time>2026-03-29T09:45:19.363Z</time></trkpt><trkpt lat="45.5035374" lon="9.5346768"><ele>112.60000000000001</ele><time>2026-03-29T09:45:20.356Z</time></trkpt><trkpt lat="45.5035002" lon="9.5348113"><ele>112.39999999999999</ele><time>2026-03-29T09:45:21.355Z</time></trkpt><trkpt lat="45.5034654" lon="9.5349324"><ele>112.19999999999999</ele><time>2026-03-29T09:45:22.355Z</time></trkpt><trkpt lat="45.5034372" lon="9.5350455"><ele>112.0</ele><time>2026-03-29T09:45:23.357Z</time></trkpt><trkpt lat="45.5034074" lon="9.5351604"><ele>112.0</ele><time>2026-03-29T09:45:24.348Z</time></trkpt><trkpt lat="45.5033639" lon="9.5352854"><ele>111.99999999999999</ele><time>2026-03-29T09:45:25.352Z</time></trkpt><trkpt lat="45.503314" lon="9.5354182"><ele>111.99999999999999</ele><time>2026-03-29T09:45:26.35Z</time></trkpt><trkpt lat="45.50326" lon="9.535567"><ele>112.0</ele><time>2026-03-29T09:45:27.342Z</time></trkpt><trkpt lat="45.5032039" lon="9.5357293"><ele>112.0</ele><time>2026-03-29T09:45:28.356Z</time></trkpt><trkpt lat="45.5031407" lon="9.5359052"><ele>111.66666666666667</ele><time>2026-03-29T09:45:29.369Z</time></trkpt><trkpt lat="45.5030764" lon="9.5360935"><ele>111.33333333333334</ele><time>2026-03-29T09:45:30.345Z</time></trkpt><trkpt lat="45.5030075" lon="9.5362959"><ele>111.0</ele><time>2026-03-29T09:45:31.355Z</time></trkpt><trkpt lat="45.5029445" lon="9.5365008"><ele>110.75</ele><time>2026-03-29T09:45:32.365Z</time></trkpt><trkpt lat="45.5028855" lon="9.5366879"><ele>110.5</ele><time>2026-03-29T09:45:33.356Z</time></trkpt><trkpt lat="45.5028266" lon="9.5368648"><ele>110.25</ele><time>2026-03-29T09:45:34.391Z</time></trkpt><trkpt lat="45.5027763" lon="9.5370181"><ele>110.0</ele><time>2026-03-29T09:45:35.357Z</time></trkpt><trkpt lat="45.5027309" lon="9.5371662"><ele>110.0</ele><time>2026-03-29T09:45:36.352Z</time></trkpt><trkpt lat="45.5026848" lon="9.5373086"><ele>110.0</ele><time>2026-03-29T09:45:37.352Z</time></trkpt><trkpt lat="45.5026402" lon="9.5374512"><ele>110.0</ele><time>2026-03-29T09:45:38.344Z</time></trkpt><trkpt lat="45.5025948" lon="9.5375987"><ele>110.0</ele><time>2026-03-29T09:45:39.35Z</time></trkpt><trkpt lat="45.5025467" lon="9.5377503"><ele>110.0</ele><time>2026-03-29T09:45:40.352Z</time></trkpt><trkpt lat="45.5024951" lon="9.5379154"><ele>110.5</ele><time>2026-03-29T09:45:41.382Z</time></trkpt><trkpt lat="45.5024474" lon="9.5380733"><ele>111.0</ele><time>2026-03-29T09:45:42.355Z</time></trkpt><trkpt lat="45.5023961" lon="9.5382391"><ele>111.5</ele><time>2026-03-29T09:45:43.354Z</time></trkpt><trkpt lat="45.5023442" lon="9.5384051"><ele>112.0</ele><time>2026-03-29T09:45:44.37Z</time></trkpt><trkpt lat="45.5022928" lon="9.5385697"><ele>112.25</ele><time>2026-03-29T09:45:45.356Z</time></trkpt><trkpt lat="45.5022395" lon="9.5387392"><ele>112.5</ele><time>2026-03-29T09:45:46.364Z</time></trkpt><trkpt lat="45.5021854" lon="9.5389067"><ele>112.75</ele><time>2026-03-29T09:45:47.357Z</time></trkpt><trkpt lat="45.5021307" lon="9.5390789"><ele>113.0</ele><time>2026-03-29T09:45:48.358Z</time></trkpt><trkpt lat="45.5020768" lon="9.5392498"><ele>112.5</ele><time>2026-03-29T09:45:49.352Z</time></trkpt><trkpt lat="45.5020279" lon="9.5394325"><ele>112.0</ele><time>2026-03-29T09:45:50.374Z</time></trkpt><trkpt lat="45.5019808" lon="9.5396107"><ele>111.5</ele><time>2026-03-29T09:45:51.355Z</time></trkpt><trkpt lat="45.5019281" lon="9.5397987"><ele>111.0</ele><time>2026-03-29T09:45:52.37Z</time></trkpt><trkpt lat="45.5018729" lon="9.5399836"><ele>110.66666666666666</ele><time>2026-03-29T09:45:53.37Z</time></trkpt><trkpt lat="45.5018131" lon="9.5401842"><ele>110.33333333333333</ele><time>2026-03-29T09:45:54.372Z</time></trkpt><trkpt lat="45.5017531" lon="9.540389"><ele>110.0</ele><time>2026-03-29T09:45:55.359Z</time></trkpt><trkpt lat="45.5016886" lon="9.5405996"><ele>110.0</ele><time>2026-03-29T09:45:56.357Z</time></trkpt><trkpt lat="45.5016203" lon="9.5408207"><ele>110.0</ele><time>2026-03-29T09:45:57.36Z</time></trkpt><trkpt lat="45.5015525" lon="9.5410451"><ele>110.0</ele><time>2026-03-29T09:45:58.341Z</time></trkpt><trkpt lat="45.5014816" lon="9.5412841"><ele>110.0</ele><time>2026-03-29T09:45:59.354Z</time></trkpt><trkpt lat="45.501409" lon="9.5415249"><ele>110.0</ele><time>2026-03-29T09:46:00.351Z</time></trkpt><trkpt lat="45.5013332" lon="9.5417736"><ele>110.0</ele><time>2026-03-29T09:46:01.368Z</time></trkpt><trkpt lat="45.5012612" lon="9.5420137"><ele>110.33333333333333</ele><time>2026-03-29T09:46:02.339Z</time></trkpt><trkpt lat="45.5011894" lon="9.5422608"><ele>110.66666666666666</ele><time>2026-03-29T09:46:03.351Z</time></trkpt><trkpt lat="45.5011161" lon="9.5425057"><ele>111.0</ele><time>2026-03-29T09:46:04.357Z</time></trkpt><trkpt lat="45.501043" lon="9.5427456"><ele>110.33333333333334</ele><time>2026-03-29T09:46:05.353Z</time></trkpt><trkpt lat="45.5009705" lon="9.5429868"><ele>109.66666666666667</ele><time>2026-03-29T09:46:06.36Z</time></trkpt><trkpt lat="45.5008994" lon="9.5432214"><ele>109.0</ele><time>2026-03-29T09:46:07.353Z</time></trkpt><trkpt lat="45.5008278" lon="9.5434559"><ele>109.0</ele><time>2026-03-29T09:46:08.355Z</time></trkpt><trkpt lat="45.5007555" lon="9.543689"><ele>109.0</ele><time>2026-03-29T09:46:09.352Z</time></trkpt><trkpt lat="45.5006844" lon="9.5439227"><ele>109.0</ele><time>2026-03-29T09:46:10.365Z</time></trkpt><trkpt lat="45.5006147" lon="9.5441479"><ele>109.0</ele><time>2026-03-29T09:46:11.361Z</time></trkpt><trkpt lat="45.5005452" lon="9.5443689"><ele>109.0</ele><time>2026-03-29T09:46:12.349Z</time></trkpt><trkpt lat="45.5004728" lon="9.5446047"><ele>109.0</ele><time>2026-03-29T09:46:13.399Z</time></trkpt><trkpt lat="45.5004081" lon="9.5448207"><ele>109.33333333333334</ele><time>2026-03-29T09:46:14.356Z</time></trkpt><trkpt lat="45.5003374" lon="9.5450417"><ele>109.66666666666666</ele><time>2026-03-29T09:46:15.35Z</time></trkpt><trkpt lat="45.5002683" lon="9.5452633"><ele>110.0</ele><time>2026-03-29T09:46:16.352Z</time></trkpt><trkpt lat="45.5002" lon="9.5454865"><ele>110.33333333333333</ele><time>2026-03-29T09:46:17.355Z</time></trkpt><trkpt lat="45.500133" lon="9.5457021"><ele>110.66666666666666</ele><time>2026-03-29T09:46:18.351Z</time></trkpt><trkpt lat="45.5000647" lon="9.5459147"><ele>111.0</ele><time>2026-03-29T09:46:19.371Z</time></trkpt><trkpt lat="45.5000065" lon="9.5461114"><ele>111.66666666666666</ele><time>2026-03-29T09:46:20.353Z</time></trkpt><trkpt lat="45.4999426" lon="9.546318"><ele>112.33333333333333</ele><time>2026-03-29T09:46:21.369Z</time></trkpt><trkpt lat="45.4998782" lon="9.5465264"><ele>113.0</ele><time>2026-03-29T09:46:22.376Z</time></trkpt><trkpt lat="45.4998168" lon="9.5467313"><ele>113.0</ele><time>2026-03-29T09:46:23.346Z</time></trkpt><trkpt lat="45.4997519" lon="9.546946"><ele>113.0</ele><time>2026-03-29T09:46:24.363Z</time></trkpt><trkpt lat="45.499686" lon="9.5471598"><ele>113.0</ele><time>2026-03-29T09:46:25.364Z</time></trkpt><trkpt lat="45.4996243" lon="9.5473758"><ele>111.33333333333333</ele><time>2026-03-29T09:46:26.354Z</time></trkpt><trkpt lat="45.4995618" lon="9.5475955"><ele>109.66666666666666</ele><time>2026-03-29T09:46:27.348Z</time></trkpt><trkpt lat="45.4994962" lon="9.5478206"><ele>108.0</ele><time>2026-03-29T09:46:28.357Z</time></trkpt><trkpt lat="45.499424" lon="9.5480424"><ele>108.0</ele><time>2026-03-29T09:46:29.361Z</time></trkpt><trkpt lat="45.4993492" lon="9.5482723"><ele>108.0</ele><time>2026-03-29T09:46:30.378Z</time></trkpt><trkpt lat="45.4992793" lon="9.5484967"><ele>108.0</ele><time>2026-03-29T09:46:31.349Z</time></trkpt><trkpt lat="45.4992067" lon="9.5487314"><ele>107.66666666666666</ele><time>2026-03-29T09:46:32.364Z</time></trkpt><trkpt lat="45.4991352" lon="9.5489637"><ele>107.33333333333333</ele><time>2026-03-29T09:46:33.351Z</time></trkpt><trkpt lat="45.4990688" lon="9.5491937"><ele>107.0</ele><time>2026-03-29T09:46:34.346Z</time></trkpt><trkpt lat="45.4990011" lon="9.5494284"><ele>107.0</ele><time>2026-03-29T09:46:35.366Z</time></trkpt><trkpt lat="45.4989345" lon="9.5496562"><ele>107.0</ele><time>2026-03-29T09:46:36.359Z</time></trkpt><trkpt lat="45.4988659" lon="9.5498838"><ele>107.0</ele><time>2026-03-29T09:46:37.364Z</time></trkpt><trkpt lat="45.4987946" lon="9.5501083"><ele>107.0</ele><time>2026-03-29T09:46:38.36Z</time></trkpt><trkpt lat="45.4987207" lon="9.5503365"><ele>107.0</ele><time>2026-03-29T09:46:39.373Z</time></trkpt><trkpt lat="45.4986481" lon="9.5505622"><ele>107.0</ele><time>2026-03-29T09:46:40.377Z</time></trkpt><trkpt lat="45.498577" lon="9.5507824"><ele>107.0</ele><time>2026-03-29T09:46:41.356Z</time></trkpt><trkpt lat="45.4985076" lon="9.5510082"><ele>107.0</ele><time>2026-03-29T09:46:42.352Z</time></trkpt><trkpt lat="45.4984381" lon="9.5512316"><ele>107.0</ele><time>2026-03-29T09:46:43.345Z</time></trkpt><trkpt lat="45.4983673" lon="9.5514616"><ele>107.0</ele><time>2026-03-29T09:46:44.356Z</time></trkpt><trkpt lat="45.4982962" lon="9.5516911"><ele>107.0</ele><time>2026-03-29T09:46:45.37Z</time></trkpt><trkpt lat="45.4982296" lon="9.5519111"><ele>107.0</ele><time>2026-03-29T09:46:46.347Z</time></trkpt><trkpt lat="45.4981581" lon="9.5521416"><ele>107.33333333333333</ele><time>2026-03-29T09:46:47.369Z</time></trkpt><trkpt lat="45.4980876" lon="9.5523626"><ele>107.66666666666666</ele><time>2026-03-29T09:46:48.34Z</time></trkpt><trkpt lat="45.4980143" lon="9.5525959"><ele>108.0</ele><time>2026-03-29T09:46:49.354Z</time></trkpt><trkpt lat="45.4979441" lon="9.5528261"><ele>108.0</ele><time>2026-03-29T09:46:50.352Z</time></trkpt><trkpt lat="45.4978737" lon="9.5530569"><ele>108.0</ele><time>2026-03-29T09:46:51.356Z</time></trkpt><trkpt lat="45.497804" lon="9.5532853"><ele>108.0</ele><time>2026-03-29T09:46:52.351Z</time></trkpt><trkpt lat="45.4977317" lon="9.5535162"><ele>108.66666666666666</ele><time>2026-03-29T09:46:53.355Z</time></trkpt><trkpt lat="45.4976621" lon="9.5537459"><ele>109.33333333333333</ele><time>2026-03-29T09:46:54.345Z</time></trkpt><trkpt lat="45.4975897" lon="9.5539822"><ele>110.0</ele><time>2026-03-29T09:46:55.345Z</time></trkpt><trkpt lat="45.4975161" lon="9.5542222"><ele>110.0</ele><time>2026-03-29T09:46:56.355Z</time></trkpt><trkpt lat="45.4974424" lon="9.5544582"><ele>110.0</ele><time>2026-03-29T09:46:57.354Z</time></trkpt><trkpt lat="45.4973704" lon="9.5546971"><ele>110.0</ele><time>2026-03-29T09:46:58.351Z</time></trkpt><trkpt lat="45.4972966" lon="9.5549327"><ele>109.33333333333333</ele><time>2026-03-29T09:46:59.355Z</time></trkpt><trkpt lat="45.4972231" lon="9.5551677"><ele>108.66666666666666</ele><time>2026-03-29T09:47:00.356Z</time></trkpt><trkpt lat="45.4971508" lon="9.5553995"><ele>108.0</ele><time>2026-03-29T09:47:01.346Z</time></trkpt><trkpt lat="45.4970792" lon="9.5556371"><ele>107.66666666666666</ele><time>2026-03-29T09:47:02.362Z</time></trkpt><trkpt lat="45.49701" lon="9.555865"><ele>107.33333333333333</ele><time>2026-03-29T09:47:03.343Z</time></trkpt><trkpt lat="45.4969406" lon="9.5561007"><ele>107.0</ele><time>2026-03-29T09:47:04.369Z</time></trkpt><trkpt lat="45.4968728" lon="9.5563252"><ele>107.0</ele><time>2026-03-29T09:47:05.352Z</time></trkpt><trkpt lat="45.4968035" lon="9.5565517"><ele>107.0</ele><time>2026-03-29T09:47:06.347Z</time></trkpt><trkpt lat="45.4967307" lon="9.556776"><ele>107.0</ele><time>2026-03-29T09:47:07.35Z</time></trkpt><trkpt lat="45.496659" lon="9.5570078"><ele>106.66666666666666</ele><time>2026-03-29T09:47:08.366Z</time></trkpt><trkpt lat="45.4965898" lon="9.557231"><ele>106.33333333333334</ele><time>2026-03-29T09:47:09.368Z</time></trkpt><trkpt lat="45.4965187" lon="9.5574622"><ele>106.0</ele><time>2026-03-29T09:47:10.393Z</time></trkpt><trkpt lat="45.4964513" lon="9.5576827"><ele>106.33333333333334</ele><time>2026-03-29T09:47:11.358Z</time></trkpt><trkpt lat="45.4963773" lon="9.5579118"><ele>106.66666666666666</ele><time>2026-03-29T09:47:12.353Z</time></trkpt><trkpt lat="45.4963038" lon="9.5581424"><ele>107.0</ele><time>2026-03-29T09:47:13.351Z</time></trkpt><trkpt lat="45.4962329" lon="9.5583755"><ele>107.0</ele><time>2026-03-29T09:47:14.361Z</time></trkpt><trkpt lat="45.4961673" lon="9.5586024"><ele>107.0</ele><time>2026-03-29T09:47:15.354Z</time></trkpt><trkpt lat="45.4961009" lon="9.5588266"><ele>107.0</ele><time>2026-03-29T09:47:16.344Z</time></trkpt><trkpt lat="45.4960327" lon="9.5590571"><ele>107.33333333333333</ele><time>2026-03-29T09:47:17.367Z</time></trkpt><trkpt lat="45.495971" lon="9.5592817"><ele>107.66666666666666</ele><time>2026-03-29T09:47:18.362Z</time></trkpt><trkpt lat="45.4959034" lon="9.5595069"><ele>108.0</ele><time>2026-03-29T09:47:19.354Z</time></trkpt><trkpt lat="45.495838" lon="9.5597327"><ele>108.0</ele><time>2026-03-29T09:47:20.355Z</time></trkpt><trkpt lat="45.495774" lon="9.5599627"><ele>108.0</ele><time>2026-03-29T09:47:21.37Z</time></trkpt><trkpt lat="45.4957114" lon="9.5601912"><ele>108.0</ele><time>2026-03-29T09:47:22.369Z</time></trkpt><trkpt lat="45.495648" lon="9.5604232"><ele>107.33333333333334</ele><time>2026-03-29T09:47:23.367Z</time></trkpt><trkpt lat="45.4955884" lon="9.5606581"><ele>106.66666666666667</ele><time>2026-03-29T09:47:24.36Z</time></trkpt><trkpt lat="45.4955291" lon="9.5608867"><ele>106.0</ele><time>2026-03-29T09:47:25.363Z</time></trkpt><trkpt lat="45.4954674" lon="9.561094"><ele>106.25</ele><time>2026-03-29T09:47:26.355Z</time></trkpt><trkpt lat="45.495405" lon="9.5612845"><ele>106.5</ele><time>2026-03-29T09:47:27.365Z</time></trkpt><trkpt lat="45.4953434" lon="9.5614653"><ele>106.75</ele><time>2026-03-29T09:47:28.371Z</time></trkpt><trkpt lat="45.4952894" lon="9.5616271"><ele>107.0</ele><time>2026-03-29T09:47:29.347Z</time></trkpt><trkpt lat="45.4952386" lon="9.5617936"><ele>107.0</ele><time>2026-03-29T09:47:30.347Z</time></trkpt><trkpt lat="45.4951956" lon="9.5619507"><ele>107.0</ele><time>2026-03-29T09:47:31.349Z</time></trkpt><trkpt lat="45.4951726" lon="9.5621089"><ele>107.0</ele><time>2026-03-29T09:47:32.369Z</time></trkpt><trkpt lat="45.4951683" lon="9.5622765"><ele>107.0</ele><time>2026-03-29T09:47:33.368Z</time></trkpt><trkpt lat="45.4951824" lon="9.5624513"><ele>107.25</ele><time>2026-03-29T09:47:34.371Z</time></trkpt><trkpt lat="45.495211" lon="9.5626257"><ele>107.5</ele><time>2026-03-29T09:47:35.344Z</time></trkpt><trkpt lat="45.4952487" lon="9.562809"><ele>107.75</ele><time>2026-03-29T09:47:36.368Z</time></trkpt><trkpt lat="45.4952917" lon="9.5629852"><ele>108.0</ele><time>2026-03-29T09:47:37.359Z</time></trkpt><trkpt lat="45.4953313" lon="9.5631619"><ele>108.25</ele><time>2026-03-29T09:47:38.34Z</time></trkpt><trkpt lat="45.4953744" lon="9.5633509"><ele>108.5</ele><time>2026-03-29T09:47:39.359Z</time></trkpt><trkpt lat="45.4954153" lon="9.5635274"><ele>108.75</ele><time>2026-03-29T09:47:40.353Z</time></trkpt><trkpt lat="45.4954573" lon="9.5636961"><ele>109.0</ele><time>2026-03-29T09:47:41.35Z</time></trkpt><trkpt lat="45.4954909" lon="9.5638687"><ele>109.0</ele><time>2026-03-29T09:47:42.361Z</time></trkpt><trkpt lat="45.4955066" lon="9.5640383"><ele>109.0</ele><time>2026-03-29T09:47:43.345Z</time></trkpt><trkpt lat="45.4955209" lon="9.5642163"><ele>109.0</ele><time>2026-03-29T09:47:44.352Z</time></trkpt><trkpt lat="45.4955326" lon="9.5643964"><ele>109.0</ele><time>2026-03-29T09:47:45.343Z</time></trkpt><trkpt lat="45.4955493" lon="9.5645783"><ele>109.25</ele><time>2026-03-29T09:47:46.36Z</time></trkpt><trkpt lat="45.4955674" lon="9.5647648"><ele>109.5</ele><time>2026-03-29T09:47:47.395Z</time></trkpt><trkpt lat="45.4955787" lon="9.5649305"><ele>109.75</ele><time>2026-03-29T09:47:48.351Z</time></trkpt><trkpt lat="45.4955701" lon="9.5650955"><ele>110.0</ele><time>2026-03-29T09:47:49.368Z</time></trkpt><trkpt lat="45.4955484" lon="9.5652439"><ele>110.8</ele><time>2026-03-29T09:47:50.358Z</time></trkpt><trkpt lat="45.4955085" lon="9.5653873"><ele>111.6</ele><time>2026-03-29T09:47:51.363Z</time></trkpt><trkpt lat="45.4954553" lon="9.5655187"><ele>112.4</ele><time>2026-03-29T09:47:52.369Z</time></trkpt><trkpt lat="45.4953922" lon="9.5656401"><ele>113.2</ele><time>2026-03-29T09:47:53.348Z</time></trkpt><trkpt lat="45.4953307" lon="9.5657345"><ele>114.0</ele><time>2026-03-29T09:47:54.355Z</time></trkpt><trkpt lat="45.4952754" lon="9.5658015"><ele>114.16666666666667</ele><time>2026-03-29T09:47:55.347Z</time></trkpt><trkpt lat="45.4952179" lon="9.565839"><ele>114.33333333333334</ele><time>2026-03-29T09:47:56.359Z</time></trkpt><trkpt lat="45.4951468" lon="9.56586"><ele>114.5</ele><time>2026-03-29T09:47:57.347Z</time></trkpt><trkpt lat="45.4950759" lon="9.5658688"><ele>114.66666666666667</ele><time>2026-03-29T09:47:58.354Z</time></trkpt><trkpt lat="45.4949897" lon="9.5658885"><ele>114.83333333333334</ele><time>2026-03-29T09:47:59.366Z</time></trkpt><trkpt lat="45.4949064" lon="9.5659137"><ele>115.0</ele><time>2026-03-29T09:48:00.35Z</time></trkpt><trkpt lat="45.4948271" lon="9.5659432"><ele>115.00000000000001</ele><time>2026-03-29T09:48:01.355Z</time></trkpt><trkpt lat="45.4947494" lon="9.5659766"><ele>115.0</ele><time>2026-03-29T09:48:02.341Z</time></trkpt><trkpt lat="45.4946874" lon="9.5660074"><ele>115.0</ele><time>2026-03-29T09:48:03.35Z</time></trkpt><trkpt lat="45.4945707" lon="9.5660872"><ele>115.0</ele><time>2026-03-29T09:48:05.353Z</time></trkpt><trkpt lat="45.4945098" lon="9.5661101"><ele>115.00000000000001</ele><time>2026-03-29T09:48:06.355Z</time></trkpt><trkpt lat="45.4944068" lon="9.5661387"><ele>115.0</ele><time>2026-03-29T09:48:08.356Z</time></trkpt><trkpt lat="45.4942878" lon="9.5661542"><ele>115.0</ele><time>2026-03-29T09:48:10.383Z</time></trkpt><trkpt lat="45.4942179" lon="9.5661411"><ele>115.0</ele><time>2026-03-29T09:48:11.35Z</time></trkpt><trkpt lat="45.4941296" lon="9.5661257"><ele>115.0</ele><time>2026-03-29T09:48:12.354Z</time></trkpt><trkpt lat="45.4940343" lon="9.5661088"><ele>115.0</ele><time>2026-03-29T09:48:13.363Z</time></trkpt><trkpt lat="45.4939295" lon="9.5660881"><ele>115.0</ele><time>2026-03-29T09:48:14.345Z</time></trkpt><trkpt lat="45.4938185" lon="9.5660709"><ele>114.6</ele><time>2026-03-29T09:48:15.37Z</time></trkpt><trkpt lat="45.4937112" lon="9.5660733"><ele>114.2</ele><time>2026-03-29T09:48:16.357Z</time></trkpt><trkpt lat="45.4935962" lon="9.5660953"><ele>113.80000000000001</ele><time>2026-03-29T09:48:17.367Z</time></trkpt><trkpt lat="45.4934877" lon="9.5661274"><ele>113.4</ele><time>2026-03-29T09:48:18.359Z</time></trkpt><trkpt lat="45.4933839" lon="9.566157"><ele>113.0</ele><time>2026-03-29T09:48:19.35Z</time></trkpt><trkpt lat="45.4932849" lon="9.5661928"><ele>112.80000000000001</ele><time>2026-03-29T09:48:20.356Z</time></trkpt><trkpt lat="45.493194" lon="9.5662443"><ele>112.60000000000001</ele><time>2026-03-29T09:48:21.353Z</time></trkpt><trkpt lat="45.4931081" lon="9.56632"><ele>112.39999999999999</ele><time>2026-03-29T09:48:22.363Z</time></trkpt><trkpt lat="45.493028" lon="9.5664065"><ele>112.19999999999999</ele><time>2026-03-29T09:48:23.347Z</time></trkpt><trkpt lat="45.4929421" lon="9.5665064"><ele>112.0</ele><time>2026-03-29T09:48:24.365Z</time></trkpt><trkpt lat="45.4928611" lon="9.5666005"><ele>112.0</ele><time>2026-03-29T09:48:25.358Z</time></trkpt><trkpt lat="45.4927751" lon="9.5666798"><ele>111.99999999999999</ele><time>2026-03-29T09:48:26.356Z</time></trkpt><trkpt lat="45.4926858" lon="9.5667402"><ele>111.99999999999999</ele><time>2026-03-29T09:48:27.359Z</time></trkpt><trkpt lat="45.4926031" lon="9.5667888"><ele>112.0</ele><time>2026-03-29T09:48:28.353Z</time></trkpt><trkpt lat="45.4925133" lon="9.5668308"><ele>112.0</ele><time>2026-03-29T09:48:29.354Z</time></trkpt><trkpt lat="45.4924147" lon="9.5668797"><ele>112.0</ele><time>2026-03-29T09:48:30.678Z</time></trkpt><trkpt lat="45.4922717" lon="9.5669365"><ele>111.99999999999999</ele><time>2026-03-29T09:48:32.405Z</time></trkpt><trkpt lat="45.4922045" lon="9.5669657"><ele>111.99999999999999</ele><time>2026-03-29T09:48:33.401Z</time></trkpt><trkpt lat="45.4920947" lon="9.5670186"><ele>112.0</ele><time>2026-03-29T09:48:35.407Z</time></trkpt><trkpt lat="45.4920036" lon="9.5670576"><ele>112.0</ele><time>2026-03-29T09:48:37.419Z</time></trkpt><trkpt lat="45.4919227" lon="9.5670879"><ele>112.00000000000001</ele><time>2026-03-29T09:48:39.405Z</time></trkpt><trkpt lat="45.4918582" lon="9.5671124"><ele>112.0</ele><time>2026-03-29T09:48:41.409Z</time></trkpt><trkpt lat="45.4917894" lon="9.5671341"><ele>112.0</ele><time>2026-03-29T09:48:43.397Z</time></trkpt><trkpt lat="45.4916926" lon="9.5671464"><ele>112.0</ele><time>2026-03-29T09:48:45.41Z</time></trkpt><trkpt lat="45.4916008" lon="9.5671531"><ele>112.00000000000001</ele><time>2026-03-29T09:48:47.407Z</time></trkpt><trkpt lat="45.4915343" lon="9.5672316"><ele>112.0</ele><time>2026-03-29T09:48:49.403Z</time></trkpt><trkpt lat="45.4915398" lon="9.5673813"><ele>112.0</ele><time>2026-03-29T09:48:51.412Z</time></trkpt><trkpt lat="45.4915814" lon="9.5675559"><ele>111.99999999999999</ele><time>2026-03-29T09:48:53.412Z</time></trkpt><trkpt lat="45.491615" lon="9.5676664"><ele>111.99999999999999</ele><time>2026-03-29T09:48:54.417Z</time></trkpt><trkpt lat="45.4916474" lon="9.56778"><ele>112.0</ele><time>2026-03-29T09:48:55.41Z</time></trkpt><trkpt lat="45.4916827" lon="9.5678988"><ele>112.0</ele><time>2026-03-29T09:48:56.42Z</time></trkpt><trkpt lat="45.4917117" lon="9.5680239"><ele>112.39999999999999</ele><time>2026-03-29T09:48:57.408Z</time></trkpt><trkpt lat="45.4917338" lon="9.5681663"><ele>112.79999999999998</ele><time>2026-03-29T09:48:58.441Z</time></trkpt><trkpt lat="45.4917604" lon="9.5683174"><ele>113.2</ele><time>2026-03-29T09:48:59.433Z</time></trkpt><trkpt lat="45.4917962" lon="9.5684754"><ele>113.6</ele><time>2026-03-29T09:49:00.414Z</time></trkpt><trkpt lat="45.4918353" lon="9.5686337"><ele>114.0</ele><time>2026-03-29T09:49:01.419Z</time></trkpt><trkpt lat="45.4918694" lon="9.5687857"><ele>114.2</ele><time>2026-03-29T09:49:02.42Z</time></trkpt><trkpt lat="45.4918934" lon="9.56893"><ele>114.4</ele><time>2026-03-29T09:49:03.428Z</time></trkpt><trkpt lat="45.4919013" lon="9.5690731"><ele>114.6</ele><time>2026-03-29T09:49:04.41Z</time></trkpt><trkpt lat="45.4918952" lon="9.5692271"><ele>114.8</ele><time>2026-03-29T09:49:05.406Z</time></trkpt><trkpt lat="45.4918854" lon="9.5693908"><ele>115.0</ele><time>2026-03-29T09:49:06.414Z</time></trkpt><trkpt lat="45.4918798" lon="9.5695642"><ele>115.0</ele><time>2026-03-29T09:49:07.419Z</time></trkpt><trkpt lat="45.4918829" lon="9.5697435"><ele>115.0</ele><time>2026-03-29T09:49:08.417Z</time></trkpt><trkpt lat="45.4918928" lon="9.5699199"><ele>115.0</ele><time>2026-03-29T09:49:09.371Z</time></trkpt><trkpt lat="45.4919067" lon="9.570105"><ele>115.0</ele><time>2026-03-29T09:49:10.351Z</time></trkpt><trkpt lat="45.4919282" lon="9.5703049"><ele>115.0</ele><time>2026-03-29T09:49:11.362Z</time></trkpt><trkpt lat="45.4919564" lon="9.5705078"><ele>115.0</ele><time>2026-03-29T09:49:12.354Z</time></trkpt><trkpt lat="45.4919945" lon="9.5707051"><ele>115.0</ele><time>2026-03-29T09:49:13.355Z</time></trkpt><trkpt lat="45.4920381" lon="9.570885"><ele>115.0</ele><time>2026-03-29T09:49:14.364Z</time></trkpt><trkpt lat="45.4920825" lon="9.5710515"><ele>115.25</ele><time>2026-03-29T09:49:15.354Z</time></trkpt><trkpt lat="45.4921338" lon="9.5712197"><ele>115.5</ele><time>2026-03-29T09:49:16.366Z</time></trkpt><trkpt lat="45.4921808" lon="9.5713856"><ele>115.75</ele><time>2026-03-29T09:49:17.38Z</time></trkpt><trkpt lat="45.4922086" lon="9.5715481"><ele>116.0</ele><time>2026-03-29T09:49:18.356Z</time></trkpt><trkpt lat="45.4922384" lon="9.571736"><ele>116.0</ele><time>2026-03-29T09:49:19.373Z</time></trkpt><trkpt lat="45.4922704" lon="9.5719244"><ele>116.0</ele><time>2026-03-29T09:49:20.358Z</time></trkpt><trkpt lat="45.4923045" lon="9.5721246"><ele>116.0</ele><time>2026-03-29T09:49:21.351Z</time></trkpt><trkpt lat="45.4923412" lon="9.5723282"><ele>116.0</ele><time>2026-03-29T09:49:22.354Z</time></trkpt><trkpt lat="45.4923794" lon="9.5725356"><ele>116.0</ele><time>2026-03-29T09:49:23.36Z</time></trkpt><trkpt lat="45.4924127" lon="9.5727441"><ele>116.0</ele><time>2026-03-29T09:49:24.368Z</time></trkpt><trkpt lat="45.492448" lon="9.5729512"><ele>116.0</ele><time>2026-03-29T09:49:25.375Z</time></trkpt><trkpt lat="45.4924788" lon="9.5731438"><ele>116.0</ele><time>2026-03-29T09:49:26.361Z</time></trkpt><trkpt lat="45.4925073" lon="9.5733179"><ele>116.0</ele><time>2026-03-29T09:49:27.353Z</time></trkpt><trkpt lat="45.4925354" lon="9.5734708"><ele>116.0</ele><time>2026-03-29T09:49:28.382Z</time></trkpt><trkpt lat="45.4925708" lon="9.573589"><ele>116.0</ele><time>2026-03-29T09:49:29.351Z</time></trkpt><trkpt lat="45.4926246" lon="9.5736921"><ele>116.0</ele><time>2026-03-29T09:49:30.347Z</time></trkpt><trkpt lat="45.4926944" lon="9.5737699"><ele>116.0</ele><time>2026-03-29T09:49:31.36Z</time></trkpt><trkpt lat="45.4927807" lon="9.5738204"><ele>115.75</ele><time>2026-03-29T09:49:32.345Z</time></trkpt><trkpt lat="45.4928871" lon="9.5738372"><ele>115.5</ele><time>2026-03-29T09:49:33.37Z</time></trkpt><trkpt lat="45.4930034" lon="9.573823"><ele>115.25</ele><time>2026-03-29T09:49:34.354Z</time></trkpt><trkpt lat="45.4931229" lon="9.5737811"><ele>115.0</ele><time>2026-03-29T09:49:35.355Z</time></trkpt><trkpt lat="45.4932379" lon="9.5737333"><ele>115.00000000000001</ele><time>2026-03-29T09:49:36.373Z</time></trkpt><trkpt lat="45.4933417" lon="9.5737015"><ele>115.0</ele><time>2026-03-29T09:49:37.359Z</time></trkpt><trkpt lat="45.4934407" lon="9.5736732"><ele>115.0</ele><time>2026-03-29T09:49:38.362Z</time></trkpt><trkpt lat="45.4935295" lon="9.5736499"><ele>115.0</ele><time>2026-03-29T09:49:39.368Z</time></trkpt><trkpt lat="45.4936048" lon="9.5736344"><ele>115.00000000000001</ele><time>2026-03-29T09:49:40.349Z</time></trkpt><trkpt lat="45.4936745" lon="9.5736193"><ele>115.0</ele><time>2026-03-29T09:49:41.358Z</time></trkpt><trkpt lat="45.4937401" lon="9.5735991"><ele>115.2</ele><time>2026-03-29T09:49:42.366Z</time></trkpt><trkpt lat="45.4938372" lon="9.573566"><ele>115.4</ele><time>2026-03-29T09:49:44.361Z</time></trkpt><trkpt lat="45.4939209" lon="9.5735356"><ele>115.6</ele><time>2026-03-29T09:49:46.366Z</time></trkpt><trkpt lat="45.4939838" lon="9.5735138"><ele>115.8</ele><time>2026-03-29T09:49:48.37Z</time></trkpt><trkpt lat="45.4940499" lon="9.5734971"><ele>116.0</ele><time>2026-03-29T09:50:40.352Z</time></trkpt><trkpt lat="45.4941821" lon="9.5734565"><ele>116.0</ele><time>2026-03-29T09:50:42.375Z</time></trkpt><trkpt lat="45.4942808" lon="9.5734289"><ele>116.0</ele><time>2026-03-29T09:50:43.392Z</time></trkpt><trkpt lat="45.4943879" lon="9.5734083"><ele>116.0</ele><time>2026-03-29T09:50:44.371Z</time></trkpt><trkpt lat="45.4945004" lon="9.5733821"><ele>116.0</ele><time>2026-03-29T09:50:45.362Z</time></trkpt><trkpt lat="45.4946219" lon="9.5733519"><ele>116.0</ele><time>2026-03-29T09:50:46.353Z</time></trkpt><trkpt lat="45.4947527" lon="9.5733165"><ele>116.5</ele><time>2026-03-29T09:50:47.36Z</time></trkpt><trkpt lat="45.49489" lon="9.5732777"><ele>117.0</ele><time>2026-03-29T09:50:48.371Z</time></trkpt><trkpt lat="45.4950334" lon="9.5732412"><ele>117.5</ele><time>2026-03-29T09:50:49.372Z</time></trkpt><trkpt lat="45.4951796" lon="9.5731994"><ele>118.0</ele><time>2026-03-29T09:50:50.377Z</time></trkpt><trkpt lat="45.4953292" lon="9.5731544"><ele>117.33333333333334</ele><time>2026-03-29T09:50:51.376Z</time></trkpt><trkpt lat="45.4954828" lon="9.5731075"><ele>116.66666666666666</ele><time>2026-03-29T09:50:52.364Z</time></trkpt><trkpt lat="45.4956375" lon="9.573064"><ele>116.0</ele><time>2026-03-29T09:50:53.35Z</time></trkpt><trkpt lat="45.4957921" lon="9.573018"><ele>116.0</ele><time>2026-03-29T09:50:54.357Z</time></trkpt><trkpt lat="45.4959392" lon="9.5729777"><ele>116.0</ele><time>2026-03-29T09:50:55.372Z</time></trkpt><trkpt lat="45.496072" lon="9.5729372"><ele>116.0</ele><time>2026-03-29T09:50:56.371Z</time></trkpt><trkpt lat="45.496191" lon="9.5729028"><ele>116.0</ele><time>2026-03-29T09:50:57.36Z</time></trkpt><trkpt lat="45.496307" lon="9.5728705"><ele>116.0</ele><time>2026-03-29T09:50:58.368Z</time></trkpt><trkpt lat="45.4964249" lon="9.5728382"><ele>116.0</ele><time>2026-03-29T09:50:59.381Z</time></trkpt><trkpt lat="45.4965474" lon="9.5728042"><ele>116.0</ele><time>2026-03-29T09:51:00.354Z</time></trkpt><trkpt lat="45.4966856" lon="9.5727655"><ele>116.0</ele><time>2026-03-29T09:51:01.377Z</time></trkpt><trkpt lat="45.4968301" lon="9.5727266"><ele>116.0</ele><time>2026-03-29T09:51:02.358Z</time></trkpt><trkpt lat="45.4969859" lon="9.5726901"><ele>116.0</ele><time>2026-03-29T09:51:03.355Z</time></trkpt><trkpt lat="45.4971455" lon="9.5726544"><ele>116.0</ele><time>2026-03-29T09:51:04.356Z</time></trkpt><trkpt lat="45.4973054" lon="9.5726222"><ele>116.0</ele><time>2026-03-29T09:51:05.355Z</time></trkpt><trkpt lat="45.4974673" lon="9.5725921"><ele>116.0</ele><time>2026-03-29T09:51:06.365Z</time></trkpt><trkpt lat="45.4976271" lon="9.5725599"><ele>116.0</ele><time>2026-03-29T09:51:07.369Z</time></trkpt><trkpt lat="45.4977766" lon="9.5725281"><ele>115.75</ele><time>2026-03-29T09:51:08.346Z</time></trkpt><trkpt lat="45.4979215" lon="9.5725038"><ele>115.5</ele><time>2026-03-29T09:51:09.352Z</time></trkpt><trkpt lat="45.4980519" lon="9.5724819"><ele>115.25</ele><time>2026-03-29T09:51:10.35Z</time></trkpt><trkpt lat="45.4981762" lon="9.5724712"><ele>115.0</ele><time>2026-03-29T09:51:11.355Z</time></trkpt><trkpt lat="45.4982992" lon="9.5724634"><ele>115.0</ele><time>2026-03-29T09:51:12.375Z</time></trkpt><trkpt lat="45.4984191" lon="9.5724603"><ele>115.0</ele><time>2026-03-29T09:51:13.373Z</time></trkpt><trkpt lat="45.49854" lon="9.5724516"><ele>115.0</ele><time>2026-03-29T09:51:14.348Z</time></trkpt><trkpt lat="45.498669" lon="9.5724447"><ele>115.0</ele><time>2026-03-29T09:51:15.373Z</time></trkpt><trkpt lat="45.4987949" lon="9.5724456"><ele>115.4</ele><time>2026-03-29T09:51:16.357Z</time></trkpt><trkpt lat="45.4989182" lon="9.5724581"><ele>115.8</ele><time>2026-03-29T09:51:17.349Z</time></trkpt><trkpt lat="45.4990317" lon="9.572476"><ele>116.19999999999999</ele><time>2026-03-29T09:51:18.368Z</time></trkpt><trkpt lat="45.4991272" lon="9.572501"><ele>116.6</ele><time>2026-03-29T09:51:19.367Z</time></trkpt><trkpt lat="45.4992039" lon="9.5725357"><ele>117.0</ele><time>2026-03-29T09:51:20.357Z</time></trkpt><trkpt lat="45.4992744" lon="9.5725864"><ele>117.0</ele><time>2026-03-29T09:51:21.385Z</time></trkpt><trkpt lat="45.4993373" lon="9.5726444"><ele>117.0</ele><time>2026-03-29T09:51:22.383Z</time></trkpt><trkpt lat="45.4994068" lon="9.5727068"><ele>117.0</ele><time>2026-03-29T09:51:23.366Z</time></trkpt><trkpt lat="45.4994924" lon="9.5727405"><ele>117.0</ele><time>2026-03-29T09:51:24.361Z</time></trkpt><trkpt lat="45.4995747" lon="9.5727282"><ele>117.0</ele><time>2026-03-29T09:51:25.365Z</time></trkpt><trkpt lat="45.4996653" lon="9.5727065"><ele>117.0</ele><time>2026-03-29T09:51:26.345Z</time></trkpt><trkpt lat="45.499757" lon="9.5726937"><ele>117.0</ele><time>2026-03-29T09:51:27.355Z</time></trkpt><trkpt lat="45.4998393" lon="9.5727083"><ele>117.0</ele><time>2026-03-29T09:51:28.382Z</time></trkpt><trkpt lat="45.4999199" lon="9.5727441"><ele>117.0</ele><time>2026-03-29T09:51:29.375Z</time></trkpt><trkpt lat="45.4999968" lon="9.572794"><ele>117.0</ele><time>2026-03-29T09:51:30.359Z</time></trkpt><trkpt lat="45.5000807" lon="9.5728596"><ele>117.0</ele><time>2026-03-29T09:51:31.368Z</time></trkpt><trkpt lat="45.5001674" lon="9.5729283"><ele>117.0</ele><time>2026-03-29T09:51:32.361Z</time></trkpt><trkpt lat="45.5002527" lon="9.5730018"><ele>117.0</ele><time>2026-03-29T09:51:33.35Z</time></trkpt><trkpt lat="45.5003367" lon="9.5730766"><ele>117.0</ele><time>2026-03-29T09:51:34.368Z</time></trkpt><trkpt lat="45.5004027" lon="9.5731435"><ele>117.0</ele><time>2026-03-29T09:51:35.355Z</time></trkpt><trkpt lat="45.5004581" lon="9.573214"><ele>117.0</ele><time>2026-03-29T09:51:36.359Z</time></trkpt><trkpt lat="45.5005106" lon="9.5733399"><ele>117.0</ele><time>2026-03-29T09:51:38.365Z</time></trkpt><trkpt lat="45.5005465" lon="9.5734393"><ele>117.0</ele><time>2026-03-29T09:51:40.355Z</time></trkpt><trkpt lat="45.5005925" lon="9.5735109"><ele>117.0</ele><time>2026-03-29T09:51:42.379Z</time></trkpt><trkpt lat="45.5006377" lon="9.5735763"><ele>116.99999999999999</ele><time>2026-03-29T09:51:46.369Z</time></trkpt><trkpt lat="45.5007195" lon="9.5737644"><ele>116.99999999999999</ele><time>2026-03-29T09:55:39.376Z</time></trkpt><trkpt lat="45.5007837" lon="9.573781"><ele>117.0</ele><time>2026-03-29T09:55:57.375Z</time></trkpt><trkpt lat="45.5008605" lon="9.5737782"><ele>117.0</ele><time>2026-03-29T09:55:59.353Z</time></trkpt><trkpt lat="45.5009565" lon="9.57384"><ele>116.8</ele><time>2026-03-29T09:56:01.374Z</time></trkpt><trkpt lat="45.5010318" lon="9.5739044"><ele>116.6</ele><time>2026-03-29T09:56:02.374Z</time></trkpt><trkpt lat="45.5011145" lon="9.5739917"><ele>116.39999999999999</ele><time>2026-03-29T09:56:03.359Z</time></trkpt><trkpt lat="45.5011988" lon="9.5740976"><ele>116.19999999999999</ele><time>2026-03-29T09:56:04.372Z</time></trkpt><trkpt lat="45.5012854" lon="9.5742084"><ele>116.0</ele><time>2026-03-29T09:56:05.376Z</time></trkpt><trkpt lat="45.5013727" lon="9.5743401"><ele>116.0</ele><time>2026-03-29T09:56:06.362Z</time></trkpt><trkpt lat="45.5014622" lon="9.5744923"><ele>116.0</ele><time>2026-03-29T09:56:07.365Z</time></trkpt><trkpt lat="45.5015495" lon="9.5746566"><ele>116.0</ele><time>2026-03-29T09:56:08.353Z</time></trkpt><trkpt lat="45.5016363" lon="9.5748379"><ele>116.0</ele><time>2026-03-29T09:56:09.371Z</time></trkpt><trkpt lat="45.5017059" lon="9.5750252"><ele>116.0</ele><time>2026-03-29T09:56:10.373Z</time></trkpt><trkpt lat="45.5017677" lon="9.5752285"><ele>116.0</ele><time>2026-03-29T09:56:11.377Z</time></trkpt><trkpt lat="45.5018204" lon="9.5754423"><ele>116.0</ele><time>2026-03-29T09:56:12.373Z</time></trkpt><trkpt lat="45.5018585" lon="9.5756666"><ele>116.33333333333333</ele><time>2026-03-29T09:56:13.36Z</time></trkpt><trkpt lat="45.5018894" lon="9.5759054"><ele>116.66666666666666</ele><time>2026-03-29T09:56:14.371Z</time></trkpt><trkpt lat="45.5019163" lon="9.5761507"><ele>117.0</ele><time>2026-03-29T09:56:15.364Z</time></trkpt><trkpt lat="45.5019503" lon="9.5763949"><ele>117.0</ele><time>2026-03-29T09:56:16.364Z</time></trkpt><trkpt lat="45.501987" lon="9.576646"><ele>117.0</ele><time>2026-03-29T09:56:17.364Z</time></trkpt><trkpt lat="45.5020309" lon="9.5768979"><ele>117.0</ele><time>2026-03-29T09:56:18.357Z</time></trkpt><trkpt lat="45.50209" lon="9.5771456"><ele>116.66666666666666</ele><time>2026-03-29T09:56:19.359Z</time></trkpt><trkpt lat="45.5021598" lon="9.5773856"><ele>116.33333333333333</ele><time>2026-03-29T09:56:20.35Z</time></trkpt><trkpt lat="45.5022428" lon="9.577614"><ele>116.0</ele><time>2026-03-29T09:56:21.361Z</time></trkpt><trkpt lat="45.5023372" lon="9.5778385"><ele>116.0</ele><time>2026-03-29T09:56:22.364Z</time></trkpt><trkpt lat="45.5024409" lon="9.5780408"><ele>116.0</ele><time>2026-03-29T09:56:23.356Z</time></trkpt><trkpt lat="45.5025541" lon="9.5782279"><ele>116.0</ele><time>2026-03-29T09:56:24.371Z</time></trkpt><trkpt lat="45.5026741" lon="9.5783889"><ele>116.0</ele><time>2026-03-29T09:56:25.36Z</time></trkpt><trkpt lat="45.5028014" lon="9.5785359"><ele>116.0</ele><time>2026-03-29T09:56:26.364Z</time></trkpt><trkpt lat="45.5029318" lon="9.5786736"><ele>116.0</ele><time>2026-03-29T09:56:27.36Z</time></trkpt><trkpt lat="45.5030681" lon="9.5787997"><ele>116.0</ele><time>2026-03-29T09:56:28.361Z</time></trkpt><trkpt lat="45.5032117" lon="9.578917"><ele>116.0</ele><time>2026-03-29T09:56:29.363Z</time></trkpt><trkpt lat="45.5033651" lon="9.5790201"><ele>116.0</ele><time>2026-03-29T09:56:30.365Z</time></trkpt><trkpt lat="45.5035253" lon="9.5791077"><ele>116.0</ele><time>2026-03-29T09:56:31.357Z</time></trkpt><trkpt lat="45.5036981" lon="9.5791846"><ele>116.0</ele><time>2026-03-29T09:56:32.388Z</time></trkpt><trkpt lat="45.5038635" lon="9.5792556"><ele>116.0</ele><time>2026-03-29T09:56:33.361Z</time></trkpt><trkpt lat="45.5040449" lon="9.5793342"><ele>116.0</ele><time>2026-03-29T09:56:34.389Z</time></trkpt><trkpt lat="45.5042188" lon="9.5794103"><ele>116.0</ele><time>2026-03-29T09:56:35.368Z</time></trkpt><trkpt lat="45.504397" lon="9.5794922"><ele>116.0</ele><time>2026-03-29T09:56:36.358Z</time></trkpt><trkpt lat="45.5045855" lon="9.579577"><ele>116.0</ele><time>2026-03-29T09:56:37.365Z</time></trkpt><trkpt lat="45.5047809" lon="9.5796606"><ele>116.0</ele><time>2026-03-29T09:56:38.363Z</time></trkpt><trkpt lat="45.5049879" lon="9.5797463"><ele>116.0</ele><time>2026-03-29T09:56:39.396Z</time></trkpt><trkpt lat="45.5051908" lon="9.5798309"><ele>116.0</ele><time>2026-03-29T09:56:40.381Z</time></trkpt><trkpt lat="45.5053974" lon="9.5799187"><ele>116.0</ele><time>2026-03-29T09:56:41.358Z</time></trkpt><trkpt lat="45.5056151" lon="9.5800147"><ele>116.0</ele><time>2026-03-29T09:56:42.367Z</time></trkpt><trkpt lat="45.5058356" lon="9.5801125"><ele>116.5</ele><time>2026-03-29T09:56:43.364Z</time></trkpt><trkpt lat="45.5060605" lon="9.58021"><ele>117.0</ele><time>2026-03-29T09:56:44.372Z</time></trkpt><trkpt lat="45.5062842" lon="9.5803071"><ele>117.5</ele><time>2026-03-29T09:56:45.369Z</time></trkpt><trkpt lat="45.5065082" lon="9.5804046"><ele>118.0</ele><time>2026-03-29T09:56:46.369Z</time></trkpt><trkpt lat="45.5067358" lon="9.5805013"><ele>118.0</ele><time>2026-03-29T09:56:47.377Z</time></trkpt><trkpt lat="45.5069592" lon="9.5805979"><ele>118.0</ele><time>2026-03-29T09:56:48.364Z</time></trkpt><trkpt lat="45.5071832" lon="9.5806989"><ele>118.0</ele><time>2026-03-29T09:56:49.363Z</time></trkpt><trkpt lat="45.5074015" lon="9.5807962"><ele>118.0</ele><time>2026-03-29T09:56:50.362Z</time></trkpt><trkpt lat="45.5076157" lon="9.5808936"><ele>118.0</ele><time>2026-03-29T09:56:51.358Z</time></trkpt><trkpt lat="45.5078224" lon="9.5810025"><ele>118.0</ele><time>2026-03-29T09:56:52.367Z</time></trkpt><trkpt lat="45.5080215" lon="9.5811213"><ele>118.0</ele><time>2026-03-29T09:56:53.367Z</time></trkpt><trkpt lat="45.5082123" lon="9.5812607"><ele>118.66666666666667</ele><time>2026-03-29T09:56:54.385Z</time></trkpt><trkpt lat="45.5084001" lon="9.5814295"><ele>119.33333333333334</ele><time>2026-03-29T09:56:55.369Z</time></trkpt><trkpt lat="45.508575" lon="9.5816019"><ele>120.0</ele><time>2026-03-29T09:56:56.361Z</time></trkpt><trkpt lat="45.5087495" lon="9.5817863"><ele>120.0</ele><time>2026-03-29T09:56:57.376Z</time></trkpt><trkpt lat="45.5089201" lon="9.5819649"><ele>120.0</ele><time>2026-03-29T09:56:58.376Z</time></trkpt><trkpt lat="45.5090843" lon="9.5821257"><ele>120.0</ele><time>2026-03-29T09:56:59.349Z</time></trkpt><trkpt lat="45.5092426" lon="9.5822824"><ele>120.0</ele><time>2026-03-29T09:57:00.381Z</time></trkpt><trkpt lat="45.5093798" lon="9.5824175"><ele>120.0</ele><time>2026-03-29T09:57:01.36Z</time></trkpt><trkpt lat="45.509504" lon="9.5825364"><ele>120.0</ele><time>2026-03-29T09:57:02.35Z</time></trkpt><trkpt lat="45.509631" lon="9.5826376"><ele>120.0</ele><time>2026-03-29T09:57:03.382Z</time></trkpt><trkpt lat="45.5097527" lon="9.5827075"><ele>120.0</ele><time>2026-03-29T09:57:04.371Z</time></trkpt><trkpt lat="45.5098836" lon="9.5827499"><ele>120.0</ele><time>2026-03-29T09:57:05.37Z</time></trkpt><trkpt lat="45.5100203" lon="9.582767"><ele>120.0</ele><time>2026-03-29T09:57:06.366Z</time></trkpt><trkpt lat="45.5101653" lon="9.5827622"><ele>120.0</ele><time>2026-03-29T09:57:07.367Z</time></trkpt><trkpt lat="45.5103135" lon="9.5827445"><ele>120.0</ele><time>2026-03-29T09:57:08.362Z</time></trkpt><trkpt lat="45.5104618" lon="9.5827249"><ele>120.0</ele><time>2026-03-29T09:57:09.354Z</time></trkpt><trkpt lat="45.5106143" lon="9.5827037"><ele>119.0</ele><time>2026-03-29T09:57:10.363Z</time></trkpt><trkpt lat="45.5107778" lon="9.5826824"><ele>118.0</ele><time>2026-03-29T09:57:11.369Z</time></trkpt><trkpt lat="45.5109398" lon="9.5826592"><ele>117.0</ele><time>2026-03-29T09:57:12.372Z</time></trkpt><trkpt lat="45.5110995" lon="9.5826311"><ele>117.25</ele><time>2026-03-29T09:57:13.364Z</time></trkpt><trkpt lat="45.5112499" lon="9.5826114"><ele>117.5</ele><time>2026-03-29T09:57:14.363Z</time></trkpt><trkpt lat="45.5113977" lon="9.582594"><ele>117.75</ele><time>2026-03-29T09:57:15.357Z</time></trkpt><trkpt lat="45.5115405" lon="9.5825917"><ele>118.0</ele><time>2026-03-29T09:57:16.362Z</time></trkpt><trkpt lat="45.5116786" lon="9.5825967"><ele>118.0</ele><time>2026-03-29T09:57:17.373Z</time></trkpt><trkpt lat="45.5118093" lon="9.5826075"><ele>118.0</ele><time>2026-03-29T09:57:18.358Z</time></trkpt><trkpt lat="45.5119439" lon="9.5826183"><ele>118.0</ele><time>2026-03-29T09:57:19.361Z</time></trkpt><trkpt lat="45.5120749" lon="9.5826245"><ele>118.0</ele><time>2026-03-29T09:57:20.369Z</time></trkpt><trkpt lat="45.5122043" lon="9.5826258"><ele>119.0</ele><time>2026-03-29T09:57:21.364Z</time></trkpt><trkpt lat="45.5123304" lon="9.5826057"><ele>120.0</ele><time>2026-03-29T09:57:22.368Z</time></trkpt><trkpt lat="45.5124668" lon="9.5825626"><ele>121.0</ele><time>2026-03-29T09:57:23.366Z</time></trkpt><trkpt lat="45.5126" lon="9.5825121"><ele>122.0</ele><time>2026-03-29T09:57:24.349Z</time></trkpt><trkpt lat="45.5127409" lon="9.5824655"><ele>122.0</ele><time>2026-03-29T09:57:25.356Z</time></trkpt><trkpt lat="45.5128852" lon="9.5824199"><ele>122.0</ele><time>2026-03-29T09:57:26.365Z</time></trkpt><trkpt lat="45.5130324" lon="9.5823827"><ele>122.0</ele><time>2026-03-29T09:57:27.364Z</time></trkpt><trkpt lat="45.5131868" lon="9.5823576"><ele>121.66666666666666</ele><time>2026-03-29T09:57:28.369Z</time></trkpt><trkpt lat="45.5133556" lon="9.582337"><ele>121.33333333333334</ele><time>2026-03-29T09:57:29.375Z</time></trkpt><trkpt lat="45.513533" lon="9.582321"><ele>121.0</ele><time>2026-03-29T09:57:30.376Z</time></trkpt><trkpt lat="45.5137079" lon="9.5822996"><ele>121.66666666666667</ele><time>2026-03-29T09:57:31.376Z</time></trkpt><trkpt lat="45.5138841" lon="9.5822785"><ele>122.33333333333334</ele><time>2026-03-29T09:57:32.373Z</time></trkpt><trkpt lat="45.5140607" lon="9.5822573"><ele>123.0</ele><time>2026-03-29T09:57:33.37Z</time></trkpt><trkpt lat="45.5142378" lon="9.5822359"><ele>123.0</ele><time>2026-03-29T09:57:34.368Z</time></trkpt><trkpt lat="45.5144099" lon="9.5822148"><ele>123.0</ele><time>2026-03-29T09:57:35.375Z</time></trkpt><trkpt lat="45.5145697" lon="9.5822022"><ele>123.0</ele><time>2026-03-29T09:57:36.359Z</time></trkpt><trkpt lat="45.514725" lon="9.5821901"><ele>122.25</ele><time>2026-03-29T09:57:37.363Z</time></trkpt><trkpt lat="45.5148736" lon="9.5821837"><ele>121.5</ele><time>2026-03-29T09:57:38.364Z</time></trkpt><trkpt lat="45.5150168" lon="9.5821892"><ele>120.75</ele><time>2026-03-29T09:57:39.354Z</time></trkpt><trkpt lat="45.5151508" lon="9.5822161"><ele>120.0</ele><time>2026-03-29T09:57:40.355Z</time></trkpt><trkpt lat="45.5152802" lon="9.5822684"><ele>121.0</ele><time>2026-03-29T09:57:41.361Z</time></trkpt><trkpt lat="45.5154285" lon="9.5823473"><ele>122.0</ele><time>2026-03-29T09:57:42.373Z</time></trkpt><trkpt lat="45.5155658" lon="9.5824475"><ele>123.0</ele><time>2026-03-29T09:57:43.362Z</time></trkpt><trkpt lat="45.5157024" lon="9.5825835"><ele>123.0</ele><time>2026-03-29T09:57:44.367Z</time></trkpt><trkpt lat="45.5158304" lon="9.5827401"><ele>123.0</ele><time>2026-03-29T09:57:45.356Z</time></trkpt><trkpt lat="45.5159495" lon="9.5829095"><ele>123.0</ele><time>2026-03-29T09:57:46.362Z</time></trkpt><trkpt lat="45.5160539" lon="9.5831023"><ele>123.0</ele><time>2026-03-29T09:57:47.364Z</time></trkpt><trkpt lat="45.5161441" lon="9.583313"><ele>123.0</ele><time>2026-03-29T09:57:48.362Z</time></trkpt><trkpt lat="45.5162181" lon="9.5835328"><ele>123.0</ele><time>2026-03-29T09:57:49.372Z</time></trkpt><trkpt lat="45.5162686" lon="9.5837546"><ele>123.5</ele><time>2026-03-29T09:57:50.367Z</time></trkpt><trkpt lat="45.5163028" lon="9.5839657"><ele>124.0</ele><time>2026-03-29T09:57:51.366Z</time></trkpt><trkpt lat="45.5163281" lon="9.5841717"><ele>124.5</ele><time>2026-03-29T09:57:52.364Z</time></trkpt><trkpt lat="45.5163552" lon="9.5843433"><ele>125.0</ele><time>2026-03-29T09:57:53.373Z</time></trkpt><trkpt lat="45.5163858" lon="9.5844873"><ele>124.83333333333333</ele><time>2026-03-29T09:57:54.364Z</time></trkpt><trkpt lat="45.516413" lon="9.5845931"><ele>124.66666666666666</ele><time>2026-03-29T09:57:55.374Z</time></trkpt><trkpt lat="45.5164349" lon="9.5846821"><ele>124.5</ele><time>2026-03-29T09:57:56.359Z</time></trkpt><trkpt lat="45.5164311" lon="9.5847878"><ele>124.33333333333334</ele><time>2026-03-29T09:57:58.357Z</time></trkpt><trkpt lat="45.516449" lon="9.5849769"><ele>124.16666666666667</ele><time>2026-03-29T09:58:00.354Z</time></trkpt><trkpt lat="45.5164519" lon="9.5850855"><ele>124.0</ele><time>2026-03-29T09:58:01.361Z</time></trkpt><trkpt lat="45.51645" lon="9.585199"><ele>124.00000000000001</ele><time>2026-03-29T09:58:02.371Z</time></trkpt><trkpt lat="45.5164464" lon="9.5853168"><ele>124.0</ele><time>2026-03-29T09:58:03.376Z</time></trkpt><trkpt lat="45.5164458" lon="9.5854402"><ele>124.0</ele><time>2026-03-29T09:58:04.377Z</time></trkpt><trkpt lat="45.5164497" lon="9.5855578"><ele>124.0</ele><time>2026-03-29T09:58:05.364Z</time></trkpt><trkpt lat="45.5164593" lon="9.5856686"><ele>124.00000000000001</ele><time>2026-03-29T09:58:06.364Z</time></trkpt><trkpt lat="45.516472" lon="9.5857678"><ele>124.0</ele><time>2026-03-29T09:58:07.359Z</time></trkpt><trkpt lat="45.5164986" lon="9.5859323"><ele>123.83333333333334</ele><time>2026-03-29T09:58:09.364Z</time></trkpt><trkpt lat="45.5165061" lon="9.5860323"><ele>123.66666666666667</ele><time>2026-03-29T09:58:10.372Z</time></trkpt><trkpt lat="45.5165123" lon="9.586145"><ele>123.5</ele><time>2026-03-29T09:58:11.365Z</time></trkpt><trkpt lat="45.516519" lon="9.5862625"><ele>123.33333333333334</ele><time>2026-03-29T09:58:12.371Z</time></trkpt><trkpt lat="45.5165313" lon="9.5863689"><ele>123.16666666666667</ele><time>2026-03-29T09:58:13.368Z</time></trkpt><trkpt lat="45.5165517" lon="9.5865256"><ele>123.0</ele><time>2026-03-29T09:58:15.363Z</time></trkpt><trkpt lat="45.5165558" lon="9.5866745"><ele>123.0</ele><time>2026-03-29T09:58:17.359Z</time></trkpt><trkpt lat="45.5165645" lon="9.5867671"><ele>123.0</ele><time>2026-03-29T09:58:18.359Z</time></trkpt><trkpt lat="45.5165772" lon="9.5868723"><ele>123.0</ele><time>2026-03-29T09:58:19.377Z</time></trkpt><trkpt lat="45.5165892" lon="9.5869874"><ele>123.0</ele><time>2026-03-29T09:58:20.367Z</time></trkpt><trkpt lat="45.5166035" lon="9.5871071"><ele>123.0</ele><time>2026-03-29T09:58:21.362Z</time></trkpt><trkpt lat="45.5166155" lon="9.5872259"><ele>123.0</ele><time>2026-03-29T09:58:22.363Z</time></trkpt><trkpt lat="45.5166244" lon="9.5873457"><ele>123.0</ele><time>2026-03-29T09:58:23.362Z</time></trkpt><trkpt lat="45.5166342" lon="9.5874699"><ele>123.0</ele><time>2026-03-29T09:58:24.368Z</time></trkpt><trkpt lat="45.5166484" lon="9.5875925"><ele>123.0</ele><time>2026-03-29T09:58:25.408Z</time></trkpt><trkpt lat="45.5166591" lon="9.5877021"><ele>123.0</ele><time>2026-03-29T09:58:26.36Z</time></trkpt><trkpt lat="45.5166708" lon="9.5878161"><ele>123.0</ele><time>2026-03-29T09:58:27.36Z</time></trkpt><trkpt lat="45.5166851" lon="9.5879141"><ele>123.0</ele><time>2026-03-29T09:58:28.39Z</time></trkpt><trkpt lat="45.5166953" lon="9.5880358"><ele>123.5</ele><time>2026-03-29T09:58:30.377Z</time></trkpt><trkpt lat="45.5167141" lon="9.588164"><ele>124.0</ele><time>2026-03-29T09:58:33.368Z</time></trkpt><trkpt lat="45.5167184" lon="9.5882934"><ele>124.5</ele><time>2026-03-29T09:58:36.372Z</time></trkpt><trkpt lat="45.5167265" lon="9.5884024"><ele>125.0</ele><time>2026-03-29T09:58:39.372Z</time></trkpt><trkpt lat="45.5167472" lon="9.5885169"><ele>125.5</ele><time>2026-03-29T09:58:42.368Z</time></trkpt><trkpt lat="45.5167716" lon="9.5886269"><ele>126.0</ele><time>2026-03-29T09:58:44.386Z</time></trkpt><trkpt lat="45.5167795" lon="9.588774"><ele>126.0</ele><time>2026-03-29T09:58:46.374Z</time></trkpt><trkpt lat="45.5167895" lon="9.5889347"><ele>126.0</ele><time>2026-03-29T09:58:48.36Z</time></trkpt><trkpt lat="45.5167998" lon="9.5890386"><ele>126.0</ele><time>2026-03-29T09:58:49.366Z</time></trkpt><trkpt lat="45.516811" lon="9.5891853"><ele>126.0</ele><time>2026-03-29T09:58:50.365Z</time></trkpt><trkpt lat="45.5168184" lon="9.5893489"><ele>126.0</ele><time>2026-03-29T09:58:51.381Z</time></trkpt><trkpt lat="45.5168275" lon="9.5895251"><ele>125.75</ele><time>2026-03-29T09:58:52.376Z</time></trkpt><trkpt lat="45.5168351" lon="9.5897216"><ele>125.5</ele><time>2026-03-29T09:58:53.366Z</time></trkpt><trkpt lat="45.5168462" lon="9.5899327"><ele>125.25</ele><time>2026-03-29T09:58:54.358Z</time></trkpt><trkpt lat="45.5168593" lon="9.5901576"><ele>125.0</ele><time>2026-03-29T09:58:55.363Z</time></trkpt><trkpt lat="45.5168812" lon="9.5903873"><ele>124.75</ele><time>2026-03-29T09:58:56.375Z</time></trkpt><trkpt lat="45.5169021" lon="9.5906036"><ele>124.5</ele><time>2026-03-29T09:58:57.378Z</time></trkpt><trkpt lat="45.5169222" lon="9.5908009"><ele>124.25</ele><time>2026-03-29T09:58:58.371Z</time></trkpt><trkpt lat="45.5169339" lon="9.5909659"><ele>124.0</ele><time>2026-03-29T09:58:59.363Z</time></trkpt><trkpt lat="45.5169483" lon="9.5911233"><ele>123.80000000000001</ele><time>2026-03-29T09:59:00.367Z</time></trkpt><trkpt lat="45.5169563" lon="9.5912719"><ele>123.60000000000001</ele><time>2026-03-29T09:59:01.358Z</time></trkpt><trkpt lat="45.5169659" lon="9.5914302"><ele>123.4</ele><time>2026-03-29T09:59:02.367Z</time></trkpt><trkpt lat="45.5169772" lon="9.5915726"><ele>123.2</ele><time>2026-03-29T09:59:03.354Z</time></trkpt><trkpt lat="45.5169909" lon="9.5917127"><ele>123.0</ele><time>2026-03-29T09:59:04.361Z</time></trkpt><trkpt lat="45.5170035" lon="9.5918512"><ele>123.0</ele><time>2026-03-29T09:59:05.366Z</time></trkpt><trkpt lat="45.5170165" lon="9.592002"><ele>123.0</ele><time>2026-03-29T09:59:06.351Z</time></trkpt><trkpt lat="45.5170305" lon="9.5921632"><ele>123.0</ele><time>2026-03-29T09:59:07.381Z</time></trkpt><trkpt lat="45.5170442" lon="9.5923223"><ele>123.0</ele><time>2026-03-29T09:59:08.361Z</time></trkpt><trkpt lat="45.517059" lon="9.5924922"><ele>123.0</ele><time>2026-03-29T09:59:09.387Z</time></trkpt><trkpt lat="45.5170716" lon="9.5926438"><ele>123.0</ele><time>2026-03-29T09:59:10.366Z</time></trkpt><trkpt lat="45.5170852" lon="9.5927812"><ele>123.0</ele><time>2026-03-29T09:59:11.364Z</time></trkpt><trkpt lat="45.5170962" lon="9.5929044"><ele>123.0</ele><time>2026-03-29T09:59:12.371Z</time></trkpt><trkpt lat="45.5171052" lon="9.5930127"><ele>123.0</ele><time>2026-03-29T09:59:13.37Z</time></trkpt><trkpt lat="45.5171146" lon="9.5931066"><ele>123.0</ele><time>2026-03-29T09:59:14.356Z</time></trkpt><trkpt lat="45.517121" lon="9.593197"><ele>123.0</ele><time>2026-03-29T09:59:15.367Z</time></trkpt><trkpt lat="45.5171248" lon="9.5933575"><ele>123.00000000000001</ele><time>2026-03-29T09:59:17.351Z</time></trkpt><trkpt lat="45.5171214" lon="9.5935091"><ele>123.00000000000001</ele><time>2026-03-29T09:59:19.365Z</time></trkpt><trkpt lat="45.5171364" lon="9.5936552"><ele>123.0</ele><time>2026-03-29T09:59:21.358Z</time></trkpt><trkpt lat="45.5171572" lon="9.5937509"><ele>123.0</ele><time>2026-03-29T09:59:22.358Z</time></trkpt><trkpt lat="45.517173" lon="9.593855"><ele>123.0</ele><time>2026-03-29T09:59:23.358Z</time></trkpt><trkpt lat="45.5171826" lon="9.5939772"><ele>123.00000000000001</ele><time>2026-03-29T09:59:24.357Z</time></trkpt><trkpt lat="45.5171919" lon="9.5941242"><ele>123.00000000000001</ele><time>2026-03-29T09:59:25.372Z</time></trkpt><trkpt lat="45.5172022" lon="9.5942876"><ele>123.0</ele><time>2026-03-29T09:59:26.366Z</time></trkpt><trkpt lat="45.5172179" lon="9.5944749"><ele>123.0</ele><time>2026-03-29T09:59:27.371Z</time></trkpt><trkpt lat="45.5172364" lon="9.5946801"><ele>123.33333333333334</ele><time>2026-03-29T09:59:28.361Z</time></trkpt><trkpt lat="45.5172589" lon="9.5948871"><ele>123.66666666666667</ele><time>2026-03-29T09:59:29.356Z</time></trkpt><trkpt lat="45.5172772" lon="9.5951062"><ele>124.0</ele><time>2026-03-29T09:59:30.375Z</time></trkpt><trkpt lat="45.5172982" lon="9.595327"><ele>124.0</ele><time>2026-03-29T09:59:31.374Z</time></trkpt><trkpt lat="45.5173147" lon="9.5955376"><ele>124.0</ele><time>2026-03-29T09:59:32.369Z</time></trkpt><trkpt lat="45.5173351" lon="9.5957509"><ele>124.0</ele><time>2026-03-29T09:59:33.384Z</time></trkpt><trkpt lat="45.5173527" lon="9.5959526"><ele>124.0</ele><time>2026-03-29T09:59:34.39Z</time></trkpt><trkpt lat="45.5173652" lon="9.5961337"><ele>123.75</ele><time>2026-03-29T09:59:35.365Z</time></trkpt><trkpt lat="45.517378" lon="9.5963173"><ele>123.5</ele><time>2026-03-29T09:59:36.362Z</time></trkpt><trkpt lat="45.5173933" lon="9.5964934"><ele>123.25</ele><time>2026-03-29T09:59:37.381Z</time></trkpt><trkpt lat="45.5174078" lon="9.5966662"><ele>123.0</ele><time>2026-03-29T09:59:38.38Z</time></trkpt><trkpt lat="45.5174209" lon="9.5968486"><ele>123.0</ele><time>2026-03-29T09:59:39.383Z</time></trkpt><trkpt lat="45.5174359" lon="9.5970293"><ele>123.0</ele><time>2026-03-29T09:59:40.361Z</time></trkpt><trkpt lat="45.5174527" lon="9.5972248"><ele>123.0</ele><time>2026-03-29T09:59:41.371Z</time></trkpt><trkpt lat="45.5174676" lon="9.5974152"><ele>123.0</ele><time>2026-03-29T09:59:42.374Z</time></trkpt><trkpt lat="45.5174822" lon="9.5976081"><ele>123.0</ele><time>2026-03-29T09:59:43.368Z</time></trkpt><trkpt lat="45.5175017" lon="9.5978384"><ele>123.0</ele><time>2026-03-29T09:59:44.54Z</time></trkpt><trkpt lat="45.5175318" lon="9.5982104"><ele>123.0</ele><time>2026-03-29T09:59:46.372Z</time></trkpt><trkpt lat="45.5175462" lon="9.5984163"><ele>123.0</ele><time>2026-03-29T09:59:47.364Z</time></trkpt><trkpt lat="45.5175606" lon="9.5986286"><ele>123.0</ele><time>2026-03-29T09:59:48.37Z</time></trkpt><trkpt lat="45.5175786" lon="9.5988373"><ele>123.0</ele><time>2026-03-29T09:59:49.372Z</time></trkpt><trkpt lat="45.5175981" lon="9.5990431"><ele>123.0</ele><time>2026-03-29T09:59:50.364Z</time></trkpt><trkpt lat="45.5176184" lon="9.5992498"><ele>123.0</ele><time>2026-03-29T09:59:51.383Z</time></trkpt><trkpt lat="45.5176356" lon="9.5994385"><ele>123.0</ele><time>2026-03-29T09:59:52.367Z</time></trkpt><trkpt lat="45.5176507" lon="9.5996136"><ele>123.0</ele><time>2026-03-29T09:59:53.372Z</time></trkpt><trkpt lat="45.5176609" lon="9.5997694"><ele>123.0</ele><time>2026-03-29T09:59:54.36Z</time></trkpt><trkpt lat="45.5176568" lon="9.5998893"><ele>123.00000000000001</ele><time>2026-03-29T09:59:55.361Z</time></trkpt><trkpt lat="45.5176392" lon="9.599996"><ele>123.0</ele><time>2026-03-29T09:59:56.37Z</time></trkpt><trkpt lat="45.5176088" lon="9.6000829"><ele>123.00000000000001</ele><time>2026-03-29T09:59:57.36Z</time></trkpt><trkpt lat="45.5175711" lon="9.6001654"><ele>123.00000000000001</ele><time>2026-03-29T09:59:58.378Z</time></trkpt><trkpt lat="45.5175308" lon="9.6002389"><ele>123.0</ele><time>2026-03-29T09:59:59.36Z</time></trkpt><trkpt lat="45.5174893" lon="9.6003307"><ele>123.00000000000001</ele><time>2026-03-29T10:00:00.359Z</time></trkpt><trkpt lat="45.5174501" lon="9.6004333"><ele>123.00000000000001</ele><time>2026-03-29T10:00:01.354Z</time></trkpt><trkpt lat="45.5174162" lon="9.6005467"><ele>122.80000000000001</ele><time>2026-03-29T10:00:02.354Z</time></trkpt><trkpt lat="45.5174383" lon="9.6007246"><ele>122.60000000000001</ele><time>2026-03-29T10:00:04.361Z</time></trkpt><trkpt lat="45.5174824" lon="9.6008155"><ele>122.39999999999999</ele><time>2026-03-29T10:00:05.372Z</time></trkpt><trkpt lat="45.517553" lon="9.6008818"><ele>122.19999999999999</ele><time>2026-03-29T10:00:06.372Z</time></trkpt><trkpt lat="45.5176313" lon="9.6009217"><ele>122.0</ele><time>2026-03-29T10:00:07.359Z</time></trkpt><trkpt lat="45.517711" lon="9.6009527"><ele>122.0</ele><time>2026-03-29T10:00:08.363Z</time></trkpt><trkpt lat="45.5177845" lon="9.6009978"><ele>121.99999999999999</ele><time>2026-03-29T10:00:09.367Z</time></trkpt><trkpt lat="45.5178602" lon="9.601059"><ele>121.99999999999999</ele><time>2026-03-29T10:00:10.355Z</time></trkpt><trkpt lat="45.5179302" lon="9.6011349"><ele>122.0</ele><time>2026-03-29T10:00:11.365Z</time></trkpt><trkpt lat="45.5180104" lon="9.6012375"><ele>122.0</ele><time>2026-03-29T10:00:12.367Z</time></trkpt><trkpt lat="45.5180855" lon="9.6013696"><ele>122.0</ele><time>2026-03-29T10:00:13.362Z</time></trkpt><trkpt lat="45.5181509" lon="9.6015321"><ele>122.0</ele><time>2026-03-29T10:00:14.365Z</time></trkpt><trkpt lat="45.518214" lon="9.6017194"><ele>122.0</ele><time>2026-03-29T10:00:15.375Z</time></trkpt><trkpt lat="45.5182615" lon="9.6019095"><ele>122.0</ele><time>2026-03-29T10:00:16.363Z</time></trkpt><trkpt lat="45.5182958" lon="9.6021525"><ele>122.0</ele><time>2026-03-29T10:00:17.363Z</time></trkpt><trkpt lat="45.5183411" lon="9.6023505"><ele>122.0</ele><time>2026-03-29T10:00:18.369Z</time></trkpt><trkpt lat="45.5183919" lon="9.6025442"><ele>122.0</ele><time>2026-03-29T10:00:19.372Z</time></trkpt><trkpt lat="45.5184461" lon="9.6027455"><ele>122.0</ele><time>2026-03-29T10:00:20.373Z</time></trkpt><trkpt lat="45.518504" lon="9.6029496"><ele>122.25</ele><time>2026-03-29T10:00:21.357Z</time></trkpt><trkpt lat="45.5185618" lon="9.6031421"><ele>122.5</ele><time>2026-03-29T10:00:22.361Z</time></trkpt><trkpt lat="45.5186204" lon="9.6033361"><ele>122.75</ele><time>2026-03-29T10:00:23.358Z</time></trkpt><trkpt lat="45.5186795" lon="9.6035324"><ele>123.0</ele><time>2026-03-29T10:00:24.381Z</time></trkpt><trkpt lat="45.5187333" lon="9.6037141"><ele>123.0</ele><time>2026-03-29T10:00:25.365Z</time></trkpt><trkpt lat="45.5187741" lon="9.6038716"><ele>123.0</ele><time>2026-03-29T10:00:26.363Z</time></trkpt><trkpt lat="45.5188156" lon="9.6040275"><ele>123.0</ele><time>2026-03-29T10:00:27.371Z</time></trkpt><trkpt lat="45.5188593" lon="9.6041739"><ele>123.0</ele><time>2026-03-29T10:00:28.366Z</time></trkpt><trkpt lat="45.518908" lon="9.6043245"><ele>123.0</ele><time>2026-03-29T10:00:29.355Z</time></trkpt><trkpt lat="45.5189602" lon="9.6044906"><ele>123.0</ele><time>2026-03-29T10:00:30.366Z</time></trkpt><trkpt lat="45.5190103" lon="9.6046605"><ele>123.0</ele><time>2026-03-29T10:00:31.364Z</time></trkpt><trkpt lat="45.5190593" lon="9.6048327"><ele>123.0</ele><time>2026-03-29T10:00:32.372Z</time></trkpt><trkpt lat="45.5191104" lon="9.6050039"><ele>123.0</ele><time>2026-03-29T10:00:33.367Z</time></trkpt><trkpt lat="45.5191602" lon="9.6051738"><ele>123.0</ele><time>2026-03-29T10:00:34.358Z</time></trkpt><trkpt lat="45.5192107" lon="9.6053484"><ele>123.0</ele><time>2026-03-29T10:00:35.373Z</time></trkpt><trkpt lat="45.519264" lon="9.6055254"><ele>123.0</ele><time>2026-03-29T10:00:36.375Z</time></trkpt><trkpt lat="45.5193139" lon="9.6057019"><ele>122.80000000000001</ele><time>2026-03-29T10:00:37.381Z</time></trkpt><trkpt lat="45.5193659" lon="9.6058871"><ele>122.60000000000001</ele><time>2026-03-29T10:00:38.359Z</time></trkpt><trkpt lat="45.5194123" lon="9.6060551"><ele>122.39999999999999</ele><time>2026-03-29T10:00:39.371Z</time></trkpt><trkpt lat="45.5194401" lon="9.6061787"><ele>122.19999999999999</ele><time>2026-03-29T10:00:40.378Z</time></trkpt><trkpt lat="45.5194436" lon="9.6062768"><ele>122.0</ele><time>2026-03-29T10:00:41.373Z</time></trkpt><trkpt lat="45.5194289" lon="9.6063784"><ele>121.99999999999999</ele><time>2026-03-29T10:00:42.361Z</time></trkpt><trkpt lat="45.5193994" lon="9.6064793"><ele>122.0</ele><time>2026-03-29T10:00:43.365Z</time></trkpt><trkpt lat="45.5193799" lon="9.6065923"><ele>122.0</ele><time>2026-03-29T10:00:44.38Z</time></trkpt><trkpt lat="45.5193788" lon="9.606703"><ele>122.0</ele><time>2026-03-29T10:00:45.356Z</time></trkpt><trkpt lat="45.5194053" lon="9.6068182"><ele>121.99999999999999</ele><time>2026-03-29T10:00:46.369Z</time></trkpt><trkpt lat="45.5194703" lon="9.6068862"><ele>122.0</ele><time>2026-03-29T10:00:47.363Z</time></trkpt><trkpt lat="45.5195859" lon="9.606859"><ele>122.0</ele><time>2026-03-29T10:00:48.361Z</time></trkpt><trkpt lat="45.5196855" lon="9.6068004"><ele>121.99999999999999</ele><time>2026-03-29T10:00:49.368Z</time></trkpt><trkpt lat="45.5197658" lon="9.6067027"><ele>121.99999999999999</ele><time>2026-03-29T10:00:50.356Z</time></trkpt><trkpt lat="45.519839" lon="9.606598"><ele>122.0</ele><time>2026-03-29T10:00:51.373Z</time></trkpt><trkpt lat="45.519929" lon="9.6065178"><ele>122.0</ele><time>2026-03-29T10:00:52.368Z</time></trkpt><trkpt lat="45.5200423" lon="9.6064549"><ele>122.0</ele><time>2026-03-29T10:00:53.388Z</time></trkpt><trkpt lat="45.5201579" lon="9.606403"><ele>122.0</ele><time>2026-03-29T10:00:54.363Z</time></trkpt><trkpt lat="45.5202786" lon="9.6063423"><ele>122.0</ele><time>2026-03-29T10:00:55.372Z</time></trkpt><trkpt lat="45.5204044" lon="9.6062904"><ele>122.0</ele><time>2026-03-29T10:00:56.362Z</time></trkpt><trkpt lat="45.520685" lon="9.6061954"><ele>122.5</ele><time>2026-03-29T10:00:58.357Z</time></trkpt><trkpt lat="45.5208256" lon="9.6061535"><ele>123.0</ele><time>2026-03-29T10:00:59.363Z</time></trkpt><trkpt lat="45.5209597" lon="9.6061139"><ele>123.5</ele><time>2026-03-29T10:01:00.361Z</time></trkpt><trkpt lat="45.5210862" lon="9.6060662"><ele>124.0</ele><time>2026-03-29T10:01:01.375Z</time></trkpt><trkpt lat="45.5211998" lon="9.6060312"><ele>124.0</ele><time>2026-03-29T10:01:02.377Z</time></trkpt><trkpt lat="45.5212894" lon="9.6060106"><ele>124.0</ele><time>2026-03-29T10:01:03.353Z</time></trkpt><trkpt lat="45.5213617" lon="9.6060094"><ele>124.0</ele><time>2026-03-29T10:01:04.369Z</time></trkpt><trkpt lat="45.521482" lon="9.6059992"><ele>124.0</ele><time>2026-03-29T10:01:06.369Z</time></trkpt><trkpt lat="45.5215846" lon="9.6059745"><ele>124.0</ele><time>2026-03-29T10:01:08.362Z</time></trkpt><trkpt lat="45.5216569" lon="9.6059629"><ele>124.0</ele><time>2026-03-29T10:01:11.361Z</time></trkpt><trkpt lat="45.5217582" lon="9.6059442"><ele>124.0</ele><time>2026-03-29T10:01:15.369Z</time></trkpt><trkpt lat="45.5218806" lon="9.6059173"><ele>124.0</ele><time>2026-03-29T10:01:17.362Z</time></trkpt><trkpt lat="45.522002" lon="9.6059492"><ele>124.0</ele><time>2026-03-29T10:01:19.368Z</time></trkpt><trkpt lat="45.5220614" lon="9.605985"><ele>124.0</ele><time>2026-03-29T10:01:20.371Z</time></trkpt><trkpt lat="45.5221297" lon="9.6060577"><ele>124.0</ele><time>2026-03-29T10:01:21.358Z</time></trkpt><trkpt lat="45.522182" lon="9.6061609"><ele>124.0</ele><time>2026-03-29T10:01:22.366Z</time></trkpt><trkpt lat="45.5222199" lon="9.6062976"><ele>124.0</ele><time>2026-03-29T10:01:23.356Z</time></trkpt><trkpt lat="45.5222572" lon="9.6064627"><ele>124.0</ele><time>2026-03-29T10:01:24.355Z</time></trkpt><trkpt lat="45.5222936" lon="9.6066553"><ele>124.0</ele><time>2026-03-29T10:01:25.368Z</time></trkpt><trkpt lat="45.522335" lon="9.6068593"><ele>124.0</ele><time>2026-03-29T10:01:26.36Z</time></trkpt><trkpt lat="45.5223849" lon="9.6070763"><ele>124.0</ele><time>2026-03-29T10:01:27.364Z</time></trkpt><trkpt lat="45.5224334" lon="9.6072974"><ele>124.0</ele><time>2026-03-29T10:01:28.385Z</time></trkpt><trkpt lat="45.5224768" lon="9.6075163"><ele>124.0</ele><time>2026-03-29T10:01:29.372Z</time></trkpt><trkpt lat="45.522507" lon="9.6077392"><ele>124.0</ele><time>2026-03-29T10:01:30.364Z</time></trkpt><trkpt lat="45.5225203" lon="9.6079738"><ele>123.66666666666667</ele><time>2026-03-29T10:01:31.372Z</time></trkpt><trkpt lat="45.522526" lon="9.6082093"><ele>123.33333333333334</ele><time>2026-03-29T10:01:32.378Z</time></trkpt><trkpt lat="45.5225298" lon="9.6084518"><ele>123.0</ele><time>2026-03-29T10:01:33.376Z</time></trkpt><trkpt lat="45.5225254" lon="9.6086904"><ele>123.0</ele><time>2026-03-29T10:01:34.377Z</time></trkpt><trkpt lat="45.5225106" lon="9.6089237"><ele>123.0</ele><time>2026-03-29T10:01:35.357Z</time></trkpt><trkpt lat="45.5224811" lon="9.6091593"><ele>123.0</ele><time>2026-03-29T10:01:36.369Z</time></trkpt><trkpt lat="45.5224386" lon="9.6093904"><ele>122.66666666666666</ele><time>2026-03-29T10:01:37.375Z</time></trkpt><trkpt lat="45.5223987" lon="9.6096276"><ele>122.33333333333333</ele><time>2026-03-29T10:01:38.362Z</time></trkpt><trkpt lat="45.5223721" lon="9.6098807"><ele>122.0</ele><time>2026-03-29T10:01:39.372Z</time></trkpt><trkpt lat="45.5223719" lon="9.6101109"><ele>122.0</ele><time>2026-03-29T10:01:40.391Z</time></trkpt><trkpt lat="45.5223835" lon="9.6103489"><ele>122.0</ele><time>2026-03-29T10:01:41.361Z</time></trkpt><trkpt lat="45.5224128" lon="9.6106078"><ele>122.0</ele><time>2026-03-29T10:01:42.4Z</time></trkpt><trkpt lat="45.5224501" lon="9.6108481"><ele>122.0</ele><time>2026-03-29T10:01:43.358Z</time></trkpt><trkpt lat="45.5224897" lon="9.6110818"><ele>122.0</ele><time>2026-03-29T10:01:44.373Z</time></trkpt><trkpt lat="45.5225381" lon="9.6113172"><ele>122.0</ele><time>2026-03-29T10:01:45.358Z</time></trkpt><trkpt lat="45.5226026" lon="9.6115525"><ele>121.66666666666666</ele><time>2026-03-29T10:01:46.368Z</time></trkpt><trkpt lat="45.5226788" lon="9.6117846"><ele>121.33333333333334</ele><time>2026-03-29T10:01:47.398Z</time></trkpt><trkpt lat="45.5227547" lon="9.6120007"><ele>121.0</ele><time>2026-03-29T10:01:48.37Z</time></trkpt><trkpt lat="45.5228327" lon="9.612216"><ele>121.33333333333334</ele><time>2026-03-29T10:01:49.359Z</time></trkpt><trkpt lat="45.5229116" lon="9.6124298"><ele>121.66666666666666</ele><time>2026-03-29T10:01:50.363Z</time></trkpt><trkpt lat="45.522972" lon="9.6126302"><ele>122.0</ele><time>2026-03-29T10:01:51.366Z</time></trkpt><trkpt lat="45.5230211" lon="9.6128286"><ele>122.5</ele><time>2026-03-29T10:01:52.358Z</time></trkpt><trkpt lat="45.5230593" lon="9.6130314"><ele>123.0</ele><time>2026-03-29T10:01:53.361Z</time></trkpt><trkpt lat="45.5230841" lon="9.6132351"><ele>123.5</ele><time>2026-03-29T10:01:54.368Z</time></trkpt><trkpt lat="45.5230953" lon="9.613455"><ele>124.0</ele><time>2026-03-29T10:01:55.369Z</time></trkpt><trkpt lat="45.5230985" lon="9.6136623"><ele>124.0</ele><time>2026-03-29T10:01:56.37Z</time></trkpt><trkpt lat="45.5231024" lon="9.6138674"><ele>124.0</ele><time>2026-03-29T10:01:57.36Z</time></trkpt><trkpt lat="45.5231064" lon="9.6140741"><ele>124.0</ele><time>2026-03-29T10:01:58.364Z</time></trkpt><trkpt lat="45.5231123" lon="9.6142674"><ele>124.0</ele><time>2026-03-29T10:01:59.362Z</time></trkpt><trkpt lat="45.5231229" lon="9.6144535"><ele>124.0</ele><time>2026-03-29T10:02:00.373Z</time></trkpt><trkpt lat="45.5231364" lon="9.6146226"><ele>124.0</ele><time>2026-03-29T10:02:01.371Z</time></trkpt><trkpt lat="45.5231517" lon="9.6147697"><ele>124.0</ele><time>2026-03-29T10:02:02.374Z</time></trkpt><trkpt lat="45.5231656" lon="9.6148947"><ele>124.0</ele><time>2026-03-29T10:02:03.355Z</time></trkpt><trkpt lat="45.5231782" lon="9.6150125"><ele>124.0</ele><time>2026-03-29T10:02:04.361Z</time></trkpt><trkpt lat="45.5231902" lon="9.6151071"><ele>124.00000000000001</ele><time>2026-03-29T10:02:05.374Z</time></trkpt><trkpt lat="45.5232092" lon="9.6152487"><ele>124.0</ele><time>2026-03-29T10:02:07.388Z</time></trkpt><trkpt lat="45.5232318" lon="9.6153942"><ele>124.0</ele><time>2026-03-29T10:02:09.377Z</time></trkpt><trkpt lat="45.5232482" lon="9.6154864"><ele>124.0</ele><time>2026-03-29T10:02:10.39Z</time></trkpt><trkpt lat="45.5232696" lon="9.6155934"><ele>124.00000000000001</ele><time>2026-03-29T10:02:11.361Z</time></trkpt><trkpt lat="45.5232903" lon="9.61571"><ele>124.0</ele><time>2026-03-29T10:02:12.372Z</time></trkpt><trkpt lat="45.5233126" lon="9.6158465"><ele>124.0</ele><time>2026-03-29T10:02:13.373Z</time></trkpt><trkpt lat="45.523339" lon="9.6159996"><ele>124.0</ele><time>2026-03-29T10:02:14.364Z</time></trkpt><trkpt lat="45.5233664" lon="9.6161632"><ele>124.0</ele><time>2026-03-29T10:02:15.364Z</time></trkpt><trkpt lat="45.5233997" lon="9.6163391"><ele>124.0</ele><time>2026-03-29T10:02:16.373Z</time></trkpt><trkpt lat="45.5234366" lon="9.6165135"><ele>124.0</ele><time>2026-03-29T10:02:17.365Z</time></trkpt><trkpt lat="45.5234786" lon="9.6166786"><ele>124.0</ele><time>2026-03-29T10:02:18.367Z</time></trkpt><trkpt lat="45.5235225" lon="9.616833"><ele>124.0</ele><time>2026-03-29T10:02:19.371Z</time></trkpt><trkpt lat="45.523569" lon="9.6169834"><ele>124.0</ele><time>2026-03-29T10:02:20.367Z</time></trkpt><trkpt lat="45.5236139" lon="9.6171311"><ele>124.0</ele><time>2026-03-29T10:02:21.384Z</time></trkpt><trkpt lat="45.5236561" lon="9.617293"><ele>124.0</ele><time>2026-03-29T10:02:22.362Z</time></trkpt><trkpt lat="45.5236915" lon="9.6174669"><ele>124.0</ele><time>2026-03-29T10:02:23.37Z</time></trkpt><trkpt lat="45.5237199" lon="9.6176418"><ele>124.0</ele><time>2026-03-29T10:02:24.38Z</time></trkpt><trkpt lat="45.5237392" lon="9.6178279"><ele>124.0</ele><time>2026-03-29T10:02:25.364Z</time></trkpt><trkpt lat="45.5237583" lon="9.6180277"><ele>124.0</ele><time>2026-03-29T10:02:26.354Z</time></trkpt><trkpt lat="45.5237749" lon="9.6182375"><ele>124.0</ele><time>2026-03-29T10:02:27.366Z</time></trkpt><trkpt lat="45.5237917" lon="9.6184519"><ele>124.0</ele><time>2026-03-29T10:02:28.369Z</time></trkpt><trkpt lat="45.5238061" lon="9.6186778"><ele>124.0</ele><time>2026-03-29T10:02:29.372Z</time></trkpt><trkpt lat="45.5238208" lon="9.6189189"><ele>124.0</ele><time>2026-03-29T10:02:30.371Z</time></trkpt><trkpt lat="45.5238346" lon="9.6191643"><ele>124.0</ele><time>2026-03-29T10:02:31.371Z</time></trkpt><trkpt lat="45.5238464" lon="9.6194166"><ele>123.66666666666667</ele><time>2026-03-29T10:02:32.365Z</time></trkpt><trkpt lat="45.5238515" lon="9.6196728"><ele>123.33333333333334</ele><time>2026-03-29T10:02:33.366Z</time></trkpt><trkpt lat="45.5238559" lon="9.6199345"><ele>123.0</ele><time>2026-03-29T10:02:34.373Z</time></trkpt><trkpt lat="45.5238611" lon="9.6201885"><ele>123.0</ele><time>2026-03-29T10:02:35.369Z</time></trkpt><trkpt lat="45.5238649" lon="9.6204398"><ele>123.0</ele><time>2026-03-29T10:02:36.387Z</time></trkpt><trkpt lat="45.5238739" lon="9.620665"><ele>123.0</ele><time>2026-03-29T10:02:37.375Z</time></trkpt><trkpt lat="45.5238817" lon="9.6208886"><ele>123.0</ele><time>2026-03-29T10:02:38.372Z</time></trkpt><trkpt lat="45.5238852" lon="9.6211096"><ele>123.0</ele><time>2026-03-29T10:02:39.375Z</time></trkpt><trkpt lat="45.5238865" lon="9.6213244"><ele>123.0</ele><time>2026-03-29T10:02:40.36Z</time></trkpt><trkpt lat="45.5238916" lon="9.6215465"><ele>123.33333333333334</ele><time>2026-03-29T10:02:41.371Z</time></trkpt><trkpt lat="45.5238974" lon="9.6217608"><ele>123.66666666666667</ele><time>2026-03-29T10:02:42.379Z</time></trkpt><trkpt lat="45.5239081" lon="9.621974"><ele>124.0</ele><time>2026-03-29T10:02:43.368Z</time></trkpt><trkpt lat="45.5239277" lon="9.622196"><ele>123.33333333333334</ele><time>2026-03-29T10:02:44.386Z</time></trkpt><trkpt lat="45.5239512" lon="9.6224111"><ele>122.66666666666666</ele><time>2026-03-29T10:02:45.368Z</time></trkpt><trkpt lat="45.5239792" lon="9.6226315"><ele>122.0</ele><time>2026-03-29T10:02:46.376Z</time></trkpt><trkpt lat="45.5240094" lon="9.6228496"><ele>122.0</ele><time>2026-03-29T10:02:47.353Z</time></trkpt><trkpt lat="45.5240465" lon="9.6230771"><ele>122.0</ele><time>2026-03-29T10:02:48.362Z</time></trkpt><trkpt lat="45.5240853" lon="9.6232939"><ele>122.0</ele><time>2026-03-29T10:02:49.37Z</time></trkpt><trkpt lat="45.5241142" lon="9.6234991"><ele>122.5</ele><time>2026-03-29T10:02:50.366Z</time></trkpt><trkpt lat="45.5241385" lon="9.623701"><ele>123.0</ele><time>2026-03-29T10:02:51.383Z</time></trkpt><trkpt lat="45.5241607" lon="9.6239007"><ele>123.5</ele><time>2026-03-29T10:02:52.377Z</time></trkpt><trkpt lat="45.5241738" lon="9.6240904"><ele>124.0</ele><time>2026-03-29T10:02:53.383Z</time></trkpt><trkpt lat="45.5241732" lon="9.6242798"><ele>123.66666666666667</ele><time>2026-03-29T10:02:54.391Z</time></trkpt><trkpt lat="45.5241641" lon="9.6244798"><ele>123.33333333333334</ele><time>2026-03-29T10:02:55.361Z</time></trkpt><trkpt lat="45.5241491" lon="9.6247168"><ele>123.0</ele><time>2026-03-29T10:02:56.37Z</time></trkpt><trkpt lat="45.5241246" lon="9.6249882"><ele>123.0</ele><time>2026-03-29T10:02:57.368Z</time></trkpt><trkpt lat="45.5241017" lon="9.6252864"><ele>123.0</ele><time>2026-03-29T10:02:58.373Z</time></trkpt><trkpt lat="45.5240697" lon="9.6256078"><ele>123.0</ele><time>2026-03-29T10:02:59.358Z</time></trkpt><trkpt lat="45.524051" lon="9.6259599"><ele>122.0</ele><time>2026-03-29T10:03:00.357Z</time></trkpt><trkpt lat="45.5240047" lon="9.6263644"><ele>121.0</ele><time>2026-03-29T10:03:01.367Z</time></trkpt><trkpt lat="45.5239752" lon="9.6267406"><ele>121.0</ele><time>2026-03-29T10:03:02.372Z</time></trkpt><trkpt lat="45.5239286" lon="9.6271094"><ele>121.0</ele><time>2026-03-29T10:03:03.366Z</time></trkpt><trkpt lat="45.5238848" lon="9.6274698"><ele>120.5</ele><time>2026-03-29T10:03:04.356Z</time></trkpt><trkpt lat="45.5238475" lon="9.6278285"><ele>120.0</ele><time>2026-03-29T10:03:05.375Z</time></trkpt><trkpt lat="45.5238141" lon="9.6281675"><ele>120.0</ele><time>2026-03-29T10:03:06.385Z</time></trkpt><trkpt lat="45.5237823" lon="9.6284949"><ele>120.0</ele><time>2026-03-29T10:03:07.385Z</time></trkpt><trkpt lat="45.5237568" lon="9.6288041"><ele>120.0</ele><time>2026-03-29T10:03:08.365Z</time></trkpt><trkpt lat="45.5237309" lon="9.6291022"><ele>120.0</ele><time>2026-03-29T10:03:09.363Z</time></trkpt><trkpt lat="45.5237031" lon="9.6293879"><ele>120.0</ele><time>2026-03-29T10:03:10.372Z</time></trkpt><trkpt lat="45.5236706" lon="9.6296561"><ele>120.0</ele><time>2026-03-29T10:03:11.367Z</time></trkpt><trkpt lat="45.5236306" lon="9.6299176"><ele>120.0</ele><time>2026-03-29T10:03:12.372Z</time></trkpt><trkpt lat="45.5235869" lon="9.63018"><ele>120.0</ele><time>2026-03-29T10:03:13.364Z</time></trkpt><trkpt lat="45.523541" lon="9.6304536"><ele>120.0</ele><time>2026-03-29T10:03:14.388Z</time></trkpt><trkpt lat="45.5234941" lon="9.6307156"><ele>120.0</ele><time>2026-03-29T10:03:15.369Z</time></trkpt><trkpt lat="45.5234532" lon="9.6309773"><ele>120.0</ele><time>2026-03-29T10:03:16.357Z</time></trkpt><trkpt lat="45.5234149" lon="9.6312351"><ele>120.0</ele><time>2026-03-29T10:03:17.36Z</time></trkpt><trkpt lat="45.5233868" lon="9.6314934"><ele>120.0</ele><time>2026-03-29T10:03:18.359Z</time></trkpt><trkpt lat="45.5233769" lon="9.6317705"><ele>120.0</ele><time>2026-03-29T10:03:19.4Z</time></trkpt><trkpt lat="45.5233921" lon="9.6320112"><ele>120.0</ele><time>2026-03-29T10:03:20.37Z</time></trkpt><trkpt lat="45.5234157" lon="9.6322845"><ele>120.0</ele><time>2026-03-29T10:03:21.384Z</time></trkpt><trkpt lat="45.5234457" lon="9.6325549"><ele>120.0</ele><time>2026-03-29T10:03:22.365Z</time></trkpt><trkpt lat="45.5234751" lon="9.6328288"><ele>120.33333333333334</ele><time>2026-03-29T10:03:23.357Z</time></trkpt><trkpt lat="45.5235074" lon="9.6331104"><ele>120.66666666666667</ele><time>2026-03-29T10:03:24.379Z</time></trkpt><trkpt lat="45.5235354" lon="9.6333803"><ele>121.0</ele><time>2026-03-29T10:03:25.37Z</time></trkpt><trkpt lat="45.5235643" lon="9.6336533"><ele>121.66666666666667</ele><time>2026-03-29T10:03:26.395Z</time></trkpt><trkpt lat="45.5235933" lon="9.6339097"><ele>122.33333333333334</ele><time>2026-03-29T10:03:27.369Z</time></trkpt><trkpt lat="45.5236201" lon="9.6341686"><ele>123.0</ele><time>2026-03-29T10:03:28.36Z</time></trkpt><trkpt lat="45.5236469" lon="9.6344305"><ele>122.66666666666666</ele><time>2026-03-29T10:03:29.364Z</time></trkpt><trkpt lat="45.5236738" lon="9.6346945"><ele>122.33333333333333</ele><time>2026-03-29T10:03:30.376Z</time></trkpt><trkpt lat="45.5236997" lon="9.6349541"><ele>122.0</ele><time>2026-03-29T10:03:31.366Z</time></trkpt><trkpt lat="45.5237275" lon="9.6352161"><ele>121.66666666666666</ele><time>2026-03-29T10:03:32.385Z</time></trkpt><trkpt lat="45.5237559" lon="9.6354649"><ele>121.33333333333334</ele><time>2026-03-29T10:03:33.364Z</time></trkpt><trkpt lat="45.5237875" lon="9.635715"><ele>121.0</ele><time>2026-03-29T10:03:34.36Z</time></trkpt><trkpt lat="45.5238169" lon="9.6359691"><ele>121.33333333333334</ele><time>2026-03-29T10:03:35.377Z</time></trkpt><trkpt lat="45.5238468" lon="9.6362132"><ele>121.66666666666666</ele><time>2026-03-29T10:03:36.362Z</time></trkpt><trkpt lat="45.5238802" lon="9.6364754"><ele>122.0</ele><time>2026-03-29T10:03:37.406Z</time></trkpt><trkpt lat="45.5239093" lon="9.6367127"><ele>122.0</ele><time>2026-03-29T10:03:38.362Z</time></trkpt><trkpt lat="45.5239389" lon="9.6369609"><ele>122.0</ele><time>2026-03-29T10:03:39.362Z</time></trkpt><trkpt lat="45.5239671" lon="9.6371946"><ele>122.0</ele><time>2026-03-29T10:03:40.36Z</time></trkpt><trkpt lat="45.5239898" lon="9.6374141"><ele>122.0</ele><time>2026-03-29T10:03:41.358Z</time></trkpt><trkpt lat="45.5240113" lon="9.6376433"><ele>122.0</ele><time>2026-03-29T10:03:42.4Z</time></trkpt><trkpt lat="45.5240301" lon="9.6378569"><ele>122.0</ele><time>2026-03-29T10:03:43.369Z</time></trkpt><trkpt lat="45.5240517" lon="9.6380815"><ele>122.0</ele><time>2026-03-29T10:03:44.378Z</time></trkpt><trkpt lat="45.5240725" lon="9.6383019"><ele>122.0</ele><time>2026-03-29T10:03:45.365Z</time></trkpt><trkpt lat="45.5240927" lon="9.6385111"><ele>122.0</ele><time>2026-03-29T10:03:46.37Z</time></trkpt><trkpt lat="45.524109" lon="9.6387184"><ele>122.0</ele><time>2026-03-29T10:03:47.373Z</time></trkpt><trkpt lat="45.5241387" lon="9.638922"><ele>122.0</ele><time>2026-03-29T10:03:48.355Z</time></trkpt><trkpt lat="45.5241697" lon="9.6391529"><ele>122.0</ele><time>2026-03-29T10:03:49.375Z</time></trkpt><trkpt lat="45.5242042" lon="9.6393555"><ele>122.25</ele><time>2026-03-29T10:03:50.371Z</time></trkpt><trkpt lat="45.5242423" lon="9.6395636"><ele>122.5</ele><time>2026-03-29T10:03:51.367Z</time></trkpt><trkpt lat="45.5242719" lon="9.6397634"><ele>122.75</ele><time>2026-03-29T10:03:52.37Z</time></trkpt><trkpt lat="45.5242969" lon="9.63996"><ele>123.0</ele><time>2026-03-29T10:03:53.359Z</time></trkpt><trkpt lat="45.5243208" lon="9.6401536"><ele>123.25</ele><time>2026-03-29T10:03:54.378Z</time></trkpt><trkpt lat="45.5243473" lon="9.6403418"><ele>123.5</ele><time>2026-03-29T10:03:55.357Z</time></trkpt><trkpt lat="45.5243755" lon="9.6405417"><ele>123.75</ele><time>2026-03-29T10:03:56.369Z</time></trkpt><trkpt lat="45.5244054" lon="9.6407428"><ele>124.0</ele><time>2026-03-29T10:03:57.368Z</time></trkpt><trkpt lat="45.5244413" lon="9.6409475"><ele>123.66666666666667</ele><time>2026-03-29T10:03:58.357Z</time></trkpt><trkpt lat="45.5244859" lon="9.6411635"><ele>123.33333333333334</ele><time>2026-03-29T10:03:59.378Z</time></trkpt><trkpt lat="45.5245308" lon="9.6413772"><ele>123.0</ele><time>2026-03-29T10:04:00.37Z</time></trkpt><trkpt lat="45.524577" lon="9.6415899"><ele>123.0</ele><time>2026-03-29T10:04:01.362Z</time></trkpt><trkpt lat="45.5246239" lon="9.6418082"><ele>123.0</ele><time>2026-03-29T10:04:02.366Z</time></trkpt><trkpt lat="45.5246638" lon="9.6420269"><ele>123.0</ele><time>2026-03-29T10:04:03.376Z</time></trkpt><trkpt lat="45.5246964" lon="9.6422536"><ele>123.0</ele><time>2026-03-29T10:04:04.406Z</time></trkpt><trkpt lat="45.5247225" lon="9.6424624"><ele>123.0</ele><time>2026-03-29T10:04:05.371Z</time></trkpt><trkpt lat="45.5247474" lon="9.6426784"><ele>123.0</ele><time>2026-03-29T10:04:06.371Z</time></trkpt><trkpt lat="45.5247699" lon="9.6428957"><ele>123.0</ele><time>2026-03-29T10:04:07.363Z</time></trkpt><trkpt lat="45.5247908" lon="9.6431106"><ele>123.0</ele><time>2026-03-29T10:04:08.367Z</time></trkpt><trkpt lat="45.5248144" lon="9.6433361"><ele>123.0</ele><time>2026-03-29T10:04:09.412Z</time></trkpt><trkpt lat="45.5248424" lon="9.6435481"><ele>122.66666666666666</ele><time>2026-03-29T10:04:10.376Z</time></trkpt><trkpt lat="45.5248684" lon="9.6437665"><ele>122.33333333333333</ele><time>2026-03-29T10:04:11.375Z</time></trkpt><trkpt lat="45.5248951" lon="9.6439887"><ele>122.0</ele><time>2026-03-29T10:04:12.374Z</time></trkpt><trkpt lat="45.524923" lon="9.6442114"><ele>122.0</ele><time>2026-03-29T10:04:13.37Z</time></trkpt><trkpt lat="45.5249488" lon="9.6444349"><ele>122.0</ele><time>2026-03-29T10:04:14.364Z</time></trkpt><trkpt lat="45.5249719" lon="9.6446643"><ele>122.0</ele><time>2026-03-29T10:04:15.369Z</time></trkpt><trkpt lat="45.5249939" lon="9.6448966"><ele>122.0</ele><time>2026-03-29T10:04:16.381Z</time></trkpt><trkpt lat="45.5250158" lon="9.6451263"><ele>122.0</ele><time>2026-03-29T10:04:17.36Z</time></trkpt><trkpt lat="45.5250383" lon="9.6453664"><ele>122.0</ele><time>2026-03-29T10:04:18.372Z</time></trkpt><trkpt lat="45.5250589" lon="9.6456069"><ele>121.33333333333333</ele><time>2026-03-29T10:04:19.36Z</time></trkpt><trkpt lat="45.5250792" lon="9.6458549"><ele>120.66666666666666</ele><time>2026-03-29T10:04:20.362Z</time></trkpt><trkpt lat="45.5251021" lon="9.6461091"><ele>120.0</ele><time>2026-03-29T10:04:21.376Z</time></trkpt><trkpt lat="45.5251275" lon="9.646361"><ele>120.0</ele><time>2026-03-29T10:04:22.361Z</time></trkpt><trkpt lat="45.5251556" lon="9.6466362"><ele>120.0</ele><time>2026-03-29T10:04:23.41Z</time></trkpt><trkpt lat="45.5251845" lon="9.6468902"><ele>120.0</ele><time>2026-03-29T10:04:24.364Z</time></trkpt><trkpt lat="45.5252202" lon="9.6471626"><ele>120.0</ele><time>2026-03-29T10:04:25.367Z</time></trkpt><trkpt lat="45.5252626" lon="9.6474337"><ele>120.0</ele><time>2026-03-29T10:04:26.369Z</time></trkpt><trkpt lat="45.5253077" lon="9.6476982"><ele>120.0</ele><time>2026-03-29T10:04:27.372Z</time></trkpt><trkpt lat="45.5253517" lon="9.6479473"><ele>120.33333333333334</ele><time>2026-03-29T10:04:28.359Z</time></trkpt><trkpt lat="45.5253979" lon="9.6482054"><ele>120.66666666666667</ele><time>2026-03-29T10:04:29.367Z</time></trkpt><trkpt lat="45.5254402" lon="9.6484595"><ele>121.0</ele><time>2026-03-29T10:04:30.398Z</time></trkpt><trkpt lat="45.5254829" lon="9.6486966"><ele>121.0</ele><time>2026-03-29T10:04:31.368Z</time></trkpt><trkpt lat="45.5255293" lon="9.6489329"><ele>121.0</ele><time>2026-03-29T10:04:32.368Z</time></trkpt><trkpt lat="45.5255784" lon="9.6491638"><ele>121.0</ele><time>2026-03-29T10:04:33.373Z</time></trkpt><trkpt lat="45.525628" lon="9.6493903"><ele>120.66666666666667</ele><time>2026-03-29T10:04:34.37Z</time></trkpt><trkpt lat="45.5256833" lon="9.6496158"><ele>120.33333333333334</ele><time>2026-03-29T10:04:35.374Z</time></trkpt><trkpt lat="45.5257443" lon="9.6498377"><ele>120.0</ele><time>2026-03-29T10:04:36.382Z</time></trkpt><trkpt lat="45.5258175" lon="9.650061"><ele>120.0</ele><time>2026-03-29T10:04:37.383Z</time></trkpt><trkpt lat="45.5258952" lon="9.6502693"><ele>120.0</ele><time>2026-03-29T10:04:38.377Z</time></trkpt><trkpt lat="45.5259864" lon="9.650488"><ele>120.0</ele><time>2026-03-29T10:04:39.402Z</time></trkpt><trkpt lat="45.5260788" lon="9.6506936"><ele>120.0</ele><time>2026-03-29T10:04:40.37Z</time></trkpt><trkpt lat="45.5261772" lon="9.6509054"><ele>120.0</ele><time>2026-03-29T10:04:41.369Z</time></trkpt><trkpt lat="45.5262788" lon="9.6511163"><ele>120.0</ele><time>2026-03-29T10:04:42.379Z</time></trkpt><trkpt lat="45.5263713" lon="9.6513073"><ele>119.33333333333334</ele><time>2026-03-29T10:04:43.368Z</time></trkpt><trkpt lat="45.526467" lon="9.6514994"><ele>118.66666666666667</ele><time>2026-03-29T10:04:44.361Z</time></trkpt><trkpt lat="45.5265594" lon="9.6516803"><ele>118.0</ele><time>2026-03-29T10:04:45.39Z</time></trkpt><trkpt lat="45.5266488" lon="9.6518598"><ele>118.0</ele><time>2026-03-29T10:04:46.375Z</time></trkpt><trkpt lat="45.5267384" lon="9.6520488"><ele>118.0</ele><time>2026-03-29T10:04:47.381Z</time></trkpt><trkpt lat="45.5268315" lon="9.6522313"><ele>118.0</ele><time>2026-03-29T10:04:48.372Z</time></trkpt><trkpt lat="45.5269296" lon="9.6524286"><ele>118.0</ele><time>2026-03-29T10:04:49.37Z</time></trkpt><trkpt lat="45.5270272" lon="9.6526326"><ele>118.0</ele><time>2026-03-29T10:04:50.379Z</time></trkpt><trkpt lat="45.5271226" lon="9.6528283"><ele>118.0</ele><time>2026-03-29T10:04:51.386Z</time></trkpt><trkpt lat="45.5272193" lon="9.6530256"><ele>118.0</ele><time>2026-03-29T10:04:52.369Z</time></trkpt><trkpt lat="45.5273156" lon="9.6532244"><ele>118.0</ele><time>2026-03-29T10:04:53.379Z</time></trkpt><trkpt lat="45.5274118" lon="9.6534208"><ele>118.0</ele><time>2026-03-29T10:04:54.366Z</time></trkpt><trkpt lat="45.5275079" lon="9.6536253"><ele>118.33333333333334</ele><time>2026-03-29T10:04:55.369Z</time></trkpt><trkpt lat="45.5276074" lon="9.6538271"><ele>118.66666666666666</ele><time>2026-03-29T10:04:56.374Z</time></trkpt><trkpt lat="45.5277051" lon="9.6540313"><ele>119.0</ele><time>2026-03-29T10:04:57.36Z</time></trkpt><trkpt lat="45.5278021" lon="9.6542447"><ele>119.0</ele><time>2026-03-29T10:04:58.384Z</time></trkpt><trkpt lat="45.5278883" lon="9.6544587"><ele>119.0</ele><time>2026-03-29T10:04:59.364Z</time></trkpt><trkpt lat="45.5279715" lon="9.6546983"><ele>119.0</ele><time>2026-03-29T10:05:00.41Z</time></trkpt><trkpt lat="45.5280424" lon="9.654919"><ele>119.0</ele><time>2026-03-29T10:05:01.375Z</time></trkpt><trkpt lat="45.5281212" lon="9.6551529"><ele>119.0</ele><time>2026-03-29T10:05:02.382Z</time></trkpt><trkpt lat="45.5281912" lon="9.6553881"><ele>119.0</ele><time>2026-03-29T10:05:03.383Z</time></trkpt><trkpt lat="45.5282564" lon="9.6556213"><ele>119.66666666666666</ele><time>2026-03-29T10:05:04.374Z</time></trkpt><trkpt lat="45.5283138" lon="9.6558614"><ele>120.33333333333334</ele><time>2026-03-29T10:05:05.376Z</time></trkpt><trkpt lat="45.5283728" lon="9.6561033"><ele>121.0</ele><time>2026-03-29T10:05:06.393Z</time></trkpt><trkpt lat="45.528428" lon="9.6563405"><ele>121.33333333333334</ele><time>2026-03-29T10:05:07.397Z</time></trkpt><trkpt lat="45.5284785" lon="9.6565732"><ele>121.66666666666666</ele><time>2026-03-29T10:05:08.375Z</time></trkpt><trkpt lat="45.5285294" lon="9.656808"><ele>122.0</ele><time>2026-03-29T10:05:09.374Z</time></trkpt><trkpt lat="45.5285808" lon="9.6570382"><ele>122.33333333333333</ele><time>2026-03-29T10:05:10.374Z</time></trkpt><trkpt lat="45.528633" lon="9.6572633"><ele>122.66666666666666</ele><time>2026-03-29T10:05:11.382Z</time></trkpt><trkpt lat="45.5286828" lon="9.6574787"><ele>123.0</ele><time>2026-03-29T10:05:12.362Z</time></trkpt><trkpt lat="45.5287319" lon="9.6576971"><ele>122.0</ele><time>2026-03-29T10:05:13.363Z</time></trkpt><trkpt lat="45.5287829" lon="9.6579243"><ele>121.0</ele><time>2026-03-29T10:05:14.379Z</time></trkpt><trkpt lat="45.5288312" lon="9.6581495"><ele>120.0</ele><time>2026-03-29T10:05:15.371Z</time></trkpt><trkpt lat="45.5288798" lon="9.6583787"><ele>120.0</ele><time>2026-03-29T10:05:16.369Z</time></trkpt><trkpt lat="45.5289303" lon="9.6586088"><ele>120.0</ele><time>2026-03-29T10:05:17.37Z</time></trkpt><trkpt lat="45.5289801" lon="9.6588461"><ele>120.0</ele><time>2026-03-29T10:05:18.381Z</time></trkpt><trkpt lat="45.5290271" lon="9.6590787"><ele>119.66666666666666</ele><time>2026-03-29T10:05:19.369Z</time></trkpt><trkpt lat="45.5290715" lon="9.6593222"><ele>119.33333333333333</ele><time>2026-03-29T10:05:20.385Z</time></trkpt><trkpt lat="45.5291155" lon="9.6595605"><ele>119.0</ele><time>2026-03-29T10:05:21.373Z</time></trkpt><trkpt lat="45.5291569" lon="9.6597953"><ele>119.0</ele><time>2026-03-29T10:05:22.372Z</time></trkpt><trkpt lat="45.5292024" lon="9.6600198"><ele>119.0</ele><time>2026-03-29T10:05:23.37Z</time></trkpt><trkpt lat="45.5292461" lon="9.6602346"><ele>119.0</ele><time>2026-03-29T10:05:24.365Z</time></trkpt><trkpt lat="45.5292919" lon="9.6604581"><ele>119.33333333333333</ele><time>2026-03-29T10:05:25.387Z</time></trkpt><trkpt lat="45.5293334" lon="9.6606725"><ele>119.66666666666666</ele><time>2026-03-29T10:05:26.365Z</time></trkpt><trkpt lat="45.5293768" lon="9.6608927"><ele>120.0</ele><time>2026-03-29T10:05:27.366Z</time></trkpt><trkpt lat="45.5294191" lon="9.6611122"><ele>120.33333333333334</ele><time>2026-03-29T10:05:28.365Z</time></trkpt><trkpt lat="45.5294642" lon="9.6613322"><ele>120.66666666666667</ele><time>2026-03-29T10:05:29.365Z</time></trkpt><trkpt lat="45.529509" lon="9.6615575"><ele>121.0</ele><time>2026-03-29T10:05:30.404Z</time></trkpt><trkpt lat="45.5295513" lon="9.6617697"><ele>121.33333333333334</ele><time>2026-03-29T10:05:31.363Z</time></trkpt><trkpt lat="45.5295929" lon="9.661995"><ele>121.66666666666666</ele><time>2026-03-29T10:05:32.389Z</time></trkpt><trkpt lat="45.5296343" lon="9.6622168"><ele>122.0</ele><time>2026-03-29T10:05:33.383Z</time></trkpt><trkpt lat="45.5296765" lon="9.6624353"><ele>122.0</ele><time>2026-03-29T10:05:34.369Z</time></trkpt><trkpt lat="45.5297177" lon="9.662662"><ele>122.0</ele><time>2026-03-29T10:05:35.376Z</time></trkpt><trkpt lat="45.5297642" lon="9.6628846"><ele>122.0</ele><time>2026-03-29T10:05:36.386Z</time></trkpt><trkpt lat="45.5298139" lon="9.6631067"><ele>121.66666666666666</ele><time>2026-03-29T10:05:37.374Z</time></trkpt><trkpt lat="45.5298664" lon="9.6633295"><ele>121.33333333333334</ele><time>2026-03-29T10:05:38.375Z</time></trkpt><trkpt lat="45.5299251" lon="9.663558"><ele>121.0</ele><time>2026-03-29T10:05:39.378Z</time></trkpt><trkpt lat="45.5299891" lon="9.6637755"><ele>121.0</ele><time>2026-03-29T10:05:40.365Z</time></trkpt><trkpt lat="45.530059" lon="9.6640098"><ele>121.0</ele><time>2026-03-29T10:05:41.413Z</time></trkpt><trkpt lat="45.5301209" lon="9.6642295"><ele>121.0</ele><time>2026-03-29T10:05:42.385Z</time></trkpt><trkpt lat="45.530186" lon="9.664451"><ele>121.0</ele><time>2026-03-29T10:05:43.369Z</time></trkpt><trkpt lat="45.5302471" lon="9.6646801"><ele>121.0</ele><time>2026-03-29T10:05:44.362Z</time></trkpt><trkpt lat="45.5303152" lon="9.6649186"><ele>121.0</ele><time>2026-03-29T10:05:45.387Z</time></trkpt><trkpt lat="45.5303836" lon="9.6651516"><ele>120.33333333333334</ele><time>2026-03-29T10:05:46.384Z</time></trkpt><trkpt lat="45.5304516" lon="9.6653846"><ele>119.66666666666666</ele><time>2026-03-29T10:05:47.39Z</time></trkpt><trkpt lat="45.5305203" lon="9.665615"><ele>119.0</ele><time>2026-03-29T10:05:48.379Z</time></trkpt><trkpt lat="45.5305879" lon="9.6658422"><ele>119.0</ele><time>2026-03-29T10:05:49.363Z</time></trkpt><trkpt lat="45.5306594" lon="9.6660749"><ele>119.0</ele><time>2026-03-29T10:05:50.381Z</time></trkpt><trkpt lat="45.5307271" lon="9.6662956"><ele>119.0</ele><time>2026-03-29T10:05:51.365Z</time></trkpt><trkpt lat="45.53079" lon="9.666512"><ele>119.25</ele><time>2026-03-29T10:05:52.364Z</time></trkpt><trkpt lat="45.5308501" lon="9.6667109"><ele>119.5</ele><time>2026-03-29T10:05:53.363Z</time></trkpt><trkpt lat="45.5308995" lon="9.6668805"><ele>119.75</ele><time>2026-03-29T10:05:54.363Z</time></trkpt><trkpt lat="45.530937" lon="9.6670322"><ele>120.0</ele><time>2026-03-29T10:05:55.369Z</time></trkpt><trkpt lat="45.5309606" lon="9.6671664"><ele>120.16666666666667</ele><time>2026-03-29T10:05:56.362Z</time></trkpt><trkpt lat="45.5309635" lon="9.6672853"><ele>120.33333333333334</ele><time>2026-03-29T10:05:57.367Z</time></trkpt><trkpt lat="45.5309501" lon="9.6673897"><ele>120.5</ele><time>2026-03-29T10:05:58.382Z</time></trkpt><trkpt lat="45.530932" lon="9.6675022"><ele>120.66666666666667</ele><time>2026-03-29T10:05:59.374Z</time></trkpt><trkpt lat="45.5309241" lon="9.6676291"><ele>120.83333333333334</ele><time>2026-03-29T10:06:00.363Z</time></trkpt><trkpt lat="45.5309346" lon="9.6677651"><ele>121.0</ele><time>2026-03-29T10:06:01.374Z</time></trkpt><trkpt lat="45.5309707" lon="9.6679356"><ele>121.5</ele><time>2026-03-29T10:06:02.365Z</time></trkpt><trkpt lat="45.5309936" lon="9.6681276"><ele>122.0</ele><time>2026-03-29T10:06:03.365Z</time></trkpt><trkpt lat="45.5310077" lon="9.6683429"><ele>122.5</ele><time>2026-03-29T10:06:04.365Z</time></trkpt><trkpt lat="45.5310209" lon="9.6685611"><ele>123.0</ele><time>2026-03-29T10:06:05.38Z</time></trkpt><trkpt lat="45.5310454" lon="9.6687919"><ele>121.5</ele><time>2026-03-29T10:06:06.388Z</time></trkpt><trkpt lat="45.5310655" lon="9.6692643"><ele>120.0</ele><time>2026-03-29T10:06:08.364Z</time></trkpt><trkpt lat="45.5310706" lon="9.6695181"><ele>120.0</ele><time>2026-03-29T10:06:09.366Z</time></trkpt><trkpt lat="45.5310845" lon="9.669768"><ele>120.0</ele><time>2026-03-29T10:06:10.374Z</time></trkpt><trkpt lat="45.5311067" lon="9.6700142"><ele>120.0</ele><time>2026-03-29T10:06:11.369Z</time></trkpt><trkpt lat="45.5311227" lon="9.6702483"><ele>120.5</ele><time>2026-03-29T10:06:12.375Z</time></trkpt><trkpt lat="45.5311367" lon="9.6704688"><ele>121.0</ele><time>2026-03-29T10:06:13.36Z</time></trkpt><trkpt lat="45.5311511" lon="9.6706895"><ele>121.5</ele><time>2026-03-29T10:06:14.379Z</time></trkpt><trkpt lat="45.5311645" lon="9.6708803"><ele>122.0</ele><time>2026-03-29T10:06:15.367Z</time></trkpt><trkpt lat="45.5311768" lon="9.6710716"><ele>122.5</ele><time>2026-03-29T10:06:16.362Z</time></trkpt><trkpt lat="45.5311905" lon="9.6712532"><ele>123.0</ele><time>2026-03-29T10:06:17.368Z</time></trkpt><trkpt lat="45.5312028" lon="9.6714327"><ele>123.5</ele><time>2026-03-29T10:06:18.388Z</time></trkpt><trkpt lat="45.5312147" lon="9.6716051"><ele>124.0</ele><time>2026-03-29T10:06:19.368Z</time></trkpt><trkpt lat="45.5312323" lon="9.6717645"><ele>124.00000000000001</ele><time>2026-03-29T10:06:20.363Z</time></trkpt><trkpt lat="45.531253" lon="9.6718976"><ele>124.0</ele><time>2026-03-29T10:06:21.363Z</time></trkpt><trkpt lat="45.5312801" lon="9.671989"><ele>124.0</ele><time>2026-03-29T10:06:22.367Z</time></trkpt><trkpt lat="45.5313317" lon="9.6720589"><ele>124.0</ele><time>2026-03-29T10:06:23.371Z</time></trkpt><trkpt lat="45.5313972" lon="9.6720936"><ele>124.00000000000001</ele><time>2026-03-29T10:06:24.374Z</time></trkpt><trkpt lat="45.5314881" lon="9.6720591"><ele>124.0</ele><time>2026-03-29T10:06:25.369Z</time></trkpt><trkpt lat="45.5315735" lon="9.6720138"><ele>124.0</ele><time>2026-03-29T10:06:26.373Z</time></trkpt><trkpt lat="45.5316504" lon="9.6719574"><ele>124.0</ele><time>2026-03-29T10:06:27.372Z</time></trkpt><trkpt lat="45.5317361" lon="9.6719054"><ele>124.0</ele><time>2026-03-29T10:06:28.371Z</time></trkpt><trkpt lat="45.5318301" lon="9.6718518"><ele>124.0</ele><time>2026-03-29T10:06:29.374Z</time></trkpt><trkpt lat="45.5319225" lon="9.6718056"><ele>124.0</ele><time>2026-03-29T10:06:30.374Z</time></trkpt><trkpt lat="45.5320247" lon="9.6717695"><ele>124.4</ele><time>2026-03-29T10:06:31.387Z</time></trkpt><trkpt lat="45.5321113" lon="9.6717352"><ele>124.80000000000001</ele><time>2026-03-29T10:06:32.37Z</time></trkpt><trkpt lat="45.5321915" lon="9.6717029"><ele>125.19999999999999</ele><time>2026-03-29T10:06:33.372Z</time></trkpt><trkpt lat="45.5322933" lon="9.6716751"><ele>125.6</ele><time>2026-03-29T10:06:35.371Z</time></trkpt><trkpt lat="45.5323677" lon="9.6717646"><ele>126.0</ele><time>2026-03-29T10:06:37.365Z</time></trkpt><trkpt lat="45.5323976" lon="9.6719412"><ele>126.0</ele><time>2026-03-29T10:06:39.382Z</time></trkpt><trkpt lat="45.5324088" lon="9.6720615"><ele>126.0</ele><time>2026-03-29T10:06:40.38Z</time></trkpt><trkpt lat="45.532417" lon="9.6721945"><ele>126.0</ele><time>2026-03-29T10:06:41.38Z</time></trkpt><trkpt lat="45.5324243" lon="9.6723545"><ele>126.0</ele><time>2026-03-29T10:06:42.389Z</time></trkpt><trkpt lat="45.532433" lon="9.6725137"><ele>126.0</ele><time>2026-03-29T10:06:43.373Z</time></trkpt><trkpt lat="45.5324321" lon="9.6726827"><ele>125.66666666666666</ele><time>2026-03-29T10:06:44.387Z</time></trkpt><trkpt lat="45.5324344" lon="9.6729462"><ele>125.33333333333333</ele><time>2026-03-29T10:06:45.699Z</time></trkpt><trkpt lat="45.5323965" lon="9.673185"><ele>125.0</ele><time>2026-03-29T10:06:47.453Z</time></trkpt><trkpt lat="45.5323846" lon="9.6733575"><ele>125.0</ele><time>2026-03-29T10:06:48.431Z</time></trkpt><trkpt lat="45.5323735" lon="9.6735421"><ele>125.0</ele><time>2026-03-29T10:06:49.442Z</time></trkpt><trkpt lat="45.5323614" lon="9.6737253"><ele>125.0</ele><time>2026-03-29T10:06:50.435Z</time></trkpt><trkpt lat="45.5323539" lon="9.6739065"><ele>125.0</ele><time>2026-03-29T10:06:51.418Z</time></trkpt><trkpt lat="45.5323488" lon="9.6740969"><ele>124.75</ele><time>2026-03-29T10:06:52.42Z</time></trkpt><trkpt lat="45.5323365" lon="9.6742903"><ele>124.5</ele><time>2026-03-29T10:06:53.431Z</time></trkpt><trkpt lat="45.5323279" lon="9.6744843"><ele>124.25</ele><time>2026-03-29T10:06:54.421Z</time></trkpt><trkpt lat="45.5323187" lon="9.6746855"><ele>124.0</ele><time>2026-03-29T10:06:55.436Z</time></trkpt><trkpt lat="45.5323119" lon="9.6748831"><ele>123.5</ele><time>2026-03-29T10:06:56.425Z</time></trkpt><trkpt lat="45.5323075" lon="9.6750834"><ele>123.0</ele><time>2026-03-29T10:06:57.427Z</time></trkpt><trkpt lat="45.532306" lon="9.675275"><ele>122.5</ele><time>2026-03-29T10:06:58.43Z</time></trkpt><trkpt lat="45.532303" lon="9.6754507"><ele>122.0</ele><time>2026-03-29T10:06:59.422Z</time></trkpt><trkpt lat="45.5323017" lon="9.6756153"><ele>121.99999999999999</ele><time>2026-03-29T10:07:00.429Z</time></trkpt><trkpt lat="45.5322986" lon="9.6757599"><ele>122.0</ele><time>2026-03-29T10:07:01.429Z</time></trkpt><trkpt lat="45.5322907" lon="9.6758855"><ele>122.0</ele><time>2026-03-29T10:07:02.42Z</time></trkpt><trkpt lat="45.532274" lon="9.6759997"><ele>122.0</ele><time>2026-03-29T10:07:03.427Z</time></trkpt><trkpt lat="45.5322523" lon="9.6761075"><ele>121.99999999999999</ele><time>2026-03-29T10:07:04.43Z</time></trkpt><trkpt lat="45.5322454" lon="9.6762146"><ele>122.0</ele><time>2026-03-29T10:07:05.429Z</time></trkpt><trkpt lat="45.5322672" lon="9.6763212"><ele>122.0</ele><time>2026-03-29T10:07:06.424Z</time></trkpt><trkpt lat="45.5323045" lon="9.6764339"><ele>121.99999999999999</ele><time>2026-03-29T10:07:07.444Z</time></trkpt><trkpt lat="45.5323327" lon="9.6765575"><ele>121.99999999999999</ele><time>2026-03-29T10:07:08.426Z</time></trkpt><trkpt lat="45.5323454" lon="9.6767031"><ele>122.0</ele><time>2026-03-29T10:07:09.429Z</time></trkpt><trkpt lat="45.5323506" lon="9.6768645"><ele>122.0</ele><time>2026-03-29T10:07:10.422Z</time></trkpt><trkpt lat="45.5323601" lon="9.6770432"><ele>122.0</ele><time>2026-03-29T10:07:11.43Z</time></trkpt><trkpt lat="45.532373" lon="9.6772278"><ele>122.0</ele><time>2026-03-29T10:07:12.429Z</time></trkpt><trkpt lat="45.5323864" lon="9.6774138"><ele>122.0</ele><time>2026-03-29T10:07:13.435Z</time></trkpt><trkpt lat="45.5324007" lon="9.6776038"><ele>122.0</ele><time>2026-03-29T10:07:14.43Z</time></trkpt><trkpt lat="45.5324149" lon="9.6778012"><ele>122.0</ele><time>2026-03-29T10:07:15.427Z</time></trkpt><trkpt lat="45.5324264" lon="9.6780052"><ele>122.0</ele><time>2026-03-29T10:07:16.429Z</time></trkpt><trkpt lat="45.5324387" lon="9.6782146"><ele>122.0</ele><time>2026-03-29T10:07:17.43Z</time></trkpt><trkpt lat="45.5324514" lon="9.6784315"><ele>122.0</ele><time>2026-03-29T10:07:18.42Z</time></trkpt><trkpt lat="45.5324652" lon="9.6786665"><ele>122.0</ele><time>2026-03-29T10:07:19.447Z</time></trkpt><trkpt lat="45.5324768" lon="9.6789005"><ele>122.0</ele><time>2026-03-29T10:07:20.427Z</time></trkpt><trkpt lat="45.532487" lon="9.679142"><ele>122.0</ele><time>2026-03-29T10:07:21.423Z</time></trkpt><trkpt lat="45.5324981" lon="9.6793888"><ele>122.0</ele><time>2026-03-29T10:07:22.427Z</time></trkpt><trkpt lat="45.5325099" lon="9.6796375"><ele>122.0</ele><time>2026-03-29T10:07:23.429Z</time></trkpt><trkpt lat="45.5325229" lon="9.6798907"><ele>122.0</ele><time>2026-03-29T10:07:24.442Z</time></trkpt><trkpt lat="45.5325344" lon="9.6801231"><ele>122.66666666666666</ele><time>2026-03-29T10:07:25.376Z</time></trkpt><trkpt lat="45.5325457" lon="9.6803735"><ele>123.33333333333334</ele><time>2026-03-29T10:07:26.379Z</time></trkpt><trkpt lat="45.5325598" lon="9.6806329"><ele>124.0</ele><time>2026-03-29T10:07:27.393Z</time></trkpt><trkpt lat="45.5325707" lon="9.6808861"><ele>123.33333333333334</ele><time>2026-03-29T10:07:28.367Z</time></trkpt><trkpt lat="45.5325825" lon="9.6811551"><ele>122.66666666666666</ele><time>2026-03-29T10:07:29.404Z</time></trkpt><trkpt lat="45.5325939" lon="9.681415"><ele>122.0</ele><time>2026-03-29T10:07:30.381Z</time></trkpt><trkpt lat="45.5326066" lon="9.6816837"><ele>122.66666666666666</ele><time>2026-03-29T10:07:31.385Z</time></trkpt><trkpt lat="45.5326196" lon="9.6819479"><ele>123.33333333333334</ele><time>2026-03-29T10:07:32.369Z</time></trkpt><trkpt lat="45.5326328" lon="9.6822231"><ele>124.0</ele><time>2026-03-29T10:07:33.377Z</time></trkpt><trkpt lat="45.5326437" lon="9.6824951"><ele>123.33333333333334</ele><time>2026-03-29T10:07:34.362Z</time></trkpt><trkpt lat="45.5326546" lon="9.682771"><ele>122.66666666666666</ele><time>2026-03-29T10:07:35.376Z</time></trkpt><trkpt lat="45.5326691" lon="9.6830488"><ele>122.0</ele><time>2026-03-29T10:07:36.369Z</time></trkpt><trkpt lat="45.5326812" lon="9.6833287"><ele>121.33333333333333</ele><time>2026-03-29T10:07:37.373Z</time></trkpt><trkpt lat="45.5326948" lon="9.6836077"><ele>120.66666666666666</ele><time>2026-03-29T10:07:38.361Z</time></trkpt><trkpt lat="45.5327104" lon="9.6838914"><ele>120.0</ele><time>2026-03-29T10:07:39.363Z</time></trkpt><trkpt lat="45.532726" lon="9.6841751"><ele>120.66666666666666</ele><time>2026-03-29T10:07:40.368Z</time></trkpt><trkpt lat="45.5327413" lon="9.684457"><ele>121.33333333333333</ele><time>2026-03-29T10:07:41.367Z</time></trkpt><trkpt lat="45.5327554" lon="9.6847389"><ele>122.0</ele><time>2026-03-29T10:07:42.372Z</time></trkpt><trkpt lat="45.5327689" lon="9.6850212"><ele>122.0</ele><time>2026-03-29T10:07:43.383Z</time></trkpt><trkpt lat="45.532783" lon="9.6852933"><ele>122.0</ele><time>2026-03-29T10:07:44.358Z</time></trkpt><trkpt lat="45.5327978" lon="9.6855678"><ele>122.0</ele><time>2026-03-29T10:07:45.364Z</time></trkpt><trkpt lat="45.532811" lon="9.6858428"><ele>121.66666666666666</ele><time>2026-03-29T10:07:46.369Z</time></trkpt><trkpt lat="45.5328231" lon="9.68612"><ele>121.33333333333334</ele><time>2026-03-29T10:07:47.384Z</time></trkpt><trkpt lat="45.532838" lon="9.6863991"><ele>121.0</ele><time>2026-03-29T10:07:48.405Z</time></trkpt><trkpt lat="45.5328544" lon="9.6866662"><ele>121.33333333333334</ele><time>2026-03-29T10:07:49.388Z</time></trkpt><trkpt lat="45.5328695" lon="9.686939"><ele>121.66666666666666</ele><time>2026-03-29T10:07:50.37Z</time></trkpt><trkpt lat="45.5328858" lon="9.6872121"><ele>122.0</ele><time>2026-03-29T10:07:51.365Z</time></trkpt><trkpt lat="45.5328967" lon="9.6874758"><ele>122.33333333333333</ele><time>2026-03-29T10:07:52.371Z</time></trkpt><trkpt lat="45.5329084" lon="9.6877134"><ele>122.66666666666666</ele><time>2026-03-29T10:07:53.372Z</time></trkpt><trkpt lat="45.5329188" lon="9.6879271"><ele>123.0</ele><time>2026-03-29T10:07:54.376Z</time></trkpt><trkpt lat="45.5329274" lon="9.6881238"><ele>122.80000000000001</ele><time>2026-03-29T10:07:55.379Z</time></trkpt><trkpt lat="45.5329322" lon="9.6883003"><ele>122.60000000000001</ele><time>2026-03-29T10:07:56.368Z</time></trkpt><trkpt lat="45.5329332" lon="9.6884676"><ele>122.39999999999999</ele><time>2026-03-29T10:07:57.364Z</time></trkpt><trkpt lat="45.5329261" lon="9.6886183"><ele>122.19999999999999</ele><time>2026-03-29T10:07:58.376Z</time></trkpt><trkpt lat="45.5329102" lon="9.6887459"><ele>122.0</ele><time>2026-03-29T10:07:59.371Z</time></trkpt><trkpt lat="45.532882" lon="9.688853"><ele>121.83333333333333</ele><time>2026-03-29T10:08:00.39Z</time></trkpt><trkpt lat="45.5328452" lon="9.6889371"><ele>121.66666666666666</ele><time>2026-03-29T10:08:01.377Z</time></trkpt><trkpt lat="45.5327969" lon="9.6890355"><ele>121.5</ele><time>2026-03-29T10:08:02.386Z</time></trkpt><trkpt lat="45.5327536" lon="9.689135"><ele>121.33333333333334</ele><time>2026-03-29T10:08:03.365Z</time></trkpt><trkpt lat="45.5327222" lon="9.6892624"><ele>121.16666666666667</ele><time>2026-03-29T10:08:04.375Z</time></trkpt><trkpt lat="45.5327113" lon="9.6894095"><ele>121.0</ele><time>2026-03-29T10:08:05.371Z</time></trkpt><trkpt lat="45.5327317" lon="9.6895599"><ele>121.0</ele><time>2026-03-29T10:08:06.368Z</time></trkpt><trkpt lat="45.5327727" lon="9.689724"><ele>121.0</ele><time>2026-03-29T10:08:07.37Z</time></trkpt><trkpt lat="45.5328107" lon="9.6898931"><ele>121.0</ele><time>2026-03-29T10:08:08.379Z</time></trkpt><trkpt lat="45.5328545" lon="9.6900253"><ele>121.0</ele><time>2026-03-29T10:08:09.379Z</time></trkpt><trkpt lat="45.5328786" lon="9.6901403"><ele>121.0</ele><time>2026-03-29T10:08:10.376Z</time></trkpt><trkpt lat="45.5328933" lon="9.6902958"><ele>121.25</ele><time>2026-03-29T10:08:11.38Z</time></trkpt><trkpt lat="45.5329068" lon="9.6904779"><ele>121.5</ele><time>2026-03-29T10:08:12.386Z</time></trkpt><trkpt lat="45.5329214" lon="9.6906731"><ele>121.75</ele><time>2026-03-29T10:08:13.377Z</time></trkpt><trkpt lat="45.5329391" lon="9.6908963"><ele>122.0</ele><time>2026-03-29T10:08:14.376Z</time></trkpt><trkpt lat="45.5329535" lon="9.6911331"><ele>123.0</ele><time>2026-03-29T10:08:15.38Z</time></trkpt><trkpt lat="45.532972" lon="9.6913835"><ele>124.0</ele><time>2026-03-29T10:08:16.396Z</time></trkpt><trkpt lat="45.5329899" lon="9.6916363"><ele>125.0</ele><time>2026-03-29T10:08:17.377Z</time></trkpt><trkpt lat="45.5330069" lon="9.6918967"><ele>124.33333333333333</ele><time>2026-03-29T10:08:18.366Z</time></trkpt><trkpt lat="45.5330258" lon="9.6921588"><ele>123.66666666666666</ele><time>2026-03-29T10:08:19.369Z</time></trkpt><trkpt lat="45.5330449" lon="9.6924224"><ele>123.0</ele><time>2026-03-29T10:08:20.371Z</time></trkpt><trkpt lat="45.5330607" lon="9.6926976"><ele>122.33333333333334</ele><time>2026-03-29T10:08:21.403Z</time></trkpt><trkpt lat="45.5330729" lon="9.692963"><ele>121.66666666666667</ele><time>2026-03-29T10:08:22.381Z</time></trkpt><trkpt lat="45.5330854" lon="9.6932368"><ele>121.0</ele><time>2026-03-29T10:08:23.385Z</time></trkpt><trkpt lat="45.5330943" lon="9.6935115"><ele>121.33333333333334</ele><time>2026-03-29T10:08:24.373Z</time></trkpt><trkpt lat="45.5330965" lon="9.6937914"><ele>121.66666666666666</ele><time>2026-03-29T10:08:25.384Z</time></trkpt><trkpt lat="45.5330926" lon="9.6940707"><ele>122.0</ele><time>2026-03-29T10:08:26.381Z</time></trkpt><trkpt lat="45.5330799" lon="9.6943482"><ele>122.66666666666666</ele><time>2026-03-29T10:08:27.409Z</time></trkpt><trkpt lat="45.5330626" lon="9.6946006"><ele>123.33333333333334</ele><time>2026-03-29T10:08:28.379Z</time></trkpt><trkpt lat="45.5330435" lon="9.6948615"><ele>124.0</ele><time>2026-03-29T10:08:29.382Z</time></trkpt><trkpt lat="45.5330257" lon="9.6951166"><ele>123.66666666666667</ele><time>2026-03-29T10:08:30.377Z</time></trkpt><trkpt lat="45.5330082" lon="9.6953713"><ele>123.33333333333334</ele><time>2026-03-29T10:08:31.376Z</time></trkpt><trkpt lat="45.5329887" lon="9.6956106"><ele>123.0</ele><time>2026-03-29T10:08:32.384Z</time></trkpt><trkpt lat="45.5329711" lon="9.6958357"><ele>123.0</ele><time>2026-03-29T10:08:33.379Z</time></trkpt><trkpt lat="45.5329524" lon="9.6960659"><ele>123.0</ele><time>2026-03-29T10:08:34.385Z</time></trkpt><trkpt lat="45.5329384" lon="9.6963007"><ele>123.0</ele><time>2026-03-29T10:08:35.399Z</time></trkpt><trkpt lat="45.5329239" lon="9.6965309"><ele>123.0</ele><time>2026-03-29T10:08:36.403Z</time></trkpt><trkpt lat="45.5329087" lon="9.6967561"><ele>123.0</ele><time>2026-03-29T10:08:37.373Z</time></trkpt><trkpt lat="45.5328937" lon="9.696982"><ele>123.0</ele><time>2026-03-29T10:08:38.374Z</time></trkpt><trkpt lat="45.5328838" lon="9.6972024"><ele>123.0</ele><time>2026-03-29T10:08:39.375Z</time></trkpt><trkpt lat="45.5328808" lon="9.6974236"><ele>123.0</ele><time>2026-03-29T10:08:40.377Z</time></trkpt><trkpt lat="45.5328828" lon="9.6976462"><ele>123.0</ele><time>2026-03-29T10:08:41.379Z</time></trkpt><trkpt lat="45.5328926" lon="9.6978744"><ele>122.33333333333334</ele><time>2026-03-29T10:08:42.395Z</time></trkpt><trkpt lat="45.5329092" lon="9.6980912"><ele>121.66666666666667</ele><time>2026-03-29T10:08:43.378Z</time></trkpt><trkpt lat="45.5329284" lon="9.6983153"><ele>121.0</ele><time>2026-03-29T10:08:44.414Z</time></trkpt><trkpt lat="45.5329445" lon="9.6985224"><ele>121.33333333333334</ele><time>2026-03-29T10:08:45.376Z</time></trkpt><trkpt lat="45.532961" lon="9.6987362"><ele>121.66666666666666</ele><time>2026-03-29T10:08:46.375Z</time></trkpt><trkpt lat="45.5329772" lon="9.6989505"><ele>122.0</ele><time>2026-03-29T10:08:47.379Z</time></trkpt><trkpt lat="45.5329943" lon="9.6991704"><ele>122.0</ele><time>2026-03-29T10:08:48.377Z</time></trkpt><trkpt lat="45.5330118" lon="9.6993841"><ele>122.0</ele><time>2026-03-29T10:08:49.369Z</time></trkpt><trkpt lat="45.5330285" lon="9.6995992"><ele>122.0</ele><time>2026-03-29T10:08:50.364Z</time></trkpt><trkpt lat="45.5330506" lon="9.6998189"><ele>122.33333333333333</ele><time>2026-03-29T10:08:51.372Z</time></trkpt><trkpt lat="45.5330803" lon="9.7000346"><ele>122.66666666666666</ele><time>2026-03-29T10:08:52.376Z</time></trkpt><trkpt lat="45.533117" lon="9.7002525"><ele>123.0</ele><time>2026-03-29T10:08:53.372Z</time></trkpt><trkpt lat="45.53316" lon="9.7004735"><ele>123.33333333333334</ele><time>2026-03-29T10:08:54.382Z</time></trkpt><trkpt lat="45.5332049" lon="9.7006954"><ele>123.66666666666667</ele><time>2026-03-29T10:08:55.38Z</time></trkpt><trkpt lat="45.5332499" lon="9.7009154"><ele>124.0</ele><time>2026-03-29T10:08:56.368Z</time></trkpt><trkpt lat="45.5332978" lon="9.701143"><ele>124.0</ele><time>2026-03-29T10:08:57.375Z</time></trkpt><trkpt lat="45.533345" lon="9.701371"><ele>124.0</ele><time>2026-03-29T10:08:58.391Z</time></trkpt><trkpt lat="45.5333889" lon="9.7015775"><ele>124.0</ele><time>2026-03-29T10:08:59.369Z</time></trkpt><trkpt lat="45.533432" lon="9.7017767"><ele>124.25</ele><time>2026-03-29T10:09:00.367Z</time></trkpt><trkpt lat="45.5334712" lon="9.7019634"><ele>124.5</ele><time>2026-03-29T10:09:01.372Z</time></trkpt><trkpt lat="45.5335064" lon="9.7021328"><ele>124.75</ele><time>2026-03-29T10:09:02.389Z</time></trkpt><trkpt lat="45.5335386" lon="9.7022963"><ele>125.0</ele><time>2026-03-29T10:09:03.385Z</time></trkpt><trkpt lat="45.5335654" lon="9.7024524"><ele>124.99999999999999</ele><time>2026-03-29T10:09:04.371Z</time></trkpt><trkpt lat="45.5335915" lon="9.7026016"><ele>125.0</ele><time>2026-03-29T10:09:05.381Z</time></trkpt><trkpt lat="45.5336139" lon="9.7027357"><ele>125.0</ele><time>2026-03-29T10:09:06.373Z</time></trkpt><trkpt lat="45.5336313" lon="9.7028574"><ele>125.0</ele><time>2026-03-29T10:09:07.387Z</time></trkpt><trkpt lat="45.5336437" lon="9.7029633"><ele>124.99999999999999</ele><time>2026-03-29T10:09:08.379Z</time></trkpt><trkpt lat="45.5336522" lon="9.7030643"><ele>125.0</ele><time>2026-03-29T10:09:09.377Z</time></trkpt><trkpt lat="45.5336615" lon="9.7031653"><ele>125.0</ele><time>2026-03-29T10:09:10.391Z</time></trkpt><trkpt lat="45.5336674" lon="9.7032564"><ele>125.0</ele><time>2026-03-29T10:09:11.379Z</time></trkpt><trkpt lat="45.5337306" lon="9.7034064"><ele>125.0</ele><time>2026-03-29T10:09:13.379Z</time></trkpt><trkpt lat="45.5337987" lon="9.7034348"><ele>125.0</ele><time>2026-03-29T10:09:14.368Z</time></trkpt><trkpt lat="45.5338996" lon="9.703441"><ele>125.0</ele><time>2026-03-29T10:09:15.367Z</time></trkpt><trkpt lat="45.5340035" lon="9.7034317"><ele>125.2</ele><time>2026-03-29T10:09:16.385Z</time></trkpt><trkpt lat="45.5340907" lon="9.7034226"><ele>125.4</ele><time>2026-03-29T10:09:17.37Z</time></trkpt><trkpt lat="45.5341805" lon="9.7034159"><ele>125.6</ele><time>2026-03-29T10:09:18.372Z</time></trkpt><trkpt lat="45.534264" lon="9.7034096"><ele>125.8</ele><time>2026-03-29T10:09:19.367Z</time></trkpt><trkpt lat="45.5343575" lon="9.7034089"><ele>126.0</ele><time>2026-03-29T10:09:20.377Z</time></trkpt><trkpt lat="45.5344549" lon="9.7034273"><ele>126.0</ele><time>2026-03-29T10:09:21.377Z</time></trkpt><trkpt lat="45.534542" lon="9.7034619"><ele>126.0</ele><time>2026-03-29T10:09:22.379Z</time></trkpt><trkpt lat="45.5346278" lon="9.703504"><ele>126.0</ele><time>2026-03-29T10:09:23.374Z</time></trkpt><trkpt lat="45.5347112" lon="9.7035559"><ele>126.0</ele><time>2026-03-29T10:09:24.375Z</time></trkpt><trkpt lat="45.5347812" lon="9.7036142"><ele>126.0</ele><time>2026-03-29T10:09:25.382Z</time></trkpt><trkpt lat="45.5348382" lon="9.7036893"><ele>126.0</ele><time>2026-03-29T10:09:26.377Z</time></trkpt><trkpt lat="45.5348801" lon="9.7037821"><ele>126.0</ele><time>2026-03-29T10:09:27.373Z</time></trkpt><trkpt lat="45.5349252" lon="9.7040259"><ele>126.0</ele><time>2026-03-29T10:09:29.375Z</time></trkpt><trkpt lat="45.534935" lon="9.7041604"><ele>126.0</ele><time>2026-03-29T10:09:30.381Z</time></trkpt><trkpt lat="45.5349475" lon="9.7043055"><ele>126.0</ele><time>2026-03-29T10:09:31.374Z</time></trkpt><trkpt lat="45.5349569" lon="9.7044536"><ele>126.16666666666667</ele><time>2026-03-29T10:09:32.377Z</time></trkpt><trkpt lat="45.5349623" lon="9.7045922"><ele>126.33333333333334</ele><time>2026-03-29T10:09:33.374Z</time></trkpt><trkpt lat="45.5349579" lon="9.7047275"><ele>126.5</ele><time>2026-03-29T10:09:34.385Z</time></trkpt><trkpt lat="45.5349518" lon="9.7048475"><ele>126.66666666666667</ele><time>2026-03-29T10:09:35.373Z</time></trkpt><trkpt lat="45.534945" lon="9.7049583"><ele>126.83333333333334</ele><time>2026-03-29T10:09:36.378Z</time></trkpt><trkpt lat="45.5349337" lon="9.70506"><ele>127.0</ele><time>2026-03-29T10:09:37.378Z</time></trkpt><trkpt lat="45.5349268" lon="9.7052024"><ele>127.0</ele><time>2026-03-29T10:09:39.374Z</time></trkpt><trkpt lat="45.5349028" lon="9.7053138"><ele>126.99999999999999</ele><time>2026-03-29T10:09:42.374Z</time></trkpt><trkpt lat="45.5347868" lon="9.7053017"><ele>126.99999999999999</ele><time>2026-03-29T10:09:45.372Z</time></trkpt><trkpt lat="45.5347081" lon="9.7052734"><ele>127.0</ele><time>2026-03-29T10:09:46.387Z</time></trkpt><trkpt lat="45.5346071" lon="9.7052424"><ele>127.0</ele><time>2026-03-29T10:09:47.402Z</time></trkpt><trkpt lat="45.5345015" lon="9.7052089"><ele>127.5</ele><time>2026-03-29T10:09:48.394Z</time></trkpt><trkpt lat="45.5343911" lon="9.7051857"><ele>128.0</ele><time>2026-03-29T10:09:49.375Z</time></trkpt><trkpt lat="45.5342721" lon="9.7051675"><ele>128.5</ele><time>2026-03-29T10:09:50.399Z</time></trkpt><trkpt lat="45.5341546" lon="9.7051634"><ele>129.0</ele><time>2026-03-29T10:09:51.37Z</time></trkpt><trkpt lat="45.5340186" lon="9.7051675"><ele>129.0</ele><time>2026-03-29T10:09:52.372Z</time></trkpt><trkpt lat="45.5338775" lon="9.7051756"><ele>129.0</ele><time>2026-03-29T10:09:53.394Z</time></trkpt><trkpt lat="45.5337372" lon="9.7051871"><ele>129.0</ele><time>2026-03-29T10:09:54.395Z</time></trkpt><trkpt lat="45.5336014" lon="9.7051921"><ele>129.0</ele><time>2026-03-29T10:09:55.381Z</time></trkpt><trkpt lat="45.5334594" lon="9.7051907"><ele>128.25</ele><time>2026-03-29T10:09:56.38Z</time></trkpt><trkpt lat="45.5333176" lon="9.7051845"><ele>127.5</ele><time>2026-03-29T10:09:57.37Z</time></trkpt><trkpt lat="45.5331696" lon="9.7051666"><ele>126.75</ele><time>2026-03-29T10:09:58.393Z</time></trkpt><trkpt lat="45.5330249" lon="9.705147"><ele>126.0</ele><time>2026-03-29T10:09:59.371Z</time></trkpt><trkpt lat="45.5328714" lon="9.7051262"><ele>125.66666666666666</ele><time>2026-03-29T10:10:00.379Z</time></trkpt><trkpt lat="45.5327161" lon="9.7051046"><ele>125.33333333333333</ele><time>2026-03-29T10:10:01.395Z</time></trkpt><trkpt lat="45.5325627" lon="9.7050835"><ele>125.0</ele><time>2026-03-29T10:10:02.392Z</time></trkpt><trkpt lat="45.5324052" lon="9.7050615"><ele>125.0</ele><time>2026-03-29T10:10:03.391Z</time></trkpt><trkpt lat="45.5322521" lon="9.7050417"><ele>125.0</ele><time>2026-03-29T10:10:04.383Z</time></trkpt><trkpt lat="45.5320976" lon="9.705022"><ele>125.0</ele><time>2026-03-29T10:10:05.367Z</time></trkpt><trkpt lat="45.5319389" lon="9.7049984"><ele>125.0</ele><time>2026-03-29T10:10:06.401Z</time></trkpt><trkpt lat="45.5317901" lon="9.7049763"><ele>125.0</ele><time>2026-03-29T10:10:07.378Z</time></trkpt><trkpt lat="45.5316343" lon="9.704952"><ele>125.0</ele><time>2026-03-29T10:10:08.378Z</time></trkpt><trkpt lat="45.5314775" lon="9.7049284"><ele>125.0</ele><time>2026-03-29T10:10:09.381Z</time></trkpt><trkpt lat="45.5312673" lon="9.7048952"><ele>125.0</ele><time>2026-03-29T10:10:10.694Z</time></trkpt><trkpt lat="45.5309915" lon="9.704857"><ele>124.33333333333333</ele><time>2026-03-29T10:10:12.447Z</time></trkpt><trkpt lat="45.5308321" lon="9.7048287"><ele>123.66666666666666</ele><time>2026-03-29T10:10:13.455Z</time></trkpt><trkpt lat="45.5306714" lon="9.704799"><ele>123.0</ele><time>2026-03-29T10:10:14.46Z</time></trkpt><trkpt lat="45.5305138" lon="9.7047697"><ele>122.66666666666666</ele><time>2026-03-29T10:10:15.44Z</time></trkpt><trkpt lat="45.5303525" lon="9.7047449"><ele>122.33333333333333</ele><time>2026-03-29T10:10:16.429Z</time></trkpt><trkpt lat="45.5301876" lon="9.7047194"><ele>122.0</ele><time>2026-03-29T10:10:17.426Z</time></trkpt><trkpt lat="45.5300212" lon="9.7046936"><ele>122.0</ele><time>2026-03-29T10:10:18.433Z</time></trkpt><trkpt lat="45.529866" lon="9.7046695"><ele>122.0</ele><time>2026-03-29T10:10:19.375Z</time></trkpt><trkpt lat="45.529702" lon="9.7046438"><ele>122.0</ele><time>2026-03-29T10:10:20.379Z</time></trkpt><trkpt lat="45.5295471" lon="9.70462"><ele>122.0</ele><time>2026-03-29T10:10:21.372Z</time></trkpt><trkpt lat="45.5294016" lon="9.7045964"><ele>122.0</ele><time>2026-03-29T10:10:22.372Z</time></trkpt><trkpt lat="45.5292628" lon="9.7045746"><ele>122.0</ele><time>2026-03-29T10:10:23.387Z</time></trkpt><trkpt lat="45.5291297" lon="9.7045527"><ele>122.0</ele><time>2026-03-29T10:10:24.407Z</time></trkpt><trkpt lat="45.5290129" lon="9.7045293"><ele>122.0</ele><time>2026-03-29T10:10:25.373Z</time></trkpt><trkpt lat="45.5288963" lon="9.7044991"><ele>121.99999999999999</ele><time>2026-03-29T10:10:26.383Z</time></trkpt><trkpt lat="45.528795" lon="9.704467"><ele>121.99999999999999</ele><time>2026-03-29T10:10:27.363Z</time></trkpt><trkpt lat="45.5287069" lon="9.7044284"><ele>122.0</ele><time>2026-03-29T10:10:28.373Z</time></trkpt><trkpt lat="45.5286342" lon="9.7043844"><ele>122.0</ele><time>2026-03-29T10:10:29.373Z</time></trkpt><trkpt lat="45.5285689" lon="9.7043333"><ele>121.99999999999999</ele><time>2026-03-29T10:10:30.372Z</time></trkpt><trkpt lat="45.528502" lon="9.7042835"><ele>122.0</ele><time>2026-03-29T10:10:31.369Z</time></trkpt><trkpt lat="45.5284228" lon="9.7042535"><ele>122.0</ele><time>2026-03-29T10:10:32.373Z</time></trkpt><trkpt lat="45.528338" lon="9.7042477"><ele>122.0</ele><time>2026-03-29T10:10:33.368Z</time></trkpt><trkpt lat="45.5282514" lon="9.7042871"><ele>121.99999999999999</ele><time>2026-03-29T10:10:34.37Z</time></trkpt><trkpt lat="45.5281717" lon="9.7043562"><ele>122.0</ele><time>2026-03-29T10:10:35.374Z</time></trkpt><trkpt lat="45.5280832" lon="9.7044308"><ele>121.8</ele><time>2026-03-29T10:10:36.385Z</time></trkpt><trkpt lat="45.5279917" lon="9.7044883"><ele>121.6</ele><time>2026-03-29T10:10:37.387Z</time></trkpt><trkpt lat="45.5278897" lon="9.7045329"><ele>121.39999999999999</ele><time>2026-03-29T10:10:38.373Z</time></trkpt><trkpt lat="45.5277805" lon="9.7045815"><ele>121.19999999999999</ele><time>2026-03-29T10:10:39.387Z</time></trkpt><trkpt lat="45.5276649" lon="9.7046312"><ele>121.0</ele><time>2026-03-29T10:10:40.38Z</time></trkpt><trkpt lat="45.5275424" lon="9.704678"><ele>121.0</ele><time>2026-03-29T10:10:41.369Z</time></trkpt><trkpt lat="45.5274123" lon="9.7047152"><ele>121.0</ele><time>2026-03-29T10:10:42.376Z</time></trkpt><trkpt lat="45.5272764" lon="9.7047408"><ele>121.0</ele><time>2026-03-29T10:10:43.37Z</time></trkpt><trkpt lat="45.527136" lon="9.704753"><ele>121.0</ele><time>2026-03-29T10:10:44.373Z</time></trkpt><trkpt lat="45.5269883" lon="9.7047571"><ele>120.66666666666667</ele><time>2026-03-29T10:10:45.385Z</time></trkpt><trkpt lat="45.5268409" lon="9.7047568"><ele>120.33333333333334</ele><time>2026-03-29T10:10:46.375Z</time></trkpt><trkpt lat="45.5266892" lon="9.7047554"><ele>120.0</ele><time>2026-03-29T10:10:47.384Z</time></trkpt><trkpt lat="45.5265329" lon="9.7047566"><ele>120.0</ele><time>2026-03-29T10:10:48.395Z</time></trkpt><trkpt lat="45.5263824" lon="9.7047559"><ele>120.0</ele><time>2026-03-29T10:10:49.385Z</time></trkpt><trkpt lat="45.5262381" lon="9.7047575"><ele>120.0</ele><time>2026-03-29T10:10:50.366Z</time></trkpt><trkpt lat="45.5260897" lon="9.704757"><ele>120.0</ele><time>2026-03-29T10:10:51.377Z</time></trkpt><trkpt lat="45.5259382" lon="9.7047556"><ele>120.66666666666666</ele><time>2026-03-29T10:10:52.394Z</time></trkpt><trkpt lat="45.5257894" lon="9.7047545"><ele>121.33333333333333</ele><time>2026-03-29T10:10:53.374Z</time></trkpt><trkpt lat="45.5256331" lon="9.7047532"><ele>122.0</ele><time>2026-03-29T10:10:54.394Z</time></trkpt><trkpt lat="45.5254818" lon="9.7047551"><ele>121.33333333333333</ele><time>2026-03-29T10:10:55.391Z</time></trkpt><trkpt lat="45.5253318" lon="9.704753"><ele>120.66666666666666</ele><time>2026-03-29T10:10:56.385Z</time></trkpt><trkpt lat="45.525182" lon="9.7047528"><ele>120.0</ele><time>2026-03-29T10:10:57.371Z</time></trkpt><trkpt lat="45.5250304" lon="9.7047519"><ele>120.0</ele><time>2026-03-29T10:10:58.375Z</time></trkpt><trkpt lat="45.5248785" lon="9.7047497"><ele>120.0</ele><time>2026-03-29T10:10:59.379Z</time></trkpt><trkpt lat="45.5247249" lon="9.7047527"><ele>120.0</ele><time>2026-03-29T10:11:00.376Z</time></trkpt><trkpt lat="45.5245649" lon="9.7047547"><ele>119.66666666666666</ele><time>2026-03-29T10:11:01.415Z</time></trkpt><trkpt lat="45.5244144" lon="9.7047559"><ele>119.33333333333333</ele><time>2026-03-29T10:11:02.382Z</time></trkpt><trkpt lat="45.5242559" lon="9.704758"><ele>119.0</ele><time>2026-03-29T10:11:03.381Z</time></trkpt><trkpt lat="45.5240974" lon="9.7047622"><ele>119.0</ele><time>2026-03-29T10:11:04.381Z</time></trkpt><trkpt lat="45.5239351" lon="9.704764"><ele>119.0</ele><time>2026-03-29T10:11:05.39Z</time></trkpt><trkpt lat="45.5237746" lon="9.704767"><ele>119.0</ele><time>2026-03-29T10:11:06.38Z</time></trkpt><trkpt lat="45.5236127" lon="9.7047652"><ele>119.33333333333333</ele><time>2026-03-29T10:11:07.376Z</time></trkpt><trkpt lat="45.5234481" lon="9.7047629"><ele>119.66666666666666</ele><time>2026-03-29T10:11:08.377Z</time></trkpt><trkpt lat="45.5232829" lon="9.7047585"><ele>120.0</ele><time>2026-03-29T10:11:09.373Z</time></trkpt><trkpt lat="45.5231118" lon="9.704758"><ele>120.0</ele><time>2026-03-29T10:11:10.382Z</time></trkpt><trkpt lat="45.522942" lon="9.7047498"><ele>120.0</ele><time>2026-03-29T10:11:11.385Z</time></trkpt><trkpt lat="45.5227708" lon="9.7047432"><ele>120.0</ele><time>2026-03-29T10:11:12.381Z</time></trkpt><trkpt lat="45.5225934" lon="9.7047399"><ele>119.66666666666666</ele><time>2026-03-29T10:11:13.374Z</time></trkpt><trkpt lat="45.5224116" lon="9.7047391"><ele>119.33333333333333</ele><time>2026-03-29T10:11:14.37Z</time></trkpt><trkpt lat="45.5222207" lon="9.7047364"><ele>119.0</ele><time>2026-03-29T10:11:15.386Z</time></trkpt><trkpt lat="45.5220294" lon="9.7047364"><ele>119.0</ele><time>2026-03-29T10:11:16.387Z</time></trkpt><trkpt lat="45.5218381" lon="9.7047409"><ele>119.0</ele><time>2026-03-29T10:11:17.373Z</time></trkpt><trkpt lat="45.5216375" lon="9.7047492"><ele>119.0</ele><time>2026-03-29T10:11:18.413Z</time></trkpt><trkpt lat="45.5213909" lon="9.7047539"><ele>119.0</ele><time>2026-03-29T10:11:19.724Z</time></trkpt><trkpt lat="45.5211117" lon="9.7047551"><ele>119.0</ele><time>2026-03-29T10:11:21.447Z</time></trkpt><trkpt lat="45.5209523" lon="9.7047569"><ele>119.0</ele><time>2026-03-29T10:11:22.427Z</time></trkpt><trkpt lat="45.5207946" lon="9.7047545"><ele>119.0</ele><time>2026-03-29T10:11:23.438Z</time></trkpt><trkpt lat="45.5206457" lon="9.7047553"><ele>119.0</ele><time>2026-03-29T10:11:24.425Z</time></trkpt><trkpt lat="45.5205031" lon="9.7047511"><ele>119.0</ele><time>2026-03-29T10:11:25.37Z</time></trkpt><trkpt lat="45.5203585" lon="9.7047415"><ele>119.0</ele><time>2026-03-29T10:11:26.374Z</time></trkpt><trkpt lat="45.5202201" lon="9.7047336"><ele>119.2</ele><time>2026-03-29T10:11:27.384Z</time></trkpt><trkpt lat="45.5200959" lon="9.7047296"><ele>119.4</ele><time>2026-03-29T10:11:28.393Z</time></trkpt><trkpt lat="45.5199889" lon="9.70473"><ele>119.6</ele><time>2026-03-29T10:11:29.376Z</time></trkpt><trkpt lat="45.5198917" lon="9.704738"><ele>119.8</ele><time>2026-03-29T10:11:30.375Z</time></trkpt><trkpt lat="45.5198018" lon="9.7047462"><ele>120.0</ele><time>2026-03-29T10:11:31.377Z</time></trkpt><trkpt lat="45.5197226" lon="9.7047535"><ele>120.0</ele><time>2026-03-29T10:11:32.37Z</time></trkpt><trkpt lat="45.5196516" lon="9.7047629"><ele>120.0</ele><time>2026-03-29T10:11:33.378Z</time></trkpt><trkpt lat="45.5195871" lon="9.7047748"><ele>120.0</ele><time>2026-03-29T10:11:34.387Z</time></trkpt><trkpt lat="45.5194723" lon="9.7047984"><ele>120.0</ele><time>2026-03-29T10:11:36.382Z</time></trkpt><trkpt lat="45.5193683" lon="9.7048431"><ele>120.0</ele><time>2026-03-29T10:11:38.371Z</time></trkpt><trkpt lat="45.5193346" lon="9.7049769"><ele>120.0</ele><time>2026-03-29T10:11:40.388Z</time></trkpt><trkpt lat="45.5193653" lon="9.7050617"><ele>120.0</ele><time>2026-03-29T10:11:41.377Z</time></trkpt><trkpt lat="45.5194061" lon="9.7051441"><ele>120.0</ele><time>2026-03-29T10:11:42.389Z</time></trkpt><trkpt lat="45.5194498" lon="9.7052308"><ele>120.0</ele><time>2026-03-29T10:11:43.376Z</time></trkpt><trkpt lat="45.5194867" lon="9.7053454"><ele>120.0</ele><time>2026-03-29T10:11:44.374Z</time></trkpt><trkpt lat="45.5195389" lon="9.7054722"><ele>120.0</ele><time>2026-03-29T10:11:45.388Z</time></trkpt><trkpt lat="45.5195971" lon="9.7056032"><ele>120.0</ele><time>2026-03-29T10:11:46.378Z</time></trkpt><trkpt lat="45.5196678" lon="9.7057422"><ele>120.0</ele><time>2026-03-29T10:11:47.387Z</time></trkpt><trkpt lat="45.5197507" lon="9.7058795"><ele>120.0</ele><time>2026-03-29T10:11:48.391Z</time></trkpt><trkpt lat="45.5198388" lon="9.7060066"><ele>120.0</ele><time>2026-03-29T10:11:49.367Z</time></trkpt><trkpt lat="45.5199235" lon="9.7061376"><ele>120.0</ele><time>2026-03-29T10:11:50.376Z</time></trkpt><trkpt lat="45.5200091" lon="9.7062775"><ele>120.0</ele><time>2026-03-29T10:11:51.398Z</time></trkpt><trkpt lat="45.5200845" lon="9.7064116"><ele>120.0</ele><time>2026-03-29T10:11:52.379Z</time></trkpt><trkpt lat="45.5201532" lon="9.7065396"><ele>120.0</ele><time>2026-03-29T10:11:53.392Z</time></trkpt><trkpt lat="45.520219" lon="9.7066733"><ele>120.0</ele><time>2026-03-29T10:11:54.379Z</time></trkpt><trkpt lat="45.5202853" lon="9.7068132"><ele>120.0</ele><time>2026-03-29T10:11:55.386Z</time></trkpt><trkpt lat="45.5203442" lon="9.7069594"><ele>120.0</ele><time>2026-03-29T10:11:56.369Z</time></trkpt><trkpt lat="45.5204049" lon="9.7071169"><ele>120.0</ele><time>2026-03-29T10:11:57.366Z</time></trkpt><trkpt lat="45.5204713" lon="9.7072718"><ele>119.75</ele><time>2026-03-29T10:11:58.377Z</time></trkpt><trkpt lat="45.520552" lon="9.7074175"><ele>119.5</ele><time>2026-03-29T10:11:59.387Z</time></trkpt><trkpt lat="45.5206458" lon="9.7075352"><ele>119.25</ele><time>2026-03-29T10:12:00.377Z</time></trkpt><trkpt lat="45.5207464" lon="9.7076314"><ele>119.0</ele><time>2026-03-29T10:12:01.383Z</time></trkpt><trkpt lat="45.5208375" lon="9.7077138"><ele>119.4</ele><time>2026-03-29T10:12:02.368Z</time></trkpt><trkpt lat="45.5209209" lon="9.7077923"><ele>119.80000000000001</ele><time>2026-03-29T10:12:03.378Z</time></trkpt><trkpt lat="45.5209987" lon="9.7078765"><ele>120.19999999999999</ele><time>2026-03-29T10:12:04.383Z</time></trkpt><trkpt lat="45.5210634" lon="9.7079684"><ele>120.6</ele><time>2026-03-29T10:12:05.379Z</time></trkpt><trkpt lat="45.5211173" lon="9.7080755"><ele>121.0</ele><time>2026-03-29T10:12:06.386Z</time></trkpt><trkpt lat="45.521152" lon="9.7081938"><ele>121.0</ele><time>2026-03-29T10:12:07.384Z</time></trkpt><trkpt lat="45.5211713" lon="9.7083312"><ele>121.0</ele><time>2026-03-29T10:12:08.375Z</time></trkpt><trkpt lat="45.5211794" lon="9.708515"><ele>121.0</ele><time>2026-03-29T10:12:09.399Z</time></trkpt><trkpt lat="45.5211813" lon="9.7086863"><ele>121.0</ele><time>2026-03-29T10:12:10.383Z</time></trkpt><trkpt lat="45.521178" lon="9.7088714"><ele>121.0</ele><time>2026-03-29T10:12:11.389Z</time></trkpt><trkpt lat="45.5211768" lon="9.7090575"><ele>121.0</ele><time>2026-03-29T10:12:12.381Z</time></trkpt><trkpt lat="45.5211764" lon="9.7092529"><ele>121.0</ele><time>2026-03-29T10:12:13.398Z</time></trkpt><trkpt lat="45.5211743" lon="9.7094428"><ele>121.0</ele><time>2026-03-29T10:12:14.379Z</time></trkpt><trkpt lat="45.5211704" lon="9.7096377"><ele>120.5</ele><time>2026-03-29T10:12:15.381Z</time></trkpt><trkpt lat="45.5211656" lon="9.7098333"><ele>120.0</ele><time>2026-03-29T10:12:16.387Z</time></trkpt><trkpt lat="45.5211635" lon="9.7100346"><ele>119.5</ele><time>2026-03-29T10:12:17.385Z</time></trkpt><trkpt lat="45.521161" lon="9.7102453"><ele>119.0</ele><time>2026-03-29T10:12:18.377Z</time></trkpt><trkpt lat="45.5211586" lon="9.7104665"><ele>118.66666666666666</ele><time>2026-03-29T10:12:19.377Z</time></trkpt><trkpt lat="45.5211547" lon="9.7106956"><ele>118.33333333333334</ele><time>2026-03-29T10:12:20.373Z</time></trkpt><trkpt lat="45.5211491" lon="9.7109348"><ele>118.0</ele><time>2026-03-29T10:12:21.387Z</time></trkpt><trkpt lat="45.5211474" lon="9.7111777"><ele>118.0</ele><time>2026-03-29T10:12:22.381Z</time></trkpt><trkpt lat="45.5211476" lon="9.7114364"><ele>118.0</ele><time>2026-03-29T10:12:23.418Z</time></trkpt><trkpt lat="45.5211503" lon="9.7116709"><ele>118.0</ele><time>2026-03-29T10:12:24.372Z</time></trkpt><trkpt lat="45.5211483" lon="9.7119076"><ele>118.0</ele><time>2026-03-29T10:12:25.375Z</time></trkpt><trkpt lat="45.5211487" lon="9.7121262"><ele>118.0</ele><time>2026-03-29T10:12:26.377Z</time></trkpt><trkpt lat="45.5211467" lon="9.712349"><ele>118.0</ele><time>2026-03-29T10:12:27.38Z</time></trkpt><trkpt lat="45.5211471" lon="9.7125837"><ele>118.0</ele><time>2026-03-29T10:12:28.388Z</time></trkpt><trkpt lat="45.5211463" lon="9.7128233"><ele>118.0</ele><time>2026-03-29T10:12:29.382Z</time></trkpt><trkpt lat="45.5211447" lon="9.7130658"><ele>118.0</ele><time>2026-03-29T10:12:30.376Z</time></trkpt><trkpt lat="45.5211442" lon="9.7133159"><ele>118.0</ele><time>2026-03-29T10:12:31.39Z</time></trkpt><trkpt lat="45.5211425" lon="9.7135698"><ele>118.0</ele><time>2026-03-29T10:12:32.392Z</time></trkpt><trkpt lat="45.5211499" lon="9.7138267"><ele>118.0</ele><time>2026-03-29T10:12:33.383Z</time></trkpt><trkpt lat="45.5211679" lon="9.7140886"><ele>118.0</ele><time>2026-03-29T10:12:34.381Z</time></trkpt><trkpt lat="45.5211998" lon="9.7143543"><ele>118.0</ele><time>2026-03-29T10:12:35.386Z</time></trkpt><trkpt lat="45.521245" lon="9.7146106"><ele>118.0</ele><time>2026-03-29T10:12:36.373Z</time></trkpt><trkpt lat="45.5213014" lon="9.714867"><ele>118.33333333333334</ele><time>2026-03-29T10:12:37.393Z</time></trkpt><trkpt lat="45.5213619" lon="9.7151186"><ele>118.66666666666666</ele><time>2026-03-29T10:12:38.409Z</time></trkpt><trkpt lat="45.5214241" lon="9.7153617"><ele>119.0</ele><time>2026-03-29T10:12:39.418Z</time></trkpt><trkpt lat="45.521482" lon="9.7155974"><ele>119.66666666666666</ele><time>2026-03-29T10:12:40.38Z</time></trkpt><trkpt lat="45.5215423" lon="9.7158468"><ele>120.33333333333334</ele><time>2026-03-29T10:12:41.384Z</time></trkpt><trkpt lat="45.5216011" lon="9.7161009"><ele>121.0</ele><time>2026-03-29T10:12:42.382Z</time></trkpt><trkpt lat="45.5216631" lon="9.716361"><ele>121.0</ele><time>2026-03-29T10:12:43.392Z</time></trkpt><trkpt lat="45.5217259" lon="9.7166208"><ele>121.0</ele><time>2026-03-29T10:12:44.409Z</time></trkpt><trkpt lat="45.5217851" lon="9.7168675"><ele>121.0</ele><time>2026-03-29T10:12:45.387Z</time></trkpt><trkpt lat="45.5218432" lon="9.7171121"><ele>120.33333333333334</ele><time>2026-03-29T10:12:46.381Z</time></trkpt><trkpt lat="45.5219029" lon="9.7173493"><ele>119.66666666666666</ele><time>2026-03-29T10:12:47.366Z</time></trkpt><trkpt lat="45.5219748" lon="9.7175808"><ele>119.0</ele><time>2026-03-29T10:12:48.369Z</time></trkpt><trkpt lat="45.5220579" lon="9.7178068"><ele>120.0</ele><time>2026-03-29T10:12:49.383Z</time></trkpt><trkpt lat="45.522146" lon="9.7180241"><ele>121.0</ele><time>2026-03-29T10:12:50.38Z</time></trkpt><trkpt lat="45.5222355" lon="9.7182337"><ele>122.0</ele><time>2026-03-29T10:12:51.369Z</time></trkpt><trkpt lat="45.5223187" lon="9.7184442"><ele>122.0</ele><time>2026-03-29T10:12:52.38Z</time></trkpt><trkpt lat="45.5223763" lon="9.7186329"><ele>122.0</ele><time>2026-03-29T10:12:53.367Z</time></trkpt><trkpt lat="45.522411" lon="9.718833"><ele>122.0</ele><time>2026-03-29T10:12:54.373Z</time></trkpt><trkpt lat="45.5224233" lon="9.7190584"><ele>122.0</ele><time>2026-03-29T10:12:55.389Z</time></trkpt><trkpt lat="45.522432" lon="9.7192982"><ele>121.66666666666666</ele><time>2026-03-29T10:12:56.373Z</time></trkpt><trkpt lat="45.5224403" lon="9.7195525"><ele>121.33333333333334</ele><time>2026-03-29T10:12:57.402Z</time></trkpt><trkpt lat="45.5224496" lon="9.7198044"><ele>121.0</ele><time>2026-03-29T10:12:58.378Z</time></trkpt><trkpt lat="45.5224642" lon="9.7200561"><ele>121.33333333333334</ele><time>2026-03-29T10:12:59.374Z</time></trkpt><trkpt lat="45.5224795" lon="9.7203135"><ele>121.66666666666666</ele><time>2026-03-29T10:13:00.369Z</time></trkpt><trkpt lat="45.5224936" lon="9.7205813"><ele>122.0</ele><time>2026-03-29T10:13:01.391Z</time></trkpt><trkpt lat="45.5225116" lon="9.7208333"><ele>121.66666666666666</ele><time>2026-03-29T10:13:02.381Z</time></trkpt><trkpt lat="45.5225251" lon="9.7210836"><ele>121.33333333333334</ele><time>2026-03-29T10:13:03.375Z</time></trkpt><trkpt lat="45.5225382" lon="9.7213355"><ele>121.0</ele><time>2026-03-29T10:13:04.385Z</time></trkpt><trkpt lat="45.5225528" lon="9.7215826"><ele>121.0</ele><time>2026-03-29T10:13:05.384Z</time></trkpt><trkpt lat="45.5225646" lon="9.7218332"><ele>121.0</ele><time>2026-03-29T10:13:06.401Z</time></trkpt><trkpt lat="45.5225744" lon="9.7220692"><ele>121.0</ele><time>2026-03-29T10:13:07.378Z</time></trkpt><trkpt lat="45.5225838" lon="9.7223119"><ele>120.33333333333334</ele><time>2026-03-29T10:13:08.377Z</time></trkpt><trkpt lat="45.5225971" lon="9.7225515"><ele>119.66666666666666</ele><time>2026-03-29T10:13:09.382Z</time></trkpt><trkpt lat="45.5226084" lon="9.7227992"><ele>119.0</ele><time>2026-03-29T10:13:10.384Z</time></trkpt><trkpt lat="45.5226151" lon="9.7230512"><ele>118.33333333333333</ele><time>2026-03-29T10:13:11.38Z</time></trkpt><trkpt lat="45.5226174" lon="9.7233159"><ele>117.66666666666666</ele><time>2026-03-29T10:13:12.387Z</time></trkpt><trkpt lat="45.5226098" lon="9.7235661"><ele>117.0</ele><time>2026-03-29T10:13:13.378Z</time></trkpt><trkpt lat="45.5226091" lon="9.7238269"><ele>117.0</ele><time>2026-03-29T10:13:14.367Z</time></trkpt><trkpt lat="45.5226151" lon="9.724086"><ele>117.0</ele><time>2026-03-29T10:13:15.377Z</time></trkpt><trkpt lat="45.5226311" lon="9.7243335"><ele>117.0</ele><time>2026-03-29T10:13:16.376Z</time></trkpt><trkpt lat="45.5226521" lon="9.7245753"><ele>118.0</ele><time>2026-03-29T10:13:17.414Z</time></trkpt><trkpt lat="45.522675" lon="9.7247949"><ele>119.0</ele><time>2026-03-29T10:13:18.369Z</time></trkpt><trkpt lat="45.5226952" lon="9.7250394"><ele>120.0</ele><time>2026-03-29T10:13:19.387Z</time></trkpt><trkpt lat="45.5227165" lon="9.7252862"><ele>120.0</ele><time>2026-03-29T10:13:20.371Z</time></trkpt><trkpt lat="45.5227402" lon="9.7255421"><ele>120.0</ele><time>2026-03-29T10:13:21.382Z</time></trkpt><trkpt lat="45.5227636" lon="9.725797"><ele>120.0</ele><time>2026-03-29T10:13:22.374Z</time></trkpt><trkpt lat="45.5227803" lon="9.7260573"><ele>119.66666666666666</ele><time>2026-03-29T10:13:23.38Z</time></trkpt><trkpt lat="45.5227999" lon="9.7263217"><ele>119.33333333333333</ele><time>2026-03-29T10:13:24.374Z</time></trkpt><trkpt lat="45.5228215" lon="9.7265818"><ele>119.0</ele><time>2026-03-29T10:13:25.379Z</time></trkpt><trkpt lat="45.5228441" lon="9.7268398"><ele>118.66666666666666</ele><time>2026-03-29T10:13:26.384Z</time></trkpt><trkpt lat="45.5228629" lon="9.7270939"><ele>118.33333333333334</ele><time>2026-03-29T10:13:27.381Z</time></trkpt><trkpt lat="45.5228764" lon="9.7273506"><ele>118.0</ele><time>2026-03-29T10:13:28.383Z</time></trkpt><trkpt lat="45.5228904" lon="9.727605"><ele>119.0</ele><time>2026-03-29T10:13:29.374Z</time></trkpt><trkpt lat="45.522903" lon="9.7278626"><ele>120.0</ele><time>2026-03-29T10:13:30.373Z</time></trkpt><trkpt lat="45.5229189" lon="9.7281221"><ele>121.0</ele><time>2026-03-29T10:13:31.388Z</time></trkpt><trkpt lat="45.5229374" lon="9.7283798"><ele>120.33333333333334</ele><time>2026-03-29T10:13:32.394Z</time></trkpt><trkpt lat="45.5229569" lon="9.7286341"><ele>119.66666666666666</ele><time>2026-03-29T10:13:33.403Z</time></trkpt><trkpt lat="45.5229714" lon="9.7288824"><ele>119.0</ele><time>2026-03-29T10:13:34.378Z</time></trkpt><trkpt lat="45.5229844" lon="9.729144"><ele>119.33333333333333</ele><time>2026-03-29T10:13:35.392Z</time></trkpt><trkpt lat="45.5229998" lon="9.7293957"><ele>119.66666666666666</ele><time>2026-03-29T10:13:36.382Z</time></trkpt><trkpt lat="45.5230157" lon="9.7296437"><ele>120.0</ele><time>2026-03-29T10:13:37.38Z</time></trkpt><trkpt lat="45.5230306" lon="9.7298877"><ele>120.0</ele><time>2026-03-29T10:13:38.371Z</time></trkpt><trkpt lat="45.5230449" lon="9.7301395"><ele>120.0</ele><time>2026-03-29T10:13:39.375Z</time></trkpt><trkpt lat="45.5230574" lon="9.7303905"><ele>120.0</ele><time>2026-03-29T10:13:40.379Z</time></trkpt><trkpt lat="45.5230715" lon="9.7306413"><ele>120.33333333333334</ele><time>2026-03-29T10:13:41.378Z</time></trkpt><trkpt lat="45.5230869" lon="9.7308916"><ele>120.66666666666667</ele><time>2026-03-29T10:13:42.381Z</time></trkpt><trkpt lat="45.5231018" lon="9.7311396"><ele>121.0</ele><time>2026-03-29T10:13:43.379Z</time></trkpt><trkpt lat="45.5231165" lon="9.7313907"><ele>121.0</ele><time>2026-03-29T10:13:44.385Z</time></trkpt><trkpt lat="45.5231319" lon="9.731642"><ele>121.0</ele><time>2026-03-29T10:13:45.369Z</time></trkpt><trkpt lat="45.5231471" lon="9.7319034"><ele>121.0</ele><time>2026-03-29T10:13:46.396Z</time></trkpt><trkpt lat="45.523162" lon="9.7321579"><ele>121.33333333333334</ele><time>2026-03-29T10:13:47.386Z</time></trkpt><trkpt lat="45.5231787" lon="9.7324126"><ele>121.66666666666666</ele><time>2026-03-29T10:13:48.38Z</time></trkpt><trkpt lat="45.523195" lon="9.7326678"><ele>122.0</ele><time>2026-03-29T10:13:49.375Z</time></trkpt><trkpt lat="45.5232092" lon="9.7329243"><ele>122.0</ele><time>2026-03-29T10:13:50.374Z</time></trkpt><trkpt lat="45.5232246" lon="9.7331824"><ele>122.0</ele><time>2026-03-29T10:13:51.382Z</time></trkpt><trkpt lat="45.5232396" lon="9.733434"><ele>122.0</ele><time>2026-03-29T10:13:52.368Z</time></trkpt><trkpt lat="45.5232552" lon="9.7336891"><ele>122.0</ele><time>2026-03-29T10:13:53.394Z</time></trkpt><trkpt lat="45.5232702" lon="9.7339345"><ele>122.0</ele><time>2026-03-29T10:13:54.373Z</time></trkpt><trkpt lat="45.5232864" lon="9.7341832"><ele>122.0</ele><time>2026-03-29T10:13:55.372Z</time></trkpt><trkpt lat="45.5233044" lon="9.7344327"><ele>122.0</ele><time>2026-03-29T10:13:56.376Z</time></trkpt><trkpt lat="45.5233218" lon="9.7346763"><ele>122.0</ele><time>2026-03-29T10:13:57.376Z</time></trkpt><trkpt lat="45.5233358" lon="9.7349198"><ele>122.0</ele><time>2026-03-29T10:13:58.369Z</time></trkpt><trkpt lat="45.5233468" lon="9.7351607"><ele>121.66666666666666</ele><time>2026-03-29T10:13:59.372Z</time></trkpt><trkpt lat="45.5233575" lon="9.7354039"><ele>121.33333333333334</ele><time>2026-03-29T10:14:00.388Z</time></trkpt><trkpt lat="45.5233692" lon="9.735643"><ele>121.0</ele><time>2026-03-29T10:14:01.39Z</time></trkpt><trkpt lat="45.523379" lon="9.7358787"><ele>121.0</ele><time>2026-03-29T10:14:02.378Z</time></trkpt><trkpt lat="45.5233821" lon="9.7361131"><ele>121.0</ele><time>2026-03-29T10:14:03.372Z</time></trkpt><trkpt lat="45.5233859" lon="9.7363525"><ele>121.0</ele><time>2026-03-29T10:14:04.383Z</time></trkpt><trkpt lat="45.5233893" lon="9.7365831"><ele>121.0</ele><time>2026-03-29T10:14:05.368Z</time></trkpt><trkpt lat="45.5233943" lon="9.7368274"><ele>121.0</ele><time>2026-03-29T10:14:06.386Z</time></trkpt><trkpt lat="45.5234006" lon="9.7370633"><ele>121.0</ele><time>2026-03-29T10:14:07.374Z</time></trkpt><trkpt lat="45.5234055" lon="9.7373"><ele>121.33333333333334</ele><time>2026-03-29T10:14:08.381Z</time></trkpt><trkpt lat="45.5234051" lon="9.737536"><ele>121.66666666666666</ele><time>2026-03-29T10:14:09.38Z</time></trkpt><trkpt lat="45.5233949" lon="9.7377731"><ele>122.0</ele><time>2026-03-29T10:14:10.393Z</time></trkpt><trkpt lat="45.5233726" lon="9.7379958"><ele>122.33333333333333</ele><time>2026-03-29T10:14:11.365Z</time></trkpt><trkpt lat="45.5233323" lon="9.7382225"><ele>122.66666666666666</ele><time>2026-03-29T10:14:12.381Z</time></trkpt><trkpt lat="45.5232823" lon="9.7384454"><ele>123.0</ele><time>2026-03-29T10:14:13.38Z</time></trkpt><trkpt lat="45.5232294" lon="9.7386687"><ele>122.33333333333334</ele><time>2026-03-29T10:14:14.38Z</time></trkpt><trkpt lat="45.523176" lon="9.7388903"><ele>121.66666666666667</ele><time>2026-03-29T10:14:15.385Z</time></trkpt><trkpt lat="45.5231248" lon="9.7391124"><ele>121.0</ele><time>2026-03-29T10:14:16.378Z</time></trkpt><trkpt lat="45.5230739" lon="9.7393298"><ele>121.0</ele><time>2026-03-29T10:14:17.371Z</time></trkpt><trkpt lat="45.5230207" lon="9.7395439"><ele>121.0</ele><time>2026-03-29T10:14:18.374Z</time></trkpt><trkpt lat="45.5229703" lon="9.7397627"><ele>121.0</ele><time>2026-03-29T10:14:19.4Z</time></trkpt><trkpt lat="45.5229315" lon="9.7399719"><ele>121.0</ele><time>2026-03-29T10:14:20.381Z</time></trkpt><trkpt lat="45.5228979" lon="9.7401875"><ele>121.0</ele><time>2026-03-29T10:14:21.385Z</time></trkpt><trkpt lat="45.5228766" lon="9.7404014"><ele>121.0</ele><time>2026-03-29T10:14:22.396Z</time></trkpt><trkpt lat="45.5228591" lon="9.7406217"><ele>120.66666666666667</ele><time>2026-03-29T10:14:23.379Z</time></trkpt><trkpt lat="45.5228436" lon="9.7408508"><ele>120.33333333333334</ele><time>2026-03-29T10:14:24.381Z</time></trkpt><trkpt lat="45.5228278" lon="9.7410878"><ele>120.0</ele><time>2026-03-29T10:14:25.385Z</time></trkpt><trkpt lat="45.522812" lon="9.7413245"><ele>120.0</ele><time>2026-03-29T10:14:26.371Z</time></trkpt><trkpt lat="45.5227959" lon="9.7415711"><ele>120.0</ele><time>2026-03-29T10:14:27.402Z</time></trkpt><trkpt lat="45.5227815" lon="9.7418077"><ele>120.0</ele><time>2026-03-29T10:14:28.386Z</time></trkpt><trkpt lat="45.5227619" lon="9.7420433"><ele>120.33333333333334</ele><time>2026-03-29T10:14:29.392Z</time></trkpt><trkpt lat="45.5227352" lon="9.7422626"><ele>120.66666666666667</ele><time>2026-03-29T10:14:30.377Z</time></trkpt><trkpt lat="45.5227033" lon="9.7424857"><ele>121.0</ele><time>2026-03-29T10:14:31.407Z</time></trkpt><trkpt lat="45.5226694" lon="9.742685"><ele>121.0</ele><time>2026-03-29T10:14:32.367Z</time></trkpt><trkpt lat="45.5226317" lon="9.7428926"><ele>121.0</ele><time>2026-03-29T10:14:33.379Z</time></trkpt><trkpt lat="45.5225961" lon="9.7430851"><ele>121.0</ele><time>2026-03-29T10:14:34.367Z</time></trkpt><trkpt lat="45.5225596" lon="9.7432788"><ele>121.0</ele><time>2026-03-29T10:14:35.386Z</time></trkpt><trkpt lat="45.5225241" lon="9.7434628"><ele>120.75</ele><time>2026-03-29T10:14:36.379Z</time></trkpt><trkpt lat="45.5224938" lon="9.743641"><ele>120.5</ele><time>2026-03-29T10:14:37.376Z</time></trkpt><trkpt lat="45.522473" lon="9.7438189"><ele>120.25</ele><time>2026-03-29T10:14:38.375Z</time></trkpt><trkpt lat="45.5224575" lon="9.743982"><ele>120.0</ele><time>2026-03-29T10:14:39.379Z</time></trkpt><trkpt lat="45.5224518" lon="9.7441205"><ele>120.0</ele><time>2026-03-29T10:14:40.385Z</time></trkpt><trkpt lat="45.522447" lon="9.7442438"><ele>120.0</ele><time>2026-03-29T10:14:41.397Z</time></trkpt><trkpt lat="45.5224362" lon="9.7443417"><ele>120.0</ele><time>2026-03-29T10:14:42.377Z</time></trkpt><trkpt lat="45.5223855" lon="9.744497"><ele>120.0</ele><time>2026-03-29T10:14:44.383Z</time></trkpt><trkpt lat="45.52232" lon="9.7445937"><ele>120.0</ele><time>2026-03-29T10:14:46.372Z</time></trkpt><trkpt lat="45.5222365" lon="9.7446589"><ele>120.0</ele><time>2026-03-29T10:14:48.385Z</time></trkpt><trkpt lat="45.5221396" lon="9.7447266"><ele>120.0</ele><time>2026-03-29T10:14:50.392Z</time></trkpt><trkpt lat="45.5220846" lon="9.7447772"><ele>120.0</ele><time>2026-03-29T10:14:51.375Z</time></trkpt><trkpt lat="45.5220023" lon="9.7449246"><ele>120.0</ele><time>2026-03-29T10:14:53.375Z</time></trkpt><trkpt lat="45.5219898" lon="9.7450473"><ele>120.0</ele><time>2026-03-29T10:14:54.388Z</time></trkpt><trkpt lat="45.5220138" lon="9.7451778"><ele>120.4</ele><time>2026-03-29T10:14:55.378Z</time></trkpt><trkpt lat="45.5220671" lon="9.7452841"><ele>120.8</ele><time>2026-03-29T10:14:56.384Z</time></trkpt><trkpt lat="45.522145" lon="9.745352"><ele>121.19999999999999</ele><time>2026-03-29T10:14:57.379Z</time></trkpt><trkpt lat="45.5222415" lon="9.7453945"><ele>121.6</ele><time>2026-03-29T10:14:58.371Z</time></trkpt><trkpt lat="45.5223365" lon="9.7453957"><ele>122.0</ele><time>2026-03-29T10:14:59.371Z</time></trkpt><trkpt lat="45.5224204" lon="9.7453567"><ele>122.0</ele><time>2026-03-29T10:15:00.394Z</time></trkpt><trkpt lat="45.5224963" lon="9.7452362"><ele>121.99999999999999</ele><time>2026-03-29T10:15:02.374Z</time></trkpt><trkpt lat="45.5225564" lon="9.7451816"><ele>121.99999999999999</ele><time>2026-03-29T10:15:04.384Z</time></trkpt><trkpt lat="45.5226674" lon="9.7452442"><ele>122.0</ele><time>2026-03-29T10:15:06.407Z</time></trkpt><trkpt lat="45.5227534" lon="9.7453123"><ele>122.0</ele><time>2026-03-29T10:15:07.382Z</time></trkpt><trkpt lat="45.5228598" lon="9.7453675"><ele>121.75</ele><time>2026-03-29T10:15:08.405Z</time></trkpt><trkpt lat="45.5229716" lon="9.7453985"><ele>121.5</ele><time>2026-03-29T10:15:09.383Z</time></trkpt><trkpt lat="45.5230979" lon="9.7454304"><ele>121.25</ele><time>2026-03-29T10:15:10.375Z</time></trkpt><trkpt lat="45.5232376" lon="9.7454646"><ele>121.0</ele><time>2026-03-29T10:15:11.398Z</time></trkpt><trkpt lat="45.5233803" lon="9.7455126"><ele>121.0</ele><time>2026-03-29T10:15:12.382Z</time></trkpt><trkpt lat="45.5235377" lon="9.7455553"><ele>121.0</ele><time>2026-03-29T10:15:13.426Z</time></trkpt><trkpt lat="45.5236866" lon="9.7455906"><ele>121.0</ele><time>2026-03-29T10:15:14.38Z</time></trkpt><trkpt lat="45.523851" lon="9.7456371"><ele>121.0</ele><time>2026-03-29T10:15:15.417Z</time></trkpt><trkpt lat="45.52406" lon="9.7456845"><ele>121.0</ele><time>2026-03-29T10:15:16.74Z</time></trkpt><trkpt lat="45.5243406" lon="9.7457125"><ele>121.0</ele><time>2026-03-29T10:15:18.465Z</time></trkpt><trkpt lat="45.5244848" lon="9.7456757"><ele>121.0</ele><time>2026-03-29T10:15:19.433Z</time></trkpt><trkpt lat="45.5246435" lon="9.7456073"><ele>121.0</ele><time>2026-03-29T10:15:20.438Z</time></trkpt><trkpt lat="45.5248056" lon="9.7455368"><ele>121.66666666666667</ele><time>2026-03-29T10:15:21.455Z</time></trkpt><trkpt lat="45.5249636" lon="9.7454669"><ele>122.33333333333334</ele><time>2026-03-29T10:15:22.432Z</time></trkpt><trkpt lat="45.5251104" lon="9.7453986"><ele>123.0</ele><time>2026-03-29T10:15:23.374Z</time></trkpt><trkpt lat="45.5252693" lon="9.7453265"><ele>123.0</ele><time>2026-03-29T10:15:24.38Z</time></trkpt><trkpt lat="45.5254361" lon="9.7452494"><ele>123.0</ele><time>2026-03-29T10:15:25.401Z</time></trkpt><trkpt lat="45.5255999" lon="9.7451691"><ele>123.0</ele><time>2026-03-29T10:15:26.378Z</time></trkpt><trkpt lat="45.5257764" lon="9.7450851"><ele>123.33333333333334</ele><time>2026-03-29T10:15:27.388Z</time></trkpt><trkpt lat="45.5259544" lon="9.7450008"><ele>123.66666666666667</ele><time>2026-03-29T10:15:28.388Z</time></trkpt><trkpt lat="45.5261323" lon="9.7449127"><ele>124.0</ele><time>2026-03-29T10:15:29.392Z</time></trkpt><trkpt lat="45.5262973" lon="9.7448305"><ele>123.5</ele><time>2026-03-29T10:15:30.381Z</time></trkpt><trkpt lat="45.5264514" lon="9.7447538"><ele>123.0</ele><time>2026-03-29T10:15:31.38Z</time></trkpt><trkpt lat="45.5265944" lon="9.7446882"><ele>122.5</ele><time>2026-03-29T10:15:32.382Z</time></trkpt><trkpt lat="45.5267246" lon="9.7446405"><ele>122.0</ele><time>2026-03-29T10:15:33.375Z</time></trkpt><trkpt lat="45.5268413" lon="9.7446167"><ele>122.0</ele><time>2026-03-29T10:15:34.375Z</time></trkpt><trkpt lat="45.5269504" lon="9.7446165"><ele>121.99999999999999</ele><time>2026-03-29T10:15:35.371Z</time></trkpt><trkpt lat="45.5270518" lon="9.744636"><ele>121.99999999999999</ele><time>2026-03-29T10:15:36.385Z</time></trkpt><trkpt lat="45.527143" lon="9.7446778"><ele>122.0</ele><time>2026-03-29T10:15:37.383Z</time></trkpt><trkpt lat="45.527235" lon="9.7447315"><ele>122.0</ele><time>2026-03-29T10:15:38.388Z</time></trkpt><trkpt lat="45.5273189" lon="9.7447908"><ele>122.5</ele><time>2026-03-29T10:15:39.378Z</time></trkpt><trkpt lat="45.5274119" lon="9.7448525"><ele>123.0</ele><time>2026-03-29T10:15:40.381Z</time></trkpt><trkpt lat="45.5275135" lon="9.7448926"><ele>123.5</ele><time>2026-03-29T10:15:41.37Z</time></trkpt><trkpt lat="45.5276643" lon="9.7448498"><ele>124.0</ele><time>2026-03-29T10:15:43.377Z</time></trkpt><trkpt lat="45.5277452" lon="9.7447651"><ele>124.0</ele><time>2026-03-29T10:15:44.378Z</time></trkpt><trkpt lat="45.52779" lon="9.7446572"><ele>124.0</ele><time>2026-03-29T10:15:45.392Z</time></trkpt><trkpt lat="45.5278301" lon="9.7445287"><ele>124.0</ele><time>2026-03-29T10:15:46.382Z</time></trkpt><trkpt lat="45.5278666" lon="9.7444002"><ele>124.0</ele><time>2026-03-29T10:15:47.404Z</time></trkpt><trkpt lat="45.5279125" lon="9.7442814"><ele>124.0</ele><time>2026-03-29T10:15:48.394Z</time></trkpt><trkpt lat="45.5279748" lon="9.7441705"><ele>123.80000000000001</ele><time>2026-03-29T10:15:49.377Z</time></trkpt><trkpt lat="45.5280538" lon="9.7440577"><ele>123.60000000000001</ele><time>2026-03-29T10:15:50.392Z</time></trkpt><trkpt lat="45.5281353" lon="9.7439726"><ele>123.4</ele><time>2026-03-29T10:15:51.382Z</time></trkpt><trkpt lat="45.5282336" lon="9.7438972"><ele>123.2</ele><time>2026-03-29T10:15:52.386Z</time></trkpt><trkpt lat="45.5283449" lon="9.7438228"><ele>123.0</ele><time>2026-03-29T10:15:53.397Z</time></trkpt><trkpt lat="45.5284647" lon="9.7437636"><ele>123.0</ele><time>2026-03-29T10:15:54.38Z</time></trkpt><trkpt lat="45.5285922" lon="9.7437299"><ele>123.0</ele><time>2026-03-29T10:15:55.375Z</time></trkpt><trkpt lat="45.5290461" lon="9.7437564"><ele>123.66666666666666</ele><time>2026-03-29T10:15:56.393Z</time></trkpt><trkpt lat="45.5291957" lon="9.7438316"><ele>124.33333333333333</ele><time>2026-03-29T10:15:57.385Z</time></trkpt><trkpt lat="45.5293364" lon="9.7439623"><ele>125.0</ele><time>2026-03-29T10:15:58.385Z</time></trkpt><trkpt lat="45.5294686" lon="9.744112"><ele>124.75</ele><time>2026-03-29T10:15:59.384Z</time></trkpt><trkpt lat="45.5295958" lon="9.7442523"><ele>124.5</ele><time>2026-03-29T10:16:00.381Z</time></trkpt><trkpt lat="45.5297114" lon="9.7443724"><ele>124.25</ele><time>2026-03-29T10:16:01.376Z</time></trkpt><trkpt lat="45.5298078" lon="9.7444828"><ele>124.0</ele><time>2026-03-29T10:16:02.395Z</time></trkpt><trkpt lat="45.5298799" lon="9.744571"><ele>123.50000000000001</ele><time>2026-03-29T10:16:03.378Z</time></trkpt><trkpt lat="45.5299288" lon="9.7446515"><ele>123.0</ele><time>2026-03-29T10:16:04.372Z</time></trkpt><trkpt lat="45.5299609" lon="9.7447387"><ele>122.5</ele><time>2026-03-29T10:16:05.38Z</time></trkpt><trkpt lat="45.5299738" lon="9.7448454"><ele>122.0</ele><time>2026-03-29T10:16:06.374Z</time></trkpt><trkpt lat="45.529983" lon="9.7449891"><ele>121.50000000000001</ele><time>2026-03-29T10:16:07.404Z</time></trkpt><trkpt lat="45.5300116" lon="9.7451287"><ele>121.0</ele><time>2026-03-29T10:16:08.369Z</time></trkpt><trkpt lat="45.5300741" lon="9.7452443"><ele>121.0</ele><time>2026-03-29T10:16:09.383Z</time></trkpt><trkpt lat="45.5301616" lon="9.745311"><ele>121.0</ele><time>2026-03-29T10:16:10.382Z</time></trkpt><trkpt lat="45.5302534" lon="9.7453092"><ele>121.0</ele><time>2026-03-29T10:16:11.376Z</time></trkpt><trkpt lat="45.5303607" lon="9.7453031"><ele>121.0</ele><time>2026-03-29T10:16:12.373Z</time></trkpt><trkpt lat="45.5304663" lon="9.7453012"><ele>121.0</ele><time>2026-03-29T10:16:13.391Z</time></trkpt><trkpt lat="45.5305622" lon="9.7453266"><ele>121.25</ele><time>2026-03-29T10:16:14.375Z</time></trkpt><trkpt lat="45.5306612" lon="9.7453967"><ele>121.5</ele><time>2026-03-29T10:16:15.382Z</time></trkpt><trkpt lat="45.5307667" lon="9.7454869"><ele>121.75</ele><time>2026-03-29T10:16:16.379Z</time></trkpt><trkpt lat="45.5308908" lon="9.7456022"><ele>122.0</ele><time>2026-03-29T10:16:17.404Z</time></trkpt><trkpt lat="45.5310295" lon="9.7457308"><ele>122.0</ele><time>2026-03-29T10:16:18.379Z</time></trkpt><trkpt lat="45.5311677" lon="9.7458653"><ele>122.0</ele><time>2026-03-29T10:16:19.375Z</time></trkpt><trkpt lat="45.5313042" lon="9.7460184"><ele>122.0</ele><time>2026-03-29T10:16:20.401Z</time></trkpt><trkpt lat="45.5314113" lon="9.7461872"><ele>123.66666666666666</ele><time>2026-03-29T10:16:21.372Z</time></trkpt><trkpt lat="45.5315" lon="9.7463865"><ele>125.33333333333334</ele><time>2026-03-29T10:16:22.391Z</time></trkpt><trkpt lat="45.5315658" lon="9.7466042"><ele>127.0</ele><time>2026-03-29T10:16:23.383Z</time></trkpt><trkpt lat="45.531613" lon="9.746831"><ele>126.66666666666667</ele><time>2026-03-29T10:16:24.384Z</time></trkpt><trkpt lat="45.531636" lon="9.7470628"><ele>126.33333333333334</ele><time>2026-03-29T10:16:25.384Z</time></trkpt><trkpt lat="45.5316354" lon="9.7473019"><ele>126.0</ele><time>2026-03-29T10:16:26.373Z</time></trkpt><trkpt lat="45.5316127" lon="9.7475542"><ele>126.0</ele><time>2026-03-29T10:16:27.395Z</time></trkpt><trkpt lat="45.5315793" lon="9.7478057"><ele>126.0</ele><time>2026-03-29T10:16:28.388Z</time></trkpt><trkpt lat="45.5315447" lon="9.7480698"><ele>126.0</ele><time>2026-03-29T10:16:29.382Z</time></trkpt><trkpt lat="45.531515" lon="9.7483522"><ele>125.33333333333334</ele><time>2026-03-29T10:16:30.385Z</time></trkpt><trkpt lat="45.5314797" lon="9.7486355"><ele>124.66666666666667</ele><time>2026-03-29T10:16:31.383Z</time></trkpt><trkpt lat="45.5314454" lon="9.7489202"><ele>124.0</ele><time>2026-03-29T10:16:32.378Z</time></trkpt><trkpt lat="45.5314127" lon="9.7491914"><ele>124.0</ele><time>2026-03-29T10:16:33.374Z</time></trkpt><trkpt lat="45.5313813" lon="9.7494691"><ele>124.0</ele><time>2026-03-29T10:16:34.387Z</time></trkpt><trkpt lat="45.5313527" lon="9.7497279"><ele>124.0</ele><time>2026-03-29T10:16:35.378Z</time></trkpt><trkpt lat="45.5313245" lon="9.7499684"><ele>124.0</ele><time>2026-03-29T10:16:36.375Z</time></trkpt><trkpt lat="45.5312993" lon="9.7501936"><ele>124.0</ele><time>2026-03-29T10:16:37.38Z</time></trkpt><trkpt lat="45.5312838" lon="9.7503791"><ele>124.0</ele><time>2026-03-29T10:16:38.388Z</time></trkpt><trkpt lat="45.531266" lon="9.7505321"><ele>124.0</ele><time>2026-03-29T10:16:39.385Z</time></trkpt><trkpt lat="45.5312477" lon="9.750648"><ele>124.0</ele><time>2026-03-29T10:16:40.382Z</time></trkpt><trkpt lat="45.5312138" lon="9.7507496"><ele>124.00000000000001</ele><time>2026-03-29T10:16:41.377Z</time></trkpt><trkpt lat="45.5311645" lon="9.7508221"><ele>124.0</ele><time>2026-03-29T10:16:42.396Z</time></trkpt><trkpt lat="45.5311084" lon="9.7508818"><ele>124.0</ele><time>2026-03-29T10:16:43.374Z</time></trkpt><trkpt lat="45.5310525" lon="9.750957"><ele>124.00000000000001</ele><time>2026-03-29T10:16:44.386Z</time></trkpt><trkpt lat="45.5310328" lon="9.7510484"><ele>124.0</ele><time>2026-03-29T10:16:45.379Z</time></trkpt><trkpt lat="45.531034" lon="9.7511594"><ele>124.0</ele><time>2026-03-29T10:16:46.38Z</time></trkpt><trkpt lat="45.531062" lon="9.7512689"><ele>123.80000000000001</ele><time>2026-03-29T10:16:47.381Z</time></trkpt><trkpt lat="45.5311054" lon="9.7513793"><ele>123.60000000000001</ele><time>2026-03-29T10:16:48.373Z</time></trkpt><trkpt lat="45.5311453" lon="9.7514895"><ele>123.4</ele><time>2026-03-29T10:16:49.374Z</time></trkpt><trkpt lat="45.5311628" lon="9.7516046"><ele>123.2</ele><time>2026-03-29T10:16:50.385Z</time></trkpt><trkpt lat="45.5311693" lon="9.7517347"><ele>123.0</ele><time>2026-03-29T10:16:51.375Z</time></trkpt><trkpt lat="45.5311703" lon="9.7519078"><ele>123.0</ele><time>2026-03-29T10:16:52.413Z</time></trkpt><trkpt lat="45.5311663" lon="9.7521191"><ele>123.0</ele><time>2026-03-29T10:16:53.384Z</time></trkpt><trkpt lat="45.5311584" lon="9.7523591"><ele>123.0</ele><time>2026-03-29T10:16:54.38Z</time></trkpt><trkpt lat="45.531149" lon="9.752589"><ele>123.66666666666666</ele><time>2026-03-29T10:16:55.38Z</time></trkpt><trkpt lat="45.5311393" lon="9.7528236"><ele>124.33333333333333</ele><time>2026-03-29T10:16:56.382Z</time></trkpt><trkpt lat="45.5311277" lon="9.7530696"><ele>125.0</ele><time>2026-03-29T10:16:57.399Z</time></trkpt><trkpt lat="45.5311153" lon="9.753312"><ele>124.66666666666666</ele><time>2026-03-29T10:16:58.387Z</time></trkpt><trkpt lat="45.5311039" lon="9.7535681"><ele>124.33333333333334</ele><time>2026-03-29T10:16:59.399Z</time></trkpt><trkpt lat="45.5310915" lon="9.7538207"><ele>124.0</ele><time>2026-03-29T10:17:00.388Z</time></trkpt><trkpt lat="45.5310755" lon="9.7540733"><ele>124.0</ele><time>2026-03-29T10:17:01.384Z</time></trkpt><trkpt lat="45.5310627" lon="9.7543272"><ele>124.0</ele><time>2026-03-29T10:17:02.37Z</time></trkpt><trkpt lat="45.5310505" lon="9.7545906"><ele>124.0</ele><time>2026-03-29T10:17:03.391Z</time></trkpt><trkpt lat="45.5310429" lon="9.7548429"><ele>124.0</ele><time>2026-03-29T10:17:04.379Z</time></trkpt><trkpt lat="45.5310368" lon="9.7550889"><ele>124.0</ele><time>2026-03-29T10:17:05.372Z</time></trkpt><trkpt lat="45.5310292" lon="9.7553271"><ele>124.0</ele><time>2026-03-29T10:17:06.373Z</time></trkpt><trkpt lat="45.5310225" lon="9.7555557"><ele>124.0</ele><time>2026-03-29T10:17:07.379Z</time></trkpt><trkpt lat="45.5310154" lon="9.7557721"><ele>124.0</ele><time>2026-03-29T10:17:08.378Z</time></trkpt><trkpt lat="45.5310085" lon="9.7559689"><ele>124.0</ele><time>2026-03-29T10:17:09.379Z</time></trkpt><trkpt lat="45.5310026" lon="9.7561464"><ele>124.0</ele><time>2026-03-29T10:17:10.385Z</time></trkpt><trkpt lat="45.5310002" lon="9.7562956"><ele>124.00000000000001</ele><time>2026-03-29T10:17:11.383Z</time></trkpt><trkpt lat="45.5310018" lon="9.7564285"><ele>124.0</ele><time>2026-03-29T10:17:12.388Z</time></trkpt><trkpt lat="45.5310098" lon="9.7565446"><ele>124.0</ele><time>2026-03-29T10:17:13.382Z</time></trkpt><trkpt lat="45.5310213" lon="9.7566378"><ele>124.0</ele><time>2026-03-29T10:17:14.387Z</time></trkpt><trkpt lat="45.5310396" lon="9.7567526"><ele>124.00000000000001</ele><time>2026-03-29T10:17:16.384Z</time></trkpt><trkpt lat="45.5310201" lon="9.7568542"><ele>124.0</ele><time>2026-03-29T10:17:19.382Z</time></trkpt><trkpt lat="45.5309817" lon="9.7569958"><ele>124.00000000000001</ele><time>2026-03-29T10:17:21.395Z</time></trkpt><trkpt lat="45.5309599" lon="9.757101"><ele>124.0</ele><time>2026-03-29T10:17:22.374Z</time></trkpt><trkpt lat="45.5309492" lon="9.7572263"><ele>124.0</ele><time>2026-03-29T10:17:23.375Z</time></trkpt><trkpt lat="45.5309424" lon="9.7573598"><ele>124.0</ele><time>2026-03-29T10:17:24.384Z</time></trkpt><trkpt lat="45.5309314" lon="9.7574846"><ele>124.00000000000001</ele><time>2026-03-29T10:17:25.378Z</time></trkpt><trkpt lat="45.5308783" lon="9.7576043"><ele>124.0</ele><time>2026-03-29T10:17:27.393Z</time></trkpt><trkpt lat="45.5307877" lon="9.7576936"><ele>124.0</ele><time>2026-03-29T10:17:28.38Z</time></trkpt><trkpt lat="45.5306871" lon="9.7577613"><ele>124.0</ele><time>2026-03-29T10:17:29.378Z</time></trkpt><trkpt lat="45.5305701" lon="9.7578358"><ele>124.0</ele><time>2026-03-29T10:17:30.376Z</time></trkpt><trkpt lat="45.5304404" lon="9.7579197"><ele>124.0</ele><time>2026-03-29T10:17:31.37Z</time></trkpt><trkpt lat="45.530297" lon="9.7580144"><ele>124.0</ele><time>2026-03-29T10:17:32.399Z</time></trkpt><trkpt lat="45.5301576" lon="9.7581118"><ele>124.0</ele><time>2026-03-29T10:17:33.388Z</time></trkpt><trkpt lat="45.5300174" lon="9.7582087"><ele>124.0</ele><time>2026-03-29T10:17:34.382Z</time></trkpt><trkpt lat="45.5298728" lon="9.75831"><ele>124.0</ele><time>2026-03-29T10:17:35.379Z</time></trkpt><trkpt lat="45.5297279" lon="9.7584098"><ele>124.0</ele><time>2026-03-29T10:17:36.373Z</time></trkpt><trkpt lat="45.5295822" lon="9.7585091"><ele>124.0</ele><time>2026-03-29T10:17:37.373Z</time></trkpt><trkpt lat="45.5294348" lon="9.7586077"><ele>124.0</ele><time>2026-03-29T10:17:38.395Z</time></trkpt><trkpt lat="45.5292927" lon="9.7587012"><ele>124.0</ele><time>2026-03-29T10:17:39.379Z</time></trkpt><trkpt lat="45.5291503" lon="9.7587939"><ele>124.0</ele><time>2026-03-29T10:17:40.396Z</time></trkpt><trkpt lat="45.5290185" lon="9.7588809"><ele>124.0</ele><time>2026-03-29T10:17:41.405Z</time></trkpt><trkpt lat="45.5289028" lon="9.7589589"><ele>124.0</ele><time>2026-03-29T10:17:42.381Z</time></trkpt><trkpt lat="45.5287929" lon="9.7590344"><ele>124.0</ele><time>2026-03-29T10:17:43.395Z</time></trkpt><trkpt lat="45.5286961" lon="9.7590985"><ele>124.0</ele><time>2026-03-29T10:17:44.383Z</time></trkpt><trkpt lat="45.5286113" lon="9.7591515"><ele>124.0</ele><time>2026-03-29T10:17:45.383Z</time></trkpt><trkpt lat="45.5285372" lon="9.7591957"><ele>124.2</ele><time>2026-03-29T10:17:46.394Z</time></trkpt><trkpt lat="45.5284747" lon="9.7592287"><ele>124.4</ele><time>2026-03-29T10:17:47.399Z</time></trkpt><trkpt lat="45.5283688" lon="9.7592498"><ele>124.6</ele><time>2026-03-29T10:17:49.387Z</time></trkpt><trkpt lat="45.5282492" lon="9.7592367"><ele>124.8</ele><time>2026-03-29T10:17:51.377Z</time></trkpt><trkpt lat="45.5281881" lon="9.7592626"><ele>125.0</ele><time>2026-03-29T10:17:52.385Z</time></trkpt><trkpt lat="45.5281304" lon="9.7594215"><ele>124.99999999999999</ele><time>2026-03-29T10:17:54.409Z</time></trkpt><trkpt lat="45.5281509" lon="9.7595125"><ele>125.0</ele><time>2026-03-29T10:17:55.398Z</time></trkpt><trkpt lat="45.5281976" lon="9.7596011"><ele>125.0</ele><time>2026-03-29T10:17:56.38Z</time></trkpt><trkpt lat="45.5282646" lon="9.7596699"><ele>125.0</ele><time>2026-03-29T10:17:57.378Z</time></trkpt><trkpt lat="45.5283377" lon="9.7597404"><ele>124.99999999999999</ele><time>2026-03-29T10:17:58.383Z</time></trkpt><trkpt lat="45.528401" lon="9.7598283"><ele>125.0</ele><time>2026-03-29T10:17:59.386Z</time></trkpt><trkpt lat="45.5284577" lon="9.759937"><ele>125.0</ele><time>2026-03-29T10:18:00.384Z</time></trkpt><trkpt lat="45.5285214" lon="9.7600674"><ele>125.0</ele><time>2026-03-29T10:18:01.387Z</time></trkpt><trkpt lat="45.5285805" lon="9.7602248"><ele>125.0</ele><time>2026-03-29T10:18:02.388Z</time></trkpt><trkpt lat="45.5286411" lon="9.7604084"><ele>125.0</ele><time>2026-03-29T10:18:03.388Z</time></trkpt><trkpt lat="45.5287064" lon="9.7606017"><ele>124.66666666666666</ele><time>2026-03-29T10:18:04.406Z</time></trkpt><trkpt lat="45.5287711" lon="9.7608049"><ele>124.33333333333334</ele><time>2026-03-29T10:18:05.384Z</time></trkpt><trkpt lat="45.5288397" lon="9.7610301"><ele>124.0</ele><time>2026-03-29T10:18:06.408Z</time></trkpt><trkpt lat="45.5289021" lon="9.7612611"><ele>124.0</ele><time>2026-03-29T10:18:07.376Z</time></trkpt><trkpt lat="45.5289728" lon="9.7614971"><ele>124.0</ele><time>2026-03-29T10:18:08.391Z</time></trkpt><trkpt lat="45.5290383" lon="9.7617229"><ele>124.0</ele><time>2026-03-29T10:18:09.388Z</time></trkpt><trkpt lat="45.5290928" lon="9.7619293"><ele>124.0</ele><time>2026-03-29T10:18:10.376Z</time></trkpt><trkpt lat="45.5291433" lon="9.7621052"><ele>124.0</ele><time>2026-03-29T10:18:11.382Z</time></trkpt><trkpt lat="45.5291845" lon="9.7622502"><ele>124.0</ele><time>2026-03-29T10:18:12.377Z</time></trkpt><trkpt lat="45.5292073" lon="9.762352"><ele>124.0</ele><time>2026-03-29T10:18:13.376Z</time></trkpt><trkpt lat="45.5292326" lon="9.762499"><ele>124.0</ele><time>2026-03-29T10:18:15.384Z</time></trkpt><trkpt lat="45.5292464" lon="9.7626045"><ele>124.2</ele><time>2026-03-29T10:18:17.392Z</time></trkpt><trkpt lat="45.529228" lon="9.7627302"><ele>124.4</ele><time>2026-03-29T10:18:19.379Z</time></trkpt><trkpt lat="45.5291674" lon="9.7629139"><ele>124.6</ele><time>2026-03-29T10:18:21.394Z</time></trkpt><trkpt lat="45.5291383" lon="9.7630293"><ele>124.8</ele><time>2026-03-29T10:18:22.378Z</time></trkpt><trkpt lat="45.5291257" lon="9.7631657"><ele>125.0</ele><time>2026-03-29T10:18:23.38Z</time></trkpt><trkpt lat="45.5291514" lon="9.76328"><ele>125.0</ele><time>2026-03-29T10:18:24.372Z</time></trkpt><trkpt lat="45.5292053" lon="9.7634046"><ele>125.0</ele><time>2026-03-29T10:18:25.389Z</time></trkpt><trkpt lat="45.5292841" lon="9.7635031"><ele>125.0</ele><time>2026-03-29T10:18:26.378Z</time></trkpt><trkpt lat="45.5293792" lon="9.7635565"><ele>125.0</ele><time>2026-03-29T10:18:27.377Z</time></trkpt><trkpt lat="45.529474" lon="9.763578"><ele>125.0</ele><time>2026-03-29T10:18:28.38Z</time></trkpt><trkpt lat="45.5295564" lon="9.7636145"><ele>125.5</ele><time>2026-03-29T10:18:29.381Z</time></trkpt><trkpt lat="45.5296204" lon="9.7636849"><ele>126.0</ele><time>2026-03-29T10:18:30.375Z</time></trkpt><trkpt lat="45.5296727" lon="9.7637993"><ele>126.5</ele><time>2026-03-29T10:18:31.385Z</time></trkpt><trkpt lat="45.5297132" lon="9.7639942"><ele>127.0</ele><time>2026-03-29T10:18:32.382Z</time></trkpt><trkpt lat="45.5297658" lon="9.7641807"><ele>127.0</ele><time>2026-03-29T10:18:33.377Z</time></trkpt><trkpt lat="45.5298248" lon="9.7643848"><ele>127.0</ele><time>2026-03-29T10:18:34.387Z</time></trkpt><trkpt lat="45.5298834" lon="9.7645815"><ele>127.0</ele><time>2026-03-29T10:18:35.38Z</time></trkpt><trkpt lat="45.529946" lon="9.7647837"><ele>127.0</ele><time>2026-03-29T10:18:36.38Z</time></trkpt><trkpt lat="45.5300112" lon="9.7649945"><ele>127.0</ele><time>2026-03-29T10:18:37.39Z</time></trkpt><trkpt lat="45.5300776" lon="9.7652069"><ele>127.0</ele><time>2026-03-29T10:18:38.391Z</time></trkpt><trkpt lat="45.5301506" lon="9.7654128"><ele>126.66666666666667</ele><time>2026-03-29T10:18:39.397Z</time></trkpt><trkpt lat="45.5302253" lon="9.7656237"><ele>126.33333333333334</ele><time>2026-03-29T10:18:40.394Z</time></trkpt><trkpt lat="45.5303033" lon="9.765832"><ele>126.0</ele><time>2026-03-29T10:18:41.393Z</time></trkpt><trkpt lat="45.5303859" lon="9.7660406"><ele>126.33333333333334</ele><time>2026-03-29T10:18:42.389Z</time></trkpt><trkpt lat="45.5304689" lon="9.7662387"><ele>126.66666666666667</ele><time>2026-03-29T10:18:43.376Z</time></trkpt><trkpt lat="45.5305497" lon="9.7664357"><ele>127.0</ele><time>2026-03-29T10:18:44.374Z</time></trkpt><trkpt lat="45.5306326" lon="9.766635"><ele>127.0</ele><time>2026-03-29T10:18:45.397Z</time></trkpt><trkpt lat="45.5307171" lon="9.7668246"><ele>127.0</ele><time>2026-03-29T10:18:46.379Z</time></trkpt><trkpt lat="45.5308043" lon="9.7670151"><ele>127.0</ele><time>2026-03-29T10:18:47.382Z</time></trkpt><trkpt lat="45.5308919" lon="9.7672063"><ele>126.0</ele><time>2026-03-29T10:18:48.387Z</time></trkpt><trkpt lat="45.5309788" lon="9.7673895"><ele>125.0</ele><time>2026-03-29T10:18:49.382Z</time></trkpt><trkpt lat="45.5310715" lon="9.7675766"><ele>124.0</ele><time>2026-03-29T10:18:50.405Z</time></trkpt><trkpt lat="45.5311609" lon="9.767753"><ele>124.33333333333334</ele><time>2026-03-29T10:18:51.385Z</time></trkpt><trkpt lat="45.5312565" lon="9.7679329"><ele>124.66666666666666</ele><time>2026-03-29T10:18:52.39Z</time></trkpt><trkpt lat="45.5313527" lon="9.7681064"><ele>125.0</ele><time>2026-03-29T10:18:53.39Z</time></trkpt><trkpt lat="45.5314472" lon="9.7682773"><ele>125.0</ele><time>2026-03-29T10:18:54.384Z</time></trkpt><trkpt lat="45.5315407" lon="9.7684413"><ele>125.0</ele><time>2026-03-29T10:18:55.407Z</time></trkpt><trkpt lat="45.5316268" lon="9.7685844"><ele>125.0</ele><time>2026-03-29T10:18:56.382Z</time></trkpt><trkpt lat="45.531715" lon="9.7687258"><ele>125.0</ele><time>2026-03-29T10:18:57.374Z</time></trkpt><trkpt lat="45.5318033" lon="9.7688721"><ele>125.5</ele><time>2026-03-29T10:18:58.377Z</time></trkpt><trkpt lat="45.5318956" lon="9.7690261"><ele>126.0</ele><time>2026-03-29T10:18:59.4Z</time></trkpt><trkpt lat="45.5319885" lon="9.7691702"><ele>126.5</ele><time>2026-03-29T10:19:00.391Z</time></trkpt><trkpt lat="45.5320779" lon="9.7693051"><ele>127.0</ele><time>2026-03-29T10:19:01.383Z</time></trkpt><trkpt lat="45.5321548" lon="9.7694227"><ele>127.39999999999999</ele><time>2026-03-29T10:19:02.385Z</time></trkpt><trkpt lat="45.5322082" lon="9.769512"><ele>127.79999999999998</ele><time>2026-03-29T10:19:03.389Z</time></trkpt><trkpt lat="45.5322618" lon="9.7695989"><ele>128.2</ele><time>2026-03-29T10:19:05.381Z</time></trkpt><trkpt lat="45.5323447" lon="9.7697352"><ele>128.6</ele><time>2026-03-29T10:19:28.389Z</time></trkpt><trkpt lat="45.5324137" lon="9.7698218"><ele>129.0</ele><time>2026-03-29T10:19:29.406Z</time></trkpt><trkpt lat="45.5324864" lon="9.7699254"><ele>129.0</ele><time>2026-03-29T10:19:30.387Z</time></trkpt><trkpt lat="45.5325697" lon="9.7700522"><ele>129.0</ele><time>2026-03-29T10:19:31.39Z</time></trkpt><trkpt lat="45.5326591" lon="9.7701925"><ele>129.0</ele><time>2026-03-29T10:19:32.385Z</time></trkpt><trkpt lat="45.5327605" lon="9.7703457"><ele>129.0</ele><time>2026-03-29T10:19:33.392Z</time></trkpt><trkpt lat="45.532866" lon="9.7705055"><ele>128.66666666666666</ele><time>2026-03-29T10:19:34.385Z</time></trkpt><trkpt lat="45.5329764" lon="9.7706745"><ele>128.33333333333331</ele><time>2026-03-29T10:19:35.405Z</time></trkpt><trkpt lat="45.5330861" lon="9.7708516"><ele>128.0</ele><time>2026-03-29T10:19:36.409Z</time></trkpt><trkpt lat="45.5331972" lon="9.7710265"><ele>127.66666666666666</ele><time>2026-03-29T10:19:37.382Z</time></trkpt><trkpt lat="45.5333166" lon="9.771208"><ele>127.33333333333334</ele><time>2026-03-29T10:19:38.4Z</time></trkpt><trkpt lat="45.5334491" lon="9.7714189"><ele>127.0</ele><time>2026-03-29T10:19:39.507Z</time></trkpt><trkpt lat="45.5336749" lon="9.771776"><ele>127.33333333333334</ele><time>2026-03-29T10:19:41.384Z</time></trkpt><trkpt lat="45.5337968" lon="9.7719647"><ele>127.66666666666666</ele><time>2026-03-29T10:19:42.382Z</time></trkpt><trkpt lat="45.5339181" lon="9.7721593"><ele>128.0</ele><time>2026-03-29T10:19:43.387Z</time></trkpt><trkpt lat="45.5340373" lon="9.7723549"><ele>128.0</ele><time>2026-03-29T10:19:44.381Z</time></trkpt><trkpt lat="45.5341563" lon="9.7725515"><ele>128.0</ele><time>2026-03-29T10:19:45.387Z</time></trkpt><trkpt lat="45.5342625" lon="9.7727373"><ele>128.0</ele><time>2026-03-29T10:19:46.371Z</time></trkpt><trkpt lat="45.534363" lon="9.7729175"><ele>127.66666666666666</ele><time>2026-03-29T10:19:47.385Z</time></trkpt><trkpt lat="45.5344562" lon="9.7730931"><ele>127.33333333333334</ele><time>2026-03-29T10:19:48.385Z</time></trkpt><trkpt lat="45.5345436" lon="9.7732757"><ele>127.0</ele><time>2026-03-29T10:19:49.395Z</time></trkpt><trkpt lat="45.534625" lon="9.7734687"><ele>127.0</ele><time>2026-03-29T10:19:50.388Z</time></trkpt><trkpt lat="45.5347056" lon="9.773672"><ele>127.0</ele><time>2026-03-29T10:19:51.397Z</time></trkpt><trkpt lat="45.5347827" lon="9.7738767"><ele>127.0</ele><time>2026-03-29T10:19:52.387Z</time></trkpt><trkpt lat="45.5348636" lon="9.7740823"><ele>127.0</ele><time>2026-03-29T10:19:53.382Z</time></trkpt><trkpt lat="45.5349458" lon="9.7742887"><ele>127.0</ele><time>2026-03-29T10:19:54.384Z</time></trkpt><trkpt lat="45.5350292" lon="9.7744969"><ele>127.0</ele><time>2026-03-29T10:19:55.402Z</time></trkpt><trkpt lat="45.5351113" lon="9.7746978"><ele>127.33333333333334</ele><time>2026-03-29T10:19:56.387Z</time></trkpt><trkpt lat="45.5351973" lon="9.7749034"><ele>127.66666666666666</ele><time>2026-03-29T10:19:57.382Z</time></trkpt><trkpt lat="45.5352824" lon="9.7751106"><ele>128.0</ele><time>2026-03-29T10:19:58.383Z</time></trkpt><trkpt lat="45.5353682" lon="9.7753213"><ele>128.33333333333331</ele><time>2026-03-29T10:19:59.393Z</time></trkpt><trkpt lat="45.5354536" lon="9.7755274"><ele>128.66666666666666</ele><time>2026-03-29T10:20:00.383Z</time></trkpt><trkpt lat="45.5355427" lon="9.7757479"><ele>129.0</ele><time>2026-03-29T10:20:01.426Z</time></trkpt><trkpt lat="45.5356256" lon="9.7759514"><ele>129.0</ele><time>2026-03-29T10:20:02.385Z</time></trkpt><trkpt lat="45.5357088" lon="9.776161"><ele>129.0</ele><time>2026-03-29T10:20:03.374Z</time></trkpt><trkpt lat="45.5357939" lon="9.7763814"><ele>129.0</ele><time>2026-03-29T10:20:04.379Z</time></trkpt><trkpt lat="45.5358866" lon="9.7766161"><ele>129.0</ele><time>2026-03-29T10:20:05.397Z</time></trkpt><trkpt lat="45.5359786" lon="9.7768494"><ele>129.0</ele><time>2026-03-29T10:20:06.398Z</time></trkpt><trkpt lat="45.5360715" lon="9.7770794"><ele>129.0</ele><time>2026-03-29T10:20:07.377Z</time></trkpt><trkpt lat="45.5361703" lon="9.7773244"><ele>129.0</ele><time>2026-03-29T10:20:08.407Z</time></trkpt><trkpt lat="45.5362671" lon="9.7775594"><ele>129.0</ele><time>2026-03-29T10:20:09.397Z</time></trkpt><trkpt lat="45.5363618" lon="9.7777976"><ele>129.0</ele><time>2026-03-29T10:20:10.391Z</time></trkpt><trkpt lat="45.5364574" lon="9.7780403"><ele>129.0</ele><time>2026-03-29T10:20:11.387Z</time></trkpt><trkpt lat="45.536556" lon="9.778286"><ele>129.0</ele><time>2026-03-29T10:20:12.389Z</time></trkpt><trkpt lat="45.5366543" lon="9.7785279"><ele>129.0</ele><time>2026-03-29T10:20:13.379Z</time></trkpt><trkpt lat="45.5367566" lon="9.7787765"><ele>129.0</ele><time>2026-03-29T10:20:14.394Z</time></trkpt><trkpt lat="45.5368548" lon="9.7790217"><ele>129.0</ele><time>2026-03-29T10:20:15.387Z</time></trkpt><trkpt lat="45.5369521" lon="9.7792673"><ele>129.0</ele><time>2026-03-29T10:20:16.389Z</time></trkpt><trkpt lat="45.5370532" lon="9.779534"><ele>129.0</ele><time>2026-03-29T10:20:17.424Z</time></trkpt><trkpt lat="45.53715" lon="9.7797759"><ele>129.0</ele><time>2026-03-29T10:20:18.391Z</time></trkpt><trkpt lat="45.5372473" lon="9.7800138"><ele>129.0</ele><time>2026-03-29T10:20:19.385Z</time></trkpt><trkpt lat="45.5373447" lon="9.7802548"><ele>129.0</ele><time>2026-03-29T10:20:20.389Z</time></trkpt><trkpt lat="45.5374454" lon="9.7804979"><ele>129.0</ele><time>2026-03-29T10:20:21.413Z</time></trkpt><trkpt lat="45.5375413" lon="9.7807365"><ele>129.0</ele><time>2026-03-29T10:20:22.406Z</time></trkpt><trkpt lat="45.5376381" lon="9.7809782"><ele>129.0</ele><time>2026-03-29T10:20:23.413Z</time></trkpt><trkpt lat="45.5377313" lon="9.7812149"><ele>129.0</ele><time>2026-03-29T10:20:24.387Z</time></trkpt><trkpt lat="45.537828" lon="9.7814565"><ele>129.0</ele><time>2026-03-29T10:20:25.393Z</time></trkpt><trkpt lat="45.5379208" lon="9.7816966"><ele>129.33333333333334</ele><time>2026-03-29T10:20:26.392Z</time></trkpt><trkpt lat="45.5380121" lon="9.7819255"><ele>129.66666666666669</ele><time>2026-03-29T10:20:27.382Z</time></trkpt><trkpt lat="45.5381021" lon="9.7821519"><ele>130.0</ele><time>2026-03-29T10:20:28.394Z</time></trkpt><trkpt lat="45.5381851" lon="9.7823693"><ele>130.0</ele><time>2026-03-29T10:20:29.388Z</time></trkpt><trkpt lat="45.5382685" lon="9.78258"><ele>130.0</ele><time>2026-03-29T10:20:30.399Z</time></trkpt><trkpt lat="45.5383483" lon="9.7827805"><ele>130.0</ele><time>2026-03-29T10:20:31.379Z</time></trkpt><trkpt lat="45.5384301" lon="9.7829811"><ele>129.66666666666669</ele><time>2026-03-29T10:20:32.389Z</time></trkpt><trkpt lat="45.5385086" lon="9.7831834"><ele>129.33333333333334</ele><time>2026-03-29T10:20:33.395Z</time></trkpt><trkpt lat="45.5385867" lon="9.7833853"><ele>129.0</ele><time>2026-03-29T10:20:34.391Z</time></trkpt><trkpt lat="45.5386628" lon="9.7835917"><ele>130.33333333333334</ele><time>2026-03-29T10:20:35.408Z</time></trkpt><trkpt lat="45.5387348" lon="9.7837928"><ele>131.66666666666669</ele><time>2026-03-29T10:20:36.391Z</time></trkpt><trkpt lat="45.5388069" lon="9.7839888"><ele>133.0</ele><time>2026-03-29T10:20:37.385Z</time></trkpt><trkpt lat="45.5388794" lon="9.7841827"><ele>132.66666666666669</ele><time>2026-03-29T10:20:38.375Z</time></trkpt><trkpt lat="45.5389556" lon="9.7843822"><ele>132.33333333333334</ele><time>2026-03-29T10:20:39.394Z</time></trkpt><trkpt lat="45.5390287" lon="9.784572"><ele>132.0</ele><time>2026-03-29T10:20:40.379Z</time></trkpt><trkpt lat="45.5391009" lon="9.7847597"><ele>132.0</ele><time>2026-03-29T10:20:41.378Z</time></trkpt><trkpt lat="45.5391757" lon="9.7849541"><ele>132.0</ele><time>2026-03-29T10:20:42.401Z</time></trkpt><trkpt lat="45.5392484" lon="9.7851406"><ele>132.0</ele><time>2026-03-29T10:20:43.378Z</time></trkpt><trkpt lat="45.539324" lon="9.7853297"><ele>131.75</ele><time>2026-03-29T10:20:44.392Z</time></trkpt><trkpt lat="45.5393971" lon="9.7855124"><ele>131.5</ele><time>2026-03-29T10:20:45.374Z</time></trkpt><trkpt lat="45.5394695" lon="9.7857027"><ele>131.25</ele><time>2026-03-29T10:20:46.382Z</time></trkpt><trkpt lat="45.5395424" lon="9.7858898"><ele>131.0</ele><time>2026-03-29T10:20:47.388Z</time></trkpt><trkpt lat="45.5396112" lon="9.7860695"><ele>132.0</ele><time>2026-03-29T10:20:48.395Z</time></trkpt><trkpt lat="45.5396802" lon="9.7862453"><ele>133.0</ele><time>2026-03-29T10:20:49.385Z</time></trkpt><trkpt lat="45.5397455" lon="9.7864291"><ele>134.0</ele><time>2026-03-29T10:20:50.398Z</time></trkpt><trkpt lat="45.5398025" lon="9.786606"><ele>135.0</ele><time>2026-03-29T10:20:51.38Z</time></trkpt><trkpt lat="45.5398478" lon="9.7867958"><ele>135.25</ele><time>2026-03-29T10:20:52.389Z</time></trkpt><trkpt lat="45.539879" lon="9.7869916"><ele>135.5</ele><time>2026-03-29T10:20:53.381Z</time></trkpt><trkpt lat="45.5399039" lon="9.7871934"><ele>135.75</ele><time>2026-03-29T10:20:54.384Z</time></trkpt><trkpt lat="45.5399298" lon="9.7874023"><ele>136.0</ele><time>2026-03-29T10:20:55.384Z</time></trkpt><trkpt lat="45.5399547" lon="9.7876026"><ele>135.75</ele><time>2026-03-29T10:20:56.386Z</time></trkpt><trkpt lat="45.5399863" lon="9.7878065"><ele>135.5</ele><time>2026-03-29T10:20:57.398Z</time></trkpt><trkpt lat="45.5400215" lon="9.7880136"><ele>135.25</ele><time>2026-03-29T10:20:58.407Z</time></trkpt><trkpt lat="45.5400587" lon="9.7882039"><ele>135.0</ele><time>2026-03-29T10:20:59.408Z</time></trkpt><trkpt lat="45.5401084" lon="9.7883959"><ele>134.75</ele><time>2026-03-29T10:21:00.398Z</time></trkpt><trkpt lat="45.5401601" lon="9.788564"><ele>134.5</ele><time>2026-03-29T10:21:01.393Z</time></trkpt><trkpt lat="45.5402129" lon="9.7887153"><ele>134.25</ele><time>2026-03-29T10:21:02.383Z</time></trkpt><trkpt lat="45.5402682" lon="9.7888467"><ele>134.0</ele><time>2026-03-29T10:21:03.402Z</time></trkpt><trkpt lat="45.5403202" lon="9.7889702"><ele>134.0</ele><time>2026-03-29T10:21:04.397Z</time></trkpt><trkpt lat="45.5403649" lon="9.78908"><ele>134.0</ele><time>2026-03-29T10:21:05.387Z</time></trkpt><trkpt lat="45.5404102" lon="9.7891742"><ele>134.0</ele><time>2026-03-29T10:21:06.423Z</time></trkpt><trkpt lat="45.5404519" lon="9.7892492"><ele>134.0</ele><time>2026-03-29T10:21:07.397Z</time></trkpt><trkpt lat="45.5404946" lon="9.7893218"><ele>134.0</ele><time>2026-03-29T10:21:08.385Z</time></trkpt><trkpt lat="45.5405442" lon="9.7894062"><ele>134.0</ele><time>2026-03-29T10:21:09.388Z</time></trkpt><trkpt lat="45.5406104" lon="9.7895211"><ele>133.6</ele><time>2026-03-29T10:21:11.411Z</time></trkpt><trkpt lat="45.540652" lon="9.7895952"><ele>133.2</ele><time>2026-03-29T10:21:14.402Z</time></trkpt><trkpt lat="45.5407148" lon="9.7897041"><ele>132.79999999999998</ele><time>2026-03-29T10:21:22.39Z</time></trkpt><trkpt lat="45.5407918" lon="9.7898482"><ele>132.4</ele><time>2026-03-29T10:21:23.397Z</time></trkpt><trkpt lat="45.5408602" lon="9.7899877"><ele>132.0</ele><time>2026-03-29T10:21:24.381Z</time></trkpt><trkpt lat="45.5409386" lon="9.7901499"><ele>132.33333333333334</ele><time>2026-03-29T10:21:25.413Z</time></trkpt><trkpt lat="45.5410186" lon="9.7903081"><ele>132.66666666666669</ele><time>2026-03-29T10:21:26.384Z</time></trkpt><trkpt lat="45.5411086" lon="9.7904865"><ele>133.0</ele><time>2026-03-29T10:21:27.396Z</time></trkpt><trkpt lat="45.5412025" lon="9.7906706"><ele>133.0</ele><time>2026-03-29T10:21:28.402Z</time></trkpt><trkpt lat="45.5412973" lon="9.7908619"><ele>133.0</ele><time>2026-03-29T10:21:29.396Z</time></trkpt><trkpt lat="45.5413949" lon="9.791057"><ele>133.0</ele><time>2026-03-29T10:21:30.39Z</time></trkpt><trkpt lat="45.5414967" lon="9.7912466"><ele>133.0</ele><time>2026-03-29T10:21:31.397Z</time></trkpt><trkpt lat="45.541605" lon="9.7914546"><ele>133.0</ele><time>2026-03-29T10:21:32.396Z</time></trkpt><trkpt lat="45.5417044" lon="9.7916612"><ele>133.0</ele><time>2026-03-29T10:21:33.392Z</time></trkpt><trkpt lat="45.541801" lon="9.7918823"><ele>133.0</ele><time>2026-03-29T10:21:34.392Z</time></trkpt><trkpt lat="45.5418972" lon="9.7921143"><ele>133.0</ele><time>2026-03-29T10:21:35.379Z</time></trkpt><trkpt lat="45.5419958" lon="9.7923499"><ele>133.0</ele><time>2026-03-29T10:21:36.417Z</time></trkpt><trkpt lat="45.5420889" lon="9.7925752"><ele>133.0</ele><time>2026-03-29T10:21:37.381Z</time></trkpt><trkpt lat="45.5421817" lon="9.7928204"><ele>133.0</ele><time>2026-03-29T10:21:38.398Z</time></trkpt><trkpt lat="45.5422747" lon="9.7930641"><ele>133.0</ele><time>2026-03-29T10:21:39.379Z</time></trkpt><trkpt lat="45.5423602" lon="9.7933188"><ele>133.0</ele><time>2026-03-29T10:21:40.375Z</time></trkpt><trkpt lat="45.5424389" lon="9.7935738"><ele>133.0</ele><time>2026-03-29T10:21:41.379Z</time></trkpt><trkpt lat="45.5425185" lon="9.7938395"><ele>133.0</ele><time>2026-03-29T10:21:42.398Z</time></trkpt><trkpt lat="45.5425955" lon="9.7941135"><ele>133.0</ele><time>2026-03-29T10:21:43.399Z</time></trkpt><trkpt lat="45.5426639" lon="9.794377"><ele>133.0</ele><time>2026-03-29T10:21:44.39Z</time></trkpt><trkpt lat="45.5427299" lon="9.7946494"><ele>133.0</ele><time>2026-03-29T10:21:45.398Z</time></trkpt><trkpt lat="45.5427952" lon="9.7949208"><ele>132.66666666666669</ele><time>2026-03-29T10:21:46.384Z</time></trkpt><trkpt lat="45.5428502" lon="9.795195"><ele>132.33333333333334</ele><time>2026-03-29T10:21:47.383Z</time></trkpt><trkpt lat="45.5429047" lon="9.7954692"><ele>132.0</ele><time>2026-03-29T10:21:48.376Z</time></trkpt><trkpt lat="45.5429591" lon="9.7957449"><ele>133.33333333333334</ele><time>2026-03-29T10:21:49.382Z</time></trkpt><trkpt lat="45.5430094" lon="9.7960162"><ele>134.66666666666669</ele><time>2026-03-29T10:21:50.388Z</time></trkpt><trkpt lat="45.5430528" lon="9.7962858"><ele>136.0</ele><time>2026-03-29T10:21:51.396Z</time></trkpt><trkpt lat="45.5430937" lon="9.7965694"><ele>136.0</ele><time>2026-03-29T10:21:52.412Z</time></trkpt><trkpt lat="45.5431264" lon="9.7968312"><ele>136.0</ele><time>2026-03-29T10:21:53.383Z</time></trkpt><trkpt lat="45.5431632" lon="9.7971043"><ele>136.0</ele><time>2026-03-29T10:21:54.389Z</time></trkpt><trkpt lat="45.5432011" lon="9.7973705"><ele>135.66666666666669</ele><time>2026-03-29T10:21:55.385Z</time></trkpt><trkpt lat="45.5432402" lon="9.7976332"><ele>135.33333333333334</ele><time>2026-03-29T10:21:56.388Z</time></trkpt><trkpt lat="45.5432807" lon="9.7978957"><ele>135.0</ele><time>2026-03-29T10:21:57.392Z</time></trkpt><trkpt lat="45.5433222" lon="9.7981616"><ele>134.66666666666666</ele><time>2026-03-29T10:21:58.413Z</time></trkpt><trkpt lat="45.543358" lon="9.798419"><ele>134.33333333333331</ele><time>2026-03-29T10:21:59.406Z</time></trkpt><trkpt lat="45.5433934" lon="9.7986721"><ele>134.0</ele><time>2026-03-29T10:22:00.385Z</time></trkpt><trkpt lat="45.5434287" lon="9.7989278"><ele>134.0</ele><time>2026-03-29T10:22:01.384Z</time></trkpt><trkpt lat="45.5434662" lon="9.7991875"><ele>134.0</ele><time>2026-03-29T10:22:02.401Z</time></trkpt><trkpt lat="45.5435015" lon="9.7994393"><ele>134.0</ele><time>2026-03-29T10:22:03.373Z</time></trkpt><trkpt lat="45.5435391" lon="9.7997149"><ele>134.0</ele><time>2026-03-29T10:22:04.413Z</time></trkpt><trkpt lat="45.543574" lon="9.7999786"><ele>134.0</ele><time>2026-03-29T10:22:05.391Z</time></trkpt><trkpt lat="45.5436126" lon="9.8002524"><ele>134.0</ele><time>2026-03-29T10:22:06.399Z</time></trkpt><trkpt lat="45.5436514" lon="9.8005283"><ele>134.0</ele><time>2026-03-29T10:22:07.389Z</time></trkpt><trkpt lat="45.5436906" lon="9.8008082"><ele>134.0</ele><time>2026-03-29T10:22:08.38Z</time></trkpt><trkpt lat="45.5437316" lon="9.8010953"><ele>134.0</ele><time>2026-03-29T10:22:09.394Z</time></trkpt><trkpt lat="45.5437728" lon="9.8013792"><ele>134.0</ele><time>2026-03-29T10:22:10.376Z</time></trkpt><trkpt lat="45.5438159" lon="9.8016774"><ele>134.0</ele><time>2026-03-29T10:22:11.401Z</time></trkpt><trkpt lat="45.5438581" lon="9.8019678"><ele>134.0</ele><time>2026-03-29T10:22:12.398Z</time></trkpt><trkpt lat="45.5438987" lon="9.8022588"><ele>134.0</ele><time>2026-03-29T10:22:13.39Z</time></trkpt><trkpt lat="45.5439394" lon="9.8025467"><ele>134.0</ele><time>2026-03-29T10:22:14.374Z</time></trkpt><trkpt lat="45.5439794" lon="9.8028452"><ele>134.0</ele><time>2026-03-29T10:22:15.398Z</time></trkpt><trkpt lat="45.5440202" lon="9.8031357"><ele>134.0</ele><time>2026-03-29T10:22:16.388Z</time></trkpt><trkpt lat="45.5440583" lon="9.8034249"><ele>134.0</ele><time>2026-03-29T10:22:17.393Z</time></trkpt><trkpt lat="45.5440919" lon="9.8037068"><ele>134.0</ele><time>2026-03-29T10:22:18.388Z</time></trkpt><trkpt lat="45.5441236" lon="9.8039902"><ele>134.33333333333331</ele><time>2026-03-29T10:22:19.385Z</time></trkpt><trkpt lat="45.5441559" lon="9.8042704"><ele>134.66666666666666</ele><time>2026-03-29T10:22:20.379Z</time></trkpt><trkpt lat="45.5441906" lon="9.8045555"><ele>135.0</ele><time>2026-03-29T10:22:21.384Z</time></trkpt><trkpt lat="45.5442259" lon="9.8048423"><ele>135.66666666666666</ele><time>2026-03-29T10:22:22.406Z</time></trkpt><trkpt lat="45.5442579" lon="9.8051091"><ele>136.33333333333331</ele><time>2026-03-29T10:22:23.386Z</time></trkpt><trkpt lat="45.5442916" lon="9.8053862"><ele>137.0</ele><time>2026-03-29T10:22:24.399Z</time></trkpt><trkpt lat="45.5443243" lon="9.8056499"><ele>137.0</ele><time>2026-03-29T10:22:25.388Z</time></trkpt><trkpt lat="45.5443608" lon="9.805909"><ele>137.0</ele><time>2026-03-29T10:22:26.378Z</time></trkpt><trkpt lat="45.5444074" lon="9.8061825"><ele>137.0</ele><time>2026-03-29T10:22:27.392Z</time></trkpt><trkpt lat="45.5444697" lon="9.8064579"><ele>137.0</ele><time>2026-03-29T10:22:28.403Z</time></trkpt><trkpt lat="45.544545" lon="9.8067173"><ele>137.0</ele><time>2026-03-29T10:22:29.374Z</time></trkpt><trkpt lat="45.5446366" lon="9.8069958"><ele>137.0</ele><time>2026-03-29T10:22:30.4Z</time></trkpt><trkpt lat="45.5447237" lon="9.8072723"><ele>137.0</ele><time>2026-03-29T10:22:31.387Z</time></trkpt><trkpt lat="45.5448053" lon="9.8075588"><ele>137.0</ele><time>2026-03-29T10:22:32.381Z</time></trkpt><trkpt lat="45.5448901" lon="9.8078518"><ele>137.0</ele><time>2026-03-29T10:22:33.394Z</time></trkpt><trkpt lat="45.5449809" lon="9.8081483"><ele>137.0</ele><time>2026-03-29T10:22:34.401Z</time></trkpt><trkpt lat="45.5450708" lon="9.8084397"><ele>137.0</ele><time>2026-03-29T10:22:35.385Z</time></trkpt><trkpt lat="45.5451666" lon="9.8087431"><ele>136.5</ele><time>2026-03-29T10:22:36.386Z</time></trkpt><trkpt lat="45.5452632" lon="9.8090474"><ele>136.0</ele><time>2026-03-29T10:22:37.392Z</time></trkpt><trkpt lat="45.545357" lon="9.8093509"><ele>136.0</ele><time>2026-03-29T10:22:38.386Z</time></trkpt><trkpt lat="45.5454473" lon="9.8096537"><ele>136.0</ele><time>2026-03-29T10:22:39.388Z</time></trkpt><trkpt lat="45.5455342" lon="9.8099516"><ele>136.0</ele><time>2026-03-29T10:22:40.376Z</time></trkpt><trkpt lat="45.545621" lon="9.8102496"><ele>136.0</ele><time>2026-03-29T10:22:41.403Z</time></trkpt><trkpt lat="45.5457019" lon="9.8105194"><ele>136.0</ele><time>2026-03-29T10:22:42.385Z</time></trkpt><trkpt lat="45.545783" lon="9.8107795"><ele>136.0</ele><time>2026-03-29T10:22:43.4Z</time></trkpt><trkpt lat="45.5458616" lon="9.8110378"><ele>136.0</ele><time>2026-03-29T10:22:44.423Z</time></trkpt><trkpt lat="45.5459355" lon="9.8112801"><ele>136.0</ele><time>2026-03-29T10:22:45.396Z</time></trkpt><trkpt lat="45.5460125" lon="9.811536"><ele>136.0</ele><time>2026-03-29T10:22:46.41Z</time></trkpt><trkpt lat="45.5460936" lon="9.811792"><ele>136.0</ele><time>2026-03-29T10:22:47.39Z</time></trkpt><trkpt lat="45.5461775" lon="9.8120694"><ele>136.0</ele><time>2026-03-29T10:22:48.39Z</time></trkpt><trkpt lat="45.5462621" lon="9.8123556"><ele>136.0</ele><time>2026-03-29T10:22:49.375Z</time></trkpt><trkpt lat="45.5463517" lon="9.8126577"><ele>136.0</ele><time>2026-03-29T10:22:50.392Z</time></trkpt><trkpt lat="45.5464426" lon="9.812964"><ele>136.0</ele><time>2026-03-29T10:22:51.405Z</time></trkpt><trkpt lat="45.5465348" lon="9.8132721"><ele>136.0</ele><time>2026-03-29T10:22:52.413Z</time></trkpt><trkpt lat="45.546624" lon="9.8135756"><ele>136.0</ele><time>2026-03-29T10:22:53.391Z</time></trkpt><trkpt lat="45.5467152" lon="9.8138836"><ele>136.0</ele><time>2026-03-29T10:22:54.379Z</time></trkpt><trkpt lat="45.5468093" lon="9.8142014"><ele>136.5</ele><time>2026-03-29T10:22:55.389Z</time></trkpt><trkpt lat="45.5469032" lon="9.814513"><ele>137.0</ele><time>2026-03-29T10:22:56.382Z</time></trkpt><trkpt lat="45.5469978" lon="9.8148302"><ele>138.0</ele><time>2026-03-29T10:22:57.385Z</time></trkpt><trkpt lat="45.5470924" lon="9.815149"><ele>139.0</ele><time>2026-03-29T10:22:58.393Z</time></trkpt><trkpt lat="45.5471872" lon="9.8154712"><ele>139.0</ele><time>2026-03-29T10:22:59.398Z</time></trkpt><trkpt lat="45.547279" lon="9.815802"><ele>139.0</ele><time>2026-03-29T10:23:00.422Z</time></trkpt><trkpt lat="45.5473554" lon="9.8161168"><ele>138.0</ele><time>2026-03-29T10:23:01.398Z</time></trkpt><trkpt lat="45.5474218" lon="9.8164405"><ele>137.0</ele><time>2026-03-29T10:23:02.388Z</time></trkpt><trkpt lat="45.5474796" lon="9.8167776"><ele>137.0</ele><time>2026-03-29T10:23:03.39Z</time></trkpt><trkpt lat="45.5475328" lon="9.8171163"><ele>137.0</ele><time>2026-03-29T10:23:04.389Z</time></trkpt><trkpt lat="45.5475773" lon="9.8174583"><ele>136.0</ele><time>2026-03-29T10:23:05.388Z</time></trkpt><trkpt lat="45.5476124" lon="9.817803"><ele>135.0</ele><time>2026-03-29T10:23:06.387Z</time></trkpt><trkpt lat="45.5476369" lon="9.8181528"><ele>135.5</ele><time>2026-03-29T10:23:07.393Z</time></trkpt><trkpt lat="45.5476586" lon="9.8184994"><ele>136.0</ele><time>2026-03-29T10:23:08.381Z</time></trkpt><trkpt lat="45.5476801" lon="9.818854"><ele>136.0</ele><time>2026-03-29T10:23:09.391Z</time></trkpt><trkpt lat="45.5477034" lon="9.8192059"><ele>136.0</ele><time>2026-03-29T10:23:10.401Z</time></trkpt><trkpt lat="45.5477267" lon="9.8195424"><ele>136.66666666666669</ele><time>2026-03-29T10:23:11.39Z</time></trkpt><trkpt lat="45.5477476" lon="9.8198659"><ele>137.33333333333334</ele><time>2026-03-29T10:23:12.392Z</time></trkpt><trkpt lat="45.5477693" lon="9.8201779"><ele>138.0</ele><time>2026-03-29T10:23:13.412Z</time></trkpt><trkpt lat="45.5477894" lon="9.82046"><ele>138.0</ele><time>2026-03-29T10:23:14.402Z</time></trkpt><trkpt lat="45.5478072" lon="9.8207269"><ele>138.0</ele><time>2026-03-29T10:23:15.376Z</time></trkpt><trkpt lat="45.5478259" lon="9.8209824"><ele>138.0</ele><time>2026-03-29T10:23:16.379Z</time></trkpt><trkpt lat="45.5478445" lon="9.8212382"><ele>138.33333333333334</ele><time>2026-03-29T10:23:17.398Z</time></trkpt><trkpt lat="45.5478627" lon="9.8214853"><ele>138.66666666666669</ele><time>2026-03-29T10:23:18.383Z</time></trkpt><trkpt lat="45.5478808" lon="9.8217304"><ele>139.0</ele><time>2026-03-29T10:23:19.392Z</time></trkpt><trkpt lat="45.5478992" lon="9.8219554"><ele>139.0</ele><time>2026-03-29T10:23:20.392Z</time></trkpt><trkpt lat="45.5479132" lon="9.8221617"><ele>139.0</ele><time>2026-03-29T10:23:21.393Z</time></trkpt><trkpt lat="45.5479254" lon="9.8223268"><ele>139.0</ele><time>2026-03-29T10:23:22.382Z</time></trkpt><trkpt lat="45.5479355" lon="9.8224668"><ele>139.0</ele><time>2026-03-29T10:23:23.39Z</time></trkpt><trkpt lat="45.5479403" lon="9.8225873"><ele>139.0</ele><time>2026-03-29T10:23:24.39Z</time></trkpt><trkpt lat="45.5479374" lon="9.8226869"><ele>138.83333333333334</ele><time>2026-03-29T10:23:25.375Z</time></trkpt><trkpt lat="45.5479187" lon="9.8227841"><ele>138.66666666666669</ele><time>2026-03-29T10:23:26.381Z</time></trkpt><trkpt lat="45.5478841" lon="9.822873"><ele>138.5</ele><time>2026-03-29T10:23:27.383Z</time></trkpt><trkpt lat="45.547838" lon="9.8229839"><ele>138.33333333333334</ele><time>2026-03-29T10:23:28.394Z</time></trkpt><trkpt lat="45.5478006" lon="9.8231162"><ele>138.16666666666666</ele><time>2026-03-29T10:23:29.393Z</time></trkpt><trkpt lat="45.5477947" lon="9.8232649"><ele>138.0</ele><time>2026-03-29T10:23:30.386Z</time></trkpt><trkpt lat="45.5478326" lon="9.8234107"><ele>138.6</ele><time>2026-03-29T10:23:31.385Z</time></trkpt><trkpt lat="45.5478958" lon="9.8235414"><ele>139.20000000000002</ele><time>2026-03-29T10:23:32.395Z</time></trkpt><trkpt lat="45.5479591" lon="9.8236626"><ele>139.8</ele><time>2026-03-29T10:23:33.398Z</time></trkpt><trkpt lat="45.5480314" lon="9.8237693"><ele>140.4</ele><time>2026-03-29T10:23:34.387Z</time></trkpt><trkpt lat="45.5480947" lon="9.8238926"><ele>141.0</ele><time>2026-03-29T10:23:35.392Z</time></trkpt><trkpt lat="45.5481306" lon="9.8240568"><ele>141.0</ele><time>2026-03-29T10:23:36.391Z</time></trkpt><trkpt lat="45.5481578" lon="9.8242474"><ele>141.0</ele><time>2026-03-29T10:23:37.389Z</time></trkpt><trkpt lat="45.5481936" lon="9.8244674"><ele>141.0</ele><time>2026-03-29T10:23:38.392Z</time></trkpt><trkpt lat="45.5482336" lon="9.8246969"><ele>141.0</ele><time>2026-03-29T10:23:39.38Z</time></trkpt><trkpt lat="45.5482828" lon="9.8249423"><ele>141.0</ele><time>2026-03-29T10:23:40.396Z</time></trkpt><trkpt lat="45.5483362" lon="9.825195"><ele>141.0</ele><time>2026-03-29T10:23:41.398Z</time></trkpt><trkpt lat="45.5483976" lon="9.8254582"><ele>140.66666666666666</ele><time>2026-03-29T10:23:42.419Z</time></trkpt><trkpt lat="45.5484617" lon="9.8257099"><ele>140.33333333333331</ele><time>2026-03-29T10:23:43.395Z</time></trkpt><trkpt lat="45.5485258" lon="9.8259666"><ele>140.0</ele><time>2026-03-29T10:23:44.375Z</time></trkpt><trkpt lat="45.5485949" lon="9.8262363"><ele>140.0</ele><time>2026-03-29T10:23:45.391Z</time></trkpt><trkpt lat="45.5486679" lon="9.826503"><ele>140.0</ele><time>2026-03-29T10:23:46.386Z</time></trkpt><trkpt lat="45.5487488" lon="9.8267778"><ele>140.0</ele><time>2026-03-29T10:23:47.405Z</time></trkpt><trkpt lat="45.5488284" lon="9.8270431"><ele>140.0</ele><time>2026-03-29T10:23:48.387Z</time></trkpt><trkpt lat="45.5489132" lon="9.8273125"><ele>140.0</ele><time>2026-03-29T10:23:49.374Z</time></trkpt><trkpt lat="45.5490044" lon="9.8275876"><ele>140.0</ele><time>2026-03-29T10:23:50.39Z</time></trkpt><trkpt lat="45.5490979" lon="9.827856"><ele>140.0</ele><time>2026-03-29T10:23:51.391Z</time></trkpt><trkpt lat="45.5491926" lon="9.8281229"><ele>140.0</ele><time>2026-03-29T10:23:52.398Z</time></trkpt><trkpt lat="45.5492843" lon="9.828381"><ele>140.0</ele><time>2026-03-29T10:23:53.385Z</time></trkpt><trkpt lat="45.5493734" lon="9.8286327"><ele>140.0</ele><time>2026-03-29T10:23:54.391Z</time></trkpt><trkpt lat="45.5494604" lon="9.8288684"><ele>140.0</ele><time>2026-03-29T10:23:55.398Z</time></trkpt><trkpt lat="45.5495383" lon="9.8290864"><ele>140.0</ele><time>2026-03-29T10:23:56.387Z</time></trkpt><trkpt lat="45.5496141" lon="9.8292966"><ele>140.66666666666666</ele><time>2026-03-29T10:23:57.39Z</time></trkpt><trkpt lat="45.5496843" lon="9.829498"><ele>141.33333333333334</ele><time>2026-03-29T10:23:58.385Z</time></trkpt><trkpt lat="45.5497529" lon="9.8296963"><ele>142.0</ele><time>2026-03-29T10:23:59.394Z</time></trkpt><trkpt lat="45.5498233" lon="9.8298903"><ele>142.0</ele><time>2026-03-29T10:24:00.384Z</time></trkpt><trkpt lat="45.5498983" lon="9.8300951"><ele>142.0</ele><time>2026-03-29T10:24:01.399Z</time></trkpt><trkpt lat="45.5499726" lon="9.8302916"><ele>142.0</ele><time>2026-03-29T10:24:02.388Z</time></trkpt><trkpt lat="45.5500436" lon="9.8304892"><ele>142.0</ele><time>2026-03-29T10:24:03.387Z</time></trkpt><trkpt lat="45.550106" lon="9.8306849"><ele>142.0</ele><time>2026-03-29T10:24:04.388Z</time></trkpt><trkpt lat="45.5501682" lon="9.8308713"><ele>142.0</ele><time>2026-03-29T10:24:05.397Z</time></trkpt><trkpt lat="45.5502356" lon="9.8310572"><ele>142.0</ele><time>2026-03-29T10:24:06.391Z</time></trkpt><trkpt lat="45.5503099" lon="9.831246"><ele>142.0</ele><time>2026-03-29T10:24:07.386Z</time></trkpt><trkpt lat="45.5503843" lon="9.8314404"><ele>142.0</ele><time>2026-03-29T10:24:08.397Z</time></trkpt><trkpt lat="45.5504487" lon="9.8316167"><ele>142.0</ele><time>2026-03-29T10:24:09.384Z</time></trkpt><trkpt lat="45.5505053" lon="9.8317728"><ele>142.0</ele><time>2026-03-29T10:24:10.386Z</time></trkpt><trkpt lat="45.5505609" lon="9.8319279"><ele>142.0</ele><time>2026-03-29T10:24:11.383Z</time></trkpt><trkpt lat="45.5506193" lon="9.8320798"><ele>142.0</ele><time>2026-03-29T10:24:12.399Z</time></trkpt><trkpt lat="45.5506689" lon="9.8322198"><ele>142.0</ele><time>2026-03-29T10:24:13.383Z</time></trkpt><trkpt lat="45.5507141" lon="9.8323542"><ele>142.0</ele><time>2026-03-29T10:24:14.385Z</time></trkpt><trkpt lat="45.5507609" lon="9.8324824"><ele>142.0</ele><time>2026-03-29T10:24:15.381Z</time></trkpt><trkpt lat="45.5508077" lon="9.8326165"><ele>141.4</ele><time>2026-03-29T10:24:16.386Z</time></trkpt><trkpt lat="45.5508572" lon="9.832749"><ele>140.79999999999998</ele><time>2026-03-29T10:24:17.385Z</time></trkpt><trkpt lat="45.550903" lon="9.8328689"><ele>140.2</ele><time>2026-03-29T10:24:18.389Z</time></trkpt><trkpt lat="45.550943" lon="9.8329796"><ele>139.6</ele><time>2026-03-29T10:24:19.385Z</time></trkpt><trkpt lat="45.5509746" lon="9.8330715"><ele>139.0</ele><time>2026-03-29T10:24:20.388Z</time></trkpt><trkpt lat="45.5510045" lon="9.8332073"><ele>139.0</ele><time>2026-03-29T10:24:22.378Z</time></trkpt><trkpt lat="45.5510098" lon="9.8333428"><ele>139.0</ele><time>2026-03-29T10:24:24.39Z</time></trkpt><trkpt lat="45.551052" lon="9.8334399"><ele>139.0</ele><time>2026-03-29T10:24:26.406Z</time></trkpt><trkpt lat="45.5511396" lon="9.8334493"><ele>139.0</ele><time>2026-03-29T10:24:28.397Z</time></trkpt><trkpt lat="45.5512141" lon="9.833441"><ele>139.0</ele><time>2026-03-29T10:24:29.386Z</time></trkpt><trkpt lat="45.5513119" lon="9.8334229"><ele>139.0</ele><time>2026-03-29T10:24:30.404Z</time></trkpt><trkpt lat="45.5514195" lon="9.8334067"><ele>139.25</ele><time>2026-03-29T10:24:31.39Z</time></trkpt><trkpt lat="45.5515447" lon="9.8333863"><ele>139.5</ele><time>2026-03-29T10:24:32.39Z</time></trkpt><trkpt lat="45.5516783" lon="9.8333656"><ele>139.75</ele><time>2026-03-29T10:24:33.391Z</time></trkpt><trkpt lat="45.5518215" lon="9.8333511"><ele>140.0</ele><time>2026-03-29T10:24:34.395Z</time></trkpt><trkpt lat="45.5519689" lon="9.8333492"><ele>141.25</ele><time>2026-03-29T10:24:35.395Z</time></trkpt><trkpt lat="45.5521183" lon="9.8333501"><ele>142.5</ele><time>2026-03-29T10:24:36.407Z</time></trkpt><trkpt lat="45.5522579" lon="9.8333481"><ele>143.75</ele><time>2026-03-29T10:24:37.394Z</time></trkpt><trkpt lat="45.5523862" lon="9.8333459"><ele>145.0</ele><time>2026-03-29T10:24:38.399Z</time></trkpt><trkpt lat="45.552506" lon="9.8333401"><ele>145.0</ele><time>2026-03-29T10:24:39.404Z</time></trkpt><trkpt lat="45.5526172" lon="9.8333323"><ele>145.0</ele><time>2026-03-29T10:24:40.397Z</time></trkpt><trkpt lat="45.5527243" lon="9.8333251"><ele>145.0</ele><time>2026-03-29T10:24:41.404Z</time></trkpt><trkpt lat="45.5528338" lon="9.8333186"><ele>145.0</ele><time>2026-03-29T10:24:42.407Z</time></trkpt><trkpt lat="45.5529399" lon="9.8333143"><ele>145.0</ele><time>2026-03-29T10:24:43.397Z</time></trkpt><trkpt lat="45.5530464" lon="9.8333131"><ele>145.4</ele><time>2026-03-29T10:24:44.424Z</time></trkpt><trkpt lat="45.5531408" lon="9.8333121"><ele>145.8</ele><time>2026-03-29T10:24:45.396Z</time></trkpt><trkpt lat="45.5532391" lon="9.8332913"><ele>146.2</ele><time>2026-03-29T10:24:46.404Z</time></trkpt><trkpt lat="45.5533305" lon="9.8332647"><ele>146.6</ele><time>2026-03-29T10:24:47.391Z</time></trkpt><trkpt lat="45.5534265" lon="9.8332394"><ele>147.0</ele><time>2026-03-29T10:24:48.385Z</time></trkpt><trkpt lat="45.5535293" lon="9.833211"><ele>147.0</ele><time>2026-03-29T10:24:49.39Z</time></trkpt><trkpt lat="45.5536299" lon="9.8331864"><ele>147.0</ele><time>2026-03-29T10:24:50.402Z</time></trkpt><trkpt lat="45.5537204" lon="9.8331629"><ele>147.0</ele><time>2026-03-29T10:24:51.388Z</time></trkpt><trkpt lat="45.5538011" lon="9.8331435"><ele>147.0</ele><time>2026-03-29T10:24:52.415Z</time></trkpt><trkpt lat="45.5538714" lon="9.833129"><ele>147.0</ele><time>2026-03-29T10:24:53.406Z</time></trkpt><trkpt lat="45.5539927" lon="9.8330947"><ele>147.5</ele><time>2026-03-29T10:24:55.398Z</time></trkpt><trkpt lat="45.5540613" lon="9.8330628"><ele>148.0</ele><time>2026-03-29T10:24:56.39Z</time></trkpt><trkpt lat="45.5541388" lon="9.8330085"><ele>148.5</ele><time>2026-03-29T10:24:57.392Z</time></trkpt><trkpt lat="45.5542076" lon="9.8329282"><ele>149.0</ele><time>2026-03-29T10:24:58.417Z</time></trkpt><trkpt lat="45.5542804" lon="9.8328402"><ele>149.5</ele><time>2026-03-29T10:24:59.381Z</time></trkpt><trkpt lat="45.5543576" lon="9.8327451"><ele>150.0</ele><time>2026-03-29T10:25:00.402Z</time></trkpt><trkpt lat="45.5544407" lon="9.8326505"><ele>150.0</ele><time>2026-03-29T10:25:01.386Z</time></trkpt><trkpt lat="45.5545222" lon="9.8325694"><ele>150.0</ele><time>2026-03-29T10:25:02.402Z</time></trkpt><trkpt lat="45.5545884" lon="9.832522"><ele>150.0</ele><time>2026-03-29T10:25:03.393Z</time></trkpt><trkpt lat="45.554656" lon="9.8324915"><ele>150.0</ele><time>2026-03-29T10:25:04.394Z</time></trkpt><trkpt lat="45.5547225" lon="9.8324828"><ele>150.0</ele><time>2026-03-29T10:25:05.382Z</time></trkpt><trkpt lat="45.5547928" lon="9.8324826"><ele>150.0</ele><time>2026-03-29T10:25:06.389Z</time></trkpt><trkpt lat="45.5548649" lon="9.8324921"><ele>149.99999999999997</ele><time>2026-03-29T10:25:07.39Z</time></trkpt><trkpt lat="45.5549392" lon="9.8325071"><ele>150.0</ele><time>2026-03-29T10:25:08.394Z</time></trkpt><trkpt lat="45.5550136" lon="9.8325225"><ele>150.0</ele><time>2026-03-29T10:25:09.389Z</time></trkpt><trkpt lat="45.5550855" lon="9.8325232"><ele>150.0</ele><time>2026-03-29T10:25:10.381Z</time></trkpt><trkpt lat="45.555158" lon="9.8325233"><ele>150.0</ele><time>2026-03-29T10:25:11.387Z</time></trkpt><trkpt lat="45.5552272" lon="9.8325216"><ele>149.99999999999997</ele><time>2026-03-29T10:25:12.406Z</time></trkpt><trkpt lat="45.5552977" lon="9.8325203"><ele>150.0</ele><time>2026-03-29T10:25:13.403Z</time></trkpt><trkpt lat="45.5553676" lon="9.8325235"><ele>150.0</ele><time>2026-03-29T10:25:14.397Z</time></trkpt><trkpt lat="45.5554393" lon="9.8325182"><ele>150.0</ele><time>2026-03-29T10:25:15.385Z</time></trkpt><trkpt lat="45.5555165" lon="9.8325169"><ele>150.0</ele><time>2026-03-29T10:25:16.395Z</time></trkpt><trkpt lat="45.5555916" lon="9.8325161"><ele>150.0</ele><time>2026-03-29T10:25:17.412Z</time></trkpt><trkpt lat="45.55567" lon="9.8325107"><ele>150.0</ele><time>2026-03-29T10:25:18.389Z</time></trkpt><trkpt lat="45.5557497" lon="9.8325099"><ele>150.0</ele><time>2026-03-29T10:25:19.421Z</time></trkpt><trkpt lat="45.5558274" lon="9.8325022"><ele>150.0</ele><time>2026-03-29T10:25:20.394Z</time></trkpt><trkpt lat="45.5559079" lon="9.8324979"><ele>150.0</ele><time>2026-03-29T10:25:21.416Z</time></trkpt><trkpt lat="45.5559884" lon="9.8325036"><ele>150.0</ele><time>2026-03-29T10:25:22.396Z</time></trkpt><trkpt lat="45.556073" lon="9.8325042"><ele>150.0</ele><time>2026-03-29T10:25:23.399Z</time></trkpt><trkpt lat="45.5561624" lon="9.8325188"><ele>150.0</ele><time>2026-03-29T10:25:24.388Z</time></trkpt><trkpt lat="45.5562605" lon="9.8325368"><ele>150.0</ele><time>2026-03-29T10:25:25.407Z</time></trkpt><trkpt lat="45.5563545" lon="9.8325614"><ele>149.8</ele><time>2026-03-29T10:25:26.389Z</time></trkpt><trkpt lat="45.5564525" lon="9.8325924"><ele>149.6</ele><time>2026-03-29T10:25:27.392Z</time></trkpt><trkpt lat="45.556541" lon="9.8326316"><ele>149.4</ele><time>2026-03-29T10:25:28.391Z</time></trkpt><trkpt lat="45.5566312" lon="9.8326878"><ele>149.2</ele><time>2026-03-29T10:25:29.396Z</time></trkpt><trkpt lat="45.5567201" lon="9.8327537"><ele>149.0</ele><time>2026-03-29T10:25:30.392Z</time></trkpt><trkpt lat="45.556809" lon="9.8328294"><ele>148.83333333333331</ele><time>2026-03-29T10:25:31.416Z</time></trkpt><trkpt lat="45.5568855" lon="9.8328999"><ele>148.66666666666666</ele><time>2026-03-29T10:25:32.386Z</time></trkpt><trkpt lat="45.5569583" lon="9.8329745"><ele>148.5</ele><time>2026-03-29T10:25:33.392Z</time></trkpt><trkpt lat="45.5570139" lon="9.8330396"><ele>148.33333333333334</ele><time>2026-03-29T10:25:34.394Z</time></trkpt><trkpt lat="45.5570832" lon="9.8331131"><ele>148.16666666666669</ele><time>2026-03-29T10:25:35.7Z</time></trkpt><trkpt lat="45.5571494" lon="9.8332261"><ele>148.0</ele><time>2026-03-29T10:25:37.445Z</time></trkpt><trkpt lat="45.5572041" lon="9.8333082"><ele>147.5</ele><time>2026-03-29T10:25:38.45Z</time></trkpt><trkpt lat="45.5572656" lon="9.833398"><ele>147.0</ele><time>2026-03-29T10:25:39.447Z</time></trkpt><trkpt lat="45.5573272" lon="9.8334797"><ele>146.5</ele><time>2026-03-29T10:25:40.446Z</time></trkpt><trkpt lat="45.557389" lon="9.8335497"><ele>146.0</ele><time>2026-03-29T10:25:41.445Z</time></trkpt><trkpt lat="45.5574414" lon="9.8336106"><ele>145.5</ele><time>2026-03-29T10:25:42.446Z</time></trkpt><trkpt lat="45.55753" lon="9.8336979"><ele>145.0</ele><time>2026-03-29T10:25:44.469Z</time></trkpt><trkpt lat="45.557559" lon="9.8338065"><ele>144.8</ele><time>2026-03-29T10:25:46.458Z</time></trkpt><trkpt lat="45.5575165" lon="9.8339763"><ele>144.6</ele><time>2026-03-29T10:25:48.482Z</time></trkpt><trkpt lat="45.5574828" lon="9.8340781"><ele>144.4</ele><time>2026-03-29T10:25:49.451Z</time></trkpt><trkpt lat="45.5574463" lon="9.8341938"><ele>144.2</ele><time>2026-03-29T10:25:50.469Z</time></trkpt><trkpt lat="45.55741" lon="9.8343204"><ele>144.0</ele><time>2026-03-29T10:25:51.449Z</time></trkpt><trkpt lat="45.5573722" lon="9.8344633"><ele>143.25</ele><time>2026-03-29T10:25:52.459Z</time></trkpt><trkpt lat="45.5573336" lon="9.8346142"><ele>142.5</ele><time>2026-03-29T10:25:53.456Z</time></trkpt><trkpt lat="45.5572945" lon="9.8347709"><ele>141.75</ele><time>2026-03-29T10:25:54.439Z</time></trkpt><trkpt lat="45.5572539" lon="9.8349372"><ele>141.0</ele><time>2026-03-29T10:25:55.464Z</time></trkpt><trkpt lat="45.557219" lon="9.8350849"><ele>140.4</ele><time>2026-03-29T10:25:56.451Z</time></trkpt><trkpt lat="45.5571898" lon="9.8352141"><ele>139.8</ele><time>2026-03-29T10:25:57.459Z</time></trkpt><trkpt lat="45.5571663" lon="9.8353181"><ele>139.20000000000002</ele><time>2026-03-29T10:25:58.472Z</time></trkpt><trkpt lat="45.5571052" lon="9.8354581"><ele>138.6</ele><time>2026-03-29T10:26:00.458Z</time></trkpt><trkpt lat="45.5570361" lon="9.8355211"><ele>138.0</ele><time>2026-03-29T10:26:02.389Z</time></trkpt><trkpt lat="45.5570444" lon="9.8356968"><ele>138.0</ele><time>2026-03-29T10:26:05.428Z</time></trkpt><trkpt lat="45.5570683" lon="9.8358037"><ele>138.0</ele><time>2026-03-29T10:26:06.758Z</time></trkpt><trkpt lat="45.5571024" lon="9.8359231"><ele>138.0</ele><time>2026-03-29T10:26:07.462Z</time></trkpt><trkpt lat="45.5571538" lon="9.8360454"><ele>138.0</ele><time>2026-03-29T10:26:08.469Z</time></trkpt><trkpt lat="45.5572127" lon="9.8361602"><ele>138.0</ele><time>2026-03-29T10:26:09.448Z</time></trkpt><trkpt lat="45.5572802" lon="9.8362785"><ele>137.5</ele><time>2026-03-29T10:26:10.446Z</time></trkpt><trkpt lat="45.5573569" lon="9.8364024"><ele>137.0</ele><time>2026-03-29T10:26:11.453Z</time></trkpt><trkpt lat="45.5574403" lon="9.8365224"><ele>136.5</ele><time>2026-03-29T10:26:12.446Z</time></trkpt><trkpt lat="45.5575234" lon="9.836635"><ele>136.0</ele><time>2026-03-29T10:26:13.46Z</time></trkpt><trkpt lat="45.5575969" lon="9.8367374"><ele>135.6</ele><time>2026-03-29T10:26:14.468Z</time></trkpt><trkpt lat="45.5576683" lon="9.8368265"><ele>135.2</ele><time>2026-03-29T10:26:15.453Z</time></trkpt><trkpt lat="45.5577412" lon="9.8369241"><ele>134.8</ele><time>2026-03-29T10:26:16.452Z</time></trkpt><trkpt lat="45.5578157" lon="9.8370291"><ele>134.4</ele><time>2026-03-29T10:26:17.455Z</time></trkpt><trkpt lat="45.5578978" lon="9.8371421"><ele>134.0</ele><time>2026-03-29T10:26:18.468Z</time></trkpt><trkpt lat="45.5579821" lon="9.8372639"><ele>134.5</ele><time>2026-03-29T10:26:19.458Z</time></trkpt><trkpt lat="45.5580713" lon="9.837402"><ele>135.0</ele><time>2026-03-29T10:26:20.472Z</time></trkpt><trkpt lat="45.5581569" lon="9.8375406"><ele>135.5</ele><time>2026-03-29T10:26:21.457Z</time></trkpt><trkpt lat="45.5582464" lon="9.8376854"><ele>136.0</ele><time>2026-03-29T10:26:22.459Z</time></trkpt><trkpt lat="45.5583311" lon="9.8378225"><ele>136.0</ele><time>2026-03-29T10:26:23.388Z</time></trkpt><trkpt lat="45.5584253" lon="9.837966"><ele>136.0</ele><time>2026-03-29T10:26:24.397Z</time></trkpt><trkpt lat="45.5585207" lon="9.8381047"><ele>136.0</ele><time>2026-03-29T10:26:25.402Z</time></trkpt><trkpt lat="45.5586108" lon="9.8382378"><ele>136.0</ele><time>2026-03-29T10:26:26.401Z</time></trkpt><trkpt lat="45.5587008" lon="9.838362"><ele>135.5</ele><time>2026-03-29T10:26:27.4Z</time></trkpt><trkpt lat="45.5587905" lon="9.8384781"><ele>135.0</ele><time>2026-03-29T10:26:28.394Z</time></trkpt><trkpt lat="45.5588837" lon="9.8385937"><ele>134.5</ele><time>2026-03-29T10:26:29.385Z</time></trkpt><trkpt lat="45.5589843" lon="9.8387041"><ele>134.0</ele><time>2026-03-29T10:26:30.397Z</time></trkpt><trkpt lat="45.5590886" lon="9.8388066"><ele>134.0</ele><time>2026-03-29T10:26:31.396Z</time></trkpt><trkpt lat="45.5591976" lon="9.8389094"><ele>134.0</ele><time>2026-03-29T10:26:32.405Z</time></trkpt><trkpt lat="45.5593049" lon="9.8390131"><ele>134.0</ele><time>2026-03-29T10:26:33.392Z</time></trkpt><trkpt lat="45.5594253" lon="9.8391212"><ele>134.0</ele><time>2026-03-29T10:26:34.436Z</time></trkpt><trkpt lat="45.5595436" lon="9.8392129"><ele>134.5</ele><time>2026-03-29T10:26:35.402Z</time></trkpt><trkpt lat="45.5596667" lon="9.8393056"><ele>135.0</ele><time>2026-03-29T10:26:36.399Z</time></trkpt><trkpt lat="45.5597847" lon="9.8393947"><ele>135.5</ele><time>2026-03-29T10:26:37.381Z</time></trkpt><trkpt lat="45.5599022" lon="9.8395002"><ele>136.0</ele><time>2026-03-29T10:26:38.407Z</time></trkpt><trkpt lat="45.5600098" lon="9.8396261"><ele>136.0</ele><time>2026-03-29T10:26:39.403Z</time></trkpt><trkpt lat="45.5601074" lon="9.8397708"><ele>136.0</ele><time>2026-03-29T10:26:40.387Z</time></trkpt><trkpt lat="45.5602009" lon="9.8399337"><ele>136.0</ele><time>2026-03-29T10:26:41.389Z</time></trkpt><trkpt lat="45.5602866" lon="9.8401099"><ele>136.0</ele><time>2026-03-29T10:26:42.394Z</time></trkpt><trkpt lat="45.5603563" lon="9.8403015"><ele>136.0</ele><time>2026-03-29T10:26:43.392Z</time></trkpt><trkpt lat="45.5604115" lon="9.8405129"><ele>136.0</ele><time>2026-03-29T10:26:44.399Z</time></trkpt><trkpt lat="45.5604552" lon="9.8407303"><ele>136.0</ele><time>2026-03-29T10:26:45.4Z</time></trkpt><trkpt lat="45.5605031" lon="9.8409498"><ele>136.33333333333334</ele><time>2026-03-29T10:26:46.4Z</time></trkpt><trkpt lat="45.5605571" lon="9.8411707"><ele>136.66666666666666</ele><time>2026-03-29T10:26:47.405Z</time></trkpt><trkpt lat="45.5606141" lon="9.8413918"><ele>137.0</ele><time>2026-03-29T10:26:48.4Z</time></trkpt><trkpt lat="45.5606779" lon="9.841605"><ele>136.66666666666666</ele><time>2026-03-29T10:26:49.396Z</time></trkpt><trkpt lat="45.5607536" lon="9.8418109"><ele>136.33333333333334</ele><time>2026-03-29T10:26:50.399Z</time></trkpt><trkpt lat="45.5608409" lon="9.8420027"><ele>136.0</ele><time>2026-03-29T10:26:51.396Z</time></trkpt><trkpt lat="45.5609485" lon="9.8421806"><ele>136.0</ele><time>2026-03-29T10:26:52.407Z</time></trkpt><trkpt lat="45.5610703" lon="9.8423317"><ele>136.0</ele><time>2026-03-29T10:26:53.396Z</time></trkpt><trkpt lat="45.5612044" lon="9.8424675"><ele>136.0</ele><time>2026-03-29T10:26:54.393Z</time></trkpt><trkpt lat="45.5613401" lon="9.8425974"><ele>136.0</ele><time>2026-03-29T10:26:55.406Z</time></trkpt><trkpt lat="45.5614719" lon="9.8427384"><ele>136.0</ele><time>2026-03-29T10:26:56.412Z</time></trkpt><trkpt lat="45.5615937" lon="9.8428914"><ele>136.0</ele><time>2026-03-29T10:26:57.391Z</time></trkpt><trkpt lat="45.561718" lon="9.8430596"><ele>136.0</ele><time>2026-03-29T10:26:58.408Z</time></trkpt><trkpt lat="45.561837" lon="9.8432246"><ele>136.0</ele><time>2026-03-29T10:26:59.389Z</time></trkpt><trkpt lat="45.5619575" lon="9.8433959"><ele>136.0</ele><time>2026-03-29T10:27:00.415Z</time></trkpt><trkpt lat="45.5620687" lon="9.8435625"><ele>136.33333333333334</ele><time>2026-03-29T10:27:01.38Z</time></trkpt><trkpt lat="45.562182" lon="9.8437486"><ele>136.66666666666666</ele><time>2026-03-29T10:27:02.411Z</time></trkpt><trkpt lat="45.562285" lon="9.8439375"><ele>137.0</ele><time>2026-03-29T10:27:03.396Z</time></trkpt><trkpt lat="45.5623867" lon="9.8441302"><ele>135.66666666666666</ele><time>2026-03-29T10:27:04.386Z</time></trkpt><trkpt lat="45.5624879" lon="9.8443284"><ele>134.33333333333334</ele><time>2026-03-29T10:27:05.395Z</time></trkpt><trkpt lat="45.5625896" lon="9.8445278"><ele>133.0</ele><time>2026-03-29T10:27:06.403Z</time></trkpt><trkpt lat="45.5626925" lon="9.8447267"><ele>133.0</ele><time>2026-03-29T10:27:07.423Z</time></trkpt><trkpt lat="45.5627898" lon="9.8449202"><ele>133.0</ele><time>2026-03-29T10:27:08.396Z</time></trkpt><trkpt lat="45.5628842" lon="9.8451213"><ele>133.0</ele><time>2026-03-29T10:27:09.385Z</time></trkpt><trkpt lat="45.5629742" lon="9.8453347"><ele>134.66666666666669</ele><time>2026-03-29T10:27:10.388Z</time></trkpt><trkpt lat="45.5630545" lon="9.8455631"><ele>136.33333333333334</ele><time>2026-03-29T10:27:11.41Z</time></trkpt><trkpt lat="45.5631303" lon="9.8457835"><ele>138.0</ele><time>2026-03-29T10:27:12.394Z</time></trkpt><trkpt lat="45.563211" lon="9.8460094"><ele>138.33333333333334</ele><time>2026-03-29T10:27:13.415Z</time></trkpt><trkpt lat="45.5632891" lon="9.8462256"><ele>138.66666666666669</ele><time>2026-03-29T10:27:14.395Z</time></trkpt><trkpt lat="45.5633687" lon="9.8464432"><ele>139.0</ele><time>2026-03-29T10:27:15.392Z</time></trkpt><trkpt lat="45.5634461" lon="9.8466563"><ele>139.25</ele><time>2026-03-29T10:27:16.407Z</time></trkpt><trkpt lat="45.5635152" lon="9.8468519"><ele>139.5</ele><time>2026-03-29T10:27:17.399Z</time></trkpt><trkpt lat="45.5635824" lon="9.8470384"><ele>139.75</ele><time>2026-03-29T10:27:18.422Z</time></trkpt><trkpt lat="45.5636446" lon="9.8472056"><ele>140.0</ele><time>2026-03-29T10:27:19.385Z</time></trkpt><trkpt lat="45.5637054" lon="9.8473833"><ele>140.0</ele><time>2026-03-29T10:27:20.403Z</time></trkpt><trkpt lat="45.5637687" lon="9.8475606"><ele>140.0</ele><time>2026-03-29T10:27:21.392Z</time></trkpt><trkpt lat="45.563834" lon="9.8477442"><ele>140.0</ele><time>2026-03-29T10:27:22.396Z</time></trkpt><trkpt lat="45.5639043" lon="9.84793"><ele>140.0</ele><time>2026-03-29T10:27:23.411Z</time></trkpt><trkpt lat="45.5639791" lon="9.8481031"><ele>139.66666666666666</ele><time>2026-03-29T10:27:24.391Z</time></trkpt><trkpt lat="45.5640665" lon="9.8482782"><ele>139.33333333333334</ele><time>2026-03-29T10:27:25.395Z</time></trkpt><trkpt lat="45.564162" lon="9.8484499"><ele>139.0</ele><time>2026-03-29T10:27:26.389Z</time></trkpt><trkpt lat="45.5642633" lon="9.8486294"><ele>139.0</ele><time>2026-03-29T10:27:27.396Z</time></trkpt><trkpt lat="45.5643663" lon="9.8488111"><ele>139.0</ele><time>2026-03-29T10:27:28.399Z</time></trkpt><trkpt lat="45.5644653" lon="9.8489876"><ele>139.0</ele><time>2026-03-29T10:27:29.392Z</time></trkpt><trkpt lat="45.5645577" lon="9.8491585"><ele>139.0</ele><time>2026-03-29T10:27:30.384Z</time></trkpt><trkpt lat="45.5646455" lon="9.8493193"><ele>139.0</ele><time>2026-03-29T10:27:31.388Z</time></trkpt><trkpt lat="45.5647208" lon="9.8494599"><ele>139.0</ele><time>2026-03-29T10:27:32.396Z</time></trkpt><trkpt lat="45.5647766" lon="9.8495711"><ele>139.0</ele><time>2026-03-29T10:27:33.409Z</time></trkpt><trkpt lat="45.5648128" lon="9.8496577"><ele>139.0</ele><time>2026-03-29T10:27:34.413Z</time></trkpt><trkpt lat="45.5648273" lon="9.849802"><ele>139.0</ele><time>2026-03-29T10:27:36.407Z</time></trkpt><trkpt lat="45.5648156" lon="9.8498935"><ele>139.0</ele><time>2026-03-29T10:27:37.384Z</time></trkpt><trkpt lat="45.5648075" lon="9.8500019"><ele>139.0</ele><time>2026-03-29T10:27:38.393Z</time></trkpt><trkpt lat="45.5648143" lon="9.8501144"><ele>139.0</ele><time>2026-03-29T10:27:39.385Z</time></trkpt><trkpt lat="45.5648318" lon="9.8502443"><ele>139.0</ele><time>2026-03-29T10:27:40.397Z</time></trkpt><trkpt lat="45.5648474" lon="9.8503951"><ele>139.0</ele><time>2026-03-29T10:27:41.405Z</time></trkpt><trkpt lat="45.5648428" lon="9.8505599"><ele>139.33333333333334</ele><time>2026-03-29T10:27:42.382Z</time></trkpt><trkpt lat="45.5648091" lon="9.8507551"><ele>139.66666666666666</ele><time>2026-03-29T10:27:43.387Z</time></trkpt><trkpt lat="45.5647636" lon="9.8509617"><ele>140.0</ele><time>2026-03-29T10:27:44.39Z</time></trkpt><trkpt lat="45.5647169" lon="9.8511776"><ele>139.33333333333331</ele><time>2026-03-29T10:27:45.408Z</time></trkpt><trkpt lat="45.5646675" lon="9.8513963"><ele>138.66666666666666</ele><time>2026-03-29T10:27:46.402Z</time></trkpt><trkpt lat="45.5646171" lon="9.8516252"><ele>138.0</ele><time>2026-03-29T10:27:47.409Z</time></trkpt><trkpt lat="45.5645655" lon="9.8518652"><ele>137.33333333333334</ele><time>2026-03-29T10:27:48.417Z</time></trkpt><trkpt lat="45.5645246" lon="9.8521144"><ele>136.66666666666669</ele><time>2026-03-29T10:27:49.394Z</time></trkpt><trkpt lat="45.5644863" lon="9.8523805"><ele>136.0</ele><time>2026-03-29T10:27:50.391Z</time></trkpt><trkpt lat="45.5644506" lon="9.8526473"><ele>135.66666666666669</ele><time>2026-03-29T10:27:51.391Z</time></trkpt><trkpt lat="45.5644129" lon="9.8529236"><ele>135.33333333333334</ele><time>2026-03-29T10:27:52.407Z</time></trkpt><trkpt lat="45.564378" lon="9.8531898"><ele>135.0</ele><time>2026-03-29T10:27:53.403Z</time></trkpt><trkpt lat="45.5643461" lon="9.8534443"><ele>135.0</ele><time>2026-03-29T10:27:54.394Z</time></trkpt><trkpt lat="45.564309" lon="9.8536941"><ele>135.0</ele><time>2026-03-29T10:27:55.391Z</time></trkpt><trkpt lat="45.5642597" lon="9.8539362"><ele>135.0</ele><time>2026-03-29T10:27:56.41Z</time></trkpt><trkpt lat="45.5641987" lon="9.854166"><ele>135.66666666666666</ele><time>2026-03-29T10:27:57.406Z</time></trkpt><trkpt lat="45.5641221" lon="9.8543927"><ele>136.33333333333331</ele><time>2026-03-29T10:27:58.412Z</time></trkpt><trkpt lat="45.5640353" lon="9.8546121"><ele>137.0</ele><time>2026-03-29T10:27:59.414Z</time></trkpt><trkpt lat="45.5639368" lon="9.8548234"><ele>137.0</ele><time>2026-03-29T10:28:00.402Z</time></trkpt><trkpt lat="45.5638233" lon="9.8550267"><ele>137.0</ele><time>2026-03-29T10:28:01.388Z</time></trkpt><trkpt lat="45.5636923" lon="9.8552236"><ele>137.0</ele><time>2026-03-29T10:28:02.398Z</time></trkpt><trkpt lat="45.5635493" lon="9.8554042"><ele>137.0</ele><time>2026-03-29T10:28:03.389Z</time></trkpt><trkpt lat="45.5633923" lon="9.8555753"><ele>137.0</ele><time>2026-03-29T10:28:04.4Z</time></trkpt><trkpt lat="45.5632332" lon="9.8557375"><ele>137.0</ele><time>2026-03-29T10:28:05.392Z</time></trkpt><trkpt lat="45.563082" lon="9.8558931"><ele>136.5</ele><time>2026-03-29T10:28:06.384Z</time></trkpt><trkpt lat="45.5629433" lon="9.8560359"><ele>136.0</ele><time>2026-03-29T10:28:07.395Z</time></trkpt><trkpt lat="45.5628254" lon="9.8561622"><ele>135.5</ele><time>2026-03-29T10:28:08.389Z</time></trkpt><trkpt lat="45.5627243" lon="9.8562703"><ele>135.0</ele><time>2026-03-29T10:28:09.38Z</time></trkpt><trkpt lat="45.5626276" lon="9.8563699"><ele>135.0</ele><time>2026-03-29T10:28:10.395Z</time></trkpt><trkpt lat="45.5625391" lon="9.8564555"><ele>135.0</ele><time>2026-03-29T10:28:11.383Z</time></trkpt><trkpt lat="45.5624542" lon="9.8565336"><ele>135.0</ele><time>2026-03-29T10:28:12.381Z</time></trkpt><trkpt lat="45.5623777" lon="9.8565956"><ele>135.0</ele><time>2026-03-29T10:28:13.386Z</time></trkpt><trkpt lat="45.5623105" lon="9.8566379"><ele>135.0</ele><time>2026-03-29T10:28:14.39Z</time></trkpt><trkpt lat="45.5622384" lon="9.8566589"><ele>135.0</ele><time>2026-03-29T10:28:15.409Z</time></trkpt><trkpt lat="45.562162" lon="9.8566622"><ele>135.0</ele><time>2026-03-29T10:28:16.393Z</time></trkpt><trkpt lat="45.5620773" lon="9.8566771"><ele>135.0</ele><time>2026-03-29T10:28:17.381Z</time></trkpt><trkpt lat="45.5619943" lon="9.8567272"><ele>135.0</ele><time>2026-03-29T10:28:18.405Z</time></trkpt><trkpt lat="45.561931" lon="9.8568127"><ele>135.0</ele><time>2026-03-29T10:28:19.395Z</time></trkpt><trkpt lat="45.5618799" lon="9.8569486"><ele>135.0</ele><time>2026-03-29T10:28:20.389Z</time></trkpt><trkpt lat="45.5618209" lon="9.8570925"><ele>137.0</ele><time>2026-03-29T10:28:21.396Z</time></trkpt><trkpt lat="45.5617376" lon="9.8572365"><ele>139.0</ele><time>2026-03-29T10:28:22.41Z</time></trkpt><trkpt lat="45.5616318" lon="9.8573636"><ele>141.0</ele><time>2026-03-29T10:28:23.391Z</time></trkpt><trkpt lat="45.5615118" lon="9.8574912"><ele>143.0</ele><time>2026-03-29T10:28:24.399Z</time></trkpt><trkpt lat="45.5613862" lon="9.8576194"><ele>143.33333333333331</ele><time>2026-03-29T10:28:25.399Z</time></trkpt><trkpt lat="45.5612528" lon="9.8577507"><ele>143.66666666666666</ele><time>2026-03-29T10:28:26.4Z</time></trkpt><trkpt lat="45.5611154" lon="9.8578908"><ele>144.0</ele><time>2026-03-29T10:28:27.404Z</time></trkpt><trkpt lat="45.5609726" lon="9.8580369"><ele>144.0</ele><time>2026-03-29T10:28:28.39Z</time></trkpt><trkpt lat="45.5608195" lon="9.8581863"><ele>144.0</ele><time>2026-03-29T10:28:29.411Z</time></trkpt><trkpt lat="45.5606697" lon="9.8583317"><ele>144.0</ele><time>2026-03-29T10:28:30.395Z</time></trkpt><trkpt lat="45.5605172" lon="9.8584817"><ele>144.33333333333334</ele><time>2026-03-29T10:28:31.386Z</time></trkpt><trkpt lat="45.56036" lon="9.8586401"><ele>144.66666666666669</ele><time>2026-03-29T10:28:32.395Z</time></trkpt><trkpt lat="45.5602021" lon="9.8588034"><ele>145.0</ele><time>2026-03-29T10:28:33.39Z</time></trkpt><trkpt lat="45.560041" lon="9.8589743"><ele>145.0</ele><time>2026-03-29T10:28:34.405Z</time></trkpt><trkpt lat="45.5598917" lon="9.8591366"><ele>145.0</ele><time>2026-03-29T10:28:35.389Z</time></trkpt><trkpt lat="45.5597508" lon="9.8592897"><ele>145.0</ele><time>2026-03-29T10:28:36.397Z</time></trkpt><trkpt lat="45.5596214" lon="9.8594265"><ele>145.5</ele><time>2026-03-29T10:28:37.387Z</time></trkpt><trkpt lat="45.5594985" lon="9.8595525"><ele>146.0</ele><time>2026-03-29T10:28:38.399Z</time></trkpt><trkpt lat="45.5593814" lon="9.859667"><ele>146.5</ele><time>2026-03-29T10:28:39.39Z</time></trkpt><trkpt lat="45.559278" lon="9.8597676"><ele>147.0</ele><time>2026-03-29T10:28:40.388Z</time></trkpt><trkpt lat="45.5591886" lon="9.8598566"><ele>147.0</ele><time>2026-03-29T10:28:41.395Z</time></trkpt><trkpt lat="45.5591096" lon="9.859928"><ele>147.0</ele><time>2026-03-29T10:28:42.398Z</time></trkpt><trkpt lat="45.5590414" lon="9.8599708"><ele>147.0</ele><time>2026-03-29T10:28:43.382Z</time></trkpt><trkpt lat="45.5589738" lon="9.8599898"><ele>147.0</ele><time>2026-03-29T10:28:44.401Z</time></trkpt><trkpt lat="45.5588999" lon="9.8599906"><ele>147.0</ele><time>2026-03-29T10:28:45.385Z</time></trkpt><trkpt lat="45.5588167" lon="9.8599931"><ele>147.0</ele><time>2026-03-29T10:28:46.38Z</time></trkpt><trkpt lat="45.5587384" lon="9.860022"><ele>147.0</ele><time>2026-03-29T10:28:47.386Z</time></trkpt><trkpt lat="45.5586792" lon="9.8600845"><ele>147.0</ele><time>2026-03-29T10:28:48.398Z</time></trkpt><trkpt lat="45.5586394" lon="9.8601752"><ele>147.0</ele><time>2026-03-29T10:28:49.399Z</time></trkpt><trkpt lat="45.5586277" lon="9.860289"><ele>147.0</ele><time>2026-03-29T10:28:50.396Z</time></trkpt><trkpt lat="45.5586417" lon="9.8604044"><ele>147.0</ele><time>2026-03-29T10:28:51.39Z</time></trkpt><trkpt lat="45.558675" lon="9.8605307"><ele>147.0</ele><time>2026-03-29T10:28:52.391Z</time></trkpt><trkpt lat="45.5587162" lon="9.8606614"><ele>147.4</ele><time>2026-03-29T10:28:53.4Z</time></trkpt><trkpt lat="45.5587485" lon="9.8608047"><ele>147.79999999999998</ele><time>2026-03-29T10:28:54.406Z</time></trkpt><trkpt lat="45.5587853" lon="9.8609441"><ele>148.2</ele><time>2026-03-29T10:28:55.394Z</time></trkpt><trkpt lat="45.5588406" lon="9.8610627"><ele>148.6</ele><time>2026-03-29T10:28:56.417Z</time></trkpt><trkpt lat="45.5589151" lon="9.8611586"><ele>149.0</ele><time>2026-03-29T10:28:57.406Z</time></trkpt><trkpt lat="45.5589984" lon="9.8612374"><ele>149.2</ele><time>2026-03-29T10:28:58.4Z</time></trkpt><trkpt lat="45.5590735" lon="9.8613152"><ele>149.4</ele><time>2026-03-29T10:28:59.397Z</time></trkpt><trkpt lat="45.55914" lon="9.8614075"><ele>149.6</ele><time>2026-03-29T10:29:00.393Z</time></trkpt><trkpt lat="45.5591831" lon="9.8615198"><ele>149.8</ele><time>2026-03-29T10:29:01.402Z</time></trkpt><trkpt lat="45.5592003" lon="9.8616462"><ele>150.0</ele><time>2026-03-29T10:29:02.409Z</time></trkpt><trkpt lat="45.5591871" lon="9.86178"><ele>150.0</ele><time>2026-03-29T10:29:03.386Z</time></trkpt><trkpt lat="45.5591502" lon="9.8619059"><ele>150.0</ele><time>2026-03-29T10:29:04.406Z</time></trkpt><trkpt lat="45.5591063" lon="9.8620285"><ele>150.0</ele><time>2026-03-29T10:29:05.395Z</time></trkpt><trkpt lat="45.5590586" lon="9.8621642"><ele>150.0</ele><time>2026-03-29T10:29:06.39Z</time></trkpt><trkpt lat="45.559025" lon="9.8623188"><ele>150.0</ele><time>2026-03-29T10:29:07.402Z</time></trkpt><trkpt lat="45.5589986" lon="9.862492"><ele>149.75</ele><time>2026-03-29T10:29:08.422Z</time></trkpt><trkpt lat="45.5589798" lon="9.8626734"><ele>149.5</ele><time>2026-03-29T10:29:09.388Z</time></trkpt><trkpt lat="45.558966" lon="9.8628665"><ele>149.25</ele><time>2026-03-29T10:29:10.395Z</time></trkpt><trkpt lat="45.5589475" lon="9.8630654"><ele>149.0</ele><time>2026-03-29T10:29:11.4Z</time></trkpt><trkpt lat="45.5589238" lon="9.8632617"><ele>148.75</ele><time>2026-03-29T10:29:12.407Z</time></trkpt><trkpt lat="45.5588865" lon="9.8634599"><ele>148.5</ele><time>2026-03-29T10:29:13.414Z</time></trkpt><trkpt lat="45.558836" lon="9.8636554"><ele>148.25</ele><time>2026-03-29T10:29:14.397Z</time></trkpt><trkpt lat="45.5587766" lon="9.8638605"><ele>148.0</ele><time>2026-03-29T10:29:15.41Z</time></trkpt><trkpt lat="45.558711" lon="9.8640671"><ele>148.33333333333334</ele><time>2026-03-29T10:29:16.41Z</time></trkpt><trkpt lat="45.5586421" lon="9.8642793"><ele>148.66666666666666</ele><time>2026-03-29T10:29:17.416Z</time></trkpt><trkpt lat="45.5585731" lon="9.864487"><ele>149.0</ele><time>2026-03-29T10:29:18.398Z</time></trkpt><trkpt lat="45.5585004" lon="9.8646984"><ele>149.0</ele><time>2026-03-29T10:29:19.391Z</time></trkpt><trkpt lat="45.5584274" lon="9.8649137"><ele>149.0</ele><time>2026-03-29T10:29:20.385Z</time></trkpt><trkpt lat="45.5583503" lon="9.8651338"><ele>149.0</ele><time>2026-03-29T10:29:21.405Z</time></trkpt><trkpt lat="45.5582821" lon="9.8653554"><ele>149.33333333333331</ele><time>2026-03-29T10:29:22.409Z</time></trkpt><trkpt lat="45.5582292" lon="9.8655798"><ele>149.66666666666666</ele><time>2026-03-29T10:29:23.395Z</time></trkpt><trkpt lat="45.5581821" lon="9.8658151"><ele>150.0</ele><time>2026-03-29T10:29:24.4Z</time></trkpt><trkpt lat="45.5581402" lon="9.8660467"><ele>150.0</ele><time>2026-03-29T10:29:25.389Z</time></trkpt><trkpt lat="45.5580932" lon="9.8662796"><ele>150.0</ele><time>2026-03-29T10:29:26.387Z</time></trkpt><trkpt lat="45.5580343" lon="9.8665119"><ele>150.0</ele><time>2026-03-29T10:29:27.397Z</time></trkpt><trkpt lat="45.5579662" lon="9.8667365"><ele>149.66666666666666</ele><time>2026-03-29T10:29:28.392Z</time></trkpt><trkpt lat="45.5578932" lon="9.8669638"><ele>149.33333333333331</ele><time>2026-03-29T10:29:29.413Z</time></trkpt><trkpt lat="45.5578226" lon="9.8671812"><ele>149.0</ele><time>2026-03-29T10:29:30.399Z</time></trkpt><trkpt lat="45.5577509" lon="9.8674064"><ele>148.0</ele><time>2026-03-29T10:29:31.397Z</time></trkpt><trkpt lat="45.5576833" lon="9.8676355"><ele>147.0</ele><time>2026-03-29T10:29:32.395Z</time></trkpt><trkpt lat="45.5576233" lon="9.8678661"><ele>146.0</ele><time>2026-03-29T10:29:33.395Z</time></trkpt><trkpt lat="45.5575689" lon="9.8681073"><ele>146.0</ele><time>2026-03-29T10:29:34.409Z</time></trkpt><trkpt lat="45.5575183" lon="9.8683463"><ele>146.0</ele><time>2026-03-29T10:29:35.401Z</time></trkpt><trkpt lat="45.5574744" lon="9.8685853"><ele>146.0</ele><time>2026-03-29T10:29:36.393Z</time></trkpt><trkpt lat="45.5574297" lon="9.8688301"><ele>146.0</ele><time>2026-03-29T10:29:37.397Z</time></trkpt><trkpt lat="45.5573861" lon="9.8690782"><ele>146.0</ele><time>2026-03-29T10:29:38.4Z</time></trkpt><trkpt lat="45.5573407" lon="9.8693285"><ele>146.0</ele><time>2026-03-29T10:29:39.402Z</time></trkpt><trkpt lat="45.5572967" lon="9.8695808"><ele>146.33333333333331</ele><time>2026-03-29T10:29:40.409Z</time></trkpt><trkpt lat="45.5572477" lon="9.8698295"><ele>146.66666666666666</ele><time>2026-03-29T10:29:41.4Z</time></trkpt><trkpt lat="45.5571846" lon="9.8700757"><ele>147.0</ele><time>2026-03-29T10:29:42.394Z</time></trkpt><trkpt lat="45.5571019" lon="9.8703136"><ele>147.0</ele><time>2026-03-29T10:29:43.397Z</time></trkpt><trkpt lat="45.5570034" lon="9.8705413"><ele>147.0</ele><time>2026-03-29T10:29:44.387Z</time></trkpt><trkpt lat="45.5568934" lon="9.8707728"><ele>147.0</ele><time>2026-03-29T10:29:45.432Z</time></trkpt><trkpt lat="45.5567897" lon="9.8709915"><ele>147.0</ele><time>2026-03-29T10:29:46.416Z</time></trkpt><trkpt lat="45.5566866" lon="9.8712042"><ele>147.0</ele><time>2026-03-29T10:29:47.396Z</time></trkpt><trkpt lat="45.5565847" lon="9.8714112"><ele>147.0</ele><time>2026-03-29T10:29:48.384Z</time></trkpt><trkpt lat="45.5564852" lon="9.8716137"><ele>147.0</ele><time>2026-03-29T10:29:49.399Z</time></trkpt><trkpt lat="45.5563883" lon="9.8718007"><ele>147.0</ele><time>2026-03-29T10:29:50.4Z</time></trkpt><trkpt lat="45.5562933" lon="9.8719774"><ele>147.0</ele><time>2026-03-29T10:29:51.408Z</time></trkpt><trkpt lat="45.5562018" lon="9.8721488"><ele>147.33333333333334</ele><time>2026-03-29T10:29:52.391Z</time></trkpt><trkpt lat="45.5561115" lon="9.8723291"><ele>147.66666666666669</ele><time>2026-03-29T10:29:53.414Z</time></trkpt><trkpt lat="45.5560335" lon="9.8725067"><ele>148.0</ele><time>2026-03-29T10:29:54.391Z</time></trkpt><trkpt lat="45.5559589" lon="9.8726979"><ele>148.66666666666669</ele><time>2026-03-29T10:29:55.407Z</time></trkpt><trkpt lat="45.5558946" lon="9.8728887"><ele>149.33333333333334</ele><time>2026-03-29T10:29:56.393Z</time></trkpt><trkpt lat="45.5558373" lon="9.8730938"><ele>150.0</ele><time>2026-03-29T10:29:57.417Z</time></trkpt><trkpt lat="45.555782" lon="9.8732917"><ele>149.66666666666666</ele><time>2026-03-29T10:29:58.39Z</time></trkpt><trkpt lat="45.5557169" lon="9.8735014"><ele>149.33333333333331</ele><time>2026-03-29T10:29:59.388Z</time></trkpt><trkpt lat="45.5556515" lon="9.8737163"><ele>149.0</ele><time>2026-03-29T10:30:00.389Z</time></trkpt><trkpt lat="45.5555866" lon="9.8739345"><ele>149.0</ele><time>2026-03-29T10:30:01.394Z</time></trkpt><trkpt lat="45.5555214" lon="9.8741516"><ele>149.0</ele><time>2026-03-29T10:30:02.389Z</time></trkpt><trkpt lat="45.5554533" lon="9.8743738"><ele>149.0</ele><time>2026-03-29T10:30:03.396Z</time></trkpt><trkpt lat="45.555389" lon="9.874591"><ele>149.66666666666666</ele><time>2026-03-29T10:30:04.383Z</time></trkpt><trkpt lat="45.5553196" lon="9.8748101"><ele>150.33333333333334</ele><time>2026-03-29T10:30:05.389Z</time></trkpt><trkpt lat="45.5552511" lon="9.8750304"><ele>151.0</ele><time>2026-03-29T10:30:06.395Z</time></trkpt><trkpt lat="45.5551814" lon="9.8752473"><ele>151.0</ele><time>2026-03-29T10:30:07.41Z</time></trkpt><trkpt lat="45.5551169" lon="9.8754536"><ele>151.0</ele><time>2026-03-29T10:30:08.386Z</time></trkpt><trkpt lat="45.5550518" lon="9.8756657"><ele>151.0</ele><time>2026-03-29T10:30:09.409Z</time></trkpt><trkpt lat="45.5549904" lon="9.8758714"><ele>151.33333333333334</ele><time>2026-03-29T10:30:10.396Z</time></trkpt><trkpt lat="45.5549266" lon="9.8760813"><ele>151.66666666666666</ele><time>2026-03-29T10:30:11.411Z</time></trkpt><trkpt lat="45.5548647" lon="9.8762846"><ele>152.0</ele><time>2026-03-29T10:30:12.394Z</time></trkpt><trkpt lat="45.5548012" lon="9.8764872"><ele>152.0</ele><time>2026-03-29T10:30:13.387Z</time></trkpt><trkpt lat="45.5547326" lon="9.8766987"><ele>152.0</ele><time>2026-03-29T10:30:14.399Z</time></trkpt><trkpt lat="45.554664" lon="9.8769021"><ele>152.0</ele><time>2026-03-29T10:30:15.387Z</time></trkpt><trkpt lat="45.5545937" lon="9.8771244"><ele>152.33333333333331</ele><time>2026-03-29T10:30:16.424Z</time></trkpt><trkpt lat="45.5545293" lon="9.8773359"><ele>152.66666666666666</ele><time>2026-03-29T10:30:17.389Z</time></trkpt><trkpt lat="45.5544615" lon="9.8775583"><ele>153.0</ele><time>2026-03-29T10:30:18.394Z</time></trkpt><trkpt lat="45.5543931" lon="9.8777833"><ele>153.33333333333334</ele><time>2026-03-29T10:30:19.389Z</time></trkpt><trkpt lat="45.5543215" lon="9.8780093"><ele>153.66666666666669</ele><time>2026-03-29T10:30:20.392Z</time></trkpt><trkpt lat="45.5542445" lon="9.8782416"><ele>154.0</ele><time>2026-03-29T10:30:21.413Z</time></trkpt><trkpt lat="45.5541695" lon="9.8784686"><ele>154.0</ele><time>2026-03-29T10:30:22.392Z</time></trkpt><trkpt lat="45.5540867" lon="9.8787074"><ele>154.0</ele><time>2026-03-29T10:30:23.416Z</time></trkpt><trkpt lat="45.5540062" lon="9.878935"><ele>154.0</ele><time>2026-03-29T10:30:24.393Z</time></trkpt><trkpt lat="45.5539237" lon="9.8791672"><ele>154.0</ele><time>2026-03-29T10:30:25.385Z</time></trkpt><trkpt lat="45.553839" lon="9.8794068"><ele>154.0</ele><time>2026-03-29T10:30:26.396Z</time></trkpt><trkpt lat="45.5537533" lon="9.8796361"><ele>154.0</ele><time>2026-03-29T10:30:27.384Z</time></trkpt><trkpt lat="45.5536667" lon="9.8798678"><ele>154.0</ele><time>2026-03-29T10:30:28.389Z</time></trkpt><trkpt lat="45.55358" lon="9.8800968"><ele>154.0</ele><time>2026-03-29T10:30:29.416Z</time></trkpt><trkpt lat="45.5534976" lon="9.8803149"><ele>154.0</ele><time>2026-03-29T10:30:30.393Z</time></trkpt><trkpt lat="45.5534124" lon="9.8805315"><ele>154.66666666666669</ele><time>2026-03-29T10:30:31.424Z</time></trkpt><trkpt lat="45.5533365" lon="9.8807344"><ele>155.33333333333334</ele><time>2026-03-29T10:30:32.405Z</time></trkpt><trkpt lat="45.5532629" lon="9.8809398"><ele>156.0</ele><time>2026-03-29T10:30:33.406Z</time></trkpt><trkpt lat="45.5531925" lon="9.8811342"><ele>156.25</ele><time>2026-03-29T10:30:34.395Z</time></trkpt><trkpt lat="45.5531284" lon="9.8813212"><ele>156.5</ele><time>2026-03-29T10:30:35.401Z</time></trkpt><trkpt lat="45.5530703" lon="9.8814861"><ele>156.75</ele><time>2026-03-29T10:30:36.394Z</time></trkpt><trkpt lat="45.5530157" lon="9.8816261"><ele>157.0</ele><time>2026-03-29T10:30:37.403Z</time></trkpt><trkpt lat="45.5529646" lon="9.8817379"><ele>156.6</ele><time>2026-03-29T10:30:38.391Z</time></trkpt><trkpt lat="45.5528998" lon="9.8818332"><ele>156.2</ele><time>2026-03-29T10:30:39.44Z</time></trkpt><trkpt lat="45.5528202" lon="9.8819013"><ele>155.8</ele><time>2026-03-29T10:30:40.388Z</time></trkpt><trkpt lat="45.5527184" lon="9.8819488"><ele>155.4</ele><time>2026-03-29T10:30:41.391Z</time></trkpt><trkpt lat="45.5526037" lon="9.8819771"><ele>155.0</ele><time>2026-03-29T10:30:42.4Z</time></trkpt><trkpt lat="45.5524785" lon="9.8819966"><ele>155.0</ele><time>2026-03-29T10:30:43.39Z</time></trkpt><trkpt lat="45.5523493" lon="9.8820252"><ele>155.0</ele><time>2026-03-29T10:30:44.443Z</time></trkpt><trkpt lat="45.5522275" lon="9.882053"><ele>155.0</ele><time>2026-03-29T10:30:45.401Z</time></trkpt><trkpt lat="45.5521016" lon="9.8820902"><ele>155.0</ele><time>2026-03-29T10:30:46.399Z</time></trkpt><trkpt lat="45.5519778" lon="9.8821462"><ele>155.0</ele><time>2026-03-29T10:30:47.393Z</time></trkpt><trkpt lat="45.5518607" lon="9.8822312"><ele>155.0</ele><time>2026-03-29T10:30:48.404Z</time></trkpt><trkpt lat="45.5517463" lon="9.8823434"><ele>155.0</ele><time>2026-03-29T10:30:49.397Z</time></trkpt><trkpt lat="45.5516435" lon="9.8824822"><ele>155.0</ele><time>2026-03-29T10:30:50.404Z</time></trkpt><trkpt lat="45.5515499" lon="9.8826404"><ele>155.0</ele><time>2026-03-29T10:30:51.402Z</time></trkpt><trkpt lat="45.5514612" lon="9.8828117"><ele>155.0</ele><time>2026-03-29T10:30:52.416Z</time></trkpt><trkpt lat="45.5513752" lon="9.8829904"><ele>155.0</ele><time>2026-03-29T10:30:53.394Z</time></trkpt><trkpt lat="45.5512906" lon="9.883179"><ele>154.66666666666666</ele><time>2026-03-29T10:30:54.397Z</time></trkpt><trkpt lat="45.5512065" lon="9.883384"><ele>154.33333333333334</ele><time>2026-03-29T10:30:55.393Z</time></trkpt><trkpt lat="45.5511276" lon="9.8836029"><ele>154.0</ele><time>2026-03-29T10:30:56.393Z</time></trkpt><trkpt lat="45.5510533" lon="9.8838343"><ele>154.0</ele><time>2026-03-29T10:30:57.394Z</time></trkpt><trkpt lat="45.5509781" lon="9.8840787"><ele>154.0</ele><time>2026-03-29T10:30:58.399Z</time></trkpt><trkpt lat="45.5509029" lon="9.884324"><ele>154.0</ele><time>2026-03-29T10:30:59.396Z</time></trkpt><trkpt lat="45.5508222" lon="9.8845803"><ele>153.66666666666669</ele><time>2026-03-29T10:31:00.423Z</time></trkpt><trkpt lat="45.5507482" lon="9.8848181"><ele>153.33333333333334</ele><time>2026-03-29T10:31:01.395Z</time></trkpt><trkpt lat="45.5506815" lon="9.8850644"><ele>153.0</ele><time>2026-03-29T10:31:02.414Z</time></trkpt><trkpt lat="45.5506269" lon="9.8852946"><ele>153.0</ele><time>2026-03-29T10:31:03.392Z</time></trkpt><trkpt lat="45.5505807" lon="9.8855386"><ele>153.0</ele><time>2026-03-29T10:31:04.391Z</time></trkpt><trkpt lat="45.5505403" lon="9.885786"><ele>153.0</ele><time>2026-03-29T10:31:05.394Z</time></trkpt><trkpt lat="45.5505002" lon="9.8860406"><ele>153.0</ele><time>2026-03-29T10:31:06.408Z</time></trkpt><trkpt lat="45.5504611" lon="9.8862947"><ele>153.0</ele><time>2026-03-29T10:31:07.413Z</time></trkpt><trkpt lat="45.5504233" lon="9.8865461"><ele>153.0</ele><time>2026-03-29T10:31:08.413Z</time></trkpt><trkpt lat="45.5503817" lon="9.8868003"><ele>153.0</ele><time>2026-03-29T10:31:09.421Z</time></trkpt><trkpt lat="45.5503414" lon="9.887044"><ele>153.0</ele><time>2026-03-29T10:31:10.402Z</time></trkpt><trkpt lat="45.5503009" lon="9.887287"><ele>153.0</ele><time>2026-03-29T10:31:11.39Z</time></trkpt><trkpt lat="45.5502626" lon="9.8875301"><ele>153.0</ele><time>2026-03-29T10:31:12.394Z</time></trkpt><trkpt lat="45.5502227" lon="9.8877737"><ele>153.0</ele><time>2026-03-29T10:31:13.392Z</time></trkpt><trkpt lat="45.5501787" lon="9.8880222"><ele>153.0</ele><time>2026-03-29T10:31:14.415Z</time></trkpt><trkpt lat="45.5501349" lon="9.888261"><ele>153.33333333333334</ele><time>2026-03-29T10:31:15.4Z</time></trkpt><trkpt lat="45.5500848" lon="9.8885013"><ele>153.66666666666669</ele><time>2026-03-29T10:31:16.403Z</time></trkpt><trkpt lat="45.5500338" lon="9.8887362"><ele>154.0</ele><time>2026-03-29T10:31:17.394Z</time></trkpt><trkpt lat="45.5499778" lon="9.8889695"><ele>154.0</ele><time>2026-03-29T10:31:18.393Z</time></trkpt><trkpt lat="45.5499185" lon="9.8892058"><ele>154.0</ele><time>2026-03-29T10:31:19.393Z</time></trkpt><trkpt lat="45.5498588" lon="9.8894396"><ele>154.0</ele><time>2026-03-29T10:31:20.395Z</time></trkpt><trkpt lat="45.5497995" lon="9.889672"><ele>154.0</ele><time>2026-03-29T10:31:21.401Z</time></trkpt><trkpt lat="45.5497461" lon="9.8898953"><ele>154.0</ele><time>2026-03-29T10:31:22.398Z</time></trkpt><trkpt lat="45.5496935" lon="9.8901329"><ele>154.0</ele><time>2026-03-29T10:31:23.434Z</time></trkpt><trkpt lat="45.5496474" lon="9.8903575"><ele>153.66666666666669</ele><time>2026-03-29T10:31:24.4Z</time></trkpt><trkpt lat="45.5495979" lon="9.8905924"><ele>153.33333333333334</ele><time>2026-03-29T10:31:25.386Z</time></trkpt><trkpt lat="45.5495482" lon="9.8908342"><ele>153.0</ele><time>2026-03-29T10:31:26.395Z</time></trkpt><trkpt lat="45.5494989" lon="9.8910771"><ele>153.0</ele><time>2026-03-29T10:31:27.391Z</time></trkpt><trkpt lat="45.5494492" lon="9.8913225"><ele>153.0</ele><time>2026-03-29T10:31:28.406Z</time></trkpt><trkpt lat="45.5494014" lon="9.8915666"><ele>153.0</ele><time>2026-03-29T10:31:29.404Z</time></trkpt><trkpt lat="45.5493603" lon="9.8918053"><ele>153.0</ele><time>2026-03-29T10:31:30.397Z</time></trkpt><trkpt lat="45.5493268" lon="9.8920448"><ele>153.0</ele><time>2026-03-29T10:31:31.397Z</time></trkpt><trkpt lat="45.5492945" lon="9.8922792"><ele>153.0</ele><time>2026-03-29T10:31:32.393Z</time></trkpt><trkpt lat="45.5492644" lon="9.8925006"><ele>153.0</ele><time>2026-03-29T10:31:33.39Z</time></trkpt><trkpt lat="45.5492329" lon="9.8927109"><ele>153.0</ele><time>2026-03-29T10:31:34.406Z</time></trkpt><trkpt lat="45.5492048" lon="9.8929007"><ele>153.0</ele><time>2026-03-29T10:31:35.39Z</time></trkpt><trkpt lat="45.5491755" lon="9.8930868"><ele>153.0</ele><time>2026-03-29T10:31:36.405Z</time></trkpt><trkpt lat="45.5491509" lon="9.8932565"><ele>153.0</ele><time>2026-03-29T10:31:37.394Z</time></trkpt><trkpt lat="45.5491297" lon="9.893419"><ele>153.0</ele><time>2026-03-29T10:31:38.391Z</time></trkpt><trkpt lat="45.5491116" lon="9.8935789"><ele>153.0</ele><time>2026-03-29T10:31:39.393Z</time></trkpt><trkpt lat="45.5490933" lon="9.8937372"><ele>153.0</ele><time>2026-03-29T10:31:40.388Z</time></trkpt><trkpt lat="45.5490708" lon="9.8938902"><ele>153.0</ele><time>2026-03-29T10:31:41.4Z</time></trkpt><trkpt lat="45.5490483" lon="9.8940283"><ele>153.0</ele><time>2026-03-29T10:31:42.406Z</time></trkpt><trkpt lat="45.5490217" lon="9.8941414"><ele>153.0</ele><time>2026-03-29T10:31:43.388Z</time></trkpt><trkpt lat="45.5489861" lon="9.89424"><ele>153.0</ele><time>2026-03-29T10:31:44.413Z</time></trkpt><trkpt lat="45.5489356" lon="9.8943085"><ele>153.0</ele><time>2026-03-29T10:31:45.39Z</time></trkpt><trkpt lat="45.5488651" lon="9.8943579"><ele>153.0</ele><time>2026-03-29T10:31:46.406Z</time></trkpt><trkpt lat="45.5487843" lon="9.8943611"><ele>152.6</ele><time>2026-03-29T10:31:47.398Z</time></trkpt><trkpt lat="45.5487039" lon="9.8943206"><ele>152.20000000000002</ele><time>2026-03-29T10:31:48.388Z</time></trkpt><trkpt lat="45.5486216" lon="9.8942562"><ele>151.8</ele><time>2026-03-29T10:31:49.388Z</time></trkpt><trkpt lat="45.5485378" lon="9.8941846"><ele>151.4</ele><time>2026-03-29T10:31:50.404Z</time></trkpt><trkpt lat="45.5484505" lon="9.8941175"><ele>151.0</ele><time>2026-03-29T10:31:51.397Z</time></trkpt><trkpt lat="45.5483618" lon="9.8940471"><ele>151.0</ele><time>2026-03-29T10:31:52.407Z</time></trkpt><trkpt lat="45.5482666" lon="9.893973"><ele>151.0</ele><time>2026-03-29T10:31:53.396Z</time></trkpt><trkpt lat="45.5481767" lon="9.8938992"><ele>151.0</ele><time>2026-03-29T10:31:54.392Z</time></trkpt><trkpt lat="45.5480957" lon="9.8938319"><ele>151.0</ele><time>2026-03-29T10:31:55.404Z</time></trkpt><trkpt lat="45.5480226" lon="9.8937841"><ele>151.0</ele><time>2026-03-29T10:31:56.4Z</time></trkpt><trkpt lat="45.5479552" lon="9.8937586"><ele>151.4</ele><time>2026-03-29T10:31:57.419Z</time></trkpt><trkpt lat="45.5478307" lon="9.8937716"><ele>151.8</ele><time>2026-03-29T10:31:59.411Z</time></trkpt><trkpt lat="45.5477216" lon="9.8939029"><ele>152.20000000000002</ele><time>2026-03-29T10:32:01.403Z</time></trkpt><trkpt lat="45.5476873" lon="9.8940078"><ele>152.6</ele><time>2026-03-29T10:32:02.403Z</time></trkpt><trkpt lat="45.5476528" lon="9.8941287"><ele>153.0</ele><time>2026-03-29T10:32:03.408Z</time></trkpt><trkpt lat="45.5476092" lon="9.8942586"><ele>153.25</ele><time>2026-03-29T10:32:04.416Z</time></trkpt><trkpt lat="45.5475645" lon="9.8943973"><ele>153.5</ele><time>2026-03-29T10:32:05.403Z</time></trkpt><trkpt lat="45.5475205" lon="9.8945533"><ele>153.75</ele><time>2026-03-29T10:32:06.398Z</time></trkpt><trkpt lat="45.5474713" lon="9.8947198"><ele>154.0</ele><time>2026-03-29T10:32:07.404Z</time></trkpt><trkpt lat="45.5474216" lon="9.8948916"><ele>154.0</ele><time>2026-03-29T10:32:08.405Z</time></trkpt><trkpt lat="45.5473703" lon="9.8950658"><ele>154.0</ele><time>2026-03-29T10:32:09.392Z</time></trkpt><trkpt lat="45.547316" lon="9.8952459"><ele>154.0</ele><time>2026-03-29T10:32:10.416Z</time></trkpt><trkpt lat="45.5472595" lon="9.8954195"><ele>154.0</ele><time>2026-03-29T10:32:11.401Z</time></trkpt><trkpt lat="45.5472029" lon="9.8956001"><ele>154.0</ele><time>2026-03-29T10:32:12.399Z</time></trkpt><trkpt lat="45.5471435" lon="9.8957867"><ele>154.0</ele><time>2026-03-29T10:32:13.408Z</time></trkpt><trkpt lat="45.5470862" lon="9.8959774"><ele>154.0</ele><time>2026-03-29T10:32:14.408Z</time></trkpt><trkpt lat="45.5470294" lon="9.8961735"><ele>154.0</ele><time>2026-03-29T10:32:15.418Z</time></trkpt><trkpt lat="45.5469715" lon="9.8963658"><ele>154.0</ele><time>2026-03-29T10:32:16.395Z</time></trkpt><trkpt lat="45.5469098" lon="9.8965674"><ele>154.0</ele><time>2026-03-29T10:32:17.401Z</time></trkpt><trkpt lat="45.5468492" lon="9.8967645"><ele>154.0</ele><time>2026-03-29T10:32:18.386Z</time></trkpt><trkpt lat="45.5467846" lon="9.8969714"><ele>153.66666666666669</ele><time>2026-03-29T10:32:19.404Z</time></trkpt><trkpt lat="45.5467205" lon="9.8971725"><ele>153.33333333333334</ele><time>2026-03-29T10:32:20.388Z</time></trkpt><trkpt lat="45.5466522" lon="9.8973834"><ele>153.0</ele><time>2026-03-29T10:32:21.413Z</time></trkpt><trkpt lat="45.5465858" lon="9.8975894"><ele>152.33333333333334</ele><time>2026-03-29T10:32:22.398Z</time></trkpt><trkpt lat="45.5465162" lon="9.897799"><ele>151.66666666666669</ele><time>2026-03-29T10:32:23.404Z</time></trkpt><trkpt lat="45.5464471" lon="9.8980113"><ele>151.0</ele><time>2026-03-29T10:32:24.4Z</time></trkpt><trkpt lat="45.546377" lon="9.8982293"><ele>151.33333333333334</ele><time>2026-03-29T10:32:25.405Z</time></trkpt><trkpt lat="45.5463052" lon="9.898452"><ele>151.66666666666666</ele><time>2026-03-29T10:32:26.408Z</time></trkpt><trkpt lat="45.5462365" lon="9.8986716"><ele>152.0</ele><time>2026-03-29T10:32:27.397Z</time></trkpt><trkpt lat="45.5461674" lon="9.8989006"><ele>152.0</ele><time>2026-03-29T10:32:28.397Z</time></trkpt><trkpt lat="45.5461033" lon="9.8991241"><ele>152.0</ele><time>2026-03-29T10:32:29.391Z</time></trkpt><trkpt lat="45.5460455" lon="9.8993367"><ele>152.0</ele><time>2026-03-29T10:32:30.394Z</time></trkpt><trkpt lat="45.5459898" lon="9.8995331"><ele>152.5</ele><time>2026-03-29T10:32:31.395Z</time></trkpt><trkpt lat="45.5459337" lon="9.8997224"><ele>153.0</ele><time>2026-03-29T10:32:32.406Z</time></trkpt><trkpt lat="45.5458865" lon="9.8998852"><ele>153.5</ele><time>2026-03-29T10:32:33.39Z</time></trkpt><trkpt lat="45.5458429" lon="9.9000397"><ele>154.0</ele><time>2026-03-29T10:32:34.394Z</time></trkpt><trkpt lat="45.5458016" lon="9.900186"><ele>154.0</ele><time>2026-03-29T10:32:35.393Z</time></trkpt><trkpt lat="45.5457605" lon="9.9003321"><ele>154.0</ele><time>2026-03-29T10:32:36.401Z</time></trkpt><trkpt lat="45.5457185" lon="9.9004817"><ele>154.0</ele><time>2026-03-29T10:32:37.415Z</time></trkpt><trkpt lat="45.5456764" lon="9.9006331"><ele>154.0</ele><time>2026-03-29T10:32:38.387Z</time></trkpt><trkpt lat="45.545631" lon="9.9007958"><ele>153.75</ele><time>2026-03-29T10:32:39.385Z</time></trkpt><trkpt lat="45.5455846" lon="9.90097"><ele>153.5</ele><time>2026-03-29T10:32:40.411Z</time></trkpt><trkpt lat="45.5455372" lon="9.9011482"><ele>153.25</ele><time>2026-03-29T10:32:41.404Z</time></trkpt><trkpt lat="45.545483" lon="9.9013404"><ele>153.0</ele><time>2026-03-29T10:32:42.407Z</time></trkpt><trkpt lat="45.5454293" lon="9.9015339"><ele>152.33333333333334</ele><time>2026-03-29T10:32:43.391Z</time></trkpt><trkpt lat="45.545371" lon="9.9017411"><ele>151.66666666666669</ele><time>2026-03-29T10:32:44.423Z</time></trkpt><trkpt lat="45.5453157" lon="9.9019368"><ele>151.0</ele><time>2026-03-29T10:32:45.401Z</time></trkpt><trkpt lat="45.5452595" lon="9.9021286"><ele>151.0</ele><time>2026-03-29T10:32:46.392Z</time></trkpt><trkpt lat="45.5452031" lon="9.9023249"><ele>151.0</ele><time>2026-03-29T10:32:47.399Z</time></trkpt><trkpt lat="45.545146" lon="9.9025132"><ele>151.0</ele><time>2026-03-29T10:32:48.412Z</time></trkpt><trkpt lat="45.5450919" lon="9.9026871"><ele>151.0</ele><time>2026-03-29T10:32:49.417Z</time></trkpt><trkpt lat="45.5450384" lon="9.9028431"><ele>151.0</ele><time>2026-03-29T10:32:50.394Z</time></trkpt><trkpt lat="45.5449882" lon="9.9030024"><ele>151.0</ele><time>2026-03-29T10:32:51.396Z</time></trkpt><trkpt lat="45.5449401" lon="9.9031601"><ele>151.0</ele><time>2026-03-29T10:32:52.396Z</time></trkpt><trkpt lat="45.5448901" lon="9.9033244"><ele>151.0</ele><time>2026-03-29T10:32:53.4Z</time></trkpt><trkpt lat="45.5448394" lon="9.9034927"><ele>151.0</ele><time>2026-03-29T10:32:54.398Z</time></trkpt><trkpt lat="45.5447919" lon="9.9036714"><ele>151.0</ele><time>2026-03-29T10:32:55.392Z</time></trkpt><trkpt lat="45.5447447" lon="9.903863"><ele>151.0</ele><time>2026-03-29T10:32:56.419Z</time></trkpt><trkpt lat="45.544695" lon="9.9040497"><ele>151.0</ele><time>2026-03-29T10:32:57.412Z</time></trkpt><trkpt lat="45.544643" lon="9.904244"><ele>151.0</ele><time>2026-03-29T10:32:58.408Z</time></trkpt><trkpt lat="45.5445953" lon="9.9044456"><ele>151.0</ele><time>2026-03-29T10:32:59.408Z</time></trkpt><trkpt lat="45.544545" lon="9.9046468"><ele>151.0</ele><time>2026-03-29T10:33:00.402Z</time></trkpt><trkpt lat="45.5444922" lon="9.9048577"><ele>151.0</ele><time>2026-03-29T10:33:01.415Z</time></trkpt><trkpt lat="45.5444363" lon="9.9050746"><ele>151.0</ele><time>2026-03-29T10:33:02.425Z</time></trkpt><trkpt lat="45.5443799" lon="9.9052873"><ele>151.0</ele><time>2026-03-29T10:33:03.405Z</time></trkpt><trkpt lat="45.5443187" lon="9.9055106"><ele>151.0</ele><time>2026-03-29T10:33:04.423Z</time></trkpt><trkpt lat="45.5442565" lon="9.9057217"><ele>151.0</ele><time>2026-03-29T10:33:05.394Z</time></trkpt><trkpt lat="45.5441835" lon="9.905941"><ele>151.0</ele><time>2026-03-29T10:33:06.417Z</time></trkpt><trkpt lat="45.5441066" lon="9.9061407"><ele>150.66666666666669</ele><time>2026-03-29T10:33:07.4Z</time></trkpt><trkpt lat="45.5440213" lon="9.9063427"><ele>150.33333333333334</ele><time>2026-03-29T10:33:08.401Z</time></trkpt><trkpt lat="45.5439378" lon="9.9065412"><ele>150.0</ele><time>2026-03-29T10:33:09.395Z</time></trkpt><trkpt lat="45.5438581" lon="9.9067465"><ele>150.0</ele><time>2026-03-29T10:33:10.386Z</time></trkpt><trkpt lat="45.5437816" lon="9.9069682"><ele>150.0</ele><time>2026-03-29T10:33:11.457Z</time></trkpt><trkpt lat="45.5437215" lon="9.9071683"><ele>150.0</ele><time>2026-03-29T10:33:12.387Z</time></trkpt><trkpt lat="45.54366" lon="9.9073898"><ele>151.0</ele><time>2026-03-29T10:33:13.405Z</time></trkpt><trkpt lat="45.5436021" lon="9.9076114"><ele>152.0</ele><time>2026-03-29T10:33:14.406Z</time></trkpt><trkpt lat="45.5435469" lon="9.9078256"><ele>153.0</ele><time>2026-03-29T10:33:15.39Z</time></trkpt><trkpt lat="45.5434934" lon="9.9080272"><ele>153.0</ele><time>2026-03-29T10:33:16.4Z</time></trkpt><trkpt lat="45.5434441" lon="9.9082182"><ele>153.0</ele><time>2026-03-29T10:33:17.404Z</time></trkpt><trkpt lat="45.5433979" lon="9.9084024"><ele>153.0</ele><time>2026-03-29T10:33:18.411Z</time></trkpt><trkpt lat="45.5433569" lon="9.9085811"><ele>153.0</ele><time>2026-03-29T10:33:19.406Z</time></trkpt><trkpt lat="45.5433217" lon="9.9087582"><ele>153.0</ele><time>2026-03-29T10:33:20.396Z</time></trkpt><trkpt lat="45.5432896" lon="9.9089265"><ele>153.0</ele><time>2026-03-29T10:33:21.39Z</time></trkpt><trkpt lat="45.5432566" lon="9.9090965"><ele>153.0</ele><time>2026-03-29T10:33:22.389Z</time></trkpt><trkpt lat="45.5432198" lon="9.9092815"><ele>153.0</ele><time>2026-03-29T10:33:23.401Z</time></trkpt><trkpt lat="45.5431888" lon="9.9094708"><ele>153.0</ele><time>2026-03-29T10:33:24.395Z</time></trkpt><trkpt lat="45.5431565" lon="9.9096772"><ele>153.0</ele><time>2026-03-29T10:33:25.428Z</time></trkpt><trkpt lat="45.5431193" lon="9.9098731"><ele>153.0</ele><time>2026-03-29T10:33:26.407Z</time></trkpt><trkpt lat="45.5430801" lon="9.9100823"><ele>153.0</ele><time>2026-03-29T10:33:27.404Z</time></trkpt><trkpt lat="45.5430373" lon="9.9103039"><ele>153.0</ele><time>2026-03-29T10:33:28.413Z</time></trkpt><trkpt lat="45.542999" lon="9.9105312"><ele>153.0</ele><time>2026-03-29T10:33:29.394Z</time></trkpt><trkpt lat="45.5429611" lon="9.910759"><ele>153.0</ele><time>2026-03-29T10:33:30.395Z</time></trkpt><trkpt lat="45.542915" lon="9.9109866"><ele>151.66666666666666</ele><time>2026-03-29T10:33:31.403Z</time></trkpt><trkpt lat="45.5428736" lon="9.911213"><ele>150.33333333333331</ele><time>2026-03-29T10:33:32.4Z</time></trkpt><trkpt lat="45.5428329" lon="9.9114263"><ele>149.0</ele><time>2026-03-29T10:33:33.419Z</time></trkpt><trkpt lat="45.5427991" lon="9.9116187"><ele>149.2</ele><time>2026-03-29T10:33:34.401Z</time></trkpt><trkpt lat="45.5427699" lon="9.9117856"><ele>149.4</ele><time>2026-03-29T10:33:35.404Z</time></trkpt><trkpt lat="45.5427414" lon="9.9119491"><ele>149.6</ele><time>2026-03-29T10:33:36.403Z</time></trkpt><trkpt lat="45.5427141" lon="9.9120956"><ele>149.8</ele><time>2026-03-29T10:33:37.404Z</time></trkpt><trkpt lat="45.5426892" lon="9.9122197"><ele>150.0</ele><time>2026-03-29T10:33:38.387Z</time></trkpt><trkpt lat="45.5426708" lon="9.9123173"><ele>150.0</ele><time>2026-03-29T10:33:39.396Z</time></trkpt><trkpt lat="45.5426222" lon="9.9124361"><ele>150.0</ele><time>2026-03-29T10:33:41.39Z</time></trkpt><trkpt lat="45.5425299" lon="9.912532"><ele>150.0</ele><time>2026-03-29T10:33:43.387Z</time></trkpt><trkpt lat="45.5424399" lon="9.9126344"><ele>150.0</ele><time>2026-03-29T10:33:45.4Z</time></trkpt><trkpt lat="45.5424174" lon="9.9127985"><ele>150.0</ele><time>2026-03-29T10:33:47.393Z</time></trkpt><trkpt lat="45.5424482" lon="9.9128785"><ele>150.0</ele><time>2026-03-29T10:33:48.4Z</time></trkpt><trkpt lat="45.5424992" lon="9.9129346"><ele>150.0</ele><time>2026-03-29T10:33:49.387Z</time></trkpt><trkpt lat="45.5425724" lon="9.9129499"><ele>150.0</ele><time>2026-03-29T10:33:50.387Z</time></trkpt><trkpt lat="45.5426496" lon="9.9129186"><ele>150.0</ele><time>2026-03-29T10:33:51.409Z</time></trkpt><trkpt lat="45.5427271" lon="9.9128796"><ele>150.0</ele><time>2026-03-29T10:33:52.387Z</time></trkpt><trkpt lat="45.542813" lon="9.9128456"><ele>150.0</ele><time>2026-03-29T10:33:53.415Z</time></trkpt><trkpt lat="45.5429108" lon="9.9128348"><ele>150.0</ele><time>2026-03-29T10:33:54.393Z</time></trkpt><trkpt lat="45.5430301" lon="9.9128413"><ele>150.0</ele><time>2026-03-29T10:33:55.394Z</time></trkpt><trkpt lat="45.5431643" lon="9.9128504"><ele>150.0</ele><time>2026-03-29T10:33:56.41Z</time></trkpt><trkpt lat="45.5432981" lon="9.9128496"><ele>150.0</ele><time>2026-03-29T10:33:57.399Z</time></trkpt><trkpt lat="45.5434369" lon="9.912829"><ele>150.0</ele><time>2026-03-29T10:33:58.402Z</time></trkpt><trkpt lat="45.5435781" lon="9.9127962"><ele>150.0</ele><time>2026-03-29T10:33:59.394Z</time></trkpt><trkpt lat="45.5437288" lon="9.912763"><ele>150.0</ele><time>2026-03-29T10:34:00.404Z</time></trkpt><trkpt lat="45.5438763" lon="9.9127291"><ele>150.0</ele><time>2026-03-29T10:34:01.394Z</time></trkpt><trkpt lat="45.5440124" lon="9.9126922"><ele>150.4</ele><time>2026-03-29T10:34:02.396Z</time></trkpt><trkpt lat="45.5441285" lon="9.9126612"><ele>150.8</ele><time>2026-03-29T10:34:03.389Z</time></trkpt><trkpt lat="45.5442339" lon="9.9126357"><ele>151.2</ele><time>2026-03-29T10:34:04.396Z</time></trkpt><trkpt lat="45.5443295" lon="9.9126128"><ele>151.6</ele><time>2026-03-29T10:34:05.413Z</time></trkpt><trkpt lat="45.5444107" lon="9.9126014"><ele>152.0</ele><time>2026-03-29T10:34:06.397Z</time></trkpt><trkpt lat="45.5444902" lon="9.9126105"><ele>152.4</ele><time>2026-03-29T10:34:07.383Z</time></trkpt><trkpt lat="45.5445683" lon="9.9126526"><ele>152.79999999999998</ele><time>2026-03-29T10:34:08.405Z</time></trkpt><trkpt lat="45.5446526" lon="9.9127162"><ele>153.2</ele><time>2026-03-29T10:34:09.407Z</time></trkpt><trkpt lat="45.544734" lon="9.9127926"><ele>153.6</ele><time>2026-03-29T10:34:10.402Z</time></trkpt><trkpt lat="45.5448106" lon="9.912878"><ele>154.0</ele><time>2026-03-29T10:34:11.398Z</time></trkpt><trkpt lat="45.5448632" lon="9.9129815"><ele>154.0</ele><time>2026-03-29T10:34:12.393Z</time></trkpt><trkpt lat="45.5448798" lon="9.9130887"><ele>154.0</ele><time>2026-03-29T10:34:13.393Z</time></trkpt><trkpt lat="45.5448895" lon="9.9132436"><ele>154.0</ele><time>2026-03-29T10:34:14.393Z</time></trkpt><trkpt lat="45.5448865" lon="9.9134165"><ele>154.0</ele><time>2026-03-29T10:34:15.395Z</time></trkpt><trkpt lat="45.544879" lon="9.913612"><ele>154.0</ele><time>2026-03-29T10:34:16.385Z</time></trkpt><trkpt lat="45.5448687" lon="9.913813"><ele>153.66666666666669</ele><time>2026-03-29T10:34:17.401Z</time></trkpt><trkpt lat="45.5448588" lon="9.9140208"><ele>153.33333333333334</ele><time>2026-03-29T10:34:18.403Z</time></trkpt><trkpt lat="45.5448491" lon="9.9142361"><ele>153.0</ele><time>2026-03-29T10:34:19.401Z</time></trkpt><trkpt lat="45.5448439" lon="9.9144571"><ele>153.0</ele><time>2026-03-29T10:34:20.401Z</time></trkpt><trkpt lat="45.5448369" lon="9.9146918"><ele>153.0</ele><time>2026-03-29T10:34:21.409Z</time></trkpt><trkpt lat="45.5448286" lon="9.9149278"><ele>153.0</ele><time>2026-03-29T10:34:22.395Z</time></trkpt><trkpt lat="45.5448218" lon="9.9151745"><ele>152.66666666666666</ele><time>2026-03-29T10:34:23.402Z</time></trkpt><trkpt lat="45.544817" lon="9.9154151"><ele>152.33333333333331</ele><time>2026-03-29T10:34:24.396Z</time></trkpt><trkpt lat="45.544812" lon="9.9156522"><ele>152.0</ele><time>2026-03-29T10:34:25.383Z</time></trkpt><trkpt lat="45.5448059" lon="9.9158938"><ele>151.75</ele><time>2026-03-29T10:34:26.39Z</time></trkpt><trkpt lat="45.5447993" lon="9.9161239"><ele>151.5</ele><time>2026-03-29T10:34:27.387Z</time></trkpt><trkpt lat="45.5447912" lon="9.9163443"><ele>151.25</ele><time>2026-03-29T10:34:28.438Z</time></trkpt><trkpt lat="45.5447832" lon="9.9165231"><ele>151.0</ele><time>2026-03-29T10:34:29.396Z</time></trkpt><trkpt lat="45.5447734" lon="9.9166911"><ele>151.0</ele><time>2026-03-29T10:34:30.395Z</time></trkpt><trkpt lat="45.5447643" lon="9.916836"><ele>151.0</ele><time>2026-03-29T10:34:31.394Z</time></trkpt><trkpt lat="45.5447519" lon="9.9169608"><ele>151.0</ele><time>2026-03-29T10:34:32.393Z</time></trkpt><trkpt lat="45.5447292" lon="9.9170662"><ele>151.0</ele><time>2026-03-29T10:34:33.401Z</time></trkpt><trkpt lat="45.5446953" lon="9.9171519"><ele>151.0</ele><time>2026-03-29T10:34:34.402Z</time></trkpt><trkpt lat="45.5446548" lon="9.9172371"><ele>151.0</ele><time>2026-03-29T10:34:35.405Z</time></trkpt><trkpt lat="45.5446333" lon="9.9173252"><ele>151.0</ele><time>2026-03-29T10:34:36.397Z</time></trkpt><trkpt lat="45.5446516" lon="9.9174822"><ele>151.0</ele><time>2026-03-29T10:34:38.404Z</time></trkpt><trkpt lat="45.544688" lon="9.9175912"><ele>151.0</ele><time>2026-03-29T10:34:39.391Z</time></trkpt><trkpt lat="45.5447297" lon="9.9177331"><ele>151.0</ele><time>2026-03-29T10:34:40.427Z</time></trkpt><trkpt lat="45.544746" lon="9.917889"><ele>151.0</ele><time>2026-03-29T10:34:41.399Z</time></trkpt><trkpt lat="45.5447424" lon="9.9180724"><ele>151.25</ele><time>2026-03-29T10:34:42.399Z</time></trkpt><trkpt lat="45.5447467" lon="9.9182772"><ele>151.5</ele><time>2026-03-29T10:34:43.421Z</time></trkpt><trkpt lat="45.5447456" lon="9.9184779"><ele>151.75</ele><time>2026-03-29T10:34:44.405Z</time></trkpt><trkpt lat="45.5447435" lon="9.9186872"><ele>152.0</ele><time>2026-03-29T10:34:45.396Z</time></trkpt><trkpt lat="45.5447418" lon="9.9189076"><ele>152.0</ele><time>2026-03-29T10:34:46.399Z</time></trkpt><trkpt lat="45.5447448" lon="9.919135"><ele>152.0</ele><time>2026-03-29T10:34:47.406Z</time></trkpt><trkpt lat="45.5447607" lon="9.9193603"><ele>152.0</ele><time>2026-03-29T10:34:48.403Z</time></trkpt><trkpt lat="45.5447914" lon="9.9195934"><ele>152.0</ele><time>2026-03-29T10:34:49.412Z</time></trkpt><trkpt lat="45.5448336" lon="9.9198209"><ele>152.0</ele><time>2026-03-29T10:34:50.403Z</time></trkpt><trkpt lat="45.5448855" lon="9.9200356"><ele>152.0</ele><time>2026-03-29T10:34:51.396Z</time></trkpt><trkpt lat="45.5449305" lon="9.920235"><ele>152.5</ele><time>2026-03-29T10:34:52.387Z</time></trkpt><trkpt lat="45.5449654" lon="9.9204283"><ele>153.0</ele><time>2026-03-29T10:34:53.399Z</time></trkpt><trkpt lat="45.5449844" lon="9.9206056"><ele>153.5</ele><time>2026-03-29T10:34:54.395Z</time></trkpt><trkpt lat="45.5449907" lon="9.9207734"><ele>154.0</ele><time>2026-03-29T10:34:55.396Z</time></trkpt><trkpt lat="45.5449874" lon="9.9209484"><ele>154.0</ele><time>2026-03-29T10:34:56.397Z</time></trkpt><trkpt lat="45.5449802" lon="9.9211169"><ele>154.0</ele><time>2026-03-29T10:34:57.395Z</time></trkpt><trkpt lat="45.5449759" lon="9.9212802"><ele>154.0</ele><time>2026-03-29T10:34:58.404Z</time></trkpt><trkpt lat="45.5449709" lon="9.9214287"><ele>154.0</ele><time>2026-03-29T10:34:59.394Z</time></trkpt><trkpt lat="45.5449666" lon="9.9215721"><ele>154.0</ele><time>2026-03-29T10:35:00.409Z</time></trkpt><trkpt lat="45.5449651" lon="9.9216996"><ele>154.0</ele><time>2026-03-29T10:35:01.404Z</time></trkpt><trkpt lat="45.5449646" lon="9.9218157"><ele>154.0</ele><time>2026-03-29T10:35:02.413Z</time></trkpt><trkpt lat="45.5449624" lon="9.9219264"><ele>154.0</ele><time>2026-03-29T10:35:03.403Z</time></trkpt><trkpt lat="45.5449677" lon="9.9220396"><ele>154.0</ele><time>2026-03-29T10:35:04.397Z</time></trkpt><trkpt lat="45.5449822" lon="9.9221588"><ele>154.0</ele><time>2026-03-29T10:35:05.405Z</time></trkpt><trkpt lat="45.5450039" lon="9.9222841"><ele>154.0</ele><time>2026-03-29T10:35:06.4Z</time></trkpt><trkpt lat="45.5450337" lon="9.9224182"><ele>154.0</ele><time>2026-03-29T10:35:07.397Z</time></trkpt><trkpt lat="45.5450691" lon="9.9225567"><ele>154.0</ele><time>2026-03-29T10:35:08.399Z</time></trkpt><trkpt lat="45.5450995" lon="9.9226997"><ele>154.0</ele><time>2026-03-29T10:35:09.396Z</time></trkpt><trkpt lat="45.5451192" lon="9.9228508"><ele>154.0</ele><time>2026-03-29T10:35:10.393Z</time></trkpt><trkpt lat="45.5451232" lon="9.9230149"><ele>154.0</ele><time>2026-03-29T10:35:11.415Z</time></trkpt><trkpt lat="45.5451177" lon="9.9231816"><ele>153.75</ele><time>2026-03-29T10:35:12.398Z</time></trkpt><trkpt lat="45.5451108" lon="9.9233576"><ele>153.5</ele><time>2026-03-29T10:35:13.395Z</time></trkpt><trkpt lat="45.5451047" lon="9.9235287"><ele>153.25</ele><time>2026-03-29T10:35:14.401Z</time></trkpt><trkpt lat="45.545102" lon="9.9236859"><ele>153.0</ele><time>2026-03-29T10:35:15.401Z</time></trkpt><trkpt lat="45.5450995" lon="9.9238306"><ele>153.0</ele><time>2026-03-29T10:35:16.394Z</time></trkpt><trkpt lat="45.5450952" lon="9.9239618"><ele>153.0</ele><time>2026-03-29T10:35:17.398Z</time></trkpt><trkpt lat="45.5450946" lon="9.9240759"><ele>153.0</ele><time>2026-03-29T10:35:18.399Z</time></trkpt><trkpt lat="45.5450908" lon="9.9241757"><ele>153.0</ele><time>2026-03-29T10:35:19.403Z</time></trkpt><trkpt lat="45.5450877" lon="9.9242769"><ele>153.0</ele><time>2026-03-29T10:35:20.403Z</time></trkpt><trkpt lat="45.5450854" lon="9.9243775"><ele>153.0</ele><time>2026-03-29T10:35:21.398Z</time></trkpt><trkpt lat="45.5450855" lon="9.9244719"><ele>153.0</ele><time>2026-03-29T10:35:22.42Z</time></trkpt><trkpt lat="45.5450735" lon="9.9246487"><ele>153.0</ele><time>2026-03-29T10:35:24.394Z</time></trkpt><trkpt lat="45.5450486" lon="9.9248162"><ele>153.0</ele><time>2026-03-29T10:35:26.397Z</time></trkpt><trkpt lat="45.5449649" lon="9.9249487"><ele>153.0</ele><time>2026-03-29T10:35:28.412Z</time></trkpt><trkpt lat="45.5448977" lon="9.9249797"><ele>153.0</ele><time>2026-03-29T10:35:29.396Z</time></trkpt><trkpt lat="45.5448129" lon="9.9249959"><ele>153.0</ele><time>2026-03-29T10:35:30.396Z</time></trkpt><trkpt lat="45.5447132" lon="9.9250095"><ele>153.0</ele><time>2026-03-29T10:35:31.401Z</time></trkpt><trkpt lat="45.5445991" lon="9.9250173"><ele>153.0</ele><time>2026-03-29T10:35:32.4Z</time></trkpt><trkpt lat="45.5444784" lon="9.9250199"><ele>153.0</ele><time>2026-03-29T10:35:33.396Z</time></trkpt><trkpt lat="45.544352" lon="9.9250234"><ele>153.0</ele><time>2026-03-29T10:35:34.393Z</time></trkpt><trkpt lat="45.5442253" lon="9.9250271"><ele>152.75</ele><time>2026-03-29T10:35:35.394Z</time></trkpt><trkpt lat="45.5440956" lon="9.9250371"><ele>152.5</ele><time>2026-03-29T10:35:36.394Z</time></trkpt><trkpt lat="45.5439664" lon="9.9250294"><ele>152.25</ele><time>2026-03-29T10:35:37.428Z</time></trkpt><trkpt lat="45.5438536" lon="9.9250103"><ele>152.0</ele><time>2026-03-29T10:35:38.405Z</time></trkpt><trkpt lat="45.5437436" lon="9.9249867"><ele>151.6</ele><time>2026-03-29T10:35:39.408Z</time></trkpt><trkpt lat="45.5436352" lon="9.9249719"><ele>151.2</ele><time>2026-03-29T10:35:40.417Z</time></trkpt><trkpt lat="45.5435341" lon="9.9249686"><ele>150.8</ele><time>2026-03-29T10:35:41.4Z</time></trkpt><trkpt lat="45.5434413" lon="9.9249728"><ele>150.4</ele><time>2026-03-29T10:35:42.398Z</time></trkpt><trkpt lat="45.5433571" lon="9.9249694"><ele>150.0</ele><time>2026-03-29T10:35:43.417Z</time></trkpt><trkpt lat="45.5432847" lon="9.9249416"><ele>150.0</ele><time>2026-03-29T10:35:44.406Z</time></trkpt><trkpt lat="45.543206" lon="9.9249006"><ele>150.0</ele><time>2026-03-29T10:35:45.412Z</time></trkpt><trkpt lat="45.5431295" lon="9.9248777"><ele>150.0</ele><time>2026-03-29T10:35:46.394Z</time></trkpt><trkpt lat="45.5430506" lon="9.9248836"><ele>150.0</ele><time>2026-03-29T10:35:47.399Z</time></trkpt><trkpt lat="45.5429841" lon="9.9249206"><ele>150.0</ele><time>2026-03-29T10:35:48.398Z</time></trkpt><trkpt lat="45.5429393" lon="9.924988"><ele>150.0</ele><time>2026-03-29T10:35:49.405Z</time></trkpt><trkpt lat="45.542913" lon="9.9250962"><ele>150.0</ele><time>2026-03-29T10:35:50.418Z</time></trkpt><trkpt lat="45.5428925" lon="9.9252382"><ele>150.0</ele><time>2026-03-29T10:35:51.396Z</time></trkpt><trkpt lat="45.5428569" lon="9.9254017"><ele>150.0</ele><time>2026-03-29T10:35:52.398Z</time></trkpt><trkpt lat="45.5428043" lon="9.9255851"><ele>150.0</ele><time>2026-03-29T10:35:53.39Z</time></trkpt><trkpt lat="45.5427121" lon="9.9257581"><ele>149.75</ele><time>2026-03-29T10:35:54.408Z</time></trkpt><trkpt lat="45.5426052" lon="9.9259041"><ele>149.5</ele><time>2026-03-29T10:35:55.402Z</time></trkpt><trkpt lat="45.5424942" lon="9.9260225"><ele>149.25</ele><time>2026-03-29T10:35:56.39Z</time></trkpt><trkpt lat="45.5423843" lon="9.9261398"><ele>149.0</ele><time>2026-03-29T10:35:57.391Z</time></trkpt><trkpt lat="45.5422831" lon="9.9262484"><ele>149.0</ele><time>2026-03-29T10:35:58.401Z</time></trkpt><trkpt lat="45.5421866" lon="9.9263501"><ele>149.0</ele><time>2026-03-29T10:35:59.416Z</time></trkpt><trkpt lat="45.5420929" lon="9.92644"><ele>149.0</ele><time>2026-03-29T10:36:00.403Z</time></trkpt><trkpt lat="45.5419993" lon="9.9265231"><ele>149.0</ele><time>2026-03-29T10:36:01.413Z</time></trkpt><trkpt lat="45.5419119" lon="9.9266037"><ele>149.0</ele><time>2026-03-29T10:36:02.396Z</time></trkpt><trkpt lat="45.5418163" lon="9.9266911"><ele>149.25</ele><time>2026-03-29T10:36:03.418Z</time></trkpt><trkpt lat="45.5417253" lon="9.9267822"><ele>149.5</ele><time>2026-03-29T10:36:04.411Z</time></trkpt><trkpt lat="45.5416337" lon="9.926872"><ele>149.75</ele><time>2026-03-29T10:36:05.396Z</time></trkpt><trkpt lat="45.5415424" lon="9.9269671"><ele>150.0</ele><time>2026-03-29T10:36:06.41Z</time></trkpt><trkpt lat="45.54145" lon="9.9270632"><ele>150.0</ele><time>2026-03-29T10:36:07.391Z</time></trkpt><trkpt lat="45.5413526" lon="9.9271654"><ele>150.0</ele><time>2026-03-29T10:36:08.408Z</time></trkpt><trkpt lat="45.5412591" lon="9.9272668"><ele>150.0</ele><time>2026-03-29T10:36:09.401Z</time></trkpt><trkpt lat="45.5411617" lon="9.9273691"><ele>150.0</ele><time>2026-03-29T10:36:10.418Z</time></trkpt><trkpt lat="45.5410618" lon="9.9274653"><ele>150.25</ele><time>2026-03-29T10:36:11.411Z</time></trkpt><trkpt lat="45.5409563" lon="9.9275519"><ele>150.5</ele><time>2026-03-29T10:36:12.407Z</time></trkpt><trkpt lat="45.5408493" lon="9.9276255"><ele>150.75</ele><time>2026-03-29T10:36:13.406Z</time></trkpt><trkpt lat="45.540739" lon="9.927694"><ele>151.0</ele><time>2026-03-29T10:36:14.415Z</time></trkpt><trkpt lat="45.5406268" lon="9.9277479"><ele>151.0</ele><time>2026-03-29T10:36:15.4Z</time></trkpt><trkpt lat="45.5405009" lon="9.9277969"><ele>151.0</ele><time>2026-03-29T10:36:16.391Z</time></trkpt><trkpt lat="45.5403681" lon="9.9278388"><ele>151.0</ele><time>2026-03-29T10:36:17.392Z</time></trkpt><trkpt lat="45.5402342" lon="9.927858"><ele>151.0</ele><time>2026-03-29T10:36:18.436Z</time></trkpt><trkpt lat="45.5401005" lon="9.9278702"><ele>151.2</ele><time>2026-03-29T10:36:19.396Z</time></trkpt><trkpt lat="45.53999" lon="9.9278684"><ele>151.39999999999998</ele><time>2026-03-29T10:36:20.393Z</time></trkpt><trkpt lat="45.5398711" lon="9.9278592"><ele>151.6</ele><time>2026-03-29T10:36:21.391Z</time></trkpt><trkpt lat="45.5397597" lon="9.9278438"><ele>151.79999999999998</ele><time>2026-03-29T10:36:22.41Z</time></trkpt><trkpt lat="45.539653" lon="9.9278205"><ele>152.0</ele><time>2026-03-29T10:36:23.402Z</time></trkpt><trkpt lat="45.5395565" lon="9.9277923"><ele>151.66666666666666</ele><time>2026-03-29T10:36:24.399Z</time></trkpt><trkpt lat="45.5394682" lon="9.9277618"><ele>151.33333333333331</ele><time>2026-03-29T10:36:25.421Z</time></trkpt><trkpt lat="45.5393974" lon="9.9277361"><ele>151.0</ele><time>2026-03-29T10:36:26.406Z</time></trkpt><trkpt lat="45.5393349" lon="9.9277155"><ele>150.66666666666666</ele><time>2026-03-29T10:36:27.399Z</time></trkpt><trkpt lat="45.5392692" lon="9.9276909"><ele>150.33333333333334</ele><time>2026-03-29T10:36:28.405Z</time></trkpt><trkpt lat="45.5392065" lon="9.9276659"><ele>150.0</ele><time>2026-03-29T10:36:29.415Z</time></trkpt><trkpt lat="45.5391145" lon="9.9276022"><ele>149.8</ele><time>2026-03-29T10:36:31.395Z</time></trkpt><trkpt lat="45.5390645" lon="9.9275203"><ele>149.6</ele><time>2026-03-29T10:36:33.394Z</time></trkpt><trkpt lat="45.5390543" lon="9.9273988"><ele>149.4</ele><time>2026-03-29T10:36:35.394Z</time></trkpt><trkpt lat="45.5390511" lon="9.9272677"><ele>149.2</ele><time>2026-03-29T10:36:37.407Z</time></trkpt><trkpt lat="45.5389992" lon="9.9271582"><ele>149.0</ele><time>2026-03-29T10:36:39.392Z</time></trkpt><trkpt lat="45.5388865" lon="9.9271747"><ele>149.0</ele><time>2026-03-29T10:36:41.404Z</time></trkpt><trkpt lat="45.5387902" lon="9.9272372"><ele>149.0</ele><time>2026-03-29T10:36:43.393Z</time></trkpt><trkpt lat="45.5387122" lon="9.9272818"><ele>149.0</ele><time>2026-03-29T10:36:45.402Z</time></trkpt><trkpt lat="45.5386489" lon="9.9273084"><ele>149.0</ele><time>2026-03-29T10:36:47.415Z</time></trkpt><trkpt lat="45.53856" lon="9.9273263"><ele>149.0</ele><time>2026-03-29T10:36:54.4Z</time></trkpt><trkpt lat="45.5385063" lon="9.927376"><ele>149.0</ele><time>2026-03-29T10:36:56.408Z</time></trkpt><trkpt lat="45.5385277" lon="9.9274997"><ele>149.0</ele><time>2026-03-29T10:36:58.393Z</time></trkpt><trkpt lat="45.5385624" lon="9.9275864"><ele>149.0</ele><time>2026-03-29T10:36:59.391Z</time></trkpt><trkpt lat="45.5385973" lon="9.9276862"><ele>149.0</ele><time>2026-03-29T10:37:00.4Z</time></trkpt><trkpt lat="45.5386209" lon="9.927809"><ele>149.0</ele><time>2026-03-29T10:37:01.398Z</time></trkpt><trkpt lat="45.5386435" lon="9.9279564"><ele>149.0</ele><time>2026-03-29T10:37:02.415Z</time></trkpt><trkpt lat="45.5386646" lon="9.9281089"><ele>149.0</ele><time>2026-03-29T10:37:03.406Z</time></trkpt><trkpt lat="45.5386837" lon="9.9282705"><ele>149.0</ele><time>2026-03-29T10:37:04.4Z</time></trkpt><trkpt lat="45.538707" lon="9.9284414"><ele>149.0</ele><time>2026-03-29T10:37:05.403Z</time></trkpt><trkpt lat="45.5387294" lon="9.9286027"><ele>149.0</ele><time>2026-03-29T10:37:06.403Z</time></trkpt><trkpt lat="45.5387443" lon="9.9287547"><ele>149.4</ele><time>2026-03-29T10:37:07.392Z</time></trkpt><trkpt lat="45.5387414" lon="9.9289012"><ele>149.8</ele><time>2026-03-29T10:37:08.391Z</time></trkpt><trkpt lat="45.5387272" lon="9.9290565"><ele>150.2</ele><time>2026-03-29T10:37:09.402Z</time></trkpt><trkpt lat="45.5387101" lon="9.9292158"><ele>150.6</ele><time>2026-03-29T10:37:10.409Z</time></trkpt><trkpt lat="45.5386898" lon="9.9293834"><ele>151.0</ele><time>2026-03-29T10:37:11.392Z</time></trkpt><trkpt lat="45.5386674" lon="9.9295575"><ele>151.0</ele><time>2026-03-29T10:37:12.41Z</time></trkpt><trkpt lat="45.5386495" lon="9.929722"><ele>151.0</ele><time>2026-03-29T10:37:13.407Z</time></trkpt><trkpt lat="45.5386334" lon="9.9298675"><ele>151.0</ele><time>2026-03-29T10:37:14.408Z</time></trkpt><trkpt lat="45.5386214" lon="9.9299916"><ele>151.0</ele><time>2026-03-29T10:37:15.397Z</time></trkpt><trkpt lat="45.5386184" lon="9.9301051"><ele>151.0</ele><time>2026-03-29T10:37:16.391Z</time></trkpt><trkpt lat="45.5385966" lon="9.9302012"><ele>150.66666666666669</ele><time>2026-03-29T10:37:17.399Z</time></trkpt><trkpt lat="45.5385761" lon="9.9302904"><ele>150.33333333333334</ele><time>2026-03-29T10:37:18.399Z</time></trkpt><trkpt lat="45.5385834" lon="9.9304617"><ele>150.0</ele><time>2026-03-29T10:37:20.402Z</time></trkpt><trkpt lat="45.53859" lon="9.930563"><ele>149.66666666666666</ele><time>2026-03-29T10:37:21.4Z</time></trkpt><trkpt lat="45.5385965" lon="9.9306594"><ele>149.33333333333331</ele><time>2026-03-29T10:37:22.398Z</time></trkpt><trkpt lat="45.5386027" lon="9.9307596"><ele>149.0</ele><time>2026-03-29T10:37:23.399Z</time></trkpt><trkpt lat="45.5386122" lon="9.9308643"><ele>149.0</ele><time>2026-03-29T10:37:24.399Z</time></trkpt><trkpt lat="45.5386259" lon="9.9309713"><ele>149.0</ele><time>2026-03-29T10:37:25.397Z</time></trkpt><trkpt lat="45.5386409" lon="9.9310827"><ele>149.0</ele><time>2026-03-29T10:37:26.402Z</time></trkpt><trkpt lat="45.5386528" lon="9.9311899"><ele>149.0</ele><time>2026-03-29T10:37:27.406Z</time></trkpt><trkpt lat="45.5386598" lon="9.9312807"><ele>149.0</ele><time>2026-03-29T10:37:28.397Z</time></trkpt><trkpt lat="45.5386593" lon="9.9313975"><ele>149.0</ele><time>2026-03-29T10:37:30.405Z</time></trkpt><trkpt lat="45.538633" lon="9.9315272"><ele>149.0</ele><time>2026-03-29T10:37:33.397Z</time></trkpt><trkpt lat="45.5385491" lon="9.9316359"><ele>149.0</ele><time>2026-03-29T10:37:35.396Z</time></trkpt><trkpt lat="45.5384827" lon="9.9316722"><ele>149.0</ele><time>2026-03-29T10:37:36.4Z</time></trkpt><trkpt lat="45.538394" lon="9.9316932"><ele>149.0</ele><time>2026-03-29T10:37:37.403Z</time></trkpt><trkpt lat="45.5383064" lon="9.9317169"><ele>149.0</ele><time>2026-03-29T10:37:38.415Z</time></trkpt><trkpt lat="45.5382362" lon="9.9317384"><ele>149.0</ele><time>2026-03-29T10:37:39.392Z</time></trkpt><trkpt lat="45.5381522" lon="9.9317664"><ele>149.0</ele><time>2026-03-29T10:37:40.399Z</time></trkpt><trkpt lat="45.5380887" lon="9.9317835"><ele>149.0</ele><time>2026-03-29T10:37:41.403Z</time></trkpt><trkpt lat="45.5379707" lon="9.9318081"><ele>149.0</ele><time>2026-03-29T10:37:42.727Z</time></trkpt><trkpt lat="45.5378395" lon="9.9318436"><ele>149.0</ele><time>2026-03-29T10:37:44.453Z</time></trkpt><trkpt lat="45.5377551" lon="9.9318644"><ele>149.0</ele><time>2026-03-29T10:37:45.457Z</time></trkpt><trkpt lat="45.537669" lon="9.9318807"><ele>149.33333333333331</ele><time>2026-03-29T10:37:46.458Z</time></trkpt><trkpt lat="45.5375836" lon="9.931896"><ele>149.66666666666666</ele><time>2026-03-29T10:37:47.463Z</time></trkpt><trkpt lat="45.537498" lon="9.9319127"><ele>150.0</ele><time>2026-03-29T10:37:48.463Z</time></trkpt><trkpt lat="45.5374157" lon="9.9319322"><ele>150.33333333333334</ele><time>2026-03-29T10:37:49.453Z</time></trkpt><trkpt lat="45.5373316" lon="9.9319528"><ele>150.66666666666669</ele><time>2026-03-29T10:37:50.46Z</time></trkpt><trkpt lat="45.5372485" lon="9.9319743"><ele>151.0</ele><time>2026-03-29T10:37:51.462Z</time></trkpt><trkpt lat="45.5371676" lon="9.9319926"><ele>151.0</ele><time>2026-03-29T10:37:52.471Z</time></trkpt><trkpt lat="45.5370917" lon="9.9320064"><ele>151.0</ele><time>2026-03-29T10:37:53.453Z</time></trkpt><trkpt lat="45.5370244" lon="9.9320173"><ele>151.0</ele><time>2026-03-29T10:37:54.459Z</time></trkpt><trkpt lat="45.5369344" lon="9.9320292"><ele>151.0</ele><time>2026-03-29T10:37:56.459Z</time></trkpt><trkpt lat="45.5368483" lon="9.9320292"><ele>151.0</ele><time>2026-03-29T10:37:59.45Z</time></trkpt><trkpt lat="45.5367582" lon="9.93201"><ele>151.0</ele><time>2026-03-29T10:38:01.417Z</time></trkpt><trkpt lat="45.5366537" lon="9.9320326"><ele>150.8</ele><time>2026-03-29T10:38:03.416Z</time></trkpt><trkpt lat="45.5365397" lon="9.9320948"><ele>150.6</ele><time>2026-03-29T10:38:05.388Z</time></trkpt><trkpt lat="45.5364672" lon="9.9321121"><ele>150.4</ele><time>2026-03-29T10:38:06.397Z</time></trkpt><trkpt lat="45.5363861" lon="9.9321327"><ele>150.2</ele><time>2026-03-29T10:38:07.394Z</time></trkpt><trkpt lat="45.5363071" lon="9.9321505"><ele>150.0</ele><time>2026-03-29T10:38:08.399Z</time></trkpt><trkpt lat="45.5362085" lon="9.932167"><ele>149.5</ele><time>2026-03-29T10:38:09.719Z</time></trkpt><trkpt lat="45.5360295" lon="9.9322011"><ele>149.0</ele><time>2026-03-29T10:38:11.453Z</time></trkpt><trkpt lat="45.5359359" lon="9.9322096"><ele>148.5</ele><time>2026-03-29T10:38:12.458Z</time></trkpt><trkpt lat="45.5358455" lon="9.9322022"><ele>148.0</ele><time>2026-03-29T10:38:13.446Z</time></trkpt><trkpt lat="45.5357562" lon="9.932183"><ele>148.0</ele><time>2026-03-29T10:38:14.469Z</time></trkpt><trkpt lat="45.5356752" lon="9.9321619"><ele>148.0</ele><time>2026-03-29T10:38:15.414Z</time></trkpt><trkpt lat="45.5355901" lon="9.9321387"><ele>148.0</ele><time>2026-03-29T10:38:16.402Z</time></trkpt><trkpt lat="45.5355047" lon="9.9321169"><ele>148.0</ele><time>2026-03-29T10:38:17.396Z</time></trkpt><trkpt lat="45.5354203" lon="9.9320969"><ele>148.0</ele><time>2026-03-29T10:38:18.405Z</time></trkpt><trkpt lat="45.5353421" lon="9.93208"><ele>148.0</ele><time>2026-03-29T10:38:19.399Z</time></trkpt><trkpt lat="45.5352686" lon="9.9320664"><ele>148.0</ele><time>2026-03-29T10:38:20.409Z</time></trkpt><trkpt lat="45.5351604" lon="9.9320306"><ele>148.0</ele><time>2026-03-29T10:38:22.401Z</time></trkpt><trkpt lat="45.5350784" lon="9.9320022"><ele>148.0</ele><time>2026-03-29T10:38:24.408Z</time></trkpt><trkpt lat="45.5349875" lon="9.9319593"><ele>148.0</ele><time>2026-03-29T10:38:26.403Z</time></trkpt><trkpt lat="45.5349032" lon="9.9318606"><ele>148.0</ele><time>2026-03-29T10:38:28.415Z</time></trkpt><trkpt lat="45.5348212" lon="9.9318069"><ele>148.0</ele><time>2026-03-29T10:38:30.41Z</time></trkpt><trkpt lat="45.5346817" lon="9.9318088"><ele>148.0</ele><time>2026-03-29T10:38:32.409Z</time></trkpt><trkpt lat="45.5345913" lon="9.9318133"><ele>148.0</ele><time>2026-03-29T10:38:33.402Z</time></trkpt><trkpt lat="45.5344989" lon="9.9318228"><ele>148.0</ele><time>2026-03-29T10:38:34.389Z</time></trkpt><trkpt lat="45.5343921" lon="9.9318432"><ele>148.0</ele><time>2026-03-29T10:38:35.402Z</time></trkpt><trkpt lat="45.5342917" lon="9.9318528"><ele>147.75</ele><time>2026-03-29T10:38:36.394Z</time></trkpt><trkpt lat="45.5341674" lon="9.9318589"><ele>147.5</ele><time>2026-03-29T10:38:37.408Z</time></trkpt><trkpt lat="45.5340482" lon="9.9318587"><ele>147.25</ele><time>2026-03-29T10:38:38.401Z</time></trkpt><trkpt lat="45.5339337" lon="9.9318465"><ele>147.0</ele><time>2026-03-29T10:38:39.41Z</time></trkpt><trkpt lat="45.533818" lon="9.9318276"><ele>147.0</ele><time>2026-03-29T10:38:40.409Z</time></trkpt><trkpt lat="45.5337239" lon="9.9318019"><ele>147.0</ele><time>2026-03-29T10:38:41.403Z</time></trkpt><trkpt lat="45.5336413" lon="9.931793"><ele>147.0</ele><time>2026-03-29T10:38:42.393Z</time></trkpt><trkpt lat="45.5335648" lon="9.9317869"><ele>147.0</ele><time>2026-03-29T10:38:43.41Z</time></trkpt><trkpt lat="45.5334923" lon="9.931788"><ele>147.0</ele><time>2026-03-29T10:38:44.401Z</time></trkpt><trkpt lat="45.5334187" lon="9.9317874"><ele>147.0</ele><time>2026-03-29T10:38:45.4Z</time></trkpt><trkpt lat="45.5333424" lon="9.9317865"><ele>146.66666666666666</ele><time>2026-03-29T10:38:46.42Z</time></trkpt><trkpt lat="45.5332476" lon="9.9317901"><ele>146.33333333333334</ele><time>2026-03-29T10:38:47.728Z</time></trkpt><trkpt lat="45.5331182" lon="9.9317669"><ele>146.0</ele><time>2026-03-29T10:38:49.445Z</time></trkpt><trkpt lat="45.533044" lon="9.9317601"><ele>145.66666666666669</ele><time>2026-03-29T10:38:50.461Z</time></trkpt><trkpt lat="45.5329772" lon="9.9317562"><ele>145.33333333333334</ele><time>2026-03-29T10:38:51.461Z</time></trkpt><trkpt lat="45.5329125" lon="9.9317576"><ele>145.0</ele><time>2026-03-29T10:38:52.456Z</time></trkpt><trkpt lat="45.5328494" lon="9.9317612"><ele>144.8</ele><time>2026-03-29T10:38:53.459Z</time></trkpt><trkpt lat="45.5327148" lon="9.931776"><ele>144.6</ele><time>2026-03-29T10:38:55.459Z</time></trkpt><trkpt lat="45.5326396" lon="9.9317853"><ele>144.4</ele><time>2026-03-29T10:38:56.404Z</time></trkpt><trkpt lat="45.532561" lon="9.931789"><ele>144.2</ele><time>2026-03-29T10:38:57.395Z</time></trkpt><trkpt lat="45.5324795" lon="9.9317808"><ele>144.0</ele><time>2026-03-29T10:38:58.397Z</time></trkpt><trkpt lat="45.5323932" lon="9.9317699"><ele>144.0</ele><time>2026-03-29T10:38:59.402Z</time></trkpt><trkpt lat="45.5322987" lon="9.9317611"><ele>144.0</ele><time>2026-03-29T10:39:00.395Z</time></trkpt><trkpt lat="45.5321923" lon="9.9317594"><ele>144.0</ele><time>2026-03-29T10:39:01.403Z</time></trkpt><trkpt lat="45.5320907" lon="9.9317596"><ele>144.0</ele><time>2026-03-29T10:39:02.398Z</time></trkpt><trkpt lat="45.5319831" lon="9.9317664"><ele>144.0</ele><time>2026-03-29T10:39:03.402Z</time></trkpt><trkpt lat="45.5318629" lon="9.9317841"><ele>143.5</ele><time>2026-03-29T10:39:04.394Z</time></trkpt><trkpt lat="45.5317373" lon="9.9318199"><ele>143.0</ele><time>2026-03-29T10:39:05.418Z</time></trkpt><trkpt lat="45.5316093" lon="9.9318652"><ele>142.5</ele><time>2026-03-29T10:39:06.402Z</time></trkpt><trkpt lat="45.5314764" lon="9.9319281"><ele>142.0</ele><time>2026-03-29T10:39:07.409Z</time></trkpt><trkpt lat="45.5313481" lon="9.9320131"><ele>141.66666666666669</ele><time>2026-03-29T10:39:08.4Z</time></trkpt><trkpt lat="45.5312206" lon="9.9321153"><ele>141.33333333333334</ele><time>2026-03-29T10:39:09.396Z</time></trkpt><trkpt lat="45.5310951" lon="9.9322361"><ele>141.0</ele><time>2026-03-29T10:39:10.406Z</time></trkpt><trkpt lat="45.5309748" lon="9.9323744"><ele>141.0</ele><time>2026-03-29T10:39:11.397Z</time></trkpt><trkpt lat="45.5308557" lon="9.9325282"><ele>141.0</ele><time>2026-03-29T10:39:12.401Z</time></trkpt><trkpt lat="45.5307346" lon="9.9326879"><ele>141.0</ele><time>2026-03-29T10:39:13.399Z</time></trkpt><trkpt lat="45.5306138" lon="9.93284"><ele>141.0</ele><time>2026-03-29T10:39:14.393Z</time></trkpt><trkpt lat="45.5304985" lon="9.9329784"><ele>141.0</ele><time>2026-03-29T10:39:15.396Z</time></trkpt><trkpt lat="45.5303902" lon="9.9331086"><ele>141.0</ele><time>2026-03-29T10:39:16.401Z</time></trkpt><trkpt lat="45.5302905" lon="9.9332298"><ele>141.0</ele><time>2026-03-29T10:39:17.412Z</time></trkpt><trkpt lat="45.5302069" lon="9.9333424"><ele>140.8</ele><time>2026-03-29T10:39:18.407Z</time></trkpt><trkpt lat="45.5301278" lon="9.9334482"><ele>140.6</ele><time>2026-03-29T10:39:19.397Z</time></trkpt><trkpt lat="45.5300503" lon="9.9335537"><ele>140.4</ele><time>2026-03-29T10:39:20.398Z</time></trkpt><trkpt lat="45.529982" lon="9.9336524"><ele>140.2</ele><time>2026-03-29T10:39:21.392Z</time></trkpt><trkpt lat="45.5299047" lon="9.9337499"><ele>140.0</ele><time>2026-03-29T10:39:22.393Z</time></trkpt><trkpt lat="45.5298255" lon="9.9338499"><ele>140.0</ele><time>2026-03-29T10:39:23.399Z</time></trkpt><trkpt lat="45.5297418" lon="9.9339604"><ele>140.0</ele><time>2026-03-29T10:39:24.4Z</time></trkpt><trkpt lat="45.529651" lon="9.9340728"><ele>140.0</ele><time>2026-03-29T10:39:25.399Z</time></trkpt><trkpt lat="45.5295471" lon="9.9341999"><ele>140.0</ele><time>2026-03-29T10:39:26.419Z</time></trkpt><trkpt lat="45.5294409" lon="9.9343409"><ele>140.33333333333331</ele><time>2026-03-29T10:39:27.409Z</time></trkpt><trkpt lat="45.5293308" lon="9.9344902"><ele>140.66666666666666</ele><time>2026-03-29T10:39:28.435Z</time></trkpt><trkpt lat="45.5292253" lon="9.9346341"><ele>141.0</ele><time>2026-03-29T10:39:29.392Z</time></trkpt><trkpt lat="45.5291028" lon="9.9347975"><ele>141.0</ele><time>2026-03-29T10:39:30.41Z</time></trkpt><trkpt lat="45.528985" lon="9.9349593"><ele>141.0</ele><time>2026-03-29T10:39:31.408Z</time></trkpt><trkpt lat="45.5288659" lon="9.9351349"><ele>141.0</ele><time>2026-03-29T10:39:32.398Z</time></trkpt><trkpt lat="45.5287428" lon="9.935338"><ele>140.33333333333334</ele><time>2026-03-29T10:39:33.414Z</time></trkpt><trkpt lat="45.5286436" lon="9.935563"><ele>139.66666666666669</ele><time>2026-03-29T10:39:34.418Z</time></trkpt><trkpt lat="45.5285553" lon="9.9357982"><ele>139.0</ele><time>2026-03-29T10:39:35.409Z</time></trkpt><trkpt lat="45.5284675" lon="9.9360412"><ele>138.66666666666669</ele><time>2026-03-29T10:39:36.403Z</time></trkpt><trkpt lat="45.528381" lon="9.9362855"><ele>138.33333333333334</ele><time>2026-03-29T10:39:37.4Z</time></trkpt><trkpt lat="45.5282869" lon="9.9365371"><ele>138.0</ele><time>2026-03-29T10:39:38.4Z</time></trkpt><trkpt lat="45.5281942" lon="9.9367796"><ele>138.0</ele><time>2026-03-29T10:39:39.408Z</time></trkpt><trkpt lat="45.5280963" lon="9.9370287"><ele>138.0</ele><time>2026-03-29T10:39:40.417Z</time></trkpt><trkpt lat="45.5280052" lon="9.9372571"><ele>138.0</ele><time>2026-03-29T10:39:41.402Z</time></trkpt><trkpt lat="45.5279069" lon="9.9374895"><ele>138.0</ele><time>2026-03-29T10:39:42.402Z</time></trkpt><trkpt lat="45.5278095" lon="9.9377024"><ele>138.0</ele><time>2026-03-29T10:39:43.402Z</time></trkpt><trkpt lat="45.5277187" lon="9.9378918"><ele>138.0</ele><time>2026-03-29T10:39:44.405Z</time></trkpt><trkpt lat="45.5276367" lon="9.9380435"><ele>138.0</ele><time>2026-03-29T10:39:45.4Z</time></trkpt><trkpt lat="45.5275599" lon="9.9381698"><ele>138.0</ele><time>2026-03-29T10:39:46.418Z</time></trkpt><trkpt lat="45.5275018" lon="9.9382485"><ele>138.0</ele><time>2026-03-29T10:39:47.394Z</time></trkpt><trkpt lat="45.5274469" lon="9.9383155"><ele>138.0</ele><time>2026-03-29T10:39:48.395Z</time></trkpt><trkpt lat="45.5273266" lon="9.9383446"><ele>138.0</ele><time>2026-03-29T10:39:50.394Z</time></trkpt><trkpt lat="45.5272585" lon="9.9383508"><ele>137.8</ele><time>2026-03-29T10:39:51.405Z</time></trkpt><trkpt lat="45.5271761" lon="9.9384376"><ele>137.60000000000002</ele><time>2026-03-29T10:39:53.398Z</time></trkpt><trkpt lat="45.5271612" lon="9.9385391"><ele>137.39999999999998</ele><time>2026-03-29T10:39:54.417Z</time></trkpt><trkpt lat="45.5271484" lon="9.9386915"><ele>137.2</ele><time>2026-03-29T10:39:55.409Z</time></trkpt><trkpt lat="45.5271014" lon="9.9388914"><ele>137.0</ele><time>2026-03-29T10:39:56.399Z</time></trkpt><trkpt lat="45.5270152" lon="9.9390834"><ele>137.25</ele><time>2026-03-29T10:39:57.395Z</time></trkpt><trkpt lat="45.5269207" lon="9.9392554"><ele>137.5</ele><time>2026-03-29T10:39:58.396Z</time></trkpt><trkpt lat="45.5268225" lon="9.9394216"><ele>137.75</ele><time>2026-03-29T10:39:59.403Z</time></trkpt><trkpt lat="45.5267333" lon="9.939568"><ele>138.0</ele><time>2026-03-29T10:40:00.404Z</time></trkpt><trkpt lat="45.5266542" lon="9.9397012"><ele>138.0</ele><time>2026-03-29T10:40:01.401Z</time></trkpt><trkpt lat="45.5265835" lon="9.9397915"><ele>138.0</ele><time>2026-03-29T10:40:02.408Z</time></trkpt><trkpt lat="45.5265116" lon="9.9398253"><ele>138.0</ele><time>2026-03-29T10:40:03.406Z</time></trkpt><trkpt lat="45.5264118" lon="9.9398851"><ele>138.0</ele><time>2026-03-29T10:40:04.407Z</time></trkpt><trkpt lat="45.5263045" lon="9.9399136"><ele>138.0</ele><time>2026-03-29T10:40:05.39Z</time></trkpt><trkpt lat="45.5262028" lon="9.9399376"><ele>138.0</ele><time>2026-03-29T10:40:06.405Z</time></trkpt><trkpt lat="45.526128" lon="9.939968"><ele>138.0</ele><time>2026-03-29T10:40:07.392Z</time></trkpt><trkpt lat="45.5260413" lon="9.9401068"><ele>138.0</ele><time>2026-03-29T10:40:09.405Z</time></trkpt><trkpt lat="45.5260466" lon="9.9403193"><ele>138.0</ele><time>2026-03-29T10:40:11.407Z</time></trkpt><trkpt lat="45.5260538" lon="9.94048"><ele>137.66666666666666</ele><time>2026-03-29T10:40:12.399Z</time></trkpt><trkpt lat="45.5260339" lon="9.9406456"><ele>137.33333333333331</ele><time>2026-03-29T10:40:13.388Z</time></trkpt><trkpt lat="45.5259647" lon="9.9408803"><ele>137.0</ele><time>2026-03-29T10:40:14.696Z</time></trkpt><trkpt lat="45.5257837" lon="9.9411262"><ele>137.0</ele><time>2026-03-29T10:40:16.476Z</time></trkpt><trkpt lat="45.5256818" lon="9.9412989"><ele>137.0</ele><time>2026-03-29T10:40:17.459Z</time></trkpt><trkpt lat="45.525571" lon="9.9414875"><ele>137.0</ele><time>2026-03-29T10:40:18.473Z</time></trkpt><trkpt lat="45.5254622" lon="9.9416752"><ele>136.33333333333331</ele><time>2026-03-29T10:40:19.457Z</time></trkpt><trkpt lat="45.5253541" lon="9.9418564"><ele>135.66666666666666</ele><time>2026-03-29T10:40:20.404Z</time></trkpt><trkpt lat="45.5252366" lon="9.942053"><ele>135.0</ele><time>2026-03-29T10:40:21.39Z</time></trkpt><trkpt lat="45.5251101" lon="9.9422608"><ele>135.0</ele><time>2026-03-29T10:40:22.411Z</time></trkpt><trkpt lat="45.5249755" lon="9.9424737"><ele>135.0</ele><time>2026-03-29T10:40:23.422Z</time></trkpt><trkpt lat="45.5248386" lon="9.9426802"><ele>135.0</ele><time>2026-03-29T10:40:24.399Z</time></trkpt><trkpt lat="45.5246945" lon="9.942894"><ele>134.66666666666666</ele><time>2026-03-29T10:40:25.404Z</time></trkpt><trkpt lat="45.5245527" lon="9.9431101"><ele>134.33333333333331</ele><time>2026-03-29T10:40:26.408Z</time></trkpt><trkpt lat="45.5244146" lon="9.9433315"><ele>134.0</ele><time>2026-03-29T10:40:27.402Z</time></trkpt><trkpt lat="45.5242929" lon="9.9435664"><ele>134.0</ele><time>2026-03-29T10:40:28.398Z</time></trkpt><trkpt lat="45.5241749" lon="9.9438179"><ele>134.0</ele><time>2026-03-29T10:40:29.391Z</time></trkpt><trkpt lat="45.5240596" lon="9.9440856"><ele>134.0</ele><time>2026-03-29T10:40:30.394Z</time></trkpt><trkpt lat="45.5239404" lon="9.9443606"><ele>134.0</ele><time>2026-03-29T10:40:31.4Z</time></trkpt><trkpt lat="45.523819" lon="9.9446356"><ele>134.0</ele><time>2026-03-29T10:40:32.409Z</time></trkpt><trkpt lat="45.5236959" lon="9.9449043"><ele>135.0</ele><time>2026-03-29T10:40:33.39Z</time></trkpt><trkpt lat="45.5235692" lon="9.9451855"><ele>136.0</ele><time>2026-03-29T10:40:34.414Z</time></trkpt><trkpt lat="45.5234467" lon="9.9454564"><ele>136.0</ele><time>2026-03-29T10:40:35.409Z</time></trkpt><trkpt lat="45.523324" lon="9.9457262"><ele>136.0</ele><time>2026-03-29T10:40:36.402Z</time></trkpt><trkpt lat="45.5232044" lon="9.9459947"><ele>136.0</ele><time>2026-03-29T10:40:37.398Z</time></trkpt><trkpt lat="45.5230826" lon="9.9462596"><ele>135.33333333333334</ele><time>2026-03-29T10:40:38.394Z</time></trkpt><trkpt lat="45.5229611" lon="9.9465166"><ele>134.66666666666666</ele><time>2026-03-29T10:40:39.399Z</time></trkpt><trkpt lat="45.5228391" lon="9.9467722"><ele>134.0</ele><time>2026-03-29T10:40:40.414Z</time></trkpt><trkpt lat="45.5227172" lon="9.9470252"><ele>133.33333333333331</ele><time>2026-03-29T10:40:41.422Z</time></trkpt><trkpt lat="45.5225987" lon="9.9472709"><ele>132.66666666666666</ele><time>2026-03-29T10:40:42.401Z</time></trkpt><trkpt lat="45.5224796" lon="9.9475187"><ele>132.0</ele><time>2026-03-29T10:40:43.417Z</time></trkpt><trkpt lat="45.5223615" lon="9.9477597"><ele>132.0</ele><time>2026-03-29T10:40:44.403Z</time></trkpt><trkpt lat="45.5222409" lon="9.948008"><ele>132.0</ele><time>2026-03-29T10:40:45.405Z</time></trkpt><trkpt lat="45.5221197" lon="9.948257"><ele>132.0</ele><time>2026-03-29T10:40:46.405Z</time></trkpt><trkpt lat="45.521993" lon="9.948508"><ele>132.0</ele><time>2026-03-29T10:40:47.417Z</time></trkpt><trkpt lat="45.5218665" lon="9.9487484"><ele>132.0</ele><time>2026-03-29T10:40:48.403Z</time></trkpt><trkpt lat="45.521739" lon="9.9489973"><ele>132.0</ele><time>2026-03-29T10:40:49.409Z</time></trkpt><trkpt lat="45.5216117" lon="9.9492448"><ele>132.0</ele><time>2026-03-29T10:40:50.397Z</time></trkpt><trkpt lat="45.5214807" lon="9.9495035"><ele>132.0</ele><time>2026-03-29T10:40:51.41Z</time></trkpt><trkpt lat="45.5213514" lon="9.9497604"><ele>132.0</ele><time>2026-03-29T10:40:52.401Z</time></trkpt><trkpt lat="45.5212187" lon="9.9500223"><ele>131.5</ele><time>2026-03-29T10:40:53.403Z</time></trkpt><trkpt lat="45.5210859" lon="9.9502893"><ele>131.0</ele><time>2026-03-29T10:40:54.41Z</time></trkpt><trkpt lat="45.5209554" lon="9.9505476"><ele>131.0</ele><time>2026-03-29T10:40:55.404Z</time></trkpt><trkpt lat="45.5208173" lon="9.9508204"><ele>131.0</ele><time>2026-03-29T10:40:56.46Z</time></trkpt><trkpt lat="45.5206382" lon="9.9511737"><ele>130.5</ele><time>2026-03-29T10:40:57.817Z</time></trkpt><trkpt lat="45.520422" lon="9.951599"><ele>130.0</ele><time>2026-03-29T10:40:59.478Z</time></trkpt><trkpt lat="45.520294" lon="9.9518626"><ele>130.0</ele><time>2026-03-29T10:41:00.494Z</time></trkpt><trkpt lat="45.5201706" lon="9.9521122"><ele>130.0</ele><time>2026-03-29T10:41:01.469Z</time></trkpt><trkpt lat="45.5200391" lon="9.9523549"><ele>130.0</ele><time>2026-03-29T10:41:02.477Z</time></trkpt><trkpt lat="45.5199149" lon="9.9526006"><ele>129.66666666666669</ele><time>2026-03-29T10:41:03.487Z</time></trkpt><trkpt lat="45.5198043" lon="9.9528192"><ele>129.33333333333334</ele><time>2026-03-29T10:41:04.391Z</time></trkpt><trkpt lat="45.5196808" lon="9.9530655"><ele>129.0</ele><time>2026-03-29T10:41:05.404Z</time></trkpt><trkpt lat="45.5195607" lon="9.9533036"><ele>128.66666666666666</ele><time>2026-03-29T10:41:06.4Z</time></trkpt><trkpt lat="45.5194372" lon="9.9535501"><ele>128.33333333333331</ele><time>2026-03-29T10:41:07.421Z</time></trkpt><trkpt lat="45.5193201" lon="9.9537826"><ele>128.0</ele><time>2026-03-29T10:41:08.391Z</time></trkpt><trkpt lat="45.5191905" lon="9.9540369"><ele>128.33333333333331</ele><time>2026-03-29T10:41:09.451Z</time></trkpt><trkpt lat="45.5190703" lon="9.9542725"><ele>128.66666666666666</ele><time>2026-03-29T10:41:10.406Z</time></trkpt><trkpt lat="45.5189412" lon="9.9545226"><ele>129.0</ele><time>2026-03-29T10:41:11.398Z</time></trkpt><trkpt lat="45.5188069" lon="9.9547796"><ele>129.0</ele><time>2026-03-29T10:41:12.415Z</time></trkpt><trkpt lat="45.5186723" lon="9.9550325"><ele>129.0</ele><time>2026-03-29T10:41:13.41Z</time></trkpt><trkpt lat="45.5185357" lon="9.9552849"><ele>129.0</ele><time>2026-03-29T10:41:14.423Z</time></trkpt><trkpt lat="45.5184013" lon="9.9555321"><ele>129.33333333333334</ele><time>2026-03-29T10:41:15.392Z</time></trkpt><trkpt lat="45.5182634" lon="9.955787"><ele>129.66666666666669</ele><time>2026-03-29T10:41:16.402Z</time></trkpt><trkpt lat="45.5181266" lon="9.9560338"><ele>130.0</ele><time>2026-03-29T10:41:17.398Z</time></trkpt><trkpt lat="45.5179877" lon="9.956279"><ele>130.0</ele><time>2026-03-29T10:41:18.397Z</time></trkpt><trkpt lat="45.5178351" lon="9.9565242"><ele>130.0</ele><time>2026-03-29T10:41:19.432Z</time></trkpt><trkpt lat="45.5176872" lon="9.9567488"><ele>130.0</ele><time>2026-03-29T10:41:20.403Z</time></trkpt><trkpt lat="45.5175305" lon="9.9569839"><ele>129.66666666666669</ele><time>2026-03-29T10:41:21.425Z</time></trkpt><trkpt lat="45.5173811" lon="9.9572108"><ele>129.33333333333334</ele><time>2026-03-29T10:41:22.416Z</time></trkpt><trkpt lat="45.5172343" lon="9.957431"><ele>129.0</ele><time>2026-03-29T10:41:23.397Z</time></trkpt><trkpt lat="45.5170911" lon="9.9576454"><ele>128.66666666666666</ele><time>2026-03-29T10:41:24.4Z</time></trkpt><trkpt lat="45.5169595" lon="9.9578553"><ele>128.33333333333331</ele><time>2026-03-29T10:41:25.414Z</time></trkpt><trkpt lat="45.5168393" lon="9.958066"><ele>128.0</ele><time>2026-03-29T10:41:26.41Z</time></trkpt><trkpt lat="45.5167286" lon="9.9582861"><ele>128.33333333333331</ele><time>2026-03-29T10:41:27.411Z</time></trkpt><trkpt lat="45.5166262" lon="9.958521"><ele>128.66666666666666</ele><time>2026-03-29T10:41:28.399Z</time></trkpt><trkpt lat="45.5165445" lon="9.9587683"><ele>129.0</ele><time>2026-03-29T10:41:29.398Z</time></trkpt><trkpt lat="45.5164724" lon="9.9590455"><ele>128.66666666666666</ele><time>2026-03-29T10:41:30.416Z</time></trkpt><trkpt lat="45.5164212" lon="9.9593241"><ele>128.33333333333331</ele><time>2026-03-29T10:41:31.408Z</time></trkpt><trkpt lat="45.5163697" lon="9.9596211"><ele>128.0</ele><time>2026-03-29T10:41:32.425Z</time></trkpt><trkpt lat="45.5163178" lon="9.959917"><ele>127.66666666666666</ele><time>2026-03-29T10:41:33.41Z</time></trkpt><trkpt lat="45.5162599" lon="9.9602211"><ele>127.33333333333334</ele><time>2026-03-29T10:41:34.417Z</time></trkpt><trkpt lat="45.5162063" lon="9.960521"><ele>127.0</ele><time>2026-03-29T10:41:35.416Z</time></trkpt><trkpt lat="45.5161495" lon="9.9608195"><ele>127.0</ele><time>2026-03-29T10:41:36.412Z</time></trkpt><trkpt lat="45.5160914" lon="9.9611191"><ele>127.0</ele><time>2026-03-29T10:41:37.41Z</time></trkpt><trkpt lat="45.516028" lon="9.9614113"><ele>127.0</ele><time>2026-03-29T10:41:38.418Z</time></trkpt><trkpt lat="45.5159597" lon="9.9616973"><ele>127.33333333333334</ele><time>2026-03-29T10:41:39.409Z</time></trkpt><trkpt lat="45.5158829" lon="9.9619816"><ele>127.66666666666666</ele><time>2026-03-29T10:41:40.412Z</time></trkpt><trkpt lat="45.5157913" lon="9.9622562"><ele>128.0</ele><time>2026-03-29T10:41:41.415Z</time></trkpt><trkpt lat="45.5156954" lon="9.9625238"><ele>128.0</ele><time>2026-03-29T10:41:42.404Z</time></trkpt><trkpt lat="45.515597" lon="9.9627938"><ele>128.0</ele><time>2026-03-29T10:41:43.401Z</time></trkpt><trkpt lat="45.5154965" lon="9.9630669"><ele>128.0</ele><time>2026-03-29T10:41:44.409Z</time></trkpt><trkpt lat="45.5153975" lon="9.9633415"><ele>127.0</ele><time>2026-03-29T10:41:45.409Z</time></trkpt><trkpt lat="45.5152967" lon="9.9636193"><ele>126.0</ele><time>2026-03-29T10:41:46.411Z</time></trkpt><trkpt lat="45.5151936" lon="9.9638997"><ele>125.0</ele><time>2026-03-29T10:41:47.419Z</time></trkpt><trkpt lat="45.5150946" lon="9.9641655"><ele>125.0</ele><time>2026-03-29T10:41:48.409Z</time></trkpt><trkpt lat="45.514994" lon="9.964431"><ele>125.0</ele><time>2026-03-29T10:41:49.441Z</time></trkpt><trkpt lat="45.5149038" lon="9.9646746"><ele>125.0</ele><time>2026-03-29T10:41:50.407Z</time></trkpt><trkpt lat="45.5148141" lon="9.9649275"><ele>125.33333333333333</ele><time>2026-03-29T10:41:51.401Z</time></trkpt><trkpt lat="45.5147293" lon="9.9651895"><ele>125.66666666666666</ele><time>2026-03-29T10:41:52.418Z</time></trkpt><trkpt lat="45.5146512" lon="9.9654432"><ele>126.0</ele><time>2026-03-29T10:41:53.406Z</time></trkpt><trkpt lat="45.5145786" lon="9.9656964"><ele>126.0</ele><time>2026-03-29T10:41:54.418Z</time></trkpt><trkpt lat="45.5145062" lon="9.9659332"><ele>126.0</ele><time>2026-03-29T10:41:55.421Z</time></trkpt><trkpt lat="45.5144405" lon="9.9661566"><ele>126.0</ele><time>2026-03-29T10:41:56.417Z</time></trkpt><trkpt lat="45.514375" lon="9.9663701"><ele>126.0</ele><time>2026-03-29T10:41:57.428Z</time></trkpt><trkpt lat="45.5143162" lon="9.9665699"><ele>126.0</ele><time>2026-03-29T10:41:58.412Z</time></trkpt><trkpt lat="45.5142637" lon="9.9667746"><ele>126.0</ele><time>2026-03-29T10:41:59.424Z</time></trkpt><trkpt lat="45.5142199" lon="9.9669757"><ele>126.0</ele><time>2026-03-29T10:42:00.413Z</time></trkpt><trkpt lat="45.5141882" lon="9.9671814"><ele>126.0</ele><time>2026-03-29T10:42:01.407Z</time></trkpt><trkpt lat="45.5141727" lon="9.9673917"><ele>126.0</ele><time>2026-03-29T10:42:02.418Z</time></trkpt><trkpt lat="45.5141687" lon="9.9676068"><ele>126.0</ele><time>2026-03-29T10:42:03.404Z</time></trkpt><trkpt lat="45.5141663" lon="9.9678312"><ele>126.0</ele><time>2026-03-29T10:42:04.424Z</time></trkpt><trkpt lat="45.5141659" lon="9.968049"><ele>126.0</ele><time>2026-03-29T10:42:05.407Z</time></trkpt><trkpt lat="45.5141628" lon="9.9682777"><ele>126.0</ele><time>2026-03-29T10:42:06.414Z</time></trkpt><trkpt lat="45.5141619" lon="9.9685069"><ele>126.0</ele><time>2026-03-29T10:42:07.418Z</time></trkpt><trkpt lat="45.5141622" lon="9.9687408"><ele>126.0</ele><time>2026-03-29T10:42:08.416Z</time></trkpt><trkpt lat="45.5141629" lon="9.9689792"><ele>126.0</ele><time>2026-03-29T10:42:09.414Z</time></trkpt><trkpt lat="45.5141632" lon="9.9692193"><ele>126.0</ele><time>2026-03-29T10:42:10.418Z</time></trkpt><trkpt lat="45.5141643" lon="9.9694636"><ele>126.0</ele><time>2026-03-29T10:42:11.419Z</time></trkpt><trkpt lat="45.5141645" lon="9.9697118"><ele>126.0</ele><time>2026-03-29T10:42:12.426Z</time></trkpt><trkpt lat="45.5141663" lon="9.9699552"><ele>126.0</ele><time>2026-03-29T10:42:13.407Z</time></trkpt><trkpt lat="45.5141703" lon="9.9701949"><ele>126.0</ele><time>2026-03-29T10:42:14.421Z</time></trkpt><trkpt lat="45.5141745" lon="9.9704148"><ele>126.0</ele><time>2026-03-29T10:42:15.405Z</time></trkpt><trkpt lat="45.5141764" lon="9.9706252"><ele>126.0</ele><time>2026-03-29T10:42:16.406Z</time></trkpt><trkpt lat="45.5141752" lon="9.9708207"><ele>126.0</ele><time>2026-03-29T10:42:17.407Z</time></trkpt><trkpt lat="45.5141756" lon="9.9710104"><ele>126.0</ele><time>2026-03-29T10:42:18.422Z</time></trkpt><trkpt lat="45.5141746" lon="9.9711908"><ele>126.0</ele><time>2026-03-29T10:42:19.41Z</time></trkpt><trkpt lat="45.5141711" lon="9.9713741"><ele>126.0</ele><time>2026-03-29T10:42:20.398Z</time></trkpt><trkpt lat="45.5141683" lon="9.9715782"><ele>126.0</ele><time>2026-03-29T10:42:21.442Z</time></trkpt><trkpt lat="45.5141589" lon="9.9717698"><ele>126.0</ele><time>2026-03-29T10:42:22.398Z</time></trkpt><trkpt lat="45.5141528" lon="9.9719734"><ele>126.0</ele><time>2026-03-29T10:42:23.414Z</time></trkpt><trkpt lat="45.5141389" lon="9.9721737"><ele>126.0</ele><time>2026-03-29T10:42:24.414Z</time></trkpt><trkpt lat="45.5141158" lon="9.9723799"><ele>126.0</ele><time>2026-03-29T10:42:25.41Z</time></trkpt><trkpt lat="45.5140803" lon="9.9725842"><ele>126.0</ele><time>2026-03-29T10:42:26.415Z</time></trkpt><trkpt lat="45.5140318" lon="9.9727816"><ele>126.0</ele><time>2026-03-29T10:42:27.404Z</time></trkpt><trkpt lat="45.5139754" lon="9.9729775"><ele>126.0</ele><time>2026-03-29T10:42:28.403Z</time></trkpt><trkpt lat="45.5139147" lon="9.9731715"><ele>126.0</ele><time>2026-03-29T10:42:29.406Z</time></trkpt><trkpt lat="45.5138503" lon="9.9733613"><ele>126.0</ele><time>2026-03-29T10:42:30.403Z</time></trkpt><trkpt lat="45.5137795" lon="9.9735488"><ele>126.0</ele><time>2026-03-29T10:42:31.41Z</time></trkpt><trkpt lat="45.5137057" lon="9.9737317"><ele>126.33333333333334</ele><time>2026-03-29T10:42:32.398Z</time></trkpt><trkpt lat="45.5136286" lon="9.9739187"><ele>126.66666666666667</ele><time>2026-03-29T10:42:33.402Z</time></trkpt><trkpt lat="45.5135485" lon="9.974105"><ele>127.0</ele><time>2026-03-29T10:42:34.416Z</time></trkpt><trkpt lat="45.5134672" lon="9.9742876"><ele>126.33333333333334</ele><time>2026-03-29T10:42:35.399Z</time></trkpt><trkpt lat="45.5133788" lon="9.9744706"><ele>125.66666666666666</ele><time>2026-03-29T10:42:36.413Z</time></trkpt><trkpt lat="45.5132929" lon="9.9746464"><ele>125.0</ele><time>2026-03-29T10:42:37.403Z</time></trkpt><trkpt lat="45.5132042" lon="9.9748155"><ele>125.0</ele><time>2026-03-29T10:42:38.4Z</time></trkpt><trkpt lat="45.5131185" lon="9.9749642"><ele>125.0</ele><time>2026-03-29T10:42:39.429Z</time></trkpt><trkpt lat="45.5130531" lon="9.9750712"><ele>125.0</ele><time>2026-03-29T10:42:40.406Z</time></trkpt><trkpt lat="45.5130037" lon="9.9751424"><ele>125.0</ele><time>2026-03-29T10:42:41.404Z</time></trkpt><trkpt lat="45.5129359" lon="9.9751717"><ele>125.0</ele><time>2026-03-29T10:42:43.406Z</time></trkpt><trkpt lat="45.512857" lon="9.9751489"><ele>125.25</ele><time>2026-03-29T10:42:45.405Z</time></trkpt><trkpt lat="45.5127146" lon="9.9750871"><ele>125.5</ele><time>2026-03-29T10:42:47.399Z</time></trkpt><trkpt lat="45.5126231" lon="9.9750433"><ele>125.75</ele><time>2026-03-29T10:42:48.403Z</time></trkpt><trkpt lat="45.512522" lon="9.9749988"><ele>126.0</ele><time>2026-03-29T10:42:49.405Z</time></trkpt><trkpt lat="45.5124127" lon="9.9749486"><ele>126.0</ele><time>2026-03-29T10:42:50.406Z</time></trkpt><trkpt lat="45.5122877" lon="9.9748894"><ele>126.0</ele><time>2026-03-29T10:42:51.405Z</time></trkpt><trkpt lat="45.5121579" lon="9.974827"><ele>126.0</ele><time>2026-03-29T10:42:52.402Z</time></trkpt><trkpt lat="45.5120243" lon="9.974768"><ele>126.0</ele><time>2026-03-29T10:42:53.41Z</time></trkpt><trkpt lat="45.5118869" lon="9.9747121"><ele>126.0</ele><time>2026-03-29T10:42:54.4Z</time></trkpt><trkpt lat="45.511748" lon="9.9746597"><ele>126.0</ele><time>2026-03-29T10:42:55.403Z</time></trkpt><trkpt lat="45.5116209" lon="9.9746113"><ele>126.0</ele><time>2026-03-29T10:42:56.4Z</time></trkpt><trkpt lat="45.5114958" lon="9.9745644"><ele>126.0</ele><time>2026-03-29T10:42:57.424Z</time></trkpt><trkpt lat="45.5113938" lon="9.9745254"><ele>126.0</ele><time>2026-03-29T10:42:58.401Z</time></trkpt><trkpt lat="45.5113108" lon="9.9744904"><ele>126.0</ele><time>2026-03-29T10:42:59.407Z</time></trkpt><trkpt lat="45.5112409" lon="9.974468"><ele>126.0</ele><time>2026-03-29T10:43:00.399Z</time></trkpt><trkpt lat="45.5111532" lon="9.9744535"><ele>126.0</ele><time>2026-03-29T10:43:02.405Z</time></trkpt><trkpt lat="45.5111035" lon="9.9745458"><ele>126.0</ele><time>2026-03-29T10:43:04.439Z</time></trkpt><trkpt lat="45.5110749" lon="9.9747452"><ele>125.8</ele><time>2026-03-29T10:43:06.411Z</time></trkpt><trkpt lat="45.5110564" lon="9.9748777"><ele>125.6</ele><time>2026-03-29T10:43:07.408Z</time></trkpt><trkpt lat="45.5110339" lon="9.9750221"><ele>125.4</ele><time>2026-03-29T10:43:08.424Z</time></trkpt><trkpt lat="45.5110159" lon="9.975164"><ele>125.2</ele><time>2026-03-29T10:43:09.403Z</time></trkpt><trkpt lat="45.5109848" lon="9.9753171"><ele>125.0</ele><time>2026-03-29T10:43:10.421Z</time></trkpt><trkpt lat="45.5109543" lon="9.9754391"><ele>125.33333333333333</ele><time>2026-03-29T10:43:11.404Z</time></trkpt><trkpt lat="45.5109134" lon="9.9755529"><ele>125.66666666666666</ele><time>2026-03-29T10:43:12.418Z</time></trkpt><trkpt lat="45.5108686" lon="9.9756527"><ele>126.0</ele><time>2026-03-29T10:43:13.402Z</time></trkpt><trkpt lat="45.5108173" lon="9.9757605"><ele>126.33333333333334</ele><time>2026-03-29T10:43:14.425Z</time></trkpt><trkpt lat="45.5107692" lon="9.9758587"><ele>126.66666666666667</ele><time>2026-03-29T10:43:15.402Z</time></trkpt><trkpt lat="45.5107214" lon="9.9759641"><ele>127.0</ele><time>2026-03-29T10:43:16.415Z</time></trkpt><trkpt lat="45.5106687" lon="9.9760615"><ele>127.19999999999999</ele><time>2026-03-29T10:43:17.411Z</time></trkpt><trkpt lat="45.5106169" lon="9.9761626"><ele>127.39999999999999</ele><time>2026-03-29T10:43:18.405Z</time></trkpt><trkpt lat="45.5105641" lon="9.9762655"><ele>127.60000000000001</ele><time>2026-03-29T10:43:19.428Z</time></trkpt><trkpt lat="45.5105134" lon="9.9763592"><ele>127.80000000000001</ele><time>2026-03-29T10:43:20.409Z</time></trkpt><trkpt lat="45.5104583" lon="9.9764557"><ele>128.0</ele><time>2026-03-29T10:43:21.402Z</time></trkpt><trkpt lat="45.5103906" lon="9.9765768"><ele>127.4</ele><time>2026-03-29T10:43:22.729Z</time></trkpt><trkpt lat="45.5102918" lon="9.9767575"><ele>126.80000000000001</ele><time>2026-03-29T10:43:24.469Z</time></trkpt><trkpt lat="45.5102516" lon="9.976868"><ele>126.2</ele><time>2026-03-29T10:43:25.456Z</time></trkpt><trkpt lat="45.5102215" lon="9.9769866"><ele>125.6</ele><time>2026-03-29T10:43:26.463Z</time></trkpt><trkpt lat="45.5101922" lon="9.9771067"><ele>125.0</ele><time>2026-03-29T10:43:27.466Z</time></trkpt><trkpt lat="45.5101633" lon="9.977227"><ele>124.99999999999999</ele><time>2026-03-29T10:43:28.477Z</time></trkpt><trkpt lat="45.510145" lon="9.9773474"><ele>125.0</ele><time>2026-03-29T10:43:29.48Z</time></trkpt><trkpt lat="45.5101462" lon="9.9774676"><ele>125.0</ele><time>2026-03-29T10:43:30.474Z</time></trkpt><trkpt lat="45.5101644" lon="9.9775872"><ele>125.0</ele><time>2026-03-29T10:43:31.459Z</time></trkpt><trkpt lat="45.510184" lon="9.9776997"><ele>124.99999999999999</ele><time>2026-03-29T10:43:32.465Z</time></trkpt><trkpt lat="45.510202" lon="9.9778084"><ele>125.0</ele><time>2026-03-29T10:43:33.458Z</time></trkpt><trkpt lat="45.5102256" lon="9.9779207"><ele>125.0</ele><time>2026-03-29T10:43:34.465Z</time></trkpt><trkpt lat="45.5102504" lon="9.9780387"><ele>125.0</ele><time>2026-03-29T10:43:35.465Z</time></trkpt><trkpt lat="45.5102764" lon="9.978162"><ele>125.0</ele><time>2026-03-29T10:43:36.451Z</time></trkpt><trkpt lat="45.510304" lon="9.9782942"><ele>125.0</ele><time>2026-03-29T10:43:37.456Z</time></trkpt><trkpt lat="45.5103327" lon="9.9784326"><ele>125.0</ele><time>2026-03-29T10:43:38.451Z</time></trkpt><trkpt lat="45.510362" lon="9.9785799"><ele>125.0</ele><time>2026-03-29T10:43:39.466Z</time></trkpt><trkpt lat="45.5103937" lon="9.9787307"><ele>125.0</ele><time>2026-03-29T10:43:40.468Z</time></trkpt><trkpt lat="45.5104251" lon="9.9788868"><ele>125.0</ele><time>2026-03-29T10:43:41.472Z</time></trkpt><trkpt lat="45.5104508" lon="9.9790297"><ele>125.0</ele><time>2026-03-29T10:43:42.453Z</time></trkpt><trkpt lat="45.5104738" lon="9.9791633"><ele>125.0</ele><time>2026-03-29T10:43:43.46Z</time></trkpt><trkpt lat="45.5104929" lon="9.9792843"><ele>124.99999999999999</ele><time>2026-03-29T10:43:44.471Z</time></trkpt><trkpt lat="45.5105058" lon="9.9793913"><ele>125.0</ele><time>2026-03-29T10:43:45.459Z</time></trkpt><trkpt lat="45.510512" lon="9.9794862"><ele>125.0</ele><time>2026-03-29T10:43:46.412Z</time></trkpt><trkpt lat="45.5105117" lon="9.9795821"><ele>125.0</ele><time>2026-03-29T10:43:47.409Z</time></trkpt><trkpt lat="45.510507" lon="9.9797108"><ele>124.99999999999999</ele><time>2026-03-29T10:43:49.41Z</time></trkpt><trkpt lat="45.5105545" lon="9.9797877"><ele>125.0</ele><time>2026-03-29T10:43:51.4Z</time></trkpt><trkpt lat="45.5106465" lon="9.9797602"><ele>125.0</ele><time>2026-03-29T10:43:53.403Z</time></trkpt><trkpt lat="45.5107123" lon="9.9797405"><ele>125.0</ele><time>2026-03-29T10:43:54.413Z</time></trkpt><trkpt lat="45.5107911" lon="9.979737"><ele>125.0</ele><time>2026-03-29T10:43:55.413Z</time></trkpt><trkpt lat="45.5108951" lon="9.9797753"><ele>125.0</ele><time>2026-03-29T10:43:56.41Z</time></trkpt><trkpt lat="45.5110018" lon="9.9798215"><ele>125.0</ele><time>2026-03-29T10:43:57.416Z</time></trkpt><trkpt lat="45.5111093" lon="9.9798716"><ele>125.0</ele><time>2026-03-29T10:43:58.407Z</time></trkpt><trkpt lat="45.5112175" lon="9.9799287"><ele>125.0</ele><time>2026-03-29T10:43:59.408Z</time></trkpt><trkpt lat="45.5113236" lon="9.9799886"><ele>125.0</ele><time>2026-03-29T10:44:00.415Z</time></trkpt><trkpt lat="45.5114707" lon="9.9800607"><ele>125.0</ele><time>2026-03-29T10:44:01.745Z</time></trkpt><trkpt lat="45.511635" lon="9.9802033"><ele>125.0</ele><time>2026-03-29T10:44:03.484Z</time></trkpt><trkpt lat="45.5117303" lon="9.980284"><ele>125.0</ele><time>2026-03-29T10:44:04.466Z</time></trkpt><trkpt lat="45.5118347" lon="9.9803493"><ele>125.0</ele><time>2026-03-29T10:44:05.477Z</time></trkpt><trkpt lat="45.5119294" lon="9.9804002"><ele>125.0</ele><time>2026-03-29T10:44:06.473Z</time></trkpt><trkpt lat="45.5120106" lon="9.9804385"><ele>125.0</ele><time>2026-03-29T10:44:07.453Z</time></trkpt><trkpt lat="45.5120789" lon="9.9804745"><ele>124.99999999999999</ele><time>2026-03-29T10:44:08.461Z</time></trkpt><trkpt lat="45.5121808" lon="9.9805274"><ele>125.0</ele><time>2026-03-29T10:44:10.463Z</time></trkpt><trkpt lat="45.5122698" lon="9.9805653"><ele>125.0</ele><time>2026-03-29T10:44:12.47Z</time></trkpt><trkpt lat="45.5123558" lon="9.980589"><ele>125.0</ele><time>2026-03-29T10:44:31.467Z</time></trkpt><trkpt lat="45.512428" lon="9.9806151"><ele>124.99999999999999</ele><time>2026-03-29T10:44:33.469Z</time></trkpt><trkpt lat="45.5124896" lon="9.9806761"><ele>125.0</ele><time>2026-03-29T10:44:35.47Z</time></trkpt><trkpt lat="45.5124955" lon="9.9808388"><ele>125.0</ele><time>2026-03-29T10:44:37.475Z</time></trkpt><trkpt lat="45.5124898" lon="9.980957"><ele>125.0</ele><time>2026-03-29T10:44:38.483Z</time></trkpt><trkpt lat="45.5124838" lon="9.9810794"><ele>125.0</ele><time>2026-03-29T10:44:39.473Z</time></trkpt><trkpt lat="45.5124747" lon="9.9812158"><ele>125.0</ele><time>2026-03-29T10:44:40.453Z</time></trkpt><trkpt lat="45.5124699" lon="9.9813713"><ele>125.0</ele><time>2026-03-29T10:44:41.464Z</time></trkpt><trkpt lat="45.5124647" lon="9.9815381"><ele>125.0</ele><time>2026-03-29T10:44:42.467Z</time></trkpt><trkpt lat="45.5124618" lon="9.9817179"><ele>125.0</ele><time>2026-03-29T10:44:43.473Z</time></trkpt><trkpt lat="45.5124603" lon="9.9818962"><ele>125.0</ele><time>2026-03-29T10:44:44.459Z</time></trkpt><trkpt lat="45.5124605" lon="9.9820877"><ele>125.0</ele><time>2026-03-29T10:44:45.488Z</time></trkpt><trkpt lat="45.5124632" lon="9.9822764"><ele>125.0</ele><time>2026-03-29T10:44:46.46Z</time></trkpt><trkpt lat="45.5124681" lon="9.9824804"><ele>125.0</ele><time>2026-03-29T10:44:47.459Z</time></trkpt><trkpt lat="45.5124724" lon="9.9826913"><ele>125.0</ele><time>2026-03-29T10:44:48.469Z</time></trkpt><trkpt lat="45.5124745" lon="9.9828886"><ele>125.0</ele><time>2026-03-29T10:44:49.475Z</time></trkpt><trkpt lat="45.5124749" lon="9.9830742"><ele>125.0</ele><time>2026-03-29T10:44:50.489Z</time></trkpt><trkpt lat="45.5124757" lon="9.9832413"><ele>125.0</ele><time>2026-03-29T10:44:51.48Z</time></trkpt><trkpt lat="45.5124774" lon="9.9833852"><ele>125.0</ele><time>2026-03-29T10:44:52.458Z</time></trkpt><trkpt lat="45.5124791" lon="9.9835104"><ele>125.0</ele><time>2026-03-29T10:44:53.452Z</time></trkpt><trkpt lat="45.5124818" lon="9.9836228"><ele>125.0</ele><time>2026-03-29T10:44:54.462Z</time></trkpt><trkpt lat="45.5124842" lon="9.9837246"><ele>125.16666666666666</ele><time>2026-03-29T10:44:55.453Z</time></trkpt><trkpt lat="45.5124859" lon="9.9838261"><ele>125.33333333333333</ele><time>2026-03-29T10:44:56.485Z</time></trkpt><trkpt lat="45.5124873" lon="9.9839198"><ele>125.5</ele><time>2026-03-29T10:44:57.472Z</time></trkpt><trkpt lat="45.5124871" lon="9.9840778"><ele>125.66666666666666</ele><time>2026-03-29T10:44:59.481Z</time></trkpt><trkpt lat="45.5124896" lon="9.984193"><ele>125.83333333333333</ele><time>2026-03-29T10:45:01.497Z</time></trkpt><trkpt lat="45.512489" lon="9.9843201"><ele>126.0</ele><time>2026-03-29T10:45:58.407Z</time></trkpt><trkpt lat="45.5124858" lon="9.9844247"><ele>126.0</ele><time>2026-03-29T10:45:59.418Z</time></trkpt><trkpt lat="45.5124897" lon="9.9845642"><ele>126.0</ele><time>2026-03-29T10:46:00.417Z</time></trkpt><trkpt lat="45.5124925" lon="9.9847172"><ele>126.0</ele><time>2026-03-29T10:46:01.427Z</time></trkpt><trkpt lat="45.5125042" lon="9.9848903"><ele>126.0</ele><time>2026-03-29T10:46:02.42Z</time></trkpt><trkpt lat="45.5125126" lon="9.9850806"><ele>126.25</ele><time>2026-03-29T10:46:03.409Z</time></trkpt><trkpt lat="45.5125177" lon="9.985284"><ele>126.5</ele><time>2026-03-29T10:46:04.406Z</time></trkpt><trkpt lat="45.5125205" lon="9.9854978"><ele>126.75</ele><time>2026-03-29T10:46:05.431Z</time></trkpt><trkpt lat="45.5125211" lon="9.9857111"><ele>127.0</ele><time>2026-03-29T10:46:06.417Z</time></trkpt><trkpt lat="45.5125302" lon="9.9859348"><ele>127.0</ele><time>2026-03-29T10:46:07.431Z</time></trkpt><trkpt lat="45.51254" lon="9.9861506"><ele>127.0</ele><time>2026-03-29T10:46:08.398Z</time></trkpt><trkpt lat="45.5125485" lon="9.9863748"><ele>127.0</ele><time>2026-03-29T10:46:09.403Z</time></trkpt><trkpt lat="45.5125541" lon="9.9865975"><ele>126.66666666666667</ele><time>2026-03-29T10:46:10.408Z</time></trkpt><trkpt lat="45.5125632" lon="9.9868208"><ele>126.33333333333334</ele><time>2026-03-29T10:46:11.413Z</time></trkpt><trkpt lat="45.5125789" lon="9.9870399"><ele>126.0</ele><time>2026-03-29T10:46:12.426Z</time></trkpt><trkpt lat="45.5126008" lon="9.9872463"><ele>126.0</ele><time>2026-03-29T10:46:13.405Z</time></trkpt><trkpt lat="45.5126426" lon="9.9874532"><ele>126.0</ele><time>2026-03-29T10:46:14.408Z</time></trkpt><trkpt lat="45.5126957" lon="9.9876534"><ele>126.0</ele><time>2026-03-29T10:46:15.403Z</time></trkpt><trkpt lat="45.5127551" lon="9.9878473"><ele>126.0</ele><time>2026-03-29T10:46:16.421Z</time></trkpt><trkpt lat="45.5128081" lon="9.9880154"><ele>125.83333333333333</ele><time>2026-03-29T10:46:17.414Z</time></trkpt><trkpt lat="45.5128543" lon="9.9881589"><ele>125.66666666666666</ele><time>2026-03-29T10:46:18.404Z</time></trkpt><trkpt lat="45.5128936" lon="9.9882848"><ele>125.5</ele><time>2026-03-29T10:46:19.408Z</time></trkpt><trkpt lat="45.5129192" lon="9.9883921"><ele>125.33333333333333</ele><time>2026-03-29T10:46:20.4Z</time></trkpt><trkpt lat="45.512919" lon="9.9884886"><ele>125.16666666666666</ele><time>2026-03-29T10:46:21.408Z</time></trkpt><trkpt lat="45.5129224" lon="9.9886099"><ele>125.0</ele><time>2026-03-29T10:46:22.413Z</time></trkpt><trkpt lat="45.5129382" lon="9.9887234"><ele>125.0</ele><time>2026-03-29T10:46:23.399Z</time></trkpt><trkpt lat="45.5129783" lon="9.9888289"><ele>125.0</ele><time>2026-03-29T10:46:24.398Z</time></trkpt><trkpt lat="45.5130336" lon="9.9889473"><ele>125.0</ele><time>2026-03-29T10:46:25.407Z</time></trkpt><trkpt lat="45.5130941" lon="9.9890879"><ele>125.0</ele><time>2026-03-29T10:46:26.421Z</time></trkpt><trkpt lat="45.5131353" lon="9.9892592"><ele>125.0</ele><time>2026-03-29T10:46:27.395Z</time></trkpt><trkpt lat="45.5131705" lon="9.9894616"><ele>125.0</ele><time>2026-03-29T10:46:28.42Z</time></trkpt><trkpt lat="45.5131961" lon="9.9896684"><ele>125.0</ele><time>2026-03-29T10:46:29.406Z</time></trkpt><trkpt lat="45.5132113" lon="9.9898902"><ele>125.0</ele><time>2026-03-29T10:46:30.413Z</time></trkpt><trkpt lat="45.5132246" lon="9.9901248"><ele>125.0</ele><time>2026-03-29T10:46:31.418Z</time></trkpt><trkpt lat="45.5132359" lon="9.9903761"><ele>125.0</ele><time>2026-03-29T10:46:32.431Z</time></trkpt><trkpt lat="45.5132476" lon="9.9906414"><ele>125.0</ele><time>2026-03-29T10:46:33.427Z</time></trkpt><trkpt lat="45.5132567" lon="9.9909097"><ele>125.33333333333333</ele><time>2026-03-29T10:46:34.433Z</time></trkpt><trkpt lat="45.5132706" lon="9.9911798"><ele>125.66666666666666</ele><time>2026-03-29T10:46:35.434Z</time></trkpt><trkpt lat="45.5132836" lon="9.9914527"><ele>126.0</ele><time>2026-03-29T10:46:36.413Z</time></trkpt><trkpt lat="45.5132977" lon="9.9917432"><ele>126.33333333333334</ele><time>2026-03-29T10:46:37.435Z</time></trkpt><trkpt lat="45.5133136" lon="9.9920271"><ele>126.66666666666667</ele><time>2026-03-29T10:46:38.411Z</time></trkpt><trkpt lat="45.5133304" lon="9.9923253"><ele>127.0</ele><time>2026-03-29T10:46:39.42Z</time></trkpt><trkpt lat="45.5133443" lon="9.9926221"><ele>127.0</ele><time>2026-03-29T10:46:40.429Z</time></trkpt><trkpt lat="45.513358" lon="9.9929174"><ele>127.0</ele><time>2026-03-29T10:46:41.405Z</time></trkpt><trkpt lat="45.5133729" lon="9.9932234"><ele>127.0</ele><time>2026-03-29T10:46:42.41Z</time></trkpt><trkpt lat="45.5133913" lon="9.9935342"><ele>126.66666666666667</ele><time>2026-03-29T10:46:43.406Z</time></trkpt><trkpt lat="45.5134116" lon="9.9938473"><ele>126.33333333333334</ele><time>2026-03-29T10:46:44.415Z</time></trkpt><trkpt lat="45.5134304" lon="9.994157"><ele>126.0</ele><time>2026-03-29T10:46:45.42Z</time></trkpt><trkpt lat="45.5134462" lon="9.9944757"><ele>126.0</ele><time>2026-03-29T10:46:46.452Z</time></trkpt><trkpt lat="45.5134626" lon="9.9947664"><ele>126.0</ele><time>2026-03-29T10:46:47.407Z</time></trkpt><trkpt lat="45.5134786" lon="9.9950652"><ele>126.0</ele><time>2026-03-29T10:46:48.405Z</time></trkpt><trkpt lat="45.5134968" lon="9.99537"><ele>126.0</ele><time>2026-03-29T10:46:49.42Z</time></trkpt><trkpt lat="45.513511" lon="9.9956653"><ele>126.0</ele><time>2026-03-29T10:46:50.428Z</time></trkpt><trkpt lat="45.5135227" lon="9.9959544"><ele>126.0</ele><time>2026-03-29T10:46:51.423Z</time></trkpt><trkpt lat="45.5135362" lon="9.9962403"><ele>126.0</ele><time>2026-03-29T10:46:52.405Z</time></trkpt><trkpt lat="45.5135496" lon="9.996535"><ele>126.0</ele><time>2026-03-29T10:46:53.424Z</time></trkpt><trkpt lat="45.5135651" lon="9.9968172"><ele>126.0</ele><time>2026-03-29T10:46:54.409Z</time></trkpt><trkpt lat="45.5135817" lon="9.9970959"><ele>126.0</ele><time>2026-03-29T10:46:55.397Z</time></trkpt><trkpt lat="45.5135991" lon="9.9973805"><ele>126.0</ele><time>2026-03-29T10:46:56.406Z</time></trkpt><trkpt lat="45.5136137" lon="9.9976714"><ele>126.0</ele><time>2026-03-29T10:46:57.426Z</time></trkpt><trkpt lat="45.5136286" lon="9.9979595"><ele>126.33333333333334</ele><time>2026-03-29T10:46:58.427Z</time></trkpt><trkpt lat="45.5136425" lon="9.9982411"><ele>126.66666666666667</ele><time>2026-03-29T10:46:59.435Z</time></trkpt><trkpt lat="45.5136549" lon="9.9985028"><ele>127.0</ele><time>2026-03-29T10:47:00.406Z</time></trkpt><trkpt lat="45.5136713" lon="9.9987514"><ele>126.66666666666667</ele><time>2026-03-29T10:47:01.402Z</time></trkpt><trkpt lat="45.513684" lon="9.9989838"><ele>126.33333333333334</ele><time>2026-03-29T10:47:02.407Z</time></trkpt><trkpt lat="45.5137016" lon="9.9992003"><ele>126.0</ele><time>2026-03-29T10:47:03.401Z</time></trkpt><trkpt lat="45.5137291" lon="9.9993998"><ele>126.0</ele><time>2026-03-29T10:47:04.407Z</time></trkpt><trkpt lat="45.5137695" lon="9.9995765"><ele>126.0</ele><time>2026-03-29T10:47:05.417Z</time></trkpt><trkpt lat="45.5138119" lon="9.9997228"><ele>126.0</ele><time>2026-03-29T10:47:06.408Z</time></trkpt><trkpt lat="45.5138493" lon="9.9998539"><ele>126.0</ele><time>2026-03-29T10:47:07.413Z</time></trkpt><trkpt lat="45.5138741" lon="9.9999776"><ele>126.0</ele><time>2026-03-29T10:47:08.403Z</time></trkpt><trkpt lat="45.513904" lon="10.0001055"><ele>126.0</ele><time>2026-03-29T10:47:09.417Z</time></trkpt><trkpt lat="45.5139504" lon="10.0002089"><ele>126.0</ele><time>2026-03-29T10:47:10.405Z</time></trkpt><trkpt lat="45.5140098" lon="10.0002875"><ele>126.0</ele><time>2026-03-29T10:47:11.411Z</time></trkpt><trkpt lat="45.5140839" lon="10.0003332"><ele>126.0</ele><time>2026-03-29T10:47:12.416Z</time></trkpt><trkpt lat="45.5141799" lon="10.0003579"><ele>126.0</ele><time>2026-03-29T10:47:13.408Z</time></trkpt><trkpt lat="45.5142885" lon="10.0003976"><ele>126.0</ele><time>2026-03-29T10:47:14.419Z</time></trkpt><trkpt lat="45.5144103" lon="10.000474"><ele>126.0</ele><time>2026-03-29T10:47:15.409Z</time></trkpt><trkpt lat="45.514548" lon="10.0005841"><ele>126.0</ele><time>2026-03-29T10:47:16.41Z</time></trkpt><trkpt lat="45.5146735" lon="10.0007149"><ele>126.0</ele><time>2026-03-29T10:47:17.402Z</time></trkpt><trkpt lat="45.5148115" lon="10.0008443"><ele>126.66666666666666</ele><time>2026-03-29T10:47:18.397Z</time></trkpt><trkpt lat="45.5149667" lon="10.0009515"><ele>127.33333333333333</ele><time>2026-03-29T10:47:19.414Z</time></trkpt><trkpt lat="45.5151301" lon="10.0010514"><ele>128.0</ele><time>2026-03-29T10:47:20.405Z</time></trkpt><trkpt lat="45.5153029" lon="10.0011456"><ele>128.33333333333331</ele><time>2026-03-29T10:47:21.418Z</time></trkpt><trkpt lat="45.5154732" lon="10.0012477"><ele>128.66666666666666</ele><time>2026-03-29T10:47:22.41Z</time></trkpt><trkpt lat="45.5156496" lon="10.0013474"><ele>129.0</ele><time>2026-03-29T10:47:23.398Z</time></trkpt><trkpt lat="45.5158336" lon="10.0014471"><ele>129.0</ele><time>2026-03-29T10:47:24.408Z</time></trkpt><trkpt lat="45.5160206" lon="10.0015492"><ele>129.0</ele><time>2026-03-29T10:47:25.412Z</time></trkpt><trkpt lat="45.5162006" lon="10.0016532"><ele>129.0</ele><time>2026-03-29T10:47:26.415Z</time></trkpt><trkpt lat="45.5163637" lon="10.0017454"><ele>128.75</ele><time>2026-03-29T10:47:27.414Z</time></trkpt><trkpt lat="45.5165183" lon="10.0018172"><ele>128.5</ele><time>2026-03-29T10:47:28.41Z</time></trkpt><trkpt lat="45.5166619" lon="10.0018745"><ele>128.25</ele><time>2026-03-29T10:47:29.415Z</time></trkpt><trkpt lat="45.5167923" lon="10.0019215"><ele>128.0</ele><time>2026-03-29T10:47:30.402Z</time></trkpt><trkpt lat="45.5169077" lon="10.0019833"><ele>128.0</ele><time>2026-03-29T10:47:31.427Z</time></trkpt><trkpt lat="45.5170044" lon="10.0020666"><ele>128.0</ele><time>2026-03-29T10:47:32.408Z</time></trkpt><trkpt lat="45.5170876" lon="10.0021713"><ele>128.0</ele><time>2026-03-29T10:47:33.402Z</time></trkpt><trkpt lat="45.5171756" lon="10.0022987"><ele>128.0</ele><time>2026-03-29T10:47:34.402Z</time></trkpt><trkpt lat="45.5172575" lon="10.0024523"><ele>128.25</ele><time>2026-03-29T10:47:35.421Z</time></trkpt><trkpt lat="45.5173265" lon="10.002622"><ele>128.5</ele><time>2026-03-29T10:47:36.415Z</time></trkpt><trkpt lat="45.5173823" lon="10.0028153"><ele>128.75</ele><time>2026-03-29T10:47:37.429Z</time></trkpt><trkpt lat="45.5174116" lon="10.0030164"><ele>129.0</ele><time>2026-03-29T10:47:38.416Z</time></trkpt><trkpt lat="45.5174247" lon="10.0032416"><ele>129.33333333333334</ele><time>2026-03-29T10:47:39.416Z</time></trkpt><trkpt lat="45.517423" lon="10.0034879"><ele>129.66666666666669</ele><time>2026-03-29T10:47:40.415Z</time></trkpt><trkpt lat="45.5174161" lon="10.0037456"><ele>130.0</ele><time>2026-03-29T10:47:41.416Z</time></trkpt><trkpt lat="45.5174055" lon="10.0040083"><ele>129.66666666666669</ele><time>2026-03-29T10:47:42.412Z</time></trkpt><trkpt lat="45.5173951" lon="10.0042834"><ele>129.33333333333334</ele><time>2026-03-29T10:47:43.439Z</time></trkpt><trkpt lat="45.5173856" lon="10.0045522"><ele>129.0</ele><time>2026-03-29T10:47:44.416Z</time></trkpt><trkpt lat="45.517373" lon="10.0048346"><ele>129.0</ele><time>2026-03-29T10:47:45.42Z</time></trkpt><trkpt lat="45.5173597" lon="10.005116"><ele>129.0</ele><time>2026-03-29T10:47:46.416Z</time></trkpt><trkpt lat="45.5173455" lon="10.0053963"><ele>129.0</ele><time>2026-03-29T10:47:47.41Z</time></trkpt><trkpt lat="45.5173255" lon="10.0056815"><ele>129.0</ele><time>2026-03-29T10:47:48.433Z</time></trkpt><trkpt lat="45.5173091" lon="10.0059489"><ele>129.0</ele><time>2026-03-29T10:47:49.403Z</time></trkpt><trkpt lat="45.5172947" lon="10.0062269"><ele>129.0</ele><time>2026-03-29T10:47:50.429Z</time></trkpt><trkpt lat="45.5172827" lon="10.0064779"><ele>129.0</ele><time>2026-03-29T10:47:51.402Z</time></trkpt><trkpt lat="45.5172734" lon="10.006714"><ele>129.0</ele><time>2026-03-29T10:47:52.416Z</time></trkpt><trkpt lat="45.5172648" lon="10.006917"><ele>129.0</ele><time>2026-03-29T10:47:53.412Z</time></trkpt><trkpt lat="45.5172571" lon="10.0070979"><ele>129.0</ele><time>2026-03-29T10:47:54.427Z</time></trkpt><trkpt lat="45.5172484" lon="10.0072447"><ele>129.0</ele><time>2026-03-29T10:47:55.413Z</time></trkpt><trkpt lat="45.5172369" lon="10.0073737"><ele>129.0</ele><time>2026-03-29T10:47:56.413Z</time></trkpt><trkpt lat="45.5172215" lon="10.0074876"><ele>129.0</ele><time>2026-03-29T10:47:57.409Z</time></trkpt><trkpt lat="45.5172012" lon="10.0075839"><ele>129.0</ele><time>2026-03-29T10:47:58.409Z</time></trkpt><trkpt lat="45.5171677" lon="10.0076814"><ele>129.0</ele><time>2026-03-29T10:47:59.416Z</time></trkpt><trkpt lat="45.5171151" lon="10.0077816"><ele>129.0</ele><time>2026-03-29T10:48:00.413Z</time></trkpt><trkpt lat="45.5170503" lon="10.007872"><ele>129.2</ele><time>2026-03-29T10:48:01.406Z</time></trkpt><trkpt lat="45.5169745" lon="10.0079278"><ele>129.4</ele><time>2026-03-29T10:48:02.4Z</time></trkpt><trkpt lat="45.5168806" lon="10.0079567"><ele>129.6</ele><time>2026-03-29T10:48:03.411Z</time></trkpt><trkpt lat="45.5167748" lon="10.0079579"><ele>129.8</ele><time>2026-03-29T10:48:04.402Z</time></trkpt><trkpt lat="45.5166507" lon="10.0079458"><ele>130.0</ele><time>2026-03-29T10:48:05.424Z</time></trkpt><trkpt lat="45.5165187" lon="10.0079479"><ele>130.0</ele><time>2026-03-29T10:48:06.421Z</time></trkpt><trkpt lat="45.5163816" lon="10.0079635"><ele>130.0</ele><time>2026-03-29T10:48:07.42Z</time></trkpt><trkpt lat="45.5162326" lon="10.0079972"><ele>130.0</ele><time>2026-03-29T10:48:08.405Z</time></trkpt><trkpt lat="45.5160735" lon="10.008055"><ele>130.0</ele><time>2026-03-29T10:48:09.419Z</time></trkpt><trkpt lat="45.5159146" lon="10.0081359"><ele>130.0</ele><time>2026-03-29T10:48:10.409Z</time></trkpt><trkpt lat="45.5157535" lon="10.0082333"><ele>130.0</ele><time>2026-03-29T10:48:11.414Z</time></trkpt><trkpt lat="45.5156043" lon="10.0083451"><ele>129.66666666666669</ele><time>2026-03-29T10:48:12.418Z</time></trkpt><trkpt lat="45.5154712" lon="10.0084711"><ele>129.33333333333334</ele><time>2026-03-29T10:48:13.416Z</time></trkpt><trkpt lat="45.5153515" lon="10.0086103"><ele>129.0</ele><time>2026-03-29T10:48:14.411Z</time></trkpt><trkpt lat="45.5152377" lon="10.008768"><ele>128.66666666666666</ele><time>2026-03-29T10:48:15.412Z</time></trkpt><trkpt lat="45.5151353" lon="10.0089458"><ele>128.33333333333331</ele><time>2026-03-29T10:48:16.408Z</time></trkpt><trkpt lat="45.515041" lon="10.0091425"><ele>128.0</ele><time>2026-03-29T10:48:17.413Z</time></trkpt><trkpt lat="45.5149582" lon="10.0093502"><ele>127.66666666666666</ele><time>2026-03-29T10:48:18.411Z</time></trkpt><trkpt lat="45.5148899" lon="10.0095607"><ele>127.33333333333334</ele><time>2026-03-29T10:48:19.409Z</time></trkpt><trkpt lat="45.5148387" lon="10.0097699"><ele>127.0</ele><time>2026-03-29T10:48:20.415Z</time></trkpt><trkpt lat="45.514794" lon="10.0099512"><ele>127.0</ele><time>2026-03-29T10:48:21.418Z</time></trkpt><trkpt lat="45.5147491" lon="10.0101027"><ele>126.99999999999999</ele><time>2026-03-29T10:48:22.421Z</time></trkpt><trkpt lat="45.5146997" lon="10.0102208"><ele>126.99999999999999</ele><time>2026-03-29T10:48:23.404Z</time></trkpt><trkpt lat="45.5146478" lon="10.0103212"><ele>127.0</ele><time>2026-03-29T10:48:24.408Z</time></trkpt><trkpt lat="45.5145893" lon="10.0104095"><ele>127.0</ele><time>2026-03-29T10:48:25.421Z</time></trkpt><trkpt lat="45.5145316" lon="10.0104761"><ele>127.00000000000001</ele><time>2026-03-29T10:48:26.403Z</time></trkpt><trkpt lat="45.5144756" lon="10.010546"><ele>127.0</ele><time>2026-03-29T10:48:27.409Z</time></trkpt><trkpt lat="45.5144502" lon="10.0106341"><ele>127.0</ele><time>2026-03-29T10:48:28.406Z</time></trkpt><trkpt lat="45.514457" lon="10.0107295"><ele>127.0</ele><time>2026-03-29T10:48:29.422Z</time></trkpt><trkpt lat="45.5144953" lon="10.0108298"><ele>127.00000000000001</ele><time>2026-03-29T10:48:30.417Z</time></trkpt><trkpt lat="45.5145608" lon="10.0109157"><ele>127.0</ele><time>2026-03-29T10:48:31.439Z</time></trkpt><trkpt lat="45.5146322" lon="10.0110166"><ele>127.25</ele><time>2026-03-29T10:48:32.415Z</time></trkpt><trkpt lat="45.5146967" lon="10.0111448"><ele>127.5</ele><time>2026-03-29T10:48:33.418Z</time></trkpt><trkpt lat="45.5147393" lon="10.01131"><ele>127.75</ele><time>2026-03-29T10:48:34.419Z</time></trkpt><trkpt lat="45.5147734" lon="10.0114952"><ele>128.0</ele><time>2026-03-29T10:48:35.42Z</time></trkpt><trkpt lat="45.5148127" lon="10.0116875"><ele>128.0</ele><time>2026-03-29T10:48:36.403Z</time></trkpt><trkpt lat="45.514866" lon="10.0118855"><ele>128.0</ele><time>2026-03-29T10:48:37.417Z</time></trkpt><trkpt lat="45.5149348" lon="10.0120885"><ele>128.0</ele><time>2026-03-29T10:48:38.415Z</time></trkpt><trkpt lat="45.5150199" lon="10.0122937"><ele>127.66666666666666</ele><time>2026-03-29T10:48:39.421Z</time></trkpt><trkpt lat="45.5151173" lon="10.0124957"><ele>127.33333333333334</ele><time>2026-03-29T10:48:40.419Z</time></trkpt><trkpt lat="45.5152318" lon="10.0126851"><ele>127.0</ele><time>2026-03-29T10:48:41.411Z</time></trkpt><trkpt lat="45.5153646" lon="10.0128662"><ele>127.33333333333334</ele><time>2026-03-29T10:48:42.409Z</time></trkpt><trkpt lat="45.5155081" lon="10.013028"><ele>127.66666666666666</ele><time>2026-03-29T10:48:43.408Z</time></trkpt><trkpt lat="45.5156611" lon="10.0131656"><ele>128.0</ele><time>2026-03-29T10:48:44.405Z</time></trkpt><trkpt lat="45.5158304" lon="10.0132783"><ele>127.66666666666666</ele><time>2026-03-29T10:48:45.421Z</time></trkpt><trkpt lat="45.5160008" lon="10.0133636"><ele>127.33333333333334</ele><time>2026-03-29T10:48:46.419Z</time></trkpt><trkpt lat="45.5161652" lon="10.0134254"><ele>127.0</ele><time>2026-03-29T10:48:47.412Z</time></trkpt><trkpt lat="45.5163121" lon="10.0134664"><ele>126.8</ele><time>2026-03-29T10:48:48.407Z</time></trkpt><trkpt lat="45.5164399" lon="10.0134936"><ele>126.6</ele><time>2026-03-29T10:48:49.413Z</time></trkpt><trkpt lat="45.5165465" lon="10.0135212"><ele>126.39999999999999</ele><time>2026-03-29T10:48:50.399Z</time></trkpt><trkpt lat="45.5166455" lon="10.0135543"><ele>126.19999999999999</ele><time>2026-03-29T10:48:51.436Z</time></trkpt><trkpt lat="45.5167259" lon="10.0135896"><ele>126.0</ele><time>2026-03-29T10:48:52.416Z</time></trkpt><trkpt lat="45.5167947" lon="10.0136379"><ele>126.0</ele><time>2026-03-29T10:48:53.405Z</time></trkpt><trkpt lat="45.516858" lon="10.0137131"><ele>126.0</ele><time>2026-03-29T10:48:54.42Z</time></trkpt><trkpt lat="45.5169021" lon="10.0138152"><ele>126.0</ele><time>2026-03-29T10:48:55.405Z</time></trkpt><trkpt lat="45.516927" lon="10.0139543"><ele>126.0</ele><time>2026-03-29T10:48:56.413Z</time></trkpt><trkpt lat="45.5169359" lon="10.0141247"><ele>126.0</ele><time>2026-03-29T10:48:57.426Z</time></trkpt><trkpt lat="45.5169322" lon="10.0143229"><ele>126.66666666666666</ele><time>2026-03-29T10:48:58.429Z</time></trkpt><trkpt lat="45.516926" lon="10.0145285"><ele>127.33333333333333</ele><time>2026-03-29T10:48:59.409Z</time></trkpt><trkpt lat="45.5169189" lon="10.0147557"><ele>128.0</ele><time>2026-03-29T10:49:00.419Z</time></trkpt><trkpt lat="45.5169097" lon="10.0149966"><ele>128.33333333333331</ele><time>2026-03-29T10:49:01.418Z</time></trkpt><trkpt lat="45.5168996" lon="10.0152575"><ele>128.66666666666666</ele><time>2026-03-29T10:49:02.431Z</time></trkpt><trkpt lat="45.5168864" lon="10.0155265"><ele>129.0</ele><time>2026-03-29T10:49:03.412Z</time></trkpt><trkpt lat="45.5168735" lon="10.0158126"><ele>129.0</ele><time>2026-03-29T10:49:04.427Z</time></trkpt><trkpt lat="45.516857" lon="10.0161022"><ele>129.0</ele><time>2026-03-29T10:49:05.429Z</time></trkpt><trkpt lat="45.5168399" lon="10.0163974"><ele>129.0</ele><time>2026-03-29T10:49:06.416Z</time></trkpt><trkpt lat="45.5168234" lon="10.0167072"><ele>129.0</ele><time>2026-03-29T10:49:07.405Z</time></trkpt><trkpt lat="45.516806" lon="10.0170324"><ele>129.0</ele><time>2026-03-29T10:49:08.418Z</time></trkpt><trkpt lat="45.5167903" lon="10.0173555"><ele>128.5</ele><time>2026-03-29T10:49:09.417Z</time></trkpt><trkpt lat="45.5167741" lon="10.0176914"><ele>128.0</ele><time>2026-03-29T10:49:10.438Z</time></trkpt><trkpt lat="45.5167569" lon="10.0180105"><ele>128.5</ele><time>2026-03-29T10:49:11.408Z</time></trkpt><trkpt lat="45.5167405" lon="10.0183443"><ele>129.0</ele><time>2026-03-29T10:49:12.419Z</time></trkpt><trkpt lat="45.5167248" lon="10.0186667"><ele>129.0</ele><time>2026-03-29T10:49:13.403Z</time></trkpt><trkpt lat="45.51671" lon="10.0190043"><ele>129.0</ele><time>2026-03-29T10:49:14.429Z</time></trkpt><trkpt lat="45.5166934" lon="10.0193373"><ele>129.0</ele><time>2026-03-29T10:49:15.421Z</time></trkpt><trkpt lat="45.5166757" lon="10.0196731"><ele>129.0</ele><time>2026-03-29T10:49:16.409Z</time></trkpt><trkpt lat="45.5166574" lon="10.0200181"><ele>129.0</ele><time>2026-03-29T10:49:17.417Z</time></trkpt><trkpt lat="45.5166401" lon="10.0203576"><ele>129.0</ele><time>2026-03-29T10:49:18.414Z</time></trkpt><trkpt lat="45.516622" lon="10.0207122"><ele>129.0</ele><time>2026-03-29T10:49:19.452Z</time></trkpt><trkpt lat="45.5166065" lon="10.0210419"><ele>129.0</ele><time>2026-03-29T10:49:20.417Z</time></trkpt><trkpt lat="45.5165905" lon="10.0213836"><ele>129.0</ele><time>2026-03-29T10:49:21.409Z</time></trkpt><trkpt lat="45.5165735" lon="10.0217319"><ele>129.0</ele><time>2026-03-29T10:49:22.419Z</time></trkpt><trkpt lat="45.5165571" lon="10.0220745"><ele>129.0</ele><time>2026-03-29T10:49:23.414Z</time></trkpt><trkpt lat="45.5165403" lon="10.0224175"><ele>129.0</ele><time>2026-03-29T10:49:24.414Z</time></trkpt><trkpt lat="45.5165245" lon="10.0227626"><ele>129.0</ele><time>2026-03-29T10:49:25.412Z</time></trkpt><trkpt lat="45.516508" lon="10.0231189"><ele>129.0</ele><time>2026-03-29T10:49:26.428Z</time></trkpt><trkpt lat="45.5164903" lon="10.0234717"><ele>129.0</ele><time>2026-03-29T10:49:27.431Z</time></trkpt><trkpt lat="45.5164711" lon="10.0238253"><ele>129.0</ele><time>2026-03-29T10:49:28.439Z</time></trkpt><trkpt lat="45.5164546" lon="10.0241514"><ele>129.33333333333334</ele><time>2026-03-29T10:49:29.42Z</time></trkpt><trkpt lat="45.5164414" lon="10.0244652"><ele>129.66666666666669</ele><time>2026-03-29T10:49:30.417Z</time></trkpt><trkpt lat="45.5164286" lon="10.024753"><ele>130.0</ele><time>2026-03-29T10:49:31.415Z</time></trkpt><trkpt lat="45.5164165" lon="10.0250171"><ele>130.0</ele><time>2026-03-29T10:49:32.414Z</time></trkpt><trkpt lat="45.5164029" lon="10.0252614"><ele>130.0</ele><time>2026-03-29T10:49:33.423Z</time></trkpt><trkpt lat="45.5163896" lon="10.0254813"><ele>130.0</ele><time>2026-03-29T10:49:34.418Z</time></trkpt><trkpt lat="45.5163746" lon="10.0256857"><ele>129.75</ele><time>2026-03-29T10:49:35.41Z</time></trkpt><trkpt lat="45.5163561" lon="10.02588"><ele>129.5</ele><time>2026-03-29T10:49:36.407Z</time></trkpt><trkpt lat="45.5163336" lon="10.0260594"><ele>129.25</ele><time>2026-03-29T10:49:37.423Z</time></trkpt><trkpt lat="45.5163036" lon="10.0262131"><ele>129.0</ele><time>2026-03-29T10:49:38.41Z</time></trkpt><trkpt lat="45.5162691" lon="10.0263482"><ele>128.83333333333334</ele><time>2026-03-29T10:49:39.416Z</time></trkpt><trkpt lat="45.5162281" lon="10.0264625"><ele>128.66666666666666</ele><time>2026-03-29T10:49:40.413Z</time></trkpt><trkpt lat="45.5161746" lon="10.0265522"><ele>128.5</ele><time>2026-03-29T10:49:41.405Z</time></trkpt><trkpt lat="45.51611" lon="10.0266251"><ele>128.33333333333331</ele><time>2026-03-29T10:49:42.421Z</time></trkpt><trkpt lat="45.5160487" lon="10.0266885"><ele>128.16666666666666</ele><time>2026-03-29T10:49:43.424Z</time></trkpt><trkpt lat="45.5159999" lon="10.0267633"><ele>128.0</ele><time>2026-03-29T10:49:44.42Z</time></trkpt><trkpt lat="45.5159795" lon="10.0268499"><ele>128.0</ele><time>2026-03-29T10:49:45.408Z</time></trkpt><trkpt lat="45.5160024" lon="10.0269451"><ele>128.0</ele><time>2026-03-29T10:49:46.411Z</time></trkpt><trkpt lat="45.5160481" lon="10.0270551"><ele>128.0</ele><time>2026-03-29T10:49:47.406Z</time></trkpt><trkpt lat="45.5161165" lon="10.0271807"><ele>128.0</ele><time>2026-03-29T10:49:48.413Z</time></trkpt><trkpt lat="45.5161797" lon="10.0273253"><ele>128.0</ele><time>2026-03-29T10:49:49.406Z</time></trkpt><trkpt lat="45.5162374" lon="10.0275054"><ele>128.0</ele><time>2026-03-29T10:49:50.415Z</time></trkpt><trkpt lat="45.5162753" lon="10.0277141"><ele>128.0</ele><time>2026-03-29T10:49:51.435Z</time></trkpt><trkpt lat="45.5162941" lon="10.0279302"><ele>128.0</ele><time>2026-03-29T10:49:52.424Z</time></trkpt><trkpt lat="45.5162877" lon="10.0281722"><ele>128.33333333333331</ele><time>2026-03-29T10:49:53.443Z</time></trkpt><trkpt lat="45.5162645" lon="10.0284197"><ele>128.66666666666666</ele><time>2026-03-29T10:49:54.44Z</time></trkpt><trkpt lat="45.5162453" lon="10.0286774"><ele>129.0</ele><time>2026-03-29T10:49:55.419Z</time></trkpt><trkpt lat="45.5162276" lon="10.0289552"><ele>129.33333333333334</ele><time>2026-03-29T10:49:56.419Z</time></trkpt><trkpt lat="45.5162113" lon="10.0292403"><ele>129.66666666666669</ele><time>2026-03-29T10:49:57.413Z</time></trkpt><trkpt lat="45.5161952" lon="10.0295411"><ele>130.0</ele><time>2026-03-29T10:49:58.434Z</time></trkpt><trkpt lat="45.5161821" lon="10.0298367"><ele>129.66666666666669</ele><time>2026-03-29T10:49:59.419Z</time></trkpt><trkpt lat="45.5161696" lon="10.0301509"><ele>129.33333333333334</ele><time>2026-03-29T10:50:00.423Z</time></trkpt><trkpt lat="45.5161562" lon="10.0304679"><ele>129.0</ele><time>2026-03-29T10:50:01.412Z</time></trkpt><trkpt lat="45.5161427" lon="10.0307914"><ele>128.0</ele><time>2026-03-29T10:50:02.427Z</time></trkpt><trkpt lat="45.5161251" lon="10.0311135"><ele>127.0</ele><time>2026-03-29T10:50:03.419Z</time></trkpt><trkpt lat="45.5161086" lon="10.0314456"><ele>127.0</ele><time>2026-03-29T10:50:04.436Z</time></trkpt><trkpt lat="45.5160917" lon="10.0317607"><ele>127.0</ele><time>2026-03-29T10:50:05.407Z</time></trkpt><trkpt lat="45.5160754" lon="10.0320919"><ele>127.0</ele><time>2026-03-29T10:50:06.408Z</time></trkpt><trkpt lat="45.5160595" lon="10.0324277"><ele>127.0</ele><time>2026-03-29T10:50:07.426Z</time></trkpt><trkpt lat="45.5160423" lon="10.032758"><ele>127.0</ele><time>2026-03-29T10:50:08.424Z</time></trkpt><trkpt lat="45.5160272" lon="10.0330833"><ele>127.0</ele><time>2026-03-29T10:50:09.406Z</time></trkpt><trkpt lat="45.5160112" lon="10.0334196"><ele>127.0</ele><time>2026-03-29T10:50:10.418Z</time></trkpt><trkpt lat="45.5159949" lon="10.0337495"><ele>127.0</ele><time>2026-03-29T10:50:11.422Z</time></trkpt><trkpt lat="45.5159806" lon="10.0340732"><ele>127.0</ele><time>2026-03-29T10:50:12.407Z</time></trkpt><trkpt lat="45.5159634" lon="10.0344112"><ele>127.0</ele><time>2026-03-29T10:50:13.425Z</time></trkpt><trkpt lat="45.5159426" lon="10.0347441"><ele>126.5</ele><time>2026-03-29T10:50:14.428Z</time></trkpt><trkpt lat="45.515926" lon="10.0350669"><ele>126.0</ele><time>2026-03-29T10:50:15.407Z</time></trkpt><trkpt lat="45.5159122" lon="10.0353981"><ele>126.0</ele><time>2026-03-29T10:50:16.415Z</time></trkpt><trkpt lat="45.5158956" lon="10.0357294"><ele>126.0</ele><time>2026-03-29T10:50:17.431Z</time></trkpt><trkpt lat="45.5158808" lon="10.036051"><ele>126.5</ele><time>2026-03-29T10:50:18.427Z</time></trkpt><trkpt lat="45.5158656" lon="10.0363771"><ele>127.0</ele><time>2026-03-29T10:50:19.421Z</time></trkpt><trkpt lat="45.5158499" lon="10.0366976"><ele>127.0</ele><time>2026-03-29T10:50:20.418Z</time></trkpt><trkpt lat="45.5158342" lon="10.0370164"><ele>127.0</ele><time>2026-03-29T10:50:21.415Z</time></trkpt><trkpt lat="45.5158147" lon="10.0373388"><ele>127.0</ele><time>2026-03-29T10:50:22.428Z</time></trkpt><trkpt lat="45.5157966" lon="10.0376444"><ele>127.0</ele><time>2026-03-29T10:50:23.402Z</time></trkpt><trkpt lat="45.5157799" lon="10.0379642"><ele>127.0</ele><time>2026-03-29T10:50:24.422Z</time></trkpt><trkpt lat="45.5157694" lon="10.0382712"><ele>126.66666666666667</ele><time>2026-03-29T10:50:25.408Z</time></trkpt><trkpt lat="45.5157571" lon="10.0385693"><ele>126.33333333333334</ele><time>2026-03-29T10:50:26.409Z</time></trkpt><trkpt lat="45.5157458" lon="10.0388428"><ele>126.0</ele><time>2026-03-29T10:50:27.415Z</time></trkpt><trkpt lat="45.5157373" lon="10.0390791"><ele>126.0</ele><time>2026-03-29T10:50:28.398Z</time></trkpt><trkpt lat="45.5157288" lon="10.0392938"><ele>126.0</ele><time>2026-03-29T10:50:29.421Z</time></trkpt><trkpt lat="45.515727" lon="10.0394759"><ele>126.0</ele><time>2026-03-29T10:50:30.423Z</time></trkpt><trkpt lat="45.5157272" lon="10.0396362"><ele>126.0</ele><time>2026-03-29T10:50:31.41Z</time></trkpt><trkpt lat="45.5157294" lon="10.0397774"><ele>126.0</ele><time>2026-03-29T10:50:32.417Z</time></trkpt><trkpt lat="45.5157309" lon="10.0399026"><ele>126.0</ele><time>2026-03-29T10:50:33.418Z</time></trkpt><trkpt lat="45.5157311" lon="10.0400087"><ele>126.0</ele><time>2026-03-29T10:50:34.404Z</time></trkpt><trkpt lat="45.5157222" lon="10.0401033"><ele>126.0</ele><time>2026-03-29T10:50:35.425Z</time></trkpt><trkpt lat="45.515698" lon="10.0401951"><ele>126.0</ele><time>2026-03-29T10:50:36.412Z</time></trkpt><trkpt lat="45.515654" lon="10.0402916"><ele>126.0</ele><time>2026-03-29T10:50:37.425Z</time></trkpt><trkpt lat="45.5156165" lon="10.0404046"><ele>126.0</ele><time>2026-03-29T10:50:38.402Z</time></trkpt><trkpt lat="45.5155975" lon="10.0405504"><ele>126.0</ele><time>2026-03-29T10:50:39.415Z</time></trkpt><trkpt lat="45.5156074" lon="10.0407187"><ele>126.0</ele><time>2026-03-29T10:50:40.414Z</time></trkpt><trkpt lat="45.5156191" lon="10.0409038"><ele>126.0</ele><time>2026-03-29T10:50:41.418Z</time></trkpt><trkpt lat="45.51562" lon="10.0411161"><ele>126.0</ele><time>2026-03-29T10:50:42.416Z</time></trkpt><trkpt lat="45.515593" lon="10.0413464"><ele>126.0</ele><time>2026-03-29T10:50:43.432Z</time></trkpt><trkpt lat="45.5155643" lon="10.0415884"><ele>126.0</ele><time>2026-03-29T10:50:44.451Z</time></trkpt><trkpt lat="45.5155393" lon="10.0418316"><ele>126.33333333333334</ele><time>2026-03-29T10:50:45.426Z</time></trkpt><trkpt lat="45.5155184" lon="10.0420919"><ele>126.66666666666667</ele><time>2026-03-29T10:50:46.432Z</time></trkpt><trkpt lat="45.5154993" lon="10.0423582"><ele>127.0</ele><time>2026-03-29T10:50:47.424Z</time></trkpt><trkpt lat="45.5154817" lon="10.0426189"><ele>127.0</ele><time>2026-03-29T10:50:48.409Z</time></trkpt><trkpt lat="45.5154664" lon="10.0428827"><ele>127.0</ele><time>2026-03-29T10:50:49.408Z</time></trkpt><trkpt lat="45.5154519" lon="10.0431543"><ele>127.0</ele><time>2026-03-29T10:50:50.422Z</time></trkpt><trkpt lat="45.5154369" lon="10.0434277"><ele>127.0</ele><time>2026-03-29T10:50:51.422Z</time></trkpt><trkpt lat="45.5154231" lon="10.0437105"><ele>127.0</ele><time>2026-03-29T10:50:52.425Z</time></trkpt><trkpt lat="45.5154089" lon="10.0439893"><ele>127.0</ele><time>2026-03-29T10:50:53.412Z</time></trkpt><trkpt lat="45.5153931" lon="10.0442774"><ele>126.66666666666667</ele><time>2026-03-29T10:50:54.407Z</time></trkpt><trkpt lat="45.5153768" lon="10.0445736"><ele>126.33333333333334</ele><time>2026-03-29T10:50:55.416Z</time></trkpt><trkpt lat="45.5153594" lon="10.0448723"><ele>126.0</ele><time>2026-03-29T10:50:56.423Z</time></trkpt><trkpt lat="45.515341" lon="10.0451716"><ele>126.0</ele><time>2026-03-29T10:50:57.427Z</time></trkpt><trkpt lat="45.515322" lon="10.0454665"><ele>126.0</ele><time>2026-03-29T10:50:58.412Z</time></trkpt><trkpt lat="45.5153032" lon="10.0457651"><ele>126.0</ele><time>2026-03-29T10:50:59.409Z</time></trkpt><trkpt lat="45.5152836" lon="10.0460737"><ele>126.0</ele><time>2026-03-29T10:51:00.416Z</time></trkpt><trkpt lat="45.5152666" lon="10.0463841"><ele>126.0</ele><time>2026-03-29T10:51:01.42Z</time></trkpt><trkpt lat="45.5152483" lon="10.0467053"><ele>126.0</ele><time>2026-03-29T10:51:02.452Z</time></trkpt><trkpt lat="45.5152302" lon="10.0470087"><ele>125.66666666666666</ele><time>2026-03-29T10:51:03.421Z</time></trkpt><trkpt lat="45.5152089" lon="10.0473173"><ele>125.33333333333333</ele><time>2026-03-29T10:51:04.404Z</time></trkpt><trkpt lat="45.5151864" lon="10.0476343"><ele>125.0</ele><time>2026-03-29T10:51:05.412Z</time></trkpt><trkpt lat="45.5151641" lon="10.0479489"><ele>125.0</ele><time>2026-03-29T10:51:06.414Z</time></trkpt><trkpt lat="45.5151442" lon="10.0482693"><ele>125.0</ele><time>2026-03-29T10:51:07.424Z</time></trkpt><trkpt lat="45.5151232" lon="10.0485838"><ele>125.0</ele><time>2026-03-29T10:51:08.417Z</time></trkpt><trkpt lat="45.5151007" lon="10.0489077"><ele>124.5</ele><time>2026-03-29T10:51:09.422Z</time></trkpt><trkpt lat="45.5150787" lon="10.049234"><ele>124.0</ele><time>2026-03-29T10:51:10.42Z</time></trkpt><trkpt lat="45.5150561" lon="10.0495652"><ele>124.0</ele><time>2026-03-29T10:51:11.422Z</time></trkpt><trkpt lat="45.5150355" lon="10.0498948"><ele>124.0</ele><time>2026-03-29T10:51:12.42Z</time></trkpt><trkpt lat="45.5150175" lon="10.0502219"><ele>124.0</ele><time>2026-03-29T10:51:13.426Z</time></trkpt><trkpt lat="45.514998" lon="10.0505448"><ele>124.0</ele><time>2026-03-29T10:51:14.409Z</time></trkpt><trkpt lat="45.5149788" lon="10.0508755"><ele>124.33333333333334</ele><time>2026-03-29T10:51:15.444Z</time></trkpt><trkpt lat="45.514959" lon="10.0511853"><ele>124.66666666666666</ele><time>2026-03-29T10:51:16.425Z</time></trkpt><trkpt lat="45.5149385" lon="10.0514985"><ele>125.0</ele><time>2026-03-29T10:51:17.419Z</time></trkpt><trkpt lat="45.5149184" lon="10.0518165"><ele>125.0</ele><time>2026-03-29T10:51:18.428Z</time></trkpt><trkpt lat="45.5148985" lon="10.0521265"><ele>125.0</ele><time>2026-03-29T10:51:19.425Z</time></trkpt><trkpt lat="45.5148769" lon="10.0524401"><ele>125.0</ele><time>2026-03-29T10:51:20.437Z</time></trkpt><trkpt lat="45.5148554" lon="10.0527535"><ele>125.0</ele><time>2026-03-29T10:51:21.416Z</time></trkpt><trkpt lat="45.5148317" lon="10.0530734"><ele>125.0</ele><time>2026-03-29T10:51:22.439Z</time></trkpt><trkpt lat="45.5148103" lon="10.0533851"><ele>125.0</ele><time>2026-03-29T10:51:23.418Z</time></trkpt><trkpt lat="45.5147902" lon="10.0536975"><ele>125.0</ele><time>2026-03-29T10:51:24.423Z</time></trkpt><trkpt lat="45.5147699" lon="10.0540072"><ele>125.0</ele><time>2026-03-29T10:51:25.421Z</time></trkpt><trkpt lat="45.51475" lon="10.0543163"><ele>125.0</ele><time>2026-03-29T10:51:26.428Z</time></trkpt><trkpt lat="45.5147302" lon="10.0546273"><ele>124.66666666666666</ele><time>2026-03-29T10:51:27.443Z</time></trkpt><trkpt lat="45.5147115" lon="10.0549285"><ele>124.33333333333334</ele><time>2026-03-29T10:51:28.415Z</time></trkpt><trkpt lat="45.5146917" lon="10.0552331"><ele>124.0</ele><time>2026-03-29T10:51:29.433Z</time></trkpt><trkpt lat="45.5146735" lon="10.0555219"><ele>124.0</ele><time>2026-03-29T10:51:30.41Z</time></trkpt><trkpt lat="45.5146549" lon="10.0558231"><ele>124.0</ele><time>2026-03-29T10:51:31.406Z</time></trkpt><trkpt lat="45.5146348" lon="10.0561327"><ele>124.0</ele><time>2026-03-29T10:51:32.421Z</time></trkpt><trkpt lat="45.5146161" lon="10.0564367"><ele>124.0</ele><time>2026-03-29T10:51:33.431Z</time></trkpt><trkpt lat="45.5146002" lon="10.0567366"><ele>124.0</ele><time>2026-03-29T10:51:34.42Z</time></trkpt><trkpt lat="45.5145814" lon="10.0570409"><ele>124.0</ele><time>2026-03-29T10:51:35.419Z</time></trkpt><trkpt lat="45.5145593" lon="10.0573532"><ele>123.66666666666667</ele><time>2026-03-29T10:51:36.436Z</time></trkpt><trkpt lat="45.5145386" lon="10.0576555"><ele>123.33333333333334</ele><time>2026-03-29T10:51:37.421Z</time></trkpt><trkpt lat="45.5145186" lon="10.0579707"><ele>123.0</ele><time>2026-03-29T10:51:38.444Z</time></trkpt><trkpt lat="45.5145001" lon="10.0582647"><ele>122.66666666666666</ele><time>2026-03-29T10:51:39.406Z</time></trkpt><trkpt lat="45.5144842" lon="10.058573"><ele>122.33333333333333</ele><time>2026-03-29T10:51:40.415Z</time></trkpt><trkpt lat="45.5144656" lon="10.0588643"><ele>122.0</ele><time>2026-03-29T10:51:41.415Z</time></trkpt><trkpt lat="45.514449" lon="10.0591401"><ele>122.0</ele><time>2026-03-29T10:51:42.428Z</time></trkpt><trkpt lat="45.514431" lon="10.0593952"><ele>122.0</ele><time>2026-03-29T10:51:43.414Z</time></trkpt><trkpt lat="45.5144154" lon="10.0596365"><ele>122.0</ele><time>2026-03-29T10:51:44.415Z</time></trkpt><trkpt lat="45.5143979" lon="10.0598711"><ele>122.25</ele><time>2026-03-29T10:51:45.411Z</time></trkpt><trkpt lat="45.5143864" lon="10.0600906"><ele>122.5</ele><time>2026-03-29T10:51:46.425Z</time></trkpt><trkpt lat="45.5143704" lon="10.0602981"><ele>122.75</ele><time>2026-03-29T10:51:47.419Z</time></trkpt><trkpt lat="45.5143568" lon="10.060489"><ele>123.0</ele><time>2026-03-29T10:51:48.404Z</time></trkpt><trkpt lat="45.5143459" lon="10.0606742"><ele>123.0</ele><time>2026-03-29T10:51:49.408Z</time></trkpt><trkpt lat="45.5143352" lon="10.0608531"><ele>123.0</ele><time>2026-03-29T10:51:50.404Z</time></trkpt><trkpt lat="45.514324" lon="10.0610292"><ele>123.0</ele><time>2026-03-29T10:51:51.412Z</time></trkpt><trkpt lat="45.5143146" lon="10.0611897"><ele>123.0</ele><time>2026-03-29T10:51:52.432Z</time></trkpt><trkpt lat="45.5142966" lon="10.0613354"><ele>123.0</ele><time>2026-03-29T10:51:53.413Z</time></trkpt><trkpt lat="45.5142713" lon="10.0614658"><ele>123.0</ele><time>2026-03-29T10:51:54.418Z</time></trkpt><trkpt lat="45.5142304" lon="10.0615661"><ele>123.0</ele><time>2026-03-29T10:51:55.411Z</time></trkpt><trkpt lat="45.5141668" lon="10.0616518"><ele>123.0</ele><time>2026-03-29T10:51:56.417Z</time></trkpt><trkpt lat="45.5140909" lon="10.0617173"><ele>123.0</ele><time>2026-03-29T10:51:57.413Z</time></trkpt><trkpt lat="45.5140129" lon="10.061788"><ele>123.0</ele><time>2026-03-29T10:51:58.427Z</time></trkpt><trkpt lat="45.5139627" lon="10.0618697"><ele>123.0</ele><time>2026-03-29T10:51:59.422Z</time></trkpt><trkpt lat="45.513935" lon="10.0619783"><ele>123.00000000000001</ele><time>2026-03-29T10:52:00.412Z</time></trkpt><trkpt lat="45.5139516" lon="10.062131"><ele>123.00000000000001</ele><time>2026-03-29T10:52:01.402Z</time></trkpt><trkpt lat="45.513985" lon="10.0622656"><ele>123.0</ele><time>2026-03-29T10:52:02.407Z</time></trkpt><trkpt lat="45.5140532" lon="10.0623887"><ele>123.0</ele><time>2026-03-29T10:52:03.415Z</time></trkpt><trkpt lat="45.514143" lon="10.0625155"><ele>123.0</ele><time>2026-03-29T10:52:04.412Z</time></trkpt><trkpt lat="45.5142536" lon="10.0626727"><ele>123.0</ele><time>2026-03-29T10:52:05.464Z</time></trkpt><trkpt lat="45.5143413" lon="10.0628476"><ele>123.0</ele><time>2026-03-29T10:52:06.42Z</time></trkpt><trkpt lat="45.5144278" lon="10.0630444"><ele>123.0</ele><time>2026-03-29T10:52:07.414Z</time></trkpt><trkpt lat="45.5145101" lon="10.0632598"><ele>123.0</ele><time>2026-03-29T10:52:08.417Z</time></trkpt><trkpt lat="45.5145957" lon="10.0634932"><ele>123.0</ele><time>2026-03-29T10:52:09.419Z</time></trkpt><trkpt lat="45.5146769" lon="10.0637401"><ele>123.0</ele><time>2026-03-29T10:52:10.413Z</time></trkpt><trkpt lat="45.5147682" lon="10.0639963"><ele>123.0</ele><time>2026-03-29T10:52:11.435Z</time></trkpt><trkpt lat="45.5148586" lon="10.0642325"><ele>123.0</ele><time>2026-03-29T10:52:12.427Z</time></trkpt><trkpt lat="45.5149439" lon="10.0644599"><ele>122.66666666666666</ele><time>2026-03-29T10:52:13.41Z</time></trkpt><trkpt lat="45.5150293" lon="10.0646785"><ele>122.33333333333333</ele><time>2026-03-29T10:52:14.449Z</time></trkpt><trkpt lat="45.5150979" lon="10.0648718"><ele>122.0</ele><time>2026-03-29T10:52:15.406Z</time></trkpt><trkpt lat="45.5151679" lon="10.065068"><ele>122.66666666666666</ele><time>2026-03-29T10:52:16.411Z</time></trkpt><trkpt lat="45.5152342" lon="10.0652605"><ele>123.33333333333334</ele><time>2026-03-29T10:52:17.417Z</time></trkpt><trkpt lat="45.5153079" lon="10.0654663"><ele>124.0</ele><time>2026-03-29T10:52:18.422Z</time></trkpt><trkpt lat="45.5153812" lon="10.0656698"><ele>124.0</ele><time>2026-03-29T10:52:19.423Z</time></trkpt><trkpt lat="45.5154579" lon="10.0658791"><ele>124.0</ele><time>2026-03-29T10:52:20.431Z</time></trkpt><trkpt lat="45.5155307" lon="10.0660827"><ele>124.0</ele><time>2026-03-29T10:52:21.405Z</time></trkpt><trkpt lat="45.5156026" lon="10.0662834"><ele>124.0</ele><time>2026-03-29T10:52:22.428Z</time></trkpt><trkpt lat="45.515665" lon="10.0664545"><ele>124.0</ele><time>2026-03-29T10:52:23.413Z</time></trkpt><trkpt lat="45.5157218" lon="10.066604"><ele>124.0</ele><time>2026-03-29T10:52:24.414Z</time></trkpt><trkpt lat="45.5157761" lon="10.066737"><ele>124.0</ele><time>2026-03-29T10:52:25.418Z</time></trkpt><trkpt lat="45.5158206" lon="10.0668631"><ele>124.00000000000001</ele><time>2026-03-29T10:52:26.42Z</time></trkpt><trkpt lat="45.5158559" lon="10.0669845"><ele>124.0</ele><time>2026-03-29T10:52:27.431Z</time></trkpt><trkpt lat="45.5158766" lon="10.0670946"><ele>124.0</ele><time>2026-03-29T10:52:28.414Z</time></trkpt><trkpt lat="45.5158835" lon="10.0672093"><ele>124.0</ele><time>2026-03-29T10:52:29.412Z</time></trkpt><trkpt lat="45.5158815" lon="10.067327"><ele>124.00000000000001</ele><time>2026-03-29T10:52:30.417Z</time></trkpt><trkpt lat="45.51589" lon="10.0674404"><ele>124.0</ele><time>2026-03-29T10:52:31.423Z</time></trkpt><trkpt lat="45.5159248" lon="10.0675398"><ele>124.0</ele><time>2026-03-29T10:52:32.414Z</time></trkpt><trkpt lat="45.515988" lon="10.067628"><ele>124.0</ele><time>2026-03-29T10:52:33.405Z</time></trkpt><trkpt lat="45.5160709" lon="10.0677236"><ele>124.0</ele><time>2026-03-29T10:52:34.408Z</time></trkpt><trkpt lat="45.5161586" lon="10.0678324"><ele>124.0</ele><time>2026-03-29T10:52:35.413Z</time></trkpt><trkpt lat="45.5162419" lon="10.0679734"><ele>124.0</ele><time>2026-03-29T10:52:36.433Z</time></trkpt><trkpt lat="45.516316" lon="10.0681271"><ele>123.75</ele><time>2026-03-29T10:52:37.419Z</time></trkpt><trkpt lat="45.5163913" lon="10.0683075"><ele>123.5</ele><time>2026-03-29T10:52:38.443Z</time></trkpt><trkpt lat="45.5164558" lon="10.0684896"><ele>123.25</ele><time>2026-03-29T10:52:39.412Z</time></trkpt><trkpt lat="45.5165269" lon="10.0686771"><ele>123.0</ele><time>2026-03-29T10:52:40.42Z</time></trkpt><trkpt lat="45.5165973" lon="10.0688677"><ele>123.0</ele><time>2026-03-29T10:52:41.414Z</time></trkpt><trkpt lat="45.516668" lon="10.0690561"><ele>123.0</ele><time>2026-03-29T10:52:42.407Z</time></trkpt><trkpt lat="45.5167382" lon="10.0692434"><ele>123.0</ele><time>2026-03-29T10:52:43.412Z</time></trkpt><trkpt lat="45.5168074" lon="10.069429"><ele>123.0</ele><time>2026-03-29T10:52:44.422Z</time></trkpt><trkpt lat="45.5168731" lon="10.0696049"><ele>123.0</ele><time>2026-03-29T10:52:45.41Z</time></trkpt><trkpt lat="45.5169399" lon="10.0697859"><ele>123.0</ele><time>2026-03-29T10:52:46.418Z</time></trkpt><trkpt lat="45.5170046" lon="10.0699621"><ele>123.0</ele><time>2026-03-29T10:52:47.405Z</time></trkpt><trkpt lat="45.5170706" lon="10.0701442"><ele>123.0</ele><time>2026-03-29T10:52:48.426Z</time></trkpt><trkpt lat="45.5171337" lon="10.0703176"><ele>123.25</ele><time>2026-03-29T10:52:49.415Z</time></trkpt><trkpt lat="45.5171969" lon="10.0704929"><ele>123.5</ele><time>2026-03-29T10:52:50.411Z</time></trkpt><trkpt lat="45.5172591" lon="10.0706601"><ele>123.75</ele><time>2026-03-29T10:52:51.405Z</time></trkpt><trkpt lat="45.5173173" lon="10.0708218"><ele>124.0</ele><time>2026-03-29T10:52:52.412Z</time></trkpt><trkpt lat="45.5173688" lon="10.0709623"><ele>124.2</ele><time>2026-03-29T10:52:53.415Z</time></trkpt><trkpt lat="45.517404" lon="10.0710849"><ele>124.4</ele><time>2026-03-29T10:52:54.43Z</time></trkpt><trkpt lat="45.5174312" lon="10.0711789"><ele>124.6</ele><time>2026-03-29T10:52:55.42Z</time></trkpt><trkpt lat="45.5174318" lon="10.0713327"><ele>124.8</ele><time>2026-03-29T10:52:57.439Z</time></trkpt><trkpt lat="45.5173958" lon="10.0714736"><ele>125.0</ele><time>2026-03-29T10:52:59.424Z</time></trkpt><trkpt lat="45.5174461" lon="10.0716228"><ele>124.99999999999999</ele><time>2026-03-29T10:53:01.413Z</time></trkpt><trkpt lat="45.5175112" lon="10.0716532"><ele>125.0</ele><time>2026-03-29T10:53:02.415Z</time></trkpt><trkpt lat="45.5175833" lon="10.0716844"><ele>125.0</ele><time>2026-03-29T10:53:03.426Z</time></trkpt><trkpt lat="45.5176506" lon="10.0717298"><ele>125.0</ele><time>2026-03-29T10:53:04.417Z</time></trkpt><trkpt lat="45.5177019" lon="10.071814"><ele>124.99999999999999</ele><time>2026-03-29T10:53:05.421Z</time></trkpt><trkpt lat="45.5177435" lon="10.0719258"><ele>125.0</ele><time>2026-03-29T10:53:06.419Z</time></trkpt><trkpt lat="45.5178035" lon="10.072038"><ele>125.0</ele><time>2026-03-29T10:53:07.409Z</time></trkpt><trkpt lat="45.5178762" lon="10.0721797"><ele>125.0</ele><time>2026-03-29T10:53:08.421Z</time></trkpt><trkpt lat="45.5179505" lon="10.0723346"><ele>125.0</ele><time>2026-03-29T10:53:09.412Z</time></trkpt><trkpt lat="45.5180259" lon="10.0725095"><ele>125.0</ele><time>2026-03-29T10:53:10.433Z</time></trkpt><trkpt lat="45.5181007" lon="10.072685"><ele>125.33333333333333</ele><time>2026-03-29T10:53:11.407Z</time></trkpt><trkpt lat="45.5181784" lon="10.0728734"><ele>125.66666666666666</ele><time>2026-03-29T10:53:12.408Z</time></trkpt><trkpt lat="45.5182447" lon="10.0730774"><ele>126.0</ele><time>2026-03-29T10:53:13.419Z</time></trkpt><trkpt lat="45.5183069" lon="10.0732904"><ele>126.0</ele><time>2026-03-29T10:53:14.427Z</time></trkpt><trkpt lat="45.5183729" lon="10.0735055"><ele>126.0</ele><time>2026-03-29T10:53:15.437Z</time></trkpt><trkpt lat="45.5184376" lon="10.0737147"><ele>126.0</ele><time>2026-03-29T10:53:16.412Z</time></trkpt><trkpt lat="45.518508" lon="10.0739295"><ele>125.66666666666666</ele><time>2026-03-29T10:53:17.408Z</time></trkpt><trkpt lat="45.5185831" lon="10.0741469"><ele>125.33333333333333</ele><time>2026-03-29T10:53:18.417Z</time></trkpt><trkpt lat="45.5186554" lon="10.0743669"><ele>125.0</ele><time>2026-03-29T10:53:19.413Z</time></trkpt><trkpt lat="45.518729" lon="10.0745979"><ele>125.33333333333333</ele><time>2026-03-29T10:53:20.425Z</time></trkpt><trkpt lat="45.5188025" lon="10.0748221"><ele>125.66666666666666</ele><time>2026-03-29T10:53:21.414Z</time></trkpt><trkpt lat="45.5188775" lon="10.0750524"><ele>126.0</ele><time>2026-03-29T10:53:22.423Z</time></trkpt><trkpt lat="45.5189526" lon="10.0752762"><ele>126.0</ele><time>2026-03-29T10:53:23.412Z</time></trkpt><trkpt lat="45.5190338" lon="10.0754971"><ele>126.0</ele><time>2026-03-29T10:53:24.409Z</time></trkpt><trkpt lat="45.5191139" lon="10.0757243"><ele>126.0</ele><time>2026-03-29T10:53:25.406Z</time></trkpt><trkpt lat="45.5191942" lon="10.0759487"><ele>126.0</ele><time>2026-03-29T10:53:26.413Z</time></trkpt><trkpt lat="45.5192693" lon="10.0761616"><ele>126.0</ele><time>2026-03-29T10:53:27.406Z</time></trkpt><trkpt lat="45.5193435" lon="10.0763695"><ele>126.0</ele><time>2026-03-29T10:53:28.422Z</time></trkpt><trkpt lat="45.519414" lon="10.07656"><ele>125.75</ele><time>2026-03-29T10:53:29.421Z</time></trkpt><trkpt lat="45.5194803" lon="10.0767391"><ele>125.5</ele><time>2026-03-29T10:53:30.409Z</time></trkpt><trkpt lat="45.5195418" lon="10.0768991"><ele>125.25</ele><time>2026-03-29T10:53:31.413Z</time></trkpt><trkpt lat="45.5195991" lon="10.0770354"><ele>125.0</ele><time>2026-03-29T10:53:32.413Z</time></trkpt><trkpt lat="45.5196579" lon="10.0771377"><ele>124.99999999999999</ele><time>2026-03-29T10:53:33.431Z</time></trkpt><trkpt lat="45.5196992" lon="10.0772198"><ele>125.0</ele><time>2026-03-29T10:53:34.423Z</time></trkpt><trkpt lat="45.5197242" lon="10.0773087"><ele>125.0</ele><time>2026-03-29T10:53:35.423Z</time></trkpt><trkpt lat="45.5197416" lon="10.0774146"><ele>125.0</ele><time>2026-03-29T10:53:36.418Z</time></trkpt><trkpt lat="45.5197585" lon="10.0775436"><ele>124.99999999999999</ele><time>2026-03-29T10:53:37.413Z</time></trkpt><trkpt lat="45.5197846" lon="10.0776797"><ele>125.0</ele><time>2026-03-29T10:53:38.412Z</time></trkpt><trkpt lat="45.5198154" lon="10.0778447"><ele>125.0</ele><time>2026-03-29T10:53:39.409Z</time></trkpt><trkpt lat="45.5198453" lon="10.0780189"><ele>125.0</ele><time>2026-03-29T10:53:40.407Z</time></trkpt><trkpt lat="45.5198769" lon="10.0782036"><ele>125.0</ele><time>2026-03-29T10:53:41.44Z</time></trkpt><trkpt lat="45.5198975" lon="10.0783886"><ele>125.0</ele><time>2026-03-29T10:53:42.421Z</time></trkpt><trkpt lat="45.519911" lon="10.0785832"><ele>125.0</ele><time>2026-03-29T10:53:43.426Z</time></trkpt><trkpt lat="45.5199103" lon="10.0787719"><ele>125.0</ele><time>2026-03-29T10:53:44.419Z</time></trkpt><trkpt lat="45.5198998" lon="10.0789493"><ele>125.0</ele><time>2026-03-29T10:53:45.412Z</time></trkpt><trkpt lat="45.5198863" lon="10.0791155"><ele>125.0</ele><time>2026-03-29T10:53:46.421Z</time></trkpt><trkpt lat="45.5198675" lon="10.0792556"><ele>124.83333333333333</ele><time>2026-03-29T10:53:47.418Z</time></trkpt><trkpt lat="45.5198499" lon="10.079372"><ele>124.66666666666666</ele><time>2026-03-29T10:53:48.411Z</time></trkpt><trkpt lat="45.5198329" lon="10.0794722"><ele>124.5</ele><time>2026-03-29T10:53:49.416Z</time></trkpt><trkpt lat="45.5197669" lon="10.0796131"><ele>124.33333333333334</ele><time>2026-03-29T10:53:51.418Z</time></trkpt><trkpt lat="45.5197313" lon="10.0796964"><ele>124.16666666666667</ele><time>2026-03-29T10:53:52.413Z</time></trkpt><trkpt lat="45.5197183" lon="10.0797993"><ele>124.0</ele><time>2026-03-29T10:53:53.412Z</time></trkpt><trkpt lat="45.5197199" lon="10.0799277"><ele>124.2</ele><time>2026-03-29T10:53:54.416Z</time></trkpt><trkpt lat="45.5197234" lon="10.0800633"><ele>124.4</ele><time>2026-03-29T10:53:55.418Z</time></trkpt><trkpt lat="45.5197127" lon="10.0802125"><ele>124.6</ele><time>2026-03-29T10:53:56.413Z</time></trkpt><trkpt lat="45.5196895" lon="10.0803718"><ele>124.8</ele><time>2026-03-29T10:53:57.41Z</time></trkpt><trkpt lat="45.5196622" lon="10.0805497"><ele>125.0</ele><time>2026-03-29T10:53:58.422Z</time></trkpt><trkpt lat="45.5196359" lon="10.0807392"><ele>125.0</ele><time>2026-03-29T10:53:59.411Z</time></trkpt><trkpt lat="45.5196061" lon="10.0809347"><ele>125.0</ele><time>2026-03-29T10:54:00.404Z</time></trkpt><trkpt lat="45.5195732" lon="10.0811384"><ele>125.0</ele><time>2026-03-29T10:54:01.433Z</time></trkpt><trkpt lat="45.5195426" lon="10.0813336"><ele>125.0</ele><time>2026-03-29T10:54:02.41Z</time></trkpt><trkpt lat="45.5195067" lon="10.0815454"><ele>124.33333333333333</ele><time>2026-03-29T10:54:03.445Z</time></trkpt><trkpt lat="45.5194731" lon="10.0817506"><ele>123.66666666666666</ele><time>2026-03-29T10:54:04.421Z</time></trkpt><trkpt lat="45.5194376" lon="10.0819671"><ele>123.0</ele><time>2026-03-29T10:54:05.433Z</time></trkpt><trkpt lat="45.519401" lon="10.0821737"><ele>123.0</ele><time>2026-03-29T10:54:06.421Z</time></trkpt><trkpt lat="45.5193672" lon="10.0823776"><ele>123.0</ele><time>2026-03-29T10:54:07.424Z</time></trkpt><trkpt lat="45.5193355" lon="10.0825689"><ele>123.0</ele><time>2026-03-29T10:54:08.411Z</time></trkpt><trkpt lat="45.5193034" lon="10.0827628"><ele>123.0</ele><time>2026-03-29T10:54:09.416Z</time></trkpt><trkpt lat="45.5192723" lon="10.0829539"><ele>123.0</ele><time>2026-03-29T10:54:10.405Z</time></trkpt><trkpt lat="45.5192389" lon="10.0831478"><ele>123.0</ele><time>2026-03-29T10:54:11.414Z</time></trkpt><trkpt lat="45.5192079" lon="10.0833404"><ele>123.0</ele><time>2026-03-29T10:54:12.421Z</time></trkpt><trkpt lat="45.5191762" lon="10.0835311"><ele>123.0</ele><time>2026-03-29T10:54:13.418Z</time></trkpt><trkpt lat="45.519142" lon="10.0837158"><ele>123.0</ele><time>2026-03-29T10:54:14.425Z</time></trkpt><trkpt lat="45.5191086" lon="10.0838918"><ele>123.0</ele><time>2026-03-29T10:54:15.418Z</time></trkpt><trkpt lat="45.5190793" lon="10.0840667"><ele>123.0</ele><time>2026-03-29T10:54:16.429Z</time></trkpt><trkpt lat="45.5190522" lon="10.0842424"><ele>123.0</ele><time>2026-03-29T10:54:17.426Z</time></trkpt><trkpt lat="45.519025" lon="10.0844194"><ele>123.0</ele><time>2026-03-29T10:54:18.421Z</time></trkpt><trkpt lat="45.518996" lon="10.0845857"><ele>123.00000000000001</ele><time>2026-03-29T10:54:19.413Z</time></trkpt><trkpt lat="45.5189643" lon="10.0847387"><ele>123.00000000000001</ele><time>2026-03-29T10:54:20.427Z</time></trkpt><trkpt lat="45.5189308" lon="10.0848711"><ele>123.0</ele><time>2026-03-29T10:54:21.412Z</time></trkpt><trkpt lat="45.5188965" lon="10.0849926"><ele>123.0</ele><time>2026-03-29T10:54:22.418Z</time></trkpt><trkpt lat="45.5188613" lon="10.0850968"><ele>123.2</ele><time>2026-03-29T10:54:23.416Z</time></trkpt><trkpt lat="45.5188263" lon="10.0851876"><ele>123.4</ele><time>2026-03-29T10:54:24.427Z</time></trkpt><trkpt lat="45.5187855" lon="10.0852568"><ele>123.60000000000001</ele><time>2026-03-29T10:54:25.434Z</time></trkpt><trkpt lat="45.5187348" lon="10.085397"><ele>123.80000000000001</ele><time>2026-03-29T10:54:27.415Z</time></trkpt><trkpt lat="45.5187612" lon="10.0855446"><ele>124.0</ele><time>2026-03-29T10:54:29.412Z</time></trkpt><trkpt lat="45.5188952" lon="10.0856175"><ele>124.0</ele><time>2026-03-29T10:54:31.413Z</time></trkpt><trkpt lat="45.518991" lon="10.0856801"><ele>124.0</ele><time>2026-03-29T10:54:32.407Z</time></trkpt><trkpt lat="45.5190922" lon="10.0857515"><ele>124.0</ele><time>2026-03-29T10:54:33.422Z</time></trkpt><trkpt lat="45.5191713" lon="10.0858142"><ele>124.0</ele><time>2026-03-29T10:54:34.423Z</time></trkpt><trkpt lat="45.5192446" lon="10.0858676"><ele>124.0</ele><time>2026-03-29T10:54:35.419Z</time></trkpt><trkpt lat="45.5193227" lon="10.085923"><ele>124.00000000000001</ele><time>2026-03-29T10:54:36.407Z</time></trkpt><trkpt lat="45.5194015" lon="10.0859722"><ele>124.0</ele><time>2026-03-29T10:54:37.426Z</time></trkpt><trkpt lat="45.51948" lon="10.0860265"><ele>124.0</ele><time>2026-03-29T10:54:38.413Z</time></trkpt><trkpt lat="45.5195585" lon="10.0860868"><ele>124.0</ele><time>2026-03-29T10:54:39.425Z</time></trkpt><trkpt lat="45.5196366" lon="10.0861433"><ele>124.00000000000001</ele><time>2026-03-29T10:54:40.42Z</time></trkpt><trkpt lat="45.5197153" lon="10.0862035"><ele>124.0</ele><time>2026-03-29T10:54:41.407Z</time></trkpt><trkpt lat="45.5198078" lon="10.0862766"><ele>123.75</ele><time>2026-03-29T10:54:42.439Z</time></trkpt><trkpt lat="45.5198974" lon="10.0863555"><ele>123.5</ele><time>2026-03-29T10:54:43.414Z</time></trkpt><trkpt lat="45.5199945" lon="10.0864438"><ele>123.25</ele><time>2026-03-29T10:54:44.412Z</time></trkpt><trkpt lat="45.5201066" lon="10.086543"><ele>123.0</ele><time>2026-03-29T10:54:45.427Z</time></trkpt><trkpt lat="45.5202096" lon="10.0866285"><ele>123.0</ele><time>2026-03-29T10:54:46.418Z</time></trkpt><trkpt lat="45.520322" lon="10.0867132"><ele>123.0</ele><time>2026-03-29T10:54:47.435Z</time></trkpt><trkpt lat="45.5204278" lon="10.0867975"><ele>123.0</ele><time>2026-03-29T10:54:48.418Z</time></trkpt><trkpt lat="45.5205344" lon="10.0868873"><ele>123.0</ele><time>2026-03-29T10:54:49.412Z</time></trkpt><trkpt lat="45.5206438" lon="10.0869772"><ele>123.0</ele><time>2026-03-29T10:54:50.406Z</time></trkpt><trkpt lat="45.5207415" lon="10.0870648"><ele>123.00000000000001</ele><time>2026-03-29T10:54:51.414Z</time></trkpt><trkpt lat="45.5208289" lon="10.0871391"><ele>123.00000000000001</ele><time>2026-03-29T10:54:52.415Z</time></trkpt><trkpt lat="45.5209083" lon="10.0872064"><ele>123.0</ele><time>2026-03-29T10:54:53.419Z</time></trkpt><trkpt lat="45.520978" lon="10.087268"><ele>123.0</ele><time>2026-03-29T10:54:54.422Z</time></trkpt><trkpt lat="45.521048" lon="10.0873274"><ele>123.0</ele><time>2026-03-29T10:54:55.423Z</time></trkpt><trkpt lat="45.5211045" lon="10.0873787"><ele>123.0</ele><time>2026-03-29T10:54:56.416Z</time></trkpt><trkpt lat="45.5212113" lon="10.0874777"><ele>123.0</ele><time>2026-03-29T10:54:58.416Z</time></trkpt><trkpt lat="45.5212702" lon="10.0875225"><ele>123.0</ele><time>2026-03-29T10:54:59.415Z</time></trkpt><trkpt lat="45.5213449" lon="10.0875795"><ele>123.0</ele><time>2026-03-29T10:55:00.412Z</time></trkpt><trkpt lat="45.5214151" lon="10.0876376"><ele>123.0</ele><time>2026-03-29T10:55:01.426Z</time></trkpt><trkpt lat="45.5214832" lon="10.087696"><ele>123.0</ele><time>2026-03-29T10:55:02.419Z</time></trkpt><trkpt lat="45.5215597" lon="10.0877549"><ele>123.00000000000001</ele><time>2026-03-29T10:55:03.419Z</time></trkpt><trkpt lat="45.5216356" lon="10.0878154"><ele>123.00000000000001</ele><time>2026-03-29T10:55:04.416Z</time></trkpt><trkpt lat="45.521714" lon="10.0878784"><ele>123.0</ele><time>2026-03-29T10:55:05.406Z</time></trkpt><trkpt lat="45.5218014" lon="10.0879606"><ele>123.0</ele><time>2026-03-29T10:55:06.42Z</time></trkpt><trkpt lat="45.5218852" lon="10.0880393"><ele>123.0</ele><time>2026-03-29T10:55:07.416Z</time></trkpt><trkpt lat="45.5219642" lon="10.0881142"><ele>123.0</ele><time>2026-03-29T10:55:08.413Z</time></trkpt><trkpt lat="45.5220472" lon="10.0881835"><ele>123.0</ele><time>2026-03-29T10:55:09.407Z</time></trkpt><trkpt lat="45.5221152" lon="10.088262"><ele>123.0</ele><time>2026-03-29T10:55:10.414Z</time></trkpt><trkpt lat="45.5221608" lon="10.0883432"><ele>123.0</ele><time>2026-03-29T10:55:11.418Z</time></trkpt><trkpt lat="45.5221885" lon="10.0884327"><ele>123.0</ele><time>2026-03-29T10:55:12.412Z</time></trkpt><trkpt lat="45.5222111" lon="10.0885426"><ele>123.4</ele><time>2026-03-29T10:55:13.42Z</time></trkpt><trkpt lat="45.5222494" lon="10.0886484"><ele>123.80000000000001</ele><time>2026-03-29T10:55:14.422Z</time></trkpt><trkpt lat="45.522277" lon="10.0887621"><ele>124.2</ele><time>2026-03-29T10:55:15.413Z</time></trkpt><trkpt lat="45.5222885" lon="10.0888931"><ele>124.6</ele><time>2026-03-29T10:55:16.427Z</time></trkpt><trkpt lat="45.5222791" lon="10.0890379"><ele>125.0</ele><time>2026-03-29T10:55:17.414Z</time></trkpt><trkpt lat="45.5222559" lon="10.0891986"><ele>125.0</ele><time>2026-03-29T10:55:18.415Z</time></trkpt><trkpt lat="45.5222354" lon="10.0893404"><ele>125.0</ele><time>2026-03-29T10:55:19.439Z</time></trkpt><trkpt lat="45.5222084" lon="10.0894649"><ele>125.0</ele><time>2026-03-29T10:55:20.423Z</time></trkpt><trkpt lat="45.5221808" lon="10.0895782"><ele>125.0</ele><time>2026-03-29T10:55:21.436Z</time></trkpt><trkpt lat="45.5221642" lon="10.0896776"><ele>125.0</ele><time>2026-03-29T10:55:22.431Z</time></trkpt><trkpt lat="45.5221288" lon="10.0898472"><ele>124.6</ele><time>2026-03-29T10:55:24.427Z</time></trkpt><trkpt lat="45.522121" lon="10.0900072"><ele>124.2</ele><time>2026-03-29T10:55:26.418Z</time></trkpt><trkpt lat="45.5221845" lon="10.0901571"><ele>123.80000000000001</ele><time>2026-03-29T10:55:28.432Z</time></trkpt><trkpt lat="45.5222521" lon="10.0901835"><ele>123.4</ele><time>2026-03-29T10:55:29.424Z</time></trkpt><trkpt lat="45.5223209" lon="10.0901706"><ele>123.0</ele><time>2026-03-29T10:55:30.415Z</time></trkpt><trkpt lat="45.5223927" lon="10.090127"><ele>123.0</ele><time>2026-03-29T10:55:31.413Z</time></trkpt><trkpt lat="45.5224601" lon="10.0901056"><ele>123.00000000000001</ele><time>2026-03-29T10:55:32.412Z</time></trkpt><trkpt lat="45.5225391" lon="10.09008"><ele>123.00000000000001</ele><time>2026-03-29T10:55:33.415Z</time></trkpt><trkpt lat="45.5226262" lon="10.0900787"><ele>123.0</ele><time>2026-03-29T10:55:34.441Z</time></trkpt><trkpt lat="45.5227286" lon="10.0901033"><ele>123.0</ele><time>2026-03-29T10:55:35.425Z</time></trkpt><trkpt lat="45.5228471" lon="10.0901484"><ele>123.0</ele><time>2026-03-29T10:55:36.423Z</time></trkpt><trkpt lat="45.5229796" lon="10.0902061"><ele>123.0</ele><time>2026-03-29T10:55:37.435Z</time></trkpt><trkpt lat="45.5231262" lon="10.0902729"><ele>123.0</ele><time>2026-03-29T10:55:38.417Z</time></trkpt><trkpt lat="45.5232735" lon="10.0903347"><ele>123.0</ele><time>2026-03-29T10:55:39.436Z</time></trkpt><trkpt lat="45.5234109" lon="10.0903932"><ele>123.0</ele><time>2026-03-29T10:55:40.426Z</time></trkpt><trkpt lat="45.5235431" lon="10.0904513"><ele>123.0</ele><time>2026-03-29T10:55:41.407Z</time></trkpt><trkpt lat="45.523679" lon="10.0905038"><ele>123.0</ele><time>2026-03-29T10:55:42.458Z</time></trkpt><trkpt lat="45.5238047" lon="10.0905561"><ele>123.0</ele><time>2026-03-29T10:55:43.441Z</time></trkpt><trkpt lat="45.5239283" lon="10.0905962"><ele>123.0</ele><time>2026-03-29T10:55:44.431Z</time></trkpt><trkpt lat="45.5240496" lon="10.0906443"><ele>123.0</ele><time>2026-03-29T10:55:45.442Z</time></trkpt><trkpt lat="45.5241613" lon="10.0906894"><ele>123.0</ele><time>2026-03-29T10:55:46.424Z</time></trkpt><trkpt lat="45.5242696" lon="10.0907319"><ele>123.0</ele><time>2026-03-29T10:55:47.428Z</time></trkpt><trkpt lat="45.5243628" lon="10.0907733"><ele>123.0</ele><time>2026-03-29T10:55:48.438Z</time></trkpt><trkpt lat="45.5244485" lon="10.0908068"><ele>123.00000000000001</ele><time>2026-03-29T10:55:49.428Z</time></trkpt><trkpt lat="45.5245291" lon="10.0908416"><ele>123.00000000000001</ele><time>2026-03-29T10:55:50.449Z</time></trkpt><trkpt lat="45.5246133" lon="10.0908808"><ele>123.0</ele><time>2026-03-29T10:55:51.431Z</time></trkpt><trkpt lat="45.5247057" lon="10.0909299"><ele>123.0</ele><time>2026-03-29T10:55:52.42Z</time></trkpt><trkpt lat="45.5248063" lon="10.0909912"><ele>123.0</ele><time>2026-03-29T10:55:53.429Z</time></trkpt><trkpt lat="45.5249082" lon="10.0910612"><ele>123.0</ele><time>2026-03-29T10:55:54.434Z</time></trkpt><trkpt lat="45.5250116" lon="10.0911425"><ele>123.0</ele><time>2026-03-29T10:55:55.429Z</time></trkpt><trkpt lat="45.5251121" lon="10.091238"><ele>123.0</ele><time>2026-03-29T10:55:56.438Z</time></trkpt><trkpt lat="45.5252103" lon="10.0913562"><ele>123.0</ele><time>2026-03-29T10:55:57.439Z</time></trkpt><trkpt lat="45.5253049" lon="10.0914943"><ele>123.0</ele><time>2026-03-29T10:55:58.444Z</time></trkpt><trkpt lat="45.5253972" lon="10.0916382"><ele>123.0</ele><time>2026-03-29T10:55:59.422Z</time></trkpt><trkpt lat="45.525496" lon="10.0917978"><ele>123.0</ele><time>2026-03-29T10:56:00.436Z</time></trkpt><trkpt lat="45.5255901" lon="10.09196"><ele>123.0</ele><time>2026-03-29T10:56:01.414Z</time></trkpt><trkpt lat="45.5256861" lon="10.0921349"><ele>123.0</ele><time>2026-03-29T10:56:02.425Z</time></trkpt><trkpt lat="45.5257776" lon="10.0923146"><ele>123.0</ele><time>2026-03-29T10:56:03.427Z</time></trkpt><trkpt lat="45.5258697" lon="10.0925007"><ele>123.0</ele><time>2026-03-29T10:56:04.441Z</time></trkpt><trkpt lat="45.5259608" lon="10.0926824"><ele>123.0</ele><time>2026-03-29T10:56:05.445Z</time></trkpt><trkpt lat="45.5260526" lon="10.0928676"><ele>123.0</ele><time>2026-03-29T10:56:06.433Z</time></trkpt><trkpt lat="45.5261428" lon="10.0930559"><ele>123.33333333333334</ele><time>2026-03-29T10:56:07.41Z</time></trkpt><trkpt lat="45.5262387" lon="10.0932511"><ele>123.66666666666667</ele><time>2026-03-29T10:56:08.426Z</time></trkpt><trkpt lat="45.5263334" lon="10.093441"><ele>124.0</ele><time>2026-03-29T10:56:09.422Z</time></trkpt><trkpt lat="45.5264352" lon="10.0936303"><ele>124.33333333333334</ele><time>2026-03-29T10:56:10.431Z</time></trkpt><trkpt lat="45.5265439" lon="10.0938149"><ele>124.66666666666666</ele><time>2026-03-29T10:56:11.428Z</time></trkpt><trkpt lat="45.5266612" lon="10.0939899"><ele>125.0</ele><time>2026-03-29T10:56:12.411Z</time></trkpt><trkpt lat="45.5267904" lon="10.0941642"><ele>125.0</ele><time>2026-03-29T10:56:13.436Z</time></trkpt><trkpt lat="45.5269227" lon="10.0943352"><ele>125.0</ele><time>2026-03-29T10:56:14.46Z</time></trkpt><trkpt lat="45.5270471" lon="10.0944925"><ele>125.0</ele><time>2026-03-29T10:56:15.426Z</time></trkpt><trkpt lat="45.527176" lon="10.0946554"><ele>125.33333333333333</ele><time>2026-03-29T10:56:16.426Z</time></trkpt><trkpt lat="45.5273051" lon="10.0948153"><ele>125.66666666666666</ele><time>2026-03-29T10:56:17.432Z</time></trkpt><trkpt lat="45.5274336" lon="10.0949724"><ele>126.0</ele><time>2026-03-29T10:56:18.433Z</time></trkpt><trkpt lat="45.5275618" lon="10.0951292"><ele>126.0</ele><time>2026-03-29T10:56:19.432Z</time></trkpt><trkpt lat="45.5276914" lon="10.0952862"><ele>126.0</ele><time>2026-03-29T10:56:20.44Z</time></trkpt><trkpt lat="45.5278136" lon="10.0954337"><ele>126.0</ele><time>2026-03-29T10:56:21.422Z</time></trkpt><trkpt lat="45.5279372" lon="10.0955834"><ele>126.0</ele><time>2026-03-29T10:56:22.452Z</time></trkpt><trkpt lat="45.528052" lon="10.0957246"><ele>126.0</ele><time>2026-03-29T10:56:23.421Z</time></trkpt><trkpt lat="45.52817" lon="10.0958719"><ele>126.0</ele><time>2026-03-29T10:56:24.426Z</time></trkpt><trkpt lat="45.5282886" lon="10.0960193"><ele>126.0</ele><time>2026-03-29T10:56:25.42Z</time></trkpt><trkpt lat="45.5284115" lon="10.0961638"><ele>126.0</ele><time>2026-03-29T10:56:26.416Z</time></trkpt><trkpt lat="45.5285372" lon="10.0962941"><ele>126.0</ele><time>2026-03-29T10:56:27.41Z</time></trkpt><trkpt lat="45.5286714" lon="10.0964077"><ele>125.25</ele><time>2026-03-29T10:56:28.419Z</time></trkpt><trkpt lat="45.5288043" lon="10.0965051"><ele>124.5</ele><time>2026-03-29T10:56:29.418Z</time></trkpt><trkpt lat="45.5289396" lon="10.0965957"><ele>123.75</ele><time>2026-03-29T10:56:30.42Z</time></trkpt><trkpt lat="45.5290753" lon="10.0966777"><ele>123.0</ele><time>2026-03-29T10:56:31.415Z</time></trkpt><trkpt lat="45.5292118" lon="10.0967537"><ele>123.0</ele><time>2026-03-29T10:56:32.416Z</time></trkpt><trkpt lat="45.5293403" lon="10.0968155"><ele>123.0</ele><time>2026-03-29T10:56:33.416Z</time></trkpt><trkpt lat="45.5294636" lon="10.0968644"><ele>123.0</ele><time>2026-03-29T10:56:34.429Z</time></trkpt><trkpt lat="45.5295798" lon="10.0968988"><ele>123.0</ele><time>2026-03-29T10:56:35.428Z</time></trkpt><trkpt lat="45.529691" lon="10.0969234"><ele>123.33333333333333</ele><time>2026-03-29T10:56:36.423Z</time></trkpt><trkpt lat="45.5297949" lon="10.0969407"><ele>123.66666666666666</ele><time>2026-03-29T10:56:37.432Z</time></trkpt><trkpt lat="45.529884" lon="10.0969546"><ele>124.0</ele><time>2026-03-29T10:56:38.408Z</time></trkpt><trkpt lat="45.5299685" lon="10.0969657"><ele>124.33333333333333</ele><time>2026-03-29T10:56:39.416Z</time></trkpt><trkpt lat="45.5300473" lon="10.0969794"><ele>124.66666666666666</ele><time>2026-03-29T10:56:40.418Z</time></trkpt><trkpt lat="45.5301153" lon="10.0970103"><ele>125.0</ele><time>2026-03-29T10:56:41.413Z</time></trkpt><trkpt lat="45.5301817" lon="10.0970626"><ele>125.0</ele><time>2026-03-29T10:56:42.433Z</time></trkpt><trkpt lat="45.5302435" lon="10.0971375"><ele>125.0</ele><time>2026-03-29T10:56:43.429Z</time></trkpt><trkpt lat="45.5302999" lon="10.0972396"><ele>125.0</ele><time>2026-03-29T10:56:44.42Z</time></trkpt><trkpt lat="45.5303417" lon="10.0973711"><ele>125.0</ele><time>2026-03-29T10:56:45.424Z</time></trkpt><trkpt lat="45.5303737" lon="10.097534"><ele>125.0</ele><time>2026-03-29T10:56:46.418Z</time></trkpt><trkpt lat="45.5304093" lon="10.0977098"><ele>125.0</ele><time>2026-03-29T10:56:47.419Z</time></trkpt><trkpt lat="45.5304553" lon="10.0979009"><ele>125.0</ele><time>2026-03-29T10:56:48.437Z</time></trkpt><trkpt lat="45.5305045" lon="10.0981009"><ele>125.0</ele><time>2026-03-29T10:56:49.45Z</time></trkpt><trkpt lat="45.5305562" lon="10.0982967"><ele>125.0</ele><time>2026-03-29T10:56:50.423Z</time></trkpt><trkpt lat="45.5306127" lon="10.0985098"><ele>125.5</ele><time>2026-03-29T10:56:51.427Z</time></trkpt><trkpt lat="45.5306794" lon="10.0987597"><ele>126.0</ele><time>2026-03-29T10:56:52.556Z</time></trkpt><trkpt lat="45.5307965" lon="10.0992015"><ele>126.0</ele><time>2026-03-29T10:56:54.434Z</time></trkpt><trkpt lat="45.5308597" lon="10.0994389"><ele>126.0</ele><time>2026-03-29T10:56:55.413Z</time></trkpt><trkpt lat="45.530929" lon="10.0996852"><ele>126.0</ele><time>2026-03-29T10:56:56.427Z</time></trkpt><trkpt lat="45.5309962" lon="10.0999203"><ele>125.33333333333334</ele><time>2026-03-29T10:56:57.41Z</time></trkpt><trkpt lat="45.5310643" lon="10.1001616"><ele>124.66666666666667</ele><time>2026-03-29T10:56:58.416Z</time></trkpt><trkpt lat="45.5311307" lon="10.1003975"><ele>124.0</ele><time>2026-03-29T10:56:59.416Z</time></trkpt><trkpt lat="45.5311917" lon="10.1006148"><ele>124.5</ele><time>2026-03-29T10:57:00.422Z</time></trkpt><trkpt lat="45.5312448" lon="10.1008028"><ele>125.0</ele><time>2026-03-29T10:57:01.416Z</time></trkpt><trkpt lat="45.5312884" lon="10.1009629"><ele>125.5</ele><time>2026-03-29T10:57:02.419Z</time></trkpt><trkpt lat="45.5313217" lon="10.1010991"><ele>126.0</ele><time>2026-03-29T10:57:03.423Z</time></trkpt><trkpt lat="45.5313454" lon="10.1012225"><ele>126.0</ele><time>2026-03-29T10:57:04.418Z</time></trkpt><trkpt lat="45.5313587" lon="10.1013421"><ele>126.0</ele><time>2026-03-29T10:57:05.45Z</time></trkpt><trkpt lat="45.5313611" lon="10.1014413"><ele>126.0</ele><time>2026-03-29T10:57:06.431Z</time></trkpt><trkpt lat="45.5313443" lon="10.1016246"><ele>126.0</ele><time>2026-03-29T10:57:08.43Z</time></trkpt><trkpt lat="45.5313328" lon="10.101725"><ele>126.0</ele><time>2026-03-29T10:57:09.426Z</time></trkpt><trkpt lat="45.5313175" lon="10.1018384"><ele>126.0</ele><time>2026-03-29T10:57:10.43Z</time></trkpt><trkpt lat="45.5313087" lon="10.1019659"><ele>125.8</ele><time>2026-03-29T10:57:11.41Z</time></trkpt><trkpt lat="45.5313043" lon="10.1021255"><ele>125.6</ele><time>2026-03-29T10:57:12.425Z</time></trkpt><trkpt lat="45.5313033" lon="10.1022865"><ele>125.4</ele><time>2026-03-29T10:57:13.408Z</time></trkpt><trkpt lat="45.5312992" lon="10.1024493"><ele>125.2</ele><time>2026-03-29T10:57:14.424Z</time></trkpt><trkpt lat="45.5312931" lon="10.1025888"><ele>125.0</ele><time>2026-03-29T10:57:15.432Z</time></trkpt><trkpt lat="45.5312817" lon="10.1027141"><ele>124.83333333333333</ele><time>2026-03-29T10:57:16.43Z</time></trkpt><trkpt lat="45.531272" lon="10.1028299"><ele>124.66666666666666</ele><time>2026-03-29T10:57:17.425Z</time></trkpt><trkpt lat="45.5312663" lon="10.1029363"><ele>124.5</ele><time>2026-03-29T10:57:18.426Z</time></trkpt><trkpt lat="45.5312524" lon="10.1030765"><ele>124.33333333333334</ele><time>2026-03-29T10:57:20.421Z</time></trkpt><trkpt lat="45.5312862" lon="10.1029799"><ele>124.16666666666667</ele><time>2026-03-29T10:57:30.421Z</time></trkpt><trkpt lat="45.5312859" lon="10.102873"><ele>124.0</ele><time>2026-03-29T10:57:31.441Z</time></trkpt><trkpt lat="45.5312926" lon="10.10275"><ele>124.0</ele><time>2026-03-29T10:57:32.45Z</time></trkpt><trkpt lat="45.5313007" lon="10.1026033"><ele>124.0</ele><time>2026-03-29T10:57:33.432Z</time></trkpt><trkpt lat="45.5313111" lon="10.1024471"><ele>124.0</ele><time>2026-03-29T10:57:34.43Z</time></trkpt><trkpt lat="45.5313147" lon="10.1022895"><ele>124.0</ele><time>2026-03-29T10:57:35.409Z</time></trkpt><trkpt lat="45.5313174" lon="10.1021171"><ele>124.0</ele><time>2026-03-29T10:57:36.424Z</time></trkpt><trkpt lat="45.5313204" lon="10.1019677"><ele>124.16666666666667</ele><time>2026-03-29T10:57:37.424Z</time></trkpt><trkpt lat="45.5313319" lon="10.1018549"><ele>124.33333333333334</ele><time>2026-03-29T10:57:38.424Z</time></trkpt><trkpt lat="45.53136" lon="10.1017696"><ele>124.5</ele><time>2026-03-29T10:57:39.446Z</time></trkpt><trkpt lat="45.531453" lon="10.1017262"><ele>124.66666666666666</ele><time>2026-03-29T10:57:41.423Z</time></trkpt><trkpt lat="45.5315238" lon="10.1017432"><ele>124.83333333333333</ele><time>2026-03-29T10:57:42.416Z</time></trkpt><trkpt lat="45.5315863" lon="10.1018038"><ele>125.0</ele><time>2026-03-29T10:57:43.428Z</time></trkpt><trkpt lat="45.5316405" lon="10.1018955"><ele>125.0</ele><time>2026-03-29T10:57:44.426Z</time></trkpt><trkpt lat="45.5317079" lon="10.1020152"><ele>125.0</ele><time>2026-03-29T10:57:45.426Z</time></trkpt><trkpt lat="45.5317908" lon="10.1021559"><ele>125.0</ele><time>2026-03-29T10:57:46.417Z</time></trkpt><trkpt lat="45.5318788" lon="10.1023064"><ele>125.0</ele><time>2026-03-29T10:57:47.429Z</time></trkpt><trkpt lat="45.5319669" lon="10.102459"><ele>124.75</ele><time>2026-03-29T10:57:48.417Z</time></trkpt><trkpt lat="45.5320542" lon="10.1026043"><ele>124.5</ele><time>2026-03-29T10:57:49.415Z</time></trkpt><trkpt lat="45.5321376" lon="10.1027477"><ele>124.25</ele><time>2026-03-29T10:57:50.415Z</time></trkpt><trkpt lat="45.5322252" lon="10.1028911"><ele>124.0</ele><time>2026-03-29T10:57:51.419Z</time></trkpt><trkpt lat="45.5323179" lon="10.1030447"><ele>124.66666666666667</ele><time>2026-03-29T10:57:52.41Z</time></trkpt><trkpt lat="45.5324121" lon="10.1032193"><ele>125.33333333333334</ele><time>2026-03-29T10:57:53.41Z</time></trkpt><trkpt lat="45.5325041" lon="10.103419"><ele>126.0</ele><time>2026-03-29T10:57:54.429Z</time></trkpt><trkpt lat="45.5325862" lon="10.1036344"><ele>126.0</ele><time>2026-03-29T10:57:55.435Z</time></trkpt><trkpt lat="45.5326581" lon="10.1038549"><ele>126.0</ele><time>2026-03-29T10:57:56.422Z</time></trkpt><trkpt lat="45.5327224" lon="10.1040814"><ele>126.0</ele><time>2026-03-29T10:57:57.422Z</time></trkpt><trkpt lat="45.5327833" lon="10.1043056"><ele>126.0</ele><time>2026-03-29T10:57:58.419Z</time></trkpt><trkpt lat="45.5328478" lon="10.104533"><ele>126.0</ele><time>2026-03-29T10:57:59.415Z</time></trkpt><trkpt lat="45.5329124" lon="10.1047658"><ele>126.0</ele><time>2026-03-29T10:58:00.425Z</time></trkpt><trkpt lat="45.5329773" lon="10.1049948"><ele>125.66666666666666</ele><time>2026-03-29T10:58:01.422Z</time></trkpt><trkpt lat="45.5330428" lon="10.1052291"><ele>125.33333333333333</ele><time>2026-03-29T10:58:02.423Z</time></trkpt><trkpt lat="45.5331072" lon="10.1054615"><ele>125.0</ele><time>2026-03-29T10:58:03.42Z</time></trkpt><trkpt lat="45.5331648" lon="10.1056898"><ele>125.33333333333333</ele><time>2026-03-29T10:58:04.409Z</time></trkpt><trkpt lat="45.5332131" lon="10.1059195"><ele>125.66666666666666</ele><time>2026-03-29T10:58:05.423Z</time></trkpt><trkpt lat="45.5332481" lon="10.1061476"><ele>126.0</ele><time>2026-03-29T10:58:06.416Z</time></trkpt><trkpt lat="45.5332756" lon="10.1063803"><ele>125.75</ele><time>2026-03-29T10:58:07.437Z</time></trkpt><trkpt lat="45.533299" lon="10.1065929"><ele>125.5</ele><time>2026-03-29T10:58:08.419Z</time></trkpt><trkpt lat="45.5333162" lon="10.1067932"><ele>125.25</ele><time>2026-03-29T10:58:09.423Z</time></trkpt><trkpt lat="45.5333284" lon="10.106983"><ele>125.0</ele><time>2026-03-29T10:58:10.416Z</time></trkpt><trkpt lat="45.5333364" lon="10.1071641"><ele>125.0</ele><time>2026-03-29T10:58:11.433Z</time></trkpt><trkpt lat="45.5333411" lon="10.1073218"><ele>125.0</ele><time>2026-03-29T10:58:12.418Z</time></trkpt><trkpt lat="45.5333382" lon="10.1074662"><ele>125.0</ele><time>2026-03-29T10:58:13.418Z</time></trkpt><trkpt lat="45.5333188" lon="10.1076001"><ele>125.0</ele><time>2026-03-29T10:58:14.431Z</time></trkpt><trkpt lat="45.5332934" lon="10.1077172"><ele>125.0</ele><time>2026-03-29T10:58:15.415Z</time></trkpt><trkpt lat="45.533278" lon="10.1078301"><ele>124.8</ele><time>2026-03-29T10:58:16.414Z</time></trkpt><trkpt lat="45.5332837" lon="10.1079312"><ele>124.6</ele><time>2026-03-29T10:58:17.436Z</time></trkpt><trkpt lat="45.5333142" lon="10.1080375"><ele>124.4</ele><time>2026-03-29T10:58:18.422Z</time></trkpt><trkpt lat="45.5333548" lon="10.1081688"><ele>124.2</ele><time>2026-03-29T10:58:19.452Z</time></trkpt><trkpt lat="45.5333898" lon="10.1083071"><ele>124.0</ele><time>2026-03-29T10:58:20.427Z</time></trkpt><trkpt lat="45.5334107" lon="10.1084738"><ele>124.0</ele><time>2026-03-29T10:58:21.442Z</time></trkpt><trkpt lat="45.5334225" lon="10.1086616"><ele>124.0</ele><time>2026-03-29T10:58:22.418Z</time></trkpt><trkpt lat="45.5334366" lon="10.1088738"><ele>124.0</ele><time>2026-03-29T10:58:23.423Z</time></trkpt><trkpt lat="45.5334513" lon="10.1091068"><ele>124.0</ele><time>2026-03-29T10:58:24.436Z</time></trkpt><trkpt lat="45.5334676" lon="10.1093503"><ele>124.66666666666667</ele><time>2026-03-29T10:58:25.432Z</time></trkpt><trkpt lat="45.5334841" lon="10.1096026"><ele>125.33333333333334</ele><time>2026-03-29T10:58:26.419Z</time></trkpt><trkpt lat="45.5334958" lon="10.1098759"><ele>126.0</ele><time>2026-03-29T10:58:27.446Z</time></trkpt><trkpt lat="45.5335058" lon="10.1101479"><ele>125.33333333333334</ele><time>2026-03-29T10:58:28.421Z</time></trkpt><trkpt lat="45.533516" lon="10.1104256"><ele>124.66666666666667</ele><time>2026-03-29T10:58:29.423Z</time></trkpt><trkpt lat="45.5335286" lon="10.1107073"><ele>124.0</ele><time>2026-03-29T10:58:30.424Z</time></trkpt><trkpt lat="45.5335418" lon="10.1109954"><ele>124.0</ele><time>2026-03-29T10:58:31.426Z</time></trkpt><trkpt lat="45.5335544" lon="10.1112911"><ele>124.0</ele><time>2026-03-29T10:58:32.431Z</time></trkpt><trkpt lat="45.5335672" lon="10.1115812"><ele>124.0</ele><time>2026-03-29T10:58:33.427Z</time></trkpt><trkpt lat="45.5335792" lon="10.11186"><ele>123.33333333333334</ele><time>2026-03-29T10:58:34.406Z</time></trkpt><trkpt lat="45.5335872" lon="10.1121356"><ele>122.66666666666666</ele><time>2026-03-29T10:58:35.409Z</time></trkpt><trkpt lat="45.5335879" lon="10.1124058"><ele>122.0</ele><time>2026-03-29T10:58:36.43Z</time></trkpt><trkpt lat="45.5335762" lon="10.1126742"><ele>122.0</ele><time>2026-03-29T10:58:37.424Z</time></trkpt><trkpt lat="45.5335555" lon="10.1129518"><ele>122.0</ele><time>2026-03-29T10:58:38.438Z</time></trkpt><trkpt lat="45.5335282" lon="10.1132158"><ele>122.0</ele><time>2026-03-29T10:58:39.413Z</time></trkpt><trkpt lat="45.5334996" lon="10.113492"><ele>122.0</ele><time>2026-03-29T10:58:40.42Z</time></trkpt><trkpt lat="45.5334743" lon="10.1137669"><ele>122.0</ele><time>2026-03-29T10:58:41.421Z</time></trkpt><trkpt lat="45.5334513" lon="10.1140339"><ele>122.0</ele><time>2026-03-29T10:58:42.406Z</time></trkpt><trkpt lat="45.5334304" lon="10.1142963"><ele>122.66666666666666</ele><time>2026-03-29T10:58:43.424Z</time></trkpt><trkpt lat="45.5334129" lon="10.1145491"><ele>123.33333333333334</ele><time>2026-03-29T10:58:44.414Z</time></trkpt><trkpt lat="45.5334011" lon="10.114812"><ele>124.0</ele><time>2026-03-29T10:58:45.439Z</time></trkpt><trkpt lat="45.5334004" lon="10.1150627"><ele>124.0</ele><time>2026-03-29T10:58:46.411Z</time></trkpt><trkpt lat="45.5334045" lon="10.1153174"><ele>124.0</ele><time>2026-03-29T10:58:47.424Z</time></trkpt><trkpt lat="45.5334112" lon="10.1155739"><ele>124.0</ele><time>2026-03-29T10:58:48.431Z</time></trkpt><trkpt lat="45.5334116" lon="10.1158231"><ele>123.66666666666667</ele><time>2026-03-29T10:58:49.416Z</time></trkpt><trkpt lat="45.5334064" lon="10.1160578"><ele>123.33333333333334</ele><time>2026-03-29T10:58:50.417Z</time></trkpt><trkpt lat="45.5333941" lon="10.116289"><ele>123.0</ele><time>2026-03-29T10:58:51.426Z</time></trkpt><trkpt lat="45.5333779" lon="10.1165118"><ele>122.5</ele><time>2026-03-29T10:58:52.453Z</time></trkpt><trkpt lat="45.5333611" lon="10.1167067"><ele>122.0</ele><time>2026-03-29T10:58:53.417Z</time></trkpt><trkpt lat="45.5333399" lon="10.1169071"><ele>121.5</ele><time>2026-03-29T10:58:54.432Z</time></trkpt><trkpt lat="45.5333151" lon="10.1170865"><ele>121.0</ele><time>2026-03-29T10:58:55.422Z</time></trkpt><trkpt lat="45.5332871" lon="10.1172587"><ele>121.19999999999999</ele><time>2026-03-29T10:58:56.422Z</time></trkpt><trkpt lat="45.5332597" lon="10.1174186"><ele>121.39999999999999</ele><time>2026-03-29T10:58:57.415Z</time></trkpt><trkpt lat="45.5332355" lon="10.117573"><ele>121.6</ele><time>2026-03-29T10:58:58.415Z</time></trkpt><trkpt lat="45.5332126" lon="10.1177253"><ele>121.8</ele><time>2026-03-29T10:58:59.455Z</time></trkpt><trkpt lat="45.5331935" lon="10.1178567"><ele>122.0</ele><time>2026-03-29T10:59:00.425Z</time></trkpt><trkpt lat="45.5331765" lon="10.1179857"><ele>121.99999999999999</ele><time>2026-03-29T10:59:01.428Z</time></trkpt><trkpt lat="45.5331562" lon="10.1181046"><ele>122.0</ele><time>2026-03-29T10:59:02.418Z</time></trkpt><trkpt lat="45.5331399" lon="10.1182188"><ele>122.0</ele><time>2026-03-29T10:59:03.432Z</time></trkpt><trkpt lat="45.5331232" lon="10.1183227"><ele>122.0</ele><time>2026-03-29T10:59:04.447Z</time></trkpt><trkpt lat="45.5331096" lon="10.1184203"><ele>121.99999999999999</ele><time>2026-03-29T10:59:05.423Z</time></trkpt><trkpt lat="45.5330984" lon="10.1185101"><ele>122.0</ele><time>2026-03-29T10:59:06.426Z</time></trkpt><trkpt lat="45.533074" lon="10.1186692"><ele>122.16666666666666</ele><time>2026-03-29T10:59:08.438Z</time></trkpt><trkpt lat="45.5330527" lon="10.118818"><ele>122.33333333333333</ele><time>2026-03-29T10:59:10.433Z</time></trkpt><trkpt lat="45.5330362" lon="10.1189219"><ele>122.5</ele><time>2026-03-29T10:59:12.432Z</time></trkpt><trkpt lat="45.5330171" lon="10.1190462"><ele>122.66666666666666</ele><time>2026-03-29T10:59:14.454Z</time></trkpt><trkpt lat="45.533002" lon="10.1191364"><ele>122.83333333333333</ele><time>2026-03-29T10:59:15.412Z</time></trkpt><trkpt lat="45.5329832" lon="10.1192427"><ele>123.0</ele><time>2026-03-29T10:59:16.427Z</time></trkpt><trkpt lat="45.5329667" lon="10.1193716"><ele>122.5</ele><time>2026-03-29T10:59:17.412Z</time></trkpt><trkpt lat="45.5329476" lon="10.1195247"><ele>122.0</ele><time>2026-03-29T10:59:18.412Z</time></trkpt><trkpt lat="45.5329289" lon="10.1196807"><ele>121.5</ele><time>2026-03-29T10:59:19.415Z</time></trkpt><trkpt lat="45.5329042" lon="10.1198481"><ele>121.0</ele><time>2026-03-29T10:59:20.442Z</time></trkpt><trkpt lat="45.5328769" lon="10.1200232"><ele>120.75</ele><time>2026-03-29T10:59:21.422Z</time></trkpt><trkpt lat="45.5328493" lon="10.1202207"><ele>120.5</ele><time>2026-03-29T10:59:22.447Z</time></trkpt><trkpt lat="45.5328208" lon="10.1204236"><ele>120.25</ele><time>2026-03-29T10:59:23.424Z</time></trkpt><trkpt lat="45.5327916" lon="10.1206208"><ele>120.0</ele><time>2026-03-29T10:59:24.418Z</time></trkpt><trkpt lat="45.5327621" lon="10.1208267"><ele>120.0</ele><time>2026-03-29T10:59:25.412Z</time></trkpt><trkpt lat="45.5327263" lon="10.1210416"><ele>120.0</ele><time>2026-03-29T10:59:26.414Z</time></trkpt><trkpt lat="45.5326913" lon="10.1212733"><ele>120.0</ele><time>2026-03-29T10:59:27.456Z</time></trkpt><trkpt lat="45.5326598" lon="10.1214906"><ele>120.0</ele><time>2026-03-29T10:59:28.419Z</time></trkpt><trkpt lat="45.5326239" lon="10.1217279"><ele>120.0</ele><time>2026-03-29T10:59:29.433Z</time></trkpt><trkpt lat="45.5325861" lon="10.121965"><ele>120.0</ele><time>2026-03-29T10:59:30.448Z</time></trkpt><trkpt lat="45.532552" lon="10.1222009"><ele>119.66666666666666</ele><time>2026-03-29T10:59:31.429Z</time></trkpt><trkpt lat="45.5325152" lon="10.122445"><ele>119.33333333333333</ele><time>2026-03-29T10:59:32.428Z</time></trkpt><trkpt lat="45.5324799" lon="10.1226812"><ele>119.0</ele><time>2026-03-29T10:59:33.414Z</time></trkpt><trkpt lat="45.532444" lon="10.1229297"><ele>119.0</ele><time>2026-03-29T10:59:34.454Z</time></trkpt><trkpt lat="45.5324084" lon="10.1231713"><ele>119.0</ele><time>2026-03-29T10:59:35.436Z</time></trkpt><trkpt lat="45.532372" lon="10.1234143"><ele>119.0</ele><time>2026-03-29T10:59:36.425Z</time></trkpt><trkpt lat="45.532338" lon="10.1236543"><ele>119.0</ele><time>2026-03-29T10:59:37.41Z</time></trkpt><trkpt lat="45.532303" lon="10.123895"><ele>119.0</ele><time>2026-03-29T10:59:38.409Z</time></trkpt><trkpt lat="45.5322638" lon="10.1241334"><ele>119.0</ele><time>2026-03-29T10:59:39.424Z</time></trkpt><trkpt lat="45.5322247" lon="10.1243907"><ele>118.66666666666666</ele><time>2026-03-29T10:59:40.561Z</time></trkpt><trkpt lat="45.5321699" lon="10.124788"><ele>118.33333333333334</ele><time>2026-03-29T10:59:42.427Z</time></trkpt><trkpt lat="45.5321449" lon="10.1249781"><ele>118.0</ele><time>2026-03-29T10:59:43.423Z</time></trkpt><trkpt lat="45.5321225" lon="10.1251774"><ele>118.0</ele><time>2026-03-29T10:59:44.419Z</time></trkpt><trkpt lat="45.5320981" lon="10.1253796"><ele>118.0</ele><time>2026-03-29T10:59:45.431Z</time></trkpt><trkpt lat="45.5320656" lon="10.1255899"><ele>118.0</ele><time>2026-03-29T10:59:46.414Z</time></trkpt><trkpt lat="45.5320354" lon="10.1257995"><ele>118.0</ele><time>2026-03-29T10:59:47.421Z</time></trkpt><trkpt lat="45.5320079" lon="10.1260079"><ele>118.25</ele><time>2026-03-29T10:59:48.421Z</time></trkpt><trkpt lat="45.5319838" lon="10.1262131"><ele>118.5</ele><time>2026-03-29T10:59:49.423Z</time></trkpt><trkpt lat="45.5319623" lon="10.126408"><ele>118.75</ele><time>2026-03-29T10:59:50.418Z</time></trkpt><trkpt lat="45.5319509" lon="10.1266193"><ele>119.0</ele><time>2026-03-29T10:59:51.428Z</time></trkpt><trkpt lat="45.5319611" lon="10.1268207"><ele>119.0</ele><time>2026-03-29T10:59:52.424Z</time></trkpt><trkpt lat="45.5319835" lon="10.1270264"><ele>119.0</ele><time>2026-03-29T10:59:53.421Z</time></trkpt><trkpt lat="45.532011" lon="10.1272281"><ele>119.0</ele><time>2026-03-29T10:59:54.428Z</time></trkpt><trkpt lat="45.5320445" lon="10.1274222"><ele>119.0</ele><time>2026-03-29T10:59:55.432Z</time></trkpt><trkpt lat="45.5320782" lon="10.1276104"><ele>118.75</ele><time>2026-03-29T10:59:56.437Z</time></trkpt><trkpt lat="45.5321122" lon="10.1277931"><ele>118.5</ele><time>2026-03-29T10:59:57.427Z</time></trkpt><trkpt lat="45.5321426" lon="10.1279767"><ele>118.25</ele><time>2026-03-29T10:59:58.412Z</time></trkpt><trkpt lat="45.5321754" lon="10.1281672"><ele>118.0</ele><time>2026-03-29T10:59:59.422Z</time></trkpt><trkpt lat="45.5322083" lon="10.128355"><ele>118.0</ele><time>2026-03-29T11:00:00.415Z</time></trkpt><trkpt lat="45.532237" lon="10.1285519"><ele>118.0</ele><time>2026-03-29T11:00:01.433Z</time></trkpt><trkpt lat="45.5322622" lon="10.1287438"><ele>118.0</ele><time>2026-03-29T11:00:02.427Z</time></trkpt><trkpt lat="45.5322811" lon="10.1289409"><ele>118.0</ele><time>2026-03-29T11:00:03.423Z</time></trkpt><trkpt lat="45.5322906" lon="10.1291447"><ele>118.25</ele><time>2026-03-29T11:00:04.423Z</time></trkpt><trkpt lat="45.5322895" lon="10.1293549"><ele>118.5</ele><time>2026-03-29T11:00:05.422Z</time></trkpt><trkpt lat="45.5322853" lon="10.1295728"><ele>118.75</ele><time>2026-03-29T11:00:06.434Z</time></trkpt><trkpt lat="45.5322764" lon="10.1297821"><ele>119.0</ele><time>2026-03-29T11:00:07.431Z</time></trkpt><trkpt lat="45.5322613" lon="10.1299801"><ele>119.0</ele><time>2026-03-29T11:00:08.421Z</time></trkpt><trkpt lat="45.5322447" lon="10.1301714"><ele>119.0</ele><time>2026-03-29T11:00:09.418Z</time></trkpt><trkpt lat="45.5322295" lon="10.1303499"><ele>119.0</ele><time>2026-03-29T11:00:10.422Z</time></trkpt><trkpt lat="45.5322114" lon="10.1305087"><ele>119.0</ele><time>2026-03-29T11:00:11.407Z</time></trkpt><trkpt lat="45.5321935" lon="10.1306639"><ele>118.6</ele><time>2026-03-29T11:00:12.436Z</time></trkpt><trkpt lat="45.5321752" lon="10.130813"><ele>118.2</ele><time>2026-03-29T11:00:13.432Z</time></trkpt><trkpt lat="45.5321575" lon="10.1309641"><ele>117.79999999999998</ele><time>2026-03-29T11:00:14.429Z</time></trkpt><trkpt lat="45.5321402" lon="10.1311278"><ele>117.39999999999999</ele><time>2026-03-29T11:00:15.428Z</time></trkpt><trkpt lat="45.5321224" lon="10.1312971"><ele>117.0</ele><time>2026-03-29T11:00:16.419Z</time></trkpt><trkpt lat="45.5321046" lon="10.1314767"><ele>117.25</ele><time>2026-03-29T11:00:17.418Z</time></trkpt><trkpt lat="45.5320828" lon="10.1316599"><ele>117.5</ele><time>2026-03-29T11:00:18.411Z</time></trkpt><trkpt lat="45.5320634" lon="10.1318544"><ele>117.75</ele><time>2026-03-29T11:00:19.418Z</time></trkpt><trkpt lat="45.5320448" lon="10.1320551"><ele>118.0</ele><time>2026-03-29T11:00:20.432Z</time></trkpt><trkpt lat="45.5320241" lon="10.1322555"><ele>118.5</ele><time>2026-03-29T11:00:21.429Z</time></trkpt><trkpt lat="45.5320004" lon="10.1324594"><ele>119.0</ele><time>2026-03-29T11:00:22.437Z</time></trkpt><trkpt lat="45.5319781" lon="10.1326636"><ele>119.5</ele><time>2026-03-29T11:00:23.422Z</time></trkpt><trkpt lat="45.5319569" lon="10.1328638"><ele>120.0</ele><time>2026-03-29T11:00:24.431Z</time></trkpt><trkpt lat="45.5319353" lon="10.1330456"><ele>119.8</ele><time>2026-03-29T11:00:25.42Z</time></trkpt><trkpt lat="45.5319105" lon="10.1332229"><ele>119.6</ele><time>2026-03-29T11:00:26.425Z</time></trkpt><trkpt lat="45.5318926" lon="10.1333785"><ele>119.4</ele><time>2026-03-29T11:00:27.42Z</time></trkpt><trkpt lat="45.5318774" lon="10.1335078"><ele>119.2</ele><time>2026-03-29T11:00:28.433Z</time></trkpt><trkpt lat="45.5318706" lon="10.1336029"><ele>119.0</ele><time>2026-03-29T11:00:29.424Z</time></trkpt><trkpt lat="45.5319014" lon="10.1337006"><ele>118.99999999999999</ele><time>2026-03-29T11:00:31.435Z</time></trkpt><trkpt lat="45.5319714" lon="10.1336907"><ele>119.0</ele><time>2026-03-29T11:00:33.441Z</time></trkpt><trkpt lat="45.5320768" lon="10.1336755"><ele>119.0</ele><time>2026-03-29T11:00:35.426Z</time></trkpt><trkpt lat="45.5321479" lon="10.1336924"><ele>119.0</ele><time>2026-03-29T11:00:36.434Z</time></trkpt><trkpt lat="45.5322273" lon="10.1337003"><ele>118.99999999999999</ele><time>2026-03-29T11:00:37.435Z</time></trkpt><trkpt lat="45.5323138" lon="10.1337158"><ele>119.0</ele><time>2026-03-29T11:00:38.441Z</time></trkpt><trkpt lat="45.532401" lon="10.1337333"><ele>119.0</ele><time>2026-03-29T11:00:39.41Z</time></trkpt><trkpt lat="45.5324867" lon="10.1337532"><ele>119.0</ele><time>2026-03-29T11:00:40.427Z</time></trkpt><trkpt lat="45.532573" lon="10.1337703"><ele>119.0</ele><time>2026-03-29T11:00:41.412Z</time></trkpt><trkpt lat="45.5326633" lon="10.1337879"><ele>119.0</ele><time>2026-03-29T11:00:42.422Z</time></trkpt><trkpt lat="45.5327534" lon="10.1338058"><ele>119.0</ele><time>2026-03-29T11:00:43.42Z</time></trkpt><trkpt lat="45.5328464" lon="10.1338257"><ele>118.80000000000001</ele><time>2026-03-29T11:00:44.416Z</time></trkpt><trkpt lat="45.5329439" lon="10.1338515"><ele>118.60000000000001</ele><time>2026-03-29T11:00:45.417Z</time></trkpt><trkpt lat="45.5330409" lon="10.1338748"><ele>118.4</ele><time>2026-03-29T11:00:46.423Z</time></trkpt><trkpt lat="45.5331387" lon="10.1339068"><ele>118.2</ele><time>2026-03-29T11:00:47.427Z</time></trkpt><trkpt lat="45.5332337" lon="10.1339279"><ele>118.0</ele><time>2026-03-29T11:00:48.429Z</time></trkpt><trkpt lat="45.5333305" lon="10.1339581"><ele>118.0</ele><time>2026-03-29T11:00:49.435Z</time></trkpt><trkpt lat="45.5334296" lon="10.1339854"><ele>118.00000000000001</ele><time>2026-03-29T11:00:50.434Z</time></trkpt><trkpt lat="45.5335283" lon="10.1340101"><ele>118.00000000000001</ele><time>2026-03-29T11:00:51.419Z</time></trkpt><trkpt lat="45.5336261" lon="10.1340371"><ele>118.0</ele><time>2026-03-29T11:00:52.444Z</time></trkpt><trkpt lat="45.5337027" lon="10.1340648"><ele>118.0</ele><time>2026-03-29T11:00:53.422Z</time></trkpt><trkpt lat="45.5337847" lon="10.1340836"><ele>117.80000000000001</ele><time>2026-03-29T11:00:54.423Z</time></trkpt><trkpt lat="45.5338766" lon="10.1340988"><ele>117.60000000000001</ele><time>2026-03-29T11:00:55.437Z</time></trkpt><trkpt lat="45.5339707" lon="10.1341188"><ele>117.39999999999999</ele><time>2026-03-29T11:00:56.435Z</time></trkpt><trkpt lat="45.5340695" lon="10.1341349"><ele>117.19999999999999</ele><time>2026-03-29T11:00:57.424Z</time></trkpt><trkpt lat="45.5341636" lon="10.1341751"><ele>117.0</ele><time>2026-03-29T11:00:58.413Z</time></trkpt><trkpt lat="45.5342574" lon="10.1342153"><ele>117.0</ele><time>2026-03-29T11:00:59.423Z</time></trkpt><trkpt lat="45.5343475" lon="10.134246"><ele>117.0</ele><time>2026-03-29T11:01:00.42Z</time></trkpt><trkpt lat="45.5344458" lon="10.1342768"><ele>117.0</ele><time>2026-03-29T11:01:01.431Z</time></trkpt><trkpt lat="45.5345323" lon="10.1343004"><ele>117.0</ele><time>2026-03-29T11:01:02.422Z</time></trkpt><trkpt lat="45.5346178" lon="10.1343186"><ele>117.0</ele><time>2026-03-29T11:01:03.431Z</time></trkpt><trkpt lat="45.5346887" lon="10.1343363"><ele>117.0</ele><time>2026-03-29T11:01:04.439Z</time></trkpt><trkpt lat="45.5347563" lon="10.1343566"><ele>117.33333333333333</ele><time>2026-03-29T11:01:05.438Z</time></trkpt><trkpt lat="45.5348275" lon="10.1343783"><ele>117.66666666666666</ele><time>2026-03-29T11:01:06.439Z</time></trkpt><trkpt lat="45.5349013" lon="10.1343978"><ele>118.0</ele><time>2026-03-29T11:01:07.424Z</time></trkpt><trkpt lat="45.534975" lon="10.1344217"><ele>118.33333333333333</ele><time>2026-03-29T11:01:08.428Z</time></trkpt><trkpt lat="45.5350534" lon="10.1344437"><ele>118.66666666666666</ele><time>2026-03-29T11:01:09.434Z</time></trkpt><trkpt lat="45.5351351" lon="10.1344656"><ele>119.0</ele><time>2026-03-29T11:01:10.432Z</time></trkpt><trkpt lat="45.53522" lon="10.1344855"><ele>118.99999999999999</ele><time>2026-03-29T11:01:11.444Z</time></trkpt><trkpt lat="45.5353017" lon="10.1345055"><ele>119.0</ele><time>2026-03-29T11:01:12.427Z</time></trkpt><trkpt lat="45.5353865" lon="10.1345271"><ele>119.0</ele><time>2026-03-29T11:01:13.426Z</time></trkpt><trkpt lat="45.5354709" lon="10.1345468"><ele>119.0</ele><time>2026-03-29T11:01:14.43Z</time></trkpt><trkpt lat="45.5355538" lon="10.1345664"><ele>118.99999999999999</ele><time>2026-03-29T11:01:15.455Z</time></trkpt><trkpt lat="45.5356256" lon="10.1345835"><ele>119.0</ele><time>2026-03-29T11:01:16.437Z</time></trkpt><trkpt lat="45.5356912" lon="10.1345994"><ele>119.16666666666666</ele><time>2026-03-29T11:01:17.419Z</time></trkpt><trkpt lat="45.5357974" lon="10.1346215"><ele>119.33333333333333</ele><time>2026-03-29T11:01:19.416Z</time></trkpt><trkpt lat="45.5358698" lon="10.1346446"><ele>119.5</ele><time>2026-03-29T11:01:21.428Z</time></trkpt><trkpt lat="45.5359324" lon="10.1347154"><ele>119.66666666666666</ele><time>2026-03-29T11:01:23.424Z</time></trkpt><trkpt lat="45.5359632" lon="10.1348547"><ele>119.83333333333333</ele><time>2026-03-29T11:01:25.422Z</time></trkpt><trkpt lat="45.5359536" lon="10.1349612"><ele>120.0</ele><time>2026-03-29T11:01:26.464Z</time></trkpt><trkpt lat="45.5359367" lon="10.1350706"><ele>120.2</ele><time>2026-03-29T11:01:27.409Z</time></trkpt><trkpt lat="45.5359226" lon="10.1352056"><ele>120.4</ele><time>2026-03-29T11:01:28.421Z</time></trkpt><trkpt lat="45.5359083" lon="10.1353542"><ele>120.6</ele><time>2026-03-29T11:01:29.416Z</time></trkpt><trkpt lat="45.5358905" lon="10.1355082"><ele>120.8</ele><time>2026-03-29T11:01:30.428Z</time></trkpt><trkpt lat="45.5358692" lon="10.1356644"><ele>121.0</ele><time>2026-03-29T11:01:31.424Z</time></trkpt><trkpt lat="45.53585" lon="10.1358256"><ele>121.0</ele><time>2026-03-29T11:01:32.426Z</time></trkpt><trkpt lat="45.5358316" lon="10.1359817"><ele>121.0</ele><time>2026-03-29T11:01:33.427Z</time></trkpt><trkpt lat="45.5358181" lon="10.1361303"><ele>121.0</ele><time>2026-03-29T11:01:34.42Z</time></trkpt><trkpt lat="45.5358028" lon="10.1362625"><ele>121.0</ele><time>2026-03-29T11:01:35.417Z</time></trkpt><trkpt lat="45.5357891" lon="10.1363863"><ele>121.0</ele><time>2026-03-29T11:01:36.427Z</time></trkpt><trkpt lat="45.5357776" lon="10.1365067"><ele>120.66666666666667</ele><time>2026-03-29T11:01:37.424Z</time></trkpt><trkpt lat="45.5357704" lon="10.1366116"><ele>120.33333333333334</ele><time>2026-03-29T11:01:38.445Z</time></trkpt><trkpt lat="45.5357589" lon="10.1367218"><ele>120.0</ele><time>2026-03-29T11:01:39.43Z</time></trkpt><trkpt lat="45.5357463" lon="10.1368413"><ele>119.66666666666666</ele><time>2026-03-29T11:01:40.422Z</time></trkpt><trkpt lat="45.535733" lon="10.1369624"><ele>119.33333333333333</ele><time>2026-03-29T11:01:41.423Z</time></trkpt><trkpt lat="45.5357222" lon="10.1370681"><ele>119.0</ele><time>2026-03-29T11:01:42.416Z</time></trkpt><trkpt lat="45.5357123" lon="10.137165"><ele>119.0</ele><time>2026-03-29T11:01:43.421Z</time></trkpt><trkpt lat="45.5356948" lon="10.1373397"><ele>119.0</ele><time>2026-03-29T11:01:45.424Z</time></trkpt><trkpt lat="45.5356771" lon="10.1374755"><ele>119.0</ele><time>2026-03-29T11:01:47.438Z</time></trkpt><trkpt lat="45.5356248" lon="10.1375909"><ele>119.0</ele><time>2026-03-29T11:01:49.433Z</time></trkpt><trkpt lat="45.5355482" lon="10.1376753"><ele>119.0</ele><time>2026-03-29T11:01:51.43Z</time></trkpt><trkpt lat="45.5354865" lon="10.1377835"><ele>119.0</ele><time>2026-03-29T11:01:53.429Z</time></trkpt><trkpt lat="45.5354567" lon="10.1379372"><ele>119.0</ele><time>2026-03-29T11:01:55.427Z</time></trkpt><trkpt lat="45.5354437" lon="10.1381062"><ele>119.0</ele><time>2026-03-29T11:01:57.452Z</time></trkpt><trkpt lat="45.5354146" lon="10.1382638"><ele>119.0</ele><time>2026-03-29T11:01:59.425Z</time></trkpt><trkpt lat="45.535387" lon="10.1384393"><ele>119.16666666666666</ele><time>2026-03-29T11:02:01.422Z</time></trkpt><trkpt lat="45.5353771" lon="10.1385287"><ele>119.33333333333333</ele><time>2026-03-29T11:02:02.426Z</time></trkpt><trkpt lat="45.5353677" lon="10.1386195"><ele>119.5</ele><time>2026-03-29T11:02:03.42Z</time></trkpt><trkpt lat="45.5353573" lon="10.13871"><ele>119.66666666666666</ele><time>2026-03-29T11:02:04.432Z</time></trkpt><trkpt lat="45.5353456" lon="10.1388006"><ele>119.83333333333333</ele><time>2026-03-29T11:02:05.432Z</time></trkpt><trkpt lat="45.5353257" lon="10.1389896"><ele>120.0</ele><time>2026-03-29T11:02:07.431Z</time></trkpt><trkpt lat="45.5353089" lon="10.1390948"><ele>119.66666666666667</ele><time>2026-03-29T11:02:08.428Z</time></trkpt><trkpt lat="45.5352923" lon="10.1391912"><ele>119.33333333333334</ele><time>2026-03-29T11:02:09.428Z</time></trkpt><trkpt lat="45.5352742" lon="10.1392862"><ele>119.0</ele><time>2026-03-29T11:02:10.431Z</time></trkpt><trkpt lat="45.5352591" lon="10.1393771"><ele>118.66666666666667</ele><time>2026-03-29T11:02:11.427Z</time></trkpt><trkpt lat="45.5352446" lon="10.1394667"><ele>118.33333333333334</ele><time>2026-03-29T11:02:12.454Z</time></trkpt><trkpt lat="45.5352186" lon="10.1396357"><ele>118.0</ele><time>2026-03-29T11:02:14.427Z</time></trkpt><trkpt lat="45.5352084" lon="10.139725"><ele>117.80000000000001</ele><time>2026-03-29T11:02:15.429Z</time></trkpt><trkpt lat="45.5351811" lon="10.1398953"><ele>117.60000000000001</ele><time>2026-03-29T11:02:17.422Z</time></trkpt><trkpt lat="45.5351527" lon="10.1400685"><ele>117.39999999999999</ele><time>2026-03-29T11:02:19.426Z</time></trkpt><trkpt lat="45.5351226" lon="10.1402427"><ele>117.19999999999999</ele><time>2026-03-29T11:02:21.435Z</time></trkpt><trkpt lat="45.5351057" lon="10.1403309"><ele>117.0</ele><time>2026-03-29T11:02:22.418Z</time></trkpt><trkpt lat="45.5350872" lon="10.1404198"><ele>117.0</ele><time>2026-03-29T11:02:23.463Z</time></trkpt><trkpt lat="45.5350527" lon="10.140586"><ele>116.99999999999999</ele><time>2026-03-29T11:02:25.428Z</time></trkpt><trkpt lat="45.5350199" lon="10.1407609"><ele>116.99999999999999</ele><time>2026-03-29T11:02:27.413Z</time></trkpt><trkpt lat="45.5350024" lon="10.1408549"><ele>117.0</ele><time>2026-03-29T11:02:28.428Z</time></trkpt><trkpt lat="45.53499" lon="10.1409538"><ele>117.0</ele><time>2026-03-29T11:02:29.427Z</time></trkpt><trkpt lat="45.5349773" lon="10.141053"><ele>117.14285714285715</ele><time>2026-03-29T11:02:30.418Z</time></trkpt><trkpt lat="45.5349631" lon="10.1411505"><ele>117.2857142857143</ele><time>2026-03-29T11:02:31.412Z</time></trkpt><trkpt lat="45.5349485" lon="10.1412531"><ele>117.42857142857143</ele><time>2026-03-29T11:02:32.43Z</time></trkpt><trkpt lat="45.5349336" lon="10.1413496"><ele>117.57142857142858</ele><time>2026-03-29T11:02:33.431Z</time></trkpt><trkpt lat="45.5349182" lon="10.1414534"><ele>117.71428571428572</ele><time>2026-03-29T11:02:34.44Z</time></trkpt><trkpt lat="45.5349062" lon="10.1415507"><ele>117.85714285714286</ele><time>2026-03-29T11:02:35.428Z</time></trkpt><trkpt lat="45.5348933" lon="10.1416558"><ele>118.0</ele><time>2026-03-29T11:02:36.429Z</time></trkpt><trkpt lat="45.5348739" lon="10.1417532"><ele>118.0</ele><time>2026-03-29T11:02:37.423Z</time></trkpt><trkpt lat="45.5348534" lon="10.1418494"><ele>118.0</ele><time>2026-03-29T11:02:38.432Z</time></trkpt><trkpt lat="45.5348334" lon="10.1419468"><ele>118.0</ele><time>2026-03-29T11:02:39.453Z</time></trkpt><trkpt lat="45.5348141" lon="10.1420449"><ele>118.0</ele><time>2026-03-29T11:02:40.429Z</time></trkpt><trkpt lat="45.5347985" lon="10.1421323"><ele>118.0</ele><time>2026-03-29T11:02:41.426Z</time></trkpt><trkpt lat="45.5347811" lon="10.1422316"><ele>118.0</ele><time>2026-03-29T11:02:42.433Z</time></trkpt><trkpt lat="45.5347658" lon="10.1423306"><ele>118.0</ele><time>2026-03-29T11:02:43.432Z</time></trkpt><trkpt lat="45.5347298" lon="10.1425014"><ele>118.0</ele><time>2026-03-29T11:02:45.44Z</time></trkpt><trkpt lat="45.5347124" lon="10.1425887"><ele>118.00000000000001</ele><time>2026-03-29T11:02:46.417Z</time></trkpt><trkpt lat="45.5346953" lon="10.142681"><ele>118.00000000000001</ele><time>2026-03-29T11:02:47.432Z</time></trkpt><trkpt lat="45.5346546" lon="10.1428416"><ele>118.0</ele><time>2026-03-29T11:02:49.424Z</time></trkpt><trkpt lat="45.534595" lon="10.1429685"><ele>118.0</ele><time>2026-03-29T11:02:51.441Z</time></trkpt><trkpt lat="45.5345021" lon="10.1430621"><ele>118.00000000000001</ele><time>2026-03-29T11:02:53.424Z</time></trkpt><trkpt lat="45.5344435" lon="10.1430954"><ele>118.0</ele><time>2026-03-29T11:02:54.425Z</time></trkpt><trkpt lat="45.5343598" lon="10.143196"><ele>118.0</ele><time>2026-03-29T11:02:56.43Z</time></trkpt><trkpt lat="45.534333" lon="10.1432783"><ele>118.0</ele><time>2026-03-29T11:02:57.43Z</time></trkpt><trkpt lat="45.534298" lon="10.1434415"><ele>118.00000000000001</ele><time>2026-03-29T11:02:59.413Z</time></trkpt><trkpt lat="45.5342793" lon="10.1435348"><ele>118.0</ele><time>2026-03-29T11:03:00.437Z</time></trkpt><trkpt lat="45.5342586" lon="10.1436224"><ele>118.33333333333334</ele><time>2026-03-29T11:03:01.436Z</time></trkpt><trkpt lat="45.5342382" lon="10.1437104"><ele>118.66666666666667</ele><time>2026-03-29T11:03:02.423Z</time></trkpt><trkpt lat="45.5342189" lon="10.1437993"><ele>119.0</ele><time>2026-03-29T11:03:03.421Z</time></trkpt><trkpt lat="45.5341986" lon="10.1438963"><ele>119.33333333333334</ele><time>2026-03-29T11:03:04.43Z</time></trkpt><trkpt lat="45.5341793" lon="10.1439858"><ele>119.66666666666667</ele><time>2026-03-29T11:03:05.415Z</time></trkpt><trkpt lat="45.534145" lon="10.1441497"><ele>120.0</ele><time>2026-03-29T11:03:07.434Z</time></trkpt><trkpt lat="45.5341098" lon="10.1443014"><ele>120.0</ele><time>2026-03-29T11:03:09.416Z</time></trkpt><trkpt lat="45.5340437" lon="10.144392"><ele>120.0</ele><time>2026-03-29T11:03:11.42Z</time></trkpt><trkpt lat="45.5339774" lon="10.1444108"><ele>120.0</ele><time>2026-03-29T11:03:12.425Z</time></trkpt><trkpt lat="45.5339003" lon="10.1444062"><ele>120.0</ele><time>2026-03-29T11:03:13.434Z</time></trkpt><trkpt lat="45.5338151" lon="10.1443877"><ele>120.0</ele><time>2026-03-29T11:03:14.426Z</time></trkpt><trkpt lat="45.5337158" lon="10.1443718"><ele>120.0</ele><time>2026-03-29T11:03:15.429Z</time></trkpt><trkpt lat="45.5336217" lon="10.1443584"><ele>120.0</ele><time>2026-03-29T11:03:16.422Z</time></trkpt><trkpt lat="45.5335194" lon="10.1443495"><ele>120.0</ele><time>2026-03-29T11:03:17.42Z</time></trkpt><trkpt lat="45.5334109" lon="10.1443391"><ele>120.0</ele><time>2026-03-29T11:03:18.428Z</time></trkpt><trkpt lat="45.5332987" lon="10.1443281"><ele>120.0</ele><time>2026-03-29T11:03:19.442Z</time></trkpt><trkpt lat="45.5332144" lon="10.1443223"><ele>120.0</ele><time>2026-03-29T11:03:20.424Z</time></trkpt><trkpt lat="45.5331423" lon="10.1443318"><ele>120.0</ele><time>2026-03-29T11:03:22.435Z</time></trkpt><trkpt lat="45.5331196" lon="10.1444187"><ele>120.0</ele><time>2026-03-29T11:03:24.431Z</time></trkpt><trkpt lat="45.5330909" lon="10.1445036"><ele>120.0</ele><time>2026-03-29T11:03:26.434Z</time></trkpt><trkpt lat="45.5330854" lon="10.1446355"><ele>120.0</ele><time>2026-03-29T11:03:28.423Z</time></trkpt><trkpt lat="45.5331657" lon="10.144696"><ele>120.0</ele><time>2026-03-29T11:03:30.421Z</time></trkpt><trkpt lat="45.5332276" lon="10.1446737"><ele>120.0</ele><time>2026-03-29T11:03:31.416Z</time></trkpt><trkpt lat="45.5332989" lon="10.1446315"><ele>120.0</ele><time>2026-03-29T11:03:32.421Z</time></trkpt><trkpt lat="45.5333846" lon="10.1445868"><ele>120.0</ele><time>2026-03-29T11:03:33.423Z</time></trkpt><trkpt lat="45.5334788" lon="10.1445711"><ele>120.0</ele><time>2026-03-29T11:03:34.435Z</time></trkpt><trkpt lat="45.5335787" lon="10.1445737"><ele>120.0</ele><time>2026-03-29T11:03:35.426Z</time></trkpt><trkpt lat="45.5336907" lon="10.1445771"><ele>120.0</ele><time>2026-03-29T11:03:36.412Z</time></trkpt><trkpt lat="45.5338213" lon="10.1445846"><ele>120.0</ele><time>2026-03-29T11:03:37.43Z</time></trkpt><trkpt lat="45.5339593" lon="10.144596"><ele>120.0</ele><time>2026-03-29T11:03:38.427Z</time></trkpt><trkpt lat="45.5340985" lon="10.1446114"><ele>120.0</ele><time>2026-03-29T11:03:39.423Z</time></trkpt><trkpt lat="45.5342361" lon="10.1446346"><ele>120.0</ele><time>2026-03-29T11:03:40.424Z</time></trkpt><trkpt lat="45.5343752" lon="10.1446703"><ele>120.0</ele><time>2026-03-29T11:03:41.436Z</time></trkpt><trkpt lat="45.5345162" lon="10.1447245"><ele>120.0</ele><time>2026-03-29T11:03:42.426Z</time></trkpt><trkpt lat="45.5346618" lon="10.1447913"><ele>120.0</ele><time>2026-03-29T11:03:43.446Z</time></trkpt><trkpt lat="45.534803" lon="10.1448569"><ele>120.0</ele><time>2026-03-29T11:03:44.424Z</time></trkpt><trkpt lat="45.5349504" lon="10.1449233"><ele>120.33333333333334</ele><time>2026-03-29T11:03:45.421Z</time></trkpt><trkpt lat="45.5351047" lon="10.1449721"><ele>120.66666666666667</ele><time>2026-03-29T11:03:46.423Z</time></trkpt><trkpt lat="45.5352641" lon="10.1449941"><ele>121.0</ele><time>2026-03-29T11:03:47.414Z</time></trkpt><trkpt lat="45.5354297" lon="10.1450014"><ele>121.0</ele><time>2026-03-29T11:03:48.467Z</time></trkpt><trkpt lat="45.5355677" lon="10.145006"><ele>121.0</ele><time>2026-03-29T11:03:49.421Z</time></trkpt><trkpt lat="45.5356915" lon="10.1450312"><ele>121.0</ele><time>2026-03-29T11:03:50.442Z</time></trkpt><trkpt lat="45.5358041" lon="10.1450639"><ele>121.0</ele><time>2026-03-29T11:03:51.427Z</time></trkpt><trkpt lat="45.5359089" lon="10.145104"><ele>121.0</ele><time>2026-03-29T11:03:52.424Z</time></trkpt><trkpt lat="45.5360076" lon="10.1451487"><ele>121.0</ele><time>2026-03-29T11:03:53.447Z</time></trkpt><trkpt lat="45.5360911" lon="10.1451915"><ele>121.0</ele><time>2026-03-29T11:03:54.427Z</time></trkpt><trkpt lat="45.5361718" lon="10.1452328"><ele>121.0</ele><time>2026-03-29T11:03:55.414Z</time></trkpt><trkpt lat="45.5362555" lon="10.1452627"><ele>121.0</ele><time>2026-03-29T11:03:56.428Z</time></trkpt><trkpt lat="45.5363489" lon="10.1452887"><ele>120.6</ele><time>2026-03-29T11:03:57.44Z</time></trkpt><trkpt lat="45.5364472" lon="10.1453111"><ele>120.19999999999999</ele><time>2026-03-29T11:03:58.432Z</time></trkpt><trkpt lat="45.5365501" lon="10.1453376"><ele>119.80000000000001</ele><time>2026-03-29T11:03:59.423Z</time></trkpt><trkpt lat="45.5366621" lon="10.1453647"><ele>119.4</ele><time>2026-03-29T11:04:00.432Z</time></trkpt><trkpt lat="45.5367722" lon="10.1453969"><ele>119.0</ele><time>2026-03-29T11:04:01.419Z</time></trkpt><trkpt lat="45.5368876" lon="10.145431"><ele>119.0</ele><time>2026-03-29T11:04:02.411Z</time></trkpt><trkpt lat="45.5369985" lon="10.145483"><ele>119.0</ele><time>2026-03-29T11:04:03.417Z</time></trkpt><trkpt lat="45.5371099" lon="10.1455577"><ele>119.0</ele><time>2026-03-29T11:04:04.425Z</time></trkpt><trkpt lat="45.5372182" lon="10.1456552"><ele>119.0</ele><time>2026-03-29T11:04:05.439Z</time></trkpt><trkpt lat="45.5373127" lon="10.1457695"><ele>119.5</ele><time>2026-03-29T11:04:06.42Z</time></trkpt><trkpt lat="45.5374091" lon="10.1458879"><ele>120.0</ele><time>2026-03-29T11:04:07.434Z</time></trkpt><trkpt lat="45.5375081" lon="10.1460028"><ele>120.5</ele><time>2026-03-29T11:04:08.426Z</time></trkpt><trkpt lat="45.5376143" lon="10.1461112"><ele>121.0</ele><time>2026-03-29T11:04:09.43Z</time></trkpt><trkpt lat="45.5377173" lon="10.1462174"><ele>121.0</ele><time>2026-03-29T11:04:10.416Z</time></trkpt><trkpt lat="45.5378249" lon="10.1463362"><ele>121.0</ele><time>2026-03-29T11:04:11.417Z</time></trkpt><trkpt lat="45.5379386" lon="10.146461"><ele>121.0</ele><time>2026-03-29T11:04:12.421Z</time></trkpt><trkpt lat="45.5380593" lon="10.1465942"><ele>121.0</ele><time>2026-03-29T11:04:13.429Z</time></trkpt><trkpt lat="45.5381842" lon="10.1467294"><ele>120.75</ele><time>2026-03-29T11:04:14.438Z</time></trkpt><trkpt lat="45.5383071" lon="10.1468641"><ele>120.5</ele><time>2026-03-29T11:04:15.434Z</time></trkpt><trkpt lat="45.538425" lon="10.1469801"><ele>120.25</ele><time>2026-03-29T11:04:16.42Z</time></trkpt><trkpt lat="45.5385388" lon="10.1470883"><ele>120.0</ele><time>2026-03-29T11:04:17.426Z</time></trkpt><trkpt lat="45.5386475" lon="10.1471913"><ele>120.5</ele><time>2026-03-29T11:04:18.418Z</time></trkpt><trkpt lat="45.5387613" lon="10.1473086"><ele>121.0</ele><time>2026-03-29T11:04:19.437Z</time></trkpt><trkpt lat="45.5388752" lon="10.1474264"><ele>121.5</ele><time>2026-03-29T11:04:20.419Z</time></trkpt><trkpt lat="45.5389919" lon="10.1475533"><ele>122.0</ele><time>2026-03-29T11:04:21.425Z</time></trkpt><trkpt lat="45.5391098" lon="10.1476814"><ele>122.0</ele><time>2026-03-29T11:04:22.424Z</time></trkpt><trkpt lat="45.5392311" lon="10.1478149"><ele>122.0</ele><time>2026-03-29T11:04:23.428Z</time></trkpt><trkpt lat="45.5393577" lon="10.1479507"><ele>122.0</ele><time>2026-03-29T11:04:24.429Z</time></trkpt><trkpt lat="45.5394847" lon="10.1480869"><ele>122.25</ele><time>2026-03-29T11:04:25.42Z</time></trkpt><trkpt lat="45.5396077" lon="10.1482199"><ele>122.5</ele><time>2026-03-29T11:04:26.427Z</time></trkpt><trkpt lat="45.5397118" lon="10.1483346"><ele>122.75</ele><time>2026-03-29T11:04:27.418Z</time></trkpt><trkpt lat="45.5398046" lon="10.148428"><ele>123.0</ele><time>2026-03-29T11:04:28.425Z</time></trkpt><trkpt lat="45.5398727" lon="10.1485067"><ele>123.0</ele><time>2026-03-29T11:04:29.421Z</time></trkpt><trkpt lat="45.5399327" lon="10.1485669"><ele>123.00000000000001</ele><time>2026-03-29T11:04:30.433Z</time></trkpt><trkpt lat="45.5400459" lon="10.1486686"><ele>123.00000000000001</ele><time>2026-03-29T11:04:32.428Z</time></trkpt><trkpt lat="45.5401182" lon="10.1487444"><ele>123.0</ele><time>2026-03-29T11:04:33.421Z</time></trkpt><trkpt lat="45.5402029" lon="10.1488254"><ele>123.0</ele><time>2026-03-29T11:04:34.436Z</time></trkpt><trkpt lat="45.5402947" lon="10.1488859"><ele>123.0</ele><time>2026-03-29T11:04:35.424Z</time></trkpt><trkpt lat="45.5403995" lon="10.1489136"><ele>123.00000000000001</ele><time>2026-03-29T11:04:36.429Z</time></trkpt><trkpt lat="45.5405079" lon="10.148908"><ele>123.00000000000001</ele><time>2026-03-29T11:04:37.427Z</time></trkpt><trkpt lat="45.5406141" lon="10.1488792"><ele>123.0</ele><time>2026-03-29T11:04:38.422Z</time></trkpt><trkpt lat="45.5407136" lon="10.1488212"><ele>123.0</ele><time>2026-03-29T11:04:39.42Z</time></trkpt><trkpt lat="45.5408244" lon="10.1487284"><ele>123.0</ele><time>2026-03-29T11:04:40.427Z</time></trkpt><trkpt lat="45.5409073" lon="10.14862"><ele>123.0</ele><time>2026-03-29T11:04:41.416Z</time></trkpt><trkpt lat="45.540987" lon="10.1484887"><ele>123.0</ele><time>2026-03-29T11:04:42.422Z</time></trkpt><trkpt lat="45.5410628" lon="10.1483373"><ele>123.0</ele><time>2026-03-29T11:04:43.448Z</time></trkpt><trkpt lat="45.5411199" lon="10.14822"><ele>123.0</ele><time>2026-03-29T11:04:44.423Z</time></trkpt><trkpt lat="45.5411829" lon="10.1481708"><ele>123.0</ele><time>2026-03-29T11:04:47.418Z</time></trkpt><trkpt lat="45.5413107" lon="10.1482051"><ele>123.0</ele><time>2026-03-29T11:04:48.432Z</time></trkpt><trkpt lat="45.5414134" lon="10.1482885"><ele>123.0</ele><time>2026-03-29T11:04:49.432Z</time></trkpt><trkpt lat="45.5415377" lon="10.148388"><ele>123.33333333333334</ele><time>2026-03-29T11:04:50.438Z</time></trkpt><trkpt lat="45.5416664" lon="10.1484862"><ele>123.66666666666667</ele><time>2026-03-29T11:04:51.446Z</time></trkpt><trkpt lat="45.5418034" lon="10.1485878"><ele>124.0</ele><time>2026-03-29T11:04:52.428Z</time></trkpt><trkpt lat="45.541944" lon="10.1486956"><ele>124.0</ele><time>2026-03-29T11:04:53.442Z</time></trkpt><trkpt lat="45.5420929" lon="10.1488063"><ele>124.0</ele><time>2026-03-29T11:04:54.432Z</time></trkpt><trkpt lat="45.5422484" lon="10.1489194"><ele>124.0</ele><time>2026-03-29T11:04:55.431Z</time></trkpt><trkpt lat="45.5424057" lon="10.1490359"><ele>123.66666666666667</ele><time>2026-03-29T11:04:56.445Z</time></trkpt><trkpt lat="45.5425617" lon="10.1491495"><ele>123.33333333333334</ele><time>2026-03-29T11:04:57.434Z</time></trkpt><trkpt lat="45.5427166" lon="10.149272"><ele>123.0</ele><time>2026-03-29T11:04:58.448Z</time></trkpt><trkpt lat="45.5428646" lon="10.1493999"><ele>123.33333333333334</ele><time>2026-03-29T11:04:59.441Z</time></trkpt><trkpt lat="45.5430129" lon="10.1495337"><ele>123.66666666666667</ele><time>2026-03-29T11:05:00.433Z</time></trkpt><trkpt lat="45.5431633" lon="10.1496633"><ele>124.0</ele><time>2026-03-29T11:05:01.423Z</time></trkpt><trkpt lat="45.5433184" lon="10.1497924"><ele>124.0</ele><time>2026-03-29T11:05:02.431Z</time></trkpt><trkpt lat="45.5434732" lon="10.1499181"><ele>124.0</ele><time>2026-03-29T11:05:03.438Z</time></trkpt><trkpt lat="45.5436265" lon="10.1500417"><ele>124.0</ele><time>2026-03-29T11:05:04.44Z</time></trkpt><trkpt lat="45.5437786" lon="10.1501646"><ele>123.66666666666667</ele><time>2026-03-29T11:05:05.438Z</time></trkpt><trkpt lat="45.5439291" lon="10.1502886"><ele>123.33333333333334</ele><time>2026-03-29T11:05:06.434Z</time></trkpt><trkpt lat="45.5440821" lon="10.1504124"><ele>123.0</ele><time>2026-03-29T11:05:07.424Z</time></trkpt><trkpt lat="45.5442417" lon="10.1505377"><ele>123.0</ele><time>2026-03-29T11:05:08.433Z</time></trkpt><trkpt lat="45.5444026" lon="10.1506595"><ele>123.0</ele><time>2026-03-29T11:05:09.433Z</time></trkpt><trkpt lat="45.5445667" lon="10.1507862"><ele>123.0</ele><time>2026-03-29T11:05:10.443Z</time></trkpt><trkpt lat="45.544731" lon="10.1509159"><ele>123.0</ele><time>2026-03-29T11:05:11.45Z</time></trkpt><trkpt lat="45.5448969" lon="10.1510471"><ele>123.0</ele><time>2026-03-29T11:05:12.433Z</time></trkpt><trkpt lat="45.5450666" lon="10.1511817"><ele>123.0</ele><time>2026-03-29T11:05:13.437Z</time></trkpt><trkpt lat="45.5452296" lon="10.151316"><ele>122.66666666666666</ele><time>2026-03-29T11:05:14.421Z</time></trkpt><trkpt lat="45.5453981" lon="10.1514466"><ele>122.33333333333333</ele><time>2026-03-29T11:05:15.427Z</time></trkpt><trkpt lat="45.5455611" lon="10.1515653"><ele>122.0</ele><time>2026-03-29T11:05:16.428Z</time></trkpt><trkpt lat="45.5457251" lon="10.1516818"><ele>122.66666666666666</ele><time>2026-03-29T11:05:17.465Z</time></trkpt><trkpt lat="45.5458687" lon="10.1517909"><ele>123.33333333333334</ele><time>2026-03-29T11:05:18.455Z</time></trkpt><trkpt lat="45.5460048" lon="10.1518926"><ele>124.0</ele><time>2026-03-29T11:05:19.429Z</time></trkpt><trkpt lat="45.5461468" lon="10.151997"><ele>124.25</ele><time>2026-03-29T11:05:20.432Z</time></trkpt><trkpt lat="45.5462764" lon="10.1520943"><ele>124.5</ele><time>2026-03-29T11:05:21.424Z</time></trkpt><trkpt lat="45.5463998" lon="10.1521847"><ele>124.75</ele><time>2026-03-29T11:05:22.466Z</time></trkpt><trkpt lat="45.5465007" lon="10.1522532"><ele>125.0</ele><time>2026-03-29T11:05:23.427Z</time></trkpt><trkpt lat="45.5465853" lon="10.1523104"><ele>124.99999999999999</ele><time>2026-03-29T11:05:24.417Z</time></trkpt><trkpt lat="45.5466553" lon="10.1523618"><ele>125.0</ele><time>2026-03-29T11:05:25.423Z</time></trkpt><trkpt lat="45.5467109" lon="10.1524042"><ele>125.0</ele><time>2026-03-29T11:05:26.426Z</time></trkpt><trkpt lat="45.5468" lon="10.1524698"><ele>125.0</ele><time>2026-03-29T11:05:28.425Z</time></trkpt><trkpt lat="45.5468728" lon="10.1525091"><ele>124.99999999999999</ele><time>2026-03-29T11:05:30.429Z</time></trkpt><trkpt lat="45.5469654" lon="10.1525734"><ele>125.0</ele><time>2026-03-29T11:05:32.434Z</time></trkpt><trkpt lat="45.5470653" lon="10.1526642"><ele>125.6</ele><time>2026-03-29T11:05:34.426Z</time></trkpt><trkpt lat="45.5471482" lon="10.1527295"><ele>126.2</ele><time>2026-03-29T11:05:36.423Z</time></trkpt><trkpt lat="45.5472029" lon="10.1527755"><ele>126.80000000000001</ele><time>2026-03-29T11:07:43.441Z</time></trkpt><trkpt lat="45.5472962" lon="10.1528608"><ele>127.4</ele><time>2026-03-29T11:07:45.434Z</time></trkpt><trkpt lat="45.5473817" lon="10.1529252"><ele>128.0</ele><time>2026-03-29T11:07:46.442Z</time></trkpt><trkpt lat="45.5474772" lon="10.1529957"><ele>128.0</ele><time>2026-03-29T11:07:47.441Z</time></trkpt><trkpt lat="45.5475764" lon="10.1530807"><ele>128.0</ele><time>2026-03-29T11:07:48.427Z</time></trkpt><trkpt lat="45.5476924" lon="10.153168"><ele>128.0</ele><time>2026-03-29T11:07:49.441Z</time></trkpt><trkpt lat="45.5478131" lon="10.153253"><ele>128.0</ele><time>2026-03-29T11:07:50.437Z</time></trkpt><trkpt lat="45.547932" lon="10.1533348"><ele>127.80000000000001</ele><time>2026-03-29T11:07:51.441Z</time></trkpt><trkpt lat="45.5480352" lon="10.1534088"><ele>127.60000000000001</ele><time>2026-03-29T11:07:52.437Z</time></trkpt><trkpt lat="45.5481223" lon="10.1534742"><ele>127.39999999999999</ele><time>2026-03-29T11:07:53.422Z</time></trkpt><trkpt lat="45.548206" lon="10.1535289"><ele>127.19999999999999</ele><time>2026-03-29T11:07:54.434Z</time></trkpt><trkpt lat="45.548276" lon="10.1535719"><ele>127.0</ele><time>2026-03-29T11:07:55.435Z</time></trkpt><trkpt lat="45.5483639" lon="10.1536354"><ele>127.0</ele><time>2026-03-29T11:07:57.438Z</time></trkpt><trkpt lat="45.5484177" lon="10.1537357"><ele>126.99999999999999</ele><time>2026-03-29T11:08:00.437Z</time></trkpt><trkpt lat="45.5484181" lon="10.1538809"><ele>126.99999999999999</ele><time>2026-03-29T11:08:02.442Z</time></trkpt><trkpt lat="45.5484121" lon="10.1540005"><ele>127.0</ele><time>2026-03-29T11:08:03.43Z</time></trkpt><trkpt lat="45.5484009" lon="10.1541521"><ele>127.0</ele><time>2026-03-29T11:08:04.435Z</time></trkpt><trkpt lat="45.5483906" lon="10.1543133"><ele>127.25</ele><time>2026-03-29T11:08:05.432Z</time></trkpt><trkpt lat="45.5483723" lon="10.154487"><ele>127.5</ele><time>2026-03-29T11:08:06.431Z</time></trkpt><trkpt lat="45.5483563" lon="10.1546712"><ele>127.75</ele><time>2026-03-29T11:08:07.43Z</time></trkpt><trkpt lat="45.5483399" lon="10.1548612"><ele>128.0</ele><time>2026-03-29T11:08:08.443Z</time></trkpt><trkpt lat="45.5483212" lon="10.1550594"><ele>128.0</ele><time>2026-03-29T11:08:09.444Z</time></trkpt><trkpt lat="45.548303" lon="10.1552568"><ele>128.0</ele><time>2026-03-29T11:08:10.431Z</time></trkpt><trkpt lat="45.5482832" lon="10.1554617"><ele>128.0</ele><time>2026-03-29T11:08:11.448Z</time></trkpt><trkpt lat="45.5482605" lon="10.1556655"><ele>128.0</ele><time>2026-03-29T11:08:12.438Z</time></trkpt><trkpt lat="45.5482364" lon="10.1558753"><ele>128.0</ele><time>2026-03-29T11:08:13.443Z</time></trkpt><trkpt lat="45.5482168" lon="10.1560743"><ele>128.0</ele><time>2026-03-29T11:08:14.439Z</time></trkpt><trkpt lat="45.5481952" lon="10.1562618"><ele>128.0</ele><time>2026-03-29T11:08:15.437Z</time></trkpt><trkpt lat="45.5481746" lon="10.1564214"><ele>128.0</ele><time>2026-03-29T11:08:16.423Z</time></trkpt><trkpt lat="45.5481549" lon="10.1565604"><ele>127.83333333333333</ele><time>2026-03-29T11:08:17.441Z</time></trkpt><trkpt lat="45.5481269" lon="10.1566789"><ele>127.66666666666666</ele><time>2026-03-29T11:08:18.442Z</time></trkpt><trkpt lat="45.5480944" lon="10.1567803"><ele>127.5</ele><time>2026-03-29T11:08:19.432Z</time></trkpt><trkpt lat="45.5480657" lon="10.156896"><ele>127.33333333333334</ele><time>2026-03-29T11:08:20.432Z</time></trkpt><trkpt lat="45.5480712" lon="10.1570195"><ele>127.16666666666667</ele><time>2026-03-29T11:08:21.432Z</time></trkpt><trkpt lat="45.5480669" lon="10.1571703"><ele>127.0</ele><time>2026-03-29T11:08:22.435Z</time></trkpt><trkpt lat="45.5480526" lon="10.1573244"><ele>127.33333333333334</ele><time>2026-03-29T11:08:23.428Z</time></trkpt><trkpt lat="45.5480369" lon="10.1574975"><ele>127.66666666666666</ele><time>2026-03-29T11:08:24.438Z</time></trkpt><trkpt lat="45.5480245" lon="10.1577094"><ele>128.0</ele><time>2026-03-29T11:08:25.423Z</time></trkpt><trkpt lat="45.5480035" lon="10.1579664"><ele>128.0</ele><time>2026-03-29T11:08:26.463Z</time></trkpt><trkpt lat="45.5479894" lon="10.1582198"><ele>128.0</ele><time>2026-03-29T11:08:27.428Z</time></trkpt><trkpt lat="45.5479704" lon="10.1584819"><ele>128.0</ele><time>2026-03-29T11:08:28.438Z</time></trkpt><trkpt lat="45.5479518" lon="10.1587475"><ele>128.0</ele><time>2026-03-29T11:08:29.446Z</time></trkpt><trkpt lat="45.5479282" lon="10.1590086"><ele>128.0</ele><time>2026-03-29T11:08:30.445Z</time></trkpt><trkpt lat="45.5479056" lon="10.1592745"><ele>128.0</ele><time>2026-03-29T11:08:31.471Z</time></trkpt><trkpt lat="45.5478816" lon="10.1595276"><ele>128.33333333333331</ele><time>2026-03-29T11:08:32.445Z</time></trkpt><trkpt lat="45.547861" lon="10.1597872"><ele>128.66666666666666</ele><time>2026-03-29T11:08:33.437Z</time></trkpt><trkpt lat="45.5478377" lon="10.1600493"><ele>129.0</ele><time>2026-03-29T11:08:34.43Z</time></trkpt><trkpt lat="45.5478154" lon="10.1603154"><ele>129.0</ele><time>2026-03-29T11:08:35.426Z</time></trkpt><trkpt lat="45.5477902" lon="10.1605858"><ele>129.0</ele><time>2026-03-29T11:08:36.441Z</time></trkpt><trkpt lat="45.5477641" lon="10.16085"><ele>129.0</ele><time>2026-03-29T11:08:37.434Z</time></trkpt><trkpt lat="45.5477386" lon="10.1611174"><ele>129.33333333333334</ele><time>2026-03-29T11:08:38.446Z</time></trkpt><trkpt lat="45.5477133" lon="10.1613822"><ele>129.66666666666669</ele><time>2026-03-29T11:08:39.447Z</time></trkpt><trkpt lat="45.5476904" lon="10.1616391"><ele>130.0</ele><time>2026-03-29T11:08:40.432Z</time></trkpt><trkpt lat="45.5476657" lon="10.1618963"><ele>130.0</ele><time>2026-03-29T11:08:41.427Z</time></trkpt><trkpt lat="45.5476383" lon="10.1621599"><ele>130.0</ele><time>2026-03-29T11:08:42.448Z</time></trkpt><trkpt lat="45.5476144" lon="10.1624148"><ele>130.0</ele><time>2026-03-29T11:08:43.435Z</time></trkpt><trkpt lat="45.5475895" lon="10.162671"><ele>129.33333333333334</ele><time>2026-03-29T11:08:44.436Z</time></trkpt><trkpt lat="45.5475637" lon="10.1629263"><ele>128.66666666666666</ele><time>2026-03-29T11:08:45.44Z</time></trkpt><trkpt lat="45.5475385" lon="10.1631726"><ele>128.0</ele><time>2026-03-29T11:08:46.431Z</time></trkpt><trkpt lat="45.5475139" lon="10.1634117"><ele>127.66666666666666</ele><time>2026-03-29T11:08:47.443Z</time></trkpt><trkpt lat="45.5474923" lon="10.1636317"><ele>127.33333333333334</ele><time>2026-03-29T11:08:48.428Z</time></trkpt><trkpt lat="45.5474719" lon="10.1638482"><ele>127.0</ele><time>2026-03-29T11:08:49.447Z</time></trkpt><trkpt lat="45.5474552" lon="10.1640509"><ele>127.75</ele><time>2026-03-29T11:08:50.425Z</time></trkpt><trkpt lat="45.5474347" lon="10.1642589"><ele>128.5</ele><time>2026-03-29T11:08:51.426Z</time></trkpt><trkpt lat="45.5474106" lon="10.1644626"><ele>129.25</ele><time>2026-03-29T11:08:52.433Z</time></trkpt><trkpt lat="45.5473875" lon="10.1646474"><ele>130.0</ele><time>2026-03-29T11:08:53.423Z</time></trkpt><trkpt lat="45.5473651" lon="10.1648141"><ele>130.33333333333334</ele><time>2026-03-29T11:08:54.432Z</time></trkpt><trkpt lat="45.5473465" lon="10.1649555"><ele>130.66666666666669</ele><time>2026-03-29T11:08:55.422Z</time></trkpt><trkpt lat="45.5473307" lon="10.1650718"><ele>131.0</ele><time>2026-03-29T11:08:56.425Z</time></trkpt><trkpt lat="45.5473116" lon="10.1651628"><ele>131.33333333333334</ele><time>2026-03-29T11:08:57.424Z</time></trkpt><trkpt lat="45.547285" lon="10.1652446"><ele>131.66666666666666</ele><time>2026-03-29T11:08:58.426Z</time></trkpt><trkpt lat="45.5472543" lon="10.1653286"><ele>132.0</ele><time>2026-03-29T11:08:59.427Z</time></trkpt><trkpt lat="45.547224" lon="10.1654247"><ele>132.0</ele><time>2026-03-29T11:09:00.428Z</time></trkpt><trkpt lat="45.5472162" lon="10.1655247"><ele>132.0</ele><time>2026-03-29T11:09:01.433Z</time></trkpt><trkpt lat="45.5472229" lon="10.1656408"><ele>132.0</ele><time>2026-03-29T11:09:02.445Z</time></trkpt><trkpt lat="45.5472342" lon="10.1657664"><ele>132.0</ele><time>2026-03-29T11:09:03.437Z</time></trkpt><trkpt lat="45.5472353" lon="10.1659124"><ele>132.0</ele><time>2026-03-29T11:09:04.44Z</time></trkpt><trkpt lat="45.5472285" lon="10.1660879"><ele>132.33333333333334</ele><time>2026-03-29T11:09:05.437Z</time></trkpt><trkpt lat="45.5472174" lon="10.1662925"><ele>132.66666666666669</ele><time>2026-03-29T11:09:06.438Z</time></trkpt><trkpt lat="45.5472041" lon="10.1665149"><ele>133.0</ele><time>2026-03-29T11:09:07.422Z</time></trkpt><trkpt lat="45.5471852" lon="10.1667595"><ele>133.33333333333334</ele><time>2026-03-29T11:09:08.439Z</time></trkpt><trkpt lat="45.547161" lon="10.1670111"><ele>133.66666666666666</ele><time>2026-03-29T11:09:09.438Z</time></trkpt><trkpt lat="45.5471315" lon="10.1672675"><ele>134.0</ele><time>2026-03-29T11:09:10.428Z</time></trkpt><trkpt lat="45.5471039" lon="10.1675263"><ele>133.33333333333331</ele><time>2026-03-29T11:09:11.423Z</time></trkpt><trkpt lat="45.5470772" lon="10.1677868"><ele>132.66666666666666</ele><time>2026-03-29T11:09:12.425Z</time></trkpt><trkpt lat="45.5470562" lon="10.1680477"><ele>132.0</ele><time>2026-03-29T11:09:13.427Z</time></trkpt><trkpt lat="45.5470337" lon="10.1683099"><ele>132.0</ele><time>2026-03-29T11:09:14.433Z</time></trkpt><trkpt lat="45.5470142" lon="10.1685593"><ele>132.0</ele><time>2026-03-29T11:09:15.431Z</time></trkpt><trkpt lat="45.5469973" lon="10.1687927"><ele>132.0</ele><time>2026-03-29T11:09:16.439Z</time></trkpt><trkpt lat="45.546977" lon="10.1689939"><ele>132.2</ele><time>2026-03-29T11:09:17.421Z</time></trkpt><trkpt lat="45.546959" lon="10.1691688"><ele>132.39999999999998</ele><time>2026-03-29T11:09:18.425Z</time></trkpt><trkpt lat="45.5469325" lon="10.1693141"><ele>132.60000000000002</ele><time>2026-03-29T11:09:19.423Z</time></trkpt><trkpt lat="45.5468992" lon="10.1694397"><ele>132.8</ele><time>2026-03-29T11:09:20.436Z</time></trkpt><trkpt lat="45.5468708" lon="10.1695731"><ele>133.0</ele><time>2026-03-29T11:09:21.436Z</time></trkpt><trkpt lat="45.5468537" lon="10.1697277"><ele>132.75</ele><time>2026-03-29T11:09:22.43Z</time></trkpt><trkpt lat="45.5468442" lon="10.1698983"><ele>132.5</ele><time>2026-03-29T11:09:23.447Z</time></trkpt><trkpt lat="45.5468537" lon="10.1700854"><ele>132.25</ele><time>2026-03-29T11:09:24.419Z</time></trkpt><trkpt lat="45.5468241" lon="10.1702884"><ele>132.0</ele><time>2026-03-29T11:09:25.438Z</time></trkpt><trkpt lat="45.5468007" lon="10.1704932"><ele>132.0</ele><time>2026-03-29T11:09:26.428Z</time></trkpt><trkpt lat="45.5467802" lon="10.1707165"><ele>132.0</ele><time>2026-03-29T11:09:27.435Z</time></trkpt><trkpt lat="45.5467653" lon="10.1709491"><ele>132.0</ele><time>2026-03-29T11:09:28.436Z</time></trkpt><trkpt lat="45.5467508" lon="10.1711846"><ele>132.0</ele><time>2026-03-29T11:09:29.441Z</time></trkpt><trkpt lat="45.5467318" lon="10.1714236"><ele>132.0</ele><time>2026-03-29T11:09:30.459Z</time></trkpt><trkpt lat="45.5467139" lon="10.1716567"><ele>132.0</ele><time>2026-03-29T11:09:31.437Z</time></trkpt><trkpt lat="45.5467014" lon="10.1718978"><ele>132.33333333333334</ele><time>2026-03-29T11:09:32.445Z</time></trkpt><trkpt lat="45.5466926" lon="10.1721333"><ele>132.66666666666669</ele><time>2026-03-29T11:09:33.429Z</time></trkpt><trkpt lat="45.5466762" lon="10.172375"><ele>133.0</ele><time>2026-03-29T11:09:34.436Z</time></trkpt><trkpt lat="45.5466586" lon="10.172611"><ele>133.5</ele><time>2026-03-29T11:09:35.445Z</time></trkpt><trkpt lat="45.5466362" lon="10.172832"><ele>134.0</ele><time>2026-03-29T11:09:36.436Z</time></trkpt><trkpt lat="45.5466135" lon="10.173042"><ele>134.5</ele><time>2026-03-29T11:09:37.435Z</time></trkpt><trkpt lat="45.5465922" lon="10.1732427"><ele>135.0</ele><time>2026-03-29T11:09:38.425Z</time></trkpt><trkpt lat="45.5465686" lon="10.1734468"><ele>135.25</ele><time>2026-03-29T11:09:39.428Z</time></trkpt><trkpt lat="45.5465459" lon="10.1736504"><ele>135.5</ele><time>2026-03-29T11:09:40.423Z</time></trkpt><trkpt lat="45.5465246" lon="10.1738594"><ele>135.75</ele><time>2026-03-29T11:09:41.432Z</time></trkpt><trkpt lat="45.546505" lon="10.1740665"><ele>136.0</ele><time>2026-03-29T11:09:42.435Z</time></trkpt><trkpt lat="45.5464885" lon="10.1742789"><ele>136.0</ele><time>2026-03-29T11:09:43.433Z</time></trkpt><trkpt lat="45.5464743" lon="10.1744935"><ele>136.0</ele><time>2026-03-29T11:09:44.45Z</time></trkpt><trkpt lat="45.5464571" lon="10.1746988"><ele>136.0</ele><time>2026-03-29T11:09:45.425Z</time></trkpt><trkpt lat="45.5464352" lon="10.1749159"><ele>136.0</ele><time>2026-03-29T11:09:46.452Z</time></trkpt><trkpt lat="45.5464166" lon="10.175126"><ele>136.0</ele><time>2026-03-29T11:09:47.434Z</time></trkpt><trkpt lat="45.5464005" lon="10.1753381"><ele>136.0</ele><time>2026-03-29T11:09:48.434Z</time></trkpt><trkpt lat="45.5463819" lon="10.1755487"><ele>136.0</ele><time>2026-03-29T11:09:49.43Z</time></trkpt><trkpt lat="45.546367" lon="10.1757667"><ele>136.0</ele><time>2026-03-29T11:09:50.442Z</time></trkpt><trkpt lat="45.546356" lon="10.17598"><ele>136.0</ele><time>2026-03-29T11:09:51.444Z</time></trkpt><trkpt lat="45.5463505" lon="10.17619"><ele>136.0</ele><time>2026-03-29T11:09:52.433Z</time></trkpt><trkpt lat="45.5463543" lon="10.1763933"><ele>136.0</ele><time>2026-03-29T11:09:53.428Z</time></trkpt><trkpt lat="45.546364" lon="10.1765875"><ele>136.2</ele><time>2026-03-29T11:09:54.434Z</time></trkpt><trkpt lat="45.5463749" lon="10.1767649"><ele>136.39999999999998</ele><time>2026-03-29T11:09:55.427Z</time></trkpt><trkpt lat="45.5463883" lon="10.1769314"><ele>136.6</ele><time>2026-03-29T11:09:56.442Z</time></trkpt><trkpt lat="45.5464072" lon="10.1770842"><ele>136.79999999999998</ele><time>2026-03-29T11:09:57.439Z</time></trkpt><trkpt lat="45.5464272" lon="10.1772195"><ele>137.0</ele><time>2026-03-29T11:09:58.432Z</time></trkpt><trkpt lat="45.5464473" lon="10.1773404"><ele>137.0</ele><time>2026-03-29T11:09:59.45Z</time></trkpt><trkpt lat="45.546465" lon="10.1774396"><ele>137.0</ele><time>2026-03-29T11:10:00.424Z</time></trkpt><trkpt lat="45.5464939" lon="10.1775849"><ele>137.0</ele><time>2026-03-29T11:10:02.435Z</time></trkpt><trkpt lat="45.5465124" lon="10.1776715"><ele>137.0</ele><time>2026-03-29T11:10:04.44Z</time></trkpt><trkpt lat="45.546528" lon="10.1777711"><ele>137.0</ele><time>2026-03-29T11:10:18.464Z</time></trkpt><trkpt lat="45.5465541" lon="10.1779242"><ele>137.0</ele><time>2026-03-29T11:10:20.44Z</time></trkpt><trkpt lat="45.5465693" lon="10.1780179"><ele>137.0</ele><time>2026-03-29T11:10:21.435Z</time></trkpt><trkpt lat="45.5465853" lon="10.1781233"><ele>137.0</ele><time>2026-03-29T11:10:22.447Z</time></trkpt><trkpt lat="45.5466011" lon="10.1782383"><ele>137.0</ele><time>2026-03-29T11:10:23.434Z</time></trkpt><trkpt lat="45.5466202" lon="10.1783707"><ele>137.0</ele><time>2026-03-29T11:10:24.445Z</time></trkpt><trkpt lat="45.5466415" lon="10.1785005"><ele>137.0</ele><time>2026-03-29T11:10:25.445Z</time></trkpt><trkpt lat="45.5466609" lon="10.1786283"><ele>137.0</ele><time>2026-03-29T11:10:26.446Z</time></trkpt><trkpt lat="45.546683" lon="10.1787549"><ele>137.2</ele><time>2026-03-29T11:10:27.437Z</time></trkpt><trkpt lat="45.5467055" lon="10.1788858"><ele>137.39999999999998</ele><time>2026-03-29T11:10:28.435Z</time></trkpt><trkpt lat="45.5467219" lon="10.1790131"><ele>137.60000000000002</ele><time>2026-03-29T11:10:29.421Z</time></trkpt><trkpt lat="45.5467427" lon="10.1791363"><ele>137.8</ele><time>2026-03-29T11:10:30.421Z</time></trkpt><trkpt lat="45.5467611" lon="10.1792658"><ele>138.0</ele><time>2026-03-29T11:10:31.442Z</time></trkpt><trkpt lat="45.5467816" lon="10.1793872"><ele>138.20000000000002</ele><time>2026-03-29T11:10:32.443Z</time></trkpt><trkpt lat="45.5467988" lon="10.1794956"><ele>138.4</ele><time>2026-03-29T11:10:33.435Z</time></trkpt><trkpt lat="45.5468216" lon="10.1796242"><ele>138.60000000000002</ele><time>2026-03-29T11:10:34.441Z</time></trkpt><trkpt lat="45.5468491" lon="10.1797607"><ele>138.8</ele><time>2026-03-29T11:10:35.421Z</time></trkpt><trkpt lat="45.5468825" lon="10.1799121"><ele>139.0</ele><time>2026-03-29T11:10:36.426Z</time></trkpt><trkpt lat="45.5469177" lon="10.1800726"><ele>139.0</ele><time>2026-03-29T11:10:37.441Z</time></trkpt><trkpt lat="45.5469507" lon="10.1802351"><ele>139.0</ele><time>2026-03-29T11:10:38.423Z</time></trkpt><trkpt lat="45.5469836" lon="10.1804043"><ele>139.0</ele><time>2026-03-29T11:10:39.449Z</time></trkpt><trkpt lat="45.5470102" lon="10.1805478"><ele>139.0</ele><time>2026-03-29T11:10:40.439Z</time></trkpt><trkpt lat="45.5470312" lon="10.1806747"><ele>139.0</ele><time>2026-03-29T11:10:41.427Z</time></trkpt><trkpt lat="45.5470538" lon="10.180784"><ele>139.5</ele><time>2026-03-29T11:10:42.444Z</time></trkpt><trkpt lat="45.5470691" lon="10.1808721"><ele>140.0</ele><time>2026-03-29T11:10:43.439Z</time></trkpt><trkpt lat="45.5470851" lon="10.1809624"><ele>140.5</ele><time>2026-03-29T11:10:44.437Z</time></trkpt><trkpt lat="45.5471052" lon="10.1810608"><ele>141.0</ele><time>2026-03-29T11:10:45.428Z</time></trkpt><trkpt lat="45.5471309" lon="10.1811681"><ele>141.5</ele><time>2026-03-29T11:10:46.436Z</time></trkpt><trkpt lat="45.5471536" lon="10.1812897"><ele>142.0</ele><time>2026-03-29T11:10:47.439Z</time></trkpt><trkpt lat="45.5471741" lon="10.1814117"><ele>141.79999999999998</ele><time>2026-03-29T11:10:48.423Z</time></trkpt><trkpt lat="45.5471937" lon="10.1815266"><ele>141.6</ele><time>2026-03-29T11:10:49.432Z</time></trkpt><trkpt lat="45.5472117" lon="10.1816196"><ele>141.39999999999998</ele><time>2026-03-29T11:10:50.437Z</time></trkpt><trkpt lat="45.5472545" lon="10.1818012"><ele>141.2</ele><time>2026-03-29T11:10:52.442Z</time></trkpt><trkpt lat="45.5472785" lon="10.1819145"><ele>141.0</ele><time>2026-03-29T11:10:53.439Z</time></trkpt><trkpt lat="45.5473029" lon="10.1820431"><ele>141.0</ele><time>2026-03-29T11:10:54.432Z</time></trkpt><trkpt lat="45.5473277" lon="10.1821924"><ele>141.0</ele><time>2026-03-29T11:10:55.437Z</time></trkpt><trkpt lat="45.5473552" lon="10.1823477"><ele>141.0</ele><time>2026-03-29T11:10:56.446Z</time></trkpt><trkpt lat="45.5473817" lon="10.1825005"><ele>141.0</ele><time>2026-03-29T11:10:57.43Z</time></trkpt><trkpt lat="45.5474036" lon="10.1826545"><ele>141.0</ele><time>2026-03-29T11:10:58.456Z</time></trkpt><trkpt lat="45.5474239" lon="10.1827878"><ele>141.0</ele><time>2026-03-29T11:10:59.445Z</time></trkpt><trkpt lat="45.5474364" lon="10.1829036"><ele>141.0</ele><time>2026-03-29T11:11:00.447Z</time></trkpt><trkpt lat="45.5474453" lon="10.1829937"><ele>141.0</ele><time>2026-03-29T11:11:01.437Z</time></trkpt><trkpt lat="45.5474524" lon="10.1830865"><ele>141.0</ele><time>2026-03-29T11:11:02.431Z</time></trkpt><trkpt lat="45.5474423" lon="10.1832726"><ele>141.0</ele><time>2026-03-29T11:11:04.43Z</time></trkpt><trkpt lat="45.5474228" lon="10.1833753"><ele>141.0</ele><time>2026-03-29T11:11:05.427Z</time></trkpt><trkpt lat="45.5473936" lon="10.1834858"><ele>141.16666666666666</ele><time>2026-03-29T11:11:06.438Z</time></trkpt><trkpt lat="45.5473666" lon="10.1835919"><ele>141.33333333333334</ele><time>2026-03-29T11:11:07.438Z</time></trkpt><trkpt lat="45.5473395" lon="10.1836861"><ele>141.5</ele><time>2026-03-29T11:11:08.428Z</time></trkpt><trkpt lat="45.5473155" lon="10.1837747"><ele>141.66666666666669</ele><time>2026-03-29T11:11:09.421Z</time></trkpt><trkpt lat="45.5472962" lon="10.1838617"><ele>141.83333333333334</ele><time>2026-03-29T11:11:10.426Z</time></trkpt><trkpt lat="45.5472759" lon="10.1839491"><ele>142.0</ele><time>2026-03-29T11:11:11.433Z</time></trkpt><trkpt lat="45.5472404" lon="10.1841007"><ele>142.0</ele><time>2026-03-29T11:11:13.436Z</time></trkpt><trkpt lat="45.5472035" lon="10.1842526"><ele>142.0</ele><time>2026-03-29T11:11:15.434Z</time></trkpt><trkpt lat="45.5471822" lon="10.1843395"><ele>142.0</ele><time>2026-03-29T11:11:16.427Z</time></trkpt><trkpt lat="45.5471597" lon="10.1844326"><ele>142.0</ele><time>2026-03-29T11:11:17.43Z</time></trkpt><trkpt lat="45.5471408" lon="10.1845204"><ele>142.0</ele><time>2026-03-29T11:11:18.427Z</time></trkpt><trkpt lat="45.5471051" lon="10.1846741"><ele>142.0</ele><time>2026-03-29T11:11:20.432Z</time></trkpt><trkpt lat="45.5470656" lon="10.1848426"><ele>142.5</ele><time>2026-03-29T11:11:22.435Z</time></trkpt><trkpt lat="45.5470445" lon="10.1849362"><ele>143.0</ele><time>2026-03-29T11:11:23.446Z</time></trkpt><trkpt lat="45.5470213" lon="10.1850342"><ele>143.5</ele><time>2026-03-29T11:11:24.436Z</time></trkpt><trkpt lat="45.5469983" lon="10.1851312"><ele>144.0</ele><time>2026-03-29T11:11:25.443Z</time></trkpt><trkpt lat="45.5469783" lon="10.1852225"><ele>144.5</ele><time>2026-03-29T11:11:26.438Z</time></trkpt><trkpt lat="45.5469414" lon="10.1853687"><ele>145.0</ele><time>2026-03-29T11:11:28.438Z</time></trkpt><trkpt lat="45.5469036" lon="10.1854892"><ele>145.16666666666669</ele><time>2026-03-29T11:11:30.445Z</time></trkpt><trkpt lat="45.5468411" lon="10.185627"><ele>145.33333333333334</ele><time>2026-03-29T11:11:32.456Z</time></trkpt><trkpt lat="45.546806" lon="10.1857114"><ele>145.5</ele><time>2026-03-29T11:11:33.432Z</time></trkpt><trkpt lat="45.5467805" lon="10.1858119"><ele>145.66666666666666</ele><time>2026-03-29T11:11:34.453Z</time></trkpt><trkpt lat="45.5467694" lon="10.1859159"><ele>145.83333333333331</ele><time>2026-03-29T11:11:35.433Z</time></trkpt><trkpt lat="45.5467565" lon="10.1860121"><ele>146.0</ele><time>2026-03-29T11:11:36.429Z</time></trkpt><trkpt lat="45.5467339" lon="10.1861183"><ele>145.66666666666666</ele><time>2026-03-29T11:11:37.435Z</time></trkpt><trkpt lat="45.5467087" lon="10.1862136"><ele>145.33333333333331</ele><time>2026-03-29T11:11:38.432Z</time></trkpt><trkpt lat="45.5466621" lon="10.1863646"><ele>145.0</ele><time>2026-03-29T11:11:40.428Z</time></trkpt><trkpt lat="45.5466036" lon="10.1865074"><ele>144.66666666666666</ele><time>2026-03-29T11:11:42.433Z</time></trkpt><trkpt lat="45.5465825" lon="10.1866029"><ele>144.33333333333334</ele><time>2026-03-29T11:11:43.431Z</time></trkpt><trkpt lat="45.5465854" lon="10.1867025"><ele>144.0</ele><time>2026-03-29T11:11:44.445Z</time></trkpt><trkpt lat="45.5465768" lon="10.1868113"><ele>143.8</ele><time>2026-03-29T11:11:45.431Z</time></trkpt><trkpt lat="45.5465611" lon="10.1869302"><ele>143.60000000000002</ele><time>2026-03-29T11:11:46.448Z</time></trkpt><trkpt lat="45.5465356" lon="10.1870681"><ele>143.4</ele><time>2026-03-29T11:11:47.445Z</time></trkpt><trkpt lat="45.5465036" lon="10.1872156"><ele>143.20000000000002</ele><time>2026-03-29T11:11:48.429Z</time></trkpt><trkpt lat="45.546463" lon="10.187379"><ele>143.0</ele><time>2026-03-29T11:11:49.431Z</time></trkpt><trkpt lat="45.546431" lon="10.1875497"><ele>143.0</ele><time>2026-03-29T11:11:50.427Z</time></trkpt><trkpt lat="45.5464074" lon="10.1877212"><ele>143.0</ele><time>2026-03-29T11:11:51.431Z</time></trkpt><trkpt lat="45.5463787" lon="10.1878997"><ele>143.0</ele><time>2026-03-29T11:11:52.448Z</time></trkpt><trkpt lat="45.5463541" lon="10.1880699"><ele>143.0</ele><time>2026-03-29T11:11:53.447Z</time></trkpt><trkpt lat="45.5463291" lon="10.1882377"><ele>143.0</ele><time>2026-03-29T11:11:54.435Z</time></trkpt><trkpt lat="45.5463033" lon="10.1884054"><ele>143.0</ele><time>2026-03-29T11:11:55.447Z</time></trkpt><trkpt lat="45.546281" lon="10.1885599"><ele>143.0</ele><time>2026-03-29T11:11:56.447Z</time></trkpt><trkpt lat="45.5462679" lon="10.188682"><ele>143.0</ele><time>2026-03-29T11:11:57.429Z</time></trkpt><trkpt lat="45.5462576" lon="10.1887973"><ele>143.0</ele><time>2026-03-29T11:11:58.438Z</time></trkpt><trkpt lat="45.5462411" lon="10.1889645"><ele>143.16666666666666</ele><time>2026-03-29T11:12:00.449Z</time></trkpt><trkpt lat="45.5462327" lon="10.1890939"><ele>143.33333333333331</ele><time>2026-03-29T11:12:02.445Z</time></trkpt><trkpt lat="45.5462197" lon="10.1892398"><ele>143.5</ele><time>2026-03-29T11:12:04.44Z</time></trkpt><trkpt lat="45.5462134" lon="10.1893313"><ele>143.66666666666666</ele><time>2026-03-29T11:12:05.441Z</time></trkpt><trkpt lat="45.5462038" lon="10.1894223"><ele>143.83333333333334</ele><time>2026-03-29T11:12:06.442Z</time></trkpt><trkpt lat="45.5461955" lon="10.1895234"><ele>144.0</ele><time>2026-03-29T11:12:07.424Z</time></trkpt><trkpt lat="45.5461857" lon="10.1896221"><ele>144.2</ele><time>2026-03-29T11:12:08.432Z</time></trkpt><trkpt lat="45.5461737" lon="10.1897251"><ele>144.4</ele><time>2026-03-29T11:12:09.437Z</time></trkpt><trkpt lat="45.5461611" lon="10.1898263"><ele>144.6</ele><time>2026-03-29T11:12:10.437Z</time></trkpt><trkpt lat="45.5461373" lon="10.1899928"><ele>144.8</ele><time>2026-03-29T11:12:12.447Z</time></trkpt><trkpt lat="45.546122" lon="10.1901475"><ele>145.0</ele><time>2026-03-29T11:12:14.44Z</time></trkpt><trkpt lat="45.5460978" lon="10.1903312"><ele>144.71428571428572</ele><time>2026-03-29T11:12:16.432Z</time></trkpt><trkpt lat="45.5460847" lon="10.1904324"><ele>144.42857142857144</ele><time>2026-03-29T11:12:17.438Z</time></trkpt><trkpt lat="45.5460733" lon="10.1905326"><ele>144.14285714285714</ele><time>2026-03-29T11:12:18.438Z</time></trkpt><trkpt lat="45.5460634" lon="10.190632"><ele>143.85714285714286</ele><time>2026-03-29T11:12:19.426Z</time></trkpt><trkpt lat="45.5460535" lon="10.1907333"><ele>143.57142857142856</ele><time>2026-03-29T11:12:20.436Z</time></trkpt><trkpt lat="45.5460417" lon="10.1908393"><ele>143.28571428571428</ele><time>2026-03-29T11:12:21.437Z</time></trkpt><trkpt lat="45.5460266" lon="10.1909515"><ele>143.0</ele><time>2026-03-29T11:12:22.444Z</time></trkpt><trkpt lat="45.5460137" lon="10.1910624"><ele>143.0</ele><time>2026-03-29T11:12:23.441Z</time></trkpt><trkpt lat="45.5460022" lon="10.1911728"><ele>143.0</ele><time>2026-03-29T11:12:24.448Z</time></trkpt><trkpt lat="45.545989" lon="10.1912852"><ele>143.0</ele><time>2026-03-29T11:12:25.439Z</time></trkpt><trkpt lat="45.5459741" lon="10.1914014"><ele>143.0</ele><time>2026-03-29T11:12:26.431Z</time></trkpt><trkpt lat="45.5459542" lon="10.1915178"><ele>143.0</ele><time>2026-03-29T11:12:27.446Z</time></trkpt><trkpt lat="45.5459354" lon="10.1916199"><ele>143.0</ele><time>2026-03-29T11:12:28.453Z</time></trkpt><trkpt lat="45.5459153" lon="10.1917126"><ele>143.33333333333331</ele><time>2026-03-29T11:12:29.441Z</time></trkpt><trkpt lat="45.5458939" lon="10.1918119"><ele>143.66666666666666</ele><time>2026-03-29T11:12:30.441Z</time></trkpt><trkpt lat="45.5458727" lon="10.1919155"><ele>144.0</ele><time>2026-03-29T11:12:31.437Z</time></trkpt><trkpt lat="45.5458507" lon="10.1920185"><ele>144.33333333333334</ele><time>2026-03-29T11:12:32.45Z</time></trkpt><trkpt lat="45.5458273" lon="10.1921167"><ele>144.66666666666669</ele><time>2026-03-29T11:12:33.467Z</time></trkpt><trkpt lat="45.545788" lon="10.1922922"><ele>145.0</ele><time>2026-03-29T11:12:35.44Z</time></trkpt><trkpt lat="45.5457713" lon="10.1923966"><ele>145.16666666666669</ele><time>2026-03-29T11:12:36.444Z</time></trkpt><trkpt lat="45.5457529" lon="10.1924969"><ele>145.33333333333334</ele><time>2026-03-29T11:12:37.445Z</time></trkpt><trkpt lat="45.545733" lon="10.1925888"><ele>145.5</ele><time>2026-03-29T11:12:38.445Z</time></trkpt><trkpt lat="45.545714" lon="10.1926777"><ele>145.66666666666666</ele><time>2026-03-29T11:12:39.436Z</time></trkpt><trkpt lat="45.5456842" lon="10.1928589"><ele>145.83333333333331</ele><time>2026-03-29T11:12:41.437Z</time></trkpt><trkpt lat="45.545667" lon="10.192954"><ele>146.0</ele><time>2026-03-29T11:12:42.444Z</time></trkpt><trkpt lat="45.5456522" lon="10.1930492"><ele>146.0</ele><time>2026-03-29T11:12:43.431Z</time></trkpt><trkpt lat="45.5456353" lon="10.1931469"><ele>146.0</ele><time>2026-03-29T11:12:44.431Z</time></trkpt><trkpt lat="45.5456162" lon="10.1932453"><ele>146.0</ele><time>2026-03-29T11:12:45.437Z</time></trkpt><trkpt lat="45.5456013" lon="10.193341"><ele>146.0</ele><time>2026-03-29T11:12:46.436Z</time></trkpt><trkpt lat="45.5455881" lon="10.19343"><ele>146.0</ele><time>2026-03-29T11:12:47.479Z</time></trkpt><trkpt lat="45.5455776" lon="10.1935389"><ele>146.0</ele><time>2026-03-29T11:12:49.444Z</time></trkpt><trkpt lat="45.5455711" lon="10.1936469"><ele>146.0</ele><time>2026-03-29T11:12:52.445Z</time></trkpt><trkpt lat="45.5455495" lon="10.193749"><ele>146.0</ele><time>2026-03-29T11:12:55.443Z</time></trkpt><trkpt lat="45.5455129" lon="10.1938565"><ele>146.0</ele><time>2026-03-29T11:13:22.455Z</time></trkpt><trkpt lat="45.5454854" lon="10.1939624"><ele>146.0</ele><time>2026-03-29T11:13:23.447Z</time></trkpt><trkpt lat="45.5454578" lon="10.1940963"><ele>146.0</ele><time>2026-03-29T11:13:24.451Z</time></trkpt><trkpt lat="45.5454249" lon="10.1942614"><ele>146.0</ele><time>2026-03-29T11:13:25.422Z</time></trkpt><trkpt lat="45.5453928" lon="10.1944534"><ele>145.75</ele><time>2026-03-29T11:13:26.444Z</time></trkpt><trkpt lat="45.5453539" lon="10.1946353"><ele>145.5</ele><time>2026-03-29T11:13:27.448Z</time></trkpt><trkpt lat="45.5453106" lon="10.1947999"><ele>145.25</ele><time>2026-03-29T11:13:28.428Z</time></trkpt><trkpt lat="45.5452729" lon="10.194964"><ele>145.0</ele><time>2026-03-29T11:13:29.436Z</time></trkpt><trkpt lat="45.5452384" lon="10.1951289"><ele>145.0</ele><time>2026-03-29T11:13:30.46Z</time></trkpt><trkpt lat="45.5452049" lon="10.1952916"><ele>145.0</ele><time>2026-03-29T11:13:31.437Z</time></trkpt><trkpt lat="45.5451724" lon="10.1954616"><ele>145.0</ele><time>2026-03-29T11:13:32.441Z</time></trkpt><trkpt lat="45.5451364" lon="10.1956292"><ele>145.0</ele><time>2026-03-29T11:13:33.436Z</time></trkpt><trkpt lat="45.5451037" lon="10.195796"><ele>144.75</ele><time>2026-03-29T11:13:34.435Z</time></trkpt><trkpt lat="45.5450688" lon="10.1959625"><ele>144.5</ele><time>2026-03-29T11:13:35.432Z</time></trkpt><trkpt lat="45.5450311" lon="10.1961332"><ele>144.25</ele><time>2026-03-29T11:13:36.444Z</time></trkpt><trkpt lat="45.5449994" lon="10.196303"><ele>144.0</ele><time>2026-03-29T11:13:37.459Z</time></trkpt><trkpt lat="45.5449663" lon="10.1964713"><ele>144.25</ele><time>2026-03-29T11:13:38.437Z</time></trkpt><trkpt lat="45.5449323" lon="10.1966421"><ele>144.5</ele><time>2026-03-29T11:13:39.434Z</time></trkpt><trkpt lat="45.5448946" lon="10.1968064"><ele>144.75</ele><time>2026-03-29T11:13:40.434Z</time></trkpt><trkpt lat="45.5448571" lon="10.1969651"><ele>145.0</ele><time>2026-03-29T11:13:41.433Z</time></trkpt><trkpt lat="45.5448252" lon="10.1971175"><ele>145.0</ele><time>2026-03-29T11:13:42.449Z</time></trkpt><trkpt lat="45.5447946" lon="10.1972682"><ele>145.0</ele><time>2026-03-29T11:13:43.443Z</time></trkpt><trkpt lat="45.544765" lon="10.1974251"><ele>145.0</ele><time>2026-03-29T11:13:44.454Z</time></trkpt><trkpt lat="45.5447409" lon="10.197571"><ele>145.0</ele><time>2026-03-29T11:13:45.425Z</time></trkpt><trkpt lat="45.5447191" lon="10.1977135"><ele>145.0</ele><time>2026-03-29T11:13:46.443Z</time></trkpt><trkpt lat="45.5446989" lon="10.1978525"><ele>145.0</ele><time>2026-03-29T11:13:47.46Z</time></trkpt><trkpt lat="45.5446709" lon="10.1979867"><ele>145.0</ele><time>2026-03-29T11:13:48.446Z</time></trkpt><trkpt lat="45.5446356" lon="10.1981222"><ele>145.0</ele><time>2026-03-29T11:13:49.453Z</time></trkpt><trkpt lat="45.5445962" lon="10.1982609"><ele>145.0</ele><time>2026-03-29T11:13:50.442Z</time></trkpt><trkpt lat="45.544555" lon="10.1984082"><ele>145.0</ele><time>2026-03-29T11:13:51.451Z</time></trkpt><trkpt lat="45.5445141" lon="10.1985533"><ele>145.25</ele><time>2026-03-29T11:13:52.427Z</time></trkpt><trkpt lat="45.5444788" lon="10.1987082"><ele>145.5</ele><time>2026-03-29T11:13:53.431Z</time></trkpt><trkpt lat="45.5444462" lon="10.1988646"><ele>145.75</ele><time>2026-03-29T11:13:54.434Z</time></trkpt><trkpt lat="45.5444116" lon="10.1990243"><ele>146.0</ele><time>2026-03-29T11:13:55.44Z</time></trkpt><trkpt lat="45.5443783" lon="10.1991779"><ele>146.0</ele><time>2026-03-29T11:13:56.438Z</time></trkpt><trkpt lat="45.5443421" lon="10.1993266"><ele>146.0</ele><time>2026-03-29T11:13:57.422Z</time></trkpt><trkpt lat="45.5443074" lon="10.1994746"><ele>146.0</ele><time>2026-03-29T11:13:58.431Z</time></trkpt><trkpt lat="45.5442732" lon="10.1996226"><ele>146.0</ele><time>2026-03-29T11:13:59.433Z</time></trkpt><trkpt lat="45.5442431" lon="10.1997731"><ele>146.0</ele><time>2026-03-29T11:14:00.458Z</time></trkpt><trkpt lat="45.5442161" lon="10.1999346"><ele>146.0</ele><time>2026-03-29T11:14:01.44Z</time></trkpt><trkpt lat="45.544181" lon="10.2001027"><ele>146.0</ele><time>2026-03-29T11:14:02.429Z</time></trkpt><trkpt lat="45.544154" lon="10.2002704"><ele>146.0</ele><time>2026-03-29T11:14:03.433Z</time></trkpt><trkpt lat="45.5441246" lon="10.2004377"><ele>146.0</ele><time>2026-03-29T11:14:04.43Z</time></trkpt><trkpt lat="45.5440991" lon="10.2005931"><ele>145.66666666666666</ele><time>2026-03-29T11:14:05.438Z</time></trkpt><trkpt lat="45.5440748" lon="10.200719"><ele>145.33333333333331</ele><time>2026-03-29T11:14:06.433Z</time></trkpt><trkpt lat="45.5440521" lon="10.2008242"><ele>145.0</ele><time>2026-03-29T11:14:07.442Z</time></trkpt><trkpt lat="45.5440177" lon="10.2009141"><ele>144.66666666666666</ele><time>2026-03-29T11:14:08.433Z</time></trkpt><trkpt lat="45.5439795" lon="10.201011"><ele>144.33333333333334</ele><time>2026-03-29T11:14:09.451Z</time></trkpt><trkpt lat="45.5439581" lon="10.2011227"><ele>144.0</ele><time>2026-03-29T11:14:10.44Z</time></trkpt><trkpt lat="45.5439597" lon="10.2012403"><ele>144.0</ele><time>2026-03-29T11:14:11.426Z</time></trkpt><trkpt lat="45.5439558" lon="10.2013666"><ele>144.0</ele><time>2026-03-29T11:14:12.432Z</time></trkpt><trkpt lat="45.5439375" lon="10.2014995"><ele>144.0</ele><time>2026-03-29T11:14:13.44Z</time></trkpt><trkpt lat="45.5439159" lon="10.20165"><ele>144.0</ele><time>2026-03-29T11:14:14.758Z</time></trkpt><trkpt lat="45.5438579" lon="10.2019566"><ele>144.0</ele><time>2026-03-29T11:14:16.507Z</time></trkpt><trkpt lat="45.5438278" lon="10.2021155"><ele>144.0</ele><time>2026-03-29T11:14:17.487Z</time></trkpt><trkpt lat="45.5437969" lon="10.2022798"><ele>144.0</ele><time>2026-03-29T11:14:18.507Z</time></trkpt><trkpt lat="45.5437658" lon="10.2024367"><ele>144.0</ele><time>2026-03-29T11:14:19.489Z</time></trkpt><trkpt lat="45.5437344" lon="10.2025982"><ele>144.2</ele><time>2026-03-29T11:14:20.496Z</time></trkpt><trkpt lat="45.5437027" lon="10.2027599"><ele>144.4</ele><time>2026-03-29T11:14:21.503Z</time></trkpt><trkpt lat="45.5436756" lon="10.202913"><ele>144.6</ele><time>2026-03-29T11:14:22.477Z</time></trkpt><trkpt lat="45.5436488" lon="10.20306"><ele>144.8</ele><time>2026-03-29T11:14:23.445Z</time></trkpt><trkpt lat="45.5436256" lon="10.2032036"><ele>145.0</ele><time>2026-03-29T11:14:24.433Z</time></trkpt><trkpt lat="45.5435982" lon="10.2033491"><ele>145.0</ele><time>2026-03-29T11:14:25.43Z</time></trkpt><trkpt lat="45.5435724" lon="10.2034986"><ele>145.0</ele><time>2026-03-29T11:14:26.446Z</time></trkpt><trkpt lat="45.5435401" lon="10.2036478"><ele>145.0</ele><time>2026-03-29T11:14:27.44Z</time></trkpt><trkpt lat="45.543507" lon="10.2038054"><ele>145.0</ele><time>2026-03-29T11:14:28.466Z</time></trkpt><trkpt lat="45.543462" lon="10.204011"><ele>145.5</ele><time>2026-03-29T11:14:29.805Z</time></trkpt><trkpt lat="45.5434177" lon="10.2042827"><ele>146.0</ele><time>2026-03-29T11:14:31.503Z</time></trkpt><trkpt lat="45.5433868" lon="10.204442"><ele>146.5</ele><time>2026-03-29T11:14:32.487Z</time></trkpt><trkpt lat="45.5433555" lon="10.2046091"><ele>147.0</ele><time>2026-03-29T11:14:33.495Z</time></trkpt><trkpt lat="45.5433271" lon="10.2047793"><ele>146.75</ele><time>2026-03-29T11:14:34.508Z</time></trkpt><trkpt lat="45.5432914" lon="10.2049492"><ele>146.5</ele><time>2026-03-29T11:14:35.493Z</time></trkpt><trkpt lat="45.5432552" lon="10.2051223"><ele>146.25</ele><time>2026-03-29T11:14:36.51Z</time></trkpt><trkpt lat="45.5432227" lon="10.205275"><ele>146.0</ele><time>2026-03-29T11:14:37.488Z</time></trkpt><trkpt lat="45.5431919" lon="10.2054117"><ele>146.0</ele><time>2026-03-29T11:14:38.492Z</time></trkpt><trkpt lat="45.5431643" lon="10.2055283"><ele>146.0</ele><time>2026-03-29T11:14:39.501Z</time></trkpt><trkpt lat="45.5431403" lon="10.2056298"><ele>146.0</ele><time>2026-03-29T11:14:40.52Z</time></trkpt><trkpt lat="45.5431055" lon="10.205781"><ele>146.0</ele><time>2026-03-29T11:14:42.5Z</time></trkpt><trkpt lat="45.5430743" lon="10.2058734"><ele>146.0</ele><time>2026-03-29T11:14:44.488Z</time></trkpt><trkpt lat="45.5430304" lon="10.2059527"><ele>146.0</ele><time>2026-03-29T11:14:50.493Z</time></trkpt><trkpt lat="45.5430458" lon="10.2060469"><ele>146.16666666666666</ele><time>2026-03-29T11:14:54.478Z</time></trkpt><trkpt lat="45.543119" lon="10.2060796"><ele>146.33333333333331</ele><time>2026-03-29T11:14:58.517Z</time></trkpt><trkpt lat="45.5431459" lon="10.2059906"><ele>146.5</ele><time>2026-03-29T11:15:01.493Z</time></trkpt><trkpt lat="45.5431678" lon="10.2058748"><ele>146.66666666666666</ele><time>2026-03-29T11:15:04.489Z</time></trkpt><trkpt lat="45.543198" lon="10.2057833"><ele>146.83333333333334</ele><time>2026-03-29T11:15:07.507Z</time></trkpt><trkpt lat="45.543291" lon="10.2057093"><ele>147.0</ele><time>2026-03-29T11:15:10.492Z</time></trkpt><trkpt lat="45.5433549" lon="10.2057097"><ele>147.0</ele><time>2026-03-29T11:15:11.504Z</time></trkpt><trkpt lat="45.5434351" lon="10.2057525"><ele>147.0</ele><time>2026-03-29T11:15:12.493Z</time></trkpt><trkpt lat="45.5435313" lon="10.2057991"><ele>147.0</ele><time>2026-03-29T11:15:13.508Z</time></trkpt><trkpt lat="45.5436345" lon="10.2058431"><ele>147.0</ele><time>2026-03-29T11:15:14.489Z</time></trkpt><trkpt lat="45.54375" lon="10.2058877"><ele>147.0</ele><time>2026-03-29T11:15:15.505Z</time></trkpt><trkpt lat="45.5438718" lon="10.205934"><ele>146.75</ele><time>2026-03-29T11:15:16.491Z</time></trkpt><trkpt lat="45.5440013" lon="10.2059846"><ele>146.5</ele><time>2026-03-29T11:15:17.489Z</time></trkpt><trkpt lat="45.5441348" lon="10.2060378"><ele>146.25</ele><time>2026-03-29T11:15:18.495Z</time></trkpt><trkpt lat="45.5442664" lon="10.2060894"><ele>146.0</ele><time>2026-03-29T11:15:19.501Z</time></trkpt><trkpt lat="45.5443899" lon="10.206136"><ele>146.0</ele><time>2026-03-29T11:15:20.503Z</time></trkpt><trkpt lat="45.5445068" lon="10.2061781"><ele>146.0</ele><time>2026-03-29T11:15:21.487Z</time></trkpt><trkpt lat="45.5446257" lon="10.2062168"><ele>146.0</ele><time>2026-03-29T11:15:22.487Z</time></trkpt><trkpt lat="45.5447447" lon="10.2062574"><ele>146.0</ele><time>2026-03-29T11:15:23.499Z</time></trkpt><trkpt lat="45.5448595" lon="10.2063006"><ele>146.5</ele><time>2026-03-29T11:15:24.49Z</time></trkpt><trkpt lat="45.5449727" lon="10.2063451"><ele>147.0</ele><time>2026-03-29T11:15:25.478Z</time></trkpt><trkpt lat="45.5450886" lon="10.206391"><ele>147.5</ele><time>2026-03-29T11:15:26.487Z</time></trkpt><trkpt lat="45.5452008" lon="10.2064362"><ele>148.0</ele><time>2026-03-29T11:15:27.488Z</time></trkpt><trkpt lat="45.5453148" lon="10.2064795"><ele>148.0</ele><time>2026-03-29T11:15:28.507Z</time></trkpt><trkpt lat="45.5454249" lon="10.2065176"><ele>148.0</ele><time>2026-03-29T11:15:29.495Z</time></trkpt><trkpt lat="45.5455307" lon="10.2065539"><ele>148.0</ele><time>2026-03-29T11:15:30.502Z</time></trkpt><trkpt lat="45.545633" lon="10.2065867"><ele>148.0</ele><time>2026-03-29T11:15:31.502Z</time></trkpt><trkpt lat="45.5457323" lon="10.2066182"><ele>148.0</ele><time>2026-03-29T11:15:32.5Z</time></trkpt><trkpt lat="45.5458172" lon="10.2066452"><ele>148.0</ele><time>2026-03-29T11:15:33.501Z</time></trkpt><trkpt lat="45.545878" lon="10.2066698"><ele>148.0</ele><time>2026-03-29T11:15:34.496Z</time></trkpt><trkpt lat="45.5459462" lon="10.2067151"><ele>148.0</ele><time>2026-03-29T11:15:36.506Z</time></trkpt><trkpt lat="45.5459576" lon="10.2068617"><ele>148.0</ele><time>2026-03-29T11:15:39.506Z</time></trkpt><trkpt lat="45.5459253" lon="10.2069509"><ele>148.0</ele><time>2026-03-29T11:15:40.489Z</time></trkpt><trkpt lat="45.5458947" lon="10.2070515"><ele>148.0</ele><time>2026-03-29T11:15:41.505Z</time></trkpt><trkpt lat="45.5458634" lon="10.207162"><ele>148.0</ele><time>2026-03-29T11:15:42.486Z</time></trkpt><trkpt lat="45.5458344" lon="10.2072842"><ele>148.0</ele><time>2026-03-29T11:15:43.492Z</time></trkpt><trkpt lat="45.545819" lon="10.2073931"><ele>148.0</ele><time>2026-03-29T11:15:44.516Z</time></trkpt><trkpt lat="45.5457886" lon="10.207518"><ele>148.0</ele><time>2026-03-29T11:15:46.496Z</time></trkpt><trkpt lat="45.5457684" lon="10.2076141"><ele>148.0</ele><time>2026-03-29T11:15:50.497Z</time></trkpt><trkpt lat="45.5457309" lon="10.2077193"><ele>148.0</ele><time>2026-03-29T11:15:52.491Z</time></trkpt><trkpt lat="45.5457039" lon="10.2078058"><ele>148.0</ele><time>2026-03-29T11:15:55.496Z</time></trkpt><trkpt lat="45.5456854" lon="10.2079054"><ele>148.0</ele><time>2026-03-29T11:16:02.488Z</time></trkpt><trkpt lat="45.5456655" lon="10.2080312"><ele>148.0</ele><time>2026-03-29T11:16:04.483Z</time></trkpt><trkpt lat="45.5456373" lon="10.2081213"><ele>148.0</ele><time>2026-03-29T11:16:05.496Z</time></trkpt><trkpt lat="45.5456035" lon="10.2082284"><ele>148.0</ele><time>2026-03-29T11:16:06.493Z</time></trkpt><trkpt lat="45.5455747" lon="10.2083289"><ele>148.0</ele><time>2026-03-29T11:16:07.491Z</time></trkpt><trkpt lat="45.5455502" lon="10.2084174"><ele>148.0</ele><time>2026-03-29T11:16:08.489Z</time></trkpt><trkpt lat="45.5455143" lon="10.208567"><ele>148.0</ele><time>2026-03-29T11:16:10.493Z</time></trkpt><trkpt lat="45.5454803" lon="10.2086792"><ele>148.0</ele><time>2026-03-29T11:16:12.507Z</time></trkpt><trkpt lat="45.5454002" lon="10.2087601"><ele>148.0</ele><time>2026-03-29T11:16:15.479Z</time></trkpt><trkpt lat="45.5452762" lon="10.2087823"><ele>148.0</ele><time>2026-03-29T11:16:17.497Z</time></trkpt><trkpt lat="45.5451944" lon="10.2088014"><ele>148.20000000000002</ele><time>2026-03-29T11:16:18.491Z</time></trkpt><trkpt lat="45.5450997" lon="10.2088362"><ele>148.4</ele><time>2026-03-29T11:16:19.515Z</time></trkpt><trkpt lat="45.5450036" lon="10.2088828"><ele>148.60000000000002</ele><time>2026-03-29T11:16:20.499Z</time></trkpt><trkpt lat="45.5449031" lon="10.2089347"><ele>148.8</ele><time>2026-03-29T11:16:21.497Z</time></trkpt><trkpt lat="45.5447978" lon="10.2089882"><ele>149.0</ele><time>2026-03-29T11:16:22.502Z</time></trkpt><trkpt lat="45.5446929" lon="10.2090384"><ele>149.0</ele><time>2026-03-29T11:16:23.495Z</time></trkpt><trkpt lat="45.5445923" lon="10.2090834"><ele>149.0</ele><time>2026-03-29T11:16:24.517Z</time></trkpt><trkpt lat="45.5445083" lon="10.2091168"><ele>149.0</ele><time>2026-03-29T11:16:25.491Z</time></trkpt><trkpt lat="45.5444285" lon="10.2091428"><ele>149.0</ele><time>2026-03-29T11:16:26.505Z</time></trkpt><trkpt lat="45.5443484" lon="10.2091555"><ele>149.0</ele><time>2026-03-29T11:16:27.487Z</time></trkpt><trkpt lat="45.5442704" lon="10.2091454"><ele>149.0</ele><time>2026-03-29T11:16:28.492Z</time></trkpt><trkpt lat="45.5441929" lon="10.2091204"><ele>148.83333333333331</ele><time>2026-03-29T11:16:29.505Z</time></trkpt><trkpt lat="45.5441226" lon="10.2090829"><ele>148.66666666666666</ele><time>2026-03-29T11:16:30.494Z</time></trkpt><trkpt lat="45.5440607" lon="10.2090439"><ele>148.5</ele><time>2026-03-29T11:16:31.486Z</time></trkpt><trkpt lat="45.5439672" lon="10.2089676"><ele>148.33333333333334</ele><time>2026-03-29T11:16:33.516Z</time></trkpt><trkpt lat="45.5439044" lon="10.2088919"><ele>148.16666666666669</ele><time>2026-03-29T11:16:35.491Z</time></trkpt><trkpt lat="45.5438277" lon="10.2088969"><ele>148.0</ele><time>2026-03-29T11:16:37.485Z</time></trkpt><trkpt lat="45.5438009" lon="10.2089934"><ele>148.0</ele><time>2026-03-29T11:16:39.483Z</time></trkpt><trkpt lat="45.5438488" lon="10.2091321"><ele>148.0</ele><time>2026-03-29T11:16:41.491Z</time></trkpt><trkpt lat="45.5438866" lon="10.2092223"><ele>148.0</ele><time>2026-03-29T11:16:42.499Z</time></trkpt><trkpt lat="45.5439275" lon="10.2093303"><ele>148.0</ele><time>2026-03-29T11:16:43.499Z</time></trkpt><trkpt lat="45.5439747" lon="10.2094596"><ele>148.0</ele><time>2026-03-29T11:16:44.488Z</time></trkpt><trkpt lat="45.5440285" lon="10.2096046"><ele>148.0</ele><time>2026-03-29T11:16:45.498Z</time></trkpt><trkpt lat="45.5440802" lon="10.2097507"><ele>148.0</ele><time>2026-03-29T11:16:46.508Z</time></trkpt><trkpt lat="45.5441263" lon="10.2098887"><ele>148.0</ele><time>2026-03-29T11:16:47.495Z</time></trkpt><trkpt lat="45.5441702" lon="10.2100159"><ele>148.0</ele><time>2026-03-29T11:16:48.488Z</time></trkpt><trkpt lat="45.5442096" lon="10.2101329"><ele>148.0</ele><time>2026-03-29T11:16:49.491Z</time></trkpt><trkpt lat="45.5442451" lon="10.2102382"><ele>148.0</ele><time>2026-03-29T11:16:50.504Z</time></trkpt><trkpt lat="45.5442646" lon="10.2103364"><ele>148.0</ele><time>2026-03-29T11:16:51.495Z</time></trkpt><trkpt lat="45.5442611" lon="10.2104432"><ele>148.0</ele><time>2026-03-29T11:16:52.496Z</time></trkpt><trkpt lat="45.5442403" lon="10.210554"><ele>148.0</ele><time>2026-03-29T11:16:53.495Z</time></trkpt><trkpt lat="45.5442124" lon="10.2106737"><ele>148.0</ele><time>2026-03-29T11:16:54.501Z</time></trkpt><trkpt lat="45.5441814" lon="10.2108029"><ele>148.0</ele><time>2026-03-29T11:16:55.492Z</time></trkpt><trkpt lat="45.5441468" lon="10.2109475"><ele>148.0</ele><time>2026-03-29T11:16:56.49Z</time></trkpt><trkpt lat="45.5441068" lon="10.2111046"><ele>148.0</ele><time>2026-03-29T11:16:57.488Z</time></trkpt><trkpt lat="45.544065" lon="10.2112666"><ele>148.0</ele><time>2026-03-29T11:16:58.481Z</time></trkpt><trkpt lat="45.5440253" lon="10.2114287"><ele>148.0</ele><time>2026-03-29T11:16:59.488Z</time></trkpt><trkpt lat="45.543988" lon="10.2115817"><ele>148.16666666666669</ele><time>2026-03-29T11:17:00.503Z</time></trkpt><trkpt lat="45.5439546" lon="10.2117093"><ele>148.33333333333334</ele><time>2026-03-29T11:17:01.493Z</time></trkpt><trkpt lat="45.5439274" lon="10.21181"><ele>148.5</ele><time>2026-03-29T11:17:02.502Z</time></trkpt><trkpt lat="45.5438732" lon="10.2119044"><ele>148.66666666666666</ele><time>2026-03-29T11:17:04.497Z</time></trkpt><trkpt lat="45.5437775" lon="10.2119151"><ele>148.83333333333331</ele><time>2026-03-29T11:17:06.493Z</time></trkpt><trkpt lat="45.5437157" lon="10.2118855"><ele>149.0</ele><time>2026-03-29T11:17:07.496Z</time></trkpt><trkpt lat="45.5436415" lon="10.2118407"><ele>149.0</ele><time>2026-03-29T11:17:08.512Z</time></trkpt><trkpt lat="45.5435555" lon="10.2117914"><ele>149.0</ele><time>2026-03-29T11:17:09.492Z</time></trkpt><trkpt lat="45.543461" lon="10.2117395"><ele>149.0</ele><time>2026-03-29T11:17:10.505Z</time></trkpt><trkpt lat="45.5433568" lon="10.211689"><ele>149.0</ele><time>2026-03-29T11:17:11.515Z</time></trkpt><trkpt lat="45.5432479" lon="10.211635"><ele>149.0</ele><time>2026-03-29T11:17:12.493Z</time></trkpt><trkpt lat="45.5431255" lon="10.2115734"><ele>149.0</ele><time>2026-03-29T11:17:13.515Z</time></trkpt><trkpt lat="45.5430008" lon="10.2115097"><ele>149.0</ele><time>2026-03-29T11:17:14.489Z</time></trkpt><trkpt lat="45.5428674" lon="10.2114386"><ele>149.0</ele><time>2026-03-29T11:17:15.493Z</time></trkpt><trkpt lat="45.5427306" lon="10.211367"><ele>149.0</ele><time>2026-03-29T11:17:16.497Z</time></trkpt><trkpt lat="45.5425897" lon="10.211295"><ele>150.25</ele><time>2026-03-29T11:17:17.506Z</time></trkpt><trkpt lat="45.5424537" lon="10.2112283"><ele>151.5</ele><time>2026-03-29T11:17:18.503Z</time></trkpt><trkpt lat="45.542323" lon="10.2111638"><ele>152.75</ele><time>2026-03-29T11:17:19.489Z</time></trkpt><trkpt lat="45.5421949" lon="10.2111011"><ele>154.0</ele><time>2026-03-29T11:17:20.477Z</time></trkpt><trkpt lat="45.542052" lon="10.2110331"><ele>153.25</ele><time>2026-03-29T11:17:21.493Z</time></trkpt><trkpt lat="45.5419222" lon="10.2109644"><ele>152.5</ele><time>2026-03-29T11:17:22.497Z</time></trkpt><trkpt lat="45.5417911" lon="10.2108958"><ele>151.75</ele><time>2026-03-29T11:17:23.489Z</time></trkpt><trkpt lat="45.5416491" lon="10.2108286"><ele>151.0</ele><time>2026-03-29T11:17:24.513Z</time></trkpt><trkpt lat="45.5415102" lon="10.21077"><ele>151.0</ele><time>2026-03-29T11:17:25.496Z</time></trkpt><trkpt lat="45.5413737" lon="10.2107201"><ele>151.0</ele><time>2026-03-29T11:17:26.489Z</time></trkpt><trkpt lat="45.5412415" lon="10.2106783"><ele>151.0</ele><time>2026-03-29T11:17:27.5Z</time></trkpt><trkpt lat="45.541096" lon="10.21064"><ele>151.0</ele><time>2026-03-29T11:17:28.513Z</time></trkpt><trkpt lat="45.5409619" lon="10.2106051"><ele>150.75</ele><time>2026-03-29T11:17:29.508Z</time></trkpt><trkpt lat="45.5408218" lon="10.210568"><ele>150.5</ele><time>2026-03-29T11:17:30.506Z</time></trkpt><trkpt lat="45.5406764" lon="10.2105276"><ele>150.25</ele><time>2026-03-29T11:17:31.511Z</time></trkpt><trkpt lat="45.5405321" lon="10.2104886"><ele>150.0</ele><time>2026-03-29T11:17:32.496Z</time></trkpt><trkpt lat="45.5403893" lon="10.2104491"><ele>149.6</ele><time>2026-03-29T11:17:33.494Z</time></trkpt><trkpt lat="45.5402456" lon="10.2104088"><ele>149.2</ele><time>2026-03-29T11:17:34.511Z</time></trkpt><trkpt lat="45.5401253" lon="10.2103753"><ele>148.8</ele><time>2026-03-29T11:17:35.489Z</time></trkpt><trkpt lat="45.5400379" lon="10.2103496"><ele>148.4</ele><time>2026-03-29T11:17:36.479Z</time></trkpt><trkpt lat="45.5399758" lon="10.2103325"><ele>148.0</ele><time>2026-03-29T11:17:37.512Z</time></trkpt><trkpt lat="45.539907" lon="10.2103118"><ele>148.0</ele><time>2026-03-29T11:17:39.49Z</time></trkpt><trkpt lat="45.5398287" lon="10.2102715"><ele>148.0</ele><time>2026-03-29T11:18:14.507Z</time></trkpt><trkpt lat="45.539747" lon="10.2102525"><ele>148.0</ele><time>2026-03-29T11:18:15.523Z</time></trkpt><trkpt lat="45.5396487" lon="10.2102318"><ele>148.0</ele><time>2026-03-29T11:18:16.491Z</time></trkpt><trkpt lat="45.5395325" lon="10.2102038"><ele>148.0</ele><time>2026-03-29T11:18:17.525Z</time></trkpt><trkpt lat="45.5394091" lon="10.210172"><ele>147.5</ele><time>2026-03-29T11:18:18.493Z</time></trkpt><trkpt lat="45.5392674" lon="10.2101394"><ele>147.0</ele><time>2026-03-29T11:18:19.504Z</time></trkpt><trkpt lat="45.5391213" lon="10.2101054"><ele>146.5</ele><time>2026-03-29T11:18:20.496Z</time></trkpt><trkpt lat="45.5389676" lon="10.2100702"><ele>146.0</ele><time>2026-03-29T11:18:21.5Z</time></trkpt><trkpt lat="45.5388256" lon="10.210034"><ele>145.75</ele><time>2026-03-29T11:18:22.484Z</time></trkpt><trkpt lat="45.5386886" lon="10.2100013"><ele>145.5</ele><time>2026-03-29T11:18:23.505Z</time></trkpt><trkpt lat="45.5385648" lon="10.2099694"><ele>145.25</ele><time>2026-03-29T11:18:24.506Z</time></trkpt><trkpt lat="45.5384493" lon="10.209942"><ele>145.0</ele><time>2026-03-29T11:18:25.501Z</time></trkpt><trkpt lat="45.5383304" lon="10.2099191"><ele>145.0</ele><time>2026-03-29T11:18:26.512Z</time></trkpt><trkpt lat="45.5382097" lon="10.2098964"><ele>145.0</ele><time>2026-03-29T11:18:27.494Z</time></trkpt><trkpt lat="45.538077" lon="10.2098696"><ele>145.0</ele><time>2026-03-29T11:18:28.523Z</time></trkpt><trkpt lat="45.5379432" lon="10.2098414"><ele>145.0</ele><time>2026-03-29T11:18:29.505Z</time></trkpt><trkpt lat="45.5377975" lon="10.2098053"><ele>145.33333333333334</ele><time>2026-03-29T11:18:30.513Z</time></trkpt><trkpt lat="45.5376481" lon="10.2097706"><ele>145.66666666666666</ele><time>2026-03-29T11:18:31.487Z</time></trkpt><trkpt lat="45.537492" lon="10.2097317"><ele>146.0</ele><time>2026-03-29T11:18:32.518Z</time></trkpt><trkpt lat="45.5373472" lon="10.2096982"><ele>146.0</ele><time>2026-03-29T11:18:33.496Z</time></trkpt><trkpt lat="45.5372044" lon="10.2096693"><ele>146.0</ele><time>2026-03-29T11:18:34.48Z</time></trkpt><trkpt lat="45.5370565" lon="10.2096525"><ele>146.0</ele><time>2026-03-29T11:18:35.493Z</time></trkpt><trkpt lat="45.5369114" lon="10.2096608"><ele>146.0</ele><time>2026-03-29T11:18:36.494Z</time></trkpt><trkpt lat="45.5367735" lon="10.2096957"><ele>146.25</ele><time>2026-03-29T11:18:37.486Z</time></trkpt><trkpt lat="45.5366378" lon="10.2097618"><ele>146.5</ele><time>2026-03-29T11:18:38.494Z</time></trkpt><trkpt lat="45.5365071" lon="10.2098582"><ele>146.75</ele><time>2026-03-29T11:18:39.492Z</time></trkpt><trkpt lat="45.5363826" lon="10.2099796"><ele>147.0</ele><time>2026-03-29T11:18:40.503Z</time></trkpt><trkpt lat="45.5362602" lon="10.2101107"><ele>146.0</ele><time>2026-03-29T11:18:41.49Z</time></trkpt><trkpt lat="45.5361286" lon="10.2102422"><ele>145.0</ele><time>2026-03-29T11:18:42.518Z</time></trkpt><trkpt lat="45.5359999" lon="10.2103642"><ele>144.0</ele><time>2026-03-29T11:18:43.502Z</time></trkpt><trkpt lat="45.5358778" lon="10.2104811"><ele>144.0</ele><time>2026-03-29T11:18:44.492Z</time></trkpt><trkpt lat="45.5357609" lon="10.210595"><ele>144.0</ele><time>2026-03-29T11:18:45.493Z</time></trkpt><trkpt lat="45.5356559" lon="10.2107013"><ele>144.0</ele><time>2026-03-29T11:18:46.48Z</time></trkpt><trkpt lat="45.5355592" lon="10.210802"><ele>144.0</ele><time>2026-03-29T11:18:47.504Z</time></trkpt><trkpt lat="45.5354807" lon="10.210881"><ele>144.16666666666666</ele><time>2026-03-29T11:18:48.486Z</time></trkpt><trkpt lat="45.5354075" lon="10.2109478"><ele>144.33333333333334</ele><time>2026-03-29T11:18:49.515Z</time></trkpt><trkpt lat="45.5353504" lon="10.2109958"><ele>144.5</ele><time>2026-03-29T11:18:50.487Z</time></trkpt><trkpt lat="45.535288" lon="10.2110489"><ele>144.66666666666669</ele><time>2026-03-29T11:18:52.507Z</time></trkpt><trkpt lat="45.5352332" lon="10.211119"><ele>144.83333333333334</ele><time>2026-03-29T11:18:59.486Z</time></trkpt><trkpt lat="45.5351539" lon="10.2111767"><ele>145.0</ele><time>2026-03-29T11:19:25.488Z</time></trkpt><trkpt lat="45.5350979" lon="10.2112209"><ele>144.6</ele><time>2026-03-29T11:19:26.5Z</time></trkpt><trkpt lat="45.5349715" lon="10.211273"><ele>144.2</ele><time>2026-03-29T11:19:28.508Z</time></trkpt><trkpt lat="45.5349105" lon="10.2112991"><ele>143.8</ele><time>2026-03-29T11:19:29.493Z</time></trkpt><trkpt lat="45.5348418" lon="10.2113456"><ele>143.4</ele><time>2026-03-29T11:19:30.493Z</time></trkpt><trkpt lat="45.5347551" lon="10.2113883"><ele>143.0</ele><time>2026-03-29T11:19:31.485Z</time></trkpt><trkpt lat="45.5346914" lon="10.2115292"><ele>143.0</ele><time>2026-03-29T11:19:33.491Z</time></trkpt><trkpt lat="45.5346944" lon="10.2116196"><ele>143.0</ele><time>2026-03-29T11:19:34.492Z</time></trkpt><trkpt lat="45.5347074" lon="10.2117242"><ele>143.0</ele><time>2026-03-29T11:19:35.509Z</time></trkpt><trkpt lat="45.5347173" lon="10.2118423"><ele>143.0</ele><time>2026-03-29T11:19:36.493Z</time></trkpt><trkpt lat="45.5347204" lon="10.2119819"><ele>143.0</ele><time>2026-03-29T11:19:37.501Z</time></trkpt><trkpt lat="45.5347043" lon="10.212138"><ele>143.0</ele><time>2026-03-29T11:19:38.492Z</time></trkpt><trkpt lat="45.5346745" lon="10.2123134"><ele>143.0</ele><time>2026-03-29T11:19:39.504Z</time></trkpt><trkpt lat="45.5346404" lon="10.212485"><ele>143.0</ele><time>2026-03-29T11:19:40.497Z</time></trkpt><trkpt lat="45.5346058" lon="10.212661"><ele>143.0</ele><time>2026-03-29T11:19:41.5Z</time></trkpt><trkpt lat="45.5345712" lon="10.2128391"><ele>143.0</ele><time>2026-03-29T11:19:42.503Z</time></trkpt><trkpt lat="45.5345378" lon="10.2130175"><ele>143.5</ele><time>2026-03-29T11:19:43.495Z</time></trkpt><trkpt lat="45.5345044" lon="10.2132014"><ele>144.0</ele><time>2026-03-29T11:19:44.504Z</time></trkpt><trkpt lat="45.5344728" lon="10.213383"><ele>144.5</ele><time>2026-03-29T11:19:45.488Z</time></trkpt><trkpt lat="45.5344409" lon="10.2135704"><ele>145.0</ele><time>2026-03-29T11:19:46.491Z</time></trkpt><trkpt lat="45.5344081" lon="10.2137627"><ele>145.0</ele><time>2026-03-29T11:19:47.501Z</time></trkpt><trkpt lat="45.5343742" lon="10.2139571"><ele>145.0</ele><time>2026-03-29T11:19:48.501Z</time></trkpt><trkpt lat="45.5343377" lon="10.2141548"><ele>145.0</ele><time>2026-03-29T11:19:49.504Z</time></trkpt><trkpt lat="45.5342989" lon="10.2143563"><ele>145.0</ele><time>2026-03-29T11:19:50.511Z</time></trkpt><trkpt lat="45.5342589" lon="10.2145587"><ele>145.0</ele><time>2026-03-29T11:19:51.516Z</time></trkpt><trkpt lat="45.5342195" lon="10.2147621"><ele>145.0</ele><time>2026-03-29T11:19:52.512Z</time></trkpt><trkpt lat="45.5341826" lon="10.2149569"><ele>145.0</ele><time>2026-03-29T11:19:53.496Z</time></trkpt><trkpt lat="45.5341448" lon="10.2151421"><ele>145.0</ele><time>2026-03-29T11:19:54.513Z</time></trkpt><trkpt lat="45.5341081" lon="10.2153078"><ele>144.8</ele><time>2026-03-29T11:19:55.5Z</time></trkpt><trkpt lat="45.534075" lon="10.2154676"><ele>144.6</ele><time>2026-03-29T11:19:56.5Z</time></trkpt><trkpt lat="45.5340444" lon="10.2156208"><ele>144.4</ele><time>2026-03-29T11:19:57.497Z</time></trkpt><trkpt lat="45.5340129" lon="10.2157703"><ele>144.2</ele><time>2026-03-29T11:19:58.499Z</time></trkpt><trkpt lat="45.5339804" lon="10.2159185"><ele>144.0</ele><time>2026-03-29T11:19:59.53Z</time></trkpt><trkpt lat="45.5339509" lon="10.2160605"><ele>144.0</ele><time>2026-03-29T11:20:00.497Z</time></trkpt><trkpt lat="45.5339174" lon="10.2162148"><ele>144.0</ele><time>2026-03-29T11:20:01.503Z</time></trkpt><trkpt lat="45.5338862" lon="10.216374"><ele>144.0</ele><time>2026-03-29T11:20:02.495Z</time></trkpt><trkpt lat="45.5338558" lon="10.216542"><ele>144.0</ele><time>2026-03-29T11:20:03.501Z</time></trkpt><trkpt lat="45.533825" lon="10.2167141"><ele>144.2</ele><time>2026-03-29T11:20:04.501Z</time></trkpt><trkpt lat="45.5337939" lon="10.2168908"><ele>144.4</ele><time>2026-03-29T11:20:05.507Z</time></trkpt><trkpt lat="45.5337652" lon="10.2170571"><ele>144.6</ele><time>2026-03-29T11:20:06.507Z</time></trkpt><trkpt lat="45.5337387" lon="10.2172051"><ele>144.8</ele><time>2026-03-29T11:20:07.498Z</time></trkpt><trkpt lat="45.5337166" lon="10.2173327"><ele>145.0</ele><time>2026-03-29T11:20:08.508Z</time></trkpt><trkpt lat="45.5337" lon="10.2174292"><ele>145.4</ele><time>2026-03-29T11:20:09.511Z</time></trkpt><trkpt lat="45.5336814" lon="10.2175463"><ele>145.8</ele><time>2026-03-29T11:20:11.499Z</time></trkpt><trkpt lat="45.5336625" lon="10.21765"><ele>146.2</ele><time>2026-03-29T11:20:14.492Z</time></trkpt><trkpt lat="45.5336282" lon="10.2178029"><ele>146.6</ele><time>2026-03-29T11:20:16.517Z</time></trkpt><trkpt lat="45.5336047" lon="10.2179218"><ele>147.0</ele><time>2026-03-29T11:20:17.49Z</time></trkpt><trkpt lat="45.5335783" lon="10.2180521"><ele>146.6</ele><time>2026-03-29T11:20:18.496Z</time></trkpt><trkpt lat="45.5335491" lon="10.2181855"><ele>146.2</ele><time>2026-03-29T11:20:19.484Z</time></trkpt><trkpt lat="45.5335184" lon="10.2183225"><ele>145.8</ele><time>2026-03-29T11:20:20.493Z</time></trkpt><trkpt lat="45.5334891" lon="10.2184503"><ele>145.4</ele><time>2026-03-29T11:20:21.501Z</time></trkpt><trkpt lat="45.5334632" lon="10.2185724"><ele>145.0</ele><time>2026-03-29T11:20:22.499Z</time></trkpt><trkpt lat="45.5334352" lon="10.2187022"><ele>145.0</ele><time>2026-03-29T11:20:23.519Z</time></trkpt><trkpt lat="45.5334074" lon="10.2188432"><ele>145.0</ele><time>2026-03-29T11:20:24.49Z</time></trkpt><trkpt lat="45.5333814" lon="10.2190092"><ele>145.0</ele><time>2026-03-29T11:20:25.485Z</time></trkpt><trkpt lat="45.5333489" lon="10.2191927"><ele>145.0</ele><time>2026-03-29T11:20:26.494Z</time></trkpt><trkpt lat="45.5333139" lon="10.2193736"><ele>145.0</ele><time>2026-03-29T11:20:27.488Z</time></trkpt><trkpt lat="45.5332776" lon="10.2195634"><ele>145.0</ele><time>2026-03-29T11:20:28.514Z</time></trkpt><trkpt lat="45.5332437" lon="10.2197431"><ele>145.0</ele><time>2026-03-29T11:20:29.497Z</time></trkpt><trkpt lat="45.5332108" lon="10.2199239"><ele>145.0</ele><time>2026-03-29T11:20:30.493Z</time></trkpt><trkpt lat="45.5331787" lon="10.2201046"><ele>145.0</ele><time>2026-03-29T11:20:31.497Z</time></trkpt><trkpt lat="45.5331459" lon="10.2202791"><ele>145.0</ele><time>2026-03-29T11:20:32.489Z</time></trkpt><trkpt lat="45.5331128" lon="10.2204541"><ele>145.0</ele><time>2026-03-29T11:20:33.508Z</time></trkpt><trkpt lat="45.5330785" lon="10.2206259"><ele>145.0</ele><time>2026-03-29T11:20:34.501Z</time></trkpt><trkpt lat="45.5330427" lon="10.2208049"><ele>144.75</ele><time>2026-03-29T11:20:35.514Z</time></trkpt><trkpt lat="45.5330081" lon="10.2209857"><ele>144.5</ele><time>2026-03-29T11:20:36.508Z</time></trkpt><trkpt lat="45.532973" lon="10.2211716"><ele>144.25</ele><time>2026-03-29T11:20:37.504Z</time></trkpt><trkpt lat="45.5329359" lon="10.2213633"><ele>144.0</ele><time>2026-03-29T11:20:38.506Z</time></trkpt><trkpt lat="45.5328974" lon="10.2215576"><ele>143.5</ele><time>2026-03-29T11:20:39.508Z</time></trkpt><trkpt lat="45.5328572" lon="10.2217513"><ele>143.0</ele><time>2026-03-29T11:20:40.5Z</time></trkpt><trkpt lat="45.5328168" lon="10.2219476"><ele>142.5</ele><time>2026-03-29T11:20:41.5Z</time></trkpt><trkpt lat="45.5327781" lon="10.2221432"><ele>142.0</ele><time>2026-03-29T11:20:42.498Z</time></trkpt><trkpt lat="45.5327397" lon="10.2223401"><ele>142.0</ele><time>2026-03-29T11:20:43.496Z</time></trkpt><trkpt lat="45.5327005" lon="10.2225399"><ele>142.0</ele><time>2026-03-29T11:20:44.508Z</time></trkpt><trkpt lat="45.5326622" lon="10.2227393"><ele>142.0</ele><time>2026-03-29T11:20:45.515Z</time></trkpt><trkpt lat="45.5326223" lon="10.2229401"><ele>142.0</ele><time>2026-03-29T11:20:46.513Z</time></trkpt><trkpt lat="45.5325813" lon="10.2231452"><ele>142.33333333333334</ele><time>2026-03-29T11:20:47.489Z</time></trkpt><trkpt lat="45.5325395" lon="10.2233676"><ele>142.66666666666666</ele><time>2026-03-29T11:20:48.496Z</time></trkpt><trkpt lat="45.5325023" lon="10.2236002"><ele>143.0</ele><time>2026-03-29T11:20:49.503Z</time></trkpt><trkpt lat="45.532467" lon="10.2238295"><ele>142.66666666666666</ele><time>2026-03-29T11:20:50.487Z</time></trkpt><trkpt lat="45.5324323" lon="10.2240652"><ele>142.33333333333334</ele><time>2026-03-29T11:20:51.506Z</time></trkpt><trkpt lat="45.5324009" lon="10.2242926"><ele>142.0</ele><time>2026-03-29T11:20:52.503Z</time></trkpt><trkpt lat="45.5323722" lon="10.2245172"><ele>142.0</ele><time>2026-03-29T11:20:53.508Z</time></trkpt><trkpt lat="45.5323426" lon="10.2247337"><ele>142.0</ele><time>2026-03-29T11:20:54.489Z</time></trkpt><trkpt lat="45.5323133" lon="10.2249585"><ele>142.0</ele><time>2026-03-29T11:20:55.516Z</time></trkpt><trkpt lat="45.5322868" lon="10.2251705"><ele>141.33333333333334</ele><time>2026-03-29T11:20:56.49Z</time></trkpt><trkpt lat="45.5322597" lon="10.2253902"><ele>140.66666666666666</ele><time>2026-03-29T11:20:57.503Z</time></trkpt><trkpt lat="45.5322313" lon="10.2256033"><ele>140.0</ele><time>2026-03-29T11:20:58.496Z</time></trkpt><trkpt lat="45.5322019" lon="10.2258151"><ele>140.0</ele><time>2026-03-29T11:20:59.502Z</time></trkpt><trkpt lat="45.532174" lon="10.2260214"><ele>140.0</ele><time>2026-03-29T11:21:00.498Z</time></trkpt><trkpt lat="45.5321478" lon="10.2262245"><ele>140.0</ele><time>2026-03-29T11:21:01.497Z</time></trkpt><trkpt lat="45.5321181" lon="10.2264294"><ele>140.0</ele><time>2026-03-29T11:21:02.507Z</time></trkpt><trkpt lat="45.5320844" lon="10.2266349"><ele>139.66666666666666</ele><time>2026-03-29T11:21:03.5Z</time></trkpt><trkpt lat="45.5320393" lon="10.2268482"><ele>139.33333333333334</ele><time>2026-03-29T11:21:04.519Z</time></trkpt><trkpt lat="45.5319835" lon="10.2270549"><ele>139.0</ele><time>2026-03-29T11:21:05.497Z</time></trkpt><trkpt lat="45.5319204" lon="10.2272672"><ele>139.0</ele><time>2026-03-29T11:21:06.508Z</time></trkpt><trkpt lat="45.5318614" lon="10.2274648"><ele>139.0</ele><time>2026-03-29T11:21:07.503Z</time></trkpt><trkpt lat="45.531802" lon="10.227651"><ele>139.0</ele><time>2026-03-29T11:21:08.512Z</time></trkpt><trkpt lat="45.5317482" lon="10.2278344"><ele>139.0</ele><time>2026-03-29T11:21:09.498Z</time></trkpt><trkpt lat="45.5316921" lon="10.2280205"><ele>138.66666666666669</ele><time>2026-03-29T11:21:10.486Z</time></trkpt><trkpt lat="45.5316323" lon="10.2282137"><ele>138.33333333333334</ele><time>2026-03-29T11:21:11.498Z</time></trkpt><trkpt lat="45.5315701" lon="10.2284094"><ele>138.0</ele><time>2026-03-29T11:21:12.496Z</time></trkpt><trkpt lat="45.531507" lon="10.2286134"><ele>138.0</ele><time>2026-03-29T11:21:13.509Z</time></trkpt><trkpt lat="45.5314433" lon="10.2288201"><ele>138.0</ele><time>2026-03-29T11:21:14.513Z</time></trkpt><trkpt lat="45.5313816" lon="10.2290285"><ele>138.0</ele><time>2026-03-29T11:21:15.528Z</time></trkpt><trkpt lat="45.5313246" lon="10.2292179"><ele>138.5</ele><time>2026-03-29T11:21:16.499Z</time></trkpt><trkpt lat="45.5312723" lon="10.229399"><ele>139.0</ele><time>2026-03-29T11:21:17.496Z</time></trkpt><trkpt lat="45.5312199" lon="10.229554"><ele>139.5</ele><time>2026-03-29T11:21:18.508Z</time></trkpt><trkpt lat="45.5311738" lon="10.2296947"><ele>140.0</ele><time>2026-03-29T11:21:19.521Z</time></trkpt><trkpt lat="45.5311302" lon="10.229823"><ele>140.16666666666666</ele><time>2026-03-29T11:21:20.533Z</time></trkpt><trkpt lat="45.5310927" lon="10.2299382"><ele>140.33333333333331</ele><time>2026-03-29T11:21:21.515Z</time></trkpt><trkpt lat="45.5310552" lon="10.2300494"><ele>140.5</ele><time>2026-03-29T11:21:22.496Z</time></trkpt><trkpt lat="45.5310144" lon="10.2301647"><ele>140.66666666666666</ele><time>2026-03-29T11:21:23.51Z</time></trkpt><trkpt lat="45.5309759" lon="10.2302811"><ele>140.83333333333334</ele><time>2026-03-29T11:21:24.5Z</time></trkpt><trkpt lat="45.5309365" lon="10.2304013"><ele>141.0</ele><time>2026-03-29T11:21:25.496Z</time></trkpt><trkpt lat="45.5308942" lon="10.2305254"><ele>141.0</ele><time>2026-03-29T11:21:26.537Z</time></trkpt><trkpt lat="45.5308563" lon="10.2306363"><ele>141.0</ele><time>2026-03-29T11:21:27.499Z</time></trkpt><trkpt lat="45.5308195" lon="10.2307482"><ele>141.0</ele><time>2026-03-29T11:21:28.508Z</time></trkpt><trkpt lat="45.5307941" lon="10.2308616"><ele>141.0</ele><time>2026-03-29T11:21:29.499Z</time></trkpt><trkpt lat="45.5307851" lon="10.230982"><ele>141.0</ele><time>2026-03-29T11:21:30.507Z</time></trkpt><trkpt lat="45.5307873" lon="10.2311099"><ele>141.0</ele><time>2026-03-29T11:21:31.517Z</time></trkpt><trkpt lat="45.5307963" lon="10.231246"><ele>140.4</ele><time>2026-03-29T11:21:32.502Z</time></trkpt><trkpt lat="45.5308061" lon="10.2313933"><ele>139.8</ele><time>2026-03-29T11:21:33.507Z</time></trkpt><trkpt lat="45.5308153" lon="10.23154"><ele>139.20000000000002</ele><time>2026-03-29T11:21:34.495Z</time></trkpt><trkpt lat="45.5308225" lon="10.2316947"><ele>138.6</ele><time>2026-03-29T11:21:35.513Z</time></trkpt><trkpt lat="45.5308289" lon="10.2318402"><ele>138.0</ele><time>2026-03-29T11:21:36.505Z</time></trkpt><trkpt lat="45.5308341" lon="10.2319716"><ele>137.5</ele><time>2026-03-29T11:21:37.497Z</time></trkpt><trkpt lat="45.5308378" lon="10.232093"><ele>137.0</ele><time>2026-03-29T11:21:38.489Z</time></trkpt><trkpt lat="45.5308431" lon="10.2322146"><ele>136.5</ele><time>2026-03-29T11:21:39.513Z</time></trkpt><trkpt lat="45.5308474" lon="10.232332"><ele>136.0</ele><time>2026-03-29T11:21:40.505Z</time></trkpt><trkpt lat="45.5308531" lon="10.2324536"><ele>135.5</ele><time>2026-03-29T11:21:41.508Z</time></trkpt><trkpt lat="45.5308605" lon="10.2325781"><ele>135.0</ele><time>2026-03-29T11:21:42.506Z</time></trkpt><trkpt lat="45.5308679" lon="10.2327001"><ele>135.0</ele><time>2026-03-29T11:21:43.503Z</time></trkpt><trkpt lat="45.5308745" lon="10.2328082"><ele>135.0</ele><time>2026-03-29T11:21:44.491Z</time></trkpt><trkpt lat="45.5308809" lon="10.2329117"><ele>135.0</ele><time>2026-03-29T11:21:45.489Z</time></trkpt><trkpt lat="45.5308874" lon="10.2330081"><ele>135.0</ele><time>2026-03-29T11:21:46.499Z</time></trkpt><trkpt lat="45.5308998" lon="10.2331672"><ele>135.0</ele><time>2026-03-29T11:21:48.499Z</time></trkpt><trkpt lat="45.5309103" lon="10.2333"><ele>135.0</ele><time>2026-03-29T11:21:50.498Z</time></trkpt><trkpt lat="45.5309117" lon="10.2334012"><ele>135.0</ele><time>2026-03-29T11:21:52.501Z</time></trkpt><trkpt lat="45.5308952" lon="10.2335307"><ele>135.0</ele><time>2026-03-29T11:22:02.507Z</time></trkpt><trkpt lat="45.530896" lon="10.2336324"><ele>135.0</ele><time>2026-03-29T11:22:03.513Z</time></trkpt><trkpt lat="45.5309041" lon="10.2337735"><ele>135.0</ele><time>2026-03-29T11:22:04.504Z</time></trkpt><trkpt lat="45.5309113" lon="10.2339374"><ele>135.0</ele><time>2026-03-29T11:22:05.514Z</time></trkpt><trkpt lat="45.5309207" lon="10.2341251"><ele>134.66666666666666</ele><time>2026-03-29T11:22:06.501Z</time></trkpt><trkpt lat="45.5309347" lon="10.2343391"><ele>134.33333333333331</ele><time>2026-03-29T11:22:07.5Z</time></trkpt><trkpt lat="45.5309484" lon="10.2345636"><ele>134.0</ele><time>2026-03-29T11:22:08.5Z</time></trkpt><trkpt lat="45.5309621" lon="10.2348016"><ele>133.33333333333331</ele><time>2026-03-29T11:22:09.502Z</time></trkpt><trkpt lat="45.530976" lon="10.2350472"><ele>132.66666666666666</ele><time>2026-03-29T11:22:10.492Z</time></trkpt><trkpt lat="45.5309895" lon="10.2353032"><ele>132.0</ele><time>2026-03-29T11:22:11.509Z</time></trkpt><trkpt lat="45.5310002" lon="10.2355499"><ele>131.66666666666666</ele><time>2026-03-29T11:22:12.512Z</time></trkpt><trkpt lat="45.5310083" lon="10.2357809"><ele>131.33333333333331</ele><time>2026-03-29T11:22:13.5Z</time></trkpt><trkpt lat="45.5310162" lon="10.2360033"><ele>131.0</ele><time>2026-03-29T11:22:14.507Z</time></trkpt><trkpt lat="45.5310202" lon="10.2362069"><ele>131.0</ele><time>2026-03-29T11:22:15.498Z</time></trkpt><trkpt lat="45.5310217" lon="10.2363963"><ele>131.0</ele><time>2026-03-29T11:22:16.493Z</time></trkpt><trkpt lat="45.5310176" lon="10.2365753"><ele>131.0</ele><time>2026-03-29T11:22:17.511Z</time></trkpt><trkpt lat="45.5310056" lon="10.2367337"><ele>131.0</ele><time>2026-03-29T11:22:18.514Z</time></trkpt><trkpt lat="45.5309792" lon="10.236872"><ele>131.0</ele><time>2026-03-29T11:22:19.505Z</time></trkpt><trkpt lat="45.5309394" lon="10.2369868"><ele>131.0</ele><time>2026-03-29T11:22:20.492Z</time></trkpt><trkpt lat="45.5309082" lon="10.2370969"><ele>131.0</ele><time>2026-03-29T11:22:21.489Z</time></trkpt><trkpt lat="45.5309079" lon="10.2372084"><ele>131.0</ele><time>2026-03-29T11:22:22.49Z</time></trkpt><trkpt lat="45.5309315" lon="10.2373247"><ele>131.0</ele><time>2026-03-29T11:22:23.499Z</time></trkpt><trkpt lat="45.5309586" lon="10.237446"><ele>131.0</ele><time>2026-03-29T11:22:24.488Z</time></trkpt><trkpt lat="45.5309713" lon="10.2375864"><ele>131.25</ele><time>2026-03-29T11:22:25.502Z</time></trkpt><trkpt lat="45.5309672" lon="10.2377377"><ele>131.5</ele><time>2026-03-29T11:22:26.511Z</time></trkpt><trkpt lat="45.5309554" lon="10.2378974"><ele>131.75</ele><time>2026-03-29T11:22:27.507Z</time></trkpt><trkpt lat="45.5309455" lon="10.2380792"><ele>132.0</ele><time>2026-03-29T11:22:28.518Z</time></trkpt><trkpt lat="45.5309348" lon="10.2382731"><ele>132.33333333333334</ele><time>2026-03-29T11:22:29.5Z</time></trkpt><trkpt lat="45.5309204" lon="10.238494"><ele>132.66666666666669</ele><time>2026-03-29T11:22:30.523Z</time></trkpt><trkpt lat="45.530904" lon="10.2387155"><ele>133.0</ele><time>2026-03-29T11:22:31.496Z</time></trkpt><trkpt lat="45.5308856" lon="10.2389499"><ele>133.0</ele><time>2026-03-29T11:22:32.511Z</time></trkpt><trkpt lat="45.5308673" lon="10.2391838"><ele>133.0</ele><time>2026-03-29T11:22:33.509Z</time></trkpt><trkpt lat="45.5308484" lon="10.2394238"><ele>133.0</ele><time>2026-03-29T11:22:34.521Z</time></trkpt><trkpt lat="45.5308299" lon="10.239665"><ele>133.0</ele><time>2026-03-29T11:22:35.529Z</time></trkpt><trkpt lat="45.5308129" lon="10.239897"><ele>133.0</ele><time>2026-03-29T11:22:36.508Z</time></trkpt><trkpt lat="45.5307955" lon="10.2401296"><ele>133.0</ele><time>2026-03-29T11:22:37.502Z</time></trkpt><trkpt lat="45.5307762" lon="10.2403593"><ele>133.0</ele><time>2026-03-29T11:22:38.5Z</time></trkpt><trkpt lat="45.530756" lon="10.2405917"><ele>133.0</ele><time>2026-03-29T11:22:39.522Z</time></trkpt><trkpt lat="45.5307391" lon="10.2408118"><ele>133.0</ele><time>2026-03-29T11:22:40.502Z</time></trkpt><trkpt lat="45.5307219" lon="10.2410355"><ele>133.0</ele><time>2026-03-29T11:22:41.509Z</time></trkpt><trkpt lat="45.5307001" lon="10.2412538"><ele>133.0</ele><time>2026-03-29T11:22:42.495Z</time></trkpt><trkpt lat="45.5306776" lon="10.2414729"><ele>133.0</ele><time>2026-03-29T11:22:43.5Z</time></trkpt><trkpt lat="45.5306547" lon="10.2416868"><ele>133.0</ele><time>2026-03-29T11:22:44.499Z</time></trkpt><trkpt lat="45.5306326" lon="10.2418967"><ele>133.0</ele><time>2026-03-29T11:22:45.497Z</time></trkpt><trkpt lat="45.5306119" lon="10.242105"><ele>133.0</ele><time>2026-03-29T11:22:46.51Z</time></trkpt><trkpt lat="45.5305942" lon="10.2423066"><ele>133.0</ele><time>2026-03-29T11:22:47.494Z</time></trkpt><trkpt lat="45.5305768" lon="10.2425095"><ele>132.75</ele><time>2026-03-29T11:22:48.5Z</time></trkpt><trkpt lat="45.5305567" lon="10.2427127"><ele>132.5</ele><time>2026-03-29T11:22:49.512Z</time></trkpt><trkpt lat="45.5305381" lon="10.2429121"><ele>132.25</ele><time>2026-03-29T11:22:50.508Z</time></trkpt><trkpt lat="45.5305194" lon="10.2431145"><ele>132.0</ele><time>2026-03-29T11:22:51.519Z</time></trkpt><trkpt lat="45.5305012" lon="10.2433115"><ele>132.0</ele><time>2026-03-29T11:22:52.5Z</time></trkpt><trkpt lat="45.5304838" lon="10.2435149"><ele>132.0</ele><time>2026-03-29T11:22:53.507Z</time></trkpt><trkpt lat="45.5304681" lon="10.2437166"><ele>132.0</ele><time>2026-03-29T11:22:54.499Z</time></trkpt><trkpt lat="45.5304523" lon="10.2439217"><ele>132.0</ele><time>2026-03-29T11:22:55.503Z</time></trkpt><trkpt lat="45.5304359" lon="10.2441341"><ele>132.0</ele><time>2026-03-29T11:22:56.545Z</time></trkpt><trkpt lat="45.5304221" lon="10.244329"><ele>132.0</ele><time>2026-03-29T11:22:57.498Z</time></trkpt><trkpt lat="45.5304069" lon="10.2445359"><ele>132.0</ele><time>2026-03-29T11:22:58.498Z</time></trkpt><trkpt lat="45.5303945" lon="10.2447485"><ele>132.0</ele><time>2026-03-29T11:22:59.525Z</time></trkpt><trkpt lat="45.5303817" lon="10.2449522"><ele>131.75</ele><time>2026-03-29T11:23:00.514Z</time></trkpt><trkpt lat="45.5303681" lon="10.2451642"><ele>131.5</ele><time>2026-03-29T11:23:01.533Z</time></trkpt><trkpt lat="45.5303548" lon="10.2453664"><ele>131.25</ele><time>2026-03-29T11:23:02.496Z</time></trkpt><trkpt lat="45.5303398" lon="10.24558"><ele>131.0</ele><time>2026-03-29T11:23:03.507Z</time></trkpt><trkpt lat="45.5303264" lon="10.2457918"><ele>131.0</ele><time>2026-03-29T11:23:04.502Z</time></trkpt><trkpt lat="45.5303114" lon="10.2460092"><ele>131.0</ele><time>2026-03-29T11:23:05.5Z</time></trkpt><trkpt lat="45.5302983" lon="10.2462339"><ele>131.0</ele><time>2026-03-29T11:23:06.507Z</time></trkpt><trkpt lat="45.5302876" lon="10.2464554"><ele>131.0</ele><time>2026-03-29T11:23:07.512Z</time></trkpt><trkpt lat="45.530279" lon="10.2466584"><ele>131.0</ele><time>2026-03-29T11:23:08.489Z</time></trkpt><trkpt lat="45.5302716" lon="10.2468584"><ele>131.0</ele><time>2026-03-29T11:23:09.503Z</time></trkpt><trkpt lat="45.5302657" lon="10.2470488"><ele>131.0</ele><time>2026-03-29T11:23:10.505Z</time></trkpt><trkpt lat="45.530263" lon="10.2472387"><ele>131.5</ele><time>2026-03-29T11:23:11.506Z</time></trkpt><trkpt lat="45.5302632" lon="10.2474251"><ele>132.0</ele><time>2026-03-29T11:23:12.499Z</time></trkpt><trkpt lat="45.5302631" lon="10.247611"><ele>132.5</ele><time>2026-03-29T11:23:13.507Z</time></trkpt><trkpt lat="45.5302622" lon="10.2477955"><ele>133.0</ele><time>2026-03-29T11:23:14.526Z</time></trkpt><trkpt lat="45.5302621" lon="10.2479706"><ele>132.5</ele><time>2026-03-29T11:23:15.507Z</time></trkpt><trkpt lat="45.5302641" lon="10.2481544"><ele>132.0</ele><time>2026-03-29T11:23:16.535Z</time></trkpt><trkpt lat="45.5302656" lon="10.2483272"><ele>131.5</ele><time>2026-03-29T11:23:17.488Z</time></trkpt><trkpt lat="45.5302675" lon="10.2485168"><ele>131.0</ele><time>2026-03-29T11:23:18.524Z</time></trkpt><trkpt lat="45.5302694" lon="10.248698"><ele>131.0</ele><time>2026-03-29T11:23:19.507Z</time></trkpt><trkpt lat="45.5302723" lon="10.2488862"><ele>131.0</ele><time>2026-03-29T11:23:20.52Z</time></trkpt><trkpt lat="45.5302754" lon="10.249071"><ele>131.0</ele><time>2026-03-29T11:23:21.508Z</time></trkpt><trkpt lat="45.5302765" lon="10.2492581"><ele>131.0</ele><time>2026-03-29T11:23:22.496Z</time></trkpt><trkpt lat="45.5302773" lon="10.2494514"><ele>130.75</ele><time>2026-03-29T11:23:23.507Z</time></trkpt><trkpt lat="45.5302777" lon="10.2496439"><ele>130.5</ele><time>2026-03-29T11:23:24.502Z</time></trkpt><trkpt lat="45.5302779" lon="10.2498442"><ele>130.25</ele><time>2026-03-29T11:23:25.52Z</time></trkpt><trkpt lat="45.5302745" lon="10.2500455"><ele>130.0</ele><time>2026-03-29T11:23:26.523Z</time></trkpt><trkpt lat="45.5302691" lon="10.2502431"><ele>129.75</ele><time>2026-03-29T11:23:27.491Z</time></trkpt><trkpt lat="45.5302649" lon="10.2504553"><ele>129.5</ele><time>2026-03-29T11:23:28.516Z</time></trkpt><trkpt lat="45.5302645" lon="10.2506588"><ele>129.25</ele><time>2026-03-29T11:23:29.529Z</time></trkpt><trkpt lat="45.5302692" lon="10.2508443"><ele>129.0</ele><time>2026-03-29T11:23:30.512Z</time></trkpt><trkpt lat="45.5302798" lon="10.2510165"><ele>128.83333333333334</ele><time>2026-03-29T11:23:31.51Z</time></trkpt><trkpt lat="45.5302959" lon="10.2511696"><ele>128.66666666666666</ele><time>2026-03-29T11:23:32.512Z</time></trkpt><trkpt lat="45.5303095" lon="10.2512903"><ele>128.5</ele><time>2026-03-29T11:23:33.495Z</time></trkpt><trkpt lat="45.5303208" lon="10.2514377"><ele>128.33333333333331</ele><time>2026-03-29T11:23:35.512Z</time></trkpt><trkpt lat="45.5303188" lon="10.2515419"><ele>128.16666666666666</ele><time>2026-03-29T11:23:37.512Z</time></trkpt><trkpt lat="45.5303058" lon="10.2516407"><ele>128.0</ele><time>2026-03-29T11:23:39.446Z</time></trkpt><trkpt lat="45.5303151" lon="10.2517935"><ele>128.33333333333331</ele><time>2026-03-29T11:23:41.447Z</time></trkpt><trkpt lat="45.5303159" lon="10.2518941"><ele>128.66666666666666</ele><time>2026-03-29T11:23:42.445Z</time></trkpt><trkpt lat="45.5303035" lon="10.2519892"><ele>129.0</ele><time>2026-03-29T11:23:43.445Z</time></trkpt><trkpt lat="45.5302824" lon="10.2520929"><ele>129.33333333333334</ele><time>2026-03-29T11:23:44.446Z</time></trkpt><trkpt lat="45.5302426" lon="10.2522215"><ele>129.66666666666669</ele><time>2026-03-29T11:23:45.454Z</time></trkpt><trkpt lat="45.530191" lon="10.2523584"><ele>130.0</ele><time>2026-03-29T11:23:46.446Z</time></trkpt><trkpt lat="45.5301382" lon="10.2525085"><ele>130.33333333333334</ele><time>2026-03-29T11:23:47.445Z</time></trkpt><trkpt lat="45.5300691" lon="10.2526869"><ele>130.66666666666666</ele><time>2026-03-29T11:23:48.447Z</time></trkpt><trkpt lat="45.5299848" lon="10.2528732"><ele>131.0</ele><time>2026-03-29T11:23:49.457Z</time></trkpt><trkpt lat="45.5298887" lon="10.2530726"><ele>132.66666666666666</ele><time>2026-03-29T11:23:50.445Z</time></trkpt><trkpt lat="45.529781" lon="10.2532755"><ele>134.33333333333334</ele><time>2026-03-29T11:23:51.462Z</time></trkpt><trkpt lat="45.5296699" lon="10.253484"><ele>136.0</ele><time>2026-03-29T11:23:52.461Z</time></trkpt><trkpt lat="45.5295598" lon="10.2536914"><ele>135.0</ele><time>2026-03-29T11:23:53.46Z</time></trkpt><trkpt lat="45.5294482" lon="10.253893"><ele>134.0</ele><time>2026-03-29T11:23:54.449Z</time></trkpt><trkpt lat="45.5293532" lon="10.2540887"><ele>133.0</ele><time>2026-03-29T11:23:55.445Z</time></trkpt><trkpt lat="45.5292569" lon="10.2542833"><ele>133.0</ele><time>2026-03-29T11:23:56.446Z</time></trkpt><trkpt lat="45.5291666" lon="10.2544753"><ele>133.0</ele><time>2026-03-29T11:23:57.444Z</time></trkpt><trkpt lat="45.5290724" lon="10.2546739"><ele>133.0</ele><time>2026-03-29T11:23:58.464Z</time></trkpt><trkpt lat="45.5289763" lon="10.2548764"><ele>134.0</ele><time>2026-03-29T11:23:59.442Z</time></trkpt><trkpt lat="45.5288805" lon="10.2550796"><ele>135.0</ele><time>2026-03-29T11:24:00.449Z</time></trkpt><trkpt lat="45.5287904" lon="10.255275"><ele>136.0</ele><time>2026-03-29T11:24:01.453Z</time></trkpt><trkpt lat="45.5287077" lon="10.2554644"><ele>135.75</ele><time>2026-03-29T11:24:02.447Z</time></trkpt><trkpt lat="45.5286443" lon="10.2556441"><ele>135.5</ele><time>2026-03-29T11:24:03.432Z</time></trkpt><trkpt lat="45.5285943" lon="10.2558145"><ele>135.25</ele><time>2026-03-29T11:24:04.435Z</time></trkpt><trkpt lat="45.5285509" lon="10.2559699"><ele>135.0</ele><time>2026-03-29T11:24:05.442Z</time></trkpt><trkpt lat="45.5285068" lon="10.2561111"><ele>135.0</ele><time>2026-03-29T11:24:06.434Z</time></trkpt><trkpt lat="45.5284635" lon="10.2562376"><ele>135.0</ele><time>2026-03-29T11:24:07.447Z</time></trkpt><trkpt lat="45.52842" lon="10.2563545"><ele>135.0</ele><time>2026-03-29T11:24:08.436Z</time></trkpt><trkpt lat="45.528374" lon="10.2564701"><ele>135.0</ele><time>2026-03-29T11:24:09.442Z</time></trkpt><trkpt lat="45.5283288" lon="10.256588"><ele>135.0</ele><time>2026-03-29T11:24:10.438Z</time></trkpt><trkpt lat="45.5283056" lon="10.2567222"><ele>135.2</ele><time>2026-03-29T11:24:11.44Z</time></trkpt><trkpt lat="45.5282855" lon="10.2568735"><ele>135.4</ele><time>2026-03-29T11:24:12.463Z</time></trkpt><trkpt lat="45.5282693" lon="10.2570247"><ele>135.6</ele><time>2026-03-29T11:24:13.445Z</time></trkpt><trkpt lat="45.5282486" lon="10.2571852"><ele>135.8</ele><time>2026-03-29T11:24:14.466Z</time></trkpt><trkpt lat="45.5282285" lon="10.2573503"><ele>136.0</ele><time>2026-03-29T11:24:15.452Z</time></trkpt><trkpt lat="45.5282045" lon="10.2575215"><ele>136.0</ele><time>2026-03-29T11:24:16.443Z</time></trkpt><trkpt lat="45.5281789" lon="10.2577027"><ele>136.0</ele><time>2026-03-29T11:24:17.437Z</time></trkpt><trkpt lat="45.5281433" lon="10.2578966"><ele>136.0</ele><time>2026-03-29T11:24:18.441Z</time></trkpt><trkpt lat="45.5280995" lon="10.2580881"><ele>136.0</ele><time>2026-03-29T11:24:19.454Z</time></trkpt><trkpt lat="45.5280487" lon="10.258278"><ele>135.33333333333334</ele><time>2026-03-29T11:24:20.443Z</time></trkpt><trkpt lat="45.527987" lon="10.258482"><ele>134.66666666666666</ele><time>2026-03-29T11:24:21.452Z</time></trkpt><trkpt lat="45.5279175" lon="10.258679"><ele>134.0</ele><time>2026-03-29T11:24:22.465Z</time></trkpt><trkpt lat="45.5278497" lon="10.2588556"><ele>133.5</ele><time>2026-03-29T11:24:23.446Z</time></trkpt><trkpt lat="45.5277811" lon="10.2590265"><ele>133.0</ele><time>2026-03-29T11:24:24.453Z</time></trkpt><trkpt lat="45.5277194" lon="10.2591975"><ele>132.5</ele><time>2026-03-29T11:24:25.447Z</time></trkpt><trkpt lat="45.5276503" lon="10.2593725"><ele>132.0</ele><time>2026-03-29T11:24:26.434Z</time></trkpt><trkpt lat="45.5275812" lon="10.2595602"><ele>132.0</ele><time>2026-03-29T11:24:27.445Z</time></trkpt><trkpt lat="45.5275101" lon="10.2597515"><ele>132.0</ele><time>2026-03-29T11:24:28.453Z</time></trkpt><trkpt lat="45.5274426" lon="10.2599321"><ele>132.0</ele><time>2026-03-29T11:24:29.447Z</time></trkpt><trkpt lat="45.5273722" lon="10.2601064"><ele>132.0</ele><time>2026-03-29T11:24:30.439Z</time></trkpt><trkpt lat="45.5273014" lon="10.2602826"><ele>132.0</ele><time>2026-03-29T11:24:31.455Z</time></trkpt><trkpt lat="45.5272293" lon="10.2604484"><ele>132.0</ele><time>2026-03-29T11:24:32.435Z</time></trkpt><trkpt lat="45.5271558" lon="10.2606"><ele>132.0</ele><time>2026-03-29T11:24:33.461Z</time></trkpt><trkpt lat="45.5270874" lon="10.2607234"><ele>132.0</ele><time>2026-03-29T11:24:34.438Z</time></trkpt><trkpt lat="45.5270227" lon="10.2608597"><ele>132.0</ele><time>2026-03-29T11:24:35.435Z</time></trkpt><trkpt lat="45.5269684" lon="10.2610112"><ele>132.0</ele><time>2026-03-29T11:24:36.447Z</time></trkpt><trkpt lat="45.5269162" lon="10.2611865"><ele>132.0</ele><time>2026-03-29T11:24:37.438Z</time></trkpt><trkpt lat="45.5268495" lon="10.2613785"><ele>132.0</ele><time>2026-03-29T11:24:38.451Z</time></trkpt><trkpt lat="45.526769" lon="10.2615722"><ele>132.66666666666666</ele><time>2026-03-29T11:24:39.45Z</time></trkpt><trkpt lat="45.5266839" lon="10.2617835"><ele>133.33333333333331</ele><time>2026-03-29T11:24:40.449Z</time></trkpt><trkpt lat="45.526594" lon="10.2619991"><ele>134.0</ele><time>2026-03-29T11:24:41.448Z</time></trkpt><trkpt lat="45.5264969" lon="10.2622279"><ele>134.0</ele><time>2026-03-29T11:24:42.459Z</time></trkpt><trkpt lat="45.52639" lon="10.2624582"><ele>134.0</ele><time>2026-03-29T11:24:43.469Z</time></trkpt><trkpt lat="45.5262835" lon="10.262701"><ele>134.0</ele><time>2026-03-29T11:24:44.473Z</time></trkpt><trkpt lat="45.5261835" lon="10.262943"><ele>134.0</ele><time>2026-03-29T11:24:45.439Z</time></trkpt><trkpt lat="45.5260818" lon="10.2631859"><ele>134.0</ele><time>2026-03-29T11:24:46.464Z</time></trkpt><trkpt lat="45.5259852" lon="10.2634076"><ele>134.0</ele><time>2026-03-29T11:24:47.464Z</time></trkpt><trkpt lat="45.525893" lon="10.26361"><ele>134.0</ele><time>2026-03-29T11:24:48.449Z</time></trkpt><trkpt lat="45.5258068" lon="10.2637979"><ele>134.0</ele><time>2026-03-29T11:24:49.437Z</time></trkpt><trkpt lat="45.5257264" lon="10.2639698"><ele>134.0</ele><time>2026-03-29T11:24:50.444Z</time></trkpt><trkpt lat="45.5256494" lon="10.2641309"><ele>134.0</ele><time>2026-03-29T11:24:51.451Z</time></trkpt><trkpt lat="45.5255759" lon="10.2642887"><ele>133.25</ele><time>2026-03-29T11:24:52.46Z</time></trkpt><trkpt lat="45.5254991" lon="10.264447"><ele>132.5</ele><time>2026-03-29T11:24:53.465Z</time></trkpt><trkpt lat="45.5254203" lon="10.264608"><ele>131.75</ele><time>2026-03-29T11:24:54.468Z</time></trkpt><trkpt lat="45.5253386" lon="10.2647649"><ele>131.0</ele><time>2026-03-29T11:24:55.442Z</time></trkpt><trkpt lat="45.5252478" lon="10.2649284"><ele>130.5</ele><time>2026-03-29T11:24:56.45Z</time></trkpt><trkpt lat="45.5251534" lon="10.2650918"><ele>130.0</ele><time>2026-03-29T11:24:57.445Z</time></trkpt><trkpt lat="45.5250511" lon="10.2652392"><ele>129.5</ele><time>2026-03-29T11:24:58.459Z</time></trkpt><trkpt lat="45.5249537" lon="10.2653678"><ele>129.0</ele><time>2026-03-29T11:24:59.44Z</time></trkpt><trkpt lat="45.5248611" lon="10.2654824"><ele>129.0</ele><time>2026-03-29T11:25:00.444Z</time></trkpt><trkpt lat="45.5247717" lon="10.2655831"><ele>129.0</ele><time>2026-03-29T11:25:01.452Z</time></trkpt><trkpt lat="45.5246968" lon="10.2656506"><ele>129.0</ele><time>2026-03-29T11:25:02.456Z</time></trkpt><trkpt lat="45.5246275" lon="10.2656905"><ele>129.0</ele><time>2026-03-29T11:25:03.443Z</time></trkpt><trkpt lat="45.5245554" lon="10.2657134"><ele>129.0</ele><time>2026-03-29T11:25:04.443Z</time></trkpt><trkpt lat="45.5244803" lon="10.265746"><ele>129.0</ele><time>2026-03-29T11:25:05.44Z</time></trkpt><trkpt lat="45.524395" lon="10.2658634"><ele>129.5</ele><time>2026-03-29T11:25:07.447Z</time></trkpt><trkpt lat="45.5243307" lon="10.2659683"><ele>130.0</ele><time>2026-03-29T11:25:08.44Z</time></trkpt><trkpt lat="45.5242522" lon="10.2660582"><ele>130.5</ele><time>2026-03-29T11:25:09.443Z</time></trkpt><trkpt lat="45.5241531" lon="10.266155"><ele>131.0</ele><time>2026-03-29T11:25:10.45Z</time></trkpt><trkpt lat="45.5240376" lon="10.2662767"><ele>131.0</ele><time>2026-03-29T11:25:11.443Z</time></trkpt><trkpt lat="45.5239113" lon="10.2664183"><ele>131.0</ele><time>2026-03-29T11:25:12.458Z</time></trkpt><trkpt lat="45.523766" lon="10.2665758"><ele>131.0</ele><time>2026-03-29T11:25:13.46Z</time></trkpt><trkpt lat="45.5236279" lon="10.2667131"><ele>131.0</ele><time>2026-03-29T11:25:14.459Z</time></trkpt><trkpt lat="45.5234919" lon="10.2668491"><ele>131.0</ele><time>2026-03-29T11:25:15.457Z</time></trkpt><trkpt lat="45.5233515" lon="10.2669905"><ele>131.0</ele><time>2026-03-29T11:25:16.443Z</time></trkpt><trkpt lat="45.5232171" lon="10.2671277"><ele>131.0</ele><time>2026-03-29T11:25:17.441Z</time></trkpt><trkpt lat="45.5230809" lon="10.2672739"><ele>131.0</ele><time>2026-03-29T11:25:18.451Z</time></trkpt><trkpt lat="45.522951" lon="10.267411"><ele>131.0</ele><time>2026-03-29T11:25:19.435Z</time></trkpt><trkpt lat="45.5228149" lon="10.2675599"><ele>131.5</ele><time>2026-03-29T11:25:20.471Z</time></trkpt><trkpt lat="45.5226992" lon="10.2676937"><ele>132.0</ele><time>2026-03-29T11:25:21.441Z</time></trkpt><trkpt lat="45.5225952" lon="10.2678181"><ele>132.5</ele><time>2026-03-29T11:25:22.44Z</time></trkpt><trkpt lat="45.5224968" lon="10.2679417"><ele>133.0</ele><time>2026-03-29T11:25:23.442Z</time></trkpt><trkpt lat="45.5223973" lon="10.2680634"><ele>133.0</ele><time>2026-03-29T11:25:24.442Z</time></trkpt><trkpt lat="45.5223042" lon="10.2681905"><ele>133.0</ele><time>2026-03-29T11:25:25.47Z</time></trkpt><trkpt lat="45.5222205" lon="10.2683124"><ele>133.0</ele><time>2026-03-29T11:25:26.452Z</time></trkpt><trkpt lat="45.5221366" lon="10.2684432"><ele>133.0</ele><time>2026-03-29T11:25:27.465Z</time></trkpt><trkpt lat="45.5220584" lon="10.2685719"><ele>132.66666666666669</ele><time>2026-03-29T11:25:28.46Z</time></trkpt><trkpt lat="45.5219671" lon="10.2687245"><ele>132.33333333333334</ele><time>2026-03-29T11:25:29.451Z</time></trkpt><trkpt lat="45.5218614" lon="10.2689001"><ele>132.0</ele><time>2026-03-29T11:25:30.47Z</time></trkpt><trkpt lat="45.5217521" lon="10.2690881"><ele>132.0</ele><time>2026-03-29T11:25:31.437Z</time></trkpt><trkpt lat="45.521635" lon="10.2692986"><ele>132.0</ele><time>2026-03-29T11:25:32.452Z</time></trkpt><trkpt lat="45.5215197" lon="10.2695245"><ele>132.0</ele><time>2026-03-29T11:25:33.441Z</time></trkpt><trkpt lat="45.5214039" lon="10.2697667"><ele>132.0</ele><time>2026-03-29T11:25:34.451Z</time></trkpt><trkpt lat="45.5212963" lon="10.2700142"><ele>132.0</ele><time>2026-03-29T11:25:35.439Z</time></trkpt><trkpt lat="45.5211866" lon="10.2702821"><ele>132.0</ele><time>2026-03-29T11:25:36.454Z</time></trkpt><trkpt lat="45.5210945" lon="10.2705461"><ele>132.33333333333334</ele><time>2026-03-29T11:25:37.448Z</time></trkpt><trkpt lat="45.5210136" lon="10.2708141"><ele>132.66666666666669</ele><time>2026-03-29T11:25:38.437Z</time></trkpt><trkpt lat="45.5209321" lon="10.2710982"><ele>133.0</ele><time>2026-03-29T11:25:39.474Z</time></trkpt><trkpt lat="45.5208634" lon="10.2713699"><ele>133.33333333333334</ele><time>2026-03-29T11:25:40.451Z</time></trkpt><trkpt lat="45.5208066" lon="10.2716406"><ele>133.66666666666666</ele><time>2026-03-29T11:25:41.447Z</time></trkpt><trkpt lat="45.5207536" lon="10.2719132"><ele>134.0</ele><time>2026-03-29T11:25:42.462Z</time></trkpt><trkpt lat="45.5207055" lon="10.2721841"><ele>134.0</ele><time>2026-03-29T11:25:43.46Z</time></trkpt><trkpt lat="45.5206642" lon="10.2724548"><ele>134.0</ele><time>2026-03-29T11:25:44.446Z</time></trkpt><trkpt lat="45.5206334" lon="10.2727364"><ele>134.0</ele><time>2026-03-29T11:25:45.445Z</time></trkpt><trkpt lat="45.5206033" lon="10.2730205"><ele>134.33333333333331</ele><time>2026-03-29T11:25:46.446Z</time></trkpt><trkpt lat="45.5205711" lon="10.2733059"><ele>134.66666666666666</ele><time>2026-03-29T11:25:47.436Z</time></trkpt><trkpt lat="45.5205356" lon="10.2736007"><ele>135.0</ele><time>2026-03-29T11:25:48.444Z</time></trkpt><trkpt lat="45.5205032" lon="10.2739018"><ele>134.66666666666666</ele><time>2026-03-29T11:25:49.453Z</time></trkpt><trkpt lat="45.5204705" lon="10.2742052"><ele>134.33333333333331</ele><time>2026-03-29T11:25:50.461Z</time></trkpt><trkpt lat="45.5204382" lon="10.2745039"><ele>134.0</ele><time>2026-03-29T11:25:51.449Z</time></trkpt><trkpt lat="45.5204057" lon="10.2748035"><ele>133.66666666666666</ele><time>2026-03-29T11:25:52.461Z</time></trkpt><trkpt lat="45.5203642" lon="10.2750881"><ele>133.33333333333334</ele><time>2026-03-29T11:25:53.45Z</time></trkpt><trkpt lat="45.5203274" lon="10.2753717"><ele>133.0</ele><time>2026-03-29T11:25:54.439Z</time></trkpt><trkpt lat="45.5202907" lon="10.2756565"><ele>133.0</ele><time>2026-03-29T11:25:55.448Z</time></trkpt><trkpt lat="45.5202562" lon="10.275933"><ele>133.0</ele><time>2026-03-29T11:25:56.453Z</time></trkpt><trkpt lat="45.5202237" lon="10.2761985"><ele>133.0</ele><time>2026-03-29T11:25:57.445Z</time></trkpt><trkpt lat="45.520193" lon="10.2764694"><ele>132.66666666666669</ele><time>2026-03-29T11:25:58.466Z</time></trkpt><trkpt lat="45.5201666" lon="10.2767327"><ele>132.33333333333334</ele><time>2026-03-29T11:25:59.447Z</time></trkpt><trkpt lat="45.5201425" lon="10.2770007"><ele>132.0</ele><time>2026-03-29T11:26:00.453Z</time></trkpt><trkpt lat="45.5201247" lon="10.2772654"><ele>132.0</ele><time>2026-03-29T11:26:01.441Z</time></trkpt><trkpt lat="45.5201109" lon="10.2775347"><ele>132.0</ele><time>2026-03-29T11:26:02.448Z</time></trkpt><trkpt lat="45.5201029" lon="10.2777898"><ele>132.0</ele><time>2026-03-29T11:26:03.448Z</time></trkpt><trkpt lat="45.5200938" lon="10.2780352"><ele>132.66666666666666</ele><time>2026-03-29T11:26:04.457Z</time></trkpt><trkpt lat="45.5200823" lon="10.2782678"><ele>133.33333333333331</ele><time>2026-03-29T11:26:05.454Z</time></trkpt><trkpt lat="45.5200688" lon="10.2784952"><ele>134.0</ele><time>2026-03-29T11:26:06.448Z</time></trkpt><trkpt lat="45.5200505" lon="10.2787179"><ele>134.66666666666666</ele><time>2026-03-29T11:26:07.437Z</time></trkpt><trkpt lat="45.5200245" lon="10.2789495"><ele>135.33333333333334</ele><time>2026-03-29T11:26:08.468Z</time></trkpt><trkpt lat="45.5199867" lon="10.2791731"><ele>136.0</ele><time>2026-03-29T11:26:09.446Z</time></trkpt><trkpt lat="45.5199394" lon="10.279399"><ele>136.0</ele><time>2026-03-29T11:26:10.441Z</time></trkpt><trkpt lat="45.5198842" lon="10.2796235"><ele>136.0</ele><time>2026-03-29T11:26:11.447Z</time></trkpt><trkpt lat="45.5198271" lon="10.2798424"><ele>136.0</ele><time>2026-03-29T11:26:12.441Z</time></trkpt><trkpt lat="45.5197663" lon="10.2800614"><ele>135.66666666666669</ele><time>2026-03-29T11:26:13.446Z</time></trkpt><trkpt lat="45.5197006" lon="10.280276"><ele>135.33333333333334</ele><time>2026-03-29T11:26:14.448Z</time></trkpt><trkpt lat="45.5196374" lon="10.280494"><ele>135.0</ele><time>2026-03-29T11:26:15.452Z</time></trkpt><trkpt lat="45.5195736" lon="10.2807079"><ele>134.66666666666666</ele><time>2026-03-29T11:26:16.435Z</time></trkpt><trkpt lat="45.5195085" lon="10.2809237"><ele>134.33333333333331</ele><time>2026-03-29T11:26:17.44Z</time></trkpt><trkpt lat="45.5194436" lon="10.2811435"><ele>134.0</ele><time>2026-03-29T11:26:18.447Z</time></trkpt><trkpt lat="45.5193839" lon="10.2813598"><ele>133.66666666666666</ele><time>2026-03-29T11:26:19.455Z</time></trkpt><trkpt lat="45.5193282" lon="10.2815675"><ele>133.33333333333334</ele><time>2026-03-29T11:26:20.438Z</time></trkpt><trkpt lat="45.5192707" lon="10.2817741"><ele>133.0</ele><time>2026-03-29T11:26:21.451Z</time></trkpt><trkpt lat="45.5192186" lon="10.2819637"><ele>133.0</ele><time>2026-03-29T11:26:22.451Z</time></trkpt><trkpt lat="45.5191649" lon="10.2821421"><ele>133.0</ele><time>2026-03-29T11:26:23.463Z</time></trkpt><trkpt lat="45.5191143" lon="10.2822945"><ele>133.0</ele><time>2026-03-29T11:26:24.456Z</time></trkpt><trkpt lat="45.519068" lon="10.2824233"><ele>133.0</ele><time>2026-03-29T11:26:25.446Z</time></trkpt><trkpt lat="45.5190168" lon="10.2825272"><ele>133.0</ele><time>2026-03-29T11:26:26.46Z</time></trkpt><trkpt lat="45.5189558" lon="10.2826112"><ele>133.0</ele><time>2026-03-29T11:26:27.442Z</time></trkpt><trkpt lat="45.5188833" lon="10.2826752"><ele>133.0</ele><time>2026-03-29T11:26:28.466Z</time></trkpt><trkpt lat="45.5188171" lon="10.2827294"><ele>133.0</ele><time>2026-03-29T11:26:29.441Z</time></trkpt><trkpt lat="45.5187453" lon="10.2827939"><ele>133.0</ele><time>2026-03-29T11:26:30.461Z</time></trkpt><trkpt lat="45.5187177" lon="10.2828898"><ele>133.0</ele><time>2026-03-29T11:26:31.446Z</time></trkpt><trkpt lat="45.5187203" lon="10.2829938"><ele>133.0</ele><time>2026-03-29T11:26:32.449Z</time></trkpt><trkpt lat="45.5187439" lon="10.2831294"><ele>132.8</ele><time>2026-03-29T11:26:33.446Z</time></trkpt><trkpt lat="45.5187749" lon="10.283275"><ele>132.60000000000002</ele><time>2026-03-29T11:26:34.453Z</time></trkpt><trkpt lat="45.5187889" lon="10.2834137"><ele>132.39999999999998</ele><time>2026-03-29T11:26:35.454Z</time></trkpt><trkpt lat="45.518785" lon="10.2835407"><ele>132.2</ele><time>2026-03-29T11:26:36.444Z</time></trkpt><trkpt lat="45.5187661" lon="10.2836919"><ele>132.0</ele><time>2026-03-29T11:26:37.473Z</time></trkpt><trkpt lat="45.5187446" lon="10.2838429"><ele>132.5</ele><time>2026-03-29T11:26:38.447Z</time></trkpt><trkpt lat="45.5187235" lon="10.2839988"><ele>133.0</ele><time>2026-03-29T11:26:39.449Z</time></trkpt><trkpt lat="45.5187006" lon="10.2841784"><ele>133.5</ele><time>2026-03-29T11:26:40.454Z</time></trkpt><trkpt lat="45.5186648" lon="10.2843922"><ele>134.0</ele><time>2026-03-29T11:26:41.457Z</time></trkpt><trkpt lat="45.5186165" lon="10.2846292"><ele>134.0</ele><time>2026-03-29T11:26:42.455Z</time></trkpt><trkpt lat="45.5185661" lon="10.2848775"><ele>134.0</ele><time>2026-03-29T11:26:43.453Z</time></trkpt><trkpt lat="45.5184985" lon="10.2851546"><ele>134.0</ele><time>2026-03-29T11:26:44.451Z</time></trkpt><trkpt lat="45.5183865" lon="10.2854862"><ele>134.0</ele><time>2026-03-29T11:26:45.453Z</time></trkpt><trkpt lat="45.5182973" lon="10.2857693"><ele>134.0</ele><time>2026-03-29T11:26:46.452Z</time></trkpt><trkpt lat="45.5181807" lon="10.2860619"><ele>134.0</ele><time>2026-03-29T11:26:47.451Z</time></trkpt><trkpt lat="45.5180777" lon="10.2863304"><ele>134.0</ele><time>2026-03-29T11:26:48.474Z</time></trkpt><trkpt lat="45.5180363" lon="10.2865413"><ele>134.0</ele><time>2026-03-29T11:26:49.452Z</time></trkpt><trkpt lat="45.5179859" lon="10.2867603"><ele>134.33333333333331</ele><time>2026-03-29T11:26:50.468Z</time></trkpt><trkpt lat="45.5179313" lon="10.2869696"><ele>134.66666666666666</ele><time>2026-03-29T11:26:51.459Z</time></trkpt><trkpt lat="45.5178737" lon="10.287172"><ele>135.0</ele><time>2026-03-29T11:26:52.455Z</time></trkpt><trkpt lat="45.5178199" lon="10.2873639"><ele>135.5</ele><time>2026-03-29T11:26:53.447Z</time></trkpt><trkpt lat="45.517773" lon="10.2875386"><ele>136.0</ele><time>2026-03-29T11:26:54.458Z</time></trkpt><trkpt lat="45.5177247" lon="10.2877064"><ele>136.5</ele><time>2026-03-29T11:26:55.466Z</time></trkpt><trkpt lat="45.5176779" lon="10.287877"><ele>137.0</ele><time>2026-03-29T11:26:56.455Z</time></trkpt><trkpt lat="45.5176365" lon="10.2880657"><ele>137.0</ele><time>2026-03-29T11:26:57.441Z</time></trkpt><trkpt lat="45.5175871" lon="10.2882777"><ele>137.0</ele><time>2026-03-29T11:26:58.439Z</time></trkpt><trkpt lat="45.5175284" lon="10.2885196"><ele>137.0</ele><time>2026-03-29T11:26:59.442Z</time></trkpt><trkpt lat="45.517464" lon="10.2887894"><ele>136.66666666666666</ele><time>2026-03-29T11:27:00.451Z</time></trkpt><trkpt lat="45.5174023" lon="10.2890425"><ele>136.33333333333334</ele><time>2026-03-29T11:27:01.447Z</time></trkpt><trkpt lat="45.5173473" lon="10.2892756"><ele>136.0</ele><time>2026-03-29T11:27:02.449Z</time></trkpt><trkpt lat="45.5173004" lon="10.2894737"><ele>136.0</ele><time>2026-03-29T11:27:03.443Z</time></trkpt><trkpt lat="45.5172588" lon="10.2896372"><ele>136.0</ele><time>2026-03-29T11:27:04.441Z</time></trkpt><trkpt lat="45.5172065" lon="10.2897726"><ele>136.0</ele><time>2026-03-29T11:27:05.463Z</time></trkpt><trkpt lat="45.5171462" lon="10.2898804"><ele>136.0</ele><time>2026-03-29T11:27:06.457Z</time></trkpt><trkpt lat="45.5170819" lon="10.2899779"><ele>136.0</ele><time>2026-03-29T11:27:07.454Z</time></trkpt><trkpt lat="45.5170209" lon="10.2900892"><ele>136.2</ele><time>2026-03-29T11:27:08.447Z</time></trkpt><trkpt lat="45.5169805" lon="10.2902319"><ele>136.39999999999998</ele><time>2026-03-29T11:27:09.452Z</time></trkpt><trkpt lat="45.5169572" lon="10.2903896"><ele>136.6</ele><time>2026-03-29T11:27:10.464Z</time></trkpt><trkpt lat="45.5169615" lon="10.2905307"><ele>136.79999999999998</ele><time>2026-03-29T11:27:11.454Z</time></trkpt><trkpt lat="45.516963" lon="10.2906604"><ele>137.0</ele><time>2026-03-29T11:27:12.451Z</time></trkpt><trkpt lat="45.5169291" lon="10.2907947"><ele>137.0</ele><time>2026-03-29T11:27:13.451Z</time></trkpt><trkpt lat="45.5168963" lon="10.2909505"><ele>137.0</ele><time>2026-03-29T11:27:14.451Z</time></trkpt><trkpt lat="45.5168541" lon="10.2911399"><ele>137.0</ele><time>2026-03-29T11:27:15.447Z</time></trkpt><trkpt lat="45.5168069" lon="10.2913478"><ele>137.0</ele><time>2026-03-29T11:27:16.458Z</time></trkpt><trkpt lat="45.5167636" lon="10.2915669"><ele>137.0</ele><time>2026-03-29T11:27:17.456Z</time></trkpt><trkpt lat="45.5167157" lon="10.2917995"><ele>137.0</ele><time>2026-03-29T11:27:18.459Z</time></trkpt><trkpt lat="45.5166652" lon="10.2920417"><ele>137.0</ele><time>2026-03-29T11:27:19.447Z</time></trkpt><trkpt lat="45.5166094" lon="10.292295"><ele>136.33333333333331</ele><time>2026-03-29T11:27:20.456Z</time></trkpt><trkpt lat="45.516552" lon="10.2925522"><ele>135.66666666666666</ele><time>2026-03-29T11:27:21.456Z</time></trkpt><trkpt lat="45.5164958" lon="10.2928093"><ele>135.0</ele><time>2026-03-29T11:27:22.444Z</time></trkpt><trkpt lat="45.5164381" lon="10.2930697"><ele>134.66666666666666</ele><time>2026-03-29T11:27:23.447Z</time></trkpt><trkpt lat="45.5163783" lon="10.2933411"><ele>134.33333333333331</ele><time>2026-03-29T11:27:24.464Z</time></trkpt><trkpt lat="45.516321" lon="10.2936013"><ele>134.0</ele><time>2026-03-29T11:27:25.448Z</time></trkpt><trkpt lat="45.5162633" lon="10.2938692"><ele>134.66666666666666</ele><time>2026-03-29T11:27:26.447Z</time></trkpt><trkpt lat="45.5162" lon="10.2941312"><ele>135.33333333333334</ele><time>2026-03-29T11:27:27.453Z</time></trkpt><trkpt lat="45.5161436" lon="10.2943785"><ele>136.0</ele><time>2026-03-29T11:27:28.44Z</time></trkpt><trkpt lat="45.5160892" lon="10.2946301"><ele>136.66666666666669</ele><time>2026-03-29T11:27:29.471Z</time></trkpt><trkpt lat="45.5160385" lon="10.2948649"><ele>137.33333333333334</ele><time>2026-03-29T11:27:30.446Z</time></trkpt><trkpt lat="45.5159887" lon="10.2951002"><ele>138.0</ele><time>2026-03-29T11:27:31.45Z</time></trkpt><trkpt lat="45.5159459" lon="10.2953201"><ele>138.0</ele><time>2026-03-29T11:27:32.455Z</time></trkpt><trkpt lat="45.5159022" lon="10.2955187"><ele>138.0</ele><time>2026-03-29T11:27:33.46Z</time></trkpt><trkpt lat="45.5158616" lon="10.2956973"><ele>138.0</ele><time>2026-03-29T11:27:34.443Z</time></trkpt><trkpt lat="45.5158207" lon="10.2958645"><ele>138.0</ele><time>2026-03-29T11:27:35.447Z</time></trkpt><trkpt lat="45.5157815" lon="10.2960116"><ele>138.0</ele><time>2026-03-29T11:27:36.447Z</time></trkpt><trkpt lat="45.5157418" lon="10.2961394"><ele>138.0</ele><time>2026-03-29T11:27:37.452Z</time></trkpt><trkpt lat="45.515706" lon="10.2962596"><ele>138.0</ele><time>2026-03-29T11:27:38.449Z</time></trkpt><trkpt lat="45.515671" lon="10.29637"><ele>138.0</ele><time>2026-03-29T11:27:39.45Z</time></trkpt><trkpt lat="45.5156344" lon="10.2964828"><ele>138.0</ele><time>2026-03-29T11:27:40.45Z</time></trkpt><trkpt lat="45.5155993" lon="10.2965814"><ele>138.0</ele><time>2026-03-29T11:27:41.444Z</time></trkpt><trkpt lat="45.5155561" lon="10.296655"><ele>138.16666666666666</ele><time>2026-03-29T11:27:42.449Z</time></trkpt><trkpt lat="45.5155012" lon="10.2967047"><ele>138.33333333333334</ele><time>2026-03-29T11:27:43.441Z</time></trkpt><trkpt lat="45.5154426" lon="10.2967426"><ele>138.5</ele><time>2026-03-29T11:27:44.445Z</time></trkpt><trkpt lat="45.5153938" lon="10.2969061"><ele>138.66666666666669</ele><time>2026-03-29T11:27:46.452Z</time></trkpt><trkpt lat="45.5153991" lon="10.297023"><ele>138.83333333333334</ele><time>2026-03-29T11:27:47.463Z</time></trkpt><trkpt lat="45.5154089" lon="10.2971532"><ele>139.0</ele><time>2026-03-29T11:27:48.441Z</time></trkpt><trkpt lat="45.5154126" lon="10.2972852"><ele>139.0</ele><time>2026-03-29T11:27:49.464Z</time></trkpt><trkpt lat="45.5154013" lon="10.2974174"><ele>139.0</ele><time>2026-03-29T11:27:50.439Z</time></trkpt><trkpt lat="45.5153799" lon="10.2975839"><ele>139.0</ele><time>2026-03-29T11:27:51.447Z</time></trkpt><trkpt lat="45.5153487" lon="10.2977648"><ele>139.0</ele><time>2026-03-29T11:27:52.453Z</time></trkpt><trkpt lat="45.5153045" lon="10.2979815"><ele>138.33333333333334</ele><time>2026-03-29T11:27:53.46Z</time></trkpt><trkpt lat="45.5152481" lon="10.2982304"><ele>137.66666666666666</ele><time>2026-03-29T11:27:54.46Z</time></trkpt><trkpt lat="45.5152001" lon="10.2984507"><ele>137.0</ele><time>2026-03-29T11:27:55.443Z</time></trkpt><trkpt lat="45.5151485" lon="10.2986686"><ele>137.0</ele><time>2026-03-29T11:27:56.457Z</time></trkpt><trkpt lat="45.5150976" lon="10.2988853"><ele>137.0</ele><time>2026-03-29T11:27:57.443Z</time></trkpt><trkpt lat="45.515044" lon="10.2991136"><ele>137.0</ele><time>2026-03-29T11:27:58.449Z</time></trkpt><trkpt lat="45.5149914" lon="10.2993465"><ele>138.0</ele><time>2026-03-29T11:27:59.456Z</time></trkpt><trkpt lat="45.5149407" lon="10.2995796"><ele>139.0</ele><time>2026-03-29T11:28:00.461Z</time></trkpt><trkpt lat="45.5148905" lon="10.2998082"><ele>140.0</ele><time>2026-03-29T11:28:01.457Z</time></trkpt><trkpt lat="45.5148383" lon="10.3000327"><ele>140.0</ele><time>2026-03-29T11:28:02.482Z</time></trkpt><trkpt lat="45.5147853" lon="10.3002423"><ele>140.0</ele><time>2026-03-29T11:28:03.46Z</time></trkpt><trkpt lat="45.5147314" lon="10.3004628"><ele>140.0</ele><time>2026-03-29T11:28:04.458Z</time></trkpt><trkpt lat="45.5146767" lon="10.3006925"><ele>140.0</ele><time>2026-03-29T11:28:05.462Z</time></trkpt><trkpt lat="45.5146216" lon="10.3009258"><ele>140.0</ele><time>2026-03-29T11:28:06.45Z</time></trkpt><trkpt lat="45.514567" lon="10.3011575"><ele>140.0</ele><time>2026-03-29T11:28:07.456Z</time></trkpt><trkpt lat="45.5145171" lon="10.3013735"><ele>140.0</ele><time>2026-03-29T11:28:08.455Z</time></trkpt><trkpt lat="45.5144649" lon="10.3016028"><ele>140.0</ele><time>2026-03-29T11:28:09.454Z</time></trkpt><trkpt lat="45.5144142" lon="10.3018192"><ele>140.0</ele><time>2026-03-29T11:28:10.448Z</time></trkpt><trkpt lat="45.5143612" lon="10.3020487"><ele>139.66666666666666</ele><time>2026-03-29T11:28:11.458Z</time></trkpt><trkpt lat="45.5143083" lon="10.3022955"><ele>139.33333333333334</ele><time>2026-03-29T11:28:12.446Z</time></trkpt><trkpt lat="45.5142504" lon="10.3025587"><ele>139.0</ele><time>2026-03-29T11:28:13.446Z</time></trkpt><trkpt lat="45.5141868" lon="10.302824"><ele>139.0</ele><time>2026-03-29T11:28:14.448Z</time></trkpt><trkpt lat="45.5141199" lon="10.3030885"><ele>139.0</ele><time>2026-03-29T11:28:15.457Z</time></trkpt><trkpt lat="45.5140551" lon="10.3033436"><ele>139.0</ele><time>2026-03-29T11:28:16.462Z</time></trkpt><trkpt lat="45.5139878" lon="10.3036032"><ele>139.0</ele><time>2026-03-29T11:28:17.45Z</time></trkpt><trkpt lat="45.5139184" lon="10.303871"><ele>139.0</ele><time>2026-03-29T11:28:18.446Z</time></trkpt><trkpt lat="45.5138508" lon="10.3041366"><ele>139.0</ele><time>2026-03-29T11:28:19.456Z</time></trkpt><trkpt lat="45.5137844" lon="10.3044017"><ele>139.33333333333334</ele><time>2026-03-29T11:28:20.441Z</time></trkpt><trkpt lat="45.513722" lon="10.3046607"><ele>139.66666666666666</ele><time>2026-03-29T11:28:21.445Z</time></trkpt><trkpt lat="45.5136662" lon="10.3048929"><ele>140.0</ele><time>2026-03-29T11:28:22.438Z</time></trkpt><trkpt lat="45.513613" lon="10.3051216"><ele>140.0</ele><time>2026-03-29T11:28:23.456Z</time></trkpt><trkpt lat="45.513562" lon="10.3053262"><ele>140.0</ele><time>2026-03-29T11:28:24.445Z</time></trkpt><trkpt lat="45.5135142" lon="10.3055288"><ele>140.0</ele><time>2026-03-29T11:28:25.459Z</time></trkpt><trkpt lat="45.5134718" lon="10.305701"><ele>140.0</ele><time>2026-03-29T11:28:26.445Z</time></trkpt><trkpt lat="45.5134329" lon="10.3058603"><ele>140.33333333333331</ele><time>2026-03-29T11:28:27.441Z</time></trkpt><trkpt lat="45.5133981" lon="10.3059904"><ele>140.66666666666666</ele><time>2026-03-29T11:28:28.443Z</time></trkpt><trkpt lat="45.5133641" lon="10.3060979"><ele>141.0</ele><time>2026-03-29T11:28:29.45Z</time></trkpt><trkpt lat="45.5133318" lon="10.3061835"><ele>141.33333333333334</ele><time>2026-03-29T11:28:30.452Z</time></trkpt><trkpt lat="45.5132913" lon="10.3062578"><ele>141.66666666666669</ele><time>2026-03-29T11:28:31.463Z</time></trkpt><trkpt lat="45.5132357" lon="10.3063333"><ele>142.0</ele><time>2026-03-29T11:28:32.462Z</time></trkpt><trkpt lat="45.513185" lon="10.306414"><ele>142.0</ele><time>2026-03-29T11:28:33.449Z</time></trkpt><trkpt lat="45.5131471" lon="10.3065038"><ele>142.0</ele><time>2026-03-29T11:28:34.443Z</time></trkpt><trkpt lat="45.5131508" lon="10.3066125"><ele>142.0</ele><time>2026-03-29T11:28:35.452Z</time></trkpt><trkpt lat="45.5131701" lon="10.3067074"><ele>142.0</ele><time>2026-03-29T11:28:36.45Z</time></trkpt><trkpt lat="45.5131783" lon="10.3067984"><ele>142.0</ele><time>2026-03-29T11:28:37.449Z</time></trkpt><trkpt lat="45.5131736" lon="10.3068882"><ele>142.0</ele><time>2026-03-29T11:28:38.442Z</time></trkpt><trkpt lat="45.5131408" lon="10.3070463"><ele>142.0</ele><time>2026-03-29T11:28:40.462Z</time></trkpt><trkpt lat="45.5130705" lon="10.3071155"><ele>142.0</ele><time>2026-03-29T11:28:43.446Z</time></trkpt><trkpt lat="45.5129979" lon="10.3070672"><ele>142.0</ele><time>2026-03-29T11:28:46.469Z</time></trkpt><trkpt lat="45.5129342" lon="10.3070232"><ele>142.0</ele><time>2026-03-29T11:28:49.459Z</time></trkpt><trkpt lat="45.5128508" lon="10.3069997"><ele>142.0</ele><time>2026-03-29T11:28:52.454Z</time></trkpt><trkpt lat="45.5127839" lon="10.3069818"><ele>142.0</ele><time>2026-03-29T11:28:55.463Z</time></trkpt><trkpt lat="45.5128604" lon="10.3070378"><ele>142.0</ele><time>2026-03-29T11:29:20.459Z</time></trkpt><trkpt lat="45.5129243" lon="10.307047"><ele>142.0</ele><time>2026-03-29T11:29:21.446Z</time></trkpt><trkpt lat="45.5130309" lon="10.3070672"><ele>142.0</ele><time>2026-03-29T11:29:23.454Z</time></trkpt><trkpt lat="45.5130954" lon="10.3070891"><ele>142.0</ele><time>2026-03-29T11:29:25.448Z</time></trkpt><trkpt lat="45.5131378" lon="10.3072105"><ele>142.0</ele><time>2026-03-29T11:29:28.449Z</time></trkpt><trkpt lat="45.5131233" lon="10.3072986"><ele>142.0</ele><time>2026-03-29T11:29:29.464Z</time></trkpt><trkpt lat="45.513091" lon="10.3074054"><ele>142.0</ele><time>2026-03-29T11:29:30.44Z</time></trkpt><trkpt lat="45.5130437" lon="10.3075436"><ele>142.0</ele><time>2026-03-29T11:29:31.475Z</time></trkpt><trkpt lat="45.5129928" lon="10.3077047"><ele>142.0</ele><time>2026-03-29T11:29:32.46Z</time></trkpt><trkpt lat="45.5129499" lon="10.3078676"><ele>142.0</ele><time>2026-03-29T11:29:33.449Z</time></trkpt><trkpt lat="45.5129148" lon="10.3080208"><ele>142.25</ele><time>2026-03-29T11:29:34.447Z</time></trkpt><trkpt lat="45.5128751" lon="10.3081762"><ele>142.5</ele><time>2026-03-29T11:29:35.445Z</time></trkpt><trkpt lat="45.512835" lon="10.3083433"><ele>142.75</ele><time>2026-03-29T11:29:36.438Z</time></trkpt><trkpt lat="45.5127918" lon="10.308522"><ele>143.0</ele><time>2026-03-29T11:29:37.45Z</time></trkpt><trkpt lat="45.5127443" lon="10.3087141"><ele>143.0</ele><time>2026-03-29T11:29:38.439Z</time></trkpt><trkpt lat="45.5126984" lon="10.3089064"><ele>143.0</ele><time>2026-03-29T11:29:39.44Z</time></trkpt><trkpt lat="45.5126515" lon="10.3091088"><ele>143.0</ele><time>2026-03-29T11:29:40.46Z</time></trkpt><trkpt lat="45.512608" lon="10.309305"><ele>143.0</ele><time>2026-03-29T11:29:41.451Z</time></trkpt><trkpt lat="45.5125626" lon="10.309511"><ele>142.66666666666666</ele><time>2026-03-29T11:29:42.464Z</time></trkpt><trkpt lat="45.5125149" lon="10.3097196"><ele>142.33333333333334</ele><time>2026-03-29T11:29:43.46Z</time></trkpt><trkpt lat="45.5124661" lon="10.3099289"><ele>142.0</ele><time>2026-03-29T11:29:44.461Z</time></trkpt><trkpt lat="45.5124183" lon="10.3101355"><ele>142.0</ele><time>2026-03-29T11:29:45.451Z</time></trkpt><trkpt lat="45.5123697" lon="10.3103411"><ele>142.0</ele><time>2026-03-29T11:29:46.449Z</time></trkpt><trkpt lat="45.5123221" lon="10.3105477"><ele>142.0</ele><time>2026-03-29T11:29:47.442Z</time></trkpt><trkpt lat="45.5122741" lon="10.3107582"><ele>142.0</ele><time>2026-03-29T11:29:48.451Z</time></trkpt><trkpt lat="45.5122239" lon="10.3109742"><ele>142.0</ele><time>2026-03-29T11:29:49.498Z</time></trkpt><trkpt lat="45.5121791" lon="10.3111664"><ele>142.0</ele><time>2026-03-29T11:29:50.469Z</time></trkpt><trkpt lat="45.5121401" lon="10.311348"><ele>142.0</ele><time>2026-03-29T11:29:51.45Z</time></trkpt><trkpt lat="45.5121001" lon="10.3115149"><ele>142.75</ele><time>2026-03-29T11:29:52.465Z</time></trkpt><trkpt lat="45.5120589" lon="10.3116688"><ele>143.5</ele><time>2026-03-29T11:29:53.443Z</time></trkpt><trkpt lat="45.5120276" lon="10.3118188"><ele>144.25</ele><time>2026-03-29T11:29:54.474Z</time></trkpt><trkpt lat="45.5119958" lon="10.3119672"><ele>145.0</ele><time>2026-03-29T11:29:55.453Z</time></trkpt><trkpt lat="45.5119601" lon="10.312129"><ele>145.0</ele><time>2026-03-29T11:29:56.461Z</time></trkpt><trkpt lat="45.5119187" lon="10.3122887"><ele>145.0</ele><time>2026-03-29T11:29:57.443Z</time></trkpt><trkpt lat="45.5118766" lon="10.3124589"><ele>145.0</ele><time>2026-03-29T11:29:58.446Z</time></trkpt><trkpt lat="45.5118364" lon="10.312639"><ele>145.0</ele><time>2026-03-29T11:29:59.461Z</time></trkpt><trkpt lat="45.5117954" lon="10.3128211"><ele>145.0</ele><time>2026-03-29T11:30:00.441Z</time></trkpt><trkpt lat="45.5117515" lon="10.3130197"><ele>145.0</ele><time>2026-03-29T11:30:01.471Z</time></trkpt><trkpt lat="45.5117067" lon="10.3132166"><ele>145.0</ele><time>2026-03-29T11:30:02.443Z</time></trkpt><trkpt lat="45.5116598" lon="10.3134302"><ele>145.0</ele><time>2026-03-29T11:30:03.456Z</time></trkpt><trkpt lat="45.5116133" lon="10.3136408"><ele>145.66666666666669</ele><time>2026-03-29T11:30:04.45Z</time></trkpt><trkpt lat="45.5115612" lon="10.3138556"><ele>146.33333333333334</ele><time>2026-03-29T11:30:05.449Z</time></trkpt><trkpt lat="45.5115057" lon="10.3140713"><ele>147.0</ele><time>2026-03-29T11:30:06.444Z</time></trkpt><trkpt lat="45.5114469" lon="10.3142908"><ele>147.0</ele><time>2026-03-29T11:30:07.444Z</time></trkpt><trkpt lat="45.511389" lon="10.3145128"><ele>147.0</ele><time>2026-03-29T11:30:08.453Z</time></trkpt><trkpt lat="45.5113345" lon="10.3147279"><ele>147.0</ele><time>2026-03-29T11:30:09.453Z</time></trkpt><trkpt lat="45.5112844" lon="10.3149404"><ele>146.66666666666666</ele><time>2026-03-29T11:30:10.453Z</time></trkpt><trkpt lat="45.5112349" lon="10.3151457"><ele>146.33333333333331</ele><time>2026-03-29T11:30:11.443Z</time></trkpt><trkpt lat="45.5111853" lon="10.3153593"><ele>146.0</ele><time>2026-03-29T11:30:12.482Z</time></trkpt><trkpt lat="45.5111397" lon="10.3155556"><ele>145.75</ele><time>2026-03-29T11:30:13.456Z</time></trkpt><trkpt lat="45.5110935" lon="10.3157559"><ele>145.5</ele><time>2026-03-29T11:30:14.439Z</time></trkpt><trkpt lat="45.5110474" lon="10.3159591"><ele>145.25</ele><time>2026-03-29T11:30:15.444Z</time></trkpt><trkpt lat="45.5110007" lon="10.3161609"><ele>145.0</ele><time>2026-03-29T11:30:16.459Z</time></trkpt><trkpt lat="45.5109564" lon="10.3163599"><ele>145.25</ele><time>2026-03-29T11:30:17.461Z</time></trkpt><trkpt lat="45.510912" lon="10.3165507"><ele>145.5</ele><time>2026-03-29T11:30:18.449Z</time></trkpt><trkpt lat="45.5108652" lon="10.3167355"><ele>145.75</ele><time>2026-03-29T11:30:19.466Z</time></trkpt><trkpt lat="45.5108243" lon="10.3169092"><ele>146.0</ele><time>2026-03-29T11:30:20.446Z</time></trkpt><trkpt lat="45.5107874" lon="10.3170778"><ele>146.0</ele><time>2026-03-29T11:30:21.44Z</time></trkpt><trkpt lat="45.5107502" lon="10.3172303"><ele>146.0</ele><time>2026-03-29T11:30:22.445Z</time></trkpt><trkpt lat="45.510718" lon="10.3173621"><ele>146.0</ele><time>2026-03-29T11:30:23.45Z</time></trkpt><trkpt lat="45.5106905" lon="10.317474"><ele>146.0</ele><time>2026-03-29T11:30:24.477Z</time></trkpt><trkpt lat="45.5106409" lon="10.3176241"><ele>146.0</ele><time>2026-03-29T11:30:26.452Z</time></trkpt><trkpt lat="45.5105657" lon="10.3177533"><ele>145.83333333333331</ele><time>2026-03-29T11:30:28.459Z</time></trkpt><trkpt lat="45.5105272" lon="10.3178382"><ele>145.66666666666666</ele><time>2026-03-29T11:30:29.449Z</time></trkpt><trkpt lat="45.510501" lon="10.317933"><ele>145.5</ele><time>2026-03-29T11:30:30.458Z</time></trkpt><trkpt lat="45.5104865" lon="10.3180394"><ele>145.33333333333334</ele><time>2026-03-29T11:30:31.453Z</time></trkpt><trkpt lat="45.5104785" lon="10.3181515"><ele>145.16666666666669</ele><time>2026-03-29T11:30:32.45Z</time></trkpt><trkpt lat="45.5104746" lon="10.3182703"><ele>145.0</ele><time>2026-03-29T11:30:33.442Z</time></trkpt><trkpt lat="45.5104647" lon="10.3184042"><ele>145.0</ele><time>2026-03-29T11:30:34.447Z</time></trkpt><trkpt lat="45.510448" lon="10.3185429"><ele>145.0</ele><time>2026-03-29T11:30:35.455Z</time></trkpt><trkpt lat="45.5104148" lon="10.3186828"><ele>145.0</ele><time>2026-03-29T11:30:36.444Z</time></trkpt><trkpt lat="45.5103818" lon="10.3188437"><ele>145.0</ele><time>2026-03-29T11:30:37.452Z</time></trkpt><trkpt lat="45.5103505" lon="10.3190002"><ele>145.0</ele><time>2026-03-29T11:30:38.457Z</time></trkpt><trkpt lat="45.5103118" lon="10.3191475"><ele>145.0</ele><time>2026-03-29T11:30:39.487Z</time></trkpt><trkpt lat="45.5102698" lon="10.3192965"><ele>145.0</ele><time>2026-03-29T11:30:40.446Z</time></trkpt><trkpt lat="45.5102286" lon="10.3194583"><ele>145.0</ele><time>2026-03-29T11:30:41.451Z</time></trkpt><trkpt lat="45.5101872" lon="10.3196433"><ele>145.0</ele><time>2026-03-29T11:30:42.46Z</time></trkpt><trkpt lat="45.51014" lon="10.3198348"><ele>145.0</ele><time>2026-03-29T11:30:43.447Z</time></trkpt><trkpt lat="45.5100943" lon="10.3200323"><ele>145.0</ele><time>2026-03-29T11:30:44.455Z</time></trkpt><trkpt lat="45.5100492" lon="10.3202219"><ele>145.0</ele><time>2026-03-29T11:30:45.448Z</time></trkpt><trkpt lat="45.5100084" lon="10.3204186"><ele>145.0</ele><time>2026-03-29T11:30:46.456Z</time></trkpt><trkpt lat="45.5099663" lon="10.3206141"><ele>144.75</ele><time>2026-03-29T11:30:47.453Z</time></trkpt><trkpt lat="45.5099284" lon="10.3208044"><ele>144.5</ele><time>2026-03-29T11:30:48.439Z</time></trkpt><trkpt lat="45.5098874" lon="10.3209881"><ele>144.25</ele><time>2026-03-29T11:30:49.46Z</time></trkpt><trkpt lat="45.5098535" lon="10.321148"><ele>144.0</ele><time>2026-03-29T11:30:50.451Z</time></trkpt><trkpt lat="45.5098277" lon="10.3212757"><ele>144.0</ele><time>2026-03-29T11:30:51.473Z</time></trkpt><trkpt lat="45.5098101" lon="10.3213727"><ele>144.0</ele><time>2026-03-29T11:30:52.443Z</time></trkpt><trkpt lat="45.5097702" lon="10.3214664"><ele>144.0</ele><time>2026-03-29T11:30:54.45Z</time></trkpt><trkpt lat="45.5097108" lon="10.3215753"><ele>144.0</ele><time>2026-03-29T11:30:57.444Z</time></trkpt><trkpt lat="45.5096644" lon="10.3216955"><ele>144.0</ele><time>2026-03-29T11:30:59.449Z</time></trkpt><trkpt lat="45.509661" lon="10.3218312"><ele>144.0</ele><time>2026-03-29T11:31:02.466Z</time></trkpt><trkpt lat="45.5096312" lon="10.3219824"><ele>144.2</ele><time>2026-03-29T11:31:04.453Z</time></trkpt><trkpt lat="45.509607" lon="10.3221018"><ele>144.4</ele><time>2026-03-29T11:31:05.479Z</time></trkpt><trkpt lat="45.5095847" lon="10.3222405"><ele>144.6</ele><time>2026-03-29T11:31:06.449Z</time></trkpt><trkpt lat="45.5095544" lon="10.3224103"><ele>144.8</ele><time>2026-03-29T11:31:07.456Z</time></trkpt><trkpt lat="45.5095132" lon="10.3225868"><ele>145.0</ele><time>2026-03-29T11:31:08.458Z</time></trkpt><trkpt lat="45.5094669" lon="10.3227777"><ele>145.33333333333334</ele><time>2026-03-29T11:31:09.46Z</time></trkpt><trkpt lat="45.5094158" lon="10.3229727"><ele>145.66666666666666</ele><time>2026-03-29T11:31:10.455Z</time></trkpt><trkpt lat="45.509363" lon="10.3231775"><ele>146.0</ele><time>2026-03-29T11:31:11.452Z</time></trkpt><trkpt lat="45.5093101" lon="10.3233914"><ele>146.33333333333331</ele><time>2026-03-29T11:31:12.46Z</time></trkpt><trkpt lat="45.5092528" lon="10.3236053"><ele>146.66666666666666</ele><time>2026-03-29T11:31:13.456Z</time></trkpt><trkpt lat="45.5091972" lon="10.3238303"><ele>147.0</ele><time>2026-03-29T11:31:14.489Z</time></trkpt><trkpt lat="45.5091418" lon="10.3240447"><ele>147.0</ele><time>2026-03-29T11:31:15.468Z</time></trkpt><trkpt lat="45.5090884" lon="10.3242604"><ele>147.0</ele><time>2026-03-29T11:31:16.443Z</time></trkpt><trkpt lat="45.5090345" lon="10.3244896"><ele>147.0</ele><time>2026-03-29T11:31:17.459Z</time></trkpt><trkpt lat="45.508977" lon="10.3247158"><ele>147.33333333333334</ele><time>2026-03-29T11:31:18.461Z</time></trkpt><trkpt lat="45.5089251" lon="10.3249359"><ele>147.66666666666669</ele><time>2026-03-29T11:31:19.465Z</time></trkpt><trkpt lat="45.5088763" lon="10.3251482"><ele>148.0</ele><time>2026-03-29T11:31:20.469Z</time></trkpt><trkpt lat="45.508828" lon="10.325363"><ele>147.66666666666669</ele><time>2026-03-29T11:31:21.481Z</time></trkpt><trkpt lat="45.5087776" lon="10.3255701"><ele>147.33333333333334</ele><time>2026-03-29T11:31:22.449Z</time></trkpt><trkpt lat="45.5087241" lon="10.3257944"><ele>147.0</ele><time>2026-03-29T11:31:23.453Z</time></trkpt><trkpt lat="45.508667" lon="10.3260246"><ele>147.0</ele><time>2026-03-29T11:31:24.457Z</time></trkpt><trkpt lat="45.5086132" lon="10.3262608"><ele>147.0</ele><time>2026-03-29T11:31:25.457Z</time></trkpt><trkpt lat="45.5085591" lon="10.3264926"><ele>147.0</ele><time>2026-03-29T11:31:26.442Z</time></trkpt><trkpt lat="45.5084994" lon="10.3267347"><ele>147.0</ele><time>2026-03-29T11:31:27.459Z</time></trkpt><trkpt lat="45.508442" lon="10.32698"><ele>147.0</ele><time>2026-03-29T11:31:28.453Z</time></trkpt><trkpt lat="45.5083791" lon="10.3272344"><ele>147.0</ele><time>2026-03-29T11:31:29.474Z</time></trkpt><trkpt lat="45.5083216" lon="10.327487"><ele>147.0</ele><time>2026-03-29T11:31:30.454Z</time></trkpt><trkpt lat="45.5082647" lon="10.3277417"><ele>147.0</ele><time>2026-03-29T11:31:31.439Z</time></trkpt><trkpt lat="45.5082064" lon="10.3280086"><ele>147.0</ele><time>2026-03-29T11:31:32.46Z</time></trkpt><trkpt lat="45.5081513" lon="10.3282612"><ele>147.0</ele><time>2026-03-29T11:31:33.449Z</time></trkpt><trkpt lat="45.5080967" lon="10.3285048"><ele>147.0</ele><time>2026-03-29T11:31:34.453Z</time></trkpt><trkpt lat="45.5080445" lon="10.3287365"><ele>147.0</ele><time>2026-03-29T11:31:35.453Z</time></trkpt><trkpt lat="45.5079906" lon="10.3289642"><ele>147.0</ele><time>2026-03-29T11:31:36.478Z</time></trkpt><trkpt lat="45.5079428" lon="10.3291792"><ele>147.0</ele><time>2026-03-29T11:31:37.456Z</time></trkpt><trkpt lat="45.5078919" lon="10.329406"><ele>147.0</ele><time>2026-03-29T11:31:38.47Z</time></trkpt><trkpt lat="45.5078383" lon="10.3296302"><ele>147.0</ele><time>2026-03-29T11:31:39.467Z</time></trkpt><trkpt lat="45.5077864" lon="10.3298554"><ele>147.0</ele><time>2026-03-29T11:31:40.458Z</time></trkpt><trkpt lat="45.507733" lon="10.3300789"><ele>147.0</ele><time>2026-03-29T11:31:41.457Z</time></trkpt><trkpt lat="45.5076821" lon="10.3302986"><ele>147.0</ele><time>2026-03-29T11:31:42.443Z</time></trkpt><trkpt lat="45.5076308" lon="10.3305179"><ele>147.0</ele><time>2026-03-29T11:31:43.453Z</time></trkpt><trkpt lat="45.5075788" lon="10.3307249"><ele>147.0</ele><time>2026-03-29T11:31:44.438Z</time></trkpt><trkpt lat="45.5075259" lon="10.3309299"><ele>147.5</ele><time>2026-03-29T11:31:45.462Z</time></trkpt><trkpt lat="45.5074759" lon="10.3311233"><ele>148.0</ele><time>2026-03-29T11:31:46.463Z</time></trkpt><trkpt lat="45.5074265" lon="10.3313053"><ele>148.5</ele><time>2026-03-29T11:31:47.44Z</time></trkpt><trkpt lat="45.5073869" lon="10.3314837"><ele>149.0</ele><time>2026-03-29T11:31:48.45Z</time></trkpt><trkpt lat="45.5073521" lon="10.3316536"><ele>149.4</ele><time>2026-03-29T11:31:49.445Z</time></trkpt><trkpt lat="45.5073225" lon="10.3318205"><ele>149.8</ele><time>2026-03-29T11:31:50.449Z</time></trkpt><trkpt lat="45.5072997" lon="10.3319757"><ele>150.2</ele><time>2026-03-29T11:31:51.463Z</time></trkpt><trkpt lat="45.5072841" lon="10.332106"><ele>150.6</ele><time>2026-03-29T11:31:52.453Z</time></trkpt><trkpt lat="45.5072716" lon="10.332208"><ele>151.0</ele><time>2026-03-29T11:31:53.455Z</time></trkpt><trkpt lat="45.5072543" lon="10.3323039"><ele>151.4</ele><time>2026-03-29T11:31:54.465Z</time></trkpt><trkpt lat="45.5072249" lon="10.3324678"><ele>151.8</ele><time>2026-03-29T11:31:56.487Z</time></trkpt><trkpt lat="45.5072662" lon="10.3326063"><ele>152.20000000000002</ele><time>2026-03-29T11:31:58.45Z</time></trkpt><trkpt lat="45.5073801" lon="10.3326644"><ele>152.6</ele><time>2026-03-29T11:32:00.443Z</time></trkpt><trkpt lat="45.5074504" lon="10.3326771"><ele>153.0</ele><time>2026-03-29T11:32:01.456Z</time></trkpt><trkpt lat="45.507529" lon="10.3326924"><ele>153.0</ele><time>2026-03-29T11:32:02.44Z</time></trkpt><trkpt lat="45.5076206" lon="10.3327187"><ele>153.0</ele><time>2026-03-29T11:32:03.452Z</time></trkpt><trkpt lat="45.5077274" lon="10.3327553"><ele>153.0</ele><time>2026-03-29T11:32:04.454Z</time></trkpt><trkpt lat="45.5078485" lon="10.3328063"><ele>153.0</ele><time>2026-03-29T11:32:05.456Z</time></trkpt><trkpt lat="45.5079764" lon="10.3328664"><ele>152.33333333333334</ele><time>2026-03-29T11:32:06.451Z</time></trkpt><trkpt lat="45.508126" lon="10.3329354"><ele>151.66666666666669</ele><time>2026-03-29T11:32:07.453Z</time></trkpt><trkpt lat="45.5082784" lon="10.3330054"><ele>151.0</ele><time>2026-03-29T11:32:08.454Z</time></trkpt><trkpt lat="45.5084364" lon="10.3330804"><ele>150.66666666666669</ele><time>2026-03-29T11:32:09.472Z</time></trkpt><trkpt lat="45.5085925" lon="10.3331534"><ele>150.33333333333334</ele><time>2026-03-29T11:32:10.458Z</time></trkpt><trkpt lat="45.5087524" lon="10.3332286"><ele>150.0</ele><time>2026-03-29T11:32:11.46Z</time></trkpt><trkpt lat="45.508936" lon="10.3333157"><ele>149.0</ele><time>2026-03-29T11:32:12.563Z</time></trkpt><trkpt lat="45.5092469" lon="10.3334736"><ele>148.0</ele><time>2026-03-29T11:32:14.452Z</time></trkpt><trkpt lat="45.509405" lon="10.3335543"><ele>148.0</ele><time>2026-03-29T11:32:15.462Z</time></trkpt><trkpt lat="45.5095591" lon="10.3336301"><ele>148.0</ele><time>2026-03-29T11:32:16.454Z</time></trkpt><trkpt lat="45.5097113" lon="10.3337045"><ele>148.0</ele><time>2026-03-29T11:32:17.46Z</time></trkpt><trkpt lat="45.5098626" lon="10.3337816"><ele>148.33333333333334</ele><time>2026-03-29T11:32:18.473Z</time></trkpt><trkpt lat="45.5100074" lon="10.3338542"><ele>148.66666666666666</ele><time>2026-03-29T11:32:19.459Z</time></trkpt><trkpt lat="45.5101545" lon="10.3339219"><ele>149.0</ele><time>2026-03-29T11:32:20.466Z</time></trkpt><trkpt lat="45.5102942" lon="10.3339938"><ele>149.0</ele><time>2026-03-29T11:32:21.448Z</time></trkpt><trkpt lat="45.510438" lon="10.3340658"><ele>149.0</ele><time>2026-03-29T11:32:22.464Z</time></trkpt><trkpt lat="45.5105757" lon="10.3341354"><ele>149.0</ele><time>2026-03-29T11:32:23.45Z</time></trkpt><trkpt lat="45.510715" lon="10.3342008"><ele>149.0</ele><time>2026-03-29T11:32:24.459Z</time></trkpt><trkpt lat="45.5108524" lon="10.3342687"><ele>149.0</ele><time>2026-03-29T11:32:25.461Z</time></trkpt><trkpt lat="45.5109893" lon="10.334333"><ele>149.0</ele><time>2026-03-29T11:32:26.453Z</time></trkpt><trkpt lat="45.5111284" lon="10.3343976"><ele>149.0</ele><time>2026-03-29T11:32:27.458Z</time></trkpt><trkpt lat="45.5112656" lon="10.3344609"><ele>149.0</ele><time>2026-03-29T11:32:28.445Z</time></trkpt><trkpt lat="45.5114069" lon="10.3345286"><ele>149.33333333333331</ele><time>2026-03-29T11:32:29.447Z</time></trkpt><trkpt lat="45.5115535" lon="10.3345989"><ele>149.66666666666666</ele><time>2026-03-29T11:32:30.464Z</time></trkpt><trkpt lat="45.5117005" lon="10.3346701"><ele>150.0</ele><time>2026-03-29T11:32:31.457Z</time></trkpt><trkpt lat="45.5118502" lon="10.3347428"><ele>150.0</ele><time>2026-03-29T11:32:32.443Z</time></trkpt><trkpt lat="45.5120085" lon="10.3348147"><ele>150.0</ele><time>2026-03-29T11:32:33.453Z</time></trkpt><trkpt lat="45.5121705" lon="10.3348955"><ele>150.0</ele><time>2026-03-29T11:32:34.464Z</time></trkpt><trkpt lat="45.5123324" lon="10.3349764"><ele>150.33333333333334</ele><time>2026-03-29T11:32:35.45Z</time></trkpt><trkpt lat="45.512502" lon="10.335059"><ele>150.66666666666669</ele><time>2026-03-29T11:32:36.467Z</time></trkpt><trkpt lat="45.5126728" lon="10.3351387"><ele>151.0</ele><time>2026-03-29T11:32:37.463Z</time></trkpt><trkpt lat="45.5128465" lon="10.3352216"><ele>151.0</ele><time>2026-03-29T11:32:38.458Z</time></trkpt><trkpt lat="45.5130261" lon="10.3353086"><ele>151.0</ele><time>2026-03-29T11:32:39.466Z</time></trkpt><trkpt lat="45.5132086" lon="10.3353944"><ele>151.0</ele><time>2026-03-29T11:32:40.46Z</time></trkpt><trkpt lat="45.513394" lon="10.3354801"><ele>150.66666666666669</ele><time>2026-03-29T11:32:41.451Z</time></trkpt><trkpt lat="45.5135828" lon="10.3355689"><ele>150.33333333333334</ele><time>2026-03-29T11:32:42.447Z</time></trkpt><trkpt lat="45.5137752" lon="10.3356621"><ele>150.0</ele><time>2026-03-29T11:32:43.458Z</time></trkpt><trkpt lat="45.513962" lon="10.3357516"><ele>150.0</ele><time>2026-03-29T11:32:44.454Z</time></trkpt><trkpt lat="45.5141397" lon="10.3358384"><ele>150.0</ele><time>2026-03-29T11:32:45.448Z</time></trkpt><trkpt lat="45.5143106" lon="10.3359233"><ele>150.0</ele><time>2026-03-29T11:32:46.461Z</time></trkpt><trkpt lat="45.5144704" lon="10.3360006"><ele>150.0</ele><time>2026-03-29T11:32:47.451Z</time></trkpt><trkpt lat="45.5146381" lon="10.336077"><ele>150.0</ele><time>2026-03-29T11:32:48.483Z</time></trkpt><trkpt lat="45.5147946" lon="10.3361533"><ele>150.0</ele><time>2026-03-29T11:32:49.457Z</time></trkpt><trkpt lat="45.5149497" lon="10.3362461"><ele>150.0</ele><time>2026-03-29T11:32:50.471Z</time></trkpt><trkpt lat="45.5150852" lon="10.3363579"><ele>150.0</ele><time>2026-03-29T11:32:51.477Z</time></trkpt><trkpt lat="45.5152165" lon="10.3364829"><ele>150.0</ele><time>2026-03-29T11:32:52.461Z</time></trkpt><trkpt lat="45.5153294" lon="10.3366296"><ele>151.33333333333334</ele><time>2026-03-29T11:32:53.456Z</time></trkpt><trkpt lat="45.5154285" lon="10.3367906"><ele>152.66666666666669</ele><time>2026-03-29T11:32:54.447Z</time></trkpt><trkpt lat="45.5155196" lon="10.3369668"><ele>154.0</ele><time>2026-03-29T11:32:55.45Z</time></trkpt><trkpt lat="45.5155953" lon="10.3371513"><ele>153.66666666666669</ele><time>2026-03-29T11:32:56.448Z</time></trkpt><trkpt lat="45.5156573" lon="10.3373543"><ele>153.33333333333334</ele><time>2026-03-29T11:32:57.47Z</time></trkpt><trkpt lat="45.5157022" lon="10.3375578"><ele>153.0</ele><time>2026-03-29T11:32:58.452Z</time></trkpt><trkpt lat="45.5157366" lon="10.3377737"><ele>153.0</ele><time>2026-03-29T11:32:59.45Z</time></trkpt><trkpt lat="45.5157711" lon="10.33799"><ele>153.0</ele><time>2026-03-29T11:33:00.45Z</time></trkpt><trkpt lat="45.5158086" lon="10.3382091"><ele>153.0</ele><time>2026-03-29T11:33:01.454Z</time></trkpt><trkpt lat="45.5158463" lon="10.3384185"><ele>153.5</ele><time>2026-03-29T11:33:02.453Z</time></trkpt><trkpt lat="45.515879" lon="10.3386173"><ele>154.0</ele><time>2026-03-29T11:33:03.465Z</time></trkpt><trkpt lat="45.5159121" lon="10.3387987"><ele>154.5</ele><time>2026-03-29T11:33:04.475Z</time></trkpt><trkpt lat="45.5159417" lon="10.3389551"><ele>155.0</ele><time>2026-03-29T11:33:05.446Z</time></trkpt><trkpt lat="45.5159633" lon="10.3390911"><ele>155.0</ele><time>2026-03-29T11:33:06.446Z</time></trkpt><trkpt lat="45.5159766" lon="10.3392078"><ele>155.0</ele><time>2026-03-29T11:33:07.451Z</time></trkpt><trkpt lat="45.5159737" lon="10.3393049"><ele>155.0</ele><time>2026-03-29T11:33:08.449Z</time></trkpt><trkpt lat="45.5159479" lon="10.3393871"><ele>155.0</ele><time>2026-03-29T11:33:09.481Z</time></trkpt><trkpt lat="45.5158608" lon="10.3395377"><ele>155.0</ele><time>2026-03-29T11:33:11.454Z</time></trkpt><trkpt lat="45.51582" lon="10.3396353"><ele>155.0</ele><time>2026-03-29T11:33:12.468Z</time></trkpt><trkpt lat="45.5158023" lon="10.339744"><ele>154.33333333333331</ele><time>2026-03-29T11:33:13.468Z</time></trkpt><trkpt lat="45.5158181" lon="10.3398531"><ele>153.66666666666666</ele><time>2026-03-29T11:33:14.47Z</time></trkpt><trkpt lat="45.5158616" lon="10.3399418"><ele>153.0</ele><time>2026-03-29T11:33:15.452Z</time></trkpt><trkpt lat="45.5159065" lon="10.3400144"><ele>152.33333333333334</ele><time>2026-03-29T11:33:16.455Z</time></trkpt><trkpt lat="45.5159581" lon="10.3400826"><ele>151.66666666666669</ele><time>2026-03-29T11:33:17.466Z</time></trkpt><trkpt lat="45.5160168" lon="10.3401482"><ele>151.0</ele><time>2026-03-29T11:33:18.45Z</time></trkpt><trkpt lat="45.5160197" lon="10.3402707"><ele>151.0</ele><time>2026-03-29T11:33:19.449Z</time></trkpt><trkpt lat="45.5160182" lon="10.3404173"><ele>151.0</ele><time>2026-03-29T11:33:20.459Z</time></trkpt><trkpt lat="45.5160062" lon="10.3405961"><ele>151.0</ele><time>2026-03-29T11:33:21.455Z</time></trkpt><trkpt lat="45.5159946" lon="10.3407828"><ele>151.0</ele><time>2026-03-29T11:33:22.45Z</time></trkpt><trkpt lat="45.515982" lon="10.3409928"><ele>151.0</ele><time>2026-03-29T11:33:23.454Z</time></trkpt><trkpt lat="45.5159741" lon="10.3412131"><ele>151.0</ele><time>2026-03-29T11:33:24.477Z</time></trkpt><trkpt lat="45.5159703" lon="10.3414275"><ele>151.0</ele><time>2026-03-29T11:33:25.44Z</time></trkpt><trkpt lat="45.5164386" lon="10.3416232"><ele>151.0</ele><time>2026-03-29T11:33:26.49Z</time></trkpt><trkpt lat="45.5164811" lon="10.3418506"><ele>151.0</ele><time>2026-03-29T11:33:27.469Z</time></trkpt><trkpt lat="45.5165236" lon="10.3420808"><ele>151.0</ele><time>2026-03-29T11:33:28.462Z</time></trkpt><trkpt lat="45.5165611" lon="10.3423135"><ele>151.33333333333334</ele><time>2026-03-29T11:33:29.452Z</time></trkpt><trkpt lat="45.5166026" lon="10.3425516"><ele>151.66666666666666</ele><time>2026-03-29T11:33:30.455Z</time></trkpt><trkpt lat="45.5166483" lon="10.3427852"><ele>152.0</ele><time>2026-03-29T11:33:31.453Z</time></trkpt><trkpt lat="45.5166911" lon="10.3430224"><ele>151.66666666666666</ele><time>2026-03-29T11:33:32.451Z</time></trkpt><trkpt lat="45.5167395" lon="10.343265"><ele>151.33333333333334</ele><time>2026-03-29T11:33:33.456Z</time></trkpt><trkpt lat="45.5167805" lon="10.3434915"><ele>151.0</ele><time>2026-03-29T11:33:34.466Z</time></trkpt><trkpt lat="45.5168205" lon="10.3437229"><ele>151.33333333333334</ele><time>2026-03-29T11:33:35.457Z</time></trkpt><trkpt lat="45.5168582" lon="10.343953"><ele>151.66666666666666</ele><time>2026-03-29T11:33:36.465Z</time></trkpt><trkpt lat="45.5168961" lon="10.3441771"><ele>152.0</ele><time>2026-03-29T11:33:37.471Z</time></trkpt><trkpt lat="45.5169333" lon="10.3443996"><ele>152.0</ele><time>2026-03-29T11:33:38.459Z</time></trkpt><trkpt lat="45.5169686" lon="10.3446245"><ele>152.0</ele><time>2026-03-29T11:33:39.456Z</time></trkpt><trkpt lat="45.5170032" lon="10.3448533"><ele>152.0</ele><time>2026-03-29T11:33:40.454Z</time></trkpt><trkpt lat="45.5170315" lon="10.345091"><ele>152.66666666666666</ele><time>2026-03-29T11:33:41.453Z</time></trkpt><trkpt lat="45.5170601" lon="10.3453277"><ele>153.33333333333334</ele><time>2026-03-29T11:33:42.456Z</time></trkpt><trkpt lat="45.5170886" lon="10.3455651"><ele>154.0</ele><time>2026-03-29T11:33:43.472Z</time></trkpt><trkpt lat="45.5171183" lon="10.3457781"><ele>154.5</ele><time>2026-03-29T11:33:44.457Z</time></trkpt><trkpt lat="45.5171401" lon="10.3459761"><ele>155.0</ele><time>2026-03-29T11:33:45.46Z</time></trkpt><trkpt lat="45.5171585" lon="10.3461641"><ele>155.5</ele><time>2026-03-29T11:33:46.455Z</time></trkpt><trkpt lat="45.5171762" lon="10.3463325"><ele>156.0</ele><time>2026-03-29T11:33:47.446Z</time></trkpt><trkpt lat="45.5172013" lon="10.3465036"><ele>156.4</ele><time>2026-03-29T11:33:48.456Z</time></trkpt><trkpt lat="45.5172269" lon="10.3466562"><ele>156.8</ele><time>2026-03-29T11:33:49.468Z</time></trkpt><trkpt lat="45.5172573" lon="10.3467846"><ele>157.20000000000002</ele><time>2026-03-29T11:33:50.447Z</time></trkpt><trkpt lat="45.5172905" lon="10.3469113"><ele>157.6</ele><time>2026-03-29T11:33:51.452Z</time></trkpt><trkpt lat="45.5173014" lon="10.347027"><ele>158.0</ele><time>2026-03-29T11:33:52.453Z</time></trkpt><trkpt lat="45.5173027" lon="10.3471541"><ele>157.8</ele><time>2026-03-29T11:33:53.455Z</time></trkpt><trkpt lat="45.517313" lon="10.3472882"><ele>157.60000000000002</ele><time>2026-03-29T11:33:54.446Z</time></trkpt><trkpt lat="45.5173375" lon="10.3474302"><ele>157.39999999999998</ele><time>2026-03-29T11:33:55.462Z</time></trkpt><trkpt lat="45.5173678" lon="10.3475733"><ele>157.2</ele><time>2026-03-29T11:33:56.463Z</time></trkpt><trkpt lat="45.5174077" lon="10.3477307"><ele>157.0</ele><time>2026-03-29T11:33:57.459Z</time></trkpt><trkpt lat="45.5174454" lon="10.3479025"><ele>156.75</ele><time>2026-03-29T11:33:58.466Z</time></trkpt><trkpt lat="45.5174905" lon="10.3480824"><ele>156.5</ele><time>2026-03-29T11:33:59.48Z</time></trkpt><trkpt lat="45.5175378" lon="10.3482682"><ele>156.25</ele><time>2026-03-29T11:34:00.462Z</time></trkpt><trkpt lat="45.5175889" lon="10.3484613"><ele>156.0</ele><time>2026-03-29T11:34:01.454Z</time></trkpt><trkpt lat="45.5176402" lon="10.3486572"><ele>156.0</ele><time>2026-03-29T11:34:02.451Z</time></trkpt><trkpt lat="45.5176931" lon="10.3488553"><ele>156.0</ele><time>2026-03-29T11:34:03.47Z</time></trkpt><trkpt lat="45.5177397" lon="10.3490423"><ele>156.0</ele><time>2026-03-29T11:34:04.467Z</time></trkpt><trkpt lat="45.5177865" lon="10.3492303"><ele>156.0</ele><time>2026-03-29T11:34:05.468Z</time></trkpt><trkpt lat="45.5178335" lon="10.349426"><ele>156.5</ele><time>2026-03-29T11:34:06.464Z</time></trkpt><trkpt lat="45.5178806" lon="10.3496216"><ele>157.0</ele><time>2026-03-29T11:34:07.457Z</time></trkpt><trkpt lat="45.5179297" lon="10.3498171"><ele>157.5</ele><time>2026-03-29T11:34:08.452Z</time></trkpt><trkpt lat="45.517976" lon="10.3500033"><ele>158.0</ele><time>2026-03-29T11:34:09.453Z</time></trkpt><trkpt lat="45.51802" lon="10.3501779"><ele>158.0</ele><time>2026-03-29T11:34:10.464Z</time></trkpt><trkpt lat="45.5180623" lon="10.3503421"><ele>158.0</ele><time>2026-03-29T11:34:11.444Z</time></trkpt><trkpt lat="45.5181029" lon="10.3505074"><ele>158.0</ele><time>2026-03-29T11:34:12.454Z</time></trkpt><trkpt lat="45.5181454" lon="10.3506792"><ele>158.0</ele><time>2026-03-29T11:34:13.454Z</time></trkpt><trkpt lat="45.5181876" lon="10.3508569"><ele>158.0</ele><time>2026-03-29T11:34:14.46Z</time></trkpt><trkpt lat="45.5182312" lon="10.3510361"><ele>158.0</ele><time>2026-03-29T11:34:15.453Z</time></trkpt><trkpt lat="45.5182751" lon="10.3512234"><ele>158.0</ele><time>2026-03-29T11:34:16.477Z</time></trkpt><trkpt lat="45.5183227" lon="10.3514085"><ele>158.0</ele><time>2026-03-29T11:34:17.461Z</time></trkpt><trkpt lat="45.5183691" lon="10.3515964"><ele>157.25</ele><time>2026-03-29T11:34:18.456Z</time></trkpt><trkpt lat="45.5184189" lon="10.3517862"><ele>156.5</ele><time>2026-03-29T11:34:19.463Z</time></trkpt><trkpt lat="45.5184664" lon="10.3519742"><ele>155.75</ele><time>2026-03-29T11:34:20.452Z</time></trkpt><trkpt lat="45.5185159" lon="10.3521695"><ele>155.0</ele><time>2026-03-29T11:34:21.472Z</time></trkpt><trkpt lat="45.5185577" lon="10.3523536"><ele>155.0</ele><time>2026-03-29T11:34:22.444Z</time></trkpt><trkpt lat="45.518597" lon="10.352534"><ele>155.0</ele><time>2026-03-29T11:34:23.459Z</time></trkpt><trkpt lat="45.5186334" lon="10.3526851"><ele>155.0</ele><time>2026-03-29T11:34:24.454Z</time></trkpt><trkpt lat="45.5186646" lon="10.3528046"><ele>155.0</ele><time>2026-03-29T11:34:25.445Z</time></trkpt><trkpt lat="45.5186862" lon="10.3528924"><ele>155.0</ele><time>2026-03-29T11:34:26.449Z</time></trkpt><trkpt lat="45.5187038" lon="10.352982"><ele>155.16666666666666</ele><time>2026-03-29T11:34:28.478Z</time></trkpt><trkpt lat="45.5187228" lon="10.353078"><ele>155.33333333333331</ele><time>2026-03-29T11:34:32.471Z</time></trkpt><trkpt lat="45.5187632" lon="10.3532032"><ele>155.5</ele><time>2026-03-29T11:34:34.452Z</time></trkpt><trkpt lat="45.518789" lon="10.3532935"><ele>155.66666666666666</ele><time>2026-03-29T11:34:35.452Z</time></trkpt><trkpt lat="45.5188174" lon="10.3533962"><ele>155.83333333333334</ele><time>2026-03-29T11:34:36.447Z</time></trkpt><trkpt lat="45.5188442" lon="10.3535114"><ele>156.0</ele><time>2026-03-29T11:34:37.456Z</time></trkpt><trkpt lat="45.5188658" lon="10.3536046"><ele>156.2</ele><time>2026-03-29T11:34:38.452Z</time></trkpt><trkpt lat="45.5189097" lon="10.3537526"><ele>156.39999999999998</ele><time>2026-03-29T11:34:40.455Z</time></trkpt><trkpt lat="45.5189392" lon="10.3538579"><ele>156.6</ele><time>2026-03-29T11:34:41.47Z</time></trkpt><trkpt lat="45.5189663" lon="10.3539826"><ele>156.79999999999998</ele><time>2026-03-29T11:34:42.446Z</time></trkpt><trkpt lat="45.5189805" lon="10.3541184"><ele>157.0</ele><time>2026-03-29T11:34:43.461Z</time></trkpt><trkpt lat="45.5189801" lon="10.3542482"><ele>157.0</ele><time>2026-03-29T11:34:44.464Z</time></trkpt><trkpt lat="45.5189631" lon="10.3543656"><ele>157.0</ele><time>2026-03-29T11:34:45.46Z</time></trkpt><trkpt lat="45.5189381" lon="10.3544761"><ele>157.0</ele><time>2026-03-29T11:34:46.476Z</time></trkpt><trkpt lat="45.5189461" lon="10.3546371"><ele>157.0</ele><time>2026-03-29T11:34:48.462Z</time></trkpt><trkpt lat="45.5190551" lon="10.3547315"><ele>157.0</ele><time>2026-03-29T11:34:50.468Z</time></trkpt><trkpt lat="45.5191287" lon="10.3547737"><ele>157.0</ele><time>2026-03-29T11:34:51.451Z</time></trkpt><trkpt lat="45.5191943" lon="10.354858"><ele>157.0</ele><time>2026-03-29T11:34:52.471Z</time></trkpt><trkpt lat="45.5192676" lon="10.3549745"><ele>157.0</ele><time>2026-03-29T11:34:53.46Z</time></trkpt><trkpt lat="45.5193485" lon="10.3551106"><ele>157.0</ele><time>2026-03-29T11:34:54.46Z</time></trkpt><trkpt lat="45.5194284" lon="10.3552589"><ele>157.0</ele><time>2026-03-29T11:34:55.458Z</time></trkpt><trkpt lat="45.5195157" lon="10.3554249"><ele>157.0</ele><time>2026-03-29T11:34:56.473Z</time></trkpt><trkpt lat="45.5196053" lon="10.3556032"><ele>157.0</ele><time>2026-03-29T11:34:57.464Z</time></trkpt><trkpt lat="45.5196934" lon="10.3557984"><ele>157.0</ele><time>2026-03-29T11:34:58.46Z</time></trkpt><trkpt lat="45.5197798" lon="10.3560037"><ele>157.0</ele><time>2026-03-29T11:34:59.442Z</time></trkpt><trkpt lat="45.5198737" lon="10.3562177"><ele>157.0</ele><time>2026-03-29T11:35:00.462Z</time></trkpt><trkpt lat="45.5199671" lon="10.3564386"><ele>157.0</ele><time>2026-03-29T11:35:01.458Z</time></trkpt><trkpt lat="45.5200592" lon="10.3566725"><ele>157.0</ele><time>2026-03-29T11:35:02.464Z</time></trkpt><trkpt lat="45.5201581" lon="10.3569131"><ele>157.0</ele><time>2026-03-29T11:35:03.478Z</time></trkpt><trkpt lat="45.5202514" lon="10.3571467"><ele>157.0</ele><time>2026-03-29T11:35:04.448Z</time></trkpt><trkpt lat="45.5203481" lon="10.3573815"><ele>157.0</ele><time>2026-03-29T11:35:05.453Z</time></trkpt><trkpt lat="45.5204535" lon="10.3576098"><ele>157.0</ele><time>2026-03-29T11:35:06.459Z</time></trkpt><trkpt lat="45.5205721" lon="10.3578315"><ele>158.0</ele><time>2026-03-29T11:35:07.471Z</time></trkpt><trkpt lat="45.5206997" lon="10.3580339"><ele>159.0</ele><time>2026-03-29T11:35:08.461Z</time></trkpt><trkpt lat="45.5208374" lon="10.3582289"><ele>160.0</ele><time>2026-03-29T11:35:09.45Z</time></trkpt><trkpt lat="45.520983" lon="10.3584265"><ele>160.0</ele><time>2026-03-29T11:35:10.45Z</time></trkpt><trkpt lat="45.5211302" lon="10.3586257"><ele>160.0</ele><time>2026-03-29T11:35:11.45Z</time></trkpt><trkpt lat="45.5212778" lon="10.3588359"><ele>160.0</ele><time>2026-03-29T11:35:12.465Z</time></trkpt><trkpt lat="45.5214156" lon="10.3590541"><ele>160.0</ele><time>2026-03-29T11:35:13.45Z</time></trkpt><trkpt lat="45.5215474" lon="10.3592805"><ele>160.0</ele><time>2026-03-29T11:35:14.456Z</time></trkpt><trkpt lat="45.5216771" lon="10.3595153"><ele>160.0</ele><time>2026-03-29T11:35:15.465Z</time></trkpt><trkpt lat="45.5218088" lon="10.3597523"><ele>160.0</ele><time>2026-03-29T11:35:16.473Z</time></trkpt><trkpt lat="45.5219408" lon="10.3599893"><ele>160.0</ele><time>2026-03-29T11:35:17.47Z</time></trkpt><trkpt lat="45.5220704" lon="10.3602203"><ele>160.0</ele><time>2026-03-29T11:35:18.46Z</time></trkpt><trkpt lat="45.5222026" lon="10.3604557"><ele>160.33333333333334</ele><time>2026-03-29T11:35:19.461Z</time></trkpt><trkpt lat="45.5223336" lon="10.3606886"><ele>160.66666666666666</ele><time>2026-03-29T11:35:20.465Z</time></trkpt><trkpt lat="45.5224622" lon="10.3609169"><ele>161.0</ele><time>2026-03-29T11:35:21.467Z</time></trkpt><trkpt lat="45.522587" lon="10.3611433"><ele>161.0</ele><time>2026-03-29T11:35:22.46Z</time></trkpt><trkpt lat="45.5227129" lon="10.3613731"><ele>161.0</ele><time>2026-03-29T11:35:23.475Z</time></trkpt><trkpt lat="45.5228347" lon="10.3615889"><ele>161.0</ele><time>2026-03-29T11:35:24.46Z</time></trkpt><trkpt lat="45.5229531" lon="10.3618034"><ele>161.0</ele><time>2026-03-29T11:35:25.455Z</time></trkpt><trkpt lat="45.5230699" lon="10.3620114"><ele>161.0</ele><time>2026-03-29T11:35:26.448Z</time></trkpt><trkpt lat="45.5231867" lon="10.3622173"><ele>161.0</ele><time>2026-03-29T11:35:27.462Z</time></trkpt><trkpt lat="45.5232993" lon="10.3624177"><ele>160.33333333333331</ele><time>2026-03-29T11:35:28.444Z</time></trkpt><trkpt lat="45.5234211" lon="10.3626302"><ele>159.66666666666666</ele><time>2026-03-29T11:35:29.47Z</time></trkpt><trkpt lat="45.5235404" lon="10.3628411"><ele>159.0</ele><time>2026-03-29T11:35:30.458Z</time></trkpt><trkpt lat="45.5236565" lon="10.3630494"><ele>159.0</ele><time>2026-03-29T11:35:31.458Z</time></trkpt><trkpt lat="45.5237635" lon="10.363253"><ele>159.0</ele><time>2026-03-29T11:35:32.46Z</time></trkpt><trkpt lat="45.5238621" lon="10.3634359"><ele>159.0</ele><time>2026-03-29T11:35:33.452Z</time></trkpt><trkpt lat="45.5239522" lon="10.3635987"><ele>159.0</ele><time>2026-03-29T11:35:34.483Z</time></trkpt><trkpt lat="45.5240221" lon="10.3637297"><ele>159.0</ele><time>2026-03-29T11:35:35.458Z</time></trkpt><trkpt lat="45.5240781" lon="10.363838"><ele>159.0</ele><time>2026-03-29T11:35:36.46Z</time></trkpt><trkpt lat="45.5241194" lon="10.3639207"><ele>159.0</ele><time>2026-03-29T11:35:37.464Z</time></trkpt><trkpt lat="45.5241844" lon="10.3640439"><ele>159.0</ele><time>2026-03-29T11:35:39.465Z</time></trkpt><trkpt lat="45.5242448" lon="10.364158"><ele>159.0</ele><time>2026-03-29T11:35:41.467Z</time></trkpt><trkpt lat="45.5242903" lon="10.3642385"><ele>159.0</ele><time>2026-03-29T11:35:43.474Z</time></trkpt><trkpt lat="45.5243505" lon="10.3642715"><ele>159.0</ele><time>2026-03-29T11:35:47.455Z</time></trkpt><trkpt lat="45.5242956" lon="10.3641419"><ele>159.0</ele><time>2026-03-29T11:35:51.482Z</time></trkpt><trkpt lat="45.5242158" lon="10.3639802"><ele>159.0</ele><time>2026-03-29T11:35:53.461Z</time></trkpt><trkpt lat="45.5241802" lon="10.3638803"><ele>159.0</ele><time>2026-03-29T11:35:54.46Z</time></trkpt><trkpt lat="45.5241612" lon="10.3637743"><ele>159.0</ele><time>2026-03-29T11:35:55.458Z</time></trkpt><trkpt lat="45.524146" lon="10.363678"><ele>159.0</ele><time>2026-03-29T11:35:56.466Z</time></trkpt><trkpt lat="45.5241117" lon="10.3635171"><ele>159.0</ele><time>2026-03-29T11:35:58.448Z</time></trkpt><trkpt lat="45.5240871" lon="10.3634275"><ele>159.0</ele><time>2026-03-29T11:35:59.484Z</time></trkpt><trkpt lat="45.524027" lon="10.3632778"><ele>159.0</ele><time>2026-03-29T11:36:01.454Z</time></trkpt><trkpt lat="45.5239708" lon="10.3631812"><ele>159.0</ele><time>2026-03-29T11:36:03.453Z</time></trkpt><trkpt lat="45.5239152" lon="10.3631156"><ele>159.0</ele><time>2026-03-29T11:36:05.467Z</time></trkpt><trkpt lat="45.5238596" lon="10.3630504"><ele>159.0</ele><time>2026-03-29T11:36:08.459Z</time></trkpt></trkseg><trkseg><trkpt lat="45.5238104" lon="10.3631541"><ele>159.0</ele><time>2026-03-29T12:33:11.526Z</time></trkpt><trkpt lat="45.5238426" lon="10.3634728"><ele>159.0</ele><time>2026-03-29T12:33:18.536Z</time></trkpt><trkpt lat="45.5239274" lon="10.3636356"><ele>159.0</ele><time>2026-03-29T12:33:19.518Z</time></trkpt><trkpt lat="45.5240159" lon="10.3637873"><ele>159.0</ele><time>2026-03-29T12:33:20.515Z</time></trkpt><trkpt lat="45.5241031" lon="10.3639299"><ele>159.0</ele><time>2026-03-29T12:33:21.517Z</time></trkpt><trkpt lat="45.5241937" lon="10.3640773"><ele>159.0</ele><time>2026-03-29T12:33:22.534Z</time></trkpt><trkpt lat="45.5242794" lon="10.3642239"><ele>159.0</ele><time>2026-03-29T12:33:23.526Z</time></trkpt><trkpt lat="45.5243695" lon="10.3643805"><ele>159.0</ele><time>2026-03-29T12:33:24.528Z</time></trkpt><trkpt lat="45.5244583" lon="10.3645344"><ele>159.0</ele><time>2026-03-29T12:33:25.51Z</time></trkpt><trkpt lat="45.5245507" lon="10.3646977"><ele>159.0</ele><time>2026-03-29T12:33:26.511Z</time></trkpt><trkpt lat="45.5246427" lon="10.364867"><ele>159.0</ele><time>2026-03-29T12:33:27.525Z</time></trkpt><trkpt lat="45.5247361" lon="10.3650363"><ele>159.33333333333334</ele><time>2026-03-29T12:33:28.524Z</time></trkpt><trkpt lat="45.5248315" lon="10.3652088"><ele>159.66666666666669</ele><time>2026-03-29T12:33:29.527Z</time></trkpt><trkpt lat="45.5249256" lon="10.3653812"><ele>160.0</ele><time>2026-03-29T12:33:30.526Z</time></trkpt><trkpt lat="45.5250279" lon="10.3655581"><ele>160.0</ele><time>2026-03-29T12:33:31.542Z</time></trkpt><trkpt lat="45.525126" lon="10.3657328"><ele>160.0</ele><time>2026-03-29T12:33:32.511Z</time></trkpt><trkpt lat="45.5252201" lon="10.3659066"><ele>160.0</ele><time>2026-03-29T12:33:33.514Z</time></trkpt><trkpt lat="45.5253199" lon="10.3660914"><ele>160.33333333333334</ele><time>2026-03-29T12:33:34.528Z</time></trkpt><trkpt lat="45.5254137" lon="10.3662677"><ele>160.66666666666666</ele><time>2026-03-29T12:33:35.524Z</time></trkpt><trkpt lat="45.5255088" lon="10.366451"><ele>161.0</ele><time>2026-03-29T12:33:36.537Z</time></trkpt><trkpt lat="45.5256006" lon="10.366626"><ele>161.0</ele><time>2026-03-29T12:33:37.514Z</time></trkpt><trkpt lat="45.5256998" lon="10.3668017"><ele>161.0</ele><time>2026-03-29T12:33:38.532Z</time></trkpt><trkpt lat="45.5257954" lon="10.366969"><ele>161.0</ele><time>2026-03-29T12:33:39.511Z</time></trkpt><trkpt lat="45.5258906" lon="10.3671468"><ele>161.0</ele><time>2026-03-29T12:33:40.513Z</time></trkpt><trkpt lat="45.5259895" lon="10.3673226"><ele>161.0</ele><time>2026-03-29T12:33:41.538Z</time></trkpt><trkpt lat="45.5260849" lon="10.3674973"><ele>161.0</ele><time>2026-03-29T12:33:42.521Z</time></trkpt><trkpt lat="45.5261751" lon="10.367653"><ele>161.4</ele><time>2026-03-29T12:33:43.529Z</time></trkpt><trkpt lat="45.5262549" lon="10.3677859"><ele>161.8</ele><time>2026-03-29T12:33:44.513Z</time></trkpt><trkpt lat="45.5263323" lon="10.3679109"><ele>162.20000000000002</ele><time>2026-03-29T12:33:45.522Z</time></trkpt><trkpt lat="45.5263998" lon="10.3680112"><ele>162.60000000000002</ele><time>2026-03-29T12:33:46.53Z</time></trkpt><trkpt lat="45.526465" lon="10.3681042"><ele>163.0</ele><time>2026-03-29T12:33:47.522Z</time></trkpt><trkpt lat="45.5265208" lon="10.3681873"><ele>163.0</ele><time>2026-03-29T12:33:48.519Z</time></trkpt><trkpt lat="45.5265678" lon="10.3682644"><ele>163.0</ele><time>2026-03-29T12:33:49.536Z</time></trkpt><trkpt lat="45.5266166" lon="10.3683995"><ele>163.0</ele><time>2026-03-29T12:33:51.513Z</time></trkpt><trkpt lat="45.526634" lon="10.3685545"><ele>163.0</ele><time>2026-03-29T12:33:53.515Z</time></trkpt><trkpt lat="45.5266411" lon="10.3686453"><ele>163.0</ele><time>2026-03-29T12:33:54.517Z</time></trkpt><trkpt lat="45.5266582" lon="10.3687356"><ele>163.0</ele><time>2026-03-29T12:33:55.516Z</time></trkpt><trkpt lat="45.5266945" lon="10.3688091"><ele>163.0</ele><time>2026-03-29T12:33:56.523Z</time></trkpt><trkpt lat="45.5268149" lon="10.3688719"><ele>163.0</ele><time>2026-03-29T12:33:58.532Z</time></trkpt><trkpt lat="45.5268838" lon="10.3688509"><ele>163.0</ele><time>2026-03-29T12:33:59.517Z</time></trkpt><trkpt lat="45.5269577" lon="10.3688153"><ele>163.0</ele><time>2026-03-29T12:34:00.524Z</time></trkpt><trkpt lat="45.5270325" lon="10.3687948"><ele>163.0</ele><time>2026-03-29T12:34:01.523Z</time></trkpt><trkpt lat="45.5271122" lon="10.3688137"><ele>163.0</ele><time>2026-03-29T12:34:02.519Z</time></trkpt><trkpt lat="45.5271947" lon="10.3688625"><ele>162.8</ele><time>2026-03-29T12:34:03.537Z</time></trkpt><trkpt lat="45.5272797" lon="10.3689322"><ele>162.60000000000002</ele><time>2026-03-29T12:34:04.535Z</time></trkpt><trkpt lat="45.527369" lon="10.3690123"><ele>162.39999999999998</ele><time>2026-03-29T12:34:05.527Z</time></trkpt><trkpt lat="45.5274651" lon="10.3691016"><ele>162.2</ele><time>2026-03-29T12:34:06.532Z</time></trkpt><trkpt lat="45.5275611" lon="10.3691982"><ele>162.0</ele><time>2026-03-29T12:34:07.511Z</time></trkpt><trkpt lat="45.5276644" lon="10.3693141"><ele>162.0</ele><time>2026-03-29T12:34:08.527Z</time></trkpt><trkpt lat="45.5277601" lon="10.3694311"><ele>162.0</ele><time>2026-03-29T12:34:09.517Z</time></trkpt><trkpt lat="45.5278527" lon="10.3695558"><ele>162.0</ele><time>2026-03-29T12:34:10.519Z</time></trkpt><trkpt lat="45.5279391" lon="10.369686"><ele>162.0</ele><time>2026-03-29T12:34:11.526Z</time></trkpt><trkpt lat="45.5280206" lon="10.3698163"><ele>162.2</ele><time>2026-03-29T12:34:12.519Z</time></trkpt><trkpt lat="45.5280958" lon="10.369946"><ele>162.39999999999998</ele><time>2026-03-29T12:34:13.521Z</time></trkpt><trkpt lat="45.5281643" lon="10.3700545"><ele>162.60000000000002</ele><time>2026-03-29T12:34:14.517Z</time></trkpt><trkpt lat="45.528228" lon="10.3701509"><ele>162.8</ele><time>2026-03-29T12:34:15.524Z</time></trkpt><trkpt lat="45.5282884" lon="10.3702331"><ele>163.0</ele><time>2026-03-29T12:34:16.542Z</time></trkpt><trkpt lat="45.5283455" lon="10.3703174"><ele>163.0</ele><time>2026-03-29T12:34:17.522Z</time></trkpt><trkpt lat="45.5283976" lon="10.370414"><ele>163.0</ele><time>2026-03-29T12:34:18.53Z</time></trkpt><trkpt lat="45.528441" lon="10.3705188"><ele>163.0</ele><time>2026-03-29T12:34:19.519Z</time></trkpt><trkpt lat="45.5284982" lon="10.370632"><ele>163.0</ele><time>2026-03-29T12:34:20.528Z</time></trkpt><trkpt lat="45.5285579" lon="10.3707563"><ele>163.0</ele><time>2026-03-29T12:34:21.545Z</time></trkpt><trkpt lat="45.5286153" lon="10.3708809"><ele>162.8</ele><time>2026-03-29T12:34:22.521Z</time></trkpt><trkpt lat="45.5286785" lon="10.3710114"><ele>162.60000000000002</ele><time>2026-03-29T12:34:23.532Z</time></trkpt><trkpt lat="45.5287436" lon="10.3711383"><ele>162.39999999999998</ele><time>2026-03-29T12:34:24.542Z</time></trkpt><trkpt lat="45.5288096" lon="10.3712664"><ele>162.2</ele><time>2026-03-29T12:34:25.551Z</time></trkpt><trkpt lat="45.528877" lon="10.3713893"><ele>162.0</ele><time>2026-03-29T12:34:26.526Z</time></trkpt><trkpt lat="45.5289462" lon="10.3715148"><ele>162.0</ele><time>2026-03-29T12:34:27.511Z</time></trkpt><trkpt lat="45.5290205" lon="10.3716488"><ele>162.0</ele><time>2026-03-29T12:34:28.546Z</time></trkpt><trkpt lat="45.5290925" lon="10.3717746"><ele>162.0</ele><time>2026-03-29T12:34:29.514Z</time></trkpt><trkpt lat="45.5291705" lon="10.3719115"><ele>162.0</ele><time>2026-03-29T12:34:30.545Z</time></trkpt><trkpt lat="45.5292478" lon="10.3720475"><ele>162.0</ele><time>2026-03-29T12:34:31.533Z</time></trkpt><trkpt lat="45.5293248" lon="10.3721798"><ele>162.0</ele><time>2026-03-29T12:34:32.538Z</time></trkpt><trkpt lat="45.5293952" lon="10.3723092"><ele>162.0</ele><time>2026-03-29T12:34:33.515Z</time></trkpt><trkpt lat="45.5294672" lon="10.372452"><ele>162.0</ele><time>2026-03-29T12:34:34.522Z</time></trkpt><trkpt lat="45.5295339" lon="10.3725906"><ele>162.6</ele><time>2026-03-29T12:34:35.534Z</time></trkpt><trkpt lat="45.5295965" lon="10.3727161"><ele>163.2</ele><time>2026-03-29T12:34:36.527Z</time></trkpt><trkpt lat="45.5296572" lon="10.3728347"><ele>163.8</ele><time>2026-03-29T12:34:37.525Z</time></trkpt><trkpt lat="45.5297181" lon="10.3729473"><ele>164.4</ele><time>2026-03-29T12:34:38.538Z</time></trkpt><trkpt lat="45.5297708" lon="10.3730461"><ele>165.0</ele><time>2026-03-29T12:34:39.525Z</time></trkpt><trkpt lat="45.5298136" lon="10.3731229"><ele>165.0</ele><time>2026-03-29T12:34:40.515Z</time></trkpt><trkpt lat="45.5298789" lon="10.3732283"><ele>165.0</ele><time>2026-03-29T12:34:42.521Z</time></trkpt><trkpt lat="45.5299303" lon="10.3732984"><ele>165.0</ele><time>2026-03-29T12:34:44.554Z</time></trkpt><trkpt lat="45.5299728" lon="10.3733669"><ele>165.0</ele><time>2026-03-29T12:34:46.52Z</time></trkpt><trkpt lat="45.5300404" lon="10.3734518"><ele>165.0</ele><time>2026-03-29T12:34:56.523Z</time></trkpt><trkpt lat="45.5301212" lon="10.3736077"><ele>165.0</ele><time>2026-03-29T12:34:58.546Z</time></trkpt><trkpt lat="45.5301797" lon="10.3737127"><ele>165.0</ele><time>2026-03-29T12:34:59.514Z</time></trkpt><trkpt lat="45.5302538" lon="10.3738512"><ele>165.0</ele><time>2026-03-29T12:35:00.547Z</time></trkpt><trkpt lat="45.5303332" lon="10.3739904"><ele>165.0</ele><time>2026-03-29T12:35:01.525Z</time></trkpt><trkpt lat="45.5304233" lon="10.3741396"><ele>165.25</ele><time>2026-03-29T12:35:02.526Z</time></trkpt><trkpt lat="45.5305191" lon="10.3742922"><ele>165.5</ele><time>2026-03-29T12:35:03.542Z</time></trkpt><trkpt lat="45.5306161" lon="10.3744493"><ele>165.75</ele><time>2026-03-29T12:35:04.526Z</time></trkpt><trkpt lat="45.5307261" lon="10.3746099"><ele>166.0</ele><time>2026-03-29T12:35:05.54Z</time></trkpt><trkpt lat="45.5308456" lon="10.374758"><ele>166.0</ele><time>2026-03-29T12:35:06.524Z</time></trkpt><trkpt lat="45.5309786" lon="10.3749069"><ele>166.0</ele><time>2026-03-29T12:35:07.523Z</time></trkpt><trkpt lat="45.5311187" lon="10.3750535"><ele>166.0</ele><time>2026-03-29T12:35:08.533Z</time></trkpt><trkpt lat="45.531257" lon="10.3751987"><ele>165.66666666666669</ele><time>2026-03-29T12:35:09.525Z</time></trkpt><trkpt lat="45.5313975" lon="10.3753398"><ele>165.33333333333334</ele><time>2026-03-29T12:35:10.516Z</time></trkpt><trkpt lat="45.5315509" lon="10.3754791"><ele>165.0</ele><time>2026-03-29T12:35:11.531Z</time></trkpt><trkpt lat="45.5317053" lon="10.375615"><ele>165.0</ele><time>2026-03-29T12:35:12.529Z</time></trkpt><trkpt lat="45.5318634" lon="10.375754"><ele>165.0</ele><time>2026-03-29T12:35:13.527Z</time></trkpt><trkpt lat="45.5320269" lon="10.3758955"><ele>165.0</ele><time>2026-03-29T12:35:14.531Z</time></trkpt><trkpt lat="45.5321916" lon="10.3760347"><ele>165.0</ele><time>2026-03-29T12:35:15.524Z</time></trkpt><trkpt lat="45.5323587" lon="10.3761789"><ele>165.0</ele><time>2026-03-29T12:35:16.526Z</time></trkpt><trkpt lat="45.5325214" lon="10.3763285"><ele>165.0</ele><time>2026-03-29T12:35:17.513Z</time></trkpt><trkpt lat="45.532685" lon="10.3764868"><ele>165.33333333333334</ele><time>2026-03-29T12:35:18.518Z</time></trkpt><trkpt lat="45.5328484" lon="10.3766456"><ele>165.66666666666669</ele><time>2026-03-29T12:35:19.517Z</time></trkpt><trkpt lat="45.5330105" lon="10.3768111"><ele>166.0</ele><time>2026-03-29T12:35:20.525Z</time></trkpt><trkpt lat="45.5331678" lon="10.3769784"><ele>166.0</ele><time>2026-03-29T12:35:21.518Z</time></trkpt><trkpt lat="45.533328" lon="10.3771508"><ele>166.0</ele><time>2026-03-29T12:35:22.523Z</time></trkpt><trkpt lat="45.53349" lon="10.377321"><ele>166.0</ele><time>2026-03-29T12:35:23.532Z</time></trkpt><trkpt lat="45.5336482" lon="10.3774909"><ele>166.0</ele><time>2026-03-29T12:35:24.515Z</time></trkpt><trkpt lat="45.5338115" lon="10.3776678"><ele>166.0</ele><time>2026-03-29T12:35:25.527Z</time></trkpt><trkpt lat="45.5339718" lon="10.3778519"><ele>166.0</ele><time>2026-03-29T12:35:26.534Z</time></trkpt><trkpt lat="45.534127" lon="10.3780469"><ele>166.66666666666669</ele><time>2026-03-29T12:35:27.533Z</time></trkpt><trkpt lat="45.5342792" lon="10.3782482"><ele>167.33333333333334</ele><time>2026-03-29T12:35:28.527Z</time></trkpt><trkpt lat="45.5344317" lon="10.3784483"><ele>168.0</ele><time>2026-03-29T12:35:29.512Z</time></trkpt><trkpt lat="45.5345869" lon="10.3786518"><ele>168.33333333333334</ele><time>2026-03-29T12:35:30.526Z</time></trkpt><trkpt lat="45.534744" lon="10.3788474"><ele>168.66666666666669</ele><time>2026-03-29T12:35:31.525Z</time></trkpt><trkpt lat="45.534906" lon="10.3790351"><ele>169.0</ele><time>2026-03-29T12:35:32.526Z</time></trkpt><trkpt lat="45.5350735" lon="10.3792175"><ele>169.66666666666669</ele><time>2026-03-29T12:35:33.526Z</time></trkpt><trkpt lat="45.5352458" lon="10.3793875"><ele>170.33333333333334</ele><time>2026-03-29T12:35:34.531Z</time></trkpt><trkpt lat="45.5354193" lon="10.3795537"><ele>171.0</ele><time>2026-03-29T12:35:35.533Z</time></trkpt><trkpt lat="45.5355927" lon="10.3797184"><ele>171.33333333333334</ele><time>2026-03-29T12:35:36.529Z</time></trkpt><trkpt lat="45.5357649" lon="10.3798854"><ele>171.66666666666669</ele><time>2026-03-29T12:35:37.524Z</time></trkpt><trkpt lat="45.5359392" lon="10.3800509"><ele>172.0</ele><time>2026-03-29T12:35:38.523Z</time></trkpt><trkpt lat="45.5361122" lon="10.3802186"><ele>171.0</ele><time>2026-03-29T12:35:39.517Z</time></trkpt><trkpt lat="45.5362861" lon="10.3803853"><ele>170.0</ele><time>2026-03-29T12:35:40.526Z</time></trkpt><trkpt lat="45.5364601" lon="10.380551"><ele>169.0</ele><time>2026-03-29T12:35:41.528Z</time></trkpt><trkpt lat="45.5366313" lon="10.3807161"><ele>169.0</ele><time>2026-03-29T12:35:42.529Z</time></trkpt><trkpt lat="45.5368056" lon="10.3808786"><ele>169.0</ele><time>2026-03-29T12:35:43.522Z</time></trkpt><trkpt lat="45.5369792" lon="10.3810454"><ele>169.0</ele><time>2026-03-29T12:35:44.519Z</time></trkpt><trkpt lat="45.5371568" lon="10.38121"><ele>169.0</ele><time>2026-03-29T12:35:45.526Z</time></trkpt><trkpt lat="45.5373329" lon="10.3813756"><ele>169.0</ele><time>2026-03-29T12:35:46.533Z</time></trkpt><trkpt lat="45.537506" lon="10.3815426"><ele>169.0</ele><time>2026-03-29T12:35:47.534Z</time></trkpt><trkpt lat="45.5376757" lon="10.3817108"><ele>169.0</ele><time>2026-03-29T12:35:48.525Z</time></trkpt><trkpt lat="45.5378428" lon="10.3818796"><ele>169.0</ele><time>2026-03-29T12:35:49.518Z</time></trkpt><trkpt lat="45.5380113" lon="10.3820532"><ele>169.0</ele><time>2026-03-29T12:35:50.528Z</time></trkpt><trkpt lat="45.5381768" lon="10.3822279"><ele>169.66666666666669</ele><time>2026-03-29T12:35:51.528Z</time></trkpt><trkpt lat="45.5383401" lon="10.3824049"><ele>170.33333333333334</ele><time>2026-03-29T12:35:52.532Z</time></trkpt><trkpt lat="45.5385011" lon="10.3825781"><ele>171.0</ele><time>2026-03-29T12:35:53.516Z</time></trkpt><trkpt lat="45.538661" lon="10.3827526"><ele>171.0</ele><time>2026-03-29T12:35:54.52Z</time></trkpt><trkpt lat="45.53882" lon="10.382927"><ele>171.0</ele><time>2026-03-29T12:35:55.521Z</time></trkpt><trkpt lat="45.5389808" lon="10.3831046"><ele>171.0</ele><time>2026-03-29T12:35:56.537Z</time></trkpt><trkpt lat="45.5391392" lon="10.3832769"><ele>171.0</ele><time>2026-03-29T12:35:57.532Z</time></trkpt><trkpt lat="45.5392959" lon="10.3834456"><ele>171.0</ele><time>2026-03-29T12:35:58.522Z</time></trkpt><trkpt lat="45.5394457" lon="10.3836197"><ele>171.0</ele><time>2026-03-29T12:35:59.518Z</time></trkpt><trkpt lat="45.539599" lon="10.3837943"><ele>171.0</ele><time>2026-03-29T12:36:00.528Z</time></trkpt><trkpt lat="45.539747" lon="10.3839649"><ele>171.0</ele><time>2026-03-29T12:36:01.542Z</time></trkpt><trkpt lat="45.5398818" lon="10.3841238"><ele>171.0</ele><time>2026-03-29T12:36:02.519Z</time></trkpt><trkpt lat="45.5400214" lon="10.3842841"><ele>171.0</ele><time>2026-03-29T12:36:03.547Z</time></trkpt><trkpt lat="45.5401546" lon="10.3844341"><ele>171.0</ele><time>2026-03-29T12:36:04.533Z</time></trkpt><trkpt lat="45.5402904" lon="10.3845869"><ele>171.0</ele><time>2026-03-29T12:36:05.542Z</time></trkpt><trkpt lat="45.5404204" lon="10.3847373"><ele>171.66666666666666</ele><time>2026-03-29T12:36:06.521Z</time></trkpt><trkpt lat="45.5405575" lon="10.3848996"><ele>172.33333333333331</ele><time>2026-03-29T12:36:07.543Z</time></trkpt><trkpt lat="45.5406929" lon="10.3850587"><ele>173.0</ele><time>2026-03-29T12:36:08.526Z</time></trkpt><trkpt lat="45.5408298" lon="10.3852219"><ele>173.0</ele><time>2026-03-29T12:36:09.521Z</time></trkpt><trkpt lat="45.5409729" lon="10.3853937"><ele>173.0</ele><time>2026-03-29T12:36:10.546Z</time></trkpt><trkpt lat="45.5411127" lon="10.3855532"><ele>173.0</ele><time>2026-03-29T12:36:11.51Z</time></trkpt><trkpt lat="45.5412602" lon="10.3857225"><ele>173.33333333333331</ele><time>2026-03-29T12:36:12.525Z</time></trkpt><trkpt lat="45.5414066" lon="10.3858917"><ele>173.66666666666666</ele><time>2026-03-29T12:36:13.526Z</time></trkpt><trkpt lat="45.5415524" lon="10.3860642"><ele>174.0</ele><time>2026-03-29T12:36:14.533Z</time></trkpt><trkpt lat="45.5416981" lon="10.386236"><ele>174.0</ele><time>2026-03-29T12:36:15.54Z</time></trkpt><trkpt lat="45.5418386" lon="10.3864034"><ele>174.0</ele><time>2026-03-29T12:36:16.533Z</time></trkpt><trkpt lat="45.5419679" lon="10.386558"><ele>174.0</ele><time>2026-03-29T12:36:17.528Z</time></trkpt><trkpt lat="45.5420834" lon="10.3866984"><ele>174.0</ele><time>2026-03-29T12:36:18.529Z</time></trkpt><trkpt lat="45.5421819" lon="10.3868216"><ele>174.0</ele><time>2026-03-29T12:36:19.527Z</time></trkpt><trkpt lat="45.5422669" lon="10.3869269"><ele>174.0</ele><time>2026-03-29T12:36:20.522Z</time></trkpt><trkpt lat="45.5423451" lon="10.3870266"><ele>174.0</ele><time>2026-03-29T12:36:21.542Z</time></trkpt><trkpt lat="45.5424106" lon="10.3871107"><ele>174.0</ele><time>2026-03-29T12:36:22.523Z</time></trkpt><trkpt lat="45.5424713" lon="10.3871892"><ele>174.0</ele><time>2026-03-29T12:36:23.549Z</time></trkpt><trkpt lat="45.5425188" lon="10.3872516"><ele>174.0</ele><time>2026-03-29T12:36:24.522Z</time></trkpt><trkpt lat="45.5426031" lon="10.3873466"><ele>174.0</ele><time>2026-03-29T12:36:26.531Z</time></trkpt><trkpt lat="45.5426545" lon="10.3874064"><ele>174.0</ele><time>2026-03-29T12:36:28.528Z</time></trkpt><trkpt lat="45.5427411" lon="10.3874851"><ele>174.0</ele><time>2026-03-29T12:36:45.538Z</time></trkpt><trkpt lat="45.5428063" lon="10.3875669"><ele>174.0</ele><time>2026-03-29T12:36:46.541Z</time></trkpt><trkpt lat="45.5428862" lon="10.3876607"><ele>174.25</ele><time>2026-03-29T12:36:47.524Z</time></trkpt><trkpt lat="45.5429745" lon="10.387765"><ele>174.5</ele><time>2026-03-29T12:36:48.529Z</time></trkpt><trkpt lat="45.5430633" lon="10.3878711"><ele>174.75</ele><time>2026-03-29T12:36:49.518Z</time></trkpt><trkpt lat="45.5431585" lon="10.3879879"><ele>175.0</ele><time>2026-03-29T12:36:50.53Z</time></trkpt><trkpt lat="45.543259" lon="10.3881123"><ele>174.5</ele><time>2026-03-29T12:36:51.522Z</time></trkpt><trkpt lat="45.5433647" lon="10.3882491"><ele>174.0</ele><time>2026-03-29T12:36:52.533Z</time></trkpt><trkpt lat="45.5434727" lon="10.3883875"><ele>173.5</ele><time>2026-03-29T12:36:53.521Z</time></trkpt><trkpt lat="45.543589" lon="10.3885386"><ele>173.0</ele><time>2026-03-29T12:36:54.545Z</time></trkpt><trkpt lat="45.5437082" lon="10.3886903"><ele>174.0</ele><time>2026-03-29T12:36:55.536Z</time></trkpt><trkpt lat="45.5438338" lon="10.3888467"><ele>175.0</ele><time>2026-03-29T12:36:56.532Z</time></trkpt><trkpt lat="45.543963" lon="10.3890072"><ele>176.0</ele><time>2026-03-29T12:36:57.533Z</time></trkpt><trkpt lat="45.5440957" lon="10.3891736"><ele>176.0</ele><time>2026-03-29T12:36:58.528Z</time></trkpt><trkpt lat="45.5442297" lon="10.3893397"><ele>176.0</ele><time>2026-03-29T12:36:59.529Z</time></trkpt><trkpt lat="45.5443689" lon="10.3895115"><ele>176.0</ele><time>2026-03-29T12:37:00.541Z</time></trkpt><trkpt lat="45.5445092" lon="10.389683"><ele>176.0</ele><time>2026-03-29T12:37:01.528Z</time></trkpt><trkpt lat="45.5446544" lon="10.3898578"><ele>176.0</ele><time>2026-03-29T12:37:02.524Z</time></trkpt><trkpt lat="45.5448031" lon="10.3900408"><ele>176.0</ele><time>2026-03-29T12:37:03.529Z</time></trkpt><trkpt lat="45.544953" lon="10.3902252"><ele>176.0</ele><time>2026-03-29T12:37:04.53Z</time></trkpt><trkpt lat="45.5451041" lon="10.3904049"><ele>176.0</ele><time>2026-03-29T12:37:05.523Z</time></trkpt><trkpt lat="45.5452583" lon="10.3905943"><ele>176.0</ele><time>2026-03-29T12:37:06.523Z</time></trkpt><trkpt lat="45.5454118" lon="10.3907844"><ele>176.0</ele><time>2026-03-29T12:37:07.519Z</time></trkpt><trkpt lat="45.5455649" lon="10.3909764"><ele>176.0</ele><time>2026-03-29T12:37:08.514Z</time></trkpt><trkpt lat="45.5457226" lon="10.3911727"><ele>176.0</ele><time>2026-03-29T12:37:09.528Z</time></trkpt><trkpt lat="45.5458773" lon="10.3913654"><ele>176.0</ele><time>2026-03-29T12:37:10.518Z</time></trkpt><trkpt lat="45.5460338" lon="10.3915555"><ele>176.0</ele><time>2026-03-29T12:37:11.524Z</time></trkpt><trkpt lat="45.5461912" lon="10.391747"><ele>176.0</ele><time>2026-03-29T12:37:12.535Z</time></trkpt><trkpt lat="45.5463441" lon="10.3919372"><ele>176.33333333333331</ele><time>2026-03-29T12:37:13.527Z</time></trkpt><trkpt lat="45.5464978" lon="10.3921299"><ele>176.66666666666666</ele><time>2026-03-29T12:37:14.527Z</time></trkpt><trkpt lat="45.5466468" lon="10.392329"><ele>177.0</ele><time>2026-03-29T12:37:15.525Z</time></trkpt><trkpt lat="45.546786" lon="10.392532"><ele>177.0</ele><time>2026-03-29T12:37:16.53Z</time></trkpt><trkpt lat="45.5469073" lon="10.3927282"><ele>177.0</ele><time>2026-03-29T12:37:17.513Z</time></trkpt><trkpt lat="45.5470251" lon="10.3929195"><ele>177.0</ele><time>2026-03-29T12:37:18.521Z</time></trkpt><trkpt lat="45.54714" lon="10.3931025"><ele>177.5</ele><time>2026-03-29T12:37:19.552Z</time></trkpt><trkpt lat="45.5472417" lon="10.3932648"><ele>178.0</ele><time>2026-03-29T12:37:20.527Z</time></trkpt><trkpt lat="45.5473402" lon="10.3934271"><ele>178.5</ele><time>2026-03-29T12:37:21.542Z</time></trkpt><trkpt lat="45.5474332" lon="10.3935753"><ele>179.0</ele><time>2026-03-29T12:37:22.528Z</time></trkpt><trkpt lat="45.5475215" lon="10.393718"><ele>178.79999999999998</ele><time>2026-03-29T12:37:23.532Z</time></trkpt><trkpt lat="45.5476049" lon="10.3938477"><ele>178.6</ele><time>2026-03-29T12:37:24.531Z</time></trkpt><trkpt lat="45.5476779" lon="10.3939663"><ele>178.4</ele><time>2026-03-29T12:37:25.521Z</time></trkpt><trkpt lat="45.54773" lon="10.3940693"><ele>178.2</ele><time>2026-03-29T12:37:26.524Z</time></trkpt><trkpt lat="45.5477561" lon="10.3941656"><ele>178.0</ele><time>2026-03-29T12:37:27.521Z</time></trkpt><trkpt lat="45.5477575" lon="10.3942625"><ele>178.0</ele><time>2026-03-29T12:37:28.543Z</time></trkpt><trkpt lat="45.547758" lon="10.3943613"><ele>178.0</ele><time>2026-03-29T12:37:29.522Z</time></trkpt><trkpt lat="45.5478157" lon="10.3945133"><ele>178.0</ele><time>2026-03-29T12:37:31.527Z</time></trkpt><trkpt lat="45.5478829" lon="10.3945701"><ele>178.0</ele><time>2026-03-29T12:37:32.518Z</time></trkpt><trkpt lat="45.5479655" lon="10.3946232"><ele>178.0</ele><time>2026-03-29T12:37:33.523Z</time></trkpt><trkpt lat="45.5480483" lon="10.3946908"><ele>178.5</ele><time>2026-03-29T12:37:34.521Z</time></trkpt><trkpt lat="45.5481262" lon="10.3947905"><ele>179.0</ele><time>2026-03-29T12:37:35.528Z</time></trkpt><trkpt lat="45.5482002" lon="10.3949199"><ele>179.5</ele><time>2026-03-29T12:37:36.531Z</time></trkpt><trkpt lat="45.5482759" lon="10.3950667"><ele>180.0</ele><time>2026-03-29T12:37:37.537Z</time></trkpt><trkpt lat="45.5483553" lon="10.3952226"><ele>180.0</ele><time>2026-03-29T12:37:38.522Z</time></trkpt><trkpt lat="45.5484373" lon="10.3953852"><ele>180.0</ele><time>2026-03-29T12:37:39.53Z</time></trkpt><trkpt lat="45.5485248" lon="10.3955751"><ele>180.0</ele><time>2026-03-29T12:37:40.619Z</time></trkpt><trkpt lat="45.5485982" lon="10.3957394"><ele>180.0</ele><time>2026-03-29T12:37:41.531Z</time></trkpt><trkpt lat="45.5486843" lon="10.3959319"><ele>180.0</ele><time>2026-03-29T12:37:42.545Z</time></trkpt><trkpt lat="45.5487684" lon="10.3961193"><ele>180.0</ele><time>2026-03-29T12:37:43.513Z</time></trkpt><trkpt lat="45.5488581" lon="10.3963205"><ele>180.0</ele><time>2026-03-29T12:37:44.519Z</time></trkpt><trkpt lat="45.5489524" lon="10.3965324"><ele>180.0</ele><time>2026-03-29T12:37:45.553Z</time></trkpt><trkpt lat="45.5490431" lon="10.3967334"><ele>180.0</ele><time>2026-03-29T12:37:46.526Z</time></trkpt><trkpt lat="45.5491378" lon="10.3969441"><ele>180.0</ele><time>2026-03-29T12:37:47.525Z</time></trkpt><trkpt lat="45.549235" lon="10.3971554"><ele>180.0</ele><time>2026-03-29T12:37:48.525Z</time></trkpt><trkpt lat="45.5493368" lon="10.3973714"><ele>180.0</ele><time>2026-03-29T12:37:49.537Z</time></trkpt><trkpt lat="45.5494396" lon="10.3975871"><ele>180.0</ele><time>2026-03-29T12:37:50.539Z</time></trkpt><trkpt lat="45.5495443" lon="10.3978077"><ele>180.0</ele><time>2026-03-29T12:37:51.548Z</time></trkpt><trkpt lat="45.5496461" lon="10.3980195"><ele>180.0</ele><time>2026-03-29T12:37:52.526Z</time></trkpt><trkpt lat="45.54975" lon="10.3982398"><ele>180.0</ele><time>2026-03-29T12:37:53.517Z</time></trkpt><trkpt lat="45.5498562" lon="10.3984694"><ele>180.0</ele><time>2026-03-29T12:37:54.528Z</time></trkpt><trkpt lat="45.5499622" lon="10.3986963"><ele>180.0</ele><time>2026-03-29T12:37:55.524Z</time></trkpt><trkpt lat="45.550068" lon="10.398927"><ele>180.0</ele><time>2026-03-29T12:37:56.517Z</time></trkpt><trkpt lat="45.550177" lon="10.399165"><ele>180.0</ele><time>2026-03-29T12:37:57.544Z</time></trkpt><trkpt lat="45.5502827" lon="10.3993914"><ele>180.0</ele><time>2026-03-29T12:37:58.521Z</time></trkpt><trkpt lat="45.5503873" lon="10.399618"><ele>180.0</ele><time>2026-03-29T12:37:59.517Z</time></trkpt><trkpt lat="45.5504879" lon="10.3998334"><ele>180.0</ele><time>2026-03-29T12:38:00.519Z</time></trkpt><trkpt lat="45.5505806" lon="10.4000333"><ele>180.0</ele><time>2026-03-29T12:38:01.519Z</time></trkpt><trkpt lat="45.5506668" lon="10.4002234"><ele>180.0</ele><time>2026-03-29T12:38:02.525Z</time></trkpt><trkpt lat="45.5507467" lon="10.4004001"><ele>180.2</ele><time>2026-03-29T12:38:03.537Z</time></trkpt><trkpt lat="45.5508116" lon="10.4005551"><ele>180.4</ele><time>2026-03-29T12:38:04.523Z</time></trkpt><trkpt lat="45.5508674" lon="10.4006948"><ele>180.60000000000002</ele><time>2026-03-29T12:38:05.53Z</time></trkpt><trkpt lat="45.5509057" lon="10.4008221"><ele>180.8</ele><time>2026-03-29T12:38:06.525Z</time></trkpt><trkpt lat="45.5509239" lon="10.4009353"><ele>181.0</ele><time>2026-03-29T12:38:07.515Z</time></trkpt><trkpt lat="45.5509251" lon="10.401042"><ele>181.0</ele><time>2026-03-29T12:38:08.547Z</time></trkpt><trkpt lat="45.5509178" lon="10.4011418"><ele>181.0</ele><time>2026-03-29T12:38:09.533Z</time></trkpt><trkpt lat="45.550912" lon="10.4012492"><ele>181.0</ele><time>2026-03-29T12:38:10.527Z</time></trkpt><trkpt lat="45.5509254" lon="10.4013594"><ele>181.0</ele><time>2026-03-29T12:38:11.522Z</time></trkpt><trkpt lat="45.5509674" lon="10.4014607"><ele>181.0</ele><time>2026-03-29T12:38:12.544Z</time></trkpt><trkpt lat="45.5510314" lon="10.4015305"><ele>181.0</ele><time>2026-03-29T12:38:13.53Z</time></trkpt><trkpt lat="45.5511155" lon="10.4015675"><ele>180.8</ele><time>2026-03-29T12:38:14.528Z</time></trkpt><trkpt lat="45.5512045" lon="10.4015896"><ele>180.60000000000002</ele><time>2026-03-29T12:38:15.53Z</time></trkpt><trkpt lat="45.5512915" lon="10.4016279"><ele>180.4</ele><time>2026-03-29T12:38:16.516Z</time></trkpt><trkpt lat="45.5513812" lon="10.4017099"><ele>180.2</ele><time>2026-03-29T12:38:17.541Z</time></trkpt><trkpt lat="45.5514566" lon="10.4018251"><ele>180.0</ele><time>2026-03-29T12:38:18.523Z</time></trkpt><trkpt lat="45.5515321" lon="10.401966"><ele>180.75</ele><time>2026-03-29T12:38:19.541Z</time></trkpt><trkpt lat="45.5516076" lon="10.4021208"><ele>181.5</ele><time>2026-03-29T12:38:20.543Z</time></trkpt><trkpt lat="45.5516847" lon="10.4022817"><ele>182.25</ele><time>2026-03-29T12:38:21.545Z</time></trkpt><trkpt lat="45.5517611" lon="10.4024487"><ele>183.0</ele><time>2026-03-29T12:38:22.535Z</time></trkpt><trkpt lat="45.5518494" lon="10.4026255"><ele>184.0</ele><time>2026-03-29T12:38:23.554Z</time></trkpt><trkpt lat="45.5519384" lon="10.4027974"><ele>185.0</ele><time>2026-03-29T12:38:24.523Z</time></trkpt><trkpt lat="45.5520233" lon="10.4029854"><ele>186.0</ele><time>2026-03-29T12:38:25.522Z</time></trkpt><trkpt lat="45.5521125" lon="10.4031806"><ele>186.0</ele><time>2026-03-29T12:38:26.544Z</time></trkpt><trkpt lat="45.552201" lon="10.4033641"><ele>186.0</ele><time>2026-03-29T12:38:27.529Z</time></trkpt><trkpt lat="45.552294" lon="10.4035512"><ele>186.0</ele><time>2026-03-29T12:38:28.54Z</time></trkpt><trkpt lat="45.5523736" lon="10.4037434"><ele>185.33333333333334</ele><time>2026-03-29T12:38:29.538Z</time></trkpt><trkpt lat="45.5524459" lon="10.4039329"><ele>184.66666666666669</ele><time>2026-03-29T12:38:30.521Z</time></trkpt><trkpt lat="45.5525239" lon="10.4041239"><ele>184.0</ele><time>2026-03-29T12:38:31.528Z</time></trkpt><trkpt lat="45.552608" lon="10.4043143"><ele>184.0</ele><time>2026-03-29T12:38:32.526Z</time></trkpt><trkpt lat="45.5526931" lon="10.4045057"><ele>184.0</ele><time>2026-03-29T12:38:33.521Z</time></trkpt><trkpt lat="45.5527804" lon="10.4046973"><ele>184.0</ele><time>2026-03-29T12:38:34.528Z</time></trkpt><trkpt lat="45.5528718" lon="10.4048866"><ele>183.66666666666669</ele><time>2026-03-29T12:38:35.534Z</time></trkpt><trkpt lat="45.5529632" lon="10.4050752"><ele>183.33333333333334</ele><time>2026-03-29T12:38:36.533Z</time></trkpt><trkpt lat="45.5530543" lon="10.4052713"><ele>183.0</ele><time>2026-03-29T12:38:37.532Z</time></trkpt><trkpt lat="45.5531471" lon="10.4054738"><ele>183.66666666666666</ele><time>2026-03-29T12:38:38.539Z</time></trkpt><trkpt lat="45.5532391" lon="10.405675"><ele>184.33333333333331</ele><time>2026-03-29T12:38:39.526Z</time></trkpt><trkpt lat="45.5533356" lon="10.405887"><ele>185.0</ele><time>2026-03-29T12:38:40.536Z</time></trkpt><trkpt lat="45.5534326" lon="10.4060935"><ele>185.0</ele><time>2026-03-29T12:38:41.525Z</time></trkpt><trkpt lat="45.5535265" lon="10.4062893"><ele>185.0</ele><time>2026-03-29T12:38:42.541Z</time></trkpt><trkpt lat="45.5536113" lon="10.4064659"><ele>185.0</ele><time>2026-03-29T12:38:43.549Z</time></trkpt><trkpt lat="45.5536924" lon="10.4066284"><ele>184.66666666666666</ele><time>2026-03-29T12:38:44.535Z</time></trkpt><trkpt lat="45.5537784" lon="10.4067946"><ele>184.33333333333334</ele><time>2026-03-29T12:38:45.53Z</time></trkpt><trkpt lat="45.5538646" lon="10.4069716"><ele>184.0</ele><time>2026-03-29T12:38:46.528Z</time></trkpt><trkpt lat="45.5539485" lon="10.4071622"><ele>184.66666666666669</ele><time>2026-03-29T12:38:47.53Z</time></trkpt><trkpt lat="45.554032" lon="10.4073484"><ele>185.33333333333334</ele><time>2026-03-29T12:38:48.531Z</time></trkpt><trkpt lat="45.554119" lon="10.4075357"><ele>186.0</ele><time>2026-03-29T12:38:49.525Z</time></trkpt><trkpt lat="45.5542114" lon="10.4077292"><ele>186.0</ele><time>2026-03-29T12:38:50.526Z</time></trkpt><trkpt lat="45.5543021" lon="10.4079302"><ele>186.0</ele><time>2026-03-29T12:38:51.524Z</time></trkpt><trkpt lat="45.5543924" lon="10.4081307"><ele>186.0</ele><time>2026-03-29T12:38:52.529Z</time></trkpt><trkpt lat="45.554476" lon="10.4083224"><ele>185.75</ele><time>2026-03-29T12:38:53.531Z</time></trkpt><trkpt lat="45.5545519" lon="10.4085016"><ele>185.5</ele><time>2026-03-29T12:38:54.532Z</time></trkpt><trkpt lat="45.5546227" lon="10.4086572"><ele>185.25</ele><time>2026-03-29T12:38:55.532Z</time></trkpt><trkpt lat="45.5546822" lon="10.4087861"><ele>185.0</ele><time>2026-03-29T12:38:56.535Z</time></trkpt><trkpt lat="45.5547318" lon="10.408886"><ele>185.0</ele><time>2026-03-29T12:38:57.523Z</time></trkpt><trkpt lat="45.5547767" lon="10.4089727"><ele>185.0</ele><time>2026-03-29T12:38:58.521Z</time></trkpt><trkpt lat="45.5548183" lon="10.4090502"><ele>185.0</ele><time>2026-03-29T12:38:59.535Z</time></trkpt><trkpt lat="45.5548819" lon="10.4091953"><ele>185.0</ele><time>2026-03-29T12:39:01.527Z</time></trkpt><trkpt lat="45.5549207" lon="10.4093632"><ele>185.0</ele><time>2026-03-29T12:39:03.525Z</time></trkpt><trkpt lat="45.554943" lon="10.4094617"><ele>185.0</ele><time>2026-03-29T12:39:04.518Z</time></trkpt><trkpt lat="45.5549804" lon="10.4095555"><ele>185.0</ele><time>2026-03-29T12:39:05.527Z</time></trkpt><trkpt lat="45.555041" lon="10.4096378"><ele>185.0</ele><time>2026-03-29T12:39:06.533Z</time></trkpt><trkpt lat="45.5551094" lon="10.4097054"><ele>185.0</ele><time>2026-03-29T12:39:07.524Z</time></trkpt><trkpt lat="45.5551986" lon="10.4098416"><ele>185.0</ele><time>2026-03-29T12:39:09.526Z</time></trkpt><trkpt lat="45.555244" lon="10.4099417"><ele>184.8</ele><time>2026-03-29T12:39:10.54Z</time></trkpt><trkpt lat="45.5552913" lon="10.4100572"><ele>184.6</ele><time>2026-03-29T12:39:11.523Z</time></trkpt><trkpt lat="45.5553437" lon="10.4101876"><ele>184.39999999999998</ele><time>2026-03-29T12:39:12.526Z</time></trkpt><trkpt lat="45.5554053" lon="10.4103251"><ele>184.2</ele><time>2026-03-29T12:39:13.549Z</time></trkpt><trkpt lat="45.5554736" lon="10.4104724"><ele>184.0</ele><time>2026-03-29T12:39:14.521Z</time></trkpt><trkpt lat="45.5555565" lon="10.4106427"><ele>184.66666666666669</ele><time>2026-03-29T12:39:15.538Z</time></trkpt><trkpt lat="45.5556518" lon="10.4108344"><ele>185.33333333333334</ele><time>2026-03-29T12:39:16.528Z</time></trkpt><trkpt lat="45.5557511" lon="10.4110499"><ele>186.0</ele><time>2026-03-29T12:39:17.528Z</time></trkpt><trkpt lat="45.555848" lon="10.4112675"><ele>186.66666666666666</ele><time>2026-03-29T12:39:18.518Z</time></trkpt><trkpt lat="45.5559468" lon="10.4115043"><ele>187.33333333333331</ele><time>2026-03-29T12:39:19.545Z</time></trkpt><trkpt lat="45.5560465" lon="10.4117304"><ele>188.0</ele><time>2026-03-29T12:39:20.524Z</time></trkpt><trkpt lat="45.5561544" lon="10.4119656"><ele>188.0</ele><time>2026-03-29T12:39:21.522Z</time></trkpt><trkpt lat="45.5562707" lon="10.4122075"><ele>188.0</ele><time>2026-03-29T12:39:22.551Z</time></trkpt><trkpt lat="45.5563834" lon="10.4124393"><ele>188.0</ele><time>2026-03-29T12:39:23.539Z</time></trkpt><trkpt lat="45.5564949" lon="10.4126711"><ele>188.0</ele><time>2026-03-29T12:39:24.521Z</time></trkpt><trkpt lat="45.5566098" lon="10.4129085"><ele>188.0</ele><time>2026-03-29T12:39:25.538Z</time></trkpt><trkpt lat="45.556721" lon="10.4131387"><ele>188.0</ele><time>2026-03-29T12:39:26.52Z</time></trkpt><trkpt lat="45.5568337" lon="10.4133763"><ele>188.0</ele><time>2026-03-29T12:39:27.525Z</time></trkpt><trkpt lat="45.556947" lon="10.4136167"><ele>188.0</ele><time>2026-03-29T12:39:28.53Z</time></trkpt><trkpt lat="45.5570589" lon="10.4138575"><ele>188.0</ele><time>2026-03-29T12:39:29.517Z</time></trkpt><trkpt lat="45.5571747" lon="10.4141091"><ele>188.66666666666666</ele><time>2026-03-29T12:39:30.537Z</time></trkpt><trkpt lat="45.5572816" lon="10.4143556"><ele>189.33333333333334</ele><time>2026-03-29T12:39:31.523Z</time></trkpt><trkpt lat="45.5573838" lon="10.4146107"><ele>190.0</ele><time>2026-03-29T12:39:32.529Z</time></trkpt><trkpt lat="45.557477" lon="10.4148619"><ele>190.66666666666669</ele><time>2026-03-29T12:39:33.522Z</time></trkpt><trkpt lat="45.5575638" lon="10.4151032"><ele>191.33333333333334</ele><time>2026-03-29T12:39:34.526Z</time></trkpt><trkpt lat="45.5576476" lon="10.4153415"><ele>192.0</ele><time>2026-03-29T12:39:35.54Z</time></trkpt><trkpt lat="45.5577287" lon="10.4155682"><ele>192.0</ele><time>2026-03-29T12:39:36.52Z</time></trkpt><trkpt lat="45.5578117" lon="10.4158048"><ele>192.0</ele><time>2026-03-29T12:39:37.527Z</time></trkpt><trkpt lat="45.5578925" lon="10.4160422"><ele>192.0</ele><time>2026-03-29T12:39:38.528Z</time></trkpt><trkpt lat="45.5579651" lon="10.4162932"><ele>193.0</ele><time>2026-03-29T12:39:39.525Z</time></trkpt><trkpt lat="45.558031" lon="10.4165587"><ele>194.0</ele><time>2026-03-29T12:39:40.541Z</time></trkpt><trkpt lat="45.5580933" lon="10.4168284"><ele>195.0</ele><time>2026-03-29T12:39:41.544Z</time></trkpt><trkpt lat="45.5581588" lon="10.4170962"><ele>194.33333333333331</ele><time>2026-03-29T12:39:42.531Z</time></trkpt><trkpt lat="45.5582455" lon="10.417372"><ele>193.66666666666666</ele><time>2026-03-29T12:39:43.56Z</time></trkpt><trkpt lat="45.5583429" lon="10.4176223"><ele>193.0</ele><time>2026-03-29T12:39:44.531Z</time></trkpt><trkpt lat="45.5584501" lon="10.4178722"><ele>192.33333333333331</ele><time>2026-03-29T12:39:45.528Z</time></trkpt><trkpt lat="45.5585626" lon="10.4181229"><ele>191.66666666666666</ele><time>2026-03-29T12:39:46.534Z</time></trkpt><trkpt lat="45.5586769" lon="10.4183806"><ele>191.0</ele><time>2026-03-29T12:39:47.569Z</time></trkpt><trkpt lat="45.5587835" lon="10.4186208"><ele>192.0</ele><time>2026-03-29T12:39:48.54Z</time></trkpt><trkpt lat="45.5588926" lon="10.4188654"><ele>193.0</ele><time>2026-03-29T12:39:49.529Z</time></trkpt><trkpt lat="45.5590041" lon="10.4191184"><ele>194.0</ele><time>2026-03-29T12:39:50.532Z</time></trkpt><trkpt lat="45.5591172" lon="10.4193709"><ele>194.0</ele><time>2026-03-29T12:39:51.52Z</time></trkpt><trkpt lat="45.5592388" lon="10.4196367"><ele>194.0</ele><time>2026-03-29T12:39:52.56Z</time></trkpt><trkpt lat="45.5593483" lon="10.4198803"><ele>194.0</ele><time>2026-03-29T12:39:53.535Z</time></trkpt><trkpt lat="45.5594526" lon="10.4201138"><ele>194.0</ele><time>2026-03-29T12:39:54.52Z</time></trkpt><trkpt lat="45.5595495" lon="10.4203394"><ele>194.0</ele><time>2026-03-29T12:39:55.527Z</time></trkpt><trkpt lat="45.5596421" lon="10.4205575"><ele>194.0</ele><time>2026-03-29T12:39:56.52Z</time></trkpt><trkpt lat="45.5597287" lon="10.4207562"><ele>194.0</ele><time>2026-03-29T12:39:57.531Z</time></trkpt><trkpt lat="45.5598159" lon="10.4209527"><ele>194.0</ele><time>2026-03-29T12:39:58.533Z</time></trkpt><trkpt lat="45.559903" lon="10.4211443"><ele>194.0</ele><time>2026-03-29T12:39:59.529Z</time></trkpt><trkpt lat="45.5599882" lon="10.4213284"><ele>193.5</ele><time>2026-03-29T12:40:00.538Z</time></trkpt><trkpt lat="45.5600656" lon="10.421494"><ele>193.0</ele><time>2026-03-29T12:40:01.555Z</time></trkpt><trkpt lat="45.5601276" lon="10.4216348"><ele>192.5</ele><time>2026-03-29T12:40:02.532Z</time></trkpt><trkpt lat="45.5601852" lon="10.4217659"><ele>192.0</ele><time>2026-03-29T12:40:03.523Z</time></trkpt><trkpt lat="45.5602387" lon="10.4218877"><ele>192.0</ele><time>2026-03-29T12:40:04.528Z</time></trkpt><trkpt lat="45.5602864" lon="10.4220052"><ele>192.0</ele><time>2026-03-29T12:40:05.533Z</time></trkpt><trkpt lat="45.5603248" lon="10.4221205"><ele>192.0</ele><time>2026-03-29T12:40:06.535Z</time></trkpt><trkpt lat="45.5603576" lon="10.4222213"><ele>192.0</ele><time>2026-03-29T12:40:07.519Z</time></trkpt><trkpt lat="45.5603853" lon="10.4223245"><ele>192.0</ele><time>2026-03-29T12:40:08.539Z</time></trkpt><trkpt lat="45.5603947" lon="10.4224186"><ele>192.0</ele><time>2026-03-29T12:40:09.534Z</time></trkpt><trkpt lat="45.56039" lon="10.4225202"><ele>192.83333333333334</ele><time>2026-03-29T12:40:10.534Z</time></trkpt><trkpt lat="45.5603777" lon="10.4226305"><ele>193.66666666666669</ele><time>2026-03-29T12:40:11.526Z</time></trkpt><trkpt lat="45.5603777" lon="10.4227511"><ele>194.5</ele><time>2026-03-29T12:40:12.544Z</time></trkpt><trkpt lat="45.5604213" lon="10.4228448"><ele>195.33333333333334</ele><time>2026-03-29T12:40:13.527Z</time></trkpt><trkpt lat="45.5604846" lon="10.4228981"><ele>196.16666666666669</ele><time>2026-03-29T12:40:14.529Z</time></trkpt><trkpt lat="45.5605667" lon="10.422931"><ele>197.0</ele><time>2026-03-29T12:40:15.551Z</time></trkpt><trkpt lat="45.5606468" lon="10.4229575"><ele>196.6</ele><time>2026-03-29T12:40:16.549Z</time></trkpt><trkpt lat="45.560722" lon="10.4230121"><ele>196.2</ele><time>2026-03-29T12:40:17.534Z</time></trkpt><trkpt lat="45.5607911" lon="10.4231071"><ele>195.8</ele><time>2026-03-29T12:40:18.537Z</time></trkpt><trkpt lat="45.5608638" lon="10.4232366"><ele>195.4</ele><time>2026-03-29T12:40:19.538Z</time></trkpt><trkpt lat="45.5609464" lon="10.4233978"><ele>195.0</ele><time>2026-03-29T12:40:20.527Z</time></trkpt><trkpt lat="45.5610322" lon="10.4235756"><ele>195.0</ele><time>2026-03-29T12:40:21.539Z</time></trkpt><trkpt lat="45.5611235" lon="10.4237621"><ele>195.0</ele><time>2026-03-29T12:40:22.532Z</time></trkpt><trkpt lat="45.5612227" lon="10.4239617"><ele>195.0</ele><time>2026-03-29T12:40:23.547Z</time></trkpt><trkpt lat="45.5613226" lon="10.4241735"><ele>195.66666666666669</ele><time>2026-03-29T12:40:24.532Z</time></trkpt><trkpt lat="45.5614326" lon="10.424407"><ele>196.33333333333334</ele><time>2026-03-29T12:40:25.547Z</time></trkpt><trkpt lat="45.5615398" lon="10.424645"><ele>197.0</ele><time>2026-03-29T12:40:26.523Z</time></trkpt><trkpt lat="45.5616544" lon="10.4248973"><ele>197.0</ele><time>2026-03-29T12:40:27.529Z</time></trkpt><trkpt lat="45.5617702" lon="10.4251495"><ele>197.0</ele><time>2026-03-29T12:40:28.531Z</time></trkpt><trkpt lat="45.5618863" lon="10.425399"><ele>197.0</ele><time>2026-03-29T12:40:29.518Z</time></trkpt><trkpt lat="45.5620056" lon="10.4256496"><ele>198.66666666666669</ele><time>2026-03-29T12:40:30.525Z</time></trkpt><trkpt lat="45.5621216" lon="10.4259031"><ele>200.33333333333331</ele><time>2026-03-29T12:40:31.516Z</time></trkpt><trkpt lat="45.5622405" lon="10.426163"><ele>202.0</ele><time>2026-03-29T12:40:32.53Z</time></trkpt><trkpt lat="45.5623598" lon="10.4264266"><ele>202.0</ele><time>2026-03-29T12:40:33.53Z</time></trkpt><trkpt lat="45.5624791" lon="10.4266858"><ele>202.0</ele><time>2026-03-29T12:40:34.524Z</time></trkpt><trkpt lat="45.5626013" lon="10.4269452"><ele>202.0</ele><time>2026-03-29T12:40:35.521Z</time></trkpt><trkpt lat="45.5627237" lon="10.4272095"><ele>201.66666666666666</ele><time>2026-03-29T12:40:36.529Z</time></trkpt><trkpt lat="45.5628435" lon="10.4274632"><ele>201.33333333333331</ele><time>2026-03-29T12:40:37.517Z</time></trkpt><trkpt lat="45.5629649" lon="10.4277269"><ele>201.0</ele><time>2026-03-29T12:40:38.539Z</time></trkpt><trkpt lat="45.56308" lon="10.4279833"><ele>201.0</ele><time>2026-03-29T12:40:39.526Z</time></trkpt><trkpt lat="45.5631933" lon="10.4282423"><ele>201.0</ele><time>2026-03-29T12:40:40.526Z</time></trkpt><trkpt lat="45.5633023" lon="10.4285061"><ele>201.0</ele><time>2026-03-29T12:40:41.53Z</time></trkpt><trkpt lat="45.5634116" lon="10.4287716"><ele>200.66666666666669</ele><time>2026-03-29T12:40:42.524Z</time></trkpt><trkpt lat="45.5635213" lon="10.4290476"><ele>200.33333333333334</ele><time>2026-03-29T12:40:43.542Z</time></trkpt><trkpt lat="45.5636279" lon="10.4293289"><ele>200.0</ele><time>2026-03-29T12:40:44.562Z</time></trkpt><trkpt lat="45.5637307" lon="10.4295951"><ele>199.66666666666669</ele><time>2026-03-29T12:40:45.522Z</time></trkpt><trkpt lat="45.5638391" lon="10.4298781"><ele>199.33333333333331</ele><time>2026-03-29T12:40:46.538Z</time></trkpt><trkpt lat="45.5639463" lon="10.4301525"><ele>199.0</ele><time>2026-03-29T12:40:47.524Z</time></trkpt><trkpt lat="45.5640529" lon="10.4304313"><ele>199.0</ele><time>2026-03-29T12:40:48.524Z</time></trkpt><trkpt lat="45.5641591" lon="10.4307105"><ele>199.0</ele><time>2026-03-29T12:40:49.526Z</time></trkpt><trkpt lat="45.5642629" lon="10.4309922"><ele>199.0</ele><time>2026-03-29T12:40:50.535Z</time></trkpt><trkpt lat="45.5643644" lon="10.4312688"><ele>199.0</ele><time>2026-03-29T12:40:51.53Z</time></trkpt><trkpt lat="45.5644668" lon="10.4315394"><ele>199.0</ele><time>2026-03-29T12:40:52.532Z</time></trkpt><trkpt lat="45.5645661" lon="10.4317894"><ele>199.0</ele><time>2026-03-29T12:40:53.525Z</time></trkpt><trkpt lat="45.5646604" lon="10.4320286"><ele>200.33333333333331</ele><time>2026-03-29T12:40:54.517Z</time></trkpt><trkpt lat="45.5647518" lon="10.4322602"><ele>201.66666666666669</ele><time>2026-03-29T12:40:55.531Z</time></trkpt><trkpt lat="45.5648419" lon="10.4324746"><ele>203.0</ele><time>2026-03-29T12:40:56.537Z</time></trkpt><trkpt lat="45.5649387" lon="10.4326713"><ele>203.0</ele><time>2026-03-29T12:40:57.535Z</time></trkpt><trkpt lat="45.565044" lon="10.4328497"><ele>203.0</ele><time>2026-03-29T12:40:58.527Z</time></trkpt><trkpt lat="45.5651635" lon="10.4330156"><ele>203.0</ele><time>2026-03-29T12:40:59.536Z</time></trkpt><trkpt lat="45.5652919" lon="10.433172"><ele>206.0</ele><time>2026-03-29T12:41:00.543Z</time></trkpt><trkpt lat="45.5654204" lon="10.4333202"><ele>209.0</ele><time>2026-03-29T12:41:01.524Z</time></trkpt><trkpt lat="45.5655544" lon="10.4334721"><ele>212.0</ele><time>2026-03-29T12:41:02.533Z</time></trkpt><trkpt lat="45.5656896" lon="10.4336232"><ele>212.0</ele><time>2026-03-29T12:41:03.527Z</time></trkpt><trkpt lat="45.565833" lon="10.4337753"><ele>212.0</ele><time>2026-03-29T12:41:04.52Z</time></trkpt><trkpt lat="45.5659807" lon="10.4339405"><ele>212.0</ele><time>2026-03-29T12:41:05.557Z</time></trkpt><trkpt lat="45.5661207" lon="10.4340963"><ele>211.33333333333334</ele><time>2026-03-29T12:41:06.523Z</time></trkpt><trkpt lat="45.5662653" lon="10.4342581"><ele>210.66666666666669</ele><time>2026-03-29T12:41:07.518Z</time></trkpt><trkpt lat="45.5664153" lon="10.4344224"><ele>210.0</ele><time>2026-03-29T12:41:08.53Z</time></trkpt><trkpt lat="45.5665679" lon="10.4345883"><ele>206.33333333333331</ele><time>2026-03-29T12:41:09.544Z</time></trkpt><trkpt lat="45.5667211" lon="10.4347522"><ele>202.66666666666666</ele><time>2026-03-29T12:41:10.549Z</time></trkpt><trkpt lat="45.566873" lon="10.4349165"><ele>199.0</ele><time>2026-03-29T12:41:11.538Z</time></trkpt><trkpt lat="45.5670238" lon="10.435081"><ele>198.0</ele><time>2026-03-29T12:41:12.518Z</time></trkpt><trkpt lat="45.5671779" lon="10.4352453"><ele>197.0</ele><time>2026-03-29T12:41:13.525Z</time></trkpt><trkpt lat="45.5673244" lon="10.4353964"><ele>196.0</ele><time>2026-03-29T12:41:14.521Z</time></trkpt><trkpt lat="45.5674599" lon="10.435539"><ele>196.0</ele><time>2026-03-29T12:41:15.523Z</time></trkpt><trkpt lat="45.5675865" lon="10.4356721"><ele>196.0</ele><time>2026-03-29T12:41:16.532Z</time></trkpt><trkpt lat="45.5676972" lon="10.4357889"><ele>196.0</ele><time>2026-03-29T12:41:17.531Z</time></trkpt><trkpt lat="45.5677969" lon="10.4358895"><ele>196.0</ele><time>2026-03-29T12:41:18.518Z</time></trkpt><trkpt lat="45.5678906" lon="10.4359806"><ele>195.99999999999997</ele><time>2026-03-29T12:41:19.547Z</time></trkpt><trkpt lat="45.5679649" lon="10.4360557"><ele>196.0</ele><time>2026-03-29T12:41:20.529Z</time></trkpt><trkpt lat="45.5680246" lon="10.4361334"><ele>196.0</ele><time>2026-03-29T12:41:21.524Z</time></trkpt><trkpt lat="45.5680636" lon="10.4362246"><ele>196.0</ele><time>2026-03-29T12:41:22.541Z</time></trkpt><trkpt lat="45.5680969" lon="10.4363196"><ele>195.99999999999997</ele><time>2026-03-29T12:41:23.525Z</time></trkpt><trkpt lat="45.5681409" lon="10.436398"><ele>196.0</ele><time>2026-03-29T12:41:24.527Z</time></trkpt><trkpt lat="45.5682034" lon="10.4364448"><ele>196.0</ele><time>2026-03-29T12:41:25.542Z</time></trkpt><trkpt lat="45.5682865" lon="10.4364523"><ele>196.0</ele><time>2026-03-29T12:41:26.532Z</time></trkpt><trkpt lat="45.5683807" lon="10.4364159"><ele>196.0</ele><time>2026-03-29T12:41:27.521Z</time></trkpt><trkpt lat="45.5684773" lon="10.4363578"><ele>196.0</ele><time>2026-03-29T12:41:28.53Z</time></trkpt><trkpt lat="45.568583" lon="10.4363128"><ele>196.0</ele><time>2026-03-29T12:41:29.531Z</time></trkpt><trkpt lat="45.5687056" lon="10.4363027"><ele>196.66666666666666</ele><time>2026-03-29T12:41:30.537Z</time></trkpt><trkpt lat="45.5688493" lon="10.4363177"><ele>197.33333333333331</ele><time>2026-03-29T12:41:31.53Z</time></trkpt><trkpt lat="45.5689942" lon="10.4363132"><ele>198.0</ele><time>2026-03-29T12:41:32.524Z</time></trkpt><trkpt lat="45.5691554" lon="10.4363215"><ele>198.0</ele><time>2026-03-29T12:41:33.521Z</time></trkpt><trkpt lat="45.5693276" lon="10.436333"><ele>198.0</ele><time>2026-03-29T12:41:34.523Z</time></trkpt><trkpt lat="45.5695067" lon="10.4363461"><ele>198.0</ele><time>2026-03-29T12:41:35.529Z</time></trkpt><trkpt lat="45.5696882" lon="10.436356"><ele>198.33333333333331</ele><time>2026-03-29T12:41:36.527Z</time></trkpt><trkpt lat="45.5698621" lon="10.4363698"><ele>198.66666666666666</ele><time>2026-03-29T12:41:37.541Z</time></trkpt><trkpt lat="45.5700101" lon="10.4363772"><ele>199.0</ele><time>2026-03-29T12:41:38.524Z</time></trkpt><trkpt lat="45.5701428" lon="10.4363822"><ele>199.0</ele><time>2026-03-29T12:41:39.548Z</time></trkpt><trkpt lat="45.5702384" lon="10.4363994"><ele>199.0</ele><time>2026-03-29T12:41:40.525Z</time></trkpt><trkpt lat="45.5703428" lon="10.4364338"><ele>199.0</ele><time>2026-03-29T12:41:41.54Z</time></trkpt><trkpt lat="45.5704616" lon="10.4364834"><ele>199.0</ele><time>2026-03-29T12:41:42.545Z</time></trkpt><trkpt lat="45.5705907" lon="10.4365013"><ele>198.33333333333331</ele><time>2026-03-29T12:41:43.52Z</time></trkpt><trkpt lat="45.5707451" lon="10.4365111"><ele>197.66666666666669</ele><time>2026-03-29T12:41:44.527Z</time></trkpt><trkpt lat="45.5709089" lon="10.4365233"><ele>197.0</ele><time>2026-03-29T12:41:45.536Z</time></trkpt><trkpt lat="45.5710874" lon="10.4365437"><ele>197.33333333333334</ele><time>2026-03-29T12:41:46.534Z</time></trkpt><trkpt lat="45.5712641" lon="10.436565"><ele>197.66666666666669</ele><time>2026-03-29T12:41:47.518Z</time></trkpt><trkpt lat="45.5714494" lon="10.4365846"><ele>198.0</ele><time>2026-03-29T12:41:48.535Z</time></trkpt><trkpt lat="45.5716368" lon="10.4366032"><ele>198.0</ele><time>2026-03-29T12:41:49.564Z</time></trkpt><trkpt lat="45.5718193" lon="10.4366178"><ele>198.0</ele><time>2026-03-29T12:41:50.54Z</time></trkpt><trkpt lat="45.5720132" lon="10.4366351"><ele>198.0</ele><time>2026-03-29T12:41:51.568Z</time></trkpt><trkpt lat="45.572188" lon="10.4366492"><ele>198.33333333333331</ele><time>2026-03-29T12:41:52.517Z</time></trkpt><trkpt lat="45.5723775" lon="10.4366642"><ele>198.66666666666666</ele><time>2026-03-29T12:41:53.527Z</time></trkpt><trkpt lat="45.5725761" lon="10.4366788"><ele>199.0</ele><time>2026-03-29T12:41:54.53Z</time></trkpt><trkpt lat="45.5727775" lon="10.4366907"><ele>199.0</ele><time>2026-03-29T12:41:55.526Z</time></trkpt><trkpt lat="45.5729819" lon="10.4367067"><ele>199.0</ele><time>2026-03-29T12:41:56.547Z</time></trkpt><trkpt lat="45.5731817" lon="10.4367202"><ele>199.0</ele><time>2026-03-29T12:41:57.531Z</time></trkpt><trkpt lat="45.5733801" lon="10.4367356"><ele>199.0</ele><time>2026-03-29T12:41:58.517Z</time></trkpt><trkpt lat="45.573584" lon="10.4367511"><ele>199.0</ele><time>2026-03-29T12:41:59.534Z</time></trkpt><trkpt lat="45.5737818" lon="10.4367646"><ele>199.0</ele><time>2026-03-29T12:42:00.531Z</time></trkpt><trkpt lat="45.5739773" lon="10.4367768"><ele>198.66666666666666</ele><time>2026-03-29T12:42:01.532Z</time></trkpt><trkpt lat="45.574172" lon="10.4367855"><ele>198.33333333333331</ele><time>2026-03-29T12:42:02.526Z</time></trkpt><trkpt lat="45.5743662" lon="10.4368"><ele>198.0</ele><time>2026-03-29T12:42:03.536Z</time></trkpt><trkpt lat="45.5745583" lon="10.4368126"><ele>198.0</ele><time>2026-03-29T12:42:04.543Z</time></trkpt><trkpt lat="45.574737" lon="10.4368312"><ele>198.0</ele><time>2026-03-29T12:42:05.532Z</time></trkpt><trkpt lat="45.5749052" lon="10.4368473"><ele>198.0</ele><time>2026-03-29T12:42:06.523Z</time></trkpt><trkpt lat="45.5750589" lon="10.4368594"><ele>198.0</ele><time>2026-03-29T12:42:07.532Z</time></trkpt><trkpt lat="45.57519" lon="10.4368764"><ele>198.0</ele><time>2026-03-29T12:42:08.534Z</time></trkpt><trkpt lat="45.5753081" lon="10.4368926"><ele>198.0</ele><time>2026-03-29T12:42:09.531Z</time></trkpt><trkpt lat="45.5754095" lon="10.436918"><ele>198.0</ele><time>2026-03-29T12:42:10.541Z</time></trkpt><trkpt lat="45.5754994" lon="10.4369458"><ele>198.0</ele><time>2026-03-29T12:42:11.523Z</time></trkpt><trkpt lat="45.575571" lon="10.436985"><ele>198.0</ele><time>2026-03-29T12:42:12.529Z</time></trkpt><trkpt lat="45.575627" lon="10.4370471"><ele>198.0</ele><time>2026-03-29T12:42:13.53Z</time></trkpt><trkpt lat="45.5756723" lon="10.437127"><ele>198.0</ele><time>2026-03-29T12:42:14.525Z</time></trkpt><trkpt lat="45.5757248" lon="10.4372029"><ele>198.0</ele><time>2026-03-29T12:42:15.534Z</time></trkpt><trkpt lat="45.575785" lon="10.4372544"><ele>198.0</ele><time>2026-03-29T12:42:16.535Z</time></trkpt><trkpt lat="45.5758731" lon="10.437245"><ele>198.0</ele><time>2026-03-29T12:42:18.524Z</time></trkpt><trkpt lat="45.5759276" lon="10.4371966"><ele>198.0</ele><time>2026-03-29T12:42:19.532Z</time></trkpt><trkpt lat="45.575993" lon="10.4371086"><ele>198.0</ele><time>2026-03-29T12:42:20.521Z</time></trkpt><trkpt lat="45.5760652" lon="10.4370208"><ele>198.0</ele><time>2026-03-29T12:42:21.542Z</time></trkpt><trkpt lat="45.5761724" lon="10.4369699"><ele>198.0</ele><time>2026-03-29T12:42:22.531Z</time></trkpt><trkpt lat="45.5762785" lon="10.4369624"><ele>198.0</ele><time>2026-03-29T12:42:23.532Z</time></trkpt><trkpt lat="45.5764287" lon="10.4369905"><ele>198.33333333333331</ele><time>2026-03-29T12:42:24.524Z</time></trkpt><trkpt lat="45.5765754" lon="10.437008"><ele>198.66666666666666</ele><time>2026-03-29T12:42:25.531Z</time></trkpt><trkpt lat="45.5767388" lon="10.4370217"><ele>199.0</ele><time>2026-03-29T12:42:26.525Z</time></trkpt><trkpt lat="45.5769049" lon="10.43704"><ele>199.66666666666666</ele><time>2026-03-29T12:42:27.546Z</time></trkpt><trkpt lat="45.5770739" lon="10.4370589"><ele>200.33333333333331</ele><time>2026-03-29T12:42:28.533Z</time></trkpt><trkpt lat="45.5772524" lon="10.4370769"><ele>201.0</ele><time>2026-03-29T12:42:29.531Z</time></trkpt><trkpt lat="45.5774336" lon="10.4370939"><ele>201.0</ele><time>2026-03-29T12:42:30.536Z</time></trkpt><trkpt lat="45.5776171" lon="10.4371089"><ele>201.0</ele><time>2026-03-29T12:42:31.544Z</time></trkpt><trkpt lat="45.5777983" lon="10.4371228"><ele>201.0</ele><time>2026-03-29T12:42:32.536Z</time></trkpt><trkpt lat="45.5779859" lon="10.4371367"><ele>200.0</ele><time>2026-03-29T12:42:33.527Z</time></trkpt><trkpt lat="45.5781802" lon="10.4371533"><ele>199.0</ele><time>2026-03-29T12:42:34.533Z</time></trkpt><trkpt lat="45.5783762" lon="10.4371678"><ele>198.0</ele><time>2026-03-29T12:42:35.545Z</time></trkpt><trkpt lat="45.5785778" lon="10.4371843"><ele>197.66666666666669</ele><time>2026-03-29T12:42:36.539Z</time></trkpt><trkpt lat="45.5787701" lon="10.4371966"><ele>197.33333333333334</ele><time>2026-03-29T12:42:37.526Z</time></trkpt><trkpt lat="45.5789696" lon="10.4372126"><ele>197.0</ele><time>2026-03-29T12:42:38.539Z</time></trkpt><trkpt lat="45.5791661" lon="10.4372299"><ele>197.0</ele><time>2026-03-29T12:42:39.535Z</time></trkpt><trkpt lat="45.5793579" lon="10.4372498"><ele>197.0</ele><time>2026-03-29T12:42:40.527Z</time></trkpt><trkpt lat="45.5795443" lon="10.4372656"><ele>197.0</ele><time>2026-03-29T12:42:41.53Z</time></trkpt><trkpt lat="45.5797101" lon="10.4372811"><ele>197.66666666666669</ele><time>2026-03-29T12:42:42.532Z</time></trkpt><trkpt lat="45.5798694" lon="10.4372955"><ele>198.33333333333331</ele><time>2026-03-29T12:42:43.539Z</time></trkpt><trkpt lat="45.5800217" lon="10.4373082"><ele>199.0</ele><time>2026-03-29T12:42:44.524Z</time></trkpt><trkpt lat="45.5801623" lon="10.4373153"><ele>199.0</ele><time>2026-03-29T12:42:45.54Z</time></trkpt><trkpt lat="45.5802962" lon="10.4373266"><ele>199.0</ele><time>2026-03-29T12:42:46.526Z</time></trkpt><trkpt lat="45.5804216" lon="10.4373327"><ele>199.0</ele><time>2026-03-29T12:42:47.549Z</time></trkpt><trkpt lat="45.5805393" lon="10.437339"><ele>199.0</ele><time>2026-03-29T12:42:48.537Z</time></trkpt><trkpt lat="45.5806643" lon="10.4373499"><ele>199.25</ele><time>2026-03-29T12:42:49.528Z</time></trkpt><trkpt lat="45.5808026" lon="10.4373635"><ele>199.5</ele><time>2026-03-29T12:42:50.542Z</time></trkpt><trkpt lat="45.5809361" lon="10.43737"><ele>199.75</ele><time>2026-03-29T12:42:51.533Z</time></trkpt><trkpt lat="45.5810707" lon="10.4373697"><ele>200.0</ele><time>2026-03-29T12:42:52.552Z</time></trkpt><trkpt lat="45.5812096" lon="10.4373738"><ele>200.0</ele><time>2026-03-29T12:42:53.522Z</time></trkpt><trkpt lat="45.581356" lon="10.4373806"><ele>200.0</ele><time>2026-03-29T12:42:54.527Z</time></trkpt><trkpt lat="45.5814939" lon="10.4373903"><ele>200.0</ele><time>2026-03-29T12:42:55.536Z</time></trkpt><trkpt lat="45.5816212" lon="10.437391"><ele>200.0</ele><time>2026-03-29T12:42:56.53Z</time></trkpt><trkpt lat="45.5817325" lon="10.4373724"><ele>200.0</ele><time>2026-03-29T12:42:57.548Z</time></trkpt><trkpt lat="45.5818446" lon="10.4373515"><ele>200.0</ele><time>2026-03-29T12:42:58.525Z</time></trkpt><trkpt lat="45.5819577" lon="10.4373355"><ele>200.0</ele><time>2026-03-29T12:42:59.543Z</time></trkpt><trkpt lat="45.5820738" lon="10.4373177"><ele>200.0</ele><time>2026-03-29T12:43:00.542Z</time></trkpt><trkpt lat="45.5821882" lon="10.4373032"><ele>200.6</ele><time>2026-03-29T12:43:01.541Z</time></trkpt><trkpt lat="45.582298" lon="10.4372894"><ele>201.2</ele><time>2026-03-29T12:43:02.526Z</time></trkpt><trkpt lat="45.5824071" lon="10.4372731"><ele>201.8</ele><time>2026-03-29T12:43:03.523Z</time></trkpt><trkpt lat="45.5825062" lon="10.4372464"><ele>202.4</ele><time>2026-03-29T12:43:04.53Z</time></trkpt><trkpt lat="45.5825949" lon="10.4372158"><ele>203.0</ele><time>2026-03-29T12:43:05.565Z</time></trkpt><trkpt lat="45.5826673" lon="10.4371882"><ele>203.00000000000003</ele><time>2026-03-29T12:43:06.529Z</time></trkpt><trkpt lat="45.5827372" lon="10.4371649"><ele>203.0</ele><time>2026-03-29T12:43:07.522Z</time></trkpt><trkpt lat="45.5828141" lon="10.437139"><ele>203.0</ele><time>2026-03-29T12:43:08.525Z</time></trkpt><trkpt lat="45.5828818" lon="10.4371188"><ele>203.0</ele><time>2026-03-29T12:43:09.531Z</time></trkpt><trkpt lat="45.5829561" lon="10.4370876"><ele>203.00000000000003</ele><time>2026-03-29T12:43:10.522Z</time></trkpt><trkpt lat="45.5830361" lon="10.4370519"><ele>203.0</ele><time>2026-03-29T12:43:11.562Z</time></trkpt><trkpt lat="45.5831166" lon="10.437005"><ele>203.8</ele><time>2026-03-29T12:43:12.533Z</time></trkpt><trkpt lat="45.5832046" lon="10.4369552"><ele>204.60000000000002</ele><time>2026-03-29T12:43:13.523Z</time></trkpt><trkpt lat="45.5833063" lon="10.4368954"><ele>205.39999999999998</ele><time>2026-03-29T12:43:14.542Z</time></trkpt><trkpt lat="45.5834161" lon="10.4368204"><ele>206.2</ele><time>2026-03-29T12:43:15.527Z</time></trkpt><trkpt lat="45.5835213" lon="10.4367534"><ele>207.0</ele><time>2026-03-29T12:43:16.543Z</time></trkpt><trkpt lat="45.5836366" lon="10.4366843"><ele>206.5</ele><time>2026-03-29T12:43:17.534Z</time></trkpt><trkpt lat="45.5837515" lon="10.4366141"><ele>206.0</ele><time>2026-03-29T12:43:18.542Z</time></trkpt><trkpt lat="45.5838513" lon="10.4365552"><ele>205.5</ele><time>2026-03-29T12:43:19.517Z</time></trkpt><trkpt lat="45.5839582" lon="10.4364963"><ele>205.0</ele><time>2026-03-29T12:43:20.536Z</time></trkpt><trkpt lat="45.5840542" lon="10.4364393"><ele>205.0</ele><time>2026-03-29T12:43:21.538Z</time></trkpt><trkpt lat="45.5841657" lon="10.4364129"><ele>205.0</ele><time>2026-03-29T12:43:22.535Z</time></trkpt><trkpt lat="45.5842772" lon="10.4363984"><ele>205.0</ele><time>2026-03-29T12:43:23.546Z</time></trkpt><trkpt lat="45.5843798" lon="10.4363718"><ele>205.0</ele><time>2026-03-29T12:43:24.556Z</time></trkpt><trkpt lat="45.5844663" lon="10.4363661"><ele>205.0</ele><time>2026-03-29T12:43:25.549Z</time></trkpt><trkpt lat="45.5845444" lon="10.4363787"><ele>204.2</ele><time>2026-03-29T12:43:26.523Z</time></trkpt><trkpt lat="45.5846189" lon="10.4364108"><ele>203.4</ele><time>2026-03-29T12:43:27.524Z</time></trkpt><trkpt lat="45.5847029" lon="10.4364684"><ele>202.60000000000002</ele><time>2026-03-29T12:43:28.541Z</time></trkpt><trkpt lat="45.5847794" lon="10.4365418"><ele>201.8</ele><time>2026-03-29T12:43:29.534Z</time></trkpt><trkpt lat="45.5848488" lon="10.4366411"><ele>201.0</ele><time>2026-03-29T12:43:30.541Z</time></trkpt><trkpt lat="45.5849116" lon="10.4367509"><ele>201.0</ele><time>2026-03-29T12:43:31.529Z</time></trkpt><trkpt lat="45.584939" lon="10.4368857"><ele>201.0</ele><time>2026-03-29T12:43:32.547Z</time></trkpt><trkpt lat="45.5849748" lon="10.4370101"><ele>201.0</ele><time>2026-03-29T12:43:33.555Z</time></trkpt><trkpt lat="45.585009" lon="10.4371289"><ele>201.0</ele><time>2026-03-29T12:43:34.549Z</time></trkpt><trkpt lat="45.5850371" lon="10.4372459"><ele>201.0</ele><time>2026-03-29T12:43:35.529Z</time></trkpt><trkpt lat="45.5850803" lon="10.4373642"><ele>201.0</ele><time>2026-03-29T12:43:36.547Z</time></trkpt><trkpt lat="45.5851404" lon="10.4374603"><ele>201.0</ele><time>2026-03-29T12:43:37.534Z</time></trkpt><trkpt lat="45.5851951" lon="10.4375093"><ele>201.0</ele><time>2026-03-29T12:43:38.523Z</time></trkpt><trkpt lat="45.5852961" lon="10.4375597"><ele>201.0</ele><time>2026-03-29T12:43:39.537Z</time></trkpt><trkpt lat="45.5854135" lon="10.4375928"><ele>201.0</ele><time>2026-03-29T12:43:40.54Z</time></trkpt><trkpt lat="45.5855311" lon="10.437623"><ele>201.0</ele><time>2026-03-29T12:43:41.539Z</time></trkpt><trkpt lat="45.5856688" lon="10.4376533"><ele>201.0</ele><time>2026-03-29T12:43:42.552Z</time></trkpt><trkpt lat="45.5858073" lon="10.4376723"><ele>201.0</ele><time>2026-03-29T12:43:43.556Z</time></trkpt><trkpt lat="45.5859457" lon="10.4376941"><ele>201.0</ele><time>2026-03-29T12:43:44.528Z</time></trkpt><trkpt lat="45.5860901" lon="10.4377108"><ele>201.0</ele><time>2026-03-29T12:43:45.553Z</time></trkpt><trkpt lat="45.5862282" lon="10.4377334"><ele>201.0</ele><time>2026-03-29T12:43:46.534Z</time></trkpt><trkpt lat="45.5863752" lon="10.4377456"><ele>201.0</ele><time>2026-03-29T12:43:47.534Z</time></trkpt><trkpt lat="45.5865189" lon="10.4377596"><ele>201.0</ele><time>2026-03-29T12:43:48.541Z</time></trkpt><trkpt lat="45.586655" lon="10.4377836"><ele>201.0</ele><time>2026-03-29T12:43:49.542Z</time></trkpt><trkpt lat="45.5868424" lon="10.4378191"><ele>201.0</ele><time>2026-03-29T12:43:50.864Z</time></trkpt><trkpt lat="45.5870793" lon="10.4378729"><ele>201.0</ele><time>2026-03-29T12:43:52.593Z</time></trkpt><trkpt lat="45.5872205" lon="10.4379109"><ele>201.0</ele><time>2026-03-29T12:43:53.593Z</time></trkpt><trkpt lat="45.587363" lon="10.4379686"><ele>201.0</ele><time>2026-03-29T12:43:54.604Z</time></trkpt><trkpt lat="45.5874995" lon="10.4380361"><ele>201.0</ele><time>2026-03-29T12:43:55.588Z</time></trkpt><trkpt lat="45.5876363" lon="10.4381157"><ele>201.0</ele><time>2026-03-29T12:43:56.589Z</time></trkpt><trkpt lat="45.5877715" lon="10.4381999"><ele>201.25</ele><time>2026-03-29T12:43:57.586Z</time></trkpt><trkpt lat="45.5879051" lon="10.4382902"><ele>201.5</ele><time>2026-03-29T12:43:58.588Z</time></trkpt><trkpt lat="45.588033" lon="10.4383773"><ele>201.75</ele><time>2026-03-29T12:43:59.577Z</time></trkpt><trkpt lat="45.5881558" lon="10.4384581"><ele>202.0</ele><time>2026-03-29T12:44:00.553Z</time></trkpt><trkpt lat="45.5882756" lon="10.4385395"><ele>202.0</ele><time>2026-03-29T12:44:01.532Z</time></trkpt><trkpt lat="45.5883946" lon="10.4386235"><ele>202.0</ele><time>2026-03-29T12:44:02.538Z</time></trkpt><trkpt lat="45.5885097" lon="10.4387045"><ele>202.0</ele><time>2026-03-29T12:44:03.521Z</time></trkpt><trkpt lat="45.5886391" lon="10.4387955"><ele>202.0</ele><time>2026-03-29T12:44:04.557Z</time></trkpt><trkpt lat="45.5887626" lon="10.4388782"><ele>202.25</ele><time>2026-03-29T12:44:05.528Z</time></trkpt><trkpt lat="45.5888924" lon="10.4389668"><ele>202.5</ele><time>2026-03-29T12:44:06.533Z</time></trkpt><trkpt lat="45.5890255" lon="10.439059"><ele>202.75</ele><time>2026-03-29T12:44:07.529Z</time></trkpt><trkpt lat="45.5891612" lon="10.439157"><ele>203.0</ele><time>2026-03-29T12:44:08.533Z</time></trkpt><trkpt lat="45.5892938" lon="10.4392476"><ele>203.0</ele><time>2026-03-29T12:44:09.529Z</time></trkpt><trkpt lat="45.5894202" lon="10.4393331"><ele>203.0</ele><time>2026-03-29T12:44:10.54Z</time></trkpt><trkpt lat="45.5895391" lon="10.4394151"><ele>203.0</ele><time>2026-03-29T12:44:11.534Z</time></trkpt><trkpt lat="45.5896597" lon="10.4394967"><ele>203.0</ele><time>2026-03-29T12:44:12.542Z</time></trkpt><trkpt lat="45.5897798" lon="10.4395775"><ele>202.75</ele><time>2026-03-29T12:44:13.521Z</time></trkpt><trkpt lat="45.589907" lon="10.4396593"><ele>202.5</ele><time>2026-03-29T12:44:14.53Z</time></trkpt><trkpt lat="45.590038" lon="10.4397468"><ele>202.25</ele><time>2026-03-29T12:44:15.531Z</time></trkpt><trkpt lat="45.5901656" lon="10.4398348"><ele>202.0</ele><time>2026-03-29T12:44:16.533Z</time></trkpt><trkpt lat="45.5902909" lon="10.4399225"><ele>201.75</ele><time>2026-03-29T12:44:17.537Z</time></trkpt><trkpt lat="45.5904169" lon="10.4400063"><ele>201.5</ele><time>2026-03-29T12:44:18.537Z</time></trkpt><trkpt lat="45.5905436" lon="10.4400884"><ele>201.25</ele><time>2026-03-29T12:44:19.53Z</time></trkpt><trkpt lat="45.5906589" lon="10.4401638"><ele>201.0</ele><time>2026-03-29T12:44:20.526Z</time></trkpt><trkpt lat="45.5907674" lon="10.4402308"><ele>201.0</ele><time>2026-03-29T12:44:21.523Z</time></trkpt><trkpt lat="45.5908588" lon="10.4402863"><ele>201.0</ele><time>2026-03-29T12:44:22.539Z</time></trkpt><trkpt lat="45.5909297" lon="10.4403351"><ele>201.0</ele><time>2026-03-29T12:44:23.523Z</time></trkpt><trkpt lat="45.590985" lon="10.4403781"><ele>201.0</ele><time>2026-03-29T12:44:24.548Z</time></trkpt><trkpt lat="45.591041" lon="10.4404363"><ele>201.0</ele><time>2026-03-29T12:44:26.533Z</time></trkpt><trkpt lat="45.5910734" lon="10.4405225"><ele>201.0</ele><time>2026-03-29T12:44:29.528Z</time></trkpt><trkpt lat="45.5911069" lon="10.4406247"><ele>201.20000000000002</ele><time>2026-03-29T12:44:31.533Z</time></trkpt><trkpt lat="45.5911583" lon="10.4407044"><ele>201.4</ele><time>2026-03-29T12:44:32.534Z</time></trkpt><trkpt lat="45.591238" lon="10.4407608"><ele>201.6</ele><time>2026-03-29T12:44:33.549Z</time></trkpt><trkpt lat="45.5913276" lon="10.4407943"><ele>201.8</ele><time>2026-03-29T12:44:34.531Z</time></trkpt><trkpt lat="45.5914151" lon="10.4407956"><ele>202.0</ele><time>2026-03-29T12:44:35.532Z</time></trkpt><trkpt lat="45.5915188" lon="10.4408187"><ele>202.0</ele><time>2026-03-29T12:44:36.533Z</time></trkpt><trkpt lat="45.5916294" lon="10.44088"><ele>202.0</ele><time>2026-03-29T12:44:37.537Z</time></trkpt><trkpt lat="45.5917515" lon="10.4409603"><ele>202.0</ele><time>2026-03-29T12:44:38.545Z</time></trkpt><trkpt lat="45.591886" lon="10.4410405"><ele>202.0</ele><time>2026-03-29T12:44:39.526Z</time></trkpt><trkpt lat="45.5920241" lon="10.4411256"><ele>201.66666666666666</ele><time>2026-03-29T12:44:40.532Z</time></trkpt><trkpt lat="45.5921684" lon="10.4412134"><ele>201.33333333333331</ele><time>2026-03-29T12:44:41.549Z</time></trkpt><trkpt lat="45.5923092" lon="10.4413023"><ele>201.0</ele><time>2026-03-29T12:44:42.518Z</time></trkpt><trkpt lat="45.5924615" lon="10.4414023"><ele>201.66666666666669</ele><time>2026-03-29T12:44:43.526Z</time></trkpt><trkpt lat="45.5926149" lon="10.441507"><ele>202.33333333333334</ele><time>2026-03-29T12:44:44.538Z</time></trkpt><trkpt lat="45.5927707" lon="10.4416144"><ele>203.0</ele><time>2026-03-29T12:44:45.551Z</time></trkpt><trkpt lat="45.5929225" lon="10.4417165"><ele>203.0</ele><time>2026-03-29T12:44:46.533Z</time></trkpt><trkpt lat="45.5930748" lon="10.4418246"><ele>203.0</ele><time>2026-03-29T12:44:47.538Z</time></trkpt><trkpt lat="45.5932246" lon="10.4419229"><ele>203.0</ele><time>2026-03-29T12:44:48.533Z</time></trkpt><trkpt lat="45.5933748" lon="10.4420229"><ele>203.0</ele><time>2026-03-29T12:44:49.537Z</time></trkpt><trkpt lat="45.5935227" lon="10.442124"><ele>203.0</ele><time>2026-03-29T12:44:50.53Z</time></trkpt><trkpt lat="45.5936734" lon="10.4422295"><ele>203.0</ele><time>2026-03-29T12:44:51.555Z</time></trkpt><trkpt lat="45.5938153" lon="10.4423262"><ele>203.66666666666669</ele><time>2026-03-29T12:44:52.522Z</time></trkpt><trkpt lat="45.593961" lon="10.4424242"><ele>204.33333333333331</ele><time>2026-03-29T12:44:53.537Z</time></trkpt><trkpt lat="45.594098" lon="10.4425204"><ele>205.0</ele><time>2026-03-29T12:44:54.535Z</time></trkpt><trkpt lat="45.5942303" lon="10.4426123"><ele>205.0</ele><time>2026-03-29T12:44:55.53Z</time></trkpt><trkpt lat="45.5943632" lon="10.4427043"><ele>205.0</ele><time>2026-03-29T12:44:56.541Z</time></trkpt><trkpt lat="45.5944923" lon="10.4428"><ele>205.0</ele><time>2026-03-29T12:44:57.537Z</time></trkpt><trkpt lat="45.5946168" lon="10.4429075"><ele>205.0</ele><time>2026-03-29T12:44:58.537Z</time></trkpt><trkpt lat="45.5947304" lon="10.4430299"><ele>205.0</ele><time>2026-03-29T12:44:59.542Z</time></trkpt><trkpt lat="45.5948391" lon="10.4431713"><ele>205.0</ele><time>2026-03-29T12:45:00.535Z</time></trkpt><trkpt lat="45.5949305" lon="10.4433274"><ele>205.0</ele><time>2026-03-29T12:45:01.545Z</time></trkpt><trkpt lat="45.5950106" lon="10.4434567"><ele>205.0</ele><time>2026-03-29T12:45:02.541Z</time></trkpt><trkpt lat="45.5950716" lon="10.4435588"><ele>204.99999999999997</ele><time>2026-03-29T12:45:03.538Z</time></trkpt><trkpt lat="45.5951109" lon="10.4436493"><ele>205.0</ele><time>2026-03-29T12:45:04.539Z</time></trkpt><trkpt lat="45.5951312" lon="10.4437346"><ele>205.0</ele><time>2026-03-29T12:45:05.527Z</time></trkpt><trkpt lat="45.5951592" lon="10.4438283"><ele>205.0</ele><time>2026-03-29T12:45:06.537Z</time></trkpt><trkpt lat="45.5952009" lon="10.4439242"><ele>204.99999999999997</ele><time>2026-03-29T12:45:07.532Z</time></trkpt><trkpt lat="45.5952527" lon="10.4440309"><ele>205.0</ele><time>2026-03-29T12:45:08.534Z</time></trkpt><trkpt lat="45.5953499" lon="10.4440738"><ele>205.25</ele><time>2026-03-29T12:45:09.534Z</time></trkpt><trkpt lat="45.5954318" lon="10.4441858"><ele>205.5</ele><time>2026-03-29T12:45:10.531Z</time></trkpt><trkpt lat="45.5955156" lon="10.4443262"><ele>205.75</ele><time>2026-03-29T12:45:11.525Z</time></trkpt><trkpt lat="45.5956138" lon="10.44448"><ele>206.0</ele><time>2026-03-29T12:45:12.527Z</time></trkpt><trkpt lat="45.5957216" lon="10.444647"><ele>206.33333333333334</ele><time>2026-03-29T12:45:13.54Z</time></trkpt><trkpt lat="45.5958291" lon="10.4448183"><ele>206.66666666666669</ele><time>2026-03-29T12:45:14.524Z</time></trkpt><trkpt lat="45.5959487" lon="10.4450015"><ele>207.0</ele><time>2026-03-29T12:45:15.533Z</time></trkpt><trkpt lat="45.5960724" lon="10.4451897"><ele>207.0</ele><time>2026-03-29T12:45:16.541Z</time></trkpt><trkpt lat="45.5961953" lon="10.445373"><ele>207.0</ele><time>2026-03-29T12:45:17.54Z</time></trkpt><trkpt lat="45.5963153" lon="10.4455596"><ele>207.0</ele><time>2026-03-29T12:45:18.541Z</time></trkpt><trkpt lat="45.5964325" lon="10.4457447"><ele>207.0</ele><time>2026-03-29T12:45:19.543Z</time></trkpt><trkpt lat="45.5965462" lon="10.4459248"><ele>207.0</ele><time>2026-03-29T12:45:20.536Z</time></trkpt><trkpt lat="45.5966576" lon="10.446101"><ele>207.0</ele><time>2026-03-29T12:45:21.534Z</time></trkpt><trkpt lat="45.5967825" lon="10.4462959"><ele>207.5</ele><time>2026-03-29T12:45:22.655Z</time></trkpt><trkpt lat="45.5969909" lon="10.4466203"><ele>208.0</ele><time>2026-03-29T12:45:24.535Z</time></trkpt><trkpt lat="45.5971049" lon="10.4468017"><ele>208.0</ele><time>2026-03-29T12:45:25.55Z</time></trkpt><trkpt lat="45.5972152" lon="10.4469823"><ele>208.0</ele><time>2026-03-29T12:45:26.554Z</time></trkpt><trkpt lat="45.5973257" lon="10.4471634"><ele>208.0</ele><time>2026-03-29T12:45:27.543Z</time></trkpt><trkpt lat="45.5974339" lon="10.4473407"><ele>208.0</ele><time>2026-03-29T12:45:28.541Z</time></trkpt><trkpt lat="45.5975421" lon="10.447512"><ele>208.0</ele><time>2026-03-29T12:45:29.542Z</time></trkpt><trkpt lat="45.597644" lon="10.4476732"><ele>208.0</ele><time>2026-03-29T12:45:30.53Z</time></trkpt><trkpt lat="45.5977443" lon="10.4478358"><ele>208.25</ele><time>2026-03-29T12:45:31.533Z</time></trkpt><trkpt lat="45.5978433" lon="10.4479962"><ele>208.5</ele><time>2026-03-29T12:45:32.53Z</time></trkpt><trkpt lat="45.5979433" lon="10.4481583"><ele>208.75</ele><time>2026-03-29T12:45:33.55Z</time></trkpt><trkpt lat="45.598039" lon="10.4483154"><ele>209.0</ele><time>2026-03-29T12:45:34.527Z</time></trkpt><trkpt lat="45.598137" lon="10.4484714"><ele>209.0</ele><time>2026-03-29T12:45:35.542Z</time></trkpt><trkpt lat="45.5982248" lon="10.4486097"><ele>209.0</ele><time>2026-03-29T12:45:36.534Z</time></trkpt><trkpt lat="45.5983068" lon="10.4487386"><ele>209.0</ele><time>2026-03-29T12:45:37.534Z</time></trkpt><trkpt lat="45.5983853" lon="10.4488597"><ele>209.0</ele><time>2026-03-29T12:45:38.536Z</time></trkpt><trkpt lat="45.5984573" lon="10.4489713"><ele>209.00000000000003</ele><time>2026-03-29T12:45:39.53Z</time></trkpt><trkpt lat="45.5985277" lon="10.4490854"><ele>209.0</ele><time>2026-03-29T12:45:40.538Z</time></trkpt><trkpt lat="45.5985911" lon="10.449188"><ele>209.0</ele><time>2026-03-29T12:45:41.533Z</time></trkpt><trkpt lat="45.598648" lon="10.4492794"><ele>209.0</ele><time>2026-03-29T12:45:42.527Z</time></trkpt><trkpt lat="45.598694" lon="10.4493622"><ele>209.00000000000003</ele><time>2026-03-29T12:45:43.542Z</time></trkpt><trkpt lat="45.5987487" lon="10.4494588"><ele>209.0</ele><time>2026-03-29T12:45:45.54Z</time></trkpt><trkpt lat="45.5987864" lon="10.4495356"><ele>209.2</ele><time>2026-03-29T12:45:47.54Z</time></trkpt><trkpt lat="45.5988443" lon="10.4496277"><ele>209.39999999999998</ele><time>2026-03-29T12:45:49.528Z</time></trkpt><trkpt lat="45.5989364" lon="10.4497401"><ele>209.6</ele><time>2026-03-29T12:45:51.539Z</time></trkpt><trkpt lat="45.5989888" lon="10.4498085"><ele>209.8</ele><time>2026-03-29T12:45:52.537Z</time></trkpt><trkpt lat="45.5990452" lon="10.4498944"><ele>210.0</ele><time>2026-03-29T12:45:53.537Z</time></trkpt><trkpt lat="45.5991094" lon="10.4499955"><ele>210.0</ele><time>2026-03-29T12:45:54.535Z</time></trkpt><trkpt lat="45.5991839" lon="10.4501149"><ele>210.0</ele><time>2026-03-29T12:45:55.534Z</time></trkpt><trkpt lat="45.5992615" lon="10.4502444"><ele>210.0</ele><time>2026-03-29T12:45:56.538Z</time></trkpt><trkpt lat="45.5993418" lon="10.4503836"><ele>210.0</ele><time>2026-03-29T12:45:57.539Z</time></trkpt><trkpt lat="45.5994344" lon="10.4505325"><ele>210.25</ele><time>2026-03-29T12:45:58.543Z</time></trkpt><trkpt lat="45.5995281" lon="10.4506848"><ele>210.5</ele><time>2026-03-29T12:45:59.533Z</time></trkpt><trkpt lat="45.599627" lon="10.4508385"><ele>210.75</ele><time>2026-03-29T12:46:00.542Z</time></trkpt><trkpt lat="45.599725" lon="10.4509867"><ele>211.0</ele><time>2026-03-29T12:46:01.549Z</time></trkpt><trkpt lat="45.5998116" lon="10.4511201"><ele>211.0</ele><time>2026-03-29T12:46:02.531Z</time></trkpt><trkpt lat="45.5998866" lon="10.4512371"><ele>211.0</ele><time>2026-03-29T12:46:03.533Z</time></trkpt><trkpt lat="45.5999543" lon="10.4513433"><ele>211.0</ele><time>2026-03-29T12:46:04.555Z</time></trkpt><trkpt lat="45.6000163" lon="10.4514313"><ele>211.0</ele><time>2026-03-29T12:46:05.531Z</time></trkpt><trkpt lat="45.6000853" lon="10.4515408"><ele>211.0</ele><time>2026-03-29T12:46:06.558Z</time></trkpt><trkpt lat="45.6001532" lon="10.4516643"><ele>211.25</ele><time>2026-03-29T12:46:07.55Z</time></trkpt><trkpt lat="45.6002372" lon="10.4518083"><ele>211.5</ele><time>2026-03-29T12:46:08.556Z</time></trkpt><trkpt lat="45.6003274" lon="10.4519606"><ele>211.75</ele><time>2026-03-29T12:46:09.531Z</time></trkpt><trkpt lat="45.6004309" lon="10.4521278"><ele>212.0</ele><time>2026-03-29T12:46:10.543Z</time></trkpt><trkpt lat="45.6005387" lon="10.4523014"><ele>212.33333333333334</ele><time>2026-03-29T12:46:11.542Z</time></trkpt><trkpt lat="45.6006488" lon="10.4524741"><ele>212.66666666666669</ele><time>2026-03-29T12:46:12.545Z</time></trkpt><trkpt lat="45.6007595" lon="10.4526449"><ele>213.0</ele><time>2026-03-29T12:46:13.54Z</time></trkpt><trkpt lat="45.600874" lon="10.4528236"><ele>213.0</ele><time>2026-03-29T12:46:14.539Z</time></trkpt><trkpt lat="45.600982" lon="10.4529909"><ele>213.0</ele><time>2026-03-29T12:46:15.533Z</time></trkpt><trkpt lat="45.6010775" lon="10.4531587"><ele>213.0</ele><time>2026-03-29T12:46:16.554Z</time></trkpt><trkpt lat="45.6011654" lon="10.4533003"><ele>213.0</ele><time>2026-03-29T12:46:17.534Z</time></trkpt><trkpt lat="45.6012405" lon="10.4534251"><ele>213.0</ele><time>2026-03-29T12:46:18.538Z</time></trkpt><trkpt lat="45.6013044" lon="10.4535339"><ele>213.0</ele><time>2026-03-29T12:46:19.546Z</time></trkpt><trkpt lat="45.6013573" lon="10.4536238"><ele>213.0</ele><time>2026-03-29T12:46:20.54Z</time></trkpt><trkpt lat="45.6013998" lon="10.4537103"><ele>213.0</ele><time>2026-03-29T12:46:21.543Z</time></trkpt><trkpt lat="45.6014394" lon="10.4537833"><ele>213.0</ele><time>2026-03-29T12:46:22.533Z</time></trkpt><trkpt lat="45.6015217" lon="10.4539147"><ele>213.0</ele><time>2026-03-29T12:46:24.529Z</time></trkpt><trkpt lat="45.6015688" lon="10.4539785"><ele>213.0</ele><time>2026-03-29T12:46:25.533Z</time></trkpt><trkpt lat="45.6016146" lon="10.4540415"><ele>213.0</ele><time>2026-03-29T12:46:26.533Z</time></trkpt><trkpt lat="45.6016609" lon="10.454107"><ele>213.0</ele><time>2026-03-29T12:46:27.526Z</time></trkpt><trkpt lat="45.601708" lon="10.4541766"><ele>213.0</ele><time>2026-03-29T12:46:28.542Z</time></trkpt><trkpt lat="45.6017525" lon="10.454244"><ele>213.0</ele><time>2026-03-29T12:46:29.536Z</time></trkpt><trkpt lat="45.601838" lon="10.4543826"><ele>213.0</ele><time>2026-03-29T12:46:31.534Z</time></trkpt><trkpt lat="45.6018907" lon="10.4544633"><ele>213.0</ele><time>2026-03-29T12:46:32.537Z</time></trkpt><trkpt lat="45.601953" lon="10.4545594"><ele>213.0</ele><time>2026-03-29T12:46:33.566Z</time></trkpt><trkpt lat="45.6020197" lon="10.4546654"><ele>213.0</ele><time>2026-03-29T12:46:34.536Z</time></trkpt><trkpt lat="45.6020924" lon="10.4547861"><ele>213.0</ele><time>2026-03-29T12:46:35.537Z</time></trkpt><trkpt lat="45.6021653" lon="10.4549152"><ele>213.0</ele><time>2026-03-29T12:46:36.536Z</time></trkpt><trkpt lat="45.6022384" lon="10.4550515"><ele>213.5</ele><time>2026-03-29T12:46:37.539Z</time></trkpt><trkpt lat="45.6023028" lon="10.4551938"><ele>214.0</ele><time>2026-03-29T12:46:38.542Z</time></trkpt><trkpt lat="45.602362" lon="10.4553403"><ele>214.5</ele><time>2026-03-29T12:46:39.53Z</time></trkpt><trkpt lat="45.6024197" lon="10.4555048"><ele>215.0</ele><time>2026-03-29T12:46:40.545Z</time></trkpt><trkpt lat="45.602473" lon="10.4556653"><ele>215.25</ele><time>2026-03-29T12:46:41.529Z</time></trkpt><trkpt lat="45.6025212" lon="10.4558237"><ele>215.5</ele><time>2026-03-29T12:46:42.526Z</time></trkpt><trkpt lat="45.6025723" lon="10.4559872"><ele>215.75</ele><time>2026-03-29T12:46:43.544Z</time></trkpt><trkpt lat="45.6026208" lon="10.4561518"><ele>216.0</ele><time>2026-03-29T12:46:44.53Z</time></trkpt><trkpt lat="45.6026708" lon="10.4563218"><ele>216.0</ele><time>2026-03-29T12:46:45.539Z</time></trkpt><trkpt lat="45.6027198" lon="10.4564732"><ele>216.00000000000003</ele><time>2026-03-29T12:46:46.525Z</time></trkpt><trkpt lat="45.6027597" lon="10.4566258"><ele>216.00000000000003</ele><time>2026-03-29T12:46:47.537Z</time></trkpt><trkpt lat="45.6027994" lon="10.4567658"><ele>216.0</ele><time>2026-03-29T12:46:48.547Z</time></trkpt><trkpt lat="45.6028419" lon="10.4568906"><ele>216.0</ele><time>2026-03-29T12:46:49.536Z</time></trkpt><trkpt lat="45.6028855" lon="10.4570197"><ele>215.60000000000002</ele><time>2026-03-29T12:46:50.529Z</time></trkpt><trkpt lat="45.6029292" lon="10.4571543"><ele>215.20000000000002</ele><time>2026-03-29T12:46:51.525Z</time></trkpt><trkpt lat="45.6029715" lon="10.4572914"><ele>214.79999999999998</ele><time>2026-03-29T12:46:52.545Z</time></trkpt><trkpt lat="45.6030136" lon="10.4574264"><ele>214.39999999999998</ele><time>2026-03-29T12:46:53.536Z</time></trkpt><trkpt lat="45.6030506" lon="10.4575617"><ele>214.0</ele><time>2026-03-29T12:46:54.529Z</time></trkpt><trkpt lat="45.6030877" lon="10.4576852"><ele>213.99999999999997</ele><time>2026-03-29T12:46:55.532Z</time></trkpt><trkpt lat="45.603122" lon="10.4577919"><ele>214.0</ele><time>2026-03-29T12:46:56.53Z</time></trkpt><trkpt lat="45.6031562" lon="10.4578792"><ele>214.0</ele><time>2026-03-29T12:46:57.53Z</time></trkpt><trkpt lat="45.6031861" lon="10.4579716"><ele>214.0</ele><time>2026-03-29T12:46:58.534Z</time></trkpt><trkpt lat="45.6032189" lon="10.4580747"><ele>213.99999999999997</ele><time>2026-03-29T12:46:59.535Z</time></trkpt><trkpt lat="45.6032561" lon="10.4581901"><ele>214.0</ele><time>2026-03-29T12:47:00.535Z</time></trkpt><trkpt lat="45.6033019" lon="10.4583265"><ele>213.75</ele><time>2026-03-29T12:47:01.534Z</time></trkpt><trkpt lat="45.6033518" lon="10.458473"><ele>213.5</ele><time>2026-03-29T12:47:02.539Z</time></trkpt><trkpt lat="45.6034064" lon="10.4586356"><ele>213.25</ele><time>2026-03-29T12:47:03.53Z</time></trkpt><trkpt lat="45.6034643" lon="10.4588065"><ele>213.0</ele><time>2026-03-29T12:47:04.543Z</time></trkpt><trkpt lat="45.6035241" lon="10.4589978"><ele>213.66666666666669</ele><time>2026-03-29T12:47:05.545Z</time></trkpt><trkpt lat="45.6035826" lon="10.4592007"><ele>214.33333333333334</ele><time>2026-03-29T12:47:06.546Z</time></trkpt><trkpt lat="45.6036444" lon="10.4594152"><ele>215.0</ele><time>2026-03-29T12:47:07.553Z</time></trkpt><trkpt lat="45.6037076" lon="10.459633"><ele>215.66666666666669</ele><time>2026-03-29T12:47:08.551Z</time></trkpt><trkpt lat="45.6037739" lon="10.4598439"><ele>216.33333333333331</ele><time>2026-03-29T12:47:09.541Z</time></trkpt><trkpt lat="45.6038397" lon="10.4600531"><ele>217.0</ele><time>2026-03-29T12:47:10.535Z</time></trkpt><trkpt lat="45.6038964" lon="10.4602625"><ele>216.75</ele><time>2026-03-29T12:47:11.536Z</time></trkpt><trkpt lat="45.6039539" lon="10.460458"><ele>216.5</ele><time>2026-03-29T12:47:12.544Z</time></trkpt><trkpt lat="45.6040074" lon="10.4606396"><ele>216.25</ele><time>2026-03-29T12:47:13.541Z</time></trkpt><trkpt lat="45.604061" lon="10.4608171"><ele>216.0</ele><time>2026-03-29T12:47:14.534Z</time></trkpt><trkpt lat="45.6041179" lon="10.4609982"><ele>216.0</ele><time>2026-03-29T12:47:15.555Z</time></trkpt><trkpt lat="45.6041749" lon="10.4611816"><ele>216.0</ele><time>2026-03-29T12:47:16.547Z</time></trkpt><trkpt lat="45.6042325" lon="10.4613726"><ele>216.0</ele><time>2026-03-29T12:47:17.559Z</time></trkpt><trkpt lat="45.6042874" lon="10.4615484"><ele>216.0</ele><time>2026-03-29T12:47:18.541Z</time></trkpt><trkpt lat="45.6043347" lon="10.4617172"><ele>216.20000000000002</ele><time>2026-03-29T12:47:19.548Z</time></trkpt><trkpt lat="45.6043778" lon="10.4618663"><ele>216.40000000000003</ele><time>2026-03-29T12:47:20.536Z</time></trkpt><trkpt lat="45.6044187" lon="10.4620128"><ele>216.6</ele><time>2026-03-29T12:47:21.556Z</time></trkpt><trkpt lat="45.6044616" lon="10.4621518"><ele>216.8</ele><time>2026-03-29T12:47:22.543Z</time></trkpt><trkpt lat="45.6045027" lon="10.4622929"><ele>217.0</ele><time>2026-03-29T12:47:23.535Z</time></trkpt><trkpt lat="45.6045437" lon="10.4624355"><ele>217.0</ele><time>2026-03-29T12:47:24.54Z</time></trkpt><trkpt lat="45.6045849" lon="10.4625766"><ele>217.0</ele><time>2026-03-29T12:47:25.543Z</time></trkpt><trkpt lat="45.6046281" lon="10.4627225"><ele>217.0</ele><time>2026-03-29T12:47:26.557Z</time></trkpt><trkpt lat="45.604671" lon="10.4628688"><ele>217.0</ele><time>2026-03-29T12:47:27.537Z</time></trkpt><trkpt lat="45.60472" lon="10.4630222"><ele>217.0</ele><time>2026-03-29T12:47:28.533Z</time></trkpt><trkpt lat="45.6047703" lon="10.4631833"><ele>217.0</ele><time>2026-03-29T12:47:29.528Z</time></trkpt><trkpt lat="45.6048194" lon="10.4633534"><ele>217.0</ele><time>2026-03-29T12:47:30.528Z</time></trkpt><trkpt lat="45.6048687" lon="10.4635229"><ele>217.0</ele><time>2026-03-29T12:47:31.526Z</time></trkpt><trkpt lat="45.6049184" lon="10.4636828"><ele>217.0</ele><time>2026-03-29T12:47:32.531Z</time></trkpt><trkpt lat="45.6049612" lon="10.4638334"><ele>217.0</ele><time>2026-03-29T12:47:33.546Z</time></trkpt><trkpt lat="45.6049981" lon="10.4639645"><ele>217.0</ele><time>2026-03-29T12:47:34.532Z</time></trkpt><trkpt lat="45.6050319" lon="10.4640907"><ele>217.0</ele><time>2026-03-29T12:47:35.542Z</time></trkpt><trkpt lat="45.6050655" lon="10.4642156"><ele>217.0</ele><time>2026-03-29T12:47:36.538Z</time></trkpt><trkpt lat="45.6050951" lon="10.4643384"><ele>217.0</ele><time>2026-03-29T12:47:37.538Z</time></trkpt><trkpt lat="45.6051139" lon="10.4644521"><ele>217.0</ele><time>2026-03-29T12:47:38.535Z</time></trkpt><trkpt lat="45.6050859" lon="10.4645875"><ele>217.0</ele><time>2026-03-29T12:47:40.531Z</time></trkpt><trkpt lat="45.605039" lon="10.4646886"><ele>217.0</ele><time>2026-03-29T12:47:41.546Z</time></trkpt><trkpt lat="45.6049942" lon="10.4647846"><ele>217.0</ele><time>2026-03-29T12:47:42.53Z</time></trkpt><trkpt lat="45.6049663" lon="10.4649094"><ele>217.0</ele><time>2026-03-29T12:47:43.534Z</time></trkpt><trkpt lat="45.6049957" lon="10.4650764"><ele>217.16666666666666</ele><time>2026-03-29T12:47:45.523Z</time></trkpt><trkpt lat="45.6050581" lon="10.4651558"><ele>217.33333333333331</ele><time>2026-03-29T12:47:46.537Z</time></trkpt><trkpt lat="45.6051218" lon="10.4651725"><ele>217.5</ele><time>2026-03-29T12:47:47.537Z</time></trkpt><trkpt lat="45.6052044" lon="10.4651736"><ele>217.66666666666669</ele><time>2026-03-29T12:47:48.535Z</time></trkpt><trkpt lat="45.6052741" lon="10.4651768"><ele>217.83333333333334</ele><time>2026-03-29T12:47:49.544Z</time></trkpt><trkpt lat="45.6053765" lon="10.4652667"><ele>218.0</ele><time>2026-03-29T12:47:51.543Z</time></trkpt><trkpt lat="45.6054513" lon="10.4653996"><ele>217.66666666666669</ele><time>2026-03-29T12:47:53.542Z</time></trkpt><trkpt lat="45.6055058" lon="10.4655164"><ele>217.33333333333331</ele><time>2026-03-29T12:47:54.544Z</time></trkpt><trkpt lat="45.6056475" lon="10.4658008"><ele>217.0</ele><time>2026-03-29T12:47:55.55Z</time></trkpt><trkpt lat="45.6057454" lon="10.4660301"><ele>217.0</ele><time>2026-03-29T12:47:56.556Z</time></trkpt><trkpt lat="45.6058368" lon="10.4662491"><ele>217.0</ele><time>2026-03-29T12:47:57.541Z</time></trkpt><trkpt lat="45.6058989" lon="10.4668846"><ele>217.66666666666666</ele><time>2026-03-29T12:47:58.533Z</time></trkpt><trkpt lat="45.6059644" lon="10.4671098"><ele>218.33333333333331</ele><time>2026-03-29T12:47:59.544Z</time></trkpt><trkpt lat="45.6060275" lon="10.4673199"><ele>219.0</ele><time>2026-03-29T12:48:00.539Z</time></trkpt><trkpt lat="45.606084" lon="10.4675088"><ele>219.0</ele><time>2026-03-29T12:48:01.546Z</time></trkpt><trkpt lat="45.6061392" lon="10.4677003"><ele>219.0</ele><time>2026-03-29T12:48:02.531Z</time></trkpt><trkpt lat="45.6061974" lon="10.4678965"><ele>219.0</ele><time>2026-03-29T12:48:03.549Z</time></trkpt><trkpt lat="45.6062579" lon="10.468094"><ele>219.0</ele><time>2026-03-29T12:48:04.549Z</time></trkpt><trkpt lat="45.6063179" lon="10.468291"><ele>219.5</ele><time>2026-03-29T12:48:05.54Z</time></trkpt><trkpt lat="45.6063733" lon="10.4684843"><ele>220.0</ele><time>2026-03-29T12:48:06.533Z</time></trkpt><trkpt lat="45.6064247" lon="10.4686726"><ele>220.5</ele><time>2026-03-29T12:48:07.535Z</time></trkpt><trkpt lat="45.6064838" lon="10.4688708"><ele>221.0</ele><time>2026-03-29T12:48:08.55Z</time></trkpt><trkpt lat="45.6065424" lon="10.4690568"><ele>221.0</ele><time>2026-03-29T12:48:09.549Z</time></trkpt><trkpt lat="45.6066014" lon="10.4692437"><ele>221.0</ele><time>2026-03-29T12:48:10.539Z</time></trkpt><trkpt lat="45.6066577" lon="10.4694223"><ele>221.0</ele><time>2026-03-29T12:48:11.532Z</time></trkpt><trkpt lat="45.6067148" lon="10.4696118"><ele>221.0</ele><time>2026-03-29T12:48:12.534Z</time></trkpt><trkpt lat="45.6067689" lon="10.4698005"><ele>221.75</ele><time>2026-03-29T12:48:13.543Z</time></trkpt><trkpt lat="45.6068238" lon="10.4699825"><ele>222.5</ele><time>2026-03-29T12:48:14.527Z</time></trkpt><trkpt lat="45.6068799" lon="10.4701715"><ele>223.25</ele><time>2026-03-29T12:48:15.55Z</time></trkpt><trkpt lat="45.6069299" lon="10.4703431"><ele>224.0</ele><time>2026-03-29T12:48:16.531Z</time></trkpt><trkpt lat="45.6069833" lon="10.4705191"><ele>223.25</ele><time>2026-03-29T12:48:17.536Z</time></trkpt><trkpt lat="45.6070372" lon="10.4706998"><ele>222.5</ele><time>2026-03-29T12:48:18.539Z</time></trkpt><trkpt lat="45.6070912" lon="10.4708886"><ele>221.75</ele><time>2026-03-29T12:48:19.541Z</time></trkpt><trkpt lat="45.6071472" lon="10.4710783"><ele>221.0</ele><time>2026-03-29T12:48:20.54Z</time></trkpt><trkpt lat="45.6072058" lon="10.4712742"><ele>221.0</ele><time>2026-03-29T12:48:21.545Z</time></trkpt><trkpt lat="45.6072682" lon="10.4714724"><ele>221.0</ele><time>2026-03-29T12:48:22.549Z</time></trkpt><trkpt lat="45.6073302" lon="10.4716794"><ele>221.0</ele><time>2026-03-29T12:48:23.551Z</time></trkpt><trkpt lat="45.6073867" lon="10.4718866"><ele>221.0</ele><time>2026-03-29T12:48:24.553Z</time></trkpt><trkpt lat="45.6074365" lon="10.47208"><ele>221.0</ele><time>2026-03-29T12:48:25.541Z</time></trkpt><trkpt lat="45.6074858" lon="10.4722867"><ele>221.0</ele><time>2026-03-29T12:48:26.539Z</time></trkpt><trkpt lat="45.6075381" lon="10.4724841"><ele>221.0</ele><time>2026-03-29T12:48:27.542Z</time></trkpt><trkpt lat="45.6075883" lon="10.4726736"><ele>221.75</ele><time>2026-03-29T12:48:28.535Z</time></trkpt><trkpt lat="45.6076363" lon="10.4728557"><ele>222.5</ele><time>2026-03-29T12:48:29.536Z</time></trkpt><trkpt lat="45.6076796" lon="10.4730283"><ele>223.25</ele><time>2026-03-29T12:48:30.543Z</time></trkpt><trkpt lat="45.6077213" lon="10.4732065"><ele>224.0</ele><time>2026-03-29T12:48:31.558Z</time></trkpt><trkpt lat="45.6077629" lon="10.4733831"><ele>225.25</ele><time>2026-03-29T12:48:32.537Z</time></trkpt><trkpt lat="45.6078051" lon="10.4735646"><ele>226.5</ele><time>2026-03-29T12:48:33.532Z</time></trkpt><trkpt lat="45.6078531" lon="10.4737539"><ele>227.75</ele><time>2026-03-29T12:48:34.533Z</time></trkpt><trkpt lat="45.6078953" lon="10.4739447"><ele>229.0</ele><time>2026-03-29T12:48:35.535Z</time></trkpt><trkpt lat="45.6079428" lon="10.4741395"><ele>227.0</ele><time>2026-03-29T12:48:36.553Z</time></trkpt><trkpt lat="45.6079872" lon="10.4743189"><ele>225.0</ele><time>2026-03-29T12:48:37.532Z</time></trkpt><trkpt lat="45.6080295" lon="10.474486"><ele>223.0</ele><time>2026-03-29T12:48:38.537Z</time></trkpt><trkpt lat="45.6080683" lon="10.4746357"><ele>221.0</ele><time>2026-03-29T12:48:39.538Z</time></trkpt><trkpt lat="45.6081076" lon="10.4747948"><ele>221.0</ele><time>2026-03-29T12:48:40.533Z</time></trkpt><trkpt lat="45.6081489" lon="10.4749675"><ele>221.0</ele><time>2026-03-29T12:48:41.535Z</time></trkpt><trkpt lat="45.6081898" lon="10.4751412"><ele>221.0</ele><time>2026-03-29T12:48:42.538Z</time></trkpt><trkpt lat="45.608234" lon="10.4753096"><ele>221.0</ele><time>2026-03-29T12:48:43.531Z</time></trkpt><trkpt lat="45.6082867" lon="10.4754796"><ele>221.25</ele><time>2026-03-29T12:48:44.548Z</time></trkpt><trkpt lat="45.6083578" lon="10.4756457"><ele>221.5</ele><time>2026-03-29T12:48:45.542Z</time></trkpt><trkpt lat="45.6084358" lon="10.4758127"><ele>221.75</ele><time>2026-03-29T12:48:46.535Z</time></trkpt><trkpt lat="45.6085249" lon="10.4759833"><ele>222.0</ele><time>2026-03-29T12:48:47.541Z</time></trkpt><trkpt lat="45.6086192" lon="10.4761556"><ele>222.0</ele><time>2026-03-29T12:48:48.54Z</time></trkpt><trkpt lat="45.6087144" lon="10.4763232"><ele>222.0</ele><time>2026-03-29T12:48:49.546Z</time></trkpt><trkpt lat="45.6088108" lon="10.4764884"><ele>222.0</ele><time>2026-03-29T12:48:50.545Z</time></trkpt><trkpt lat="45.6089014" lon="10.4766502"><ele>222.0</ele><time>2026-03-29T12:48:51.538Z</time></trkpt><trkpt lat="45.6089893" lon="10.4768085"><ele>222.0</ele><time>2026-03-29T12:48:52.534Z</time></trkpt><trkpt lat="45.6090764" lon="10.4769616"><ele>222.0</ele><time>2026-03-29T12:48:53.532Z</time></trkpt><trkpt lat="45.6091589" lon="10.4771027"><ele>222.0</ele><time>2026-03-29T12:48:54.525Z</time></trkpt><trkpt lat="45.6092475" lon="10.4772327"><ele>222.0</ele><time>2026-03-29T12:48:55.543Z</time></trkpt><trkpt lat="45.6093439" lon="10.4773685"><ele>221.75</ele><time>2026-03-29T12:48:56.542Z</time></trkpt><trkpt lat="45.6094755" lon="10.4774748"><ele>221.5</ele><time>2026-03-29T12:48:57.539Z</time></trkpt><trkpt lat="45.6096018" lon="10.4775711"><ele>221.25</ele><time>2026-03-29T12:48:58.542Z</time></trkpt><trkpt lat="45.609731" lon="10.4776716"><ele>221.0</ele><time>2026-03-29T12:48:59.532Z</time></trkpt><trkpt lat="45.6098486" lon="10.477771"><ele>221.0</ele><time>2026-03-29T12:49:00.525Z</time></trkpt><trkpt lat="45.609944" lon="10.4779029"><ele>221.0</ele><time>2026-03-29T12:49:01.539Z</time></trkpt><trkpt lat="45.6100439" lon="10.4780114"><ele>221.0</ele><time>2026-03-29T12:49:02.538Z</time></trkpt><trkpt lat="45.610142" lon="10.4781241"><ele>221.0</ele><time>2026-03-29T12:49:03.547Z</time></trkpt><trkpt lat="45.6102331" lon="10.478242"><ele>221.0</ele><time>2026-03-29T12:49:04.539Z</time></trkpt><trkpt lat="45.610323" lon="10.47837"><ele>221.0</ele><time>2026-03-29T12:49:05.531Z</time></trkpt><trkpt lat="45.6104169" lon="10.4785146"><ele>221.0</ele><time>2026-03-29T12:49:06.546Z</time></trkpt><trkpt lat="45.6105088" lon="10.4786639"><ele>221.0</ele><time>2026-03-29T12:49:07.537Z</time></trkpt><trkpt lat="45.6105997" lon="10.4788211"><ele>221.75</ele><time>2026-03-29T12:49:08.536Z</time></trkpt><trkpt lat="45.6106956" lon="10.4789818"><ele>222.5</ele><time>2026-03-29T12:49:09.532Z</time></trkpt><trkpt lat="45.6107911" lon="10.4791451"><ele>223.25</ele><time>2026-03-29T12:49:10.531Z</time></trkpt><trkpt lat="45.6108904" lon="10.4793023"><ele>224.0</ele><time>2026-03-29T12:49:11.537Z</time></trkpt><trkpt lat="45.6109783" lon="10.4794502"><ele>224.0</ele><time>2026-03-29T12:49:12.531Z</time></trkpt><trkpt lat="45.6110646" lon="10.4795886"><ele>224.0</ele><time>2026-03-29T12:49:13.544Z</time></trkpt><trkpt lat="45.6111449" lon="10.4797177"><ele>224.0</ele><time>2026-03-29T12:49:14.554Z</time></trkpt><trkpt lat="45.6112182" lon="10.4798335"><ele>224.0</ele><time>2026-03-29T12:49:15.528Z</time></trkpt><trkpt lat="45.6112902" lon="10.4799455"><ele>223.83333333333334</ele><time>2026-03-29T12:49:16.551Z</time></trkpt><trkpt lat="45.6113524" lon="10.4800442"><ele>223.66666666666669</ele><time>2026-03-29T12:49:17.537Z</time></trkpt><trkpt lat="45.611409" lon="10.4801396"><ele>223.5</ele><time>2026-03-29T12:49:18.522Z</time></trkpt><trkpt lat="45.6114643" lon="10.4802314"><ele>223.33333333333331</ele><time>2026-03-29T12:49:19.531Z</time></trkpt><trkpt lat="45.6115158" lon="10.4803182"><ele>223.16666666666666</ele><time>2026-03-29T12:49:20.527Z</time></trkpt><trkpt lat="45.6115615" lon="10.4803992"><ele>223.0</ele><time>2026-03-29T12:49:21.536Z</time></trkpt><trkpt lat="45.6116132" lon="10.4804811"><ele>222.99999999999997</ele><time>2026-03-29T12:49:23.531Z</time></trkpt><trkpt lat="45.6116555" lon="10.4805749"><ele>223.0</ele><time>2026-03-29T12:49:26.548Z</time></trkpt><trkpt lat="45.6116713" lon="10.4806722"><ele>223.0</ele><time>2026-03-29T12:49:29.526Z</time></trkpt><trkpt lat="45.6116889" lon="10.4808179"><ele>223.0</ele><time>2026-03-29T12:49:31.531Z</time></trkpt><trkpt lat="45.6116923" lon="10.4809235"><ele>222.99999999999997</ele><time>2026-03-29T12:49:32.544Z</time></trkpt><trkpt lat="45.6116846" lon="10.481069"><ele>223.0</ele><time>2026-03-29T12:49:34.545Z</time></trkpt><trkpt lat="45.6116489" lon="10.4811719"><ele>223.60000000000002</ele><time>2026-03-29T12:49:39.573Z</time></trkpt><trkpt lat="45.6116037" lon="10.481336"><ele>224.20000000000002</ele><time>2026-03-29T12:49:41.561Z</time></trkpt><trkpt lat="45.6115653" lon="10.4814461"><ele>224.8</ele><time>2026-03-29T12:49:42.555Z</time></trkpt><trkpt lat="45.6115274" lon="10.4815853"><ele>225.4</ele><time>2026-03-29T12:49:43.541Z</time></trkpt><trkpt lat="45.611489" lon="10.4817481"><ele>226.0</ele><time>2026-03-29T12:49:44.54Z</time></trkpt><trkpt lat="45.6114444" lon="10.4819285"><ele>226.33333333333331</ele><time>2026-03-29T12:49:45.555Z</time></trkpt><trkpt lat="45.6113926" lon="10.4821222"><ele>226.66666666666669</ele><time>2026-03-29T12:49:46.535Z</time></trkpt><trkpt lat="45.6113355" lon="10.4823264"><ele>227.0</ele><time>2026-03-29T12:49:47.546Z</time></trkpt><trkpt lat="45.6112762" lon="10.4825429"><ele>227.0</ele><time>2026-03-29T12:49:48.561Z</time></trkpt><trkpt lat="45.6112274" lon="10.4827473"><ele>227.0</ele><time>2026-03-29T12:49:49.544Z</time></trkpt><trkpt lat="45.6111933" lon="10.48297"><ele>227.0</ele><time>2026-03-29T12:49:50.557Z</time></trkpt><trkpt lat="45.6111803" lon="10.4831546"><ele>227.0</ele><time>2026-03-29T12:49:51.558Z</time></trkpt><trkpt lat="45.6111758" lon="10.4833523"><ele>225.33333333333334</ele><time>2026-03-29T12:49:52.534Z</time></trkpt><trkpt lat="45.6111971" lon="10.4835713"><ele>223.66666666666669</ele><time>2026-03-29T12:49:53.56Z</time></trkpt><trkpt lat="45.6112386" lon="10.4837749"><ele>222.0</ele><time>2026-03-29T12:49:54.539Z</time></trkpt><trkpt lat="45.6113028" lon="10.4839775"><ele>219.25</ele><time>2026-03-29T12:49:55.541Z</time></trkpt><trkpt lat="45.6113861" lon="10.4841639"><ele>216.5</ele><time>2026-03-29T12:49:56.532Z</time></trkpt><trkpt lat="45.6114747" lon="10.4843322"><ele>213.75</ele><time>2026-03-29T12:49:57.537Z</time></trkpt><trkpt lat="45.6115694" lon="10.4844857"><ele>211.0</ele><time>2026-03-29T12:49:58.542Z</time></trkpt><trkpt lat="45.6116541" lon="10.484629"><ele>208.25</ele><time>2026-03-29T12:49:59.538Z</time></trkpt><trkpt lat="45.6117335" lon="10.484767"><ele>205.5</ele><time>2026-03-29T12:50:00.542Z</time></trkpt><trkpt lat="45.6118114" lon="10.4849044"><ele>202.75</ele><time>2026-03-29T12:50:01.527Z</time></trkpt><trkpt lat="45.6118754" lon="10.4850514"><ele>200.0</ele><time>2026-03-29T12:50:02.539Z</time></trkpt><trkpt lat="45.6119285" lon="10.4852099"><ele>200.0</ele><time>2026-03-29T12:50:03.528Z</time></trkpt><trkpt lat="45.6119605" lon="10.4853862"><ele>200.0</ele><time>2026-03-29T12:50:04.534Z</time></trkpt><trkpt lat="45.611977" lon="10.4855859"><ele>200.0</ele><time>2026-03-29T12:50:05.541Z</time></trkpt><trkpt lat="45.611985" lon="10.4858081"><ele>200.0</ele><time>2026-03-29T12:50:06.531Z</time></trkpt><trkpt lat="45.6119967" lon="10.4860327"><ele>201.66666666666669</ele><time>2026-03-29T12:50:07.529Z</time></trkpt><trkpt lat="45.6120188" lon="10.4862622"><ele>203.33333333333331</ele><time>2026-03-29T12:50:08.529Z</time></trkpt><trkpt lat="45.6120513" lon="10.4864874"><ele>205.0</ele><time>2026-03-29T12:50:09.529Z</time></trkpt><trkpt lat="45.6120799" lon="10.4866975"><ele>205.0</ele><time>2026-03-29T12:50:10.539Z</time></trkpt><trkpt lat="45.612105" lon="10.4868927"><ele>205.0</ele><time>2026-03-29T12:50:11.53Z</time></trkpt><trkpt lat="45.6121275" lon="10.4870912"><ele>205.0</ele><time>2026-03-29T12:50:12.533Z</time></trkpt><trkpt lat="45.6121488" lon="10.4872918"><ele>205.0</ele><time>2026-03-29T12:50:13.531Z</time></trkpt><trkpt lat="45.612171" lon="10.48749"><ele>204.25</ele><time>2026-03-29T12:50:14.535Z</time></trkpt><trkpt lat="45.6121915" lon="10.4876737"><ele>203.5</ele><time>2026-03-29T12:50:15.54Z</time></trkpt><trkpt lat="45.6122082" lon="10.4878414"><ele>202.75</ele><time>2026-03-29T12:50:16.522Z</time></trkpt><trkpt lat="45.6122264" lon="10.4880029"><ele>202.0</ele><time>2026-03-29T12:50:17.546Z</time></trkpt><trkpt lat="45.6122424" lon="10.488144"><ele>201.8</ele><time>2026-03-29T12:50:18.525Z</time></trkpt><trkpt lat="45.6122587" lon="10.4882836"><ele>201.6</ele><time>2026-03-29T12:50:19.529Z</time></trkpt><trkpt lat="45.6122819" lon="10.4884329"><ele>201.4</ele><time>2026-03-29T12:50:20.543Z</time></trkpt><trkpt lat="45.6123125" lon="10.4885846"><ele>201.20000000000002</ele><time>2026-03-29T12:50:21.534Z</time></trkpt><trkpt lat="45.6123457" lon="10.4887498"><ele>201.0</ele><time>2026-03-29T12:50:22.542Z</time></trkpt><trkpt lat="45.6123695" lon="10.4889125"><ele>200.5</ele><time>2026-03-29T12:50:23.531Z</time></trkpt><trkpt lat="45.6123774" lon="10.4890909"><ele>200.0</ele><time>2026-03-29T12:50:24.563Z</time></trkpt><trkpt lat="45.6123715" lon="10.4892733"><ele>199.5</ele><time>2026-03-29T12:50:25.538Z</time></trkpt><trkpt lat="45.6123468" lon="10.4894736"><ele>199.0</ele><time>2026-03-29T12:50:26.542Z</time></trkpt><trkpt lat="45.6123093" lon="10.489685"><ele>198.66666666666666</ele><time>2026-03-29T12:50:27.551Z</time></trkpt><trkpt lat="45.6122656" lon="10.4898931"><ele>198.33333333333331</ele><time>2026-03-29T12:50:28.539Z</time></trkpt><trkpt lat="45.61221" lon="10.4900984"><ele>198.0</ele><time>2026-03-29T12:50:29.547Z</time></trkpt><trkpt lat="45.612144" lon="10.4902921"><ele>197.0</ele><time>2026-03-29T12:50:30.55Z</time></trkpt><trkpt lat="45.6120723" lon="10.4904734"><ele>196.0</ele><time>2026-03-29T12:50:31.536Z</time></trkpt><trkpt lat="45.6119986" lon="10.4906502"><ele>195.0</ele><time>2026-03-29T12:50:32.548Z</time></trkpt><trkpt lat="45.6119225" lon="10.4908204"><ele>194.0</ele><time>2026-03-29T12:50:33.549Z</time></trkpt><trkpt lat="45.6118549" lon="10.4909761"><ele>190.0</ele><time>2026-03-29T12:50:34.533Z</time></trkpt><trkpt lat="45.6117882" lon="10.4911374"><ele>186.0</ele><time>2026-03-29T12:50:35.534Z</time></trkpt><trkpt lat="45.6117152" lon="10.491309"><ele>182.0</ele><time>2026-03-29T12:50:36.553Z</time></trkpt><trkpt lat="45.6116383" lon="10.4914772"><ele>178.0</ele><time>2026-03-29T12:50:37.544Z</time></trkpt><trkpt lat="45.6115608" lon="10.4916507"><ele>178.0</ele><time>2026-03-29T12:50:38.546Z</time></trkpt><trkpt lat="45.6114853" lon="10.4918238"><ele>178.0</ele><time>2026-03-29T12:50:39.53Z</time></trkpt><trkpt lat="45.6114085" lon="10.4920044"><ele>178.0</ele><time>2026-03-29T12:50:40.532Z</time></trkpt><trkpt lat="45.6113283" lon="10.4921897"><ele>178.0</ele><time>2026-03-29T12:50:41.545Z</time></trkpt><trkpt lat="45.6112463" lon="10.492372"><ele>178.0</ele><time>2026-03-29T12:50:42.536Z</time></trkpt><trkpt lat="45.6111635" lon="10.4925593"><ele>178.0</ele><time>2026-03-29T12:50:43.545Z</time></trkpt><trkpt lat="45.6110813" lon="10.4927454"><ele>178.0</ele><time>2026-03-29T12:50:44.545Z</time></trkpt><trkpt lat="45.6110002" lon="10.4929333"><ele>176.33333333333334</ele><time>2026-03-29T12:50:45.53Z</time></trkpt><trkpt lat="45.6109201" lon="10.4931256"><ele>174.66666666666666</ele><time>2026-03-29T12:50:46.536Z</time></trkpt><trkpt lat="45.6108383" lon="10.4933177"><ele>173.0</ele><time>2026-03-29T12:50:47.536Z</time></trkpt><trkpt lat="45.610757" lon="10.4935037"><ele>173.0</ele><time>2026-03-29T12:50:48.543Z</time></trkpt><trkpt lat="45.6106803" lon="10.4936771"><ele>173.0</ele><time>2026-03-29T12:50:49.532Z</time></trkpt><trkpt lat="45.6106067" lon="10.4938436"><ele>173.0</ele><time>2026-03-29T12:50:50.535Z</time></trkpt><trkpt lat="45.6105374" lon="10.4940045"><ele>173.0</ele><time>2026-03-29T12:50:51.54Z</time></trkpt><trkpt lat="45.6104697" lon="10.4941595"><ele>172.5</ele><time>2026-03-29T12:50:52.534Z</time></trkpt><trkpt lat="45.6104071" lon="10.4943066"><ele>172.0</ele><time>2026-03-29T12:50:53.538Z</time></trkpt><trkpt lat="45.6103381" lon="10.4944577"><ele>171.5</ele><time>2026-03-29T12:50:54.535Z</time></trkpt><trkpt lat="45.6102682" lon="10.4946286"><ele>171.0</ele><time>2026-03-29T12:50:55.544Z</time></trkpt><trkpt lat="45.6101984" lon="10.4948145"><ele>167.66666666666666</ele><time>2026-03-29T12:50:56.543Z</time></trkpt><trkpt lat="45.6101324" lon="10.4950117"><ele>164.33333333333331</ele><time>2026-03-29T12:50:57.554Z</time></trkpt><trkpt lat="45.6100773" lon="10.4952297"><ele>161.0</ele><time>2026-03-29T12:50:58.551Z</time></trkpt><trkpt lat="45.6100302" lon="10.4954509"><ele>161.0</ele><time>2026-03-29T12:50:59.537Z</time></trkpt><trkpt lat="45.6099831" lon="10.4956717"><ele>161.0</ele><time>2026-03-29T12:51:00.537Z</time></trkpt><trkpt lat="45.6099359" lon="10.4958934"><ele>161.0</ele><time>2026-03-29T12:51:01.536Z</time></trkpt><trkpt lat="45.6098922" lon="10.496097"><ele>161.0</ele><time>2026-03-29T12:51:02.538Z</time></trkpt><trkpt lat="45.6098493" lon="10.4963014"><ele>161.0</ele><time>2026-03-29T12:51:03.561Z</time></trkpt><trkpt lat="45.6098131" lon="10.4964894"><ele>161.0</ele><time>2026-03-29T12:51:04.54Z</time></trkpt><trkpt lat="45.6097747" lon="10.4966784"><ele>161.0</ele><time>2026-03-29T12:51:05.539Z</time></trkpt><trkpt lat="45.6097352" lon="10.496876"><ele>160.0</ele><time>2026-03-29T12:51:06.543Z</time></trkpt><trkpt lat="45.6096989" lon="10.4970897"><ele>159.0</ele><time>2026-03-29T12:51:07.54Z</time></trkpt><trkpt lat="45.6096736" lon="10.4973245"><ele>158.0</ele><time>2026-03-29T12:51:08.554Z</time></trkpt><trkpt lat="45.6096639" lon="10.4975595"><ele>158.0</ele><time>2026-03-29T12:51:09.543Z</time></trkpt><trkpt lat="45.6096672" lon="10.4977945"><ele>158.0</ele><time>2026-03-29T12:51:10.57Z</time></trkpt><trkpt lat="45.6096797" lon="10.4980134"><ele>158.0</ele><time>2026-03-29T12:51:11.554Z</time></trkpt><trkpt lat="45.6097056" lon="10.4982032"><ele>157.0</ele><time>2026-03-29T12:51:12.524Z</time></trkpt><trkpt lat="45.60974" lon="10.4984067"><ele>156.0</ele><time>2026-03-29T12:51:13.545Z</time></trkpt><trkpt lat="45.6097815" lon="10.4985992"><ele>155.0</ele><time>2026-03-29T12:51:14.539Z</time></trkpt><trkpt lat="45.609837" lon="10.4987865"><ele>154.0</ele><time>2026-03-29T12:51:15.541Z</time></trkpt><trkpt lat="45.6098923" lon="10.4989669"><ele>153.0</ele><time>2026-03-29T12:51:16.543Z</time></trkpt><trkpt lat="45.6099467" lon="10.4991439"><ele>152.0</ele><time>2026-03-29T12:51:17.538Z</time></trkpt><trkpt lat="45.6100025" lon="10.4993149"><ele>151.0</ele><time>2026-03-29T12:51:18.54Z</time></trkpt><trkpt lat="45.6100513" lon="10.4994784"><ele>150.0</ele><time>2026-03-29T12:51:19.542Z</time></trkpt><trkpt lat="45.6101002" lon="10.4996347"><ele>149.0</ele><time>2026-03-29T12:51:20.525Z</time></trkpt><trkpt lat="45.6101491" lon="10.4997867"><ele>148.0</ele><time>2026-03-29T12:51:21.543Z</time></trkpt><trkpt lat="45.6102012" lon="10.4999375"><ele>147.0</ele><time>2026-03-29T12:51:22.547Z</time></trkpt><trkpt lat="45.610255" lon="10.5000832"><ele>146.0</ele><time>2026-03-29T12:51:23.571Z</time></trkpt><trkpt lat="45.6103054" lon="10.500204"><ele>145.0</ele><time>2026-03-29T12:51:24.533Z</time></trkpt><trkpt lat="45.6103524" lon="10.5003147"><ele>145.0</ele><time>2026-03-29T12:51:25.543Z</time></trkpt><trkpt lat="45.6103919" lon="10.5003975"><ele>145.0</ele><time>2026-03-29T12:51:26.545Z</time></trkpt><trkpt lat="45.6104245" lon="10.5005066"><ele>145.0</ele><time>2026-03-29T12:51:28.542Z</time></trkpt><trkpt lat="45.6104046" lon="10.5006195"><ele>145.0</ele><time>2026-03-29T12:51:30.555Z</time></trkpt><trkpt lat="45.6103634" lon="10.500712"><ele>145.0</ele><time>2026-03-29T12:51:31.536Z</time></trkpt><trkpt lat="45.6103014" lon="10.5007905"><ele>145.0</ele><time>2026-03-29T12:51:32.549Z</time></trkpt><trkpt lat="45.6102403" lon="10.5008278"><ele>142.6</ele><time>2026-03-29T12:51:33.545Z</time></trkpt><trkpt lat="45.6101551" lon="10.5008525"><ele>140.2</ele><time>2026-03-29T12:51:34.544Z</time></trkpt><trkpt lat="45.610057" lon="10.500847"><ele>137.8</ele><time>2026-03-29T12:51:35.547Z</time></trkpt><trkpt lat="45.6099492" lon="10.5008201"><ele>135.4</ele><time>2026-03-29T12:51:36.557Z</time></trkpt><trkpt lat="45.6098064" lon="10.5007774"><ele>133.0</ele><time>2026-03-29T12:51:37.555Z</time></trkpt><trkpt lat="45.6096487" lon="10.5007331"><ele>133.0</ele><time>2026-03-29T12:51:38.55Z</time></trkpt><trkpt lat="45.609507" lon="10.5006901"><ele>133.0</ele><time>2026-03-29T12:51:39.531Z</time></trkpt><trkpt lat="45.60937" lon="10.5006382"><ele>133.0</ele><time>2026-03-29T12:51:40.548Z</time></trkpt><trkpt lat="45.6092373" lon="10.5005856"><ele>133.0</ele><time>2026-03-29T12:51:41.552Z</time></trkpt><trkpt lat="45.6090971" lon="10.5005336"><ele>131.66666666666669</ele><time>2026-03-29T12:51:42.558Z</time></trkpt><trkpt lat="45.6089526" lon="10.50048"><ele>130.33333333333334</ele><time>2026-03-29T12:51:43.536Z</time></trkpt><trkpt lat="45.6087911" lon="10.500431"><ele>129.0</ele><time>2026-03-29T12:51:44.544Z</time></trkpt><trkpt lat="45.6086322" lon="10.5004161"><ele>128.0</ele><time>2026-03-29T12:51:45.54Z</time></trkpt><trkpt lat="45.6084579" lon="10.5004228"><ele>127.0</ele><time>2026-03-29T12:51:46.546Z</time></trkpt><trkpt lat="45.6082804" lon="10.5004521"><ele>126.0</ele><time>2026-03-29T12:51:47.541Z</time></trkpt><trkpt lat="45.6080933" lon="10.5005043"><ele>126.0</ele><time>2026-03-29T12:51:48.557Z</time></trkpt><trkpt lat="45.6078988" lon="10.5005735"><ele>126.0</ele><time>2026-03-29T12:51:49.545Z</time></trkpt><trkpt lat="45.6076974" lon="10.5006691"><ele>126.0</ele><time>2026-03-29T12:51:50.574Z</time></trkpt><trkpt lat="45.6074253" lon="10.5008276"><ele>131.0</ele><time>2026-03-29T12:51:51.897Z</time></trkpt><trkpt lat="45.6071566" lon="10.5010322"><ele>136.0</ele><time>2026-03-29T12:51:53.599Z</time></trkpt><trkpt lat="45.6070228" lon="10.5011674"><ele>136.66666666666669</ele><time>2026-03-29T12:51:54.591Z</time></trkpt><trkpt lat="45.6068801" lon="10.5013184"><ele>137.33333333333334</ele><time>2026-03-29T12:51:55.593Z</time></trkpt><trkpt lat="45.6067526" lon="10.5014734"><ele>138.0</ele><time>2026-03-29T12:51:56.587Z</time></trkpt><trkpt lat="45.6065244" lon="10.5010046"><ele>138.0</ele><time>2026-03-29T12:51:57.582Z</time></trkpt><trkpt lat="45.6063033" lon="10.5010709"><ele>138.0</ele><time>2026-03-29T12:51:58.604Z</time></trkpt><trkpt lat="45.6061157" lon="10.5011316"><ele>138.0</ele><time>2026-03-29T12:51:59.589Z</time></trkpt><trkpt lat="45.6059286" lon="10.5011256"><ele>128.0</ele><time>2026-03-29T12:52:00.589Z</time></trkpt><trkpt lat="45.6059507" lon="10.5017955"><ele>121.0</ele><time>2026-03-29T12:52:02.514Z</time></trkpt><trkpt lat="45.6059901" lon="10.5025467"><ele>118.0</ele><time>2026-03-29T12:52:03.582Z</time></trkpt><trkpt lat="45.6060759" lon="10.5031711"><ele>115.0</ele><time>2026-03-29T12:52:04.589Z</time></trkpt><trkpt lat="45.6061089" lon="10.5035857"><ele>114.25</ele><time>2026-03-29T12:52:05.587Z</time></trkpt><trkpt lat="45.6062203" lon="10.5036929"><ele>113.5</ele><time>2026-03-29T12:52:06.596Z</time></trkpt><trkpt lat="45.6063314" lon="10.5038259"><ele>112.75</ele><time>2026-03-29T12:52:07.603Z</time></trkpt><trkpt lat="45.6063996" lon="10.5039575"><ele>112.0</ele><time>2026-03-29T12:52:08.534Z</time></trkpt><trkpt lat="45.6064561" lon="10.5040617"><ele>110.8</ele><time>2026-03-29T12:52:09.527Z</time></trkpt><trkpt lat="45.6065075" lon="10.5041243"><ele>109.6</ele><time>2026-03-29T12:52:10.544Z</time></trkpt><trkpt lat="45.6065444" lon="10.5042265"><ele>108.39999999999999</ele><time>2026-03-29T12:52:14.549Z</time></trkpt><trkpt lat="45.6065281" lon="10.5044051"><ele>107.19999999999999</ele><time>2026-03-29T12:52:16.527Z</time></trkpt><trkpt lat="45.6065618" lon="10.504529"><ele>106.0</ele><time>2026-03-29T12:52:18.553Z</time></trkpt><trkpt lat="45.6067153" lon="10.5045414"><ele>106.0</ele><time>2026-03-29T12:52:20.541Z</time></trkpt><trkpt lat="45.6068249" lon="10.5045108"><ele>106.0</ele><time>2026-03-29T12:52:21.541Z</time></trkpt><trkpt lat="45.6069357" lon="10.5044784"><ele>106.0</ele><time>2026-03-29T12:52:22.537Z</time></trkpt><trkpt lat="45.6070482" lon="10.5044369"><ele>106.0</ele><time>2026-03-29T12:52:23.534Z</time></trkpt><trkpt lat="45.6071664" lon="10.5043854"><ele>105.75</ele><time>2026-03-29T12:52:24.541Z</time></trkpt><trkpt lat="45.6072772" lon="10.5043365"><ele>105.5</ele><time>2026-03-29T12:52:25.549Z</time></trkpt><trkpt lat="45.6073953" lon="10.5042832"><ele>105.25</ele><time>2026-03-29T12:52:26.541Z</time></trkpt><trkpt lat="45.6075187" lon="10.5042431"><ele>105.0</ele><time>2026-03-29T12:52:27.542Z</time></trkpt><trkpt lat="45.6076455" lon="10.5042202"><ele>105.0</ele><time>2026-03-29T12:52:28.534Z</time></trkpt><trkpt lat="45.6077769" lon="10.5042063"><ele>105.0</ele><time>2026-03-29T12:52:29.534Z</time></trkpt><trkpt lat="45.6079062" lon="10.5042155"><ele>105.0</ele><time>2026-03-29T12:52:30.537Z</time></trkpt><trkpt lat="45.6080271" lon="10.5042442"><ele>105.0</ele><time>2026-03-29T12:52:31.546Z</time></trkpt><trkpt lat="45.6081498" lon="10.5042945"><ele>104.25</ele><time>2026-03-29T12:52:32.546Z</time></trkpt><trkpt lat="45.6082659" lon="10.5043651"><ele>103.5</ele><time>2026-03-29T12:52:33.544Z</time></trkpt><trkpt lat="45.6083791" lon="10.5044621"><ele>102.75</ele><time>2026-03-29T12:52:34.54Z</time></trkpt><trkpt lat="45.6084791" lon="10.5045848"><ele>102.0</ele><time>2026-03-29T12:52:35.541Z</time></trkpt><trkpt lat="45.6085705" lon="10.5047291"><ele>101.75</ele><time>2026-03-29T12:52:36.541Z</time></trkpt><trkpt lat="45.6086449" lon="10.5048891"><ele>101.5</ele><time>2026-03-29T12:52:37.529Z</time></trkpt><trkpt lat="45.6087103" lon="10.5050694"><ele>101.25</ele><time>2026-03-29T12:52:38.533Z</time></trkpt><trkpt lat="45.6087588" lon="10.5052597"><ele>101.0</ele><time>2026-03-29T12:52:39.553Z</time></trkpt><trkpt lat="45.6087761" lon="10.5054372"><ele>100.5</ele><time>2026-03-29T12:52:40.541Z</time></trkpt><trkpt lat="45.60878" lon="10.5056161"><ele>100.0</ele><time>2026-03-29T12:52:41.543Z</time></trkpt><trkpt lat="45.6087622" lon="10.5057852"><ele>99.5</ele><time>2026-03-29T12:52:42.531Z</time></trkpt><trkpt lat="45.6087394" lon="10.5059448"><ele>99.0</ele><time>2026-03-29T12:52:43.55Z</time></trkpt><trkpt lat="45.6087117" lon="10.506098"><ele>99.0</ele><time>2026-03-29T12:52:44.571Z</time></trkpt><trkpt lat="45.6086914" lon="10.5062404"><ele>99.0</ele><time>2026-03-29T12:52:45.535Z</time></trkpt><trkpt lat="45.6086658" lon="10.5064068"><ele>99.0</ele><time>2026-03-29T12:52:46.529Z</time></trkpt><trkpt lat="45.6086343" lon="10.5065621"><ele>99.0</ele><time>2026-03-29T12:52:47.531Z</time></trkpt><trkpt lat="45.6086043" lon="10.5067138"><ele>99.0</ele><time>2026-03-29T12:52:48.547Z</time></trkpt><trkpt lat="45.6085722" lon="10.5068666"><ele>97.80000000000001</ele><time>2026-03-29T12:52:49.537Z</time></trkpt><trkpt lat="45.6085472" lon="10.5070111"><ele>96.60000000000001</ele><time>2026-03-29T12:52:50.529Z</time></trkpt><trkpt lat="45.6085243" lon="10.507165"><ele>95.4</ele><time>2026-03-29T12:52:51.546Z</time></trkpt><trkpt lat="45.6085064" lon="10.5073215"><ele>94.2</ele><time>2026-03-29T12:52:52.544Z</time></trkpt><trkpt lat="45.6084816" lon="10.5074933"><ele>93.0</ele><time>2026-03-29T12:52:53.566Z</time></trkpt><trkpt lat="45.6084504" lon="10.5076534"><ele>92.75</ele><time>2026-03-29T12:52:54.55Z</time></trkpt><trkpt lat="45.6084293" lon="10.5078061"><ele>92.5</ele><time>2026-03-29T12:52:55.546Z</time></trkpt><trkpt lat="45.6084122" lon="10.507968"><ele>92.25</ele><time>2026-03-29T12:52:56.529Z</time></trkpt><trkpt lat="45.6083922" lon="10.5081347"><ele>92.0</ele><time>2026-03-29T12:52:57.533Z</time></trkpt><trkpt lat="45.6083799" lon="10.5082942"><ele>91.6</ele><time>2026-03-29T12:52:58.536Z</time></trkpt><trkpt lat="45.6083642" lon="10.5084506"><ele>91.19999999999999</ele><time>2026-03-29T12:52:59.539Z</time></trkpt><trkpt lat="45.608357" lon="10.5085897"><ele>90.8</ele><time>2026-03-29T12:53:00.554Z</time></trkpt><trkpt lat="45.6083518" lon="10.5087393"><ele>90.4</ele><time>2026-03-29T12:53:01.546Z</time></trkpt><trkpt lat="45.6083405" lon="10.5088796"><ele>90.0</ele><time>2026-03-29T12:53:02.544Z</time></trkpt><trkpt lat="45.608331" lon="10.5090199"><ele>90.0</ele><time>2026-03-29T12:53:03.543Z</time></trkpt><trkpt lat="45.6083206" lon="10.5091556"><ele>90.0</ele><time>2026-03-29T12:53:04.54Z</time></trkpt><trkpt lat="45.608311" lon="10.5092842"><ele>90.0</ele><time>2026-03-29T12:53:05.536Z</time></trkpt><trkpt lat="45.6083004" lon="10.5094241"><ele>90.0</ele><time>2026-03-29T12:53:06.529Z</time></trkpt><trkpt lat="45.6082849" lon="10.5095659"><ele>90.0</ele><time>2026-03-29T12:53:07.54Z</time></trkpt><trkpt lat="45.6082701" lon="10.5097154"><ele>90.33333333333333</ele><time>2026-03-29T12:53:08.544Z</time></trkpt><trkpt lat="45.6082584" lon="10.5098642"><ele>90.66666666666667</ele><time>2026-03-29T12:53:09.535Z</time></trkpt><trkpt lat="45.6082484" lon="10.5100023"><ele>91.0</ele><time>2026-03-29T12:53:10.558Z</time></trkpt><trkpt lat="45.6082384" lon="10.5101099"><ele>91.33333333333334</ele><time>2026-03-29T12:53:11.536Z</time></trkpt><trkpt lat="45.6082283" lon="10.5102021"><ele>91.66666666666667</ele><time>2026-03-29T12:53:12.554Z</time></trkpt><trkpt lat="45.60822" lon="10.5102976"><ele>92.0</ele><time>2026-03-29T12:53:13.558Z</time></trkpt><trkpt lat="45.6082109" lon="10.5103981"><ele>92.16666666666667</ele><time>2026-03-29T12:53:14.543Z</time></trkpt><trkpt lat="45.6082048" lon="10.5105002"><ele>92.33333333333334</ele><time>2026-03-29T12:53:15.554Z</time></trkpt><trkpt lat="45.608195" lon="10.5106037"><ele>92.5</ele><time>2026-03-29T12:53:16.534Z</time></trkpt><trkpt lat="45.6081835" lon="10.5107052"><ele>92.66666666666667</ele><time>2026-03-29T12:53:17.559Z</time></trkpt><trkpt lat="45.6081779" lon="10.5108007"><ele>92.83333333333333</ele><time>2026-03-29T12:53:18.541Z</time></trkpt><trkpt lat="45.6081644" lon="10.5109599"><ele>93.0</ele><time>2026-03-29T12:53:20.55Z</time></trkpt><trkpt lat="45.6081021" lon="10.5110508"><ele>93.0</ele><time>2026-03-29T12:53:22.57Z</time></trkpt><trkpt lat="45.6079583" lon="10.5110374"><ele>93.0</ele><time>2026-03-29T12:53:24.543Z</time></trkpt><trkpt lat="45.6078561" lon="10.5109899"><ele>93.0</ele><time>2026-03-29T12:53:25.541Z</time></trkpt><trkpt lat="45.6077516" lon="10.5109454"><ele>93.0</ele><time>2026-03-29T12:53:26.545Z</time></trkpt><trkpt lat="45.6076487" lon="10.5109057"><ele>91.75</ele><time>2026-03-29T12:53:27.547Z</time></trkpt><trkpt lat="45.6075421" lon="10.5108656"><ele>90.5</ele><time>2026-03-29T12:53:28.551Z</time></trkpt><trkpt lat="45.6074179" lon="10.5108268"><ele>89.25</ele><time>2026-03-29T12:53:29.552Z</time></trkpt><trkpt lat="45.6072875" lon="10.5107929"><ele>88.0</ele><time>2026-03-29T12:53:30.537Z</time></trkpt><trkpt lat="45.6071551" lon="10.5107668"><ele>88.0</ele><time>2026-03-29T12:53:31.564Z</time></trkpt><trkpt lat="45.607033" lon="10.5107536"><ele>88.0</ele><time>2026-03-29T12:53:32.559Z</time></trkpt><trkpt lat="45.6069071" lon="10.5107504"><ele>88.0</ele><time>2026-03-29T12:53:33.542Z</time></trkpt><trkpt lat="45.6067799" lon="10.5107658"><ele>88.0</ele><time>2026-03-29T12:53:34.544Z</time></trkpt><trkpt lat="45.6066546" lon="10.5108019"><ele>87.5</ele><time>2026-03-29T12:53:35.536Z</time></trkpt><trkpt lat="45.6065427" lon="10.5108575"><ele>87.0</ele><time>2026-03-29T12:53:36.537Z</time></trkpt><trkpt lat="45.6064276" lon="10.5109273"><ele>86.5</ele><time>2026-03-29T12:53:37.543Z</time></trkpt><trkpt lat="45.606328" lon="10.5109952"><ele>86.0</ele><time>2026-03-29T12:53:38.555Z</time></trkpt><trkpt lat="45.6062278" lon="10.5110621"><ele>85.19999999999999</ele><time>2026-03-29T12:53:39.537Z</time></trkpt><trkpt lat="45.606133" lon="10.5111245"><ele>84.39999999999999</ele><time>2026-03-29T12:53:40.58Z</time></trkpt><trkpt lat="45.6060447" lon="10.5111751"><ele>83.6</ele><time>2026-03-29T12:53:41.54Z</time></trkpt><trkpt lat="45.6059574" lon="10.5112321"><ele>82.8</ele><time>2026-03-29T12:53:42.533Z</time></trkpt><trkpt lat="45.6058832" lon="10.5112944"><ele>82.0</ele><time>2026-03-29T12:53:43.556Z</time></trkpt><trkpt lat="45.6058124" lon="10.5113664"><ele>82.0</ele><time>2026-03-29T12:53:44.551Z</time></trkpt><trkpt lat="45.6057414" lon="10.5114507"><ele>82.0</ele><time>2026-03-29T12:53:45.544Z</time></trkpt><trkpt lat="45.6056671" lon="10.511549"><ele>82.0</ele><time>2026-03-29T12:53:46.539Z</time></trkpt><trkpt lat="45.6055909" lon="10.511654"><ele>82.0</ele><time>2026-03-29T12:53:47.529Z</time></trkpt><trkpt lat="45.6055098" lon="10.5117533"><ele>82.0</ele><time>2026-03-29T12:53:48.541Z</time></trkpt><trkpt lat="45.6054274" lon="10.5118421"><ele>82.0</ele><time>2026-03-29T12:53:49.54Z</time></trkpt><trkpt lat="45.6053459" lon="10.5119274"><ele>82.0</ele><time>2026-03-29T12:53:50.546Z</time></trkpt><trkpt lat="45.6052679" lon="10.5120212"><ele>82.0</ele><time>2026-03-29T12:53:51.535Z</time></trkpt><trkpt lat="45.6052093" lon="10.5121389"><ele>82.0</ele><time>2026-03-29T12:53:52.534Z</time></trkpt><trkpt lat="45.6051466" lon="10.5122562"><ele>82.0</ele><time>2026-03-29T12:53:53.545Z</time></trkpt><trkpt lat="45.6050885" lon="10.5123682"><ele>81.6</ele><time>2026-03-29T12:53:54.53Z</time></trkpt><trkpt lat="45.6050441" lon="10.5124998"><ele>81.19999999999999</ele><time>2026-03-29T12:53:55.56Z</time></trkpt><trkpt lat="45.6050198" lon="10.5126313"><ele>80.8</ele><time>2026-03-29T12:53:56.536Z</time></trkpt><trkpt lat="45.6050171" lon="10.5127709"><ele>80.4</ele><time>2026-03-29T12:53:57.534Z</time></trkpt><trkpt lat="45.6050305" lon="10.5129136"><ele>80.0</ele><time>2026-03-29T12:53:58.536Z</time></trkpt><trkpt lat="45.6050531" lon="10.5130567"><ele>79.6</ele><time>2026-03-29T12:53:59.53Z</time></trkpt><trkpt lat="45.6050838" lon="10.5132046"><ele>79.2</ele><time>2026-03-29T12:54:00.546Z</time></trkpt><trkpt lat="45.6051201" lon="10.5133398"><ele>78.8</ele><time>2026-03-29T12:54:01.532Z</time></trkpt><trkpt lat="45.6051619" lon="10.5134775"><ele>78.4</ele><time>2026-03-29T12:54:02.535Z</time></trkpt><trkpt lat="45.6052057" lon="10.5136133"><ele>78.0</ele><time>2026-03-29T12:54:03.535Z</time></trkpt><trkpt lat="45.6052495" lon="10.5137486"><ele>77.83333333333333</ele><time>2026-03-29T12:54:04.534Z</time></trkpt><trkpt lat="45.6052943" lon="10.5138841"><ele>77.66666666666667</ele><time>2026-03-29T12:54:05.554Z</time></trkpt><trkpt lat="45.6053333" lon="10.5140083"><ele>77.5</ele><time>2026-03-29T12:54:06.531Z</time></trkpt><trkpt lat="45.6053708" lon="10.514122"><ele>77.33333333333334</ele><time>2026-03-29T12:54:07.549Z</time></trkpt><trkpt lat="45.6054017" lon="10.5142254"><ele>77.16666666666667</ele><time>2026-03-29T12:54:08.548Z</time></trkpt><trkpt lat="45.6054245" lon="10.5143241"><ele>77.0</ele><time>2026-03-29T12:54:09.535Z</time></trkpt><trkpt lat="45.6054435" lon="10.5144119"><ele>77.0</ele><time>2026-03-29T12:54:10.54Z</time></trkpt><trkpt lat="45.6054516" lon="10.514504"><ele>77.0</ele><time>2026-03-29T12:54:11.53Z</time></trkpt><trkpt lat="45.605447" lon="10.5145963"><ele>77.0</ele><time>2026-03-29T12:54:12.545Z</time></trkpt><trkpt lat="45.6054295" lon="10.5147013"><ele>77.0</ele><time>2026-03-29T12:54:13.557Z</time></trkpt><trkpt lat="45.6054" lon="10.5148031"><ele>77.0</ele><time>2026-03-29T12:54:14.538Z</time></trkpt><trkpt lat="45.6053544" lon="10.5149042"><ele>77.0</ele><time>2026-03-29T12:54:15.538Z</time></trkpt><trkpt lat="45.6052946" lon="10.5150125"><ele>77.0</ele><time>2026-03-29T12:54:16.547Z</time></trkpt><trkpt lat="45.6052248" lon="10.5151133"><ele>77.0</ele><time>2026-03-29T12:54:17.538Z</time></trkpt><trkpt lat="45.6051469" lon="10.5152154"><ele>77.0</ele><time>2026-03-29T12:54:18.551Z</time></trkpt><trkpt lat="45.6050681" lon="10.5153165"><ele>77.0</ele><time>2026-03-29T12:54:19.546Z</time></trkpt><trkpt lat="45.6049866" lon="10.5154185"><ele>77.0</ele><time>2026-03-29T12:54:20.537Z</time></trkpt><trkpt lat="45.604902" lon="10.5155202"><ele>76.6</ele><time>2026-03-29T12:54:21.538Z</time></trkpt><trkpt lat="45.6048199" lon="10.5156167"><ele>76.2</ele><time>2026-03-29T12:54:22.539Z</time></trkpt><trkpt lat="45.6047446" lon="10.5157136"><ele>75.8</ele><time>2026-03-29T12:54:23.553Z</time></trkpt><trkpt lat="45.6046743" lon="10.5158003"><ele>75.4</ele><time>2026-03-29T12:54:24.539Z</time></trkpt><trkpt lat="45.6045974" lon="10.515881"><ele>75.0</ele><time>2026-03-29T12:54:25.543Z</time></trkpt><trkpt lat="45.6045221" lon="10.5159552"><ele>74.6</ele><time>2026-03-29T12:54:26.547Z</time></trkpt><trkpt lat="45.6044473" lon="10.5160241"><ele>74.2</ele><time>2026-03-29T12:54:27.544Z</time></trkpt><trkpt lat="45.6043819" lon="10.5160786"><ele>73.8</ele><time>2026-03-29T12:54:28.552Z</time></trkpt><trkpt lat="45.6043273" lon="10.5161293"><ele>73.4</ele><time>2026-03-29T12:54:29.546Z</time></trkpt><trkpt lat="45.6042444" lon="10.5162318"><ele>73.0</ele><time>2026-03-29T12:54:31.546Z</time></trkpt><trkpt lat="45.6041381" lon="10.51633"><ele>72.6</ele><time>2026-03-29T12:54:33.545Z</time></trkpt><trkpt lat="45.6040344" lon="10.5164335"><ele>72.19999999999999</ele><time>2026-03-29T12:54:35.541Z</time></trkpt><trkpt lat="45.6040094" lon="10.5166076"><ele>71.8</ele><time>2026-03-29T12:54:37.538Z</time></trkpt><trkpt lat="45.60408" lon="10.5167582"><ele>71.39999999999999</ele><time>2026-03-29T12:54:39.533Z</time></trkpt><trkpt lat="45.6041333" lon="10.51682"><ele>71.0</ele><time>2026-03-29T12:54:40.54Z</time></trkpt><trkpt lat="45.6041972" lon="10.5169673"><ele>71.0</ele><time>2026-03-29T12:54:42.565Z</time></trkpt><trkpt lat="45.6042342" lon="10.5171121"><ele>71.0</ele><time>2026-03-29T12:54:44.55Z</time></trkpt><trkpt lat="45.6042635" lon="10.5172541"><ele>71.0</ele><time>2026-03-29T12:54:46.544Z</time></trkpt><trkpt lat="45.6042814" lon="10.5173894"><ele>71.0</ele><time>2026-03-29T12:54:48.556Z</time></trkpt><trkpt lat="45.6041585" lon="10.5179786"><ele>71.0</ele><time>2026-03-29T12:54:49.566Z</time></trkpt><trkpt lat="45.6041594" lon="10.5181116"><ele>71.0</ele><time>2026-03-29T12:54:50.562Z</time></trkpt><trkpt lat="45.6041675" lon="10.5182463"><ele>71.0</ele><time>2026-03-29T12:54:51.547Z</time></trkpt><trkpt lat="45.6041759" lon="10.5183668"><ele>71.0</ele><time>2026-03-29T12:54:52.54Z</time></trkpt><trkpt lat="45.6041839" lon="10.5184832"><ele>71.0</ele><time>2026-03-29T12:54:53.538Z</time></trkpt><trkpt lat="45.6042017" lon="10.518594"><ele>71.0</ele><time>2026-03-29T12:54:54.539Z</time></trkpt><trkpt lat="45.6042226" lon="10.5187058"><ele>70.57142857142857</ele><time>2026-03-29T12:54:55.545Z</time></trkpt><trkpt lat="45.6042449" lon="10.5188086"><ele>70.14285714285714</ele><time>2026-03-29T12:54:56.536Z</time></trkpt><trkpt lat="45.6042654" lon="10.518919"><ele>69.71428571428571</ele><time>2026-03-29T12:54:57.546Z</time></trkpt><trkpt lat="45.604287" lon="10.5190109"><ele>69.28571428571428</ele><time>2026-03-29T12:54:58.558Z</time></trkpt><trkpt lat="45.6043188" lon="10.5191065"><ele>68.85714285714286</ele><time>2026-03-29T12:54:59.54Z</time></trkpt><trkpt lat="45.6043485" lon="10.5191915"><ele>68.42857142857142</ele><time>2026-03-29T12:55:00.556Z</time></trkpt><trkpt lat="45.6043695" lon="10.5192796"><ele>68.0</ele><time>2026-03-29T12:55:01.536Z</time></trkpt><trkpt lat="45.6043801" lon="10.5193746"><ele>68.0</ele><time>2026-03-29T12:55:02.546Z</time></trkpt><trkpt lat="45.6043698" lon="10.5194677"><ele>68.0</ele><time>2026-03-29T12:55:03.551Z</time></trkpt><trkpt lat="45.6043305" lon="10.5196218"><ele>68.0</ele><time>2026-03-29T12:55:05.535Z</time></trkpt><trkpt lat="45.6043699" lon="10.5197491"><ele>68.0</ele><time>2026-03-29T12:55:07.541Z</time></trkpt><trkpt lat="45.6044295" lon="10.519792"><ele>68.0</ele><time>2026-03-29T12:55:08.535Z</time></trkpt><trkpt lat="45.6045628" lon="10.5198087"><ele>68.6</ele><time>2026-03-29T12:55:10.534Z</time></trkpt><trkpt lat="45.6046441" lon="10.5198068"><ele>69.19999999999999</ele><time>2026-03-29T12:55:11.546Z</time></trkpt><trkpt lat="45.6047151" lon="10.5198187"><ele>69.8</ele><time>2026-03-29T12:55:12.533Z</time></trkpt><trkpt lat="45.6048222" lon="10.5198699"><ele>70.39999999999999</ele><time>2026-03-29T12:55:14.543Z</time></trkpt><trkpt lat="45.6049283" lon="10.5199213"><ele>71.0</ele><time>2026-03-29T12:55:16.541Z</time></trkpt><trkpt lat="45.6050014" lon="10.5200012"><ele>71.0</ele><time>2026-03-29T12:55:18.571Z</time></trkpt><trkpt lat="45.6050931" lon="10.5201054"><ele>71.0</ele><time>2026-03-29T12:55:20.545Z</time></trkpt><trkpt lat="45.6051595" lon="10.5202272"><ele>71.0</ele><time>2026-03-29T12:55:22.552Z</time></trkpt><trkpt lat="45.6052233" lon="10.5203604"><ele>71.0</ele><time>2026-03-29T12:55:24.54Z</time></trkpt><trkpt lat="45.6052659" lon="10.5204794"><ele>71.0</ele><time>2026-03-29T12:55:26.544Z</time></trkpt><trkpt lat="45.6053099" lon="10.5206191"><ele>72.0</ele><time>2026-03-29T12:55:28.544Z</time></trkpt><trkpt lat="45.6053387" lon="10.5207809"><ele>73.0</ele><time>2026-03-29T12:55:30.558Z</time></trkpt><trkpt lat="45.605373" lon="10.5209625"><ele>74.0</ele><time>2026-03-29T12:55:32.557Z</time></trkpt><trkpt lat="45.605388" lon="10.5210541"><ele>75.0</ele><time>2026-03-29T12:55:33.554Z</time></trkpt><trkpt lat="45.6054099" lon="10.5212121"><ele>76.0</ele><time>2026-03-29T12:55:35.537Z</time></trkpt><trkpt lat="45.6054118" lon="10.5213677"><ele>76.0</ele><time>2026-03-29T12:55:37.541Z</time></trkpt><trkpt lat="45.6054045" lon="10.5215235"><ele>76.0</ele><time>2026-03-29T12:55:39.545Z</time></trkpt><trkpt lat="45.6053977" lon="10.5216963"><ele>76.0</ele><time>2026-03-29T12:55:41.54Z</time></trkpt><trkpt lat="45.6053982" lon="10.5217876"><ele>76.0</ele><time>2026-03-29T12:55:42.552Z</time></trkpt><trkpt lat="45.6053974" lon="10.5218795"><ele>76.0</ele><time>2026-03-29T12:55:43.555Z</time></trkpt><trkpt lat="45.6053977" lon="10.5219826"><ele>76.0</ele><time>2026-03-29T12:55:44.55Z</time></trkpt><trkpt lat="45.6053925" lon="10.5220903"><ele>75.5</ele><time>2026-03-29T12:55:45.55Z</time></trkpt><trkpt lat="45.6053929" lon="10.5222068"><ele>75.0</ele><time>2026-03-29T12:55:46.558Z</time></trkpt><trkpt lat="45.6054004" lon="10.5223176"><ele>74.5</ele><time>2026-03-29T12:55:47.545Z</time></trkpt><trkpt lat="45.6054133" lon="10.5224306"><ele>74.0</ele><time>2026-03-29T12:55:48.551Z</time></trkpt><trkpt lat="45.605439" lon="10.5225387"><ele>73.5</ele><time>2026-03-29T12:55:49.564Z</time></trkpt><trkpt lat="45.6054701" lon="10.5226204"><ele>73.0</ele><time>2026-03-29T12:55:50.544Z</time></trkpt><trkpt lat="45.6055136" lon="10.5227023"><ele>73.0</ele><time>2026-03-29T12:55:51.55Z</time></trkpt><trkpt lat="45.6055595" lon="10.5227818"><ele>73.0</ele><time>2026-03-29T12:55:52.546Z</time></trkpt><trkpt lat="45.6056062" lon="10.5228588"><ele>73.0</ele><time>2026-03-29T12:55:53.556Z</time></trkpt><trkpt lat="45.6056513" lon="10.522934"><ele>73.0</ele><time>2026-03-29T12:55:54.549Z</time></trkpt><trkpt lat="45.6056996" lon="10.5229998"><ele>73.0</ele><time>2026-03-29T12:55:55.55Z</time></trkpt><trkpt lat="45.605749" lon="10.523061"><ele>73.0</ele><time>2026-03-29T12:55:56.553Z</time></trkpt><trkpt lat="45.6058377" lon="10.5231567"><ele>72.83333333333333</ele><time>2026-03-29T12:55:58.548Z</time></trkpt><trkpt lat="45.605941" lon="10.5232176"><ele>72.66666666666666</ele><time>2026-03-29T12:56:00.555Z</time></trkpt><trkpt lat="45.6060476" lon="10.5232146"><ele>72.5</ele><time>2026-03-29T12:56:02.544Z</time></trkpt><trkpt lat="45.6061031" lon="10.5231646"><ele>72.33333333333333</ele><time>2026-03-29T12:56:04.563Z</time></trkpt><trkpt lat="45.6061615" lon="10.5230768"><ele>72.16666666666667</ele><time>2026-03-29T12:56:06.545Z</time></trkpt><trkpt lat="45.6062087" lon="10.5230076"><ele>72.0</ele><time>2026-03-29T12:56:08.547Z</time></trkpt><trkpt lat="45.6063414" lon="10.5228493"><ele>72.0</ele><time>2026-03-29T12:56:11.612Z</time></trkpt><trkpt lat="45.6064327" lon="10.5227512"><ele>72.0</ele><time>2026-03-29T12:56:13.587Z</time></trkpt><trkpt lat="45.6065172" lon="10.5226534"><ele>72.0</ele><time>2026-03-29T12:56:15.594Z</time></trkpt><trkpt lat="45.6065969" lon="10.5225436"><ele>72.0</ele><time>2026-03-29T12:56:17.612Z</time></trkpt><trkpt lat="45.6066756" lon="10.5224411"><ele>72.0</ele><time>2026-03-29T12:56:19.607Z</time></trkpt><trkpt lat="45.6067433" lon="10.5223514"><ele>72.0</ele><time>2026-03-29T12:56:21.595Z</time></trkpt><trkpt lat="45.6068053" lon="10.5222805"><ele>72.0</ele><time>2026-03-29T12:56:24.597Z</time></trkpt><trkpt lat="45.6068749" lon="10.5221978"><ele>72.0</ele><time>2026-03-29T12:56:27.612Z</time></trkpt><trkpt lat="45.6069484" lon="10.5221277"><ele>72.0</ele><time>2026-03-29T12:56:29.541Z</time></trkpt><trkpt lat="45.6070153" lon="10.5220655"><ele>72.0</ele><time>2026-03-29T12:56:31.551Z</time></trkpt><trkpt lat="45.6070825" lon="10.5221123"><ele>72.0</ele><time>2026-03-29T12:56:34.558Z</time></trkpt><trkpt lat="45.6071333" lon="10.5222586"><ele>74.75</ele><time>2026-03-29T12:56:36.57Z</time></trkpt><trkpt lat="45.607157" lon="10.5224549"><ele>77.5</ele><time>2026-03-29T12:56:38.538Z</time></trkpt><trkpt lat="45.6071836" lon="10.5225892"><ele>80.25</ele><time>2026-03-29T12:56:39.551Z</time></trkpt><trkpt lat="45.6072339" lon="10.5228146"><ele>83.0</ele><time>2026-03-29T12:56:40.868Z</time></trkpt><trkpt lat="45.6072783" lon="10.5228898"><ele>82.66666666666667</ele><time>2026-03-29T12:56:42.623Z</time></trkpt><trkpt lat="45.6073008" lon="10.5229966"><ele>82.33333333333334</ele><time>2026-03-29T12:56:43.601Z</time></trkpt><trkpt lat="45.6073166" lon="10.5231146"><ele>82.0</ele><time>2026-03-29T12:56:44.606Z</time></trkpt><trkpt lat="45.6073294" lon="10.5232399"><ele>81.66666666666667</ele><time>2026-03-29T12:56:45.615Z</time></trkpt><trkpt lat="45.6073398" lon="10.5233615"><ele>81.33333333333333</ele><time>2026-03-29T12:56:46.611Z</time></trkpt><trkpt lat="45.6073492" lon="10.5234763"><ele>81.0</ele><time>2026-03-29T12:56:47.588Z</time></trkpt><trkpt lat="45.6073588" lon="10.5235945"><ele>81.0</ele><time>2026-03-29T12:56:48.605Z</time></trkpt><trkpt lat="45.6073684" lon="10.5237098"><ele>81.0</ele><time>2026-03-29T12:56:49.606Z</time></trkpt><trkpt lat="45.6073805" lon="10.5238226"><ele>81.0</ele><time>2026-03-29T12:56:50.597Z</time></trkpt><trkpt lat="45.607388" lon="10.5239426"><ele>81.0</ele><time>2026-03-29T12:56:51.62Z</time></trkpt><trkpt lat="45.6073968" lon="10.52406"><ele>81.0</ele><time>2026-03-29T12:56:52.616Z</time></trkpt><trkpt lat="45.6074069" lon="10.5241768"><ele>81.0</ele><time>2026-03-29T12:56:53.607Z</time></trkpt><trkpt lat="45.6074152" lon="10.524293"><ele>80.85714285714286</ele><time>2026-03-29T12:56:54.613Z</time></trkpt><trkpt lat="45.6074224" lon="10.5243937"><ele>80.71428571428571</ele><time>2026-03-29T12:56:55.599Z</time></trkpt><trkpt lat="45.6074245" lon="10.5244855"><ele>80.57142857142857</ele><time>2026-03-29T12:56:56.609Z</time></trkpt><trkpt lat="45.6074195" lon="10.5245774"><ele>80.42857142857143</ele><time>2026-03-29T12:56:57.614Z</time></trkpt><trkpt lat="45.607416" lon="10.5246701"><ele>80.28571428571429</ele><time>2026-03-29T12:56:58.594Z</time></trkpt><trkpt lat="45.6074186" lon="10.5247675"><ele>80.14285714285714</ele><time>2026-03-29T12:56:59.612Z</time></trkpt><trkpt lat="45.6074237" lon="10.5248607"><ele>80.0</ele><time>2026-03-29T12:57:00.598Z</time></trkpt><trkpt lat="45.6074295" lon="10.5249578"><ele>80.0</ele><time>2026-03-29T12:57:01.622Z</time></trkpt><trkpt lat="45.607428" lon="10.5250562"><ele>80.0</ele><time>2026-03-29T12:57:02.591Z</time></trkpt><trkpt lat="45.6074217" lon="10.5251652"><ele>80.0</ele><time>2026-03-29T12:57:03.597Z</time></trkpt><trkpt lat="45.6074151" lon="10.5252794"><ele>80.0</ele><time>2026-03-29T12:57:04.601Z</time></trkpt><trkpt lat="45.6074095" lon="10.5253945"><ele>80.0</ele><time>2026-03-29T12:57:05.544Z</time></trkpt><trkpt lat="45.6073997" lon="10.5255224"><ele>80.0</ele><time>2026-03-29T12:57:06.547Z</time></trkpt><trkpt lat="45.6073897" lon="10.5256469"><ele>80.16666666666667</ele><time>2026-03-29T12:57:07.545Z</time></trkpt><trkpt lat="45.6073826" lon="10.5257706"><ele>80.33333333333334</ele><time>2026-03-29T12:57:08.55Z</time></trkpt><trkpt lat="45.6073788" lon="10.5258994"><ele>80.5</ele><time>2026-03-29T12:57:09.545Z</time></trkpt><trkpt lat="45.6073733" lon="10.5260322"><ele>80.66666666666667</ele><time>2026-03-29T12:57:10.552Z</time></trkpt><trkpt lat="45.6073644" lon="10.5261439"><ele>80.83333333333333</ele><time>2026-03-29T12:57:11.538Z</time></trkpt><trkpt lat="45.6073661" lon="10.5262675"><ele>81.0</ele><time>2026-03-29T12:57:12.543Z</time></trkpt><trkpt lat="45.6073774" lon="10.5263887"><ele>81.16666666666667</ele><time>2026-03-29T12:57:13.554Z</time></trkpt><trkpt lat="45.6074006" lon="10.5265164"><ele>81.33333333333333</ele><time>2026-03-29T12:57:14.566Z</time></trkpt><trkpt lat="45.6074281" lon="10.5266384"><ele>81.5</ele><time>2026-03-29T12:57:15.546Z</time></trkpt><trkpt lat="45.6074506" lon="10.5267556"><ele>81.66666666666666</ele><time>2026-03-29T12:57:16.545Z</time></trkpt><trkpt lat="45.6074733" lon="10.5268698"><ele>81.83333333333333</ele><time>2026-03-29T12:57:17.546Z</time></trkpt><trkpt lat="45.6074971" lon="10.5269883"><ele>82.0</ele><time>2026-03-29T12:57:18.538Z</time></trkpt><trkpt lat="45.6075235" lon="10.5271201"><ele>82.0</ele><time>2026-03-29T12:57:19.549Z</time></trkpt><trkpt lat="45.6075529" lon="10.5272599"><ele>82.0</ele><time>2026-03-29T12:57:20.55Z</time></trkpt><trkpt lat="45.6075849" lon="10.5274031"><ele>82.0</ele><time>2026-03-29T12:57:21.548Z</time></trkpt><trkpt lat="45.6076211" lon="10.5275472"><ele>82.0</ele><time>2026-03-29T12:57:22.546Z</time></trkpt><trkpt lat="45.607661" lon="10.5276954"><ele>82.0</ele><time>2026-03-29T12:57:23.549Z</time></trkpt><trkpt lat="45.6077126" lon="10.5278867"><ele>81.25</ele><time>2026-03-29T12:57:24.858Z</time></trkpt><trkpt lat="45.6077683" lon="10.5281356"><ele>80.5</ele><time>2026-03-29T12:57:26.588Z</time></trkpt><trkpt lat="45.607805" lon="10.5282763"><ele>79.75</ele><time>2026-03-29T12:57:27.596Z</time></trkpt><trkpt lat="45.6078444" lon="10.5284151"><ele>79.0</ele><time>2026-03-29T12:57:28.594Z</time></trkpt><trkpt lat="45.6078805" lon="10.5285571"><ele>82.0</ele><time>2026-03-29T12:57:29.615Z</time></trkpt><trkpt lat="45.607912" lon="10.5286949"><ele>85.0</ele><time>2026-03-29T12:57:30.589Z</time></trkpt><trkpt lat="45.6079334" lon="10.5288416"><ele>88.0</ele><time>2026-03-29T12:57:31.604Z</time></trkpt><trkpt lat="45.607939" lon="10.528995"><ele>91.0</ele><time>2026-03-29T12:57:32.607Z</time></trkpt><trkpt lat="45.6079397" lon="10.5291554"><ele>94.0</ele><time>2026-03-29T12:57:33.622Z</time></trkpt><trkpt lat="45.6079326" lon="10.5293171"><ele>94.0</ele><time>2026-03-29T12:57:34.62Z</time></trkpt><trkpt lat="45.6079223" lon="10.5294797"><ele>94.0</ele><time>2026-03-29T12:57:35.597Z</time></trkpt><trkpt lat="45.6079081" lon="10.5296484"><ele>94.0</ele><time>2026-03-29T12:57:36.609Z</time></trkpt><trkpt lat="45.6078917" lon="10.5298095"><ele>94.0</ele><time>2026-03-29T12:57:37.611Z</time></trkpt><trkpt lat="45.6078738" lon="10.529963"><ele>93.0</ele><time>2026-03-29T12:57:38.6Z</time></trkpt><trkpt lat="45.6078564" lon="10.5301138"><ele>92.0</ele><time>2026-03-29T12:57:39.597Z</time></trkpt><trkpt lat="45.6078413" lon="10.5302684"><ele>91.0</ele><time>2026-03-29T12:57:40.611Z</time></trkpt><trkpt lat="45.6078299" lon="10.5304165"><ele>90.0</ele><time>2026-03-29T12:57:41.591Z</time></trkpt><trkpt lat="45.6078209" lon="10.5305678"><ele>89.0</ele><time>2026-03-29T12:57:42.604Z</time></trkpt><trkpt lat="45.607812" lon="10.5307129"><ele>87.4</ele><time>2026-03-29T12:57:43.588Z</time></trkpt><trkpt lat="45.6078041" lon="10.5308623"><ele>85.80000000000001</ele><time>2026-03-29T12:57:44.606Z</time></trkpt><trkpt lat="45.6077968" lon="10.5310069"><ele>84.19999999999999</ele><time>2026-03-29T12:57:45.603Z</time></trkpt><trkpt lat="45.6077891" lon="10.5311476"><ele>82.6</ele><time>2026-03-29T12:57:46.602Z</time></trkpt><trkpt lat="45.6077839" lon="10.5312807"><ele>81.0</ele><time>2026-03-29T12:57:47.601Z</time></trkpt><trkpt lat="45.6077829" lon="10.5314139"><ele>80.8</ele><time>2026-03-29T12:57:48.588Z</time></trkpt><trkpt lat="45.6077825" lon="10.5315537"><ele>80.6</ele><time>2026-03-29T12:57:49.595Z</time></trkpt><trkpt lat="45.6077828" lon="10.5316954"><ele>80.4</ele><time>2026-03-29T12:57:50.594Z</time></trkpt><trkpt lat="45.6077839" lon="10.5318392"><ele>80.2</ele><time>2026-03-29T12:57:51.596Z</time></trkpt><trkpt lat="45.6077851" lon="10.5319766"><ele>80.0</ele><time>2026-03-29T12:57:52.603Z</time></trkpt><trkpt lat="45.6077827" lon="10.5321069"><ele>79.5</ele><time>2026-03-29T12:57:53.601Z</time></trkpt><trkpt lat="45.6077769" lon="10.5322311"><ele>79.0</ele><time>2026-03-29T12:57:54.601Z</time></trkpt><trkpt lat="45.6077681" lon="10.5323474"><ele>78.5</ele><time>2026-03-29T12:57:55.602Z</time></trkpt><trkpt lat="45.6077513" lon="10.5324556"><ele>78.0</ele><time>2026-03-29T12:57:56.605Z</time></trkpt><trkpt lat="45.607722" lon="10.5325589"><ele>77.5</ele><time>2026-03-29T12:57:57.604Z</time></trkpt><trkpt lat="45.6076824" lon="10.5326616"><ele>77.0</ele><time>2026-03-29T12:57:58.595Z</time></trkpt><trkpt lat="45.6076426" lon="10.5327493"><ele>77.0</ele><time>2026-03-29T12:57:59.602Z</time></trkpt><trkpt lat="45.6075826" lon="10.5328585"><ele>77.0</ele><time>2026-03-29T12:58:01.621Z</time></trkpt><trkpt lat="45.6075336" lon="10.5329379"><ele>77.0</ele><time>2026-03-29T12:58:03.606Z</time></trkpt><trkpt lat="45.6074794" lon="10.5329996"><ele>77.0</ele><time>2026-03-29T12:58:06.605Z</time></trkpt><trkpt lat="45.6074923" lon="10.5330906"><ele>77.0</ele><time>2026-03-29T12:58:26.604Z</time></trkpt><trkpt lat="45.6075699" lon="10.5331573"><ele>77.0</ele><time>2026-03-29T12:58:28.61Z</time></trkpt><trkpt lat="45.6076078" lon="10.5332355"><ele>76.4</ele><time>2026-03-29T12:58:29.606Z</time></trkpt><trkpt lat="45.6076489" lon="10.5333425"><ele>75.80000000000001</ele><time>2026-03-29T12:58:30.594Z</time></trkpt><trkpt lat="45.6076919" lon="10.5334594"><ele>75.2</ele><time>2026-03-29T12:58:31.595Z</time></trkpt><trkpt lat="45.6077456" lon="10.533586"><ele>74.60000000000001</ele><time>2026-03-29T12:58:32.596Z</time></trkpt><trkpt lat="45.6078091" lon="10.5337265"><ele>74.0</ele><time>2026-03-29T12:58:33.602Z</time></trkpt><trkpt lat="45.6078814" lon="10.5338775"><ele>75.5</ele><time>2026-03-29T12:58:34.622Z</time></trkpt><trkpt lat="45.6079573" lon="10.5340197"><ele>77.0</ele><time>2026-03-29T12:58:35.607Z</time></trkpt><trkpt lat="45.6080394" lon="10.5341605"><ele>78.5</ele><time>2026-03-29T12:58:36.596Z</time></trkpt><trkpt lat="45.6081294" lon="10.5342995"><ele>80.0</ele><time>2026-03-29T12:58:37.602Z</time></trkpt><trkpt lat="45.6082267" lon="10.5344341"><ele>80.25</ele><time>2026-03-29T12:58:38.61Z</time></trkpt><trkpt lat="45.6083256" lon="10.5345616"><ele>80.5</ele><time>2026-03-29T12:58:39.586Z</time></trkpt><trkpt lat="45.6084367" lon="10.5346908"><ele>80.75</ele><time>2026-03-29T12:58:40.616Z</time></trkpt><trkpt lat="45.608548" lon="10.5348035"><ele>81.0</ele><time>2026-03-29T12:58:41.598Z</time></trkpt><trkpt lat="45.6086705" lon="10.5349106"><ele>81.0</ele><time>2026-03-29T12:58:42.608Z</time></trkpt><trkpt lat="45.6087946" lon="10.5350113"><ele>81.0</ele><time>2026-03-29T12:58:43.607Z</time></trkpt><trkpt lat="45.6089194" lon="10.5351113"><ele>81.0</ele><time>2026-03-29T12:58:44.616Z</time></trkpt><trkpt lat="45.6090393" lon="10.5352093"><ele>81.0</ele><time>2026-03-29T12:58:45.606Z</time></trkpt><trkpt lat="45.6091541" lon="10.5353143"><ele>82.25</ele><time>2026-03-29T12:58:46.601Z</time></trkpt><trkpt lat="45.6092584" lon="10.5354365"><ele>83.5</ele><time>2026-03-29T12:58:47.592Z</time></trkpt><trkpt lat="45.6093595" lon="10.5355775"><ele>84.75</ele><time>2026-03-29T12:58:48.589Z</time></trkpt><trkpt lat="45.60946" lon="10.5357382"><ele>86.0</ele><time>2026-03-29T12:58:49.594Z</time></trkpt><trkpt lat="45.6095543" lon="10.535887"><ele>86.0</ele><time>2026-03-29T12:58:50.542Z</time></trkpt><trkpt lat="45.6096536" lon="10.5360502"><ele>86.0</ele><time>2026-03-29T12:58:51.552Z</time></trkpt><trkpt lat="45.6097499" lon="10.5362097"><ele>86.0</ele><time>2026-03-29T12:58:52.54Z</time></trkpt><trkpt lat="45.6098525" lon="10.5363816"><ele>84.0</ele><time>2026-03-29T12:58:53.554Z</time></trkpt><trkpt lat="45.6099536" lon="10.5365453"><ele>82.0</ele><time>2026-03-29T12:58:54.536Z</time></trkpt><trkpt lat="45.6100505" lon="10.5367029"><ele>80.0</ele><time>2026-03-29T12:58:55.543Z</time></trkpt><trkpt lat="45.6101319" lon="10.5368474"><ele>78.0</ele><time>2026-03-29T12:58:56.546Z</time></trkpt><trkpt lat="45.6102046" lon="10.5369857"><ele>76.4</ele><time>2026-03-29T12:58:57.55Z</time></trkpt><trkpt lat="45.6102673" lon="10.5371168"><ele>74.8</ele><time>2026-03-29T12:58:58.548Z</time></trkpt><trkpt lat="45.610323" lon="10.5372402"><ele>73.2</ele><time>2026-03-29T12:58:59.535Z</time></trkpt><trkpt lat="45.6103768" lon="10.5373669"><ele>71.6</ele><time>2026-03-29T12:59:00.546Z</time></trkpt><trkpt lat="45.6104289" lon="10.5374962"><ele>70.0</ele><time>2026-03-29T12:59:01.535Z</time></trkpt><trkpt lat="45.6104827" lon="10.5376234"><ele>72.8</ele><time>2026-03-29T12:59:02.548Z</time></trkpt><trkpt lat="45.6105337" lon="10.537757"><ele>75.6</ele><time>2026-03-29T12:59:03.547Z</time></trkpt><trkpt lat="45.6105872" lon="10.5378903"><ele>78.4</ele><time>2026-03-29T12:59:04.545Z</time></trkpt><trkpt lat="45.6106388" lon="10.5380244"><ele>81.2</ele><time>2026-03-29T12:59:05.543Z</time></trkpt><trkpt lat="45.610687" lon="10.5381583"><ele>84.0</ele><time>2026-03-29T12:59:06.537Z</time></trkpt><trkpt lat="45.6107337" lon="10.5382966"><ele>84.0</ele><time>2026-03-29T12:59:07.549Z</time></trkpt><trkpt lat="45.6107823" lon="10.538432"><ele>84.0</ele><time>2026-03-29T12:59:08.544Z</time></trkpt><trkpt lat="45.6108311" lon="10.5385679"><ele>84.0</ele><time>2026-03-29T12:59:09.555Z</time></trkpt><trkpt lat="45.6108766" lon="10.5387019"><ele>84.0</ele><time>2026-03-29T12:59:10.556Z</time></trkpt><trkpt lat="45.6109252" lon="10.5388332"><ele>84.0</ele><time>2026-03-29T12:59:11.547Z</time></trkpt><trkpt lat="45.6109738" lon="10.5389701"><ele>84.4</ele><time>2026-03-29T12:59:12.561Z</time></trkpt><trkpt lat="45.6110239" lon="10.5391052"><ele>84.80000000000001</ele><time>2026-03-29T12:59:13.559Z</time></trkpt><trkpt lat="45.6110766" lon="10.5392384"><ele>85.19999999999999</ele><time>2026-03-29T12:59:14.562Z</time></trkpt><trkpt lat="45.6111318" lon="10.5393704"><ele>85.6</ele><time>2026-03-29T12:59:15.574Z</time></trkpt><trkpt lat="45.6111837" lon="10.5394995"><ele>86.0</ele><time>2026-03-29T12:59:16.561Z</time></trkpt><trkpt lat="45.61124" lon="10.5396292"><ele>86.0</ele><time>2026-03-29T12:59:17.571Z</time></trkpt><trkpt lat="45.6112949" lon="10.539755"><ele>86.0</ele><time>2026-03-29T12:59:18.549Z</time></trkpt><trkpt lat="45.6113486" lon="10.53988"><ele>86.0</ele><time>2026-03-29T12:59:19.547Z</time></trkpt><trkpt lat="45.6114025" lon="10.5399978"><ele>86.0</ele><time>2026-03-29T12:59:20.545Z</time></trkpt><trkpt lat="45.6114588" lon="10.5401132"><ele>86.0</ele><time>2026-03-29T12:59:21.535Z</time></trkpt><trkpt lat="45.6115214" lon="10.5402336"><ele>86.0</ele><time>2026-03-29T12:59:22.572Z</time></trkpt><trkpt lat="45.6115834" lon="10.5403513"><ele>86.0</ele><time>2026-03-29T12:59:23.564Z</time></trkpt><trkpt lat="45.6116495" lon="10.5404661"><ele>86.0</ele><time>2026-03-29T12:59:24.554Z</time></trkpt><trkpt lat="45.6117146" lon="10.5405799"><ele>86.0</ele><time>2026-03-29T12:59:25.546Z</time></trkpt><trkpt lat="45.6117766" lon="10.5407025"><ele>86.0</ele><time>2026-03-29T12:59:26.555Z</time></trkpt><trkpt lat="45.6118398" lon="10.5408213"><ele>85.8</ele><time>2026-03-29T12:59:27.549Z</time></trkpt><trkpt lat="45.6119026" lon="10.5409467"><ele>85.6</ele><time>2026-03-29T12:59:28.546Z</time></trkpt><trkpt lat="45.6119669" lon="10.5410733"><ele>85.4</ele><time>2026-03-29T12:59:29.558Z</time></trkpt><trkpt lat="45.6120271" lon="10.5411983"><ele>85.2</ele><time>2026-03-29T12:59:30.537Z</time></trkpt><trkpt lat="45.612087" lon="10.5413267"><ele>85.0</ele><time>2026-03-29T12:59:31.541Z</time></trkpt><trkpt lat="45.6121428" lon="10.5414565"><ele>85.0</ele><time>2026-03-29T12:59:32.555Z</time></trkpt><trkpt lat="45.6121957" lon="10.5415875"><ele>85.0</ele><time>2026-03-29T12:59:33.55Z</time></trkpt><trkpt lat="45.6122481" lon="10.5417251"><ele>85.0</ele><time>2026-03-29T12:59:34.571Z</time></trkpt><trkpt lat="45.6122902" lon="10.5418652"><ele>85.0</ele><time>2026-03-29T12:59:35.538Z</time></trkpt><trkpt lat="45.6123368" lon="10.54201"><ele>85.0</ele><time>2026-03-29T12:59:36.541Z</time></trkpt><trkpt lat="45.6123876" lon="10.5421539"><ele>83.8</ele><time>2026-03-29T12:59:37.542Z</time></trkpt><trkpt lat="45.6124319" lon="10.5423009"><ele>82.6</ele><time>2026-03-29T12:59:38.55Z</time></trkpt><trkpt lat="45.6124735" lon="10.5424477"><ele>81.4</ele><time>2026-03-29T12:59:39.544Z</time></trkpt><trkpt lat="45.6125134" lon="10.5425977"><ele>80.2</ele><time>2026-03-29T12:59:40.557Z</time></trkpt><trkpt lat="45.6125491" lon="10.5427483"><ele>79.0</ele><time>2026-03-29T12:59:41.542Z</time></trkpt><trkpt lat="45.612585" lon="10.5429059"><ele>77.75</ele><time>2026-03-29T12:59:42.541Z</time></trkpt><trkpt lat="45.6126197" lon="10.5430675"><ele>76.5</ele><time>2026-03-29T12:59:43.546Z</time></trkpt><trkpt lat="45.6126568" lon="10.5432271"><ele>75.25</ele><time>2026-03-29T12:59:44.542Z</time></trkpt><trkpt lat="45.6126961" lon="10.5433836"><ele>74.0</ele><time>2026-03-29T12:59:45.561Z</time></trkpt><trkpt lat="45.6127382" lon="10.5435224"><ele>74.0</ele><time>2026-03-29T12:59:46.535Z</time></trkpt><trkpt lat="45.6127808" lon="10.5436656"><ele>74.0</ele><time>2026-03-29T12:59:47.545Z</time></trkpt><trkpt lat="45.6128233" lon="10.5437971"><ele>74.0</ele><time>2026-03-29T12:59:48.538Z</time></trkpt><trkpt lat="45.612872" lon="10.5439358"><ele>74.0</ele><time>2026-03-29T12:59:49.542Z</time></trkpt><trkpt lat="45.6129256" lon="10.5440861"><ele>74.0</ele><time>2026-03-29T12:59:50.542Z</time></trkpt><trkpt lat="45.6129872" lon="10.5442487"><ele>77.66666666666667</ele><time>2026-03-29T12:59:51.551Z</time></trkpt><trkpt lat="45.6130566" lon="10.5444259"><ele>81.33333333333333</ele><time>2026-03-29T12:59:52.558Z</time></trkpt><trkpt lat="45.6131333" lon="10.5446148"><ele>85.0</ele><time>2026-03-29T12:59:53.553Z</time></trkpt><trkpt lat="45.6132092" lon="10.5448116"><ele>85.0</ele><time>2026-03-29T12:59:54.552Z</time></trkpt><trkpt lat="45.6132872" lon="10.5450188"><ele>85.0</ele><time>2026-03-29T12:59:55.549Z</time></trkpt><trkpt lat="45.613359" lon="10.5452341"><ele>85.0</ele><time>2026-03-29T12:59:56.541Z</time></trkpt><trkpt lat="45.6134219" lon="10.5454711"><ele>82.0</ele><time>2026-03-29T12:59:57.564Z</time></trkpt><trkpt lat="45.6134759" lon="10.5457156"><ele>79.0</ele><time>2026-03-29T12:59:58.562Z</time></trkpt><trkpt lat="45.6135263" lon="10.5459664"><ele>76.0</ele><time>2026-03-29T12:59:59.563Z</time></trkpt><trkpt lat="45.6135813" lon="10.5462287"><ele>75.33333333333333</ele><time>2026-03-29T13:00:00.551Z</time></trkpt><trkpt lat="45.6136313" lon="10.5465006"><ele>74.66666666666667</ele><time>2026-03-29T13:00:01.531Z</time></trkpt><trkpt lat="45.6136874" lon="10.5467927"><ele>74.0</ele><time>2026-03-29T13:00:02.573Z</time></trkpt><trkpt lat="45.6137426" lon="10.5470669"><ele>74.33333333333334</ele><time>2026-03-29T13:00:03.554Z</time></trkpt><trkpt lat="45.6137968" lon="10.5473468"><ele>74.66666666666667</ele><time>2026-03-29T13:00:04.544Z</time></trkpt><trkpt lat="45.6138509" lon="10.5476356"><ele>75.0</ele><time>2026-03-29T13:00:05.559Z</time></trkpt><trkpt lat="45.6139058" lon="10.5479202"><ele>75.0</ele><time>2026-03-29T13:00:06.556Z</time></trkpt><trkpt lat="45.6139579" lon="10.5482008"><ele>75.0</ele><time>2026-03-29T13:00:07.549Z</time></trkpt><trkpt lat="45.6140075" lon="10.5484745"><ele>75.0</ele><time>2026-03-29T13:00:08.545Z</time></trkpt><trkpt lat="45.6140565" lon="10.5487363"><ele>74.33333333333333</ele><time>2026-03-29T13:00:09.544Z</time></trkpt><trkpt lat="45.6141028" lon="10.5489779"><ele>73.66666666666666</ele><time>2026-03-29T13:00:10.546Z</time></trkpt><trkpt lat="45.6141433" lon="10.5492031"><ele>73.0</ele><time>2026-03-29T13:00:11.56Z</time></trkpt><trkpt lat="45.6141802" lon="10.5494089"><ele>73.0</ele><time>2026-03-29T13:00:12.542Z</time></trkpt><trkpt lat="45.6142186" lon="10.5496109"><ele>73.0</ele><time>2026-03-29T13:00:13.547Z</time></trkpt><trkpt lat="45.61426" lon="10.549814"><ele>73.0</ele><time>2026-03-29T13:00:14.55Z</time></trkpt><trkpt lat="45.6142985" lon="10.5500252"><ele>73.0</ele><time>2026-03-29T13:00:15.556Z</time></trkpt><trkpt lat="45.6143385" lon="10.5502374"><ele>72.75</ele><time>2026-03-29T13:00:16.57Z</time></trkpt><trkpt lat="45.6143781" lon="10.5504433"><ele>72.5</ele><time>2026-03-29T13:00:17.558Z</time></trkpt><trkpt lat="45.6144205" lon="10.5506465"><ele>72.25</ele><time>2026-03-29T13:00:18.543Z</time></trkpt><trkpt lat="45.6144681" lon="10.5508513"><ele>72.0</ele><time>2026-03-29T13:00:19.558Z</time></trkpt><trkpt lat="45.6145245" lon="10.5510455"><ele>73.25</ele><time>2026-03-29T13:00:20.552Z</time></trkpt><trkpt lat="45.6145925" lon="10.5512349"><ele>74.5</ele><time>2026-03-29T13:00:21.551Z</time></trkpt><trkpt lat="45.6146681" lon="10.5514162"><ele>75.75</ele><time>2026-03-29T13:00:22.551Z</time></trkpt><trkpt lat="45.6147464" lon="10.5516009"><ele>77.0</ele><time>2026-03-29T13:00:23.554Z</time></trkpt><trkpt lat="45.614825" lon="10.5517945"><ele>77.0</ele><time>2026-03-29T13:00:24.567Z</time></trkpt><trkpt lat="45.6149008" lon="10.5519905"><ele>77.0</ele><time>2026-03-29T13:00:25.549Z</time></trkpt><trkpt lat="45.6149814" lon="10.5521954"><ele>77.0</ele><time>2026-03-29T13:00:26.543Z</time></trkpt><trkpt lat="45.6150679" lon="10.5524008"><ele>76.66666666666667</ele><time>2026-03-29T13:00:27.541Z</time></trkpt><trkpt lat="45.6151578" lon="10.5526134"><ele>76.33333333333333</ele><time>2026-03-29T13:00:28.546Z</time></trkpt><trkpt lat="45.6152503" lon="10.5528262"><ele>76.0</ele><time>2026-03-29T13:00:29.556Z</time></trkpt><trkpt lat="45.6153407" lon="10.5530352"><ele>78.0</ele><time>2026-03-29T13:00:30.545Z</time></trkpt><trkpt lat="45.6154305" lon="10.553258"><ele>80.0</ele><time>2026-03-29T13:00:31.566Z</time></trkpt><trkpt lat="45.6155186" lon="10.5534746"><ele>82.0</ele><time>2026-03-29T13:00:32.543Z</time></trkpt><trkpt lat="45.6156101" lon="10.5536984"><ele>81.66666666666666</ele><time>2026-03-29T13:00:33.549Z</time></trkpt><trkpt lat="45.6157052" lon="10.5539242"><ele>81.33333333333333</ele><time>2026-03-29T13:00:34.554Z</time></trkpt><trkpt lat="45.6158076" lon="10.5541514"><ele>81.0</ele><time>2026-03-29T13:00:35.561Z</time></trkpt><trkpt lat="45.6159092" lon="10.5543822"><ele>79.66666666666667</ele><time>2026-03-29T13:00:36.562Z</time></trkpt><trkpt lat="45.6160134" lon="10.5546028"><ele>78.33333333333334</ele><time>2026-03-29T13:00:37.554Z</time></trkpt><trkpt lat="45.6161145" lon="10.5548184"><ele>77.0</ele><time>2026-03-29T13:00:38.587Z</time></trkpt><trkpt lat="45.616194" lon="10.5549825"><ele>77.0</ele><time>2026-03-29T13:00:39.543Z</time></trkpt><trkpt lat="45.616272" lon="10.5551457"><ele>77.0</ele><time>2026-03-29T13:00:40.556Z</time></trkpt><trkpt lat="45.6163432" lon="10.5552829"><ele>77.0</ele><time>2026-03-29T13:00:41.555Z</time></trkpt><trkpt lat="45.6164047" lon="10.5553995"><ele>77.0</ele><time>2026-03-29T13:00:42.552Z</time></trkpt><trkpt lat="45.6164627" lon="10.555516"><ele>77.0</ele><time>2026-03-29T13:00:43.554Z</time></trkpt><trkpt lat="45.6165167" lon="10.5556253"><ele>77.0</ele><time>2026-03-29T13:00:44.55Z</time></trkpt><trkpt lat="45.6165679" lon="10.5557326"><ele>77.0</ele><time>2026-03-29T13:00:45.562Z</time></trkpt><trkpt lat="45.6166196" lon="10.5558331"><ele>77.0</ele><time>2026-03-29T13:00:46.556Z</time></trkpt><trkpt lat="45.6166745" lon="10.5559373"><ele>77.0</ele><time>2026-03-29T13:00:47.568Z</time></trkpt><trkpt lat="45.6167284" lon="10.5560387"><ele>77.0</ele><time>2026-03-29T13:00:48.562Z</time></trkpt><trkpt lat="45.6167849" lon="10.5561472"><ele>77.0</ele><time>2026-03-29T13:00:49.542Z</time></trkpt><trkpt lat="45.616856" lon="10.5562731"><ele>77.0</ele><time>2026-03-29T13:00:50.551Z</time></trkpt><trkpt lat="45.6169227" lon="10.5563916"><ele>77.0</ele><time>2026-03-29T13:00:51.551Z</time></trkpt><trkpt lat="45.6169901" lon="10.5565064"><ele>77.0</ele><time>2026-03-29T13:00:52.559Z</time></trkpt><trkpt lat="45.6170558" lon="10.556621"><ele>77.5</ele><time>2026-03-29T13:00:53.548Z</time></trkpt><trkpt lat="45.617126" lon="10.5567474"><ele>78.0</ele><time>2026-03-29T13:00:54.554Z</time></trkpt><trkpt lat="45.6171966" lon="10.5568746"><ele>78.5</ele><time>2026-03-29T13:00:55.547Z</time></trkpt><trkpt lat="45.6172657" lon="10.5570128"><ele>79.0</ele><time>2026-03-29T13:00:56.559Z</time></trkpt><trkpt lat="45.6173303" lon="10.5571493"><ele>79.0</ele><time>2026-03-29T13:00:57.55Z</time></trkpt><trkpt lat="45.6173952" lon="10.5572811"><ele>79.0</ele><time>2026-03-29T13:00:58.577Z</time></trkpt><trkpt lat="45.6174522" lon="10.5573971"><ele>79.0</ele><time>2026-03-29T13:00:59.545Z</time></trkpt><trkpt lat="45.6175127" lon="10.5575156"><ele>79.0</ele><time>2026-03-29T13:01:00.547Z</time></trkpt><trkpt lat="45.617573" lon="10.5576303"><ele>79.0</ele><time>2026-03-29T13:01:01.543Z</time></trkpt><trkpt lat="45.6176343" lon="10.5577508"><ele>79.4</ele><time>2026-03-29T13:01:02.538Z</time></trkpt><trkpt lat="45.6176922" lon="10.5578706"><ele>79.80000000000001</ele><time>2026-03-29T13:01:03.564Z</time></trkpt><trkpt lat="45.6177586" lon="10.557983"><ele>80.19999999999999</ele><time>2026-03-29T13:01:04.559Z</time></trkpt><trkpt lat="45.6178158" lon="10.5580837"><ele>80.6</ele><time>2026-03-29T13:01:05.55Z</time></trkpt><trkpt lat="45.6178716" lon="10.5581747"><ele>81.0</ele><time>2026-03-29T13:01:06.551Z</time></trkpt><trkpt lat="45.6179121" lon="10.5582696"><ele>81.0</ele><time>2026-03-29T13:01:07.565Z</time></trkpt><trkpt lat="45.6179495" lon="10.5583565"><ele>81.0</ele><time>2026-03-29T13:01:08.543Z</time></trkpt><trkpt lat="45.6179847" lon="10.5584592"><ele>81.0</ele><time>2026-03-29T13:01:09.568Z</time></trkpt><trkpt lat="45.6180167" lon="10.5585434"><ele>81.0</ele><time>2026-03-29T13:01:10.555Z</time></trkpt><trkpt lat="45.6180378" lon="10.5586336"><ele>81.0</ele><time>2026-03-29T13:01:12.548Z</time></trkpt><trkpt lat="45.6180622" lon="10.5588386"><ele>81.0</ele><time>2026-03-29T13:01:35.552Z</time></trkpt><trkpt lat="45.6180879" lon="10.5589346"><ele>79.75</ele><time>2026-03-29T13:01:36.582Z</time></trkpt><trkpt lat="45.6181205" lon="10.5590663"><ele>78.5</ele><time>2026-03-29T13:01:37.555Z</time></trkpt><trkpt lat="45.6181587" lon="10.5592268"><ele>77.25</ele><time>2026-03-29T13:01:38.565Z</time></trkpt><trkpt lat="45.6181869" lon="10.5594136"><ele>76.0</ele><time>2026-03-29T13:01:39.55Z</time></trkpt><trkpt lat="45.618216" lon="10.5596212"><ele>75.5</ele><time>2026-03-29T13:01:40.563Z</time></trkpt><trkpt lat="45.6182498" lon="10.5598104"><ele>75.0</ele><time>2026-03-29T13:01:41.569Z</time></trkpt><trkpt lat="45.6182887" lon="10.5599922"><ele>74.5</ele><time>2026-03-29T13:01:42.551Z</time></trkpt><trkpt lat="45.61833" lon="10.5601782"><ele>74.0</ele><time>2026-03-29T13:01:43.55Z</time></trkpt><trkpt lat="45.6183691" lon="10.5603749"><ele>73.75</ele><time>2026-03-29T13:01:44.555Z</time></trkpt><trkpt lat="45.6184104" lon="10.5605795"><ele>73.5</ele><time>2026-03-29T13:01:45.548Z</time></trkpt><trkpt lat="45.618452" lon="10.5607795"><ele>73.25</ele><time>2026-03-29T13:01:46.548Z</time></trkpt><trkpt lat="45.6184908" lon="10.5609789"><ele>73.0</ele><time>2026-03-29T13:01:47.557Z</time></trkpt><trkpt lat="45.6185255" lon="10.5611866"><ele>72.75</ele><time>2026-03-29T13:01:48.547Z</time></trkpt><trkpt lat="45.6185599" lon="10.5613998"><ele>72.5</ele><time>2026-03-29T13:01:49.571Z</time></trkpt><trkpt lat="45.6185964" lon="10.5616027"><ele>72.25</ele><time>2026-03-29T13:01:50.551Z</time></trkpt><trkpt lat="45.6186363" lon="10.5618067"><ele>72.0</ele><time>2026-03-29T13:01:51.543Z</time></trkpt><trkpt lat="45.6186731" lon="10.5620099"><ele>74.0</ele><time>2026-03-29T13:01:52.553Z</time></trkpt><trkpt lat="45.6187154" lon="10.5622036"><ele>76.0</ele><time>2026-03-29T13:01:53.549Z</time></trkpt><trkpt lat="45.6187592" lon="10.5624046"><ele>78.0</ele><time>2026-03-29T13:01:54.542Z</time></trkpt><trkpt lat="45.6188002" lon="10.5626106"><ele>80.0</ele><time>2026-03-29T13:01:55.537Z</time></trkpt><trkpt lat="45.6188441" lon="10.5628188"><ele>79.0</ele><time>2026-03-29T13:01:56.569Z</time></trkpt><trkpt lat="45.6188838" lon="10.5630204"><ele>78.0</ele><time>2026-03-29T13:01:57.551Z</time></trkpt><trkpt lat="45.6189336" lon="10.5632106"><ele>77.0</ele><time>2026-03-29T13:01:58.549Z</time></trkpt><trkpt lat="45.6189902" lon="10.5634014"><ele>76.0</ele><time>2026-03-29T13:01:59.544Z</time></trkpt><trkpt lat="45.6190543" lon="10.5635934"><ele>75.0</ele><time>2026-03-29T13:02:00.56Z</time></trkpt><trkpt lat="45.6191165" lon="10.563781"><ele>74.0</ele><time>2026-03-29T13:02:01.548Z</time></trkpt><trkpt lat="45.6191821" lon="10.5639845"><ele>73.0</ele><time>2026-03-29T13:02:02.564Z</time></trkpt><trkpt lat="45.6192351" lon="10.5641829"><ele>73.0</ele><time>2026-03-29T13:02:03.548Z</time></trkpt><trkpt lat="45.6192881" lon="10.564355"><ele>73.0</ele><time>2026-03-29T13:02:04.538Z</time></trkpt><trkpt lat="45.6193503" lon="10.564534"><ele>73.0</ele><time>2026-03-29T13:02:05.555Z</time></trkpt><trkpt lat="45.6194069" lon="10.5646805"><ele>73.0</ele><time>2026-03-29T13:02:06.539Z</time></trkpt><trkpt lat="45.6194681" lon="10.5648291"><ele>73.5</ele><time>2026-03-29T13:02:07.549Z</time></trkpt><trkpt lat="45.6195306" lon="10.5649589"><ele>74.0</ele><time>2026-03-29T13:02:08.555Z</time></trkpt><trkpt lat="45.6196102" lon="10.5650868"><ele>74.5</ele><time>2026-03-29T13:02:09.572Z</time></trkpt><trkpt lat="45.6196925" lon="10.5652145"><ele>75.0</ele><time>2026-03-29T13:02:10.558Z</time></trkpt><trkpt lat="45.6197811" lon="10.5653506"><ele>73.5</ele><time>2026-03-29T13:02:11.564Z</time></trkpt><trkpt lat="45.6198794" lon="10.5654664"><ele>72.0</ele><time>2026-03-29T13:02:12.558Z</time></trkpt><trkpt lat="45.6199714" lon="10.5655902"><ele>70.5</ele><time>2026-03-29T13:02:13.549Z</time></trkpt><trkpt lat="45.6200634" lon="10.5657131"><ele>69.0</ele><time>2026-03-29T13:02:14.545Z</time></trkpt><trkpt lat="45.6201584" lon="10.5658515"><ele>69.0</ele><time>2026-03-29T13:02:15.555Z</time></trkpt><trkpt lat="45.6202525" lon="10.5659818"><ele>69.0</ele><time>2026-03-29T13:02:16.539Z</time></trkpt><trkpt lat="45.6203489" lon="10.5661149"><ele>69.0</ele><time>2026-03-29T13:02:17.567Z</time></trkpt><trkpt lat="45.6204376" lon="10.5662457"><ele>69.0</ele><time>2026-03-29T13:02:18.556Z</time></trkpt><trkpt lat="45.6205219" lon="10.5663711"><ele>70.5</ele><time>2026-03-29T13:02:19.548Z</time></trkpt><trkpt lat="45.6206122" lon="10.5664975"><ele>72.0</ele><time>2026-03-29T13:02:20.551Z</time></trkpt><trkpt lat="45.6206944" lon="10.5666218"><ele>73.5</ele><time>2026-03-29T13:02:21.552Z</time></trkpt><trkpt lat="45.6207786" lon="10.5667411"><ele>75.0</ele><time>2026-03-29T13:02:22.566Z</time></trkpt><trkpt lat="45.6208548" lon="10.566854"><ele>75.0</ele><time>2026-03-29T13:02:23.553Z</time></trkpt><trkpt lat="45.620933" lon="10.5669663"><ele>75.0</ele><time>2026-03-29T13:02:24.547Z</time></trkpt><trkpt lat="45.6210065" lon="10.5670779"><ele>75.0</ele><time>2026-03-29T13:02:25.547Z</time></trkpt><trkpt lat="45.6210767" lon="10.5671811"><ele>75.0</ele><time>2026-03-29T13:02:26.567Z</time></trkpt><trkpt lat="45.6211443" lon="10.5672844"><ele>75.0</ele><time>2026-03-29T13:02:27.558Z</time></trkpt><trkpt lat="45.6212087" lon="10.5673897"><ele>75.2</ele><time>2026-03-29T13:02:28.544Z</time></trkpt><trkpt lat="45.621273" lon="10.5674948"><ele>75.4</ele><time>2026-03-29T13:02:29.548Z</time></trkpt><trkpt lat="45.6213368" lon="10.567603"><ele>75.6</ele><time>2026-03-29T13:02:30.544Z</time></trkpt><trkpt lat="45.6214077" lon="10.5677192"><ele>75.8</ele><time>2026-03-29T13:02:31.554Z</time></trkpt><trkpt lat="45.6214736" lon="10.5678328"><ele>76.0</ele><time>2026-03-29T13:02:32.543Z</time></trkpt><trkpt lat="45.6215424" lon="10.5679538"><ele>76.0</ele><time>2026-03-29T13:02:33.558Z</time></trkpt><trkpt lat="45.6216222" lon="10.568092"><ele>76.0</ele><time>2026-03-29T13:02:34.554Z</time></trkpt><trkpt lat="45.6217083" lon="10.5682402"><ele>76.0</ele><time>2026-03-29T13:02:35.578Z</time></trkpt><trkpt lat="45.6217857" lon="10.5683769"><ele>76.0</ele><time>2026-03-29T13:02:36.554Z</time></trkpt><trkpt lat="45.6218576" lon="10.5685188"><ele>76.0</ele><time>2026-03-29T13:02:37.544Z</time></trkpt><trkpt lat="45.6219206" lon="10.5686659"><ele>76.0</ele><time>2026-03-29T13:02:38.543Z</time></trkpt><trkpt lat="45.621981" lon="10.5688194"><ele>76.0</ele><time>2026-03-29T13:02:39.555Z</time></trkpt><trkpt lat="45.6220366" lon="10.5689728"><ele>76.0</ele><time>2026-03-29T13:02:40.55Z</time></trkpt><trkpt lat="45.6220933" lon="10.5691212"><ele>75.8</ele><time>2026-03-29T13:02:41.557Z</time></trkpt><trkpt lat="45.6221457" lon="10.5692637"><ele>75.6</ele><time>2026-03-29T13:02:42.548Z</time></trkpt><trkpt lat="45.6221973" lon="10.5694115"><ele>75.4</ele><time>2026-03-29T13:02:43.554Z</time></trkpt><trkpt lat="45.622251" lon="10.5695488"><ele>75.2</ele><time>2026-03-29T13:02:44.562Z</time></trkpt><trkpt lat="45.6223011" lon="10.569672"><ele>75.0</ele><time>2026-03-29T13:02:45.56Z</time></trkpt><trkpt lat="45.6223556" lon="10.5697895"><ele>75.0</ele><time>2026-03-29T13:02:46.552Z</time></trkpt><trkpt lat="45.6224135" lon="10.5699033"><ele>75.0</ele><time>2026-03-29T13:02:47.559Z</time></trkpt><trkpt lat="45.6224721" lon="10.5700114"><ele>75.0</ele><time>2026-03-29T13:02:48.544Z</time></trkpt><trkpt lat="45.622538" lon="10.5701276"><ele>75.0</ele><time>2026-03-29T13:02:49.558Z</time></trkpt><trkpt lat="45.6226081" lon="10.5702473"><ele>75.0</ele><time>2026-03-29T13:02:50.545Z</time></trkpt><trkpt lat="45.6226884" lon="10.5703697"><ele>73.5</ele><time>2026-03-29T13:02:51.545Z</time></trkpt><trkpt lat="45.6227793" lon="10.5704929"><ele>72.0</ele><time>2026-03-29T13:02:52.56Z</time></trkpt><trkpt lat="45.6228781" lon="10.5706103"><ele>70.5</ele><time>2026-03-29T13:02:53.545Z</time></trkpt><trkpt lat="45.6229791" lon="10.5707234"><ele>69.0</ele><time>2026-03-29T13:02:54.557Z</time></trkpt><trkpt lat="45.6230799" lon="10.5708265"><ele>70.2</ele><time>2026-03-29T13:02:55.547Z</time></trkpt><trkpt lat="45.6231766" lon="10.5709208"><ele>71.4</ele><time>2026-03-29T13:02:56.561Z</time></trkpt><trkpt lat="45.6232618" lon="10.5710116"><ele>72.6</ele><time>2026-03-29T13:02:57.569Z</time></trkpt><trkpt lat="45.6233452" lon="10.5711047"><ele>73.8</ele><time>2026-03-29T13:02:58.56Z</time></trkpt><trkpt lat="45.6234226" lon="10.5712103"><ele>75.0</ele><time>2026-03-29T13:02:59.559Z</time></trkpt><trkpt lat="45.623495" lon="10.5713238"><ele>75.0</ele><time>2026-03-29T13:03:00.56Z</time></trkpt><trkpt lat="45.6235636" lon="10.5714423"><ele>75.0</ele><time>2026-03-29T13:03:01.54Z</time></trkpt><trkpt lat="45.6236314" lon="10.57157"><ele>75.0</ele><time>2026-03-29T13:03:02.549Z</time></trkpt><trkpt lat="45.6236921" lon="10.5716988"><ele>75.0</ele><time>2026-03-29T13:03:03.55Z</time></trkpt><trkpt lat="45.6237448" lon="10.571834"><ele>75.0</ele><time>2026-03-29T13:03:04.571Z</time></trkpt><trkpt lat="45.6237945" lon="10.571964"><ele>76.4</ele><time>2026-03-29T13:03:05.55Z</time></trkpt><trkpt lat="45.6238399" lon="10.5720955"><ele>77.8</ele><time>2026-03-29T13:03:06.539Z</time></trkpt><trkpt lat="45.6238845" lon="10.572225"><ele>79.19999999999999</ele><time>2026-03-29T13:03:07.556Z</time></trkpt><trkpt lat="45.6239204" lon="10.5723448"><ele>80.6</ele><time>2026-03-29T13:03:08.563Z</time></trkpt><trkpt lat="45.6239557" lon="10.5724644"><ele>82.0</ele><time>2026-03-29T13:03:09.578Z</time></trkpt><trkpt lat="45.6239921" lon="10.572575"><ele>82.0</ele><time>2026-03-29T13:03:10.551Z</time></trkpt><trkpt lat="45.6240328" lon="10.5726988"><ele>82.0</ele><time>2026-03-29T13:03:11.552Z</time></trkpt><trkpt lat="45.624072" lon="10.572825"><ele>82.0</ele><time>2026-03-29T13:03:12.536Z</time></trkpt><trkpt lat="45.6241153" lon="10.5729576"><ele>82.0</ele><time>2026-03-29T13:03:13.56Z</time></trkpt><trkpt lat="45.6241635" lon="10.5730876"><ele>82.0</ele><time>2026-03-29T13:03:14.555Z</time></trkpt><trkpt lat="45.6242168" lon="10.5732156"><ele>82.0</ele><time>2026-03-29T13:03:15.566Z</time></trkpt><trkpt lat="45.6242758" lon="10.5733395"><ele>82.0</ele><time>2026-03-29T13:03:16.562Z</time></trkpt><trkpt lat="45.624338" lon="10.5734578"><ele>82.0</ele><time>2026-03-29T13:03:17.551Z</time></trkpt><trkpt lat="45.6244062" lon="10.5735722"><ele>82.0</ele><time>2026-03-29T13:03:18.559Z</time></trkpt><trkpt lat="45.6244823" lon="10.5736799"><ele>82.0</ele><time>2026-03-29T13:03:19.555Z</time></trkpt><trkpt lat="45.6245601" lon="10.5737829"><ele>82.0</ele><time>2026-03-29T13:03:20.546Z</time></trkpt><trkpt lat="45.6246403" lon="10.5738837"><ele>82.0</ele><time>2026-03-29T13:03:21.564Z</time></trkpt><trkpt lat="45.6247202" lon="10.5739804"><ele>82.0</ele><time>2026-03-29T13:03:22.55Z</time></trkpt><trkpt lat="45.6248003" lon="10.5740756"><ele>82.0</ele><time>2026-03-29T13:03:23.545Z</time></trkpt><trkpt lat="45.6248802" lon="10.5741753"><ele>82.0</ele><time>2026-03-29T13:03:24.543Z</time></trkpt><trkpt lat="45.6249582" lon="10.574282"><ele>82.0</ele><time>2026-03-29T13:03:25.552Z</time></trkpt><trkpt lat="45.6250324" lon="10.5743949"><ele>82.0</ele><time>2026-03-29T13:03:26.547Z</time></trkpt><trkpt lat="45.6251084" lon="10.5745142"><ele>82.0</ele><time>2026-03-29T13:03:27.561Z</time></trkpt><trkpt lat="45.6251832" lon="10.5746358"><ele>82.0</ele><time>2026-03-29T13:03:28.548Z</time></trkpt><trkpt lat="45.6252567" lon="10.5747609"><ele>82.0</ele><time>2026-03-29T13:03:29.563Z</time></trkpt><trkpt lat="45.6253218" lon="10.5748994"><ele>83.0</ele><time>2026-03-29T13:03:30.561Z</time></trkpt><trkpt lat="45.6253801" lon="10.5750335"><ele>84.0</ele><time>2026-03-29T13:03:31.548Z</time></trkpt><trkpt lat="45.6254269" lon="10.5751682"><ele>85.0</ele><time>2026-03-29T13:03:32.546Z</time></trkpt><trkpt lat="45.6254682" lon="10.5752994"><ele>86.0</ele><time>2026-03-29T13:03:33.549Z</time></trkpt><trkpt lat="45.6255089" lon="10.5754298"><ele>87.0</ele><time>2026-03-29T13:03:34.545Z</time></trkpt><trkpt lat="45.6255482" lon="10.57556"><ele>87.0</ele><time>2026-03-29T13:03:35.546Z</time></trkpt><trkpt lat="45.6255877" lon="10.5756915"><ele>87.0</ele><time>2026-03-29T13:03:36.556Z</time></trkpt><trkpt lat="45.6256225" lon="10.5758259"><ele>87.0</ele><time>2026-03-29T13:03:37.548Z</time></trkpt><trkpt lat="45.6256516" lon="10.5759579"><ele>87.0</ele><time>2026-03-29T13:03:38.543Z</time></trkpt><trkpt lat="45.6256783" lon="10.5760851"><ele>87.0</ele><time>2026-03-29T13:03:39.55Z</time></trkpt><trkpt lat="45.6257057" lon="10.5762033"><ele>86.0</ele><time>2026-03-29T13:03:40.552Z</time></trkpt><trkpt lat="45.6257329" lon="10.576321"><ele>85.0</ele><time>2026-03-29T13:03:41.564Z</time></trkpt><trkpt lat="45.6257592" lon="10.5764333"><ele>84.0</ele><time>2026-03-29T13:03:42.556Z</time></trkpt><trkpt lat="45.6257848" lon="10.5765515"><ele>83.0</ele><time>2026-03-29T13:03:43.542Z</time></trkpt><trkpt lat="45.6258162" lon="10.5766828"><ele>82.0</ele><time>2026-03-29T13:03:44.551Z</time></trkpt><trkpt lat="45.6258445" lon="10.5768044"><ele>81.0</ele><time>2026-03-29T13:03:45.55Z</time></trkpt><trkpt lat="45.6258715" lon="10.576919"><ele>80.5</ele><time>2026-03-29T13:03:46.551Z</time></trkpt><trkpt lat="45.6259006" lon="10.5770234"><ele>80.0</ele><time>2026-03-29T13:03:47.559Z</time></trkpt><trkpt lat="45.6259234" lon="10.5771246"><ele>79.5</ele><time>2026-03-29T13:03:48.561Z</time></trkpt><trkpt lat="45.6259461" lon="10.5772371"><ele>79.0</ele><time>2026-03-29T13:03:49.551Z</time></trkpt><trkpt lat="45.6259661" lon="10.5773539"><ele>78.5</ele><time>2026-03-29T13:03:50.554Z</time></trkpt><trkpt lat="45.6259827" lon="10.577459"><ele>78.0</ele><time>2026-03-29T13:03:51.542Z</time></trkpt><trkpt lat="45.6259944" lon="10.5775564"><ele>78.0</ele><time>2026-03-29T13:03:52.565Z</time></trkpt><trkpt lat="45.6260163" lon="10.5777073"><ele>78.0</ele><time>2026-03-29T13:03:54.574Z</time></trkpt><trkpt lat="45.6260365" lon="10.5778349"><ele>78.0</ele><time>2026-03-29T13:03:56.555Z</time></trkpt><trkpt lat="45.6260515" lon="10.5779653"><ele>78.0</ele><time>2026-03-29T13:03:58.56Z</time></trkpt><trkpt lat="45.6260684" lon="10.5781319"><ele>78.0</ele><time>2026-03-29T13:04:00.578Z</time></trkpt><trkpt lat="45.6260802" lon="10.5782225"><ele>77.42857142857143</ele><time>2026-03-29T13:04:01.559Z</time></trkpt><trkpt lat="45.6260908" lon="10.5783179"><ele>76.85714285714285</ele><time>2026-03-29T13:04:02.554Z</time></trkpt><trkpt lat="45.626101" lon="10.5784147"><ele>76.28571428571428</ele><time>2026-03-29T13:04:03.559Z</time></trkpt><trkpt lat="45.6261132" lon="10.5785162"><ele>75.71428571428572</ele><time>2026-03-29T13:04:04.556Z</time></trkpt><trkpt lat="45.6261265" lon="10.5786231"><ele>75.14285714285714</ele><time>2026-03-29T13:04:05.571Z</time></trkpt><trkpt lat="45.6261362" lon="10.5787307"><ele>74.57142857142857</ele><time>2026-03-29T13:04:06.546Z</time></trkpt><trkpt lat="45.6261455" lon="10.5788445"><ele>74.0</ele><time>2026-03-29T13:04:07.555Z</time></trkpt><trkpt lat="45.6261553" lon="10.5789631"><ele>76.33333333333334</ele><time>2026-03-29T13:04:08.548Z</time></trkpt><trkpt lat="45.6261595" lon="10.5790898"><ele>78.66666666666667</ele><time>2026-03-29T13:04:09.549Z</time></trkpt><trkpt lat="45.6261671" lon="10.5792154"><ele>81.0</ele><time>2026-03-29T13:04:10.566Z</time></trkpt><trkpt lat="45.6261697" lon="10.5793316"><ele>83.33333333333333</ele><time>2026-03-29T13:04:11.575Z</time></trkpt><trkpt lat="45.6261713" lon="10.5794358"><ele>85.66666666666666</ele><time>2026-03-29T13:04:12.55Z</time></trkpt><trkpt lat="45.6261686" lon="10.5795435"><ele>88.0</ele><time>2026-03-29T13:04:13.575Z</time></trkpt><trkpt lat="45.6261699" lon="10.5796511"><ele>88.33333333333333</ele><time>2026-03-29T13:04:14.546Z</time></trkpt><trkpt lat="45.6261733" lon="10.5797647"><ele>88.66666666666666</ele><time>2026-03-29T13:04:15.56Z</time></trkpt><trkpt lat="45.6261753" lon="10.5798761"><ele>89.0</ele><time>2026-03-29T13:04:16.544Z</time></trkpt><trkpt lat="45.626176" lon="10.57999"><ele>89.33333333333333</ele><time>2026-03-29T13:04:17.552Z</time></trkpt><trkpt lat="45.6261749" lon="10.5801023"><ele>89.66666666666667</ele><time>2026-03-29T13:04:18.543Z</time></trkpt><trkpt lat="45.6261738" lon="10.5802141"><ele>90.0</ele><time>2026-03-29T13:04:19.557Z</time></trkpt><trkpt lat="45.6261739" lon="10.5803229"><ele>89.16666666666667</ele><time>2026-03-29T13:04:20.548Z</time></trkpt><trkpt lat="45.6261756" lon="10.5804407"><ele>88.33333333333333</ele><time>2026-03-29T13:04:21.573Z</time></trkpt><trkpt lat="45.6261757" lon="10.5805517"><ele>87.5</ele><time>2026-03-29T13:04:22.541Z</time></trkpt><trkpt lat="45.6261766" lon="10.5806664"><ele>86.66666666666666</ele><time>2026-03-29T13:04:23.55Z</time></trkpt><trkpt lat="45.6261769" lon="10.580786"><ele>85.83333333333333</ele><time>2026-03-29T13:04:24.559Z</time></trkpt><trkpt lat="45.6261755" lon="10.5809138"><ele>85.0</ele><time>2026-03-29T13:04:25.56Z</time></trkpt><trkpt lat="45.6261762" lon="10.5810531"><ele>84.8</ele><time>2026-03-29T13:04:26.566Z</time></trkpt><trkpt lat="45.6261795" lon="10.5811985"><ele>84.6</ele><time>2026-03-29T13:04:27.555Z</time></trkpt><trkpt lat="45.6261817" lon="10.5813574"><ele>84.4</ele><time>2026-03-29T13:04:28.555Z</time></trkpt><trkpt lat="45.6261789" lon="10.5815218"><ele>84.2</ele><time>2026-03-29T13:04:29.549Z</time></trkpt><trkpt lat="45.6261819" lon="10.5816838"><ele>84.0</ele><time>2026-03-29T13:04:30.549Z</time></trkpt><trkpt lat="45.6261823" lon="10.5818442"><ele>84.0</ele><time>2026-03-29T13:04:31.543Z</time></trkpt><trkpt lat="45.6261825" lon="10.5820042"><ele>84.0</ele><time>2026-03-29T13:04:32.546Z</time></trkpt><trkpt lat="45.6261834" lon="10.5821607"><ele>84.0</ele><time>2026-03-29T13:04:33.552Z</time></trkpt><trkpt lat="45.6261857" lon="10.5823152"><ele>84.0</ele><time>2026-03-29T13:04:34.552Z</time></trkpt><trkpt lat="45.6261875" lon="10.5824698"><ele>84.0</ele><time>2026-03-29T13:04:35.57Z</time></trkpt><trkpt lat="45.6261839" lon="10.5826225"><ele>84.25</ele><time>2026-03-29T13:04:36.56Z</time></trkpt><trkpt lat="45.6261803" lon="10.5827792"><ele>84.5</ele><time>2026-03-29T13:04:37.578Z</time></trkpt><trkpt lat="45.6261699" lon="10.5829323"><ele>84.75</ele><time>2026-03-29T13:04:38.542Z</time></trkpt><trkpt lat="45.6261561" lon="10.5830964"><ele>85.0</ele><time>2026-03-29T13:04:39.547Z</time></trkpt><trkpt lat="45.6261348" lon="10.5832669"><ele>82.25</ele><time>2026-03-29T13:04:40.548Z</time></trkpt><trkpt lat="45.6261158" lon="10.5834339"><ele>79.5</ele><time>2026-03-29T13:04:41.562Z</time></trkpt><trkpt lat="45.6260906" lon="10.5835969"><ele>76.75</ele><time>2026-03-29T13:04:42.55Z</time></trkpt><trkpt lat="45.6260644" lon="10.5837671"><ele>74.0</ele><time>2026-03-29T13:04:43.579Z</time></trkpt><trkpt lat="45.6260411" lon="10.5839274"><ele>74.0</ele><time>2026-03-29T13:04:44.561Z</time></trkpt><trkpt lat="45.6260249" lon="10.5840883"><ele>74.0</ele><time>2026-03-29T13:04:45.555Z</time></trkpt><trkpt lat="45.6260162" lon="10.5842442"><ele>74.0</ele><time>2026-03-29T13:04:46.569Z</time></trkpt><trkpt lat="45.6260227" lon="10.5843877"><ele>74.0</ele><time>2026-03-29T13:04:47.542Z</time></trkpt><trkpt lat="45.6260432" lon="10.5845423"><ele>74.0</ele><time>2026-03-29T13:04:48.566Z</time></trkpt><trkpt lat="45.6260806" lon="10.5846852"><ele>73.8</ele><time>2026-03-29T13:04:49.564Z</time></trkpt><trkpt lat="45.6261274" lon="10.5848226"><ele>73.60000000000001</ele><time>2026-03-29T13:04:50.548Z</time></trkpt><trkpt lat="45.6261811" lon="10.5849504"><ele>73.4</ele><time>2026-03-29T13:04:51.57Z</time></trkpt><trkpt lat="45.6262351" lon="10.5850619"><ele>73.2</ele><time>2026-03-29T13:04:52.547Z</time></trkpt><trkpt lat="45.6262961" lon="10.5851709"><ele>73.0</ele><time>2026-03-29T13:04:53.55Z</time></trkpt><trkpt lat="45.6263508" lon="10.5852719"><ele>74.0</ele><time>2026-03-29T13:04:54.565Z</time></trkpt><trkpt lat="45.6264062" lon="10.5853647"><ele>75.0</ele><time>2026-03-29T13:04:55.55Z</time></trkpt><trkpt lat="45.6264701" lon="10.5854461"><ele>76.0</ele><time>2026-03-29T13:04:56.55Z</time></trkpt><trkpt lat="45.6265492" lon="10.5855271"><ele>77.0</ele><time>2026-03-29T13:04:57.558Z</time></trkpt><trkpt lat="45.6266337" lon="10.5856064"><ele>78.0</ele><time>2026-03-29T13:04:58.562Z</time></trkpt><trkpt lat="45.6267219" lon="10.5856842"><ele>78.0</ele><time>2026-03-29T13:04:59.571Z</time></trkpt><trkpt lat="45.6268206" lon="10.5857618"><ele>78.0</ele><time>2026-03-29T13:05:00.574Z</time></trkpt><trkpt lat="45.6269181" lon="10.5858445"><ele>78.0</ele><time>2026-03-29T13:05:01.569Z</time></trkpt><trkpt lat="45.6270139" lon="10.5859295"><ele>78.0</ele><time>2026-03-29T13:05:02.563Z</time></trkpt><trkpt lat="45.6271061" lon="10.5860142"><ele>78.0</ele><time>2026-03-29T13:05:03.556Z</time></trkpt><trkpt lat="45.6271959" lon="10.5860942"><ele>78.4</ele><time>2026-03-29T13:05:04.558Z</time></trkpt><trkpt lat="45.6272821" lon="10.5861743"><ele>78.8</ele><time>2026-03-29T13:05:05.55Z</time></trkpt><trkpt lat="45.6273686" lon="10.5862528"><ele>79.2</ele><time>2026-03-29T13:05:06.562Z</time></trkpt><trkpt lat="45.6274445" lon="10.5863307"><ele>79.6</ele><time>2026-03-29T13:05:07.547Z</time></trkpt><trkpt lat="45.6275226" lon="10.5864078"><ele>80.0</ele><time>2026-03-29T13:05:08.575Z</time></trkpt><trkpt lat="45.6275951" lon="10.5864816"><ele>79.33333333333334</ele><time>2026-03-29T13:05:09.555Z</time></trkpt><trkpt lat="45.6276713" lon="10.586542"><ele>78.66666666666667</ele><time>2026-03-29T13:05:10.554Z</time></trkpt><trkpt lat="45.6277519" lon="10.5865858"><ele>78.0</ele><time>2026-03-29T13:05:11.555Z</time></trkpt><trkpt lat="45.6278362" lon="10.5866129"><ele>77.33333333333333</ele><time>2026-03-29T13:05:12.566Z</time></trkpt><trkpt lat="45.6279221" lon="10.5866289"><ele>76.66666666666666</ele><time>2026-03-29T13:05:13.548Z</time></trkpt><trkpt lat="45.6280073" lon="10.586632"><ele>76.0</ele><time>2026-03-29T13:05:14.554Z</time></trkpt><trkpt lat="45.6280908" lon="10.5866349"><ele>75.83333333333333</ele><time>2026-03-29T13:05:15.546Z</time></trkpt><trkpt lat="45.6281722" lon="10.5866332"><ele>75.66666666666666</ele><time>2026-03-29T13:05:16.551Z</time></trkpt><trkpt lat="45.6282542" lon="10.5866301"><ele>75.5</ele><time>2026-03-29T13:05:17.564Z</time></trkpt><trkpt lat="45.6283395" lon="10.5866283"><ele>75.33333333333333</ele><time>2026-03-29T13:05:18.561Z</time></trkpt><trkpt lat="45.628427" lon="10.5866279"><ele>75.16666666666667</ele><time>2026-03-29T13:05:19.559Z</time></trkpt><trkpt lat="45.628515" lon="10.5866224"><ele>75.0</ele><time>2026-03-29T13:05:20.555Z</time></trkpt><trkpt lat="45.6286047" lon="10.586618"><ele>75.33333333333333</ele><time>2026-03-29T13:05:21.566Z</time></trkpt><trkpt lat="45.6286947" lon="10.5866147"><ele>75.66666666666667</ele><time>2026-03-29T13:05:22.556Z</time></trkpt><trkpt lat="45.6287777" lon="10.5866107"><ele>76.0</ele><time>2026-03-29T13:05:23.55Z</time></trkpt><trkpt lat="45.6288661" lon="10.586609"><ele>76.33333333333334</ele><time>2026-03-29T13:05:24.561Z</time></trkpt><trkpt lat="45.628955" lon="10.5866067"><ele>76.66666666666667</ele><time>2026-03-29T13:05:25.558Z</time></trkpt><trkpt lat="45.6290464" lon="10.586609"><ele>77.0</ele><time>2026-03-29T13:05:26.541Z</time></trkpt><trkpt lat="45.6291466" lon="10.5866154"><ele>77.0</ele><time>2026-03-29T13:05:27.55Z</time></trkpt><trkpt lat="45.6292468" lon="10.5866283"><ele>77.0</ele><time>2026-03-29T13:05:28.552Z</time></trkpt><trkpt lat="45.6293483" lon="10.5866555"><ele>77.0</ele><time>2026-03-29T13:05:29.564Z</time></trkpt><trkpt lat="45.6294508" lon="10.5866913"><ele>77.0</ele><time>2026-03-29T13:05:30.556Z</time></trkpt><trkpt lat="45.629555" lon="10.5867391"><ele>77.0</ele><time>2026-03-29T13:05:31.565Z</time></trkpt><trkpt lat="45.6296543" lon="10.5867949"><ele>77.6</ele><time>2026-03-29T13:05:32.574Z</time></trkpt><trkpt lat="45.6297441" lon="10.5868627"><ele>78.2</ele><time>2026-03-29T13:05:33.557Z</time></trkpt><trkpt lat="45.6298279" lon="10.586933"><ele>78.8</ele><time>2026-03-29T13:05:34.547Z</time></trkpt><trkpt lat="45.6299042" lon="10.5870092"><ele>79.4</ele><time>2026-03-29T13:05:35.555Z</time></trkpt><trkpt lat="45.6299723" lon="10.5870919"><ele>80.0</ele><time>2026-03-29T13:05:36.559Z</time></trkpt><trkpt lat="45.6300377" lon="10.5871719"><ele>80.0</ele><time>2026-03-29T13:05:37.548Z</time></trkpt><trkpt lat="45.6301031" lon="10.5872507"><ele>80.0</ele><time>2026-03-29T13:05:38.544Z</time></trkpt><trkpt lat="45.6301691" lon="10.5873292"><ele>80.0</ele><time>2026-03-29T13:05:39.55Z</time></trkpt><trkpt lat="45.6302296" lon="10.587404"><ele>80.0</ele><time>2026-03-29T13:05:40.547Z</time></trkpt><trkpt lat="45.6302923" lon="10.5874855"><ele>80.0</ele><time>2026-03-29T13:05:41.57Z</time></trkpt><trkpt lat="45.6303533" lon="10.5875717"><ele>80.0</ele><time>2026-03-29T13:05:42.548Z</time></trkpt><trkpt lat="45.6304152" lon="10.5876679"><ele>79.2</ele><time>2026-03-29T13:05:43.55Z</time></trkpt><trkpt lat="45.6304826" lon="10.5877681"><ele>78.4</ele><time>2026-03-29T13:05:44.546Z</time></trkpt><trkpt lat="45.630554" lon="10.5878737"><ele>77.6</ele><time>2026-03-29T13:05:45.558Z</time></trkpt><trkpt lat="45.630625" lon="10.5879807"><ele>76.8</ele><time>2026-03-29T13:05:46.547Z</time></trkpt><trkpt lat="45.6306977" lon="10.5880867"><ele>76.0</ele><time>2026-03-29T13:05:47.551Z</time></trkpt><trkpt lat="45.6307704" lon="10.5881891"><ele>76.0</ele><time>2026-03-29T13:05:48.555Z</time></trkpt><trkpt lat="45.6308404" lon="10.5882929"><ele>76.0</ele><time>2026-03-29T13:05:49.566Z</time></trkpt><trkpt lat="45.6309057" lon="10.5883878"><ele>76.0</ele><time>2026-03-29T13:05:50.553Z</time></trkpt><trkpt lat="45.6309723" lon="10.5884833"><ele>76.0</ele><time>2026-03-29T13:05:51.563Z</time></trkpt><trkpt lat="45.6310357" lon="10.5885749"><ele>76.0</ele><time>2026-03-29T13:05:52.549Z</time></trkpt><trkpt lat="45.6311035" lon="10.5886633"><ele>78.0</ele><time>2026-03-29T13:05:53.555Z</time></trkpt><trkpt lat="45.631166" lon="10.58875"><ele>80.0</ele><time>2026-03-29T13:05:54.561Z</time></trkpt><trkpt lat="45.6312291" lon="10.5888359"><ele>82.0</ele><time>2026-03-29T13:05:55.55Z</time></trkpt><trkpt lat="45.631294" lon="10.5889306"><ele>84.0</ele><time>2026-03-29T13:05:56.561Z</time></trkpt><trkpt lat="45.6313582" lon="10.589027"><ele>86.0</ele><time>2026-03-29T13:05:57.548Z</time></trkpt><trkpt lat="45.63142" lon="10.5891395"><ele>86.0</ele><time>2026-03-29T13:05:58.558Z</time></trkpt><trkpt lat="45.6314876" lon="10.5892531"><ele>86.0</ele><time>2026-03-29T13:05:59.562Z</time></trkpt><trkpt lat="45.6315523" lon="10.5893671"><ele>86.0</ele><time>2026-03-29T13:06:00.563Z</time></trkpt><trkpt lat="45.6316148" lon="10.5894746"><ele>86.0</ele><time>2026-03-29T13:06:01.552Z</time></trkpt><trkpt lat="45.6316742" lon="10.5895733"><ele>86.0</ele><time>2026-03-29T13:06:02.56Z</time></trkpt><trkpt lat="45.6317269" lon="10.5896616"><ele>84.33333333333334</ele><time>2026-03-29T13:06:03.555Z</time></trkpt><trkpt lat="45.6317744" lon="10.5897534"><ele>82.66666666666667</ele><time>2026-03-29T13:06:04.559Z</time></trkpt><trkpt lat="45.6318217" lon="10.5898424"><ele>81.0</ele><time>2026-03-29T13:06:05.56Z</time></trkpt><trkpt lat="45.6318686" lon="10.589932"><ele>79.33333333333333</ele><time>2026-03-29T13:06:06.559Z</time></trkpt><trkpt lat="45.6319191" lon="10.5900275"><ele>77.66666666666666</ele><time>2026-03-29T13:06:07.56Z</time></trkpt><trkpt lat="45.631967" lon="10.5901231"><ele>76.0</ele><time>2026-03-29T13:06:08.538Z</time></trkpt><trkpt lat="45.6320144" lon="10.590224"><ele>79.0</ele><time>2026-03-29T13:06:09.552Z</time></trkpt><trkpt lat="45.6320607" lon="10.5903246"><ele>82.0</ele><time>2026-03-29T13:06:10.546Z</time></trkpt><trkpt lat="45.632112" lon="10.5904339"><ele>85.0</ele><time>2026-03-29T13:06:11.553Z</time></trkpt><trkpt lat="45.6321689" lon="10.5905521"><ele>88.0</ele><time>2026-03-29T13:06:12.554Z</time></trkpt><trkpt lat="45.6322261" lon="10.5906832"><ele>91.0</ele><time>2026-03-29T13:06:13.555Z</time></trkpt><trkpt lat="45.6322784" lon="10.5908122"><ele>91.0</ele><time>2026-03-29T13:06:14.542Z</time></trkpt><trkpt lat="45.6323295" lon="10.590935"><ele>91.0</ele><time>2026-03-29T13:06:15.549Z</time></trkpt><trkpt lat="45.6323774" lon="10.5910516"><ele>91.0</ele><time>2026-03-29T13:06:16.564Z</time></trkpt><trkpt lat="45.6324221" lon="10.5911592"><ele>91.0</ele><time>2026-03-29T13:06:17.564Z</time></trkpt><trkpt lat="45.6324665" lon="10.5912613"><ele>91.0</ele><time>2026-03-29T13:06:18.558Z</time></trkpt><trkpt lat="45.632515" lon="10.5913613"><ele>94.19999999999999</ele><time>2026-03-29T13:06:19.559Z</time></trkpt><trkpt lat="45.6325681" lon="10.5914568"><ele>97.39999999999999</ele><time>2026-03-29T13:06:20.553Z</time></trkpt><trkpt lat="45.6326244" lon="10.5915505"><ele>100.6</ele><time>2026-03-29T13:06:21.548Z</time></trkpt><trkpt lat="45.6326904" lon="10.5916433"><ele>103.8</ele><time>2026-03-29T13:06:22.559Z</time></trkpt><trkpt lat="45.632766" lon="10.5917346"><ele>107.0</ele><time>2026-03-29T13:06:23.562Z</time></trkpt><trkpt lat="45.6328472" lon="10.5918188"><ele>107.0</ele><time>2026-03-29T13:06:24.568Z</time></trkpt><trkpt lat="45.6329278" lon="10.5918994"><ele>106.99999999999999</ele><time>2026-03-29T13:06:25.568Z</time></trkpt><trkpt lat="45.6330035" lon="10.5919811"><ele>106.99999999999999</ele><time>2026-03-29T13:06:26.553Z</time></trkpt><trkpt lat="45.6330776" lon="10.5920609"><ele>107.0</ele><time>2026-03-29T13:06:27.565Z</time></trkpt><trkpt lat="45.6331401" lon="10.5921407"><ele>107.0</ele><time>2026-03-29T13:06:28.558Z</time></trkpt><trkpt lat="45.6331956" lon="10.592223"><ele>100.6</ele><time>2026-03-29T13:06:29.559Z</time></trkpt><trkpt lat="45.6332537" lon="10.5923084"><ele>94.19999999999999</ele><time>2026-03-29T13:06:30.55Z</time></trkpt><trkpt lat="45.6333089" lon="10.5924018"><ele>87.8</ele><time>2026-03-29T13:06:31.553Z</time></trkpt><trkpt lat="45.6333662" lon="10.5925031"><ele>81.4</ele><time>2026-03-29T13:06:32.561Z</time></trkpt><trkpt lat="45.6334219" lon="10.5926162"><ele>75.0</ele><time>2026-03-29T13:06:33.565Z</time></trkpt><trkpt lat="45.6334812" lon="10.5927333"><ele>73.5</ele><time>2026-03-29T13:06:34.558Z</time></trkpt><trkpt lat="45.6335429" lon="10.5928583"><ele>72.0</ele><time>2026-03-29T13:06:35.573Z</time></trkpt><trkpt lat="45.6335985" lon="10.5929718"><ele>70.5</ele><time>2026-03-29T13:06:36.549Z</time></trkpt><trkpt lat="45.6336521" lon="10.5930787"><ele>69.0</ele><time>2026-03-29T13:06:37.557Z</time></trkpt><trkpt lat="45.6336974" lon="10.593168"><ele>67.5</ele><time>2026-03-29T13:06:38.55Z</time></trkpt><trkpt lat="45.6337445" lon="10.593248"><ele>66.0</ele><time>2026-03-29T13:06:39.567Z</time></trkpt><trkpt lat="45.6337822" lon="10.5933212"><ele>68.2</ele><time>2026-03-29T13:06:40.553Z</time></trkpt><trkpt lat="45.633823" lon="10.5934017"><ele>70.39999999999999</ele><time>2026-03-29T13:06:41.575Z</time></trkpt><trkpt lat="45.6338976" lon="10.5935362"><ele>72.6</ele><time>2026-03-29T13:06:43.562Z</time></trkpt><trkpt lat="45.6339634" lon="10.5936495"><ele>74.8</ele><time>2026-03-29T13:06:45.566Z</time></trkpt><trkpt lat="45.6340288" lon="10.5937624"><ele>77.0</ele><time>2026-03-29T13:06:47.555Z</time></trkpt><trkpt lat="45.6340901" lon="10.5938655"><ele>77.0</ele><time>2026-03-29T13:06:49.566Z</time></trkpt><trkpt lat="45.6341565" lon="10.5939805"><ele>77.0</ele><time>2026-03-29T13:06:51.549Z</time></trkpt><trkpt lat="45.634192" lon="10.5940583"><ele>77.0</ele><time>2026-03-29T13:06:52.577Z</time></trkpt><trkpt lat="45.6342275" lon="10.5941429"><ele>77.0</ele><time>2026-03-29T13:06:53.562Z</time></trkpt><trkpt lat="45.6342699" lon="10.594236"><ele>77.0</ele><time>2026-03-29T13:06:54.568Z</time></trkpt><trkpt lat="45.6343145" lon="10.5943309"><ele>77.0</ele><time>2026-03-29T13:06:55.553Z</time></trkpt><trkpt lat="45.6343664" lon="10.594434"><ele>75.5</ele><time>2026-03-29T13:06:56.556Z</time></trkpt><trkpt lat="45.6344213" lon="10.5945359"><ele>74.0</ele><time>2026-03-29T13:06:57.551Z</time></trkpt><trkpt lat="45.6344739" lon="10.5946378"><ele>72.5</ele><time>2026-03-29T13:06:58.55Z</time></trkpt><trkpt lat="45.6345278" lon="10.594745"><ele>71.0</ele><time>2026-03-29T13:06:59.572Z</time></trkpt><trkpt lat="45.6345728" lon="10.5948446"><ele>69.5</ele><time>2026-03-29T13:07:00.549Z</time></trkpt><trkpt lat="45.6346148" lon="10.5949472"><ele>68.0</ele><time>2026-03-29T13:07:01.576Z</time></trkpt><trkpt lat="45.6346518" lon="10.5950441"><ele>69.66666666666667</ele><time>2026-03-29T13:07:02.555Z</time></trkpt><trkpt lat="45.6346914" lon="10.5951464"><ele>71.33333333333334</ele><time>2026-03-29T13:07:03.56Z</time></trkpt><trkpt lat="45.6347332" lon="10.5952462"><ele>73.0</ele><time>2026-03-29T13:07:04.551Z</time></trkpt><trkpt lat="45.6347779" lon="10.595349"><ele>74.66666666666667</ele><time>2026-03-29T13:07:05.563Z</time></trkpt><trkpt lat="45.6348178" lon="10.5954421"><ele>76.33333333333333</ele><time>2026-03-29T13:07:06.556Z</time></trkpt><trkpt lat="45.6348521" lon="10.5955276"><ele>78.0</ele><time>2026-03-29T13:07:07.567Z</time></trkpt><trkpt lat="45.6348849" lon="10.5956121"><ele>78.0</ele><time>2026-03-29T13:07:08.548Z</time></trkpt><trkpt lat="45.6349203" lon="10.5957045"><ele>78.0</ele><time>2026-03-29T13:07:09.552Z</time></trkpt><trkpt lat="45.6349573" lon="10.5957993"><ele>78.0</ele><time>2026-03-29T13:07:10.569Z</time></trkpt><trkpt lat="45.6349932" lon="10.595895"><ele>78.0</ele><time>2026-03-29T13:07:11.565Z</time></trkpt><trkpt lat="45.6350302" lon="10.5959859"><ele>78.0</ele><time>2026-03-29T13:07:12.558Z</time></trkpt><trkpt lat="45.6350702" lon="10.5960779"><ele>78.0</ele><time>2026-03-29T13:07:13.558Z</time></trkpt><trkpt lat="45.6351092" lon="10.5961687"><ele>78.0</ele><time>2026-03-29T13:07:14.56Z</time></trkpt><trkpt lat="45.6351497" lon="10.5962542"><ele>77.14285714285715</ele><time>2026-03-29T13:07:15.574Z</time></trkpt><trkpt lat="45.6351888" lon="10.5963333"><ele>76.28571428571428</ele><time>2026-03-29T13:07:16.562Z</time></trkpt><trkpt lat="45.6352297" lon="10.596416"><ele>75.42857142857143</ele><time>2026-03-29T13:07:17.56Z</time></trkpt><trkpt lat="45.6352734" lon="10.5965007"><ele>74.57142857142858</ele><time>2026-03-29T13:07:18.557Z</time></trkpt><trkpt lat="45.6353166" lon="10.5965921"><ele>73.71428571428572</ele><time>2026-03-29T13:07:19.565Z</time></trkpt><trkpt lat="45.6353594" lon="10.596684"><ele>72.85714285714286</ele><time>2026-03-29T13:07:20.555Z</time></trkpt><trkpt lat="45.6354025" lon="10.5967791"><ele>72.0</ele><time>2026-03-29T13:07:21.561Z</time></trkpt><trkpt lat="45.6354431" lon="10.5968692"><ele>73.16666666666667</ele><time>2026-03-29T13:07:22.544Z</time></trkpt><trkpt lat="45.6354844" lon="10.5969599"><ele>74.33333333333333</ele><time>2026-03-29T13:07:23.561Z</time></trkpt><trkpt lat="45.6355216" lon="10.5970479"><ele>75.5</ele><time>2026-03-29T13:07:24.553Z</time></trkpt><trkpt lat="45.6355547" lon="10.5971345"><ele>76.66666666666666</ele><time>2026-03-29T13:07:25.549Z</time></trkpt><trkpt lat="45.6355868" lon="10.5972254"><ele>77.83333333333333</ele><time>2026-03-29T13:07:26.546Z</time></trkpt><trkpt lat="45.6356185" lon="10.597331"><ele>79.0</ele><time>2026-03-29T13:07:27.574Z</time></trkpt><trkpt lat="45.6356497" lon="10.5974406"><ele>79.0</ele><time>2026-03-29T13:07:28.58Z</time></trkpt><trkpt lat="45.635675" lon="10.59756"><ele>79.0</ele><time>2026-03-29T13:07:29.577Z</time></trkpt><trkpt lat="45.6356912" lon="10.5976761"><ele>79.0</ele><time>2026-03-29T13:07:30.555Z</time></trkpt><trkpt lat="45.6357065" lon="10.5977957"><ele>79.0</ele><time>2026-03-29T13:07:31.564Z</time></trkpt><trkpt lat="45.6357182" lon="10.5979127"><ele>79.0</ele><time>2026-03-29T13:07:32.563Z</time></trkpt><trkpt lat="45.6357256" lon="10.5980315"><ele>79.0</ele><time>2026-03-29T13:07:33.566Z</time></trkpt><trkpt lat="45.6357269" lon="10.5981435"><ele>78.16666666666666</ele><time>2026-03-29T13:07:34.568Z</time></trkpt><trkpt lat="45.635727" lon="10.5982465"><ele>77.33333333333333</ele><time>2026-03-29T13:07:35.569Z</time></trkpt><trkpt lat="45.6357258" lon="10.5983453"><ele>76.5</ele><time>2026-03-29T13:07:36.546Z</time></trkpt><trkpt lat="45.6357242" lon="10.5984484"><ele>75.66666666666667</ele><time>2026-03-29T13:07:37.563Z</time></trkpt><trkpt lat="45.6357248" lon="10.5985401"><ele>74.83333333333334</ele><time>2026-03-29T13:07:38.542Z</time></trkpt><trkpt lat="45.6357201" lon="10.5986946"><ele>74.0</ele><time>2026-03-29T13:07:40.558Z</time></trkpt><trkpt lat="45.6356951" lon="10.5988577"><ele>73.66666666666667</ele><time>2026-03-29T13:07:42.546Z</time></trkpt><trkpt lat="45.6356754" lon="10.5989496"><ele>73.33333333333334</ele><time>2026-03-29T13:07:43.554Z</time></trkpt><trkpt lat="45.6356524" lon="10.5990388"><ele>73.0</ele><time>2026-03-29T13:07:44.556Z</time></trkpt><trkpt lat="45.6355985" lon="10.5991746"><ele>72.66666666666667</ele><time>2026-03-29T13:07:46.548Z</time></trkpt><trkpt lat="45.6355382" lon="10.5992991"><ele>72.33333333333333</ele><time>2026-03-29T13:07:48.555Z</time></trkpt><trkpt lat="45.6354944" lon="10.599372"><ele>72.0</ele><time>2026-03-29T13:07:49.579Z</time></trkpt><trkpt lat="45.6354477" lon="10.5994651"><ele>72.0</ele><time>2026-03-29T13:07:50.582Z</time></trkpt><trkpt lat="45.6353909" lon="10.5995723"><ele>72.0</ele><time>2026-03-29T13:07:51.562Z</time></trkpt><trkpt lat="45.6353253" lon="10.5996952"><ele>72.0</ele><time>2026-03-29T13:07:52.576Z</time></trkpt><trkpt lat="45.6352626" lon="10.5998294"><ele>72.0</ele><time>2026-03-29T13:07:53.545Z</time></trkpt><trkpt lat="45.6351952" lon="10.5999836"><ele>72.0</ele><time>2026-03-29T13:07:54.558Z</time></trkpt><trkpt lat="45.6351302" lon="10.6001591"><ele>72.25</ele><time>2026-03-29T13:07:55.576Z</time></trkpt><trkpt lat="45.6350653" lon="10.6003322"><ele>72.5</ele><time>2026-03-29T13:07:56.555Z</time></trkpt><trkpt lat="45.6350084" lon="10.6005144"><ele>72.75</ele><time>2026-03-29T13:07:57.559Z</time></trkpt><trkpt lat="45.6349608" lon="10.6006841"><ele>73.0</ele><time>2026-03-29T13:07:58.562Z</time></trkpt><trkpt lat="45.6349225" lon="10.6008448"><ele>72.4</ele><time>2026-03-29T13:07:59.575Z</time></trkpt><trkpt lat="45.6348986" lon="10.6010067"><ele>71.8</ele><time>2026-03-29T13:08:00.552Z</time></trkpt><trkpt lat="45.6348954" lon="10.6011453"><ele>71.2</ele><time>2026-03-29T13:08:01.555Z</time></trkpt><trkpt lat="45.6349082" lon="10.6013036"><ele>70.6</ele><time>2026-03-29T13:08:02.56Z</time></trkpt><trkpt lat="45.634939" lon="10.6014616"><ele>70.0</ele><time>2026-03-29T13:08:03.578Z</time></trkpt><trkpt lat="45.6349838" lon="10.6016064"><ele>69.75</ele><time>2026-03-29T13:08:04.564Z</time></trkpt><trkpt lat="45.6350374" lon="10.6017393"><ele>69.5</ele><time>2026-03-29T13:08:05.562Z</time></trkpt><trkpt lat="45.635101" lon="10.6018691"><ele>69.25</ele><time>2026-03-29T13:08:06.564Z</time></trkpt><trkpt lat="45.6351713" lon="10.6020098"><ele>69.0</ele><time>2026-03-29T13:08:07.57Z</time></trkpt><trkpt lat="45.6352461" lon="10.6021534"><ele>69.25</ele><time>2026-03-29T13:08:08.549Z</time></trkpt><trkpt lat="45.6353289" lon="10.6023155"><ele>69.5</ele><time>2026-03-29T13:08:09.561Z</time></trkpt><trkpt lat="45.6354174" lon="10.602489"><ele>69.75</ele><time>2026-03-29T13:08:10.559Z</time></trkpt><trkpt lat="45.6355132" lon="10.6026684"><ele>70.0</ele><time>2026-03-29T13:08:11.578Z</time></trkpt><trkpt lat="45.6356045" lon="10.6028434"><ele>70.0</ele><time>2026-03-29T13:08:12.564Z</time></trkpt><trkpt lat="45.635698" lon="10.6030185"><ele>70.0</ele><time>2026-03-29T13:08:13.546Z</time></trkpt><trkpt lat="45.6357947" lon="10.6032047"><ele>70.0</ele><time>2026-03-29T13:08:14.57Z</time></trkpt><trkpt lat="45.6358919" lon="10.6033877"><ele>70.0</ele><time>2026-03-29T13:08:15.562Z</time></trkpt><trkpt lat="45.6359868" lon="10.60357"><ele>70.0</ele><time>2026-03-29T13:08:16.554Z</time></trkpt><trkpt lat="45.6360801" lon="10.6037444"><ele>70.0</ele><time>2026-03-29T13:08:17.553Z</time></trkpt><trkpt lat="45.6361704" lon="10.6039049"><ele>71.25</ele><time>2026-03-29T13:08:18.554Z</time></trkpt><trkpt lat="45.6362564" lon="10.6040601"><ele>72.5</ele><time>2026-03-29T13:08:19.555Z</time></trkpt><trkpt lat="45.636336" lon="10.604209"><ele>73.75</ele><time>2026-03-29T13:08:20.562Z</time></trkpt><trkpt lat="45.6364136" lon="10.6043556"><ele>75.0</ele><time>2026-03-29T13:08:21.581Z</time></trkpt><trkpt lat="45.6364815" lon="10.6044877"><ele>74.6</ele><time>2026-03-29T13:08:22.568Z</time></trkpt><trkpt lat="45.6365432" lon="10.6046115"><ele>74.2</ele><time>2026-03-29T13:08:23.554Z</time></trkpt><trkpt lat="45.636601" lon="10.6047239"><ele>73.8</ele><time>2026-03-29T13:08:24.557Z</time></trkpt><trkpt lat="45.6366527" lon="10.6048284"><ele>73.4</ele><time>2026-03-29T13:08:25.584Z</time></trkpt><trkpt lat="45.636692" lon="10.6049157"><ele>73.0</ele><time>2026-03-29T13:08:26.551Z</time></trkpt><trkpt lat="45.636711" lon="10.6050607"><ele>73.0</ele><time>2026-03-29T13:08:28.552Z</time></trkpt><trkpt lat="45.6367155" lon="10.6051576"><ele>73.0</ele><time>2026-03-29T13:08:29.566Z</time></trkpt><trkpt lat="45.6367406" lon="10.6052711"><ele>73.0</ele><time>2026-03-29T13:08:30.57Z</time></trkpt><trkpt lat="45.6367887" lon="10.6053738"><ele>73.0</ele><time>2026-03-29T13:08:31.556Z</time></trkpt><trkpt lat="45.6368426" lon="10.6054619"><ele>73.0</ele><time>2026-03-29T13:08:32.555Z</time></trkpt><trkpt lat="45.6369102" lon="10.6055091"><ele>73.0</ele><time>2026-03-29T13:08:33.558Z</time></trkpt><trkpt lat="45.6369778" lon="10.6055571"><ele>73.4</ele><time>2026-03-29T13:08:34.553Z</time></trkpt><trkpt lat="45.6370402" lon="10.6056451"><ele>73.8</ele><time>2026-03-29T13:08:35.565Z</time></trkpt><trkpt lat="45.6370988" lon="10.6057727"><ele>74.2</ele><time>2026-03-29T13:08:36.556Z</time></trkpt><trkpt lat="45.6371544" lon="10.6059244"><ele>74.6</ele><time>2026-03-29T13:08:37.564Z</time></trkpt><trkpt lat="45.6372181" lon="10.606077"><ele>75.0</ele><time>2026-03-29T13:08:38.555Z</time></trkpt><trkpt lat="45.6372993" lon="10.6062438"><ele>75.66666666666667</ele><time>2026-03-29T13:08:39.57Z</time></trkpt><trkpt lat="45.6373946" lon="10.6064095"><ele>76.33333333333334</ele><time>2026-03-29T13:08:40.557Z</time></trkpt><trkpt lat="45.6375025" lon="10.6065762"><ele>77.0</ele><time>2026-03-29T13:08:41.553Z</time></trkpt><trkpt lat="45.6376175" lon="10.6067355"><ele>77.0</ele><time>2026-03-29T13:08:42.55Z</time></trkpt><trkpt lat="45.6377418" lon="10.6068931"><ele>77.0</ele><time>2026-03-29T13:08:43.57Z</time></trkpt><trkpt lat="45.6378726" lon="10.607034"><ele>77.0</ele><time>2026-03-29T13:08:44.574Z</time></trkpt><trkpt lat="45.6380062" lon="10.6071592"><ele>77.5</ele><time>2026-03-29T13:08:45.557Z</time></trkpt><trkpt lat="45.6381415" lon="10.6072415"><ele>78.0</ele><time>2026-03-29T13:08:46.551Z</time></trkpt><trkpt lat="45.6382805" lon="10.6073233"><ele>78.5</ele><time>2026-03-29T13:08:47.562Z</time></trkpt><trkpt lat="45.6384201" lon="10.607392"><ele>79.0</ele><time>2026-03-29T13:08:48.558Z</time></trkpt><trkpt lat="45.6385669" lon="10.607456"><ele>80.0</ele><time>2026-03-29T13:08:49.556Z</time></trkpt><trkpt lat="45.6387138" lon="10.6075172"><ele>81.0</ele><time>2026-03-29T13:08:50.561Z</time></trkpt><trkpt lat="45.6388652" lon="10.6075764"><ele>82.0</ele><time>2026-03-29T13:08:51.564Z</time></trkpt><trkpt lat="45.6390163" lon="10.6076414"><ele>82.0</ele><time>2026-03-29T13:08:52.563Z</time></trkpt><trkpt lat="45.6391676" lon="10.6077058"><ele>82.0</ele><time>2026-03-29T13:08:53.548Z</time></trkpt><trkpt lat="45.6393197" lon="10.6077738"><ele>82.0</ele><time>2026-03-29T13:08:54.558Z</time></trkpt><trkpt lat="45.6394698" lon="10.6078418"><ele>82.5</ele><time>2026-03-29T13:08:55.57Z</time></trkpt><trkpt lat="45.6396124" lon="10.6079088"><ele>83.0</ele><time>2026-03-29T13:08:56.554Z</time></trkpt><trkpt lat="45.6397471" lon="10.6079745"><ele>83.5</ele><time>2026-03-29T13:08:57.546Z</time></trkpt><trkpt lat="45.6398772" lon="10.608041"><ele>84.0</ele><time>2026-03-29T13:08:58.561Z</time></trkpt><trkpt lat="45.6399957" lon="10.6081014"><ele>84.0</ele><time>2026-03-29T13:08:59.547Z</time></trkpt><trkpt lat="45.6401117" lon="10.6081646"><ele>84.0</ele><time>2026-03-29T13:09:00.559Z</time></trkpt><trkpt lat="45.6402148" lon="10.6082311"><ele>84.0</ele><time>2026-03-29T13:09:01.55Z</time></trkpt><trkpt lat="45.6403093" lon="10.6082993"><ele>84.0</ele><time>2026-03-29T13:09:02.546Z</time></trkpt><trkpt lat="45.6403869" lon="10.6083679"><ele>84.0</ele><time>2026-03-29T13:09:03.549Z</time></trkpt><trkpt lat="45.6404586" lon="10.6084328"><ele>83.33333333333333</ele><time>2026-03-29T13:09:04.56Z</time></trkpt><trkpt lat="45.6405203" lon="10.6084941"><ele>82.66666666666667</ele><time>2026-03-29T13:09:05.573Z</time></trkpt><trkpt lat="45.6405986" lon="10.6085842"><ele>82.0</ele><time>2026-03-29T13:09:07.555Z</time></trkpt><trkpt lat="45.6406429" lon="10.6086825"><ele>81.33333333333334</ele><time>2026-03-29T13:09:09.571Z</time></trkpt><trkpt lat="45.6406836" lon="10.6087929"><ele>80.66666666666667</ele><time>2026-03-29T13:09:11.548Z</time></trkpt><trkpt lat="45.640733" lon="10.6088603"><ele>80.0</ele><time>2026-03-29T13:09:12.555Z</time></trkpt><trkpt lat="45.6407857" lon="10.6089296"><ele>80.0</ele><time>2026-03-29T13:09:13.553Z</time></trkpt><trkpt lat="45.6408678" lon="10.6090819"><ele>80.0</ele><time>2026-03-29T13:09:15.557Z</time></trkpt><trkpt lat="45.640906" lon="10.6091865"><ele>80.0</ele><time>2026-03-29T13:09:16.546Z</time></trkpt><trkpt lat="45.6409417" lon="10.6093106"><ele>80.0</ele><time>2026-03-29T13:09:17.556Z</time></trkpt><trkpt lat="45.6409812" lon="10.6094385"><ele>80.0</ele><time>2026-03-29T13:09:18.552Z</time></trkpt><trkpt lat="45.6410181" lon="10.6095733"><ele>80.0</ele><time>2026-03-29T13:09:19.542Z</time></trkpt><trkpt lat="45.6410583" lon="10.6097185"><ele>80.0</ele><time>2026-03-29T13:09:20.555Z</time></trkpt><trkpt lat="45.6411054" lon="10.6098685"><ele>80.0</ele><time>2026-03-29T13:09:21.562Z</time></trkpt><trkpt lat="45.6411641" lon="10.6100369"><ele>80.0</ele><time>2026-03-29T13:09:22.691Z</time></trkpt><trkpt lat="45.6412532" lon="10.6103186"><ele>82.0</ele><time>2026-03-29T13:09:24.557Z</time></trkpt><trkpt lat="45.641298" lon="10.6104694"><ele>84.0</ele><time>2026-03-29T13:09:25.565Z</time></trkpt><trkpt lat="45.6413431" lon="10.6106161"><ele>86.0</ele><time>2026-03-29T13:09:26.554Z</time></trkpt><trkpt lat="45.6413922" lon="10.6107718"><ele>88.0</ele><time>2026-03-29T13:09:27.596Z</time></trkpt><trkpt lat="45.6414386" lon="10.6109167"><ele>88.0</ele><time>2026-03-29T13:09:28.556Z</time></trkpt><trkpt lat="45.6414911" lon="10.6110754"><ele>88.0</ele><time>2026-03-29T13:09:29.573Z</time></trkpt><trkpt lat="45.6415452" lon="10.6112338"><ele>88.0</ele><time>2026-03-29T13:09:30.573Z</time></trkpt><trkpt lat="45.6415989" lon="10.6113894"><ele>88.0</ele><time>2026-03-29T13:09:31.557Z</time></trkpt><trkpt lat="45.6416565" lon="10.6115548"><ele>87.0</ele><time>2026-03-29T13:09:32.574Z</time></trkpt><trkpt lat="45.6417112" lon="10.6117141"><ele>86.0</ele><time>2026-03-29T13:09:33.558Z</time></trkpt><trkpt lat="45.6417671" lon="10.6118807"><ele>85.0</ele><time>2026-03-29T13:09:34.557Z</time></trkpt><trkpt lat="45.6418204" lon="10.6120403"><ele>84.0</ele><time>2026-03-29T13:09:35.548Z</time></trkpt><trkpt lat="45.6418673" lon="10.6121883"><ele>83.5</ele><time>2026-03-29T13:09:36.565Z</time></trkpt><trkpt lat="45.6419081" lon="10.6123125"><ele>83.0</ele><time>2026-03-29T13:09:37.563Z</time></trkpt><trkpt lat="45.6419422" lon="10.6124185"><ele>82.5</ele><time>2026-03-29T13:09:38.548Z</time></trkpt><trkpt lat="45.64197" lon="10.6125111"><ele>82.0</ele><time>2026-03-29T13:09:39.567Z</time></trkpt><trkpt lat="45.6419964" lon="10.6125994"><ele>81.5</ele><time>2026-03-29T13:09:40.552Z</time></trkpt><trkpt lat="45.6420294" lon="10.6126937"><ele>81.0</ele><time>2026-03-29T13:09:41.589Z</time></trkpt><trkpt lat="45.6420588" lon="10.6127858"><ele>81.16666666666667</ele><time>2026-03-29T13:09:42.561Z</time></trkpt><trkpt lat="45.6420908" lon="10.6128828"><ele>81.33333333333333</ele><time>2026-03-29T13:09:43.555Z</time></trkpt><trkpt lat="45.64212" lon="10.6129816"><ele>81.5</ele><time>2026-03-29T13:09:44.56Z</time></trkpt><trkpt lat="45.6421469" lon="10.6130688"><ele>81.66666666666666</ele><time>2026-03-29T13:09:45.569Z</time></trkpt><trkpt lat="45.6421803" lon="10.6132218"><ele>81.83333333333333</ele><time>2026-03-29T13:09:47.568Z</time></trkpt><trkpt lat="45.6421713" lon="10.6133649"><ele>82.0</ele><time>2026-03-29T13:09:49.558Z</time></trkpt><trkpt lat="45.6421158" lon="10.6135253"><ele>82.0</ele><time>2026-03-29T13:09:51.566Z</time></trkpt><trkpt lat="45.6420922" lon="10.6136206"><ele>82.0</ele><time>2026-03-29T13:09:52.575Z</time></trkpt><trkpt lat="45.6421423" lon="10.6137657"><ele>82.0</ele><time>2026-03-29T13:09:54.554Z</time></trkpt><trkpt lat="45.6422066" lon="10.6137972"><ele>82.0</ele><time>2026-03-29T13:09:55.557Z</time></trkpt><trkpt lat="45.6422775" lon="10.6138089"><ele>82.0</ele><time>2026-03-29T13:09:56.565Z</time></trkpt><trkpt lat="45.6423427" lon="10.6138307"><ele>82.0</ele><time>2026-03-29T13:09:57.582Z</time></trkpt><trkpt lat="45.642439" lon="10.6139623"><ele>81.5</ele><time>2026-03-29T13:09:59.552Z</time></trkpt><trkpt lat="45.6424987" lon="10.6140797"><ele>81.0</ele><time>2026-03-29T13:10:00.557Z</time></trkpt><trkpt lat="45.6425741" lon="10.6142165"><ele>80.5</ele><time>2026-03-29T13:10:01.564Z</time></trkpt><trkpt lat="45.6426658" lon="10.6143728"><ele>80.0</ele><time>2026-03-29T13:10:02.56Z</time></trkpt><trkpt lat="45.6427671" lon="10.6145327"><ele>80.33333333333334</ele><time>2026-03-29T13:10:03.56Z</time></trkpt><trkpt lat="45.6428792" lon="10.6146949"><ele>80.66666666666667</ele><time>2026-03-29T13:10:04.565Z</time></trkpt><trkpt lat="45.6429888" lon="10.6148558"><ele>81.0</ele><time>2026-03-29T13:10:05.552Z</time></trkpt><trkpt lat="45.6431157" lon="10.6150304"><ele>81.0</ele><time>2026-03-29T13:10:06.566Z</time></trkpt><trkpt lat="45.6432554" lon="10.6152199"><ele>81.0</ele><time>2026-03-29T13:10:07.56Z</time></trkpt><trkpt lat="45.6434127" lon="10.6154262"><ele>81.0</ele><time>2026-03-29T13:10:08.577Z</time></trkpt><trkpt lat="45.6435441" lon="10.6156391"><ele>81.0</ele><time>2026-03-29T13:10:09.558Z</time></trkpt><trkpt lat="45.6436865" lon="10.6158697"><ele>81.0</ele><time>2026-03-29T13:10:10.552Z</time></trkpt><trkpt lat="45.6438283" lon="10.6160919"><ele>81.0</ele><time>2026-03-29T13:10:11.56Z</time></trkpt><trkpt lat="45.6439689" lon="10.6163058"><ele>81.0</ele><time>2026-03-29T13:10:12.58Z</time></trkpt><trkpt lat="45.6441041" lon="10.6164972"><ele>81.0</ele><time>2026-03-29T13:10:13.575Z</time></trkpt><trkpt lat="45.6442379" lon="10.6166601"><ele>81.0</ele><time>2026-03-29T13:10:14.578Z</time></trkpt><trkpt lat="45.6443719" lon="10.6168"><ele>80.66666666666667</ele><time>2026-03-29T13:10:15.545Z</time></trkpt><trkpt lat="45.6445186" lon="10.6169225"><ele>80.33333333333334</ele><time>2026-03-29T13:10:16.559Z</time></trkpt><trkpt lat="45.6446731" lon="10.6170268"><ele>80.0</ele><time>2026-03-29T13:10:17.577Z</time></trkpt><trkpt lat="45.6448361" lon="10.6171076"><ele>79.0</ele><time>2026-03-29T13:10:18.558Z</time></trkpt><trkpt lat="45.6450068" lon="10.6171675"><ele>78.0</ele><time>2026-03-29T13:10:19.559Z</time></trkpt><trkpt lat="45.6451733" lon="10.6172256"><ele>77.0</ele><time>2026-03-29T13:10:20.558Z</time></trkpt><trkpt lat="45.6453326" lon="10.61728"><ele>80.5</ele><time>2026-03-29T13:10:21.568Z</time></trkpt><trkpt lat="45.64548" lon="10.6173293"><ele>84.0</ele><time>2026-03-29T13:10:22.558Z</time></trkpt><trkpt lat="45.6456112" lon="10.6173815"><ele>87.5</ele><time>2026-03-29T13:10:23.558Z</time></trkpt><trkpt lat="45.6457374" lon="10.61743"><ele>91.0</ele><time>2026-03-29T13:10:24.545Z</time></trkpt><trkpt lat="45.6458577" lon="10.6174929"><ele>91.0</ele><time>2026-03-29T13:10:25.556Z</time></trkpt><trkpt lat="45.6459839" lon="10.6175986"><ele>91.0</ele><time>2026-03-29T13:10:26.566Z</time></trkpt><trkpt lat="45.6460629" lon="10.6177168"><ele>91.0</ele><time>2026-03-29T13:10:27.566Z</time></trkpt><trkpt lat="45.6461352" lon="10.6178553"><ele>91.0</ele><time>2026-03-29T13:10:28.576Z</time></trkpt><trkpt lat="45.6461974" lon="10.6180246"><ele>97.66666666666666</ele><time>2026-03-29T13:10:29.571Z</time></trkpt><trkpt lat="45.6462821" lon="10.6181942"><ele>104.33333333333333</ele><time>2026-03-29T13:10:30.571Z</time></trkpt><trkpt lat="45.6463731" lon="10.618364"><ele>111.0</ele><time>2026-03-29T13:10:31.563Z</time></trkpt><trkpt lat="45.6464794" lon="10.618534"><ele>101.33333333333333</ele><time>2026-03-29T13:10:32.564Z</time></trkpt><trkpt lat="45.6465883" lon="10.618705"><ele>91.66666666666666</ele><time>2026-03-29T13:10:33.558Z</time></trkpt><trkpt lat="45.6466966" lon="10.6188752"><ele>82.0</ele><time>2026-03-29T13:10:34.557Z</time></trkpt><trkpt lat="45.6468003" lon="10.6190559"><ele>82.0</ele><time>2026-03-29T13:10:35.56Z</time></trkpt><trkpt lat="45.6468975" lon="10.6192445"><ele>82.0</ele><time>2026-03-29T13:10:36.554Z</time></trkpt><trkpt lat="45.6469915" lon="10.6194484"><ele>82.0</ele><time>2026-03-29T13:10:37.563Z</time></trkpt><trkpt lat="45.6470842" lon="10.6196537"><ele>91.33333333333333</ele><time>2026-03-29T13:10:38.563Z</time></trkpt><trkpt lat="45.6471778" lon="10.6198586"><ele>100.66666666666666</ele><time>2026-03-29T13:10:39.561Z</time></trkpt><trkpt lat="45.6472677" lon="10.6200594"><ele>110.0</ele><time>2026-03-29T13:10:40.566Z</time></trkpt><trkpt lat="45.6473509" lon="10.6202461"><ele>100.33333333333333</ele><time>2026-03-29T13:10:41.545Z</time></trkpt><trkpt lat="45.6474344" lon="10.620429"><ele>90.66666666666666</ele><time>2026-03-29T13:10:42.561Z</time></trkpt><trkpt lat="45.6475186" lon="10.6206109"><ele>81.0</ele><time>2026-03-29T13:10:43.554Z</time></trkpt><trkpt lat="45.6476063" lon="10.6208035"><ele>81.0</ele><time>2026-03-29T13:10:44.565Z</time></trkpt><trkpt lat="45.6476952" lon="10.6209966"><ele>81.0</ele><time>2026-03-29T13:10:45.583Z</time></trkpt><trkpt lat="45.6477815" lon="10.6211811"><ele>81.0</ele><time>2026-03-29T13:10:46.556Z</time></trkpt><trkpt lat="45.6478675" lon="10.6213672"><ele>79.75</ele><time>2026-03-29T13:10:47.559Z</time></trkpt><trkpt lat="45.6479508" lon="10.6215516"><ele>78.5</ele><time>2026-03-29T13:10:48.561Z</time></trkpt><trkpt lat="45.6480358" lon="10.6217231"><ele>77.25</ele><time>2026-03-29T13:10:49.558Z</time></trkpt><trkpt lat="45.6481274" lon="10.621889"><ele>76.0</ele><time>2026-03-29T13:10:50.561Z</time></trkpt><trkpt lat="45.6482277" lon="10.6220542"><ele>76.0</ele><time>2026-03-29T13:10:51.568Z</time></trkpt><trkpt lat="45.6483374" lon="10.6222135"><ele>76.0</ele><time>2026-03-29T13:10:52.563Z</time></trkpt><trkpt lat="45.6484578" lon="10.6223678"><ele>76.0</ele><time>2026-03-29T13:10:53.565Z</time></trkpt><trkpt lat="45.6485812" lon="10.6225265"><ele>80.33333333333333</ele><time>2026-03-29T13:10:54.579Z</time></trkpt><trkpt lat="45.648696" lon="10.622681"><ele>84.66666666666667</ele><time>2026-03-29T13:10:55.549Z</time></trkpt><trkpt lat="45.648803" lon="10.6228571"><ele>89.0</ele><time>2026-03-29T13:10:56.556Z</time></trkpt><trkpt lat="45.6489041" lon="10.623045"><ele>89.0</ele><time>2026-03-29T13:10:57.578Z</time></trkpt><trkpt lat="45.6489962" lon="10.623234"><ele>89.0</ele><time>2026-03-29T13:10:58.561Z</time></trkpt><trkpt lat="45.6490898" lon="10.6234331"><ele>89.0</ele><time>2026-03-29T13:10:59.57Z</time></trkpt><trkpt lat="45.6491741" lon="10.6236357"><ele>83.0</ele><time>2026-03-29T13:11:00.554Z</time></trkpt><trkpt lat="45.6492612" lon="10.6238448"><ele>77.0</ele><time>2026-03-29T13:11:01.571Z</time></trkpt><trkpt lat="45.6493488" lon="10.6240458"><ele>71.0</ele><time>2026-03-29T13:11:02.565Z</time></trkpt><trkpt lat="45.6494377" lon="10.6242461"><ele>75.33333333333334</ele><time>2026-03-29T13:11:03.56Z</time></trkpt><trkpt lat="45.6495317" lon="10.624447"><ele>79.66666666666667</ele><time>2026-03-29T13:11:04.566Z</time></trkpt><trkpt lat="45.6496347" lon="10.6246382"><ele>84.0</ele><time>2026-03-29T13:11:05.575Z</time></trkpt><trkpt lat="45.6497394" lon="10.6248194"><ele>84.0</ele><time>2026-03-29T13:11:06.568Z</time></trkpt><trkpt lat="45.6498484" lon="10.6249898"><ele>84.0</ele><time>2026-03-29T13:11:07.559Z</time></trkpt><trkpt lat="45.6499643" lon="10.6251554"><ele>84.0</ele><time>2026-03-29T13:11:08.553Z</time></trkpt><trkpt lat="45.6500851" lon="10.6253131"><ele>87.0</ele><time>2026-03-29T13:11:09.553Z</time></trkpt><trkpt lat="45.6502069" lon="10.6254677"><ele>90.0</ele><time>2026-03-29T13:11:10.558Z</time></trkpt><trkpt lat="45.6503198" lon="10.6256276"><ele>93.0</ele><time>2026-03-29T13:11:11.546Z</time></trkpt><trkpt lat="45.6504345" lon="10.6258036"><ele>93.0</ele><time>2026-03-29T13:11:12.582Z</time></trkpt><trkpt lat="45.6505364" lon="10.6259777"><ele>93.0</ele><time>2026-03-29T13:11:13.571Z</time></trkpt><trkpt lat="45.6506385" lon="10.6261639"><ele>93.0</ele><time>2026-03-29T13:11:14.551Z</time></trkpt><trkpt lat="45.6507447" lon="10.6263599"><ele>89.66666666666667</ele><time>2026-03-29T13:11:15.564Z</time></trkpt><trkpt lat="45.6508454" lon="10.6265576"><ele>86.33333333333334</ele><time>2026-03-29T13:11:16.571Z</time></trkpt><trkpt lat="45.6509418" lon="10.6267488"><ele>83.0</ele><time>2026-03-29T13:11:17.566Z</time></trkpt><trkpt lat="45.651039" lon="10.6269335"><ele>89.0</ele><time>2026-03-29T13:11:18.554Z</time></trkpt><trkpt lat="45.6511368" lon="10.6271131"><ele>95.0</ele><time>2026-03-29T13:11:19.548Z</time></trkpt><trkpt lat="45.6512467" lon="10.6272868"><ele>101.0</ele><time>2026-03-29T13:11:20.563Z</time></trkpt><trkpt lat="45.6513612" lon="10.6274409"><ele>101.0</ele><time>2026-03-29T13:11:21.56Z</time></trkpt><trkpt lat="45.6514817" lon="10.6275861"><ele>101.0</ele><time>2026-03-29T13:11:22.575Z</time></trkpt><trkpt lat="45.651594" lon="10.6277161"><ele>101.0</ele><time>2026-03-29T13:11:23.553Z</time></trkpt><trkpt lat="45.6517121" lon="10.6278477"><ele>102.5</ele><time>2026-03-29T13:11:24.553Z</time></trkpt><trkpt lat="45.6518291" lon="10.62798"><ele>104.0</ele><time>2026-03-29T13:11:25.551Z</time></trkpt><trkpt lat="45.6519487" lon="10.6281071"><ele>105.5</ele><time>2026-03-29T13:11:26.563Z</time></trkpt><trkpt lat="45.6520713" lon="10.6282297"><ele>107.0</ele><time>2026-03-29T13:11:27.558Z</time></trkpt><trkpt lat="45.6522026" lon="10.6283383"><ele>107.0</ele><time>2026-03-29T13:11:28.56Z</time></trkpt><trkpt lat="45.6523373" lon="10.6284323"><ele>107.0</ele><time>2026-03-29T13:11:29.558Z</time></trkpt><trkpt lat="45.6524705" lon="10.6285187"><ele>107.0</ele><time>2026-03-29T13:11:30.548Z</time></trkpt><trkpt lat="45.6526026" lon="10.6286116"><ele>107.0</ele><time>2026-03-29T13:11:31.56Z</time></trkpt><trkpt lat="45.6527127" lon="10.6287024"><ele>106.25</ele><time>2026-03-29T13:11:32.553Z</time></trkpt><trkpt lat="45.6528154" lon="10.6288006"><ele>105.5</ele><time>2026-03-29T13:11:33.555Z</time></trkpt><trkpt lat="45.6529001" lon="10.6289182"><ele>104.75</ele><time>2026-03-29T13:11:34.559Z</time></trkpt><trkpt lat="45.6529868" lon="10.6290453"><ele>104.0</ele><time>2026-03-29T13:11:35.555Z</time></trkpt><trkpt lat="45.6530776" lon="10.6291865"><ele>104.0</ele><time>2026-03-29T13:11:36.559Z</time></trkpt><trkpt lat="45.6531675" lon="10.6293402"><ele>104.0</ele><time>2026-03-29T13:11:37.548Z</time></trkpt><trkpt lat="45.6532583" lon="10.6295089"><ele>104.0</ele><time>2026-03-29T13:11:38.578Z</time></trkpt><trkpt lat="45.6533423" lon="10.6296781"><ele>104.0</ele><time>2026-03-29T13:11:39.553Z</time></trkpt><trkpt lat="45.653427" lon="10.6298489"><ele>102.5</ele><time>2026-03-29T13:11:40.553Z</time></trkpt><trkpt lat="45.6535098" lon="10.6300208"><ele>101.0</ele><time>2026-03-29T13:11:41.554Z</time></trkpt><trkpt lat="45.6535934" lon="10.6301904"><ele>99.5</ele><time>2026-03-29T13:11:42.565Z</time></trkpt><trkpt lat="45.6536729" lon="10.6303492"><ele>98.0</ele><time>2026-03-29T13:11:43.556Z</time></trkpt><trkpt lat="45.6537528" lon="10.6305084"><ele>98.0</ele><time>2026-03-29T13:11:44.555Z</time></trkpt><trkpt lat="45.6538321" lon="10.6306669"><ele>98.0</ele><time>2026-03-29T13:11:45.546Z</time></trkpt><trkpt lat="45.6539143" lon="10.6308298"><ele>98.0</ele><time>2026-03-29T13:11:46.547Z</time></trkpt><trkpt lat="45.6539995" lon="10.6310117"><ele>98.0</ele><time>2026-03-29T13:11:47.578Z</time></trkpt><trkpt lat="45.6540802" lon="10.6311957"><ele>93.0</ele><time>2026-03-29T13:11:48.573Z</time></trkpt><trkpt lat="45.6541623" lon="10.6313766"><ele>88.0</ele><time>2026-03-29T13:11:49.557Z</time></trkpt><trkpt lat="45.654244" lon="10.6315693"><ele>83.0</ele><time>2026-03-29T13:11:50.555Z</time></trkpt><trkpt lat="45.6543359" lon="10.6317697"><ele>78.66666666666667</ele><time>2026-03-29T13:11:51.544Z</time></trkpt><trkpt lat="45.654427" lon="10.6319923"><ele>74.33333333333333</ele><time>2026-03-29T13:11:52.557Z</time></trkpt><trkpt lat="45.6545089" lon="10.6322135"><ele>70.0</ele><time>2026-03-29T13:11:53.564Z</time></trkpt><trkpt lat="45.6545797" lon="10.6324416"><ele>75.33333333333333</ele><time>2026-03-29T13:11:54.554Z</time></trkpt><trkpt lat="45.6546607" lon="10.6326514"><ele>80.66666666666667</ele><time>2026-03-29T13:11:55.579Z</time></trkpt><trkpt lat="45.6547566" lon="10.6328597"><ele>86.0</ele><time>2026-03-29T13:11:56.586Z</time></trkpt><trkpt lat="45.6548731" lon="10.6330477"><ele>86.0</ele><time>2026-03-29T13:11:57.573Z</time></trkpt><trkpt lat="45.6549806" lon="10.6332349"><ele>86.0</ele><time>2026-03-29T13:11:58.575Z</time></trkpt><trkpt lat="45.6550836" lon="10.6334055"><ele>86.0</ele><time>2026-03-29T13:11:59.568Z</time></trkpt><trkpt lat="45.6551857" lon="10.633569"><ele>88.75</ele><time>2026-03-29T13:12:00.569Z</time></trkpt><trkpt lat="45.655283" lon="10.6337161"><ele>91.5</ele><time>2026-03-29T13:12:01.561Z</time></trkpt><trkpt lat="45.6553789" lon="10.6338638"><ele>94.25</ele><time>2026-03-29T13:12:02.561Z</time></trkpt><trkpt lat="45.6554788" lon="10.6340028"><ele>97.0</ele><time>2026-03-29T13:12:03.557Z</time></trkpt><trkpt lat="45.6555719" lon="10.6341524"><ele>97.0</ele><time>2026-03-29T13:12:04.57Z</time></trkpt><trkpt lat="45.655643" lon="10.6342958"><ele>97.0</ele><time>2026-03-29T13:12:05.567Z</time></trkpt><trkpt lat="45.6557149" lon="10.6344576"><ele>97.0</ele><time>2026-03-29T13:12:06.562Z</time></trkpt><trkpt lat="45.655793" lon="10.6346369"><ele>97.0</ele><time>2026-03-29T13:12:07.558Z</time></trkpt><trkpt lat="45.6558827" lon="10.634811"><ele>96.0</ele><time>2026-03-29T13:12:08.563Z</time></trkpt><trkpt lat="45.6559903" lon="10.6349757"><ele>95.0</ele><time>2026-03-29T13:12:09.561Z</time></trkpt><trkpt lat="45.6561075" lon="10.6351335"><ele>94.0</ele><time>2026-03-29T13:12:10.549Z</time></trkpt><trkpt lat="45.6562309" lon="10.6352883"><ele>92.5</ele><time>2026-03-29T13:12:11.561Z</time></trkpt><trkpt lat="45.6563516" lon="10.6354342"><ele>91.0</ele><time>2026-03-29T13:12:12.563Z</time></trkpt><trkpt lat="45.656468" lon="10.6355567"><ele>89.5</ele><time>2026-03-29T13:12:13.55Z</time></trkpt><trkpt lat="45.6565841" lon="10.6356681"><ele>88.0</ele><time>2026-03-29T13:12:14.555Z</time></trkpt><trkpt lat="45.6567008" lon="10.6357671"><ele>88.0</ele><time>2026-03-29T13:12:15.572Z</time></trkpt><trkpt lat="45.6568126" lon="10.6358522"><ele>88.0</ele><time>2026-03-29T13:12:16.561Z</time></trkpt><trkpt lat="45.6569346" lon="10.6359381"><ele>88.0</ele><time>2026-03-29T13:12:17.548Z</time></trkpt><trkpt lat="45.6570612" lon="10.6360333"><ele>88.0</ele><time>2026-03-29T13:12:18.573Z</time></trkpt><trkpt lat="45.6571732" lon="10.6361366"><ele>85.5</ele><time>2026-03-29T13:12:19.555Z</time></trkpt><trkpt lat="45.6572804" lon="10.6362683"><ele>83.0</ele><time>2026-03-29T13:12:20.565Z</time></trkpt><trkpt lat="45.6573847" lon="10.6364193"><ele>80.5</ele><time>2026-03-29T13:12:21.581Z</time></trkpt><trkpt lat="45.6574882" lon="10.6365725"><ele>78.0</ele><time>2026-03-29T13:12:22.564Z</time></trkpt><trkpt lat="45.657591" lon="10.6367235"><ele>78.0</ele><time>2026-03-29T13:12:23.567Z</time></trkpt><trkpt lat="45.6576952" lon="10.6368769"><ele>78.0</ele><time>2026-03-29T13:12:24.573Z</time></trkpt><trkpt lat="45.6577964" lon="10.6370265"><ele>78.0</ele><time>2026-03-29T13:12:25.563Z</time></trkpt><trkpt lat="45.657906" lon="10.6371674"><ele>78.0</ele><time>2026-03-29T13:12:26.577Z</time></trkpt><trkpt lat="45.658014" lon="10.6372957"><ele>80.5</ele><time>2026-03-29T13:12:27.565Z</time></trkpt><trkpt lat="45.6581292" lon="10.63742"><ele>83.0</ele><time>2026-03-29T13:12:28.562Z</time></trkpt><trkpt lat="45.6582447" lon="10.6375384"><ele>85.5</ele><time>2026-03-29T13:12:29.56Z</time></trkpt><trkpt lat="45.658347" lon="10.637646"><ele>88.0</ele><time>2026-03-29T13:12:30.543Z</time></trkpt><trkpt lat="45.6584456" lon="10.6377612"><ele>89.25</ele><time>2026-03-29T13:12:31.582Z</time></trkpt><trkpt lat="45.6585357" lon="10.6378856"><ele>90.5</ele><time>2026-03-29T13:12:32.576Z</time></trkpt><trkpt lat="45.6586209" lon="10.6379925"><ele>91.75</ele><time>2026-03-29T13:12:33.572Z</time></trkpt><trkpt lat="45.6587388" lon="10.6381416"><ele>93.0</ele><time>2026-03-29T13:12:34.588Z</time></trkpt><trkpt lat="45.6588704" lon="10.6383075"><ele>93.0</ele><time>2026-03-29T13:12:35.575Z</time></trkpt><trkpt lat="45.6589963" lon="10.6384538"><ele>93.0</ele><time>2026-03-29T13:12:36.575Z</time></trkpt><trkpt lat="45.6591132" lon="10.6385887"><ele>93.0</ele><time>2026-03-29T13:12:37.561Z</time></trkpt><trkpt lat="45.6592213" lon="10.6387192"><ele>91.0</ele><time>2026-03-29T13:12:38.56Z</time></trkpt><trkpt lat="45.6593218" lon="10.6388437"><ele>89.0</ele><time>2026-03-29T13:12:39.563Z</time></trkpt><trkpt lat="45.6594048" lon="10.6389692"><ele>87.0</ele><time>2026-03-29T13:12:40.572Z</time></trkpt><trkpt lat="45.6594436" lon="10.6390841"><ele>85.0</ele><time>2026-03-29T13:12:41.555Z</time></trkpt><trkpt lat="45.6594792" lon="10.6392137"><ele>83.0</ele><time>2026-03-29T13:12:42.567Z</time></trkpt><trkpt lat="45.6595225" lon="10.6393757"><ele>84.25</ele><time>2026-03-29T13:12:43.544Z</time></trkpt><trkpt lat="45.6595878" lon="10.6394897"><ele>85.5</ele><time>2026-03-29T13:12:44.557Z</time></trkpt><trkpt lat="45.6596745" lon="10.6396363"><ele>86.75</ele><time>2026-03-29T13:12:45.573Z</time></trkpt><trkpt lat="45.6597752" lon="10.6398023"><ele>88.0</ele><time>2026-03-29T13:12:46.575Z</time></trkpt><trkpt lat="45.6598956" lon="10.6399957"><ele>88.0</ele><time>2026-03-29T13:12:47.563Z</time></trkpt><trkpt lat="45.6600195" lon="10.6401974"><ele>88.0</ele><time>2026-03-29T13:12:48.552Z</time></trkpt><trkpt lat="45.660146" lon="10.6404208"><ele>88.0</ele><time>2026-03-29T13:12:49.557Z</time></trkpt><trkpt lat="45.6602787" lon="10.6406835"><ele>86.33333333333333</ele><time>2026-03-29T13:12:50.558Z</time></trkpt><trkpt lat="45.6604157" lon="10.6409148"><ele>84.66666666666667</ele><time>2026-03-29T13:12:51.559Z</time></trkpt><trkpt lat="45.660552" lon="10.6411315"><ele>83.0</ele><time>2026-03-29T13:12:52.571Z</time></trkpt><trkpt lat="45.6606886" lon="10.6413275"><ele>83.0</ele><time>2026-03-29T13:12:53.575Z</time></trkpt><trkpt lat="45.6608158" lon="10.6415177"><ele>83.0</ele><time>2026-03-29T13:12:54.563Z</time></trkpt><trkpt lat="45.6609341" lon="10.6417075"><ele>83.0</ele><time>2026-03-29T13:12:55.58Z</time></trkpt><trkpt lat="45.6610386" lon="10.6418806"><ele>84.75</ele><time>2026-03-29T13:12:56.578Z</time></trkpt><trkpt lat="45.6611341" lon="10.6420387"><ele>86.5</ele><time>2026-03-29T13:12:57.554Z</time></trkpt><trkpt lat="45.6612362" lon="10.6421905"><ele>88.25</ele><time>2026-03-29T13:12:58.571Z</time></trkpt><trkpt lat="45.661338" lon="10.642327"><ele>90.0</ele><time>2026-03-29T13:12:59.56Z</time></trkpt><trkpt lat="45.6614475" lon="10.6424577"><ele>90.0</ele><time>2026-03-29T13:13:00.591Z</time></trkpt><trkpt lat="45.661554" lon="10.642576"><ele>90.0</ele><time>2026-03-29T13:13:01.554Z</time></trkpt><trkpt lat="45.6616655" lon="10.6427"><ele>90.0</ele><time>2026-03-29T13:13:02.573Z</time></trkpt><trkpt lat="45.661774" lon="10.6428212"><ele>90.0</ele><time>2026-03-29T13:13:03.563Z</time></trkpt><trkpt lat="45.6618823" lon="10.6429447"><ele>91.75</ele><time>2026-03-29T13:13:04.556Z</time></trkpt><trkpt lat="45.6619969" lon="10.6430689"><ele>93.5</ele><time>2026-03-29T13:13:05.561Z</time></trkpt><trkpt lat="45.6621122" lon="10.6431944"><ele>95.25</ele><time>2026-03-29T13:13:06.559Z</time></trkpt><trkpt lat="45.6622328" lon="10.6433247"><ele>97.0</ele><time>2026-03-29T13:13:07.565Z</time></trkpt><trkpt lat="45.6623517" lon="10.6434536"><ele>97.0</ele><time>2026-03-29T13:13:08.562Z</time></trkpt><trkpt lat="45.6624653" lon="10.6435844"><ele>97.0</ele><time>2026-03-29T13:13:09.562Z</time></trkpt><trkpt lat="45.6625799" lon="10.6437163"><ele>97.0</ele><time>2026-03-29T13:13:10.569Z</time></trkpt><trkpt lat="45.6626938" lon="10.6438502"><ele>97.0</ele><time>2026-03-29T13:13:11.568Z</time></trkpt><trkpt lat="45.6628083" lon="10.6439822"><ele>100.66666666666667</ele><time>2026-03-29T13:13:12.566Z</time></trkpt><trkpt lat="45.6629238" lon="10.6441285"><ele>104.33333333333334</ele><time>2026-03-29T13:13:13.569Z</time></trkpt><trkpt lat="45.6630418" lon="10.6442765"><ele>108.0</ele><time>2026-03-29T13:13:14.583Z</time></trkpt><trkpt lat="45.6631561" lon="10.6444108"><ele>98.33333333333333</ele><time>2026-03-29T13:13:15.554Z</time></trkpt><trkpt lat="45.6632772" lon="10.6445487"><ele>88.66666666666666</ele><time>2026-03-29T13:13:16.56Z</time></trkpt><trkpt lat="45.6633985" lon="10.6446864"><ele>79.0</ele><time>2026-03-29T13:13:17.558Z</time></trkpt><trkpt lat="45.6635228" lon="10.6448154"><ele>85.5</ele><time>2026-03-29T13:13:18.561Z</time></trkpt><trkpt lat="45.6636534" lon="10.64493"><ele>92.0</ele><time>2026-03-29T13:13:19.562Z</time></trkpt><trkpt lat="45.6637848" lon="10.6450246"><ele>98.5</ele><time>2026-03-29T13:13:20.564Z</time></trkpt><trkpt lat="45.6639094" lon="10.6451037"><ele>105.0</ele><time>2026-03-29T13:13:21.561Z</time></trkpt><trkpt lat="45.6640293" lon="10.6451754"><ele>105.0</ele><time>2026-03-29T13:13:22.56Z</time></trkpt><trkpt lat="45.6641447" lon="10.6452314"><ele>105.0</ele><time>2026-03-29T13:13:23.564Z</time></trkpt><trkpt lat="45.664268" lon="10.6452753"><ele>105.0</ele><time>2026-03-29T13:13:24.557Z</time></trkpt><trkpt lat="45.6643918" lon="10.6453338"><ele>105.0</ele><time>2026-03-29T13:13:25.572Z</time></trkpt><trkpt lat="45.6645043" lon="10.6454135"><ele>103.0</ele><time>2026-03-29T13:13:26.554Z</time></trkpt><trkpt lat="45.6646166" lon="10.6455214"><ele>101.0</ele><time>2026-03-29T13:13:27.588Z</time></trkpt><trkpt lat="45.6647333" lon="10.6456568"><ele>99.0</ele><time>2026-03-29T13:13:28.57Z</time></trkpt><trkpt lat="45.664846" lon="10.6458194"><ele>97.0</ele><time>2026-03-29T13:13:29.57Z</time></trkpt><trkpt lat="45.6649492" lon="10.6459941"><ele>92.25</ele><time>2026-03-29T13:13:30.558Z</time></trkpt><trkpt lat="45.6650356" lon="10.646162"><ele>87.5</ele><time>2026-03-29T13:13:31.559Z</time></trkpt><trkpt lat="45.6651098" lon="10.6463293"><ele>82.75</ele><time>2026-03-29T13:13:32.558Z</time></trkpt><trkpt lat="45.6651841" lon="10.6464986"><ele>78.0</ele><time>2026-03-29T13:13:33.575Z</time></trkpt><trkpt lat="45.6652704" lon="10.6466442"><ele>80.0</ele><time>2026-03-29T13:13:34.569Z</time></trkpt><trkpt lat="45.6653775" lon="10.6467964"><ele>82.0</ele><time>2026-03-29T13:13:35.584Z</time></trkpt><trkpt lat="45.6654913" lon="10.6469358"><ele>84.0</ele><time>2026-03-29T13:13:36.56Z</time></trkpt><trkpt lat="45.6656129" lon="10.6470731"><ele>84.0</ele><time>2026-03-29T13:13:37.554Z</time></trkpt><trkpt lat="45.665734" lon="10.6471961"><ele>84.0</ele><time>2026-03-29T13:13:38.564Z</time></trkpt><trkpt lat="45.6658452" lon="10.6472972"><ele>84.0</ele><time>2026-03-29T13:13:39.557Z</time></trkpt><trkpt lat="45.6659551" lon="10.647386"><ele>84.0</ele><time>2026-03-29T13:13:40.586Z</time></trkpt><trkpt lat="45.6660506" lon="10.6474642"><ele>83.75</ele><time>2026-03-29T13:13:41.556Z</time></trkpt><trkpt lat="45.6661636" lon="10.6475571"><ele>83.5</ele><time>2026-03-29T13:13:42.557Z</time></trkpt><trkpt lat="45.6662815" lon="10.6476463"><ele>83.25</ele><time>2026-03-29T13:13:43.558Z</time></trkpt><trkpt lat="45.6663961" lon="10.6477361"><ele>83.0</ele><time>2026-03-29T13:13:44.571Z</time></trkpt><trkpt lat="45.6665077" lon="10.647817"><ele>83.0</ele><time>2026-03-29T13:13:45.559Z</time></trkpt><trkpt lat="45.6666231" lon="10.6478883"><ele>83.0</ele><time>2026-03-29T13:13:46.557Z</time></trkpt><trkpt lat="45.6667486" lon="10.6479535"><ele>83.0</ele><time>2026-03-29T13:13:47.554Z</time></trkpt><trkpt lat="45.6668661" lon="10.6480201"><ele>83.0</ele><time>2026-03-29T13:13:48.555Z</time></trkpt><trkpt lat="45.6669781" lon="10.6481131"><ele>81.75</ele><time>2026-03-29T13:13:49.572Z</time></trkpt><trkpt lat="45.6670797" lon="10.6482281"><ele>80.5</ele><time>2026-03-29T13:13:50.567Z</time></trkpt><trkpt lat="45.6671826" lon="10.648359"><ele>79.25</ele><time>2026-03-29T13:13:51.573Z</time></trkpt><trkpt lat="45.6672979" lon="10.6485091"><ele>78.0</ele><time>2026-03-29T13:13:52.598Z</time></trkpt><trkpt lat="45.6673922" lon="10.6486404"><ele>78.0</ele><time>2026-03-29T13:13:53.563Z</time></trkpt><trkpt lat="45.6675041" lon="10.6487968"><ele>78.0</ele><time>2026-03-29T13:13:54.565Z</time></trkpt><trkpt lat="45.6676167" lon="10.6489523"><ele>78.0</ele><time>2026-03-29T13:13:55.559Z</time></trkpt><trkpt lat="45.6677291" lon="10.6490956"><ele>80.66666666666667</ele><time>2026-03-29T13:13:56.554Z</time></trkpt><trkpt lat="45.6678484" lon="10.6492293"><ele>83.33333333333334</ele><time>2026-03-29T13:13:57.564Z</time></trkpt><trkpt lat="45.667978" lon="10.6493366"><ele>86.0</ele><time>2026-03-29T13:13:58.564Z</time></trkpt><trkpt lat="45.6681161" lon="10.64942"><ele>81.33333333333334</ele><time>2026-03-29T13:13:59.588Z</time></trkpt><trkpt lat="45.6682573" lon="10.6494898"><ele>76.66666666666667</ele><time>2026-03-29T13:14:00.556Z</time></trkpt><trkpt lat="45.6684092" lon="10.6495605"><ele>72.0</ele><time>2026-03-29T13:14:01.566Z</time></trkpt><trkpt lat="45.6685756" lon="10.6496287"><ele>74.0</ele><time>2026-03-29T13:14:02.581Z</time></trkpt><trkpt lat="45.6687504" lon="10.6497055"><ele>76.0</ele><time>2026-03-29T13:14:03.548Z</time></trkpt><trkpt lat="45.6689467" lon="10.6498042"><ele>78.0</ele><time>2026-03-29T13:14:04.584Z</time></trkpt><trkpt lat="45.6691365" lon="10.6499041"><ele>78.0</ele><time>2026-03-29T13:14:05.557Z</time></trkpt><trkpt lat="45.6693226" lon="10.6500039"><ele>78.0</ele><time>2026-03-29T13:14:06.555Z</time></trkpt><trkpt lat="45.6694949" lon="10.6501015"><ele>78.0</ele><time>2026-03-29T13:14:07.559Z</time></trkpt><trkpt lat="45.6696542" lon="10.6501968"><ele>78.33333333333333</ele><time>2026-03-29T13:14:08.568Z</time></trkpt><trkpt lat="45.6698076" lon="10.6502925"><ele>78.66666666666666</ele><time>2026-03-29T13:14:09.563Z</time></trkpt><trkpt lat="45.6699528" lon="10.6503932"><ele>79.0</ele><time>2026-03-29T13:14:10.558Z</time></trkpt><trkpt lat="45.6700837" lon="10.6505076"><ele>79.0</ele><time>2026-03-29T13:14:11.559Z</time></trkpt><trkpt lat="45.6702071" lon="10.6506343"><ele>79.0</ele><time>2026-03-29T13:14:12.563Z</time></trkpt><trkpt lat="45.6703186" lon="10.6507665"><ele>79.0</ele><time>2026-03-29T13:14:13.561Z</time></trkpt><trkpt lat="45.6704281" lon="10.6509049"><ele>79.0</ele><time>2026-03-29T13:14:14.565Z</time></trkpt><trkpt lat="45.6705336" lon="10.651038"><ele>78.25</ele><time>2026-03-29T13:14:15.558Z</time></trkpt><trkpt lat="45.6706375" lon="10.6511625"><ele>77.5</ele><time>2026-03-29T13:14:16.566Z</time></trkpt><trkpt lat="45.6707483" lon="10.6512709"><ele>76.75</ele><time>2026-03-29T13:14:17.552Z</time></trkpt><trkpt lat="45.6708689" lon="10.6513601"><ele>76.0</ele><time>2026-03-29T13:14:18.549Z</time></trkpt><trkpt lat="45.6710195" lon="10.6514365"><ele>76.33333333333333</ele><time>2026-03-29T13:14:19.576Z</time></trkpt><trkpt lat="45.6711701" lon="10.6514967"><ele>76.66666666666667</ele><time>2026-03-29T13:14:20.565Z</time></trkpt><trkpt lat="45.6713275" lon="10.651549"><ele>77.0</ele><time>2026-03-29T13:14:21.562Z</time></trkpt><trkpt lat="45.6714861" lon="10.6515826"><ele>77.0</ele><time>2026-03-29T13:14:22.557Z</time></trkpt><trkpt lat="45.6716488" lon="10.6515962"><ele>77.0</ele><time>2026-03-29T13:14:23.565Z</time></trkpt><trkpt lat="45.671809" lon="10.6515883"><ele>77.0</ele><time>2026-03-29T13:14:24.557Z</time></trkpt><trkpt lat="45.6719598" lon="10.651561"><ele>76.25</ele><time>2026-03-29T13:14:25.558Z</time></trkpt><trkpt lat="45.6721018" lon="10.6515146"><ele>75.5</ele><time>2026-03-29T13:14:26.578Z</time></trkpt><trkpt lat="45.6722385" lon="10.6514536"><ele>74.75</ele><time>2026-03-29T13:14:27.554Z</time></trkpt><trkpt lat="45.6723852" lon="10.6513699"><ele>74.0</ele><time>2026-03-29T13:14:28.588Z</time></trkpt><trkpt lat="45.6725258" lon="10.651284"><ele>74.0</ele><time>2026-03-29T13:14:29.564Z</time></trkpt><trkpt lat="45.672672" lon="10.6511978"><ele>74.0</ele><time>2026-03-29T13:14:30.558Z</time></trkpt><trkpt lat="45.6728201" lon="10.6511119"><ele>74.0</ele><time>2026-03-29T13:14:31.553Z</time></trkpt><trkpt lat="45.6729663" lon="10.6510306"><ele>74.5</ele><time>2026-03-29T13:14:32.564Z</time></trkpt><trkpt lat="45.6731067" lon="10.6509557"><ele>75.0</ele><time>2026-03-29T13:14:33.55Z</time></trkpt><trkpt lat="45.6732427" lon="10.650881"><ele>75.5</ele><time>2026-03-29T13:14:34.549Z</time></trkpt><trkpt lat="45.6733719" lon="10.6508105"><ele>76.0</ele><time>2026-03-29T13:14:35.55Z</time></trkpt><trkpt lat="45.6734912" lon="10.6507466"><ele>76.0</ele><time>2026-03-29T13:14:36.575Z</time></trkpt><trkpt lat="45.6735984" lon="10.6506944"><ele>76.0</ele><time>2026-03-29T13:14:37.568Z</time></trkpt><trkpt lat="45.6737012" lon="10.6506436"><ele>76.0</ele><time>2026-03-29T13:14:38.555Z</time></trkpt><trkpt lat="45.6737993" lon="10.6505927"><ele>76.0</ele><time>2026-03-29T13:14:39.559Z</time></trkpt><trkpt lat="45.673894" lon="10.650544"><ele>76.0</ele><time>2026-03-29T13:14:40.558Z</time></trkpt><trkpt lat="45.6739882" lon="10.6504947"><ele>75.83333333333333</ele><time>2026-03-29T13:14:41.565Z</time></trkpt><trkpt lat="45.6740734" lon="10.6504534"><ele>75.66666666666666</ele><time>2026-03-29T13:14:42.563Z</time></trkpt><trkpt lat="45.6741471" lon="10.6504254"><ele>75.5</ele><time>2026-03-29T13:14:43.559Z</time></trkpt><trkpt lat="45.6742138" lon="10.650409"><ele>75.33333333333333</ele><time>2026-03-29T13:14:44.555Z</time></trkpt><trkpt lat="45.6742802" lon="10.6504113"><ele>75.16666666666667</ele><time>2026-03-29T13:14:45.554Z</time></trkpt><trkpt lat="45.674353" lon="10.6504288"><ele>75.0</ele><time>2026-03-29T13:14:46.55Z</time></trkpt><trkpt lat="45.6744304" lon="10.6504465"><ele>75.6</ele><time>2026-03-29T13:14:47.564Z</time></trkpt><trkpt lat="45.6745227" lon="10.6504546"><ele>76.2</ele><time>2026-03-29T13:14:48.559Z</time></trkpt><trkpt lat="45.6746218" lon="10.6504768"><ele>76.8</ele><time>2026-03-29T13:14:49.559Z</time></trkpt><trkpt lat="45.6747251" lon="10.6505021"><ele>77.4</ele><time>2026-03-29T13:14:50.572Z</time></trkpt><trkpt lat="45.6748238" lon="10.6505602"><ele>78.0</ele><time>2026-03-29T13:14:51.573Z</time></trkpt><trkpt lat="45.67497" lon="10.6506375"><ele>78.0</ele><time>2026-03-29T13:14:52.56Z</time></trkpt><trkpt lat="45.6750981" lon="10.6507496"><ele>78.0</ele><time>2026-03-29T13:14:53.565Z</time></trkpt><trkpt lat="45.675221" lon="10.6508876"><ele>78.0</ele><time>2026-03-29T13:14:54.575Z</time></trkpt><trkpt lat="45.6753404" lon="10.6510365"><ele>77.33333333333333</ele><time>2026-03-29T13:14:55.565Z</time></trkpt><trkpt lat="45.6754737" lon="10.6511991"><ele>76.66666666666666</ele><time>2026-03-29T13:14:56.574Z</time></trkpt><trkpt lat="45.6756107" lon="10.6513631"><ele>76.0</ele><time>2026-03-29T13:14:57.573Z</time></trkpt><trkpt lat="45.6757542" lon="10.6515372"><ele>76.0</ele><time>2026-03-29T13:14:58.585Z</time></trkpt><trkpt lat="45.6758887" lon="10.6517139"><ele>76.0</ele><time>2026-03-29T13:14:59.554Z</time></trkpt><trkpt lat="45.6760331" lon="10.6518945"><ele>76.0</ele><time>2026-03-29T13:15:00.581Z</time></trkpt><trkpt lat="45.6761704" lon="10.6520643"><ele>75.33333333333333</ele><time>2026-03-29T13:15:01.547Z</time></trkpt><trkpt lat="45.6763109" lon="10.652232"><ele>74.66666666666667</ele><time>2026-03-29T13:15:02.554Z</time></trkpt><trkpt lat="45.6764432" lon="10.6523945"><ele>74.0</ele><time>2026-03-29T13:15:03.572Z</time></trkpt><trkpt lat="45.6765716" lon="10.6525444"><ele>74.0</ele><time>2026-03-29T13:15:04.562Z</time></trkpt><trkpt lat="45.676696" lon="10.6526678"><ele>74.0</ele><time>2026-03-29T13:15:05.559Z</time></trkpt><trkpt lat="45.6768438" lon="10.6527824"><ele>74.0</ele><time>2026-03-29T13:15:06.575Z</time></trkpt><trkpt lat="45.6769885" lon="10.6528786"><ele>72.66666666666667</ele><time>2026-03-29T13:15:07.574Z</time></trkpt><trkpt lat="45.6770967" lon="10.6529714"><ele>71.33333333333333</ele><time>2026-03-29T13:15:08.583Z</time></trkpt><trkpt lat="45.6772328" lon="10.6530831"><ele>70.0</ele><time>2026-03-29T13:15:09.925Z</time></trkpt><trkpt lat="45.6774424" lon="10.6532463"><ele>70.0</ele><time>2026-03-29T13:15:11.624Z</time></trkpt><trkpt lat="45.6775409" lon="10.6533278"><ele>70.0</ele><time>2026-03-29T13:15:12.629Z</time></trkpt><trkpt lat="45.6776433" lon="10.653395"><ele>70.0</ele><time>2026-03-29T13:15:13.623Z</time></trkpt><trkpt lat="45.6777546" lon="10.6534659"><ele>70.0</ele><time>2026-03-29T13:15:14.617Z</time></trkpt><trkpt lat="45.677874" lon="10.6535333"><ele>70.5</ele><time>2026-03-29T13:15:15.608Z</time></trkpt><trkpt lat="45.6780067" lon="10.6535974"><ele>71.0</ele><time>2026-03-29T13:15:16.634Z</time></trkpt><trkpt lat="45.6781364" lon="10.653651"><ele>71.5</ele><time>2026-03-29T13:15:17.628Z</time></trkpt><trkpt lat="45.6782698" lon="10.6536943"><ele>72.0</ele><time>2026-03-29T13:15:18.612Z</time></trkpt><trkpt lat="45.6784009" lon="10.6537283"><ele>70.75</ele><time>2026-03-29T13:15:19.621Z</time></trkpt><trkpt lat="45.6785238" lon="10.6537566"><ele>69.5</ele><time>2026-03-29T13:15:20.618Z</time></trkpt><trkpt lat="45.6786454" lon="10.6537828"><ele>68.25</ele><time>2026-03-29T13:15:21.623Z</time></trkpt><trkpt lat="45.6787648" lon="10.6538072"><ele>67.0</ele><time>2026-03-29T13:15:22.602Z</time></trkpt><trkpt lat="45.6788848" lon="10.6538338"><ele>67.0</ele><time>2026-03-29T13:15:23.627Z</time></trkpt><trkpt lat="45.678992" lon="10.6538606"><ele>67.0</ele><time>2026-03-29T13:15:24.625Z</time></trkpt><trkpt lat="45.6790906" lon="10.6538892"><ele>67.0</ele><time>2026-03-29T13:15:25.622Z</time></trkpt><trkpt lat="45.6791895" lon="10.6539159"><ele>67.0</ele><time>2026-03-29T13:15:26.623Z</time></trkpt><trkpt lat="45.6792954" lon="10.6539366"><ele>67.0</ele><time>2026-03-29T13:15:27.625Z</time></trkpt><trkpt lat="45.6794003" lon="10.6539547"><ele>67.6</ele><time>2026-03-29T13:15:28.626Z</time></trkpt><trkpt lat="45.6794968" lon="10.6539748"><ele>68.2</ele><time>2026-03-29T13:15:29.625Z</time></trkpt><trkpt lat="45.679586" lon="10.653993"><ele>68.8</ele><time>2026-03-29T13:15:30.605Z</time></trkpt><trkpt lat="45.6796746" lon="10.6540116"><ele>69.4</ele><time>2026-03-29T13:15:31.615Z</time></trkpt><trkpt lat="45.6797663" lon="10.6540312"><ele>70.0</ele><time>2026-03-29T13:15:32.618Z</time></trkpt><trkpt lat="45.679861" lon="10.6540549"><ele>70.0</ele><time>2026-03-29T13:15:33.625Z</time></trkpt><trkpt lat="45.6799601" lon="10.6540773"><ele>70.0</ele><time>2026-03-29T13:15:34.627Z</time></trkpt><trkpt lat="45.6800732" lon="10.6540989"><ele>70.0</ele><time>2026-03-29T13:15:35.633Z</time></trkpt><trkpt lat="45.6801912" lon="10.6541213"><ele>70.0</ele><time>2026-03-29T13:15:36.623Z</time></trkpt><trkpt lat="45.6803149" lon="10.6541468"><ele>71.25</ele><time>2026-03-29T13:15:37.627Z</time></trkpt><trkpt lat="45.6804394" lon="10.6541751"><ele>72.5</ele><time>2026-03-29T13:15:38.631Z</time></trkpt><trkpt lat="45.6805637" lon="10.6542039"><ele>73.75</ele><time>2026-03-29T13:15:39.62Z</time></trkpt><trkpt lat="45.6806934" lon="10.6542327"><ele>75.0</ele><time>2026-03-29T13:15:40.609Z</time></trkpt><trkpt lat="45.6808304" lon="10.6542661"><ele>75.0</ele><time>2026-03-29T13:15:41.62Z</time></trkpt><trkpt lat="45.680966" lon="10.6543092"><ele>75.0</ele><time>2026-03-29T13:15:42.627Z</time></trkpt><trkpt lat="45.6810976" lon="10.6543626"><ele>75.0</ele><time>2026-03-29T13:15:43.621Z</time></trkpt><trkpt lat="45.6812252" lon="10.6544262"><ele>75.0</ele><time>2026-03-29T13:15:44.618Z</time></trkpt><trkpt lat="45.6813485" lon="10.6544997"><ele>74.75</ele><time>2026-03-29T13:15:45.622Z</time></trkpt><trkpt lat="45.6814684" lon="10.6545818"><ele>74.5</ele><time>2026-03-29T13:15:46.609Z</time></trkpt><trkpt lat="45.6815882" lon="10.6546776"><ele>74.25</ele><time>2026-03-29T13:15:47.622Z</time></trkpt><trkpt lat="45.6817013" lon="10.6547826"><ele>74.0</ele><time>2026-03-29T13:15:48.616Z</time></trkpt><trkpt lat="45.6818138" lon="10.6549034"><ele>74.0</ele><time>2026-03-29T13:15:49.649Z</time></trkpt><trkpt lat="45.6819214" lon="10.6550252"><ele>74.0</ele><time>2026-03-29T13:15:50.615Z</time></trkpt><trkpt lat="45.6820294" lon="10.6551646"><ele>74.0</ele><time>2026-03-29T13:15:51.628Z</time></trkpt><trkpt lat="45.6821335" lon="10.6553095"><ele>74.0</ele><time>2026-03-29T13:15:52.629Z</time></trkpt><trkpt lat="45.6822406" lon="10.6554565"><ele>75.66666666666667</ele><time>2026-03-29T13:15:53.628Z</time></trkpt><trkpt lat="45.6823698" lon="10.6556269"><ele>77.33333333333333</ele><time>2026-03-29T13:15:54.643Z</time></trkpt><trkpt lat="45.6825003" lon="10.6558078"><ele>79.0</ele><time>2026-03-29T13:15:55.609Z</time></trkpt><trkpt lat="45.6826248" lon="10.6559844"><ele>80.33333333333333</ele><time>2026-03-29T13:15:56.611Z</time></trkpt><trkpt lat="45.6827411" lon="10.6561489"><ele>81.66666666666667</ele><time>2026-03-29T13:15:57.614Z</time></trkpt><trkpt lat="45.6828496" lon="10.6563075"><ele>83.0</ele><time>2026-03-29T13:15:58.632Z</time></trkpt><trkpt lat="45.6829497" lon="10.6564554"><ele>83.0</ele><time>2026-03-29T13:15:59.593Z</time></trkpt><trkpt lat="45.6830569" lon="10.6566223"><ele>83.0</ele><time>2026-03-29T13:16:00.579Z</time></trkpt><trkpt lat="45.6831632" lon="10.6567867"><ele>83.0</ele><time>2026-03-29T13:16:01.569Z</time></trkpt><trkpt lat="45.6832664" lon="10.6569335"><ele>83.80000000000001</ele><time>2026-03-29T13:16:02.569Z</time></trkpt><trkpt lat="45.6833607" lon="10.65706"><ele>84.6</ele><time>2026-03-29T13:16:03.579Z</time></trkpt><trkpt lat="45.6834453" lon="10.6571782"><ele>85.4</ele><time>2026-03-29T13:16:04.587Z</time></trkpt><trkpt lat="45.6835136" lon="10.6572799"><ele>86.19999999999999</ele><time>2026-03-29T13:16:05.56Z</time></trkpt><trkpt lat="45.6835853" lon="10.6573867"><ele>87.0</ele><time>2026-03-29T13:16:06.567Z</time></trkpt><trkpt lat="45.683656" lon="10.657477"><ele>87.0</ele><time>2026-03-29T13:16:07.559Z</time></trkpt><trkpt lat="45.6837257" lon="10.6575593"><ele>87.0</ele><time>2026-03-29T13:16:08.561Z</time></trkpt><trkpt lat="45.6838018" lon="10.6576359"><ele>87.0</ele><time>2026-03-29T13:16:09.55Z</time></trkpt><trkpt lat="45.6838775" lon="10.6577084"><ele>87.0</ele><time>2026-03-29T13:16:10.569Z</time></trkpt><trkpt lat="45.6839565" lon="10.6577865"><ele>87.0</ele><time>2026-03-29T13:16:11.561Z</time></trkpt><trkpt lat="45.6840406" lon="10.6578614"><ele>87.39999999999999</ele><time>2026-03-29T13:16:12.56Z</time></trkpt><trkpt lat="45.6841281" lon="10.6579416"><ele>87.8</ele><time>2026-03-29T13:16:13.575Z</time></trkpt><trkpt lat="45.6842078" lon="10.6580231"><ele>88.2</ele><time>2026-03-29T13:16:14.56Z</time></trkpt><trkpt lat="45.6842932" lon="10.6581075"><ele>88.6</ele><time>2026-03-29T13:16:15.578Z</time></trkpt><trkpt lat="45.6843789" lon="10.6581942"><ele>89.0</ele><time>2026-03-29T13:16:16.566Z</time></trkpt><trkpt lat="45.6844678" lon="10.6582807"><ele>89.0</ele><time>2026-03-29T13:16:17.581Z</time></trkpt><trkpt lat="45.6845543" lon="10.6583598"><ele>89.0</ele><time>2026-03-29T13:16:18.562Z</time></trkpt><trkpt lat="45.684636" lon="10.6584314"><ele>89.0</ele><time>2026-03-29T13:16:19.556Z</time></trkpt><trkpt lat="45.6847136" lon="10.6584989"><ele>89.0</ele><time>2026-03-29T13:16:20.562Z</time></trkpt><trkpt lat="45.6847888" lon="10.6585633"><ele>89.0</ele><time>2026-03-29T13:16:21.569Z</time></trkpt><trkpt lat="45.6848546" lon="10.6586224"><ele>88.66666666666667</ele><time>2026-03-29T13:16:22.577Z</time></trkpt><trkpt lat="45.684913" lon="10.6586822"><ele>88.33333333333334</ele><time>2026-03-29T13:16:23.569Z</time></trkpt><trkpt lat="45.6849768" lon="10.658745"><ele>88.0</ele><time>2026-03-29T13:16:24.554Z</time></trkpt><trkpt lat="45.6850496" lon="10.6588091"><ele>87.66666666666667</ele><time>2026-03-29T13:16:25.58Z</time></trkpt><trkpt lat="45.6851291" lon="10.6588749"><ele>87.33333333333333</ele><time>2026-03-29T13:16:26.566Z</time></trkpt><trkpt lat="45.6852134" lon="10.6589506"><ele>87.0</ele><time>2026-03-29T13:16:27.589Z</time></trkpt><trkpt lat="45.6852906" lon="10.6590206"><ele>87.0</ele><time>2026-03-29T13:16:28.583Z</time></trkpt><trkpt lat="45.6853588" lon="10.6590844"><ele>87.0</ele><time>2026-03-29T13:16:29.555Z</time></trkpt><trkpt lat="45.6854231" lon="10.6591426"><ele>87.0</ele><time>2026-03-29T13:16:30.561Z</time></trkpt><trkpt lat="45.6854857" lon="10.6592045"><ele>87.0</ele><time>2026-03-29T13:16:31.567Z</time></trkpt><trkpt lat="45.6855507" lon="10.6592639"><ele>87.0</ele><time>2026-03-29T13:16:32.58Z</time></trkpt><trkpt lat="45.6856138" lon="10.6593255"><ele>87.0</ele><time>2026-03-29T13:16:33.568Z</time></trkpt><trkpt lat="45.6856808" lon="10.659392"><ele>83.25</ele><time>2026-03-29T13:16:34.565Z</time></trkpt><trkpt lat="45.6857577" lon="10.6594598"><ele>79.5</ele><time>2026-03-29T13:16:35.595Z</time></trkpt><trkpt lat="45.685851" lon="10.6595355"><ele>75.75</ele><time>2026-03-29T13:16:36.58Z</time></trkpt><trkpt lat="45.685955" lon="10.6596315"><ele>72.0</ele><time>2026-03-29T13:16:37.583Z</time></trkpt><trkpt lat="45.6860673" lon="10.6597405"><ele>76.0</ele><time>2026-03-29T13:16:38.564Z</time></trkpt><trkpt lat="45.6862023" lon="10.6598608"><ele>80.0</ele><time>2026-03-29T13:16:39.574Z</time></trkpt><trkpt lat="45.6863591" lon="10.6599784"><ele>84.0</ele><time>2026-03-29T13:16:40.609Z</time></trkpt><trkpt lat="45.6865159" lon="10.660091"><ele>84.0</ele><time>2026-03-29T13:16:41.569Z</time></trkpt><trkpt lat="45.6866844" lon="10.6602026"><ele>84.0</ele><time>2026-03-29T13:16:42.55Z</time></trkpt><trkpt lat="45.6868563" lon="10.6603157"><ele>84.0</ele><time>2026-03-29T13:16:43.564Z</time></trkpt><trkpt lat="45.6870243" lon="10.6604243"><ele>82.66666666666667</ele><time>2026-03-29T13:16:44.571Z</time></trkpt><trkpt lat="45.6871909" lon="10.6605211"><ele>81.33333333333334</ele><time>2026-03-29T13:16:45.601Z</time></trkpt><trkpt lat="45.6873249" lon="10.660624"><ele>80.0</ele><time>2026-03-29T13:16:46.571Z</time></trkpt><trkpt lat="45.6874544" lon="10.6607206"><ele>80.0</ele><time>2026-03-29T13:16:47.559Z</time></trkpt><trkpt lat="45.6875859" lon="10.660821"><ele>80.0</ele><time>2026-03-29T13:16:48.559Z</time></trkpt><trkpt lat="45.6877152" lon="10.6609197"><ele>80.0</ele><time>2026-03-29T13:16:49.567Z</time></trkpt><trkpt lat="45.6878366" lon="10.6610186"><ele>80.0</ele><time>2026-03-29T13:16:50.575Z</time></trkpt><trkpt lat="45.6879483" lon="10.6611249"><ele>82.0</ele><time>2026-03-29T13:16:51.59Z</time></trkpt><trkpt lat="45.6880471" lon="10.6612271"><ele>84.0</ele><time>2026-03-29T13:16:52.558Z</time></trkpt><trkpt lat="45.6881422" lon="10.6613415"><ele>86.0</ele><time>2026-03-29T13:16:53.574Z</time></trkpt><trkpt lat="45.688224" lon="10.6614521"><ele>88.0</ele><time>2026-03-29T13:16:54.565Z</time></trkpt><trkpt lat="45.6883038" lon="10.6615583"><ele>88.0</ele><time>2026-03-29T13:16:55.553Z</time></trkpt><trkpt lat="45.6883813" lon="10.6616688"><ele>88.0</ele><time>2026-03-29T13:16:56.559Z</time></trkpt><trkpt lat="45.6884549" lon="10.6617743"><ele>88.0</ele><time>2026-03-29T13:16:57.556Z</time></trkpt><trkpt lat="45.6885255" lon="10.6618811"><ele>88.0</ele><time>2026-03-29T13:16:58.568Z</time></trkpt><trkpt lat="45.6885887" lon="10.6619835"><ele>88.0</ele><time>2026-03-29T13:16:59.565Z</time></trkpt><trkpt lat="45.6886488" lon="10.6620808"><ele>89.0</ele><time>2026-03-29T13:17:00.601Z</time></trkpt><trkpt lat="45.6887003" lon="10.6621651"><ele>90.0</ele><time>2026-03-29T13:17:01.564Z</time></trkpt><trkpt lat="45.688751" lon="10.6622598"><ele>91.0</ele><time>2026-03-29T13:17:02.581Z</time></trkpt><trkpt lat="45.6888051" lon="10.6623591"><ele>92.0</ele><time>2026-03-29T13:17:03.559Z</time></trkpt><trkpt lat="45.6888664" lon="10.6624757"><ele>93.0</ele><time>2026-03-29T13:17:04.57Z</time></trkpt><trkpt lat="45.6889309" lon="10.6626002"><ele>93.0</ele><time>2026-03-29T13:17:05.567Z</time></trkpt><trkpt lat="45.688993" lon="10.6627246"><ele>93.0</ele><time>2026-03-29T13:17:06.567Z</time></trkpt><trkpt lat="45.6890484" lon="10.6628404"><ele>93.0</ele><time>2026-03-29T13:17:07.569Z</time></trkpt><trkpt lat="45.6891048" lon="10.6629547"><ele>93.0</ele><time>2026-03-29T13:17:08.57Z</time></trkpt><trkpt lat="45.6891567" lon="10.6630625"><ele>93.0</ele><time>2026-03-29T13:17:09.581Z</time></trkpt><trkpt lat="45.6892077" lon="10.6631616"><ele>92.0</ele><time>2026-03-29T13:17:10.566Z</time></trkpt><trkpt lat="45.6892575" lon="10.6632629"><ele>91.0</ele><time>2026-03-29T13:17:11.56Z</time></trkpt><trkpt lat="45.6893092" lon="10.6633582"><ele>90.0</ele><time>2026-03-29T13:17:12.562Z</time></trkpt><trkpt lat="45.6893573" lon="10.663451"><ele>89.0</ele><time>2026-03-29T13:17:13.568Z</time></trkpt><trkpt lat="45.689407" lon="10.6635422"><ele>88.0</ele><time>2026-03-29T13:17:14.564Z</time></trkpt><trkpt lat="45.6894576" lon="10.6636414"><ele>87.0</ele><time>2026-03-29T13:17:15.566Z</time></trkpt><trkpt lat="45.6895144" lon="10.6637445"><ele>89.0</ele><time>2026-03-29T13:17:16.579Z</time></trkpt><trkpt lat="45.6895822" lon="10.6638373"><ele>91.0</ele><time>2026-03-29T13:17:17.56Z</time></trkpt><trkpt lat="45.6896638" lon="10.6639265"><ele>93.0</ele><time>2026-03-29T13:17:18.582Z</time></trkpt><trkpt lat="45.6897438" lon="10.6640004"><ele>95.0</ele><time>2026-03-29T13:17:19.574Z</time></trkpt><trkpt lat="45.6898157" lon="10.664053"><ele>97.0</ele><time>2026-03-29T13:17:20.556Z</time></trkpt><trkpt lat="45.6898795" lon="10.6640936"><ele>99.0</ele><time>2026-03-29T13:17:21.57Z</time></trkpt><trkpt lat="45.6899405" lon="10.6641247"><ele>99.0</ele><time>2026-03-29T13:17:22.564Z</time></trkpt><trkpt lat="45.6900069" lon="10.6641445"><ele>99.0</ele><time>2026-03-29T13:17:23.58Z</time></trkpt><trkpt lat="45.6900761" lon="10.6641655"><ele>99.0</ele><time>2026-03-29T13:17:24.58Z</time></trkpt><trkpt lat="45.6901639" lon="10.6641894"><ele>99.0</ele><time>2026-03-29T13:17:25.591Z</time></trkpt><trkpt lat="45.690258" lon="10.6642196"><ele>99.0</ele><time>2026-03-29T13:17:26.579Z</time></trkpt><trkpt lat="45.690347" lon="10.6642498"><ele>99.0</ele><time>2026-03-29T13:17:27.571Z</time></trkpt><trkpt lat="45.690413" lon="10.6642753"><ele>99.2</ele><time>2026-03-29T13:17:28.585Z</time></trkpt><trkpt lat="45.6904978" lon="10.6643087"><ele>99.4</ele><time>2026-03-29T13:17:31.563Z</time></trkpt><trkpt lat="45.6906176" lon="10.6643734"><ele>99.6</ele><time>2026-03-29T13:17:33.572Z</time></trkpt><trkpt lat="45.6906994" lon="10.6644229"><ele>99.8</ele><time>2026-03-29T13:17:34.572Z</time></trkpt><trkpt lat="45.6908081" lon="10.6645258"><ele>100.0</ele><time>2026-03-29T13:17:35.583Z</time></trkpt><trkpt lat="45.6909089" lon="10.6646707"><ele>100.0</ele><time>2026-03-29T13:17:36.573Z</time></trkpt><trkpt lat="45.6910057" lon="10.6648422"><ele>100.0</ele><time>2026-03-29T13:17:37.579Z</time></trkpt><trkpt lat="45.6910867" lon="10.6650339"><ele>100.0</ele><time>2026-03-29T13:17:38.561Z</time></trkpt><trkpt lat="45.6911803" lon="10.6652024"><ele>102.0</ele><time>2026-03-29T13:17:39.564Z</time></trkpt><trkpt lat="45.6912632" lon="10.6653564"><ele>104.0</ele><time>2026-03-29T13:17:40.564Z</time></trkpt><trkpt lat="45.6913435" lon="10.665497"><ele>106.0</ele><time>2026-03-29T13:17:41.573Z</time></trkpt><trkpt lat="45.691431" lon="10.6656445"><ele>108.0</ele><time>2026-03-29T13:17:42.57Z</time></trkpt><trkpt lat="45.6915303" lon="10.6658118"><ele>108.0</ele><time>2026-03-29T13:17:43.56Z</time></trkpt><trkpt lat="45.6916276" lon="10.6659841"><ele>108.0</ele><time>2026-03-29T13:17:44.561Z</time></trkpt><trkpt lat="45.6917245" lon="10.6661489"><ele>108.0</ele><time>2026-03-29T13:17:45.56Z</time></trkpt><trkpt lat="45.6918232" lon="10.666309"><ele>109.66666666666666</ele><time>2026-03-29T13:17:46.561Z</time></trkpt><trkpt lat="45.6919277" lon="10.6664758"><ele>111.33333333333333</ele><time>2026-03-29T13:17:47.565Z</time></trkpt><trkpt lat="45.692037" lon="10.6666467"><ele>113.0</ele><time>2026-03-29T13:17:48.569Z</time></trkpt><trkpt lat="45.6921388" lon="10.6668039"><ele>113.0</ele><time>2026-03-29T13:17:49.581Z</time></trkpt><trkpt lat="45.6922248" lon="10.6669299"><ele>113.0</ele><time>2026-03-29T13:17:50.558Z</time></trkpt><trkpt lat="45.6923112" lon="10.6670444"><ele>113.0</ele><time>2026-03-29T13:17:51.572Z</time></trkpt><trkpt lat="45.6924182" lon="10.6671313"><ele>113.0</ele><time>2026-03-29T13:17:52.557Z</time></trkpt><trkpt lat="45.6925666" lon="10.6671995"><ele>111.66666666666666</ele><time>2026-03-29T13:17:53.555Z</time></trkpt><trkpt lat="45.6927324" lon="10.6672237"><ele>110.33333333333334</ele><time>2026-03-29T13:17:54.55Z</time></trkpt><trkpt lat="45.6929099" lon="10.6672197"><ele>109.0</ele><time>2026-03-29T13:17:55.573Z</time></trkpt><trkpt lat="45.6930818" lon="10.6672301"><ele>109.0</ele><time>2026-03-29T13:17:56.576Z</time></trkpt><trkpt lat="45.6932482" lon="10.667248"><ele>109.0</ele><time>2026-03-29T13:17:57.571Z</time></trkpt><trkpt lat="45.6934066" lon="10.6672797"><ele>109.0</ele><time>2026-03-29T13:17:58.584Z</time></trkpt><trkpt lat="45.6935403" lon="10.6673217"><ele>108.25</ele><time>2026-03-29T13:17:59.561Z</time></trkpt><trkpt lat="45.6936769" lon="10.6673796"><ele>107.5</ele><time>2026-03-29T13:18:00.561Z</time></trkpt><trkpt lat="45.6938059" lon="10.6674956"><ele>106.75</ele><time>2026-03-29T13:18:01.582Z</time></trkpt><trkpt lat="45.6938878" lon="10.6676593"><ele>106.0</ele><time>2026-03-29T13:18:02.566Z</time></trkpt><trkpt lat="45.6939787" lon="10.6678259"><ele>106.0</ele><time>2026-03-29T13:18:03.565Z</time></trkpt><trkpt lat="45.6940843" lon="10.6679693"><ele>106.0</ele><time>2026-03-29T13:18:04.566Z</time></trkpt><trkpt lat="45.6942005" lon="10.6680815"><ele>106.0</ele><time>2026-03-29T13:18:05.578Z</time></trkpt><trkpt lat="45.694332" lon="10.6681551"><ele>106.0</ele><time>2026-03-29T13:18:06.574Z</time></trkpt><trkpt lat="45.6944961" lon="10.6681934"><ele>111.75</ele><time>2026-03-29T13:18:07.569Z</time></trkpt><trkpt lat="45.6946575" lon="10.6682403"><ele>117.5</ele><time>2026-03-29T13:18:08.571Z</time></trkpt><trkpt lat="45.6947881" lon="10.6682996"><ele>123.25</ele><time>2026-03-29T13:18:09.578Z</time></trkpt><trkpt lat="45.6949114" lon="10.6683839"><ele>129.0</ele><time>2026-03-29T13:18:10.573Z</time></trkpt><trkpt lat="45.6950285" lon="10.6685047"><ele>134.0</ele><time>2026-03-29T13:18:11.573Z</time></trkpt><trkpt lat="45.695132" lon="10.6686445"><ele>139.0</ele><time>2026-03-29T13:18:12.573Z</time></trkpt><trkpt lat="45.695202" lon="10.6688356"><ele>144.0</ele><time>2026-03-29T13:18:13.581Z</time></trkpt><trkpt lat="45.6952721" lon="10.6690724"><ele>144.0</ele><time>2026-03-29T13:18:14.564Z</time></trkpt><trkpt lat="45.6953644" lon="10.6693174"><ele>144.0</ele><time>2026-03-29T13:18:15.578Z</time></trkpt><trkpt lat="45.6954523" lon="10.6695407"><ele>144.0</ele><time>2026-03-29T13:18:16.573Z</time></trkpt><trkpt lat="45.6955418" lon="10.6697689"><ele>139.66666666666666</ele><time>2026-03-29T13:18:17.567Z</time></trkpt><trkpt lat="45.6956307" lon="10.6699934"><ele>135.33333333333331</ele><time>2026-03-29T13:18:18.572Z</time></trkpt><trkpt lat="45.6957182" lon="10.6702223"><ele>131.0</ele><time>2026-03-29T13:18:19.563Z</time></trkpt><trkpt lat="45.6957975" lon="10.6704437"><ele>128.33333333333331</ele><time>2026-03-29T13:18:20.566Z</time></trkpt><trkpt lat="45.6958681" lon="10.6706545"><ele>125.66666666666666</ele><time>2026-03-29T13:18:21.572Z</time></trkpt><trkpt lat="45.6959231" lon="10.6708489"><ele>123.0</ele><time>2026-03-29T13:18:22.582Z</time></trkpt><trkpt lat="45.6959781" lon="10.6710373"><ele>119.66666666666666</ele><time>2026-03-29T13:18:23.577Z</time></trkpt><trkpt lat="45.6960413" lon="10.6712258"><ele>116.33333333333333</ele><time>2026-03-29T13:18:24.556Z</time></trkpt><trkpt lat="45.6961249" lon="10.6714243"><ele>113.0</ele><time>2026-03-29T13:18:25.572Z</time></trkpt><trkpt lat="45.6962253" lon="10.6716012"><ele>115.33333333333333</ele><time>2026-03-29T13:18:26.55Z</time></trkpt><trkpt lat="45.6963582" lon="10.671767"><ele>117.66666666666666</ele><time>2026-03-29T13:18:27.588Z</time></trkpt><trkpt lat="45.6965019" lon="10.6719055"><ele>120.0</ele><time>2026-03-29T13:18:28.565Z</time></trkpt><trkpt lat="45.6966408" lon="10.6720547"><ele>120.0</ele><time>2026-03-29T13:18:29.562Z</time></trkpt><trkpt lat="45.6967775" lon="10.6722075"><ele>120.0</ele><time>2026-03-29T13:18:30.563Z</time></trkpt><trkpt lat="45.6969145" lon="10.672365"><ele>120.0</ele><time>2026-03-29T13:18:31.571Z</time></trkpt><trkpt lat="45.6970479" lon="10.6725243"><ele>123.66666666666666</ele><time>2026-03-29T13:18:32.577Z</time></trkpt><trkpt lat="45.6971725" lon="10.6726999"><ele>127.33333333333333</ele><time>2026-03-29T13:18:33.571Z</time></trkpt><trkpt lat="45.6972916" lon="10.6728898"><ele>131.0</ele><time>2026-03-29T13:18:34.557Z</time></trkpt><trkpt lat="45.6974126" lon="10.6730973"><ele>131.0</ele><time>2026-03-29T13:18:35.562Z</time></trkpt><trkpt lat="45.6975228" lon="10.6733086"><ele>131.0</ele><time>2026-03-29T13:18:36.565Z</time></trkpt><trkpt lat="45.6976315" lon="10.6735346"><ele>131.0</ele><time>2026-03-29T13:18:37.577Z</time></trkpt><trkpt lat="45.6977392" lon="10.6737548"><ele>135.33333333333331</ele><time>2026-03-29T13:18:38.556Z</time></trkpt><trkpt lat="45.6978558" lon="10.6739707"><ele>139.66666666666666</ele><time>2026-03-29T13:18:39.549Z</time></trkpt><trkpt lat="45.6979904" lon="10.6741921"><ele>144.0</ele><time>2026-03-29T13:18:40.569Z</time></trkpt><trkpt lat="45.6981333" lon="10.6743974"><ele>140.0</ele><time>2026-03-29T13:18:41.58Z</time></trkpt><trkpt lat="45.6982846" lon="10.6746135"><ele>136.0</ele><time>2026-03-29T13:18:42.592Z</time></trkpt><trkpt lat="45.6984259" lon="10.6748178"><ele>132.0</ele><time>2026-03-29T13:18:43.569Z</time></trkpt><trkpt lat="45.6985677" lon="10.6750242"><ele>135.66666666666666</ele><time>2026-03-29T13:18:44.566Z</time></trkpt><trkpt lat="45.6987127" lon="10.6752282"><ele>139.33333333333331</ele><time>2026-03-29T13:18:45.574Z</time></trkpt><trkpt lat="45.6988535" lon="10.6754302"><ele>143.0</ele><time>2026-03-29T13:18:46.576Z</time></trkpt><trkpt lat="45.6989892" lon="10.6756287"><ele>143.0</ele><time>2026-03-29T13:18:47.563Z</time></trkpt><trkpt lat="45.6991169" lon="10.6758228"><ele>143.0</ele><time>2026-03-29T13:18:48.574Z</time></trkpt><trkpt lat="45.699236" lon="10.676012"><ele>143.0</ele><time>2026-03-29T13:18:49.572Z</time></trkpt><trkpt lat="45.6993451" lon="10.676214"><ele>148.0</ele><time>2026-03-29T13:18:50.559Z</time></trkpt><trkpt lat="45.6994483" lon="10.6764335"><ele>153.0</ele><time>2026-03-29T13:18:51.586Z</time></trkpt><trkpt lat="45.6995435" lon="10.6766497"><ele>158.0</ele><time>2026-03-29T13:18:52.573Z</time></trkpt><trkpt lat="45.6996409" lon="10.6768675"><ele>152.66666666666666</ele><time>2026-03-29T13:18:53.573Z</time></trkpt><trkpt lat="45.6997514" lon="10.6770751"><ele>147.33333333333334</ele><time>2026-03-29T13:18:54.564Z</time></trkpt><trkpt lat="45.699879" lon="10.6772699"><ele>142.0</ele><time>2026-03-29T13:18:55.572Z</time></trkpt><trkpt lat="45.7000253" lon="10.6774465"><ele>142.0</ele><time>2026-03-29T13:18:56.565Z</time></trkpt><trkpt lat="45.7001951" lon="10.6776"><ele>142.0</ele><time>2026-03-29T13:18:57.553Z</time></trkpt><trkpt lat="45.7003747" lon="10.6777501"><ele>142.0</ele><time>2026-03-29T13:18:58.562Z</time></trkpt><trkpt lat="45.7005543" lon="10.6778982"><ele>144.66666666666669</ele><time>2026-03-29T13:18:59.555Z</time></trkpt><trkpt lat="45.7007231" lon="10.6780464"><ele>147.33333333333334</ele><time>2026-03-29T13:19:00.584Z</time></trkpt><trkpt lat="45.7008674" lon="10.6781874"><ele>150.0</ele><time>2026-03-29T13:19:01.567Z</time></trkpt><trkpt lat="45.7009988" lon="10.6783241"><ele>155.33333333333334</ele><time>2026-03-29T13:19:02.559Z</time></trkpt><trkpt lat="45.7011297" lon="10.6784621"><ele>160.66666666666669</ele><time>2026-03-29T13:19:03.565Z</time></trkpt><trkpt lat="45.7012647" lon="10.6785738"><ele>166.0</ele><time>2026-03-29T13:19:04.556Z</time></trkpt><trkpt lat="45.7013943" lon="10.6787042"><ele>166.0</ele><time>2026-03-29T13:19:05.577Z</time></trkpt><trkpt lat="45.7015207" lon="10.6788447"><ele>166.0</ele><time>2026-03-29T13:19:06.592Z</time></trkpt><trkpt lat="45.7016328" lon="10.6789943"><ele>166.0</ele><time>2026-03-29T13:19:07.567Z</time></trkpt><trkpt lat="45.7017398" lon="10.6791683"><ele>166.0</ele><time>2026-03-29T13:19:08.56Z</time></trkpt><trkpt lat="45.7018415" lon="10.6793585"><ele>166.0</ele><time>2026-03-29T13:19:09.566Z</time></trkpt><trkpt lat="45.7019368" lon="10.6795641"><ele>166.0</ele><time>2026-03-29T13:19:10.581Z</time></trkpt><trkpt lat="45.7020216" lon="10.6797538"><ele>163.0</ele><time>2026-03-29T13:19:11.559Z</time></trkpt><trkpt lat="45.7021075" lon="10.6799334"><ele>160.0</ele><time>2026-03-29T13:19:12.577Z</time></trkpt><trkpt lat="45.7021947" lon="10.680085"><ele>157.0</ele><time>2026-03-29T13:19:13.563Z</time></trkpt><trkpt lat="45.7022992" lon="10.6802307"><ele>154.0</ele><time>2026-03-29T13:19:14.577Z</time></trkpt><trkpt lat="45.702405" lon="10.6803432"><ele>154.0</ele><time>2026-03-29T13:19:15.582Z</time></trkpt><trkpt lat="45.7025246" lon="10.6804191"><ele>154.0</ele><time>2026-03-29T13:19:16.577Z</time></trkpt><trkpt lat="45.7026371" lon="10.6804782"><ele>154.0</ele><time>2026-03-29T13:19:17.568Z</time></trkpt><trkpt lat="45.7027278" lon="10.6805385"><ele>154.0</ele><time>2026-03-29T13:19:18.569Z</time></trkpt><trkpt lat="45.7028052" lon="10.6806231"><ele>154.0</ele><time>2026-03-29T13:19:19.567Z</time></trkpt><trkpt lat="45.7028726" lon="10.6807298"><ele>156.0</ele><time>2026-03-29T13:19:20.559Z</time></trkpt><trkpt lat="45.7029349" lon="10.680858"><ele>158.0</ele><time>2026-03-29T13:19:21.57Z</time></trkpt><trkpt lat="45.7030037" lon="10.6810075"><ele>160.0</ele><time>2026-03-29T13:19:22.561Z</time></trkpt><trkpt lat="45.7030693" lon="10.6811644"><ele>162.0</ele><time>2026-03-29T13:19:23.561Z</time></trkpt><trkpt lat="45.7031397" lon="10.6813259"><ele>162.0</ele><time>2026-03-29T13:19:24.579Z</time></trkpt><trkpt lat="45.7032006" lon="10.6814781"><ele>162.0</ele><time>2026-03-29T13:19:25.568Z</time></trkpt><trkpt lat="45.703251" lon="10.6816297"><ele>162.0</ele><time>2026-03-29T13:19:26.569Z</time></trkpt><trkpt lat="45.7032903" lon="10.6817819"><ele>162.0</ele><time>2026-03-29T13:19:27.566Z</time></trkpt><trkpt lat="45.7033262" lon="10.6819261"><ele>161.0</ele><time>2026-03-29T13:19:28.572Z</time></trkpt><trkpt lat="45.7033625" lon="10.6820643"><ele>160.0</ele><time>2026-03-29T13:19:29.581Z</time></trkpt><trkpt lat="45.7034004" lon="10.6821999"><ele>159.0</ele><time>2026-03-29T13:19:30.57Z</time></trkpt><trkpt lat="45.703443" lon="10.6823437"><ele>158.0</ele><time>2026-03-29T13:19:31.608Z</time></trkpt><trkpt lat="45.7034809" lon="10.6824734"><ele>157.0</ele><time>2026-03-29T13:19:32.602Z</time></trkpt><trkpt lat="45.7035295" lon="10.6826456"><ele>189.0</ele><time>2026-03-29T13:19:33.925Z</time></trkpt><trkpt lat="45.7035851" lon="10.6828799"><ele>221.0</ele><time>2026-03-29T13:19:35.615Z</time></trkpt><trkpt lat="45.7036158" lon="10.6830186"><ele>253.0</ele><time>2026-03-29T13:19:36.619Z</time></trkpt><trkpt lat="45.7036446" lon="10.6831623"><ele>285.0</ele><time>2026-03-29T13:19:37.614Z</time></trkpt><trkpt lat="45.7036844" lon="10.6832992"><ele>285.0</ele><time>2026-03-29T13:19:38.6Z</time></trkpt><trkpt lat="45.7037071" lon="10.6834128"><ele>285.0</ele><time>2026-03-29T13:19:39.589Z</time></trkpt><trkpt lat="45.7037388" lon="10.6835383"><ele>285.0</ele><time>2026-03-29T13:19:40.585Z</time></trkpt><trkpt lat="45.7037715" lon="10.6836478"><ele>285.0</ele><time>2026-03-29T13:19:41.584Z</time></trkpt><trkpt lat="45.7038029" lon="10.6837562"><ele>285.0</ele><time>2026-03-29T13:19:42.538Z</time></trkpt><trkpt lat="45.7038347" lon="10.6838618"><ele>285.0</ele><time>2026-03-29T13:19:43.519Z</time></trkpt><trkpt lat="45.7038625" lon="10.6839462"><ele>251.5</ele><time>2026-03-29T13:19:44.497Z</time></trkpt><trkpt lat="45.7039036" lon="10.6840396"><ele>218.0</ele><time>2026-03-29T13:19:45.508Z</time></trkpt><trkpt lat="45.7034366" lon="10.6823291"><ele>151.0</ele><time>2026-03-29T13:19:46.485Z</time></trkpt><trkpt lat="45.7126609" lon="10.7004513"><ele>158.0</ele><time>2026-03-29T13:21:33.444Z</time></trkpt><trkpt lat="45.7127559" lon="10.7005068"><ele>165.0</ele><time>2026-03-29T13:21:34.444Z</time></trkpt><trkpt lat="45.7128716" lon="10.7005923"><ele>172.0</ele><time>2026-03-29T13:21:35.444Z</time></trkpt><trkpt lat="45.7129969" lon="10.7006697"><ele>179.0</ele><time>2026-03-29T13:21:36.444Z</time></trkpt><trkpt lat="45.7131295" lon="10.7007538"><ele>179.0</ele><time>2026-03-29T13:21:37.63Z</time></trkpt><trkpt lat="45.71321" lon="10.7008026"><ele>179.0</ele><time>2026-03-29T13:21:38.634Z</time></trkpt><trkpt lat="45.7133859" lon="10.7009113"><ele>179.0</ele><time>2026-03-29T13:21:39.568Z</time></trkpt><trkpt lat="45.713559" lon="10.7010197"><ele>175.0</ele><time>2026-03-29T13:21:40.585Z</time></trkpt><trkpt lat="45.7136931" lon="10.7010996"><ele>171.0</ele><time>2026-03-29T13:21:41.588Z</time></trkpt><trkpt lat="45.7138387" lon="10.7011826"><ele>167.0</ele><time>2026-03-29T13:21:42.566Z</time></trkpt><trkpt lat="45.7139869" lon="10.7012684"><ele>167.0</ele><time>2026-03-29T13:21:43.583Z</time></trkpt><trkpt lat="45.7141283" lon="10.7013616"><ele>167.0</ele><time>2026-03-29T13:21:44.581Z</time></trkpt><trkpt lat="45.7142539" lon="10.7014728"><ele>167.0</ele><time>2026-03-29T13:21:45.577Z</time></trkpt><trkpt lat="45.7143613" lon="10.7016169"><ele>166.0</ele><time>2026-03-29T13:21:46.571Z</time></trkpt><trkpt lat="45.7144631" lon="10.7017834"><ele>165.0</ele><time>2026-03-29T13:21:47.579Z</time></trkpt><trkpt lat="45.7145657" lon="10.7019624"><ele>164.0</ele><time>2026-03-29T13:21:48.578Z</time></trkpt><trkpt lat="45.7146811" lon="10.7021313"><ele>164.0</ele><time>2026-03-29T13:21:49.566Z</time></trkpt><trkpt lat="45.7148053" lon="10.7022965"><ele>164.0</ele><time>2026-03-29T13:21:50.575Z</time></trkpt><trkpt lat="45.7149383" lon="10.7024521"><ele>164.0</ele><time>2026-03-29T13:21:51.584Z</time></trkpt><trkpt lat="45.7150676" lon="10.7026015"><ele>164.0</ele><time>2026-03-29T13:21:52.572Z</time></trkpt><trkpt lat="45.7152046" lon="10.7027434"><ele>164.0</ele><time>2026-03-29T13:21:53.577Z</time></trkpt><trkpt lat="45.7153433" lon="10.7028765"><ele>164.0</ele><time>2026-03-29T13:21:54.569Z</time></trkpt><trkpt lat="45.7154787" lon="10.7030061"><ele>163.66666666666666</ele><time>2026-03-29T13:21:55.566Z</time></trkpt><trkpt lat="45.7156075" lon="10.7031375"><ele>163.33333333333334</ele><time>2026-03-29T13:21:56.576Z</time></trkpt><trkpt lat="45.715735" lon="10.703264"><ele>163.0</ele><time>2026-03-29T13:21:57.586Z</time></trkpt><trkpt lat="45.7158607" lon="10.7033895"><ele>163.0</ele><time>2026-03-29T13:21:58.571Z</time></trkpt><trkpt lat="45.715989" lon="10.7035197"><ele>163.0</ele><time>2026-03-29T13:21:59.573Z</time></trkpt><trkpt lat="45.716118" lon="10.7036479"><ele>163.0</ele><time>2026-03-29T13:22:00.566Z</time></trkpt><trkpt lat="45.7162524" lon="10.703781"><ele>162.66666666666669</ele><time>2026-03-29T13:22:01.561Z</time></trkpt><trkpt lat="45.7163876" lon="10.703919"><ele>162.33333333333334</ele><time>2026-03-29T13:22:02.581Z</time></trkpt><trkpt lat="45.7165196" lon="10.7040527"><ele>162.0</ele><time>2026-03-29T13:22:03.57Z</time></trkpt><trkpt lat="45.7166343" lon="10.7042013"><ele>162.0</ele><time>2026-03-29T13:22:04.572Z</time></trkpt><trkpt lat="45.7167409" lon="10.7043635"><ele>162.0</ele><time>2026-03-29T13:22:05.573Z</time></trkpt><trkpt lat="45.7168415" lon="10.7045317"><ele>162.0</ele><time>2026-03-29T13:22:06.569Z</time></trkpt><trkpt lat="45.7169408" lon="10.704706"><ele>164.33333333333334</ele><time>2026-03-29T13:22:07.572Z</time></trkpt><trkpt lat="45.7170427" lon="10.7048822"><ele>166.66666666666669</ele><time>2026-03-29T13:22:08.564Z</time></trkpt><trkpt lat="45.7171499" lon="10.7050623"><ele>169.0</ele><time>2026-03-29T13:22:09.562Z</time></trkpt><trkpt lat="45.7172634" lon="10.7052437"><ele>158.66666666666669</ele><time>2026-03-29T13:22:10.579Z</time></trkpt><trkpt lat="45.7173784" lon="10.705416"><ele>148.33333333333334</ele><time>2026-03-29T13:22:11.568Z</time></trkpt><trkpt lat="45.7174919" lon="10.7055848"><ele>138.0</ele><time>2026-03-29T13:22:12.57Z</time></trkpt><trkpt lat="45.717608" lon="10.7057438"><ele>138.0</ele><time>2026-03-29T13:22:13.567Z</time></trkpt><trkpt lat="45.7177275" lon="10.7059007"><ele>138.0</ele><time>2026-03-29T13:22:14.585Z</time></trkpt><trkpt lat="45.7178455" lon="10.7060435"><ele>138.0</ele><time>2026-03-29T13:22:15.575Z</time></trkpt><trkpt lat="45.7179698" lon="10.7061758"><ele>146.0</ele><time>2026-03-29T13:22:16.571Z</time></trkpt><trkpt lat="45.7181027" lon="10.7062996"><ele>154.0</ele><time>2026-03-29T13:22:17.577Z</time></trkpt><trkpt lat="45.7182358" lon="10.7064177"><ele>162.0</ele><time>2026-03-29T13:22:18.569Z</time></trkpt><trkpt lat="45.7183747" lon="10.7065452"><ele>162.0</ele><time>2026-03-29T13:22:19.569Z</time></trkpt><trkpt lat="45.7185176" lon="10.7066705"><ele>162.0</ele><time>2026-03-29T13:22:20.572Z</time></trkpt><trkpt lat="45.7186639" lon="10.7067968"><ele>162.0</ele><time>2026-03-29T13:22:21.568Z</time></trkpt><trkpt lat="45.7188111" lon="10.7069169"><ele>166.66666666666666</ele><time>2026-03-29T13:22:22.565Z</time></trkpt><trkpt lat="45.7189612" lon="10.7070368"><ele>171.33333333333331</ele><time>2026-03-29T13:22:23.616Z</time></trkpt><trkpt lat="45.7191414" lon="10.7071876"><ele>176.0</ele><time>2026-03-29T13:22:24.948Z</time></trkpt><trkpt lat="45.7193613" lon="10.7073801"><ele>187.66666666666666</ele><time>2026-03-29T13:22:26.629Z</time></trkpt><trkpt lat="45.7195109" lon="10.7074999"><ele>199.33333333333331</ele><time>2026-03-29T13:22:27.633Z</time></trkpt><trkpt lat="45.7196605" lon="10.7076211"><ele>211.0</ele><time>2026-03-29T13:22:28.617Z</time></trkpt><trkpt lat="45.7197987" lon="10.7077244"><ele>210.33333333333331</ele><time>2026-03-29T13:22:29.611Z</time></trkpt><trkpt lat="45.7199335" lon="10.7078232"><ele>209.66666666666669</ele><time>2026-03-29T13:22:30.617Z</time></trkpt><trkpt lat="45.7200598" lon="10.7079248"><ele>209.0</ele><time>2026-03-29T13:22:31.613Z</time></trkpt><trkpt lat="45.7202124" lon="10.7080207"><ele>209.66666666666669</ele><time>2026-03-29T13:22:32.609Z</time></trkpt><trkpt lat="45.7203522" lon="10.7081177"><ele>210.33333333333331</ele><time>2026-03-29T13:22:33.611Z</time></trkpt><trkpt lat="45.7204779" lon="10.7082247"><ele>211.0</ele><time>2026-03-29T13:22:34.622Z</time></trkpt><trkpt lat="45.7206076" lon="10.7083274"><ele>211.0</ele><time>2026-03-29T13:22:35.616Z</time></trkpt><trkpt lat="45.7207308" lon="10.7084282"><ele>211.0</ele><time>2026-03-29T13:22:36.609Z</time></trkpt><trkpt lat="45.720825" lon="10.7085287"><ele>211.0</ele><time>2026-03-29T13:22:37.619Z</time></trkpt><trkpt lat="45.7209395" lon="10.7085999"><ele>211.0</ele><time>2026-03-29T13:22:38.519Z</time></trkpt><trkpt lat="45.7210683" lon="10.7086817"><ele>209.0</ele><time>2026-03-29T13:22:39.524Z</time></trkpt><trkpt lat="45.720027" lon="10.7080332"><ele>86.0</ele><time>2026-03-29T13:22:40.511Z</time></trkpt><trkpt lat="45.7279473" lon="10.7182835"><ele>86.0</ele><time>2026-03-29T13:23:37.446Z</time></trkpt><trkpt lat="45.7279573" lon="10.7184999"><ele>86.0</ele><time>2026-03-29T13:23:38.446Z</time></trkpt><trkpt lat="45.7279533" lon="10.7187111"><ele>86.0</ele><time>2026-03-29T13:23:39.446Z</time></trkpt><trkpt lat="45.7279438" lon="10.7188618"><ele>86.0</ele><time>2026-03-29T13:23:40.625Z</time></trkpt><trkpt lat="45.7279348" lon="10.7189768"><ele>87.5</ele><time>2026-03-29T13:23:41.637Z</time></trkpt><trkpt lat="45.727929" lon="10.7192448"><ele>89.0</ele><time>2026-03-29T13:23:42.626Z</time></trkpt><trkpt lat="45.727938" lon="10.719404"><ele>90.5</ele><time>2026-03-29T13:23:43.567Z</time></trkpt><trkpt lat="45.7279666" lon="10.7195677"><ele>92.0</ele><time>2026-03-29T13:23:44.565Z</time></trkpt><trkpt lat="45.7280173" lon="10.7197291"><ele>88.75</ele><time>2026-03-29T13:23:45.576Z</time></trkpt><trkpt lat="45.7280909" lon="10.7198712"><ele>85.5</ele><time>2026-03-29T13:23:46.575Z</time></trkpt><trkpt lat="45.7281808" lon="10.7199991"><ele>82.25</ele><time>2026-03-29T13:23:47.578Z</time></trkpt><trkpt lat="45.7282779" lon="10.720107"><ele>79.0</ele><time>2026-03-29T13:23:48.583Z</time></trkpt><trkpt lat="45.7283791" lon="10.7201895"><ele>77.75</ele><time>2026-03-29T13:23:49.567Z</time></trkpt><trkpt lat="45.728495" lon="10.7202429"><ele>76.5</ele><time>2026-03-29T13:23:50.587Z</time></trkpt><trkpt lat="45.728611" lon="10.7202814"><ele>75.25</ele><time>2026-03-29T13:23:51.562Z</time></trkpt><trkpt lat="45.7287403" lon="10.7203207"><ele>74.0</ele><time>2026-03-29T13:23:52.571Z</time></trkpt><trkpt lat="45.7288634" lon="10.7203714"><ele>80.0</ele><time>2026-03-29T13:23:53.567Z</time></trkpt><trkpt lat="45.7289832" lon="10.7204371"><ele>86.0</ele><time>2026-03-29T13:23:54.581Z</time></trkpt><trkpt lat="45.7290817" lon="10.7205217"><ele>92.0</ele><time>2026-03-29T13:23:55.578Z</time></trkpt><trkpt lat="45.7291759" lon="10.7206145"><ele>98.0</ele><time>2026-03-29T13:23:56.605Z</time></trkpt><trkpt lat="45.729249" lon="10.7207065"><ele>98.0</ele><time>2026-03-29T13:23:57.616Z</time></trkpt><trkpt lat="45.7293265" lon="10.7208458"><ele>98.0</ele><time>2026-03-29T13:23:58.954Z</time></trkpt><trkpt lat="45.729496" lon="10.721096"><ele>98.0</ele><time>2026-03-29T13:24:00.635Z</time></trkpt><trkpt lat="45.7296007" lon="10.7212984"><ele>92.0</ele><time>2026-03-29T13:24:01.621Z</time></trkpt><trkpt lat="45.7296839" lon="10.7214709"><ele>86.0</ele><time>2026-03-29T13:24:02.622Z</time></trkpt><trkpt lat="45.7297844" lon="10.7216163"><ele>80.0</ele><time>2026-03-29T13:24:03.628Z</time></trkpt><trkpt lat="45.7298719" lon="10.721791"><ele>74.0</ele><time>2026-03-29T13:24:04.627Z</time></trkpt><trkpt lat="45.729959" lon="10.7219597"><ele>74.0</ele><time>2026-03-29T13:24:05.627Z</time></trkpt><trkpt lat="45.7300453" lon="10.7221275"><ele>74.0</ele><time>2026-03-29T13:24:06.627Z</time></trkpt><trkpt lat="45.7301382" lon="10.7223003"><ele>74.0</ele><time>2026-03-29T13:24:07.642Z</time></trkpt><trkpt lat="45.7302236" lon="10.7224679"><ele>74.0</ele><time>2026-03-29T13:24:08.569Z</time></trkpt><trkpt lat="45.7303151" lon="10.722653"><ele>75.66666666666667</ele><time>2026-03-29T13:24:09.576Z</time></trkpt><trkpt lat="45.7304052" lon="10.722833"><ele>77.33333333333333</ele><time>2026-03-29T13:24:10.559Z</time></trkpt><trkpt lat="45.7305022" lon="10.7230245"><ele>79.0</ele><time>2026-03-29T13:24:11.587Z</time></trkpt><trkpt lat="45.730595" lon="10.7232177"><ele>79.0</ele><time>2026-03-29T13:24:12.577Z</time></trkpt><trkpt lat="45.7306886" lon="10.7234208"><ele>79.0</ele><time>2026-03-29T13:24:13.583Z</time></trkpt><trkpt lat="45.7307776" lon="10.7236193"><ele>79.0</ele><time>2026-03-29T13:24:14.564Z</time></trkpt><trkpt lat="45.7308641" lon="10.7238265"><ele>79.66666666666666</ele><time>2026-03-29T13:24:15.562Z</time></trkpt><trkpt lat="45.7309456" lon="10.7240331"><ele>80.33333333333333</ele><time>2026-03-29T13:24:16.571Z</time></trkpt><trkpt lat="45.7310207" lon="10.7242332"><ele>81.0</ele><time>2026-03-29T13:24:17.583Z</time></trkpt><trkpt lat="45.7310907" lon="10.7244222"><ele>87.75</ele><time>2026-03-29T13:24:18.587Z</time></trkpt><trkpt lat="45.7311499" lon="10.7246041"><ele>94.5</ele><time>2026-03-29T13:24:19.559Z</time></trkpt><trkpt lat="45.7312095" lon="10.7247897"><ele>101.25</ele><time>2026-03-29T13:24:20.57Z</time></trkpt><trkpt lat="45.7312646" lon="10.7249784"><ele>108.0</ele><time>2026-03-29T13:24:21.574Z</time></trkpt><trkpt lat="45.7313253" lon="10.725162"><ele>104.75</ele><time>2026-03-29T13:24:22.58Z</time></trkpt><trkpt lat="45.7313892" lon="10.7253476"><ele>101.5</ele><time>2026-03-29T13:24:23.578Z</time></trkpt><trkpt lat="45.7314606" lon="10.7255231"><ele>98.25</ele><time>2026-03-29T13:24:24.566Z</time></trkpt><trkpt lat="45.7315409" lon="10.7257005"><ele>95.0</ele><time>2026-03-29T13:24:25.574Z</time></trkpt><trkpt lat="45.7316257" lon="10.7258774"><ele>95.0</ele><time>2026-03-29T13:24:26.582Z</time></trkpt><trkpt lat="45.7317141" lon="10.7260574"><ele>95.0</ele><time>2026-03-29T13:24:27.585Z</time></trkpt><trkpt lat="45.7318015" lon="10.7262339"><ele>95.0</ele><time>2026-03-29T13:24:28.567Z</time></trkpt><trkpt lat="45.7318944" lon="10.7264112"><ele>95.66666666666667</ele><time>2026-03-29T13:24:29.585Z</time></trkpt><trkpt lat="45.7319851" lon="10.7265894"><ele>96.33333333333334</ele><time>2026-03-29T13:24:30.572Z</time></trkpt><trkpt lat="45.7320751" lon="10.726768"><ele>97.0</ele><time>2026-03-29T13:24:31.565Z</time></trkpt><trkpt lat="45.7321647" lon="10.7269513"><ele>97.0</ele><time>2026-03-29T13:24:32.56Z</time></trkpt><trkpt lat="45.7322587" lon="10.7271378"><ele>97.0</ele><time>2026-03-29T13:24:33.582Z</time></trkpt><trkpt lat="45.7323493" lon="10.7273183"><ele>97.0</ele><time>2026-03-29T13:24:34.587Z</time></trkpt><trkpt lat="45.7324377" lon="10.7274916"><ele>97.0</ele><time>2026-03-29T13:24:35.572Z</time></trkpt><trkpt lat="45.7325308" lon="10.7276622"><ele>97.0</ele><time>2026-03-29T13:24:36.571Z</time></trkpt><trkpt lat="45.7326315" lon="10.7278244"><ele>97.0</ele><time>2026-03-29T13:24:37.571Z</time></trkpt><trkpt lat="45.7327385" lon="10.7279828"><ele>104.0</ele><time>2026-03-29T13:24:38.568Z</time></trkpt><trkpt lat="45.732847" lon="10.7281382"><ele>111.0</ele><time>2026-03-29T13:24:39.572Z</time></trkpt><trkpt lat="45.7329495" lon="10.7282983"><ele>118.0</ele><time>2026-03-29T13:24:40.564Z</time></trkpt><trkpt lat="45.7330538" lon="10.7284603"><ele>109.0</ele><time>2026-03-29T13:24:41.56Z</time></trkpt><trkpt lat="45.733156" lon="10.7286273"><ele>100.0</ele><time>2026-03-29T13:24:42.576Z</time></trkpt><trkpt lat="45.7332488" lon="10.7287968"><ele>91.0</ele><time>2026-03-29T13:24:43.57Z</time></trkpt><trkpt lat="45.7333316" lon="10.7289732"><ele>91.0</ele><time>2026-03-29T13:24:44.566Z</time></trkpt><trkpt lat="45.7334125" lon="10.7291577"><ele>91.0</ele><time>2026-03-29T13:24:45.572Z</time></trkpt><trkpt lat="45.7334837" lon="10.7293508"><ele>91.0</ele><time>2026-03-29T13:24:46.583Z</time></trkpt><trkpt lat="45.7335388" lon="10.7295466"><ele>96.25</ele><time>2026-03-29T13:24:47.557Z</time></trkpt><trkpt lat="45.7336013" lon="10.7297304"><ele>101.5</ele><time>2026-03-29T13:24:48.566Z</time></trkpt><trkpt lat="45.7336717" lon="10.7299043"><ele>106.75</ele><time>2026-03-29T13:24:49.559Z</time></trkpt><trkpt lat="45.7337542" lon="10.7300671"><ele>112.0</ele><time>2026-03-29T13:24:50.589Z</time></trkpt><trkpt lat="45.7338463" lon="10.7302168"><ele>103.0</ele><time>2026-03-29T13:24:51.57Z</time></trkpt><trkpt lat="45.7339479" lon="10.7303656"><ele>94.0</ele><time>2026-03-29T13:24:52.577Z</time></trkpt><trkpt lat="45.7340542" lon="10.7305184"><ele>85.0</ele><time>2026-03-29T13:24:53.579Z</time></trkpt><trkpt lat="45.734163" lon="10.7306767"><ele>85.0</ele><time>2026-03-29T13:24:54.583Z</time></trkpt><trkpt lat="45.7342766" lon="10.7308393"><ele>85.0</ele><time>2026-03-29T13:24:55.57Z</time></trkpt><trkpt lat="45.7343969" lon="10.7310088"><ele>85.0</ele><time>2026-03-29T13:24:56.573Z</time></trkpt><trkpt lat="45.7345158" lon="10.7311805"><ele>89.33333333333333</ele><time>2026-03-29T13:24:57.567Z</time></trkpt><trkpt lat="45.7346348" lon="10.7313544"><ele>93.66666666666666</ele><time>2026-03-29T13:24:58.561Z</time></trkpt><trkpt lat="45.7347573" lon="10.7315348"><ele>98.0</ele><time>2026-03-29T13:24:59.578Z</time></trkpt><trkpt lat="45.7348806" lon="10.7317149"><ele>92.66666666666666</ele><time>2026-03-29T13:25:00.606Z</time></trkpt><trkpt lat="45.7350377" lon="10.7319306"><ele>87.33333333333333</ele><time>2026-03-29T13:25:01.921Z</time></trkpt><trkpt lat="45.7351969" lon="10.7321662"><ele>82.0</ele><time>2026-03-29T13:25:03.623Z</time></trkpt><trkpt lat="45.7353212" lon="10.7323308"><ele>86.25</ele><time>2026-03-29T13:25:04.616Z</time></trkpt><trkpt lat="45.7354399" lon="10.7324785"><ele>90.5</ele><time>2026-03-29T13:25:05.626Z</time></trkpt><trkpt lat="45.7355308" lon="10.7326326"><ele>94.75</ele><time>2026-03-29T13:25:06.634Z</time></trkpt><trkpt lat="45.7355913" lon="10.7327984"><ele>99.0</ele><time>2026-03-29T13:25:07.624Z</time></trkpt><trkpt lat="45.7356264" lon="10.7329809"><ele>99.0</ele><time>2026-03-29T13:25:08.625Z</time></trkpt><trkpt lat="45.735641" lon="10.7331691"><ele>99.0</ele><time>2026-03-29T13:25:09.627Z</time></trkpt><trkpt lat="45.7356507" lon="10.7333495"><ele>99.0</ele><time>2026-03-29T13:25:10.591Z</time></trkpt><trkpt lat="45.7356607" lon="10.733532"><ele>99.0</ele><time>2026-03-29T13:25:11.584Z</time></trkpt><trkpt lat="45.7356775" lon="10.7337057"><ele>96.75</ele><time>2026-03-29T13:25:12.579Z</time></trkpt><trkpt lat="45.7357047" lon="10.7338771"><ele>94.5</ele><time>2026-03-29T13:25:13.569Z</time></trkpt><trkpt lat="45.7357417" lon="10.7340408"><ele>92.25</ele><time>2026-03-29T13:25:14.572Z</time></trkpt><trkpt lat="45.7357937" lon="10.7342038"><ele>90.0</ele><time>2026-03-29T13:25:15.571Z</time></trkpt><trkpt lat="45.7358525" lon="10.7343611"><ele>87.75</ele><time>2026-03-29T13:25:16.577Z</time></trkpt><trkpt lat="45.7359208" lon="10.7345083"><ele>85.5</ele><time>2026-03-29T13:25:17.575Z</time></trkpt><trkpt lat="45.7360031" lon="10.7346483"><ele>83.25</ele><time>2026-03-29T13:25:18.575Z</time></trkpt><trkpt lat="45.7360999" lon="10.7347862"><ele>81.0</ele><time>2026-03-29T13:25:19.567Z</time></trkpt><trkpt lat="45.7362057" lon="10.7349184"><ele>81.33333333333333</ele><time>2026-03-29T13:25:20.564Z</time></trkpt><trkpt lat="45.736329" lon="10.7350403"><ele>81.66666666666666</ele><time>2026-03-29T13:25:21.577Z</time></trkpt><trkpt lat="45.736461" lon="10.7351511"><ele>82.0</ele><time>2026-03-29T13:25:22.581Z</time></trkpt><trkpt lat="45.7365979" lon="10.7352533"><ele>82.0</ele><time>2026-03-29T13:25:23.59Z</time></trkpt><trkpt lat="45.7367228" lon="10.7353519"><ele>82.0</ele><time>2026-03-29T13:25:24.561Z</time></trkpt><trkpt lat="45.736844" lon="10.7354431"><ele>82.0</ele><time>2026-03-29T13:25:25.57Z</time></trkpt><trkpt lat="45.7369605" lon="10.735519"><ele>82.0</ele><time>2026-03-29T13:25:26.583Z</time></trkpt><trkpt lat="45.737072" lon="10.7355806"><ele>83.75</ele><time>2026-03-29T13:25:27.574Z</time></trkpt><trkpt lat="45.7371846" lon="10.7356295"><ele>85.5</ele><time>2026-03-29T13:25:28.562Z</time></trkpt><trkpt lat="45.7373016" lon="10.7356667"><ele>87.25</ele><time>2026-03-29T13:25:29.569Z</time></trkpt><trkpt lat="45.7374327" lon="10.7356882"><ele>89.0</ele><time>2026-03-29T13:25:30.586Z</time></trkpt><trkpt lat="45.7375684" lon="10.7356987"><ele>89.0</ele><time>2026-03-29T13:25:31.584Z</time></trkpt><trkpt lat="45.7377136" lon="10.7357052"><ele>89.0</ele><time>2026-03-29T13:25:32.619Z</time></trkpt><trkpt lat="45.7378526" lon="10.7357176"><ele>89.0</ele><time>2026-03-29T13:25:33.611Z</time></trkpt><trkpt lat="45.7380062" lon="10.7357347"><ele>89.0</ele><time>2026-03-29T13:25:34.608Z</time></trkpt><trkpt lat="45.7381488" lon="10.7357623"><ele>96.33333333333334</ele><time>2026-03-29T13:25:35.609Z</time></trkpt><trkpt lat="45.7382791" lon="10.7358029"><ele>103.66666666666667</ele><time>2026-03-29T13:25:36.608Z</time></trkpt><trkpt lat="45.7384613" lon="10.7358524"><ele>111.0</ele><time>2026-03-29T13:25:37.954Z</time></trkpt><trkpt lat="45.7386826" lon="10.7359293"><ele>112.5</ele><time>2026-03-29T13:25:39.619Z</time></trkpt><trkpt lat="45.7388228" lon="10.7359855"><ele>114.0</ele><time>2026-03-29T13:25:40.619Z</time></trkpt><trkpt lat="45.7389585" lon="10.7360457"><ele>115.5</ele><time>2026-03-29T13:25:41.615Z</time></trkpt><trkpt lat="45.7390958" lon="10.7361024"><ele>117.0</ele><time>2026-03-29T13:25:42.616Z</time></trkpt><trkpt lat="45.7392219" lon="10.73619"><ele>117.0</ele><time>2026-03-29T13:25:43.577Z</time></trkpt><trkpt lat="45.7393617" lon="10.736293"><ele>117.0</ele><time>2026-03-29T13:25:44.573Z</time></trkpt><trkpt lat="45.7394752" lon="10.7363883"><ele>117.0</ele><time>2026-03-29T13:25:45.562Z</time></trkpt><trkpt lat="45.7395957" lon="10.736511"><ele>117.0</ele><time>2026-03-29T13:25:46.536Z</time></trkpt><trkpt lat="45.7396913" lon="10.7366255"><ele>111.0</ele><time>2026-03-29T13:25:47.489Z</time></trkpt><trkpt lat="45.7380765" lon="10.7358292"><ele>111.0</ele><time>2026-03-29T13:25:48.472Z</time></trkpt><trkpt lat="45.7623031" lon="10.7543272"><ele>111.0</ele><time>2026-03-29T13:28:13.45Z</time></trkpt><trkpt lat="45.7624244" lon="10.7544638"><ele>111.0</ele><time>2026-03-29T13:28:14.45Z</time></trkpt><trkpt lat="45.7625282" lon="10.7546189"><ele>111.0</ele><time>2026-03-29T13:28:15.45Z</time></trkpt><trkpt lat="45.7626069" lon="10.7548112"><ele>176.25</ele><time>2026-03-29T13:28:16.635Z</time></trkpt><trkpt lat="45.7626387" lon="10.7549136"><ele>241.5</ele><time>2026-03-29T13:28:17.625Z</time></trkpt><trkpt lat="45.7627224" lon="10.7551483"><ele>306.75</ele><time>2026-03-29T13:28:18.647Z</time></trkpt><trkpt lat="45.7628018" lon="10.7553685"><ele>372.0</ele><time>2026-03-29T13:28:19.635Z</time></trkpt><trkpt lat="45.7628778" lon="10.7555547"><ele>375.0</ele><time>2026-03-29T13:28:20.65Z</time></trkpt><trkpt lat="45.7629592" lon="10.7557361"><ele>378.0</ele><time>2026-03-29T13:28:21.63Z</time></trkpt><trkpt lat="45.7630405" lon="10.7559066"><ele>381.0</ele><time>2026-03-29T13:28:22.579Z</time></trkpt><trkpt lat="45.7631288" lon="10.7560893"><ele>381.0</ele><time>2026-03-29T13:28:23.575Z</time></trkpt><trkpt lat="45.7632268" lon="10.7562527"><ele>381.0</ele><time>2026-03-29T13:28:24.576Z</time></trkpt><trkpt lat="45.7633293" lon="10.7564077"><ele>381.0</ele><time>2026-03-29T13:28:25.586Z</time></trkpt><trkpt lat="45.7634278" lon="10.7565582"><ele>381.0</ele><time>2026-03-29T13:28:26.575Z</time></trkpt><trkpt lat="45.7635308" lon="10.7567126"><ele>386.25</ele><time>2026-03-29T13:28:27.604Z</time></trkpt><trkpt lat="45.7636334" lon="10.7568589"><ele>391.5</ele><time>2026-03-29T13:28:28.585Z</time></trkpt><trkpt lat="45.7637334" lon="10.7570119"><ele>396.75</ele><time>2026-03-29T13:28:29.579Z</time></trkpt><trkpt lat="45.7638322" lon="10.7571574"><ele>402.0</ele><time>2026-03-29T13:28:30.581Z</time></trkpt><trkpt lat="45.763922" lon="10.7573069"><ele>402.0</ele><time>2026-03-29T13:28:31.583Z</time></trkpt><trkpt lat="45.7639975" lon="10.7574653"><ele>402.0</ele><time>2026-03-29T13:28:32.575Z</time></trkpt><trkpt lat="45.7640716" lon="10.7576254"><ele>402.0</ele><time>2026-03-29T13:28:33.573Z</time></trkpt><trkpt lat="45.7641425" lon="10.7577853"><ele>402.0</ele><time>2026-03-29T13:28:34.569Z</time></trkpt><trkpt lat="45.7642229" lon="10.7579292"><ele>401.5</ele><time>2026-03-29T13:28:35.563Z</time></trkpt><trkpt lat="45.7643127" lon="10.7580671"><ele>401.0</ele><time>2026-03-29T13:28:36.573Z</time></trkpt><trkpt lat="45.7644013" lon="10.758192"><ele>400.5</ele><time>2026-03-29T13:28:37.569Z</time></trkpt><trkpt lat="45.7645" lon="10.7583035"><ele>400.0</ele><time>2026-03-29T13:28:38.564Z</time></trkpt><trkpt lat="45.7646063" lon="10.7584113"><ele>399.25</ele><time>2026-03-29T13:28:39.577Z</time></trkpt><trkpt lat="45.7647103" lon="10.7585121"><ele>398.5</ele><time>2026-03-29T13:28:40.579Z</time></trkpt><trkpt lat="45.7648136" lon="10.7586063"><ele>397.75</ele><time>2026-03-29T13:28:41.584Z</time></trkpt><trkpt lat="45.7649188" lon="10.758687"><ele>397.0</ele><time>2026-03-29T13:28:42.568Z</time></trkpt><trkpt lat="45.7650276" lon="10.7587463"><ele>397.0</ele><time>2026-03-29T13:28:43.572Z</time></trkpt><trkpt lat="45.7651512" lon="10.7587897"><ele>397.0</ele><time>2026-03-29T13:28:44.566Z</time></trkpt><trkpt lat="45.7652689" lon="10.758826"><ele>397.0</ele><time>2026-03-29T13:28:45.573Z</time></trkpt><trkpt lat="45.7653745" lon="10.7588739"><ele>397.0</ele><time>2026-03-29T13:28:46.581Z</time></trkpt><trkpt lat="45.7654668" lon="10.7589452"><ele>406.25</ele><time>2026-03-29T13:28:47.576Z</time></trkpt><trkpt lat="45.7655558" lon="10.7590394"><ele>415.5</ele><time>2026-03-29T13:28:48.578Z</time></trkpt><trkpt lat="45.7656429" lon="10.7591475"><ele>424.75</ele><time>2026-03-29T13:28:49.57Z</time></trkpt><trkpt lat="45.765729" lon="10.7592561"><ele>434.0</ele><time>2026-03-29T13:28:50.561Z</time></trkpt><trkpt lat="45.7658212" lon="10.7593549"><ele>437.75</ele><time>2026-03-29T13:28:51.576Z</time></trkpt><trkpt lat="45.7659253" lon="10.7594396"><ele>441.5</ele><time>2026-03-29T13:28:52.574Z</time></trkpt><trkpt lat="45.7660343" lon="10.7595196"><ele>445.25</ele><time>2026-03-29T13:28:53.569Z</time></trkpt><trkpt lat="45.766138" lon="10.7596002"><ele>449.0</ele><time>2026-03-29T13:28:54.573Z</time></trkpt><trkpt lat="45.7662316" lon="10.7596967"><ele>449.0</ele><time>2026-03-29T13:28:55.572Z</time></trkpt><trkpt lat="45.7663137" lon="10.7598045"><ele>449.0</ele><time>2026-03-29T13:28:56.573Z</time></trkpt><trkpt lat="45.7663892" lon="10.7599175"><ele>449.0</ele><time>2026-03-29T13:28:57.585Z</time></trkpt><trkpt lat="45.7664651" lon="10.7600156"><ele>449.0</ele><time>2026-03-29T13:28:58.577Z</time></trkpt><trkpt lat="45.7665506" lon="10.760099"><ele>449.0</ele><time>2026-03-29T13:28:59.569Z</time></trkpt><trkpt lat="45.7666514" lon="10.7601701"><ele>448.25</ele><time>2026-03-29T13:29:00.571Z</time></trkpt><trkpt lat="45.7667574" lon="10.760246"><ele>447.5</ele><time>2026-03-29T13:29:01.595Z</time></trkpt><trkpt lat="45.7668565" lon="10.7603343"><ele>446.75</ele><time>2026-03-29T13:29:02.581Z</time></trkpt><trkpt lat="45.7669586" lon="10.7604326"><ele>446.0</ele><time>2026-03-29T13:29:03.573Z</time></trkpt><trkpt lat="45.7670608" lon="10.7605396"><ele>446.0</ele><time>2026-03-29T13:29:04.57Z</time></trkpt><trkpt lat="45.7671664" lon="10.7606499"><ele>446.0</ele><time>2026-03-29T13:29:05.58Z</time></trkpt><trkpt lat="45.7672749" lon="10.7607536"><ele>446.0</ele><time>2026-03-29T13:29:06.577Z</time></trkpt><trkpt lat="45.7673849" lon="10.7608484"><ele>446.0</ele><time>2026-03-29T13:29:07.572Z</time></trkpt><trkpt lat="45.7674954" lon="10.7609338"><ele>423.0</ele><time>2026-03-29T13:29:08.563Z</time></trkpt><trkpt lat="45.767597" lon="10.7610326"><ele>400.0</ele><time>2026-03-29T13:29:09.561Z</time></trkpt><trkpt lat="45.7676882" lon="10.7611429"><ele>377.0</ele><time>2026-03-29T13:29:10.582Z</time></trkpt><trkpt lat="45.7677679" lon="10.7612666"><ele>354.0</ele><time>2026-03-29T13:29:11.584Z</time></trkpt><trkpt lat="45.7678426" lon="10.761393"><ele>354.0</ele><time>2026-03-29T13:29:12.575Z</time></trkpt><trkpt lat="45.767921" lon="10.7615033"><ele>354.0</ele><time>2026-03-29T13:29:13.565Z</time></trkpt><trkpt lat="45.7680101" lon="10.7616148"><ele>354.0</ele><time>2026-03-29T13:29:14.56Z</time></trkpt><trkpt lat="45.7681074" lon="10.761716"><ele>354.0</ele><time>2026-03-29T13:29:15.564Z</time></trkpt><trkpt lat="45.7682094" lon="10.761817"><ele>354.0</ele><time>2026-03-29T13:29:16.589Z</time></trkpt><trkpt lat="45.7683082" lon="10.7619111"><ele>354.0</ele><time>2026-03-29T13:29:17.577Z</time></trkpt><trkpt lat="45.768395" lon="10.7619953"><ele>354.0</ele><time>2026-03-29T13:29:18.585Z</time></trkpt><trkpt lat="45.7684575" lon="10.7620605"><ele>354.0</ele><time>2026-03-29T13:29:19.572Z</time></trkpt><trkpt lat="45.7685438" lon="10.7621477"><ele>354.0</ele><time>2026-03-29T13:29:21.568Z</time></trkpt><trkpt lat="45.768612" lon="10.7621556"><ele>354.0</ele><time>2026-03-29T13:29:23.568Z</time></trkpt><trkpt lat="45.768649" lon="10.7620568"><ele>354.0</ele><time>2026-03-29T13:29:26.564Z</time></trkpt><trkpt lat="45.7686404" lon="10.7619344"><ele>354.0</ele><time>2026-03-29T13:29:28.622Z</time></trkpt><trkpt lat="45.7686037" lon="10.7618022"><ele>354.0</ele><time>2026-03-29T13:29:30.622Z</time></trkpt><trkpt lat="45.7685316" lon="10.7617424"><ele>354.0</ele><time>2026-03-29T13:29:31.942Z</time></trkpt><trkpt lat="45.7685431" lon="10.7618376"><ele>354.0</ele><time>2026-03-29T13:29:33.624Z</time></trkpt><trkpt lat="45.7684727" lon="10.7618085"><ele>354.0</ele><time>2026-03-29T13:29:34.628Z</time></trkpt><trkpt lat="45.7683873" lon="10.7617576"><ele>354.0</ele><time>2026-03-29T13:29:35.644Z</time></trkpt><trkpt lat="45.7683024" lon="10.7617221"><ele>354.0</ele><time>2026-03-29T13:29:36.637Z</time></trkpt><trkpt lat="45.7682283" lon="10.7616714"><ele>354.0</ele><time>2026-03-29T13:29:37.635Z</time></trkpt><trkpt lat="45.7681046" lon="10.7615646"><ele>354.0</ele><time>2026-03-29T13:29:38.629Z</time></trkpt><trkpt lat="45.7680125" lon="10.7614383"><ele>377.0</ele><time>2026-03-29T13:29:39.635Z</time></trkpt><trkpt lat="45.767926" lon="10.7613025"><ele>400.0</ele><time>2026-03-29T13:29:40.616Z</time></trkpt><trkpt lat="45.7678333" lon="10.7611707"><ele>423.0</ele><time>2026-03-29T13:29:41.641Z</time></trkpt><trkpt lat="45.767744" lon="10.7610496"><ele>446.0</ele><time>2026-03-29T13:29:42.561Z</time></trkpt><trkpt lat="45.7676341" lon="10.76093"><ele>446.0</ele><time>2026-03-29T13:29:43.573Z</time></trkpt><trkpt lat="45.7675131" lon="10.7608307"><ele>446.0</ele><time>2026-03-29T13:29:44.578Z</time></trkpt><trkpt lat="45.7674052" lon="10.7607411"><ele>446.0</ele><time>2026-03-29T13:29:45.57Z</time></trkpt><trkpt lat="45.7673065" lon="10.7606537"><ele>446.0</ele><time>2026-03-29T13:29:46.576Z</time></trkpt><trkpt lat="45.7672246" lon="10.7605649"><ele>446.0</ele><time>2026-03-29T13:29:47.577Z</time></trkpt><trkpt lat="45.7671473" lon="10.7604655"><ele>446.0</ele><time>2026-03-29T13:29:48.573Z</time></trkpt><trkpt lat="45.7670691" lon="10.7603682"><ele>446.0</ele><time>2026-03-29T13:29:49.578Z</time></trkpt><trkpt lat="45.766987" lon="10.760272"><ele>446.0</ele><time>2026-03-29T13:29:50.574Z</time></trkpt><trkpt lat="45.7669021" lon="10.7601802"><ele>446.0</ele><time>2026-03-29T13:29:51.581Z</time></trkpt><trkpt lat="45.7668132" lon="10.760102"><ele>446.49999999999994</ele><time>2026-03-29T13:29:52.591Z</time></trkpt><trkpt lat="45.766729" lon="10.7600499"><ele>447.0</ele><time>2026-03-29T13:29:53.583Z</time></trkpt><trkpt lat="45.7666525" lon="10.7599992"><ele>447.5</ele><time>2026-03-29T13:29:54.566Z</time></trkpt><trkpt lat="45.766593" lon="10.7599403"><ele>448.0</ele><time>2026-03-29T13:29:55.58Z</time></trkpt><trkpt lat="45.7665416" lon="10.7598636"><ele>448.49999999999994</ele><time>2026-03-29T13:29:56.566Z</time></trkpt><trkpt lat="45.7664906" lon="10.7597746"><ele>449.0</ele><time>2026-03-29T13:29:57.573Z</time></trkpt><trkpt lat="45.7664329" lon="10.7596864"><ele>449.0</ele><time>2026-03-29T13:29:58.567Z</time></trkpt><trkpt lat="45.7663652" lon="10.7595842"><ele>449.0</ele><time>2026-03-29T13:29:59.565Z</time></trkpt><trkpt lat="45.7662871" lon="10.7594761"><ele>449.0</ele><time>2026-03-29T13:30:00.568Z</time></trkpt><trkpt lat="45.7662127" lon="10.7593801"><ele>449.0</ele><time>2026-03-29T13:30:01.574Z</time></trkpt><trkpt lat="45.7661268" lon="10.7593028"><ele>449.0</ele><time>2026-03-29T13:30:02.571Z</time></trkpt><trkpt lat="45.766031" lon="10.7592633"><ele>446.0</ele><time>2026-03-29T13:30:03.579Z</time></trkpt><trkpt lat="45.7659396" lon="10.7592216"><ele>443.0</ele><time>2026-03-29T13:30:04.573Z</time></trkpt><trkpt lat="45.7658586" lon="10.7591669"><ele>440.0</ele><time>2026-03-29T13:30:05.573Z</time></trkpt><trkpt lat="45.7657822" lon="10.7591221"><ele>437.0</ele><time>2026-03-29T13:30:06.58Z</time></trkpt><trkpt lat="45.7657109" lon="10.759099"><ele>434.0</ele><time>2026-03-29T13:30:07.568Z</time></trkpt><trkpt lat="45.765623" lon="10.7589837"><ele>433.99999999999994</ele><time>2026-03-29T13:30:09.566Z</time></trkpt><trkpt lat="45.7655886" lon="10.7588872"><ele>434.0</ele><time>2026-03-29T13:30:10.584Z</time></trkpt><trkpt lat="45.7655463" lon="10.7587821"><ele>434.0</ele><time>2026-03-29T13:30:11.579Z</time></trkpt><trkpt lat="45.7654965" lon="10.7586795"><ele>434.0</ele><time>2026-03-29T13:30:12.575Z</time></trkpt><trkpt lat="45.7654461" lon="10.758579"><ele>433.99999999999994</ele><time>2026-03-29T13:30:13.572Z</time></trkpt><trkpt lat="45.7653908" lon="10.7584891"><ele>434.0</ele><time>2026-03-29T13:30:14.577Z</time></trkpt><trkpt lat="45.7653222" lon="10.7584306"><ele>433.0</ele><time>2026-03-29T13:30:15.571Z</time></trkpt><trkpt lat="45.7652525" lon="10.7583969"><ele>432.0</ele><time>2026-03-29T13:30:16.576Z</time></trkpt><trkpt lat="45.7651858" lon="10.7583875"><ele>431.0</ele><time>2026-03-29T13:30:17.566Z</time></trkpt><trkpt lat="45.765124" lon="10.7583542"><ele>430.0</ele><time>2026-03-29T13:30:18.579Z</time></trkpt><trkpt lat="45.7650576" lon="10.7583267"><ele>429.0</ele><time>2026-03-29T13:30:19.574Z</time></trkpt><trkpt lat="45.7649905" lon="10.7582859"><ele>428.0</ele><time>2026-03-29T13:30:20.578Z</time></trkpt><trkpt lat="45.7649178" lon="10.7582284"><ele>427.0</ele><time>2026-03-29T13:30:21.573Z</time></trkpt><trkpt lat="45.7648361" lon="10.758157"><ele>427.0</ele><time>2026-03-29T13:30:22.58Z</time></trkpt><trkpt lat="45.7647592" lon="10.7580646"><ele>427.00000000000006</ele><time>2026-03-29T13:30:23.575Z</time></trkpt><trkpt lat="45.7646816" lon="10.7579821"><ele>427.00000000000006</ele><time>2026-03-29T13:30:24.577Z</time></trkpt><trkpt lat="45.7646038" lon="10.7578929"><ele>427.0</ele><time>2026-03-29T13:30:25.573Z</time></trkpt><trkpt lat="45.7645325" lon="10.7577857"><ele>427.0</ele><time>2026-03-29T13:30:26.569Z</time></trkpt><trkpt lat="45.7644649" lon="10.7576675"><ele>422.0</ele><time>2026-03-29T13:30:27.598Z</time></trkpt><trkpt lat="45.7643991" lon="10.7575481"><ele>417.00000000000006</ele><time>2026-03-29T13:30:28.578Z</time></trkpt><trkpt lat="45.764331" lon="10.7574232"><ele>412.0</ele><time>2026-03-29T13:30:29.578Z</time></trkpt><trkpt lat="45.7642565" lon="10.7573038"><ele>407.0</ele><time>2026-03-29T13:30:30.577Z</time></trkpt><trkpt lat="45.7641823" lon="10.7571997"><ele>402.0</ele><time>2026-03-29T13:30:31.567Z</time></trkpt><trkpt lat="45.76411" lon="10.7571035"><ele>402.0</ele><time>2026-03-29T13:30:32.58Z</time></trkpt><trkpt lat="45.7640415" lon="10.7570254"><ele>402.0</ele><time>2026-03-29T13:30:33.572Z</time></trkpt><trkpt lat="45.7639743" lon="10.7569814"><ele>402.0</ele><time>2026-03-29T13:30:34.584Z</time></trkpt><trkpt lat="45.7638761" lon="10.7569216"><ele>402.0</ele><time>2026-03-29T13:30:36.576Z</time></trkpt><trkpt lat="45.7638678" lon="10.7568305"><ele>402.0</ele><time>2026-03-29T13:30:38.577Z</time></trkpt><trkpt lat="45.7639629" lon="10.7567266"><ele>407.0</ele><time>2026-03-29T13:30:40.584Z</time></trkpt><trkpt lat="45.7640265" lon="10.7567213"><ele>412.0</ele><time>2026-03-29T13:30:41.578Z</time></trkpt><trkpt lat="45.7641614" lon="10.7568128"><ele>417.0</ele><time>2026-03-29T13:30:43.578Z</time></trkpt><trkpt lat="45.7643039" lon="10.7568266"><ele>422.0</ele><time>2026-03-29T13:30:44.582Z</time></trkpt><trkpt lat="45.7644364" lon="10.7568837"><ele>430.25</ele><time>2026-03-29T13:30:45.586Z</time></trkpt><trkpt lat="45.7645644" lon="10.7569683"><ele>438.5</ele><time>2026-03-29T13:30:46.568Z</time></trkpt><trkpt lat="45.7647027" lon="10.7570656"><ele>446.75</ele><time>2026-03-29T13:30:47.567Z</time></trkpt><trkpt lat="45.7648318" lon="10.7571548"><ele>455.0</ele><time>2026-03-29T13:30:48.575Z</time></trkpt><trkpt lat="45.7649567" lon="10.7572484"><ele>455.0</ele><time>2026-03-29T13:30:49.586Z</time></trkpt><trkpt lat="45.7650639" lon="10.7573366"><ele>455.0</ele><time>2026-03-29T13:30:50.572Z</time></trkpt><trkpt lat="45.765129" lon="10.7574221"><ele>455.0</ele><time>2026-03-29T13:30:51.569Z</time></trkpt><trkpt lat="45.765198" lon="10.7574847"><ele>455.0</ele><time>2026-03-29T13:30:52.579Z</time></trkpt><trkpt lat="45.7651032" lon="10.7575884"><ele>455.0</ele><time>2026-03-29T13:30:53.578Z</time></trkpt><trkpt lat="45.7651736" lon="10.757601"><ele>452.8</ele><time>2026-03-29T13:30:54.564Z</time></trkpt><trkpt lat="45.765257" lon="10.7576171"><ele>450.6</ele><time>2026-03-29T13:30:55.573Z</time></trkpt><trkpt lat="45.7653291" lon="10.7576373"><ele>448.4</ele><time>2026-03-29T13:30:56.573Z</time></trkpt><trkpt lat="45.765415" lon="10.7576479"><ele>446.2</ele><time>2026-03-29T13:30:57.574Z</time></trkpt><trkpt lat="45.7655098" lon="10.7576445"><ele>444.0</ele><time>2026-03-29T13:30:58.574Z</time></trkpt><trkpt lat="45.7656476" lon="10.7579718"><ele>452.66666666666663</ele><time>2026-03-29T13:30:59.577Z</time></trkpt><trkpt lat="45.7657771" lon="10.7579564"><ele>461.3333333333333</ele><time>2026-03-29T13:31:00.614Z</time></trkpt><trkpt lat="45.7659444" lon="10.7579303"><ele>470.0</ele><time>2026-03-29T13:31:01.922Z</time></trkpt><trkpt lat="45.7661242" lon="10.7579636"><ele>474.5</ele><time>2026-03-29T13:31:03.617Z</time></trkpt><trkpt lat="45.7662553" lon="10.7579221"><ele>479.0</ele><time>2026-03-29T13:31:04.628Z</time></trkpt><trkpt lat="45.7663606" lon="10.7579278"><ele>483.5</ele><time>2026-03-29T13:31:05.62Z</time></trkpt><trkpt lat="45.7664616" lon="10.7579069"><ele>488.0</ele><time>2026-03-29T13:31:06.626Z</time></trkpt><trkpt lat="45.7665758" lon="10.7578711"><ele>488.0</ele><time>2026-03-29T13:31:07.626Z</time></trkpt><trkpt lat="45.7666703" lon="10.757875"><ele>488.0</ele><time>2026-03-29T13:31:08.622Z</time></trkpt><trkpt lat="45.7667993" lon="10.7578977"><ele>488.0</ele><time>2026-03-29T13:31:09.6Z</time></trkpt><trkpt lat="45.7669309" lon="10.7579213"><ele>488.0</ele><time>2026-03-29T13:31:10.59Z</time></trkpt><trkpt lat="45.770615" lon="10.7630306"><ele>488.0</ele><time>2026-03-29T13:31:41.453Z</time></trkpt><trkpt lat="45.7706856" lon="10.7631314"><ele>488.0</ele><time>2026-03-29T13:31:42.454Z</time></trkpt><trkpt lat="45.7707592" lon="10.7632274"><ele>488.0</ele><time>2026-03-29T13:31:43.454Z</time></trkpt><trkpt lat="45.7708481" lon="10.7634061"><ele>488.0</ele><time>2026-03-29T13:31:45.637Z</time></trkpt><trkpt lat="45.7708988" lon="10.7635829"><ele>488.0</ele><time>2026-03-29T13:31:46.62Z</time></trkpt><trkpt lat="45.7709425" lon="10.7637585"><ele>487.99999999999994</ele><time>2026-03-29T13:31:47.634Z</time></trkpt><trkpt lat="45.7709484" lon="10.763915"><ele>487.99999999999994</ele><time>2026-03-29T13:31:48.635Z</time></trkpt><trkpt lat="45.7709692" lon="10.7640573"><ele>488.0</ele><time>2026-03-29T13:31:49.629Z</time></trkpt><trkpt lat="45.7710011" lon="10.764196"><ele>488.0</ele><time>2026-03-29T13:31:50.655Z</time></trkpt><trkpt lat="45.7710087" lon="10.7642915"><ele>422.3333333333333</ele><time>2026-03-29T13:31:51.628Z</time></trkpt><trkpt lat="45.7710146" lon="10.7644535"><ele>356.66666666666663</ele><time>2026-03-29T13:31:53.626Z</time></trkpt><trkpt lat="45.7710426" lon="10.7645386"><ele>291.0</ele><time>2026-03-29T13:31:54.639Z</time></trkpt><trkpt lat="45.7710764" lon="10.7646278"><ele>225.33333333333331</ele><time>2026-03-29T13:31:55.635Z</time></trkpt><trkpt lat="45.7711184" lon="10.7647187"><ele>159.66666666666666</ele><time>2026-03-29T13:31:56.635Z</time></trkpt><trkpt lat="45.7711692" lon="10.7648041"><ele>94.0</ele><time>2026-03-29T13:31:57.629Z</time></trkpt><trkpt lat="45.7712252" lon="10.7648828"><ele>115.66666666666666</ele><time>2026-03-29T13:31:58.633Z</time></trkpt><trkpt lat="45.7713017" lon="10.7649776"><ele>137.33333333333334</ele><time>2026-03-29T13:31:59.631Z</time></trkpt><trkpt lat="45.7713627" lon="10.7650219"><ele>159.0</ele><time>2026-03-29T13:32:00.645Z</time></trkpt><trkpt lat="45.7714502" lon="10.7650733"><ele>180.66666666666669</ele><time>2026-03-29T13:32:01.62Z</time></trkpt><trkpt lat="45.7715251" lon="10.7651277"><ele>202.33333333333334</ele><time>2026-03-29T13:32:02.618Z</time></trkpt><trkpt lat="45.7716022" lon="10.7651965"><ele>224.0</ele><time>2026-03-29T13:32:03.615Z</time></trkpt><trkpt lat="45.771689" lon="10.765246"><ele>224.0</ele><time>2026-03-29T13:32:04.625Z</time></trkpt><trkpt lat="45.7717855" lon="10.7652724"><ele>223.99999999999997</ele><time>2026-03-29T13:32:05.635Z</time></trkpt><trkpt lat="45.7718846" lon="10.7652877"><ele>223.99999999999997</ele><time>2026-03-29T13:32:06.64Z</time></trkpt><trkpt lat="45.7719752" lon="10.7653248"><ele>224.0</ele><time>2026-03-29T13:32:07.63Z</time></trkpt><trkpt lat="45.7720885" lon="10.7653674"><ele>224.0</ele><time>2026-03-29T13:32:08.665Z</time></trkpt><trkpt lat="45.7721758" lon="10.7654055"><ele>235.2</ele><time>2026-03-29T13:32:09.63Z</time></trkpt><trkpt lat="45.7722825" lon="10.7654666"><ele>246.39999999999998</ele><time>2026-03-29T13:32:10.622Z</time></trkpt><trkpt lat="45.7723757" lon="10.7655719"><ele>257.6</ele><time>2026-03-29T13:32:11.627Z</time></trkpt><trkpt lat="45.772415" lon="10.7656696"><ele>268.8</ele><time>2026-03-29T13:32:12.628Z</time></trkpt><trkpt lat="45.7724909" lon="10.765777"><ele>280.0</ele><time>2026-03-29T13:32:14.631Z</time></trkpt><trkpt lat="45.7725992" lon="10.7658078"><ele>281.0</ele><time>2026-03-29T13:32:16.66Z</time></trkpt><trkpt lat="45.7727057" lon="10.7658627"><ele>282.0</ele><time>2026-03-29T13:32:18.615Z</time></trkpt><trkpt lat="45.7728143" lon="10.7659498"><ele>283.0</ele><time>2026-03-29T13:32:20.629Z</time></trkpt><trkpt lat="45.7728805" lon="10.7659958"><ele>284.0</ele><time>2026-03-29T13:32:21.629Z</time></trkpt><trkpt lat="45.7729499" lon="10.7660544"><ele>285.0</ele><time>2026-03-29T13:32:22.641Z</time></trkpt><trkpt lat="45.7730362" lon="10.7661228"><ele>285.0</ele><time>2026-03-29T13:32:23.632Z</time></trkpt><trkpt lat="45.7731329" lon="10.7662057"><ele>285.0</ele><time>2026-03-29T13:32:24.634Z</time></trkpt><trkpt lat="45.7732414" lon="10.7662993"><ele>285.0</ele><time>2026-03-29T13:32:25.638Z</time></trkpt><trkpt lat="45.7733241" lon="10.766364"><ele>285.0</ele><time>2026-03-29T13:32:26.632Z</time></trkpt><trkpt lat="45.7734425" lon="10.7663986"><ele>286.0</ele><time>2026-03-29T13:32:28.625Z</time></trkpt><trkpt lat="45.7735199" lon="10.766414"><ele>287.0</ele><time>2026-03-29T13:32:29.64Z</time></trkpt><trkpt lat="45.7735877" lon="10.7664461"><ele>288.0</ele><time>2026-03-29T13:32:30.634Z</time></trkpt><trkpt lat="45.7734793" lon="10.767183"><ele>288.0</ele><time>2026-03-29T13:32:31.634Z</time></trkpt><trkpt lat="45.7735084" lon="10.7673053"><ele>288.0</ele><time>2026-03-29T13:32:32.622Z</time></trkpt><trkpt lat="45.7735738" lon="10.767474"><ele>288.0</ele><time>2026-03-29T13:32:33.626Z</time></trkpt><trkpt lat="45.7737315" lon="10.7675639"><ele>288.0</ele><time>2026-03-29T13:32:34.629Z</time></trkpt><trkpt lat="45.7738361" lon="10.7673141"><ele>288.0</ele><time>2026-03-29T13:32:35.63Z</time></trkpt><trkpt lat="45.7739813" lon="10.7670039"><ele>288.0</ele><time>2026-03-29T13:32:36.63Z</time></trkpt><trkpt lat="45.7740085" lon="10.7668565"><ele>288.0</ele><time>2026-03-29T13:32:37.647Z</time></trkpt><trkpt lat="45.7740606" lon="10.7667051"><ele>288.0</ele><time>2026-03-29T13:32:38.626Z</time></trkpt><trkpt lat="45.7740741" lon="10.7665415"><ele>288.0</ele><time>2026-03-29T13:32:39.638Z</time></trkpt><trkpt lat="45.7740874" lon="10.7663976"><ele>288.0</ele><time>2026-03-29T13:32:40.645Z</time></trkpt><trkpt lat="45.7741048" lon="10.7662255"><ele>288.0</ele><time>2026-03-29T13:32:41.633Z</time></trkpt><trkpt lat="45.7741108" lon="10.7660516"><ele>290.2</ele><time>2026-03-29T13:32:42.653Z</time></trkpt><trkpt lat="45.7741069" lon="10.7658826"><ele>292.4</ele><time>2026-03-29T13:32:43.627Z</time></trkpt><trkpt lat="45.7740885" lon="10.7657378"><ele>294.59999999999997</ele><time>2026-03-29T13:32:44.631Z</time></trkpt><trkpt lat="45.7740676" lon="10.7655754"><ele>296.8</ele><time>2026-03-29T13:32:45.645Z</time></trkpt><trkpt lat="45.7740465" lon="10.7654179"><ele>299.0</ele><time>2026-03-29T13:32:46.639Z</time></trkpt><trkpt lat="45.7740257" lon="10.7652754"><ele>297.4</ele><time>2026-03-29T13:32:47.621Z</time></trkpt><trkpt lat="45.774003" lon="10.7651275"><ele>295.79999999999995</ele><time>2026-03-29T13:32:48.658Z</time></trkpt><trkpt lat="45.7739961" lon="10.7649899"><ele>294.20000000000005</ele><time>2026-03-29T13:32:49.62Z</time></trkpt><trkpt lat="45.7739907" lon="10.7648521"><ele>292.6</ele><time>2026-03-29T13:32:50.633Z</time></trkpt><trkpt lat="45.773985" lon="10.7647431"><ele>291.0</ele><time>2026-03-29T13:32:51.633Z</time></trkpt><trkpt lat="45.7739215" lon="10.7646235"><ele>291.0</ele><time>2026-03-29T13:32:53.639Z</time></trkpt><trkpt lat="45.7738206" lon="10.7646668"><ele>291.0</ele><time>2026-03-29T13:32:55.649Z</time></trkpt><trkpt lat="45.7737968" lon="10.7648308"><ele>291.0</ele><time>2026-03-29T13:32:57.639Z</time></trkpt><trkpt lat="45.7738012" lon="10.7649345"><ele>291.0</ele><time>2026-03-29T13:32:58.639Z</time></trkpt><trkpt lat="45.7738005" lon="10.7650553"><ele>291.0</ele><time>2026-03-29T13:32:59.624Z</time></trkpt><trkpt lat="45.7738102" lon="10.7651728"><ele>292.3333333333333</ele><time>2026-03-29T13:33:00.632Z</time></trkpt><trkpt lat="45.7738335" lon="10.7652822"><ele>293.6666666666667</ele><time>2026-03-29T13:33:01.637Z</time></trkpt><trkpt lat="45.7738673" lon="10.7653811"><ele>295.0</ele><time>2026-03-29T13:33:02.638Z</time></trkpt><trkpt lat="45.7738923" lon="10.7654825"><ele>296.33333333333337</ele><time>2026-03-29T13:33:03.628Z</time></trkpt><trkpt lat="45.7739059" lon="10.7655898"><ele>297.6666666666667</ele><time>2026-03-29T13:33:04.635Z</time></trkpt><trkpt lat="45.7739179" lon="10.7656965"><ele>299.0</ele><time>2026-03-29T13:33:05.641Z</time></trkpt><trkpt lat="45.7739308" lon="10.7657944"><ele>299.0</ele><time>2026-03-29T13:33:06.655Z</time></trkpt><trkpt lat="45.7739108" lon="10.7659719"><ele>299.0</ele><time>2026-03-29T13:33:08.623Z</time></trkpt><trkpt lat="45.7738871" lon="10.766068"><ele>288.0</ele><time>2026-03-29T13:33:09.646Z</time></trkpt><trkpt lat="45.7738652" lon="10.7661651"><ele>288.0</ele><time>2026-03-29T13:33:10.626Z</time></trkpt><trkpt lat="45.7738453" lon="10.7662521"><ele>288.0</ele><time>2026-03-29T13:33:11.628Z</time></trkpt></trkseg></trk></gpx>